<?xml version='1.0' encoding='UTF-8'?><gpx version="1.1" creator="JPX - https://github.com/jenetics/jpx" xmlns="http://www.topografix.com/GPX/1/1"><trk><trkseg><trkpt lat="43.308056604341324" lon="11.316553161650326"><ele>234.99999999999997</ele><time>2026-04-09T08:55:13Z</time></trkpt><trkpt lat="43.307990807593676" lon="11.316562913653055"><ele>235.0</ele><time>2026-04-09T08:56:43.999Z</time></trkpt><trkpt lat="43.30792709375421" lon="11.316628193313642"><ele>235.0</ele><time>2026-04-09T08:56:45.999Z</time></trkpt><trkpt lat="43.307813187277674" lon="11.316709763877213"><ele>235.0</ele><time>2026-04-09T08:56:47.999Z</time></trkpt><trkpt lat="43.30774532755989" lon="11.316762573054442"><ele>234.99999999999997</ele><time>2026-04-09T08:56:48.999Z</time></trkpt><trkpt lat="43.30766811695376" lon="11.316840504850761"><ele>235.0</ele><time>2026-04-09T08:56:49.999Z</time></trkpt><trkpt lat="43.30761125646601" lon="11.316913804199473"><ele>235.0</ele><time>2026-04-09T08:56:50.999Z</time></trkpt><trkpt lat="43.30754711795928" lon="11.316997856212303"><ele>235.0</ele><time>2026-04-09T08:56:51.999Z</time></trkpt><trkpt lat="43.30749448884757" lon="11.317085199651268"><ele>235.0</ele><time>2026-04-09T08:56:52.999Z</time></trkpt><trkpt lat="43.30745438943713" lon="11.31715956898302"><ele>235.0</ele><time>2026-04-09T08:56:53.999Z</time></trkpt><trkpt lat="43.30738086142402" lon="11.317303581776818"><ele>235.0</ele><time>2026-04-09T08:56:55.999Z</time></trkpt><trkpt lat="43.30731121238723" lon="11.317443110099255"><ele>234.49999999999997</ele><time>2026-04-09T08:56:57.999Z</time></trkpt><trkpt lat="43.30725737408348" lon="11.317535421139787"><ele>234.0</ele><time>2026-04-09T08:56:59.999Z</time></trkpt><trkpt lat="43.307220047882936" lon="11.317609867888525"><ele>233.5</ele><time>2026-04-09T08:57:01.999Z</time></trkpt><trkpt lat="43.307182033161894" lon="11.317700936104533"><ele>233.0</ele><time>2026-04-09T08:57:06.999Z</time></trkpt><trkpt lat="43.3071960394388" lon="11.317828037790255"><ele>232.49999999999997</ele><time>2026-04-09T08:57:10.999Z</time></trkpt><trkpt lat="43.30728986700513" lon="11.317884139255877"><ele>232.0</ele><time>2026-04-09T08:57:12.999Z</time></trkpt><trkpt lat="43.307345479658636" lon="11.317924918089226"><ele>233.16666666666666</ele><time>2026-04-09T08:57:14Z</time></trkpt><trkpt lat="43.30740418598337" lon="11.317963957186217"><ele>234.33333333333331</ele><time>2026-04-09T08:57:15Z</time></trkpt><trkpt lat="43.30746853148546" lon="11.317990554615708"><ele>235.5</ele><time>2026-04-09T08:57:16Z</time></trkpt><trkpt lat="43.30753683181435" lon="11.318015741311974"><ele>236.66666666666669</ele><time>2026-04-09T08:57:17Z</time></trkpt><trkpt lat="43.30764581838921" lon="11.318060275231716"><ele>237.83333333333334</ele><time>2026-04-09T08:57:19Z</time></trkpt><trkpt lat="43.307708044840346" lon="11.318089652850423"><ele>239.0</ele><time>2026-04-09T08:57:20Z</time></trkpt><trkpt lat="43.30777211503107" lon="11.318118718171144"><ele>239.50000000000003</ele><time>2026-04-09T08:57:21Z</time></trkpt><trkpt lat="43.3078397517425" lon="11.318145307317632"><ele>240.0</ele><time>2026-04-09T08:57:22Z</time></trkpt><trkpt lat="43.307912795088384" lon="11.318168967129115"><ele>240.5</ele><time>2026-04-09T08:57:23Z</time></trkpt><trkpt lat="43.30799465388402" lon="11.318200367112794"><ele>241.0</ele><time>2026-04-09T08:57:24Z</time></trkpt><trkpt lat="43.308101805070486" lon="11.31826459538066"><ele>241.50000000000003</ele><time>2026-04-09T08:57:26Z</time></trkpt><trkpt lat="43.30816354335519" lon="11.318308257730706"><ele>242.0</ele><time>2026-04-09T08:57:27Z</time></trkpt><trkpt lat="43.30822525995579" lon="11.318356127765206"><ele>243.66666666666669</ele><time>2026-04-09T08:57:28Z</time></trkpt><trkpt lat="43.30829228201501" lon="11.318411198781245"><ele>245.33333333333334</ele><time>2026-04-09T08:57:29Z</time></trkpt><trkpt lat="43.308363897131265" lon="11.318474250537106"><ele>247.0</ele><time>2026-04-09T08:57:30Z</time></trkpt><trkpt lat="43.30843810254237" lon="11.318552146302432"><ele>248.66666666666669</ele><time>2026-04-09T08:57:31Z</time></trkpt><trkpt lat="43.30848889986397" lon="11.31861899875672"><ele>250.33333333333334</ele><time>2026-04-09T08:57:32Z</time></trkpt><trkpt lat="43.30857037315015" lon="11.318723860134636"><ele>252.0</ele><time>2026-04-09T08:57:34Z</time></trkpt><trkpt lat="43.30863258598507" lon="11.318801395041953"><ele>252.0</ele><time>2026-04-09T08:57:40Z</time></trkpt><trkpt lat="43.30869292844512" lon="11.318847679018562"><ele>252.0</ele><time>2026-04-09T08:57:43Z</time></trkpt><trkpt lat="43.30869612614582" lon="11.318683912263694"><ele>252.0</ele><time>2026-04-09T08:57:46Z</time></trkpt><trkpt lat="43.30861155631682" lon="11.318609334857797"><ele>252.0</ele><time>2026-04-09T08:57:47Z</time></trkpt><trkpt lat="43.308532285057446" lon="11.318510940506737"><ele>252.0</ele><time>2026-04-09T08:57:48Z</time></trkpt><trkpt lat="43.30845063153917" lon="11.318410688970735"><ele>252.0</ele><time>2026-04-09T08:57:49Z</time></trkpt><trkpt lat="43.308347383070455" lon="11.318306663028327"><ele>252.0</ele><time>2026-04-09T08:57:50Z</time></trkpt><trkpt lat="43.30823408914187" lon="11.31819836218251"><ele>252.0</ele><time>2026-04-09T08:57:51Z</time></trkpt><trkpt lat="43.30813132580531" lon="11.318114787779045"><ele>252.0</ele><time>2026-04-09T08:57:52Z</time></trkpt><trkpt lat="43.30803930560824" lon="11.318029712870278"><ele>249.39999999999998</ele><time>2026-04-09T08:57:53Z</time></trkpt><trkpt lat="43.30794599122208" lon="11.317919425614157"><ele>246.79999999999998</ele><time>2026-04-09T08:57:54Z</time></trkpt><trkpt lat="43.30787832454271" lon="11.317802215646203"><ele>244.2</ele><time>2026-04-09T08:57:55Z</time></trkpt><trkpt lat="43.30783984253786" lon="11.317710191624613"><ele>241.6</ele><time>2026-04-09T08:57:56Z</time></trkpt><trkpt lat="43.307834376459006" lon="11.317609710798484"><ele>239.0</ele><time>2026-04-09T08:57:57Z</time></trkpt><trkpt lat="43.30787132205704" lon="11.317491348010098"><ele>239.0</ele><time>2026-04-09T08:57:58Z</time></trkpt><trkpt lat="43.307936767779694" lon="11.317390476148546"><ele>238.99999999999997</ele><time>2026-04-09T08:57:59Z</time></trkpt><trkpt lat="43.308018714115995" lon="11.317337202014318"><ele>238.99999999999997</ele><time>2026-04-09T08:58:00Z</time></trkpt><trkpt lat="43.30811636392404" lon="11.317314060208552"><ele>239.0</ele><time>2026-04-09T08:58:01Z</time></trkpt><trkpt lat="43.30821799059931" lon="11.317317419106232"><ele>239.0</ele><time>2026-04-09T08:58:02Z</time></trkpt><trkpt lat="43.308309411061494" lon="11.317334159896483"><ele>240.6</ele><time>2026-04-09T08:58:03Z</time></trkpt><trkpt lat="43.308410762036836" lon="11.317360636362888"><ele>242.2</ele><time>2026-04-09T08:58:04Z</time></trkpt><trkpt lat="43.308518939496324" lon="11.317387825923296"><ele>243.79999999999998</ele><time>2026-04-09T08:58:05Z</time></trkpt><trkpt lat="43.3086139334376" lon="11.317411380549652"><ele>245.39999999999998</ele><time>2026-04-09T08:58:06Z</time></trkpt><trkpt lat="43.308702308623076" lon="11.317427054036333"><ele>247.0</ele><time>2026-04-09T08:58:07Z</time></trkpt><trkpt lat="43.30878919318366" lon="11.317431654681041"><ele>246.99999999999997</ele><time>2026-04-09T08:58:08Z</time></trkpt><trkpt lat="43.30887237584312" lon="11.317429544218308"><ele>247.0</ele><time>2026-04-09T08:58:09Z</time></trkpt><trkpt lat="43.308953613367414" lon="11.317416944922002"><ele>247.0</ele><time>2026-04-09T08:58:10Z</time></trkpt><trkpt lat="43.30902496625379" lon="11.317384431786095"><ele>247.0</ele><time>2026-04-09T08:58:11Z</time></trkpt><trkpt lat="43.30909459737745" lon="11.317344236225473"><ele>246.99999999999997</ele><time>2026-04-09T08:58:12Z</time></trkpt><trkpt lat="43.30912517113378" lon="11.317235259281572"><ele>247.0</ele><time>2026-04-09T08:58:14Z</time></trkpt><trkpt lat="43.309178720213204" lon="11.317090841531105"><ele>245.83333333333331</ele><time>2026-04-09T08:58:19.999Z</time></trkpt><trkpt lat="43.30918595267645" lon="11.316974282910145"><ele>244.66666666666666</ele><time>2026-04-09T08:58:21.999Z</time></trkpt><trkpt lat="43.30921341312147" lon="11.31688295861523"><ele>243.5</ele><time>2026-04-09T08:58:40.999Z</time></trkpt><trkpt lat="43.30926984663958" lon="11.31680953285749"><ele>242.33333333333331</ele><time>2026-04-09T08:58:52.999Z</time></trkpt><trkpt lat="43.30937004152579" lon="11.316806150043393"><ele>241.16666666666666</ele><time>2026-04-09T08:58:54.999Z</time></trkpt><trkpt lat="43.309443971656144" lon="11.316811796451498"><ele>240.0</ele><time>2026-04-09T08:58:55.999Z</time></trkpt><trkpt lat="43.30951488325006" lon="11.316793617312063"><ele>240.0</ele><time>2026-04-09T08:58:56.999Z</time></trkpt><trkpt lat="43.30961477317247" lon="11.316702884153775"><ele>240.0</ele><time>2026-04-09T08:58:58.999Z</time></trkpt><trkpt lat="43.3096452446256" lon="11.316619880590943"><ele>240.0</ele><time>2026-04-09T08:58:59.999Z</time></trkpt><trkpt lat="43.309652544763715" lon="11.316526238803762"><ele>240.0</ele><time>2026-04-09T08:59:00.999Z</time></trkpt><trkpt lat="43.30965741730467" lon="11.316437254173657"><ele>240.0</ele><time>2026-04-09T08:59:01.999Z</time></trkpt><trkpt lat="43.30960562780054" lon="11.316348630855076"><ele>240.0</ele><time>2026-04-09T08:59:02.999Z</time></trkpt><trkpt lat="43.30953699372254" lon="11.31627554047518"><ele>240.0</ele><time>2026-04-09T08:59:04.999Z</time></trkpt><trkpt lat="43.30941110263846" lon="11.316348081079413"><ele>240.0</ele><time>2026-04-09T08:59:06.999Z</time></trkpt><trkpt lat="43.30932295199388" lon="11.316438084384556"><ele>240.0</ele><time>2026-04-09T08:59:08.999Z</time></trkpt><trkpt lat="43.30930311488149" lon="11.316531480927878"><ele>240.0</ele><time>2026-04-09T08:59:09.999Z</time></trkpt><trkpt lat="43.30925123993874" lon="11.31660407757711"><ele>240.0</ele><time>2026-04-09T08:59:10.999Z</time></trkpt><trkpt lat="43.30918021348808" lon="11.316646800542802"><ele>240.0</ele><time>2026-04-09T08:59:11.999Z</time></trkpt><trkpt lat="43.30911396412745" lon="11.316671502697313"><ele>240.0</ele><time>2026-04-09T08:59:12.999Z</time></trkpt><trkpt lat="43.309047336789455" lon="11.316668254029745"><ele>240.0</ele><time>2026-04-09T08:59:13.999Z</time></trkpt><trkpt lat="43.30897149771224" lon="11.316642307669559"><ele>240.0</ele><time>2026-04-09T08:59:14.999Z</time></trkpt><trkpt lat="43.30888458898659" lon="11.316581750296486"><ele>240.0</ele><time>2026-04-09T08:59:15.999Z</time></trkpt><trkpt lat="43.30879755332804" lon="11.316507641613672"><ele>240.0</ele><time>2026-04-09T08:59:16.999Z</time></trkpt><trkpt lat="43.308695594839506" lon="11.316418523085774"><ele>239.8</ele><time>2026-04-09T08:59:17.999Z</time></trkpt><trkpt lat="43.30860827807307" lon="11.316350814568867"><ele>239.6</ele><time>2026-04-09T08:59:18.999Z</time></trkpt><trkpt lat="43.30855006493343" lon="11.316303134180725"><ele>239.39999999999998</ele><time>2026-04-09T08:59:20Z</time></trkpt><trkpt lat="43.30844697285266" lon="11.316228317875865"><ele>239.2</ele><time>2026-04-09T08:59:22Z</time></trkpt><trkpt lat="43.30836862502291" lon="11.316359816769205"><ele>239.0</ele><time>2026-04-09T08:59:23Z</time></trkpt><trkpt lat="43.308328134894076" lon="11.31643761770637"><ele>239.00000000000003</ele><time>2026-04-09T08:59:24Z</time></trkpt><trkpt lat="43.30831264990922" lon="11.316538043516477"><ele>239.0</ele><time>2026-04-09T08:59:25Z</time></trkpt><trkpt lat="43.30833284163442" lon="11.316641475160278"><ele>239.0</ele><time>2026-04-09T08:59:26Z</time></trkpt><trkpt lat="43.308378971861934" lon="11.316726519866776"><ele>239.0</ele><time>2026-04-09T08:59:27Z</time></trkpt><trkpt lat="43.30844954854281" lon="11.316774562193812"><ele>239.00000000000003</ele><time>2026-04-09T08:59:28Z</time></trkpt><trkpt lat="43.30853570330178" lon="11.316786183570676"><ele>239.0</ele><time>2026-04-09T08:59:29Z</time></trkpt><trkpt lat="43.308633880497446" lon="11.31677175559526"><ele>239.00000000000003</ele><time>2026-04-09T08:59:30Z</time></trkpt><trkpt lat="43.30873675897366" lon="11.3167640901998"><ele>239.0</ele><time>2026-04-09T08:59:31Z</time></trkpt><trkpt lat="43.30881649424839" lon="11.31676878205681"><ele>239.0</ele><time>2026-04-09T08:59:32Z</time></trkpt><trkpt lat="43.30888733724763" lon="11.316768679857349"><ele>239.0</ele><time>2026-04-09T08:59:33Z</time></trkpt><trkpt lat="43.30896187081803" lon="11.316772723359875"><ele>239.00000000000003</ele><time>2026-04-09T08:59:34Z</time></trkpt><trkpt lat="43.30903605943478" lon="11.316774626910039"><ele>239.0</ele><time>2026-04-09T08:59:35Z</time></trkpt><trkpt lat="43.30911132520512" lon="11.316773677782056"><ele>239.16666666666669</ele><time>2026-04-09T08:59:36Z</time></trkpt><trkpt lat="43.309186044240874" lon="11.316769966067737"><ele>239.33333333333334</ele><time>2026-04-09T08:59:37Z</time></trkpt><trkpt lat="43.309255438210066" lon="11.316771769132489"><ele>239.5</ele><time>2026-04-09T08:59:38Z</time></trkpt><trkpt lat="43.30933060775195" lon="11.316777746927883"><ele>239.66666666666669</ele><time>2026-04-09T08:59:39Z</time></trkpt><trkpt lat="43.30940636666533" lon="11.316787592678168"><ele>239.83333333333334</ele><time>2026-04-09T08:59:40Z</time></trkpt><trkpt lat="43.309469162263866" lon="11.316803819331229"><ele>240.0</ele><time>2026-04-09T08:59:41Z</time></trkpt><trkpt lat="43.30956988630158" lon="11.31680690567468"><ele>240.0</ele><time>2026-04-09T08:59:43Z</time></trkpt><trkpt lat="43.30962160338953" lon="11.31667863106374"><ele>240.0</ele><time>2026-04-09T08:59:44Z</time></trkpt><trkpt lat="43.30963844751174" lon="11.316572143405788"><ele>240.0</ele><time>2026-04-09T08:59:45Z</time></trkpt><trkpt lat="43.30965764613582" lon="11.316473158046444"><ele>240.0</ele><time>2026-04-09T08:59:46Z</time></trkpt><trkpt lat="43.30955376872182" lon="11.316293404581211"><ele>240.0</ele><time>2026-04-09T08:59:48Z</time></trkpt><trkpt lat="43.30949031665222" lon="11.316208555292947"><ele>239.8</ele><time>2026-04-09T08:59:49Z</time></trkpt><trkpt lat="43.309413354210136" lon="11.316110991090966"><ele>239.6</ele><time>2026-04-09T08:59:50Z</time></trkpt><trkpt lat="43.30933451012485" lon="11.316030603624679"><ele>239.39999999999998</ele><time>2026-04-09T08:59:51Z</time></trkpt><trkpt lat="43.309280269728845" lon="11.315942362394978"><ele>239.2</ele><time>2026-04-09T08:59:52Z</time></trkpt><trkpt lat="43.30922489715229" lon="11.315838302580215"><ele>239.0</ele><time>2026-04-09T08:59:53Z</time></trkpt><trkpt lat="43.30917799002463" lon="11.315724646551605"><ele>239.00000000000003</ele><time>2026-04-09T08:59:54Z</time></trkpt><trkpt lat="43.309148439073155" lon="11.31561607796423"><ele>239.0</ele><time>2026-04-09T08:59:55Z</time></trkpt><trkpt lat="43.30912895064619" lon="11.315512270482612"><ele>239.0</ele><time>2026-04-09T08:59:56Z</time></trkpt><trkpt lat="43.30911460544375" lon="11.315403774609234"><ele>239.0</ele><time>2026-04-09T08:59:57Z</time></trkpt><trkpt lat="43.3091045841806" lon="11.315292964592071"><ele>239.00000000000003</ele><time>2026-04-09T08:59:58Z</time></trkpt><trkpt lat="43.30910323454039" lon="11.315178661086973"><ele>239.0</ele><time>2026-04-09T08:59:59Z</time></trkpt><trkpt lat="43.30910624930583" lon="11.315057126471725"><ele>238.79999999999998</ele><time>2026-04-09T09:00:00Z</time></trkpt><trkpt lat="43.30911255315901" lon="11.31495836806847"><ele>238.59999999999997</ele><time>2026-04-09T09:00:01Z</time></trkpt><trkpt lat="43.3091356969019" lon="11.314862634571645"><ele>238.4</ele><time>2026-04-09T09:00:02Z</time></trkpt><trkpt lat="43.30918148840324" lon="11.31475916544124"><ele>238.2</ele><time>2026-04-09T09:00:03Z</time></trkpt><trkpt lat="43.30923936023003" lon="11.314636002072305"><ele>238.0</ele><time>2026-04-09T09:00:04Z</time></trkpt><trkpt lat="43.30930333602306" lon="11.314512071667192"><ele>237.5</ele><time>2026-04-09T09:00:05Z</time></trkpt><trkpt lat="43.30936766825766" lon="11.314387547951915"><ele>237.0</ele><time>2026-04-09T09:00:06Z</time></trkpt><trkpt lat="43.30943829530715" lon="11.31424739669746"><ele>236.5</ele><time>2026-04-09T09:00:07Z</time></trkpt><trkpt lat="43.309515357032595" lon="11.314096279630945"><ele>236.0</ele><time>2026-04-09T09:00:08Z</time></trkpt><trkpt lat="43.30959073143612" lon="11.313952400020145"><ele>235.75</ele><time>2026-04-09T09:00:09Z</time></trkpt><trkpt lat="43.30965152986687" lon="11.313807679806816"><ele>235.5</ele><time>2026-04-09T09:00:10Z</time></trkpt><trkpt lat="43.30968785408546" lon="11.313651472451983"><ele>235.25</ele><time>2026-04-09T09:00:11Z</time></trkpt><trkpt lat="43.30971018930265" lon="11.313474128056672"><ele>235.0</ele><time>2026-04-09T09:00:12Z</time></trkpt><trkpt lat="43.3097338939777" lon="11.313298076090307"><ele>235.0</ele><time>2026-04-09T09:00:13Z</time></trkpt><trkpt lat="43.30976535797833" lon="11.313151997475753"><ele>235.0</ele><time>2026-04-09T09:00:14Z</time></trkpt><trkpt lat="43.30981017514615" lon="11.31302333045702"><ele>235.0</ele><time>2026-04-09T09:00:15Z</time></trkpt><trkpt lat="43.30986907063509" lon="11.312906023397929"><ele>235.0</ele><time>2026-04-09T09:00:15.999Z</time></trkpt><trkpt lat="43.30994272699429" lon="11.312793419784706"><ele>235.0</ele><time>2026-04-09T09:00:16.999Z</time></trkpt><trkpt lat="43.310033421850214" lon="11.312690279735886"><ele>235.0</ele><time>2026-04-09T09:00:17.999Z</time></trkpt><trkpt lat="43.310138135129435" lon="11.312591202790578"><ele>235.0</ele><time>2026-04-09T09:00:18.999Z</time></trkpt><trkpt lat="43.31025351653967" lon="11.31248226692833"><ele>235.0</ele><time>2026-04-09T09:00:19.999Z</time></trkpt><trkpt lat="43.31037595316237" lon="11.312361860977882"><ele>235.0</ele><time>2026-04-09T09:00:20.999Z</time></trkpt><trkpt lat="43.31049076519354" lon="11.312248759527643"><ele>236.33333333333331</ele><time>2026-04-09T09:00:21.999Z</time></trkpt><trkpt lat="43.31060924110558" lon="11.312131872488287"><ele>237.66666666666669</ele><time>2026-04-09T09:00:22.999Z</time></trkpt><trkpt lat="43.31073536183867" lon="11.312016884363569"><ele>239.0</ele><time>2026-04-09T09:00:23.999Z</time></trkpt><trkpt lat="43.31087019254302" lon="11.31189368448291"><ele>239.0</ele><time>2026-04-09T09:00:24.999Z</time></trkpt><trkpt lat="43.31101435708407" lon="11.311765187117242"><ele>239.0</ele><time>2026-04-09T09:00:25.999Z</time></trkpt><trkpt lat="43.31115256398175" lon="11.311642359368294"><ele>239.0</ele><time>2026-04-09T09:00:26.999Z</time></trkpt><trkpt lat="43.31128871688753" lon="11.311517243511984"><ele>239.33333333333334</ele><time>2026-04-09T09:00:27.999Z</time></trkpt><trkpt lat="43.31143294864125" lon="11.311383283919874"><ele>239.66666666666669</ele><time>2026-04-09T09:00:28.999Z</time></trkpt><trkpt lat="43.311588736628465" lon="11.311233546136759"><ele>240.0</ele><time>2026-04-09T09:00:29.999Z</time></trkpt><trkpt lat="43.31173235627946" lon="11.311081378470984"><ele>240.0</ele><time>2026-04-09T09:00:30.999Z</time></trkpt><trkpt lat="43.311878514139046" lon="11.310926420791708"><ele>240.0</ele><time>2026-04-09T09:00:31.999Z</time></trkpt><trkpt lat="43.31202984554426" lon="11.310762889625302"><ele>240.0</ele><time>2026-04-09T09:00:32.999Z</time></trkpt><trkpt lat="43.31218262379764" lon="11.310597483032613"><ele>239.66666666666669</ele><time>2026-04-09T09:00:33.999Z</time></trkpt><trkpt lat="43.31233753044459" lon="11.31042745274479"><ele>239.33333333333334</ele><time>2026-04-09T09:00:34.999Z</time></trkpt><trkpt lat="43.31248456428988" lon="11.310258552232533"><ele>239.0</ele><time>2026-04-09T09:00:35.999Z</time></trkpt><trkpt lat="43.31263222069515" lon="11.310085429748215"><ele>239.0</ele><time>2026-04-09T09:00:36.999Z</time></trkpt><trkpt lat="43.31277917905794" lon="11.309909014194417"><ele>239.0</ele><time>2026-04-09T09:00:37.999Z</time></trkpt><trkpt lat="43.312927952481814" lon="11.309724940215851"><ele>239.0</ele><time>2026-04-09T09:00:38.999Z</time></trkpt><trkpt lat="43.31307396286083" lon="11.30953217961157"><ele>240.33333333333334</ele><time>2026-04-09T09:00:39.999Z</time></trkpt><trkpt lat="43.31322030105631" lon="11.309334536530105"><ele>241.66666666666669</ele><time>2026-04-09T09:00:40.999Z</time></trkpt><trkpt lat="43.313367777593776" lon="11.309130048707098"><ele>243.0</ele><time>2026-04-09T09:00:41.999Z</time></trkpt><trkpt lat="43.313508206625784" lon="11.308924242831168"><ele>242.33333333333331</ele><time>2026-04-09T09:00:42.999Z</time></trkpt><trkpt lat="43.31364426936943" lon="11.308718638271207"><ele>241.66666666666666</ele><time>2026-04-09T09:00:43.999Z</time></trkpt><trkpt lat="43.31378133879324" lon="11.308510780754903"><ele>241.0</ele><time>2026-04-09T09:00:44.999Z</time></trkpt><trkpt lat="43.31391516490805" lon="11.30829602711866"><ele>242.33333333333331</ele><time>2026-04-09T09:00:45.999Z</time></trkpt><trkpt lat="43.314048289046546" lon="11.308078827587376"><ele>243.66666666666669</ele><time>2026-04-09T09:00:46.999Z</time></trkpt><trkpt lat="43.31417979537681" lon="11.307859679431386"><ele>245.0</ele><time>2026-04-09T09:00:47.999Z</time></trkpt><trkpt lat="43.314309829439516" lon="11.307635662148881"><ele>245.0</ele><time>2026-04-09T09:00:48.999Z</time></trkpt><trkpt lat="43.31444011709869" lon="11.307407600905025"><ele>245.0</ele><time>2026-04-09T09:00:49.999Z</time></trkpt><trkpt lat="43.31456913985359" lon="11.307173923056238"><ele>245.0</ele><time>2026-04-09T09:00:50.999Z</time></trkpt><trkpt lat="43.31469876467245" lon="11.306933740382892"><ele>246.0</ele><time>2026-04-09T09:00:51.999Z</time></trkpt><trkpt lat="43.314825948938875" lon="11.30669617226416"><ele>247.0</ele><time>2026-04-09T09:00:52.999Z</time></trkpt><trkpt lat="43.31495384651986" lon="11.306453757103428"><ele>248.0</ele><time>2026-04-09T09:00:53.999Z</time></trkpt><trkpt lat="43.315079302566645" lon="11.306216752377102"><ele>249.0</ele><time>2026-04-09T09:00:54.999Z</time></trkpt><trkpt lat="43.31520413200745" lon="11.30598689707509"><ele>250.0</ele><time>2026-04-09T09:00:55.999Z</time></trkpt><trkpt lat="43.31533578853773" lon="11.30574876619124"><ele>251.0</ele><time>2026-04-09T09:00:56.999Z</time></trkpt><trkpt lat="43.31546291288404" lon="11.305511395207185"><ele>249.33333333333334</ele><time>2026-04-09T09:00:57.999Z</time></trkpt><trkpt lat="43.31558610005829" lon="11.30527827217827"><ele>247.66666666666669</ele><time>2026-04-09T09:00:58.999Z</time></trkpt><trkpt lat="43.31570614584124" lon="11.305050876518518"><ele>246.0</ele><time>2026-04-09T09:00:59.999Z</time></trkpt><trkpt lat="43.3158239128974" lon="11.304836803396377"><ele>248.0</ele><time>2026-04-09T09:01:00.999Z</time></trkpt><trkpt lat="43.315949772187274" lon="11.304616581849984"><ele>250.0</ele><time>2026-04-09T09:01:01.999Z</time></trkpt><trkpt lat="43.3160816970283" lon="11.304403982523532"><ele>252.0</ele><time>2026-04-09T09:01:02.999Z</time></trkpt><trkpt lat="43.31621984885026" lon="11.304195036943135"><ele>252.0</ele><time>2026-04-09T09:01:03.999Z</time></trkpt><trkpt lat="43.31636131113568" lon="11.303988261172886"><ele>252.0</ele><time>2026-04-09T09:01:04.999Z</time></trkpt><trkpt lat="43.31650512125828" lon="11.303782730945501"><ele>252.0</ele><time>2026-04-09T09:01:05.999Z</time></trkpt><trkpt lat="43.31665154343122" lon="11.303578811656143"><ele>251.0</ele><time>2026-04-09T09:01:06.999Z</time></trkpt><trkpt lat="43.316802980023574" lon="11.30337555023374"><ele>250.0</ele><time>2026-04-09T09:01:07.999Z</time></trkpt><trkpt lat="43.3169577366014" lon="11.303179414299043"><ele>249.0</ele><time>2026-04-09T09:01:08.999Z</time></trkpt><trkpt lat="43.31710741305055" lon="11.303004107026174"><ele>249.0</ele><time>2026-04-09T09:01:09.999Z</time></trkpt><trkpt lat="43.31726079665866" lon="11.302830105915985"><ele>249.0</ele><time>2026-04-09T09:01:10.999Z</time></trkpt><trkpt lat="43.31741907692794" lon="11.30265649893298"><ele>249.0</ele><time>2026-04-09T09:01:11.999Z</time></trkpt><trkpt lat="43.317579519642514" lon="11.302488510407942"><ele>249.0</ele><time>2026-04-09T09:01:12.999Z</time></trkpt><trkpt lat="43.31774420417777" lon="11.302326099885136"><ele>249.0</ele><time>2026-04-09T09:01:13.999Z</time></trkpt><trkpt lat="43.31791377075818" lon="11.302169319480335"><ele>249.0</ele><time>2026-04-09T09:01:14.999Z</time></trkpt><trkpt lat="43.3180858802527" lon="11.302018696525199"><ele>249.66666666666669</ele><time>2026-04-09T09:01:15.999Z</time></trkpt><trkpt lat="43.31825809652499" lon="11.301870283242982"><ele>250.33333333333334</ele><time>2026-04-09T09:01:16.999Z</time></trkpt><trkpt lat="43.318434499860345" lon="11.301723928894212"><ele>251.0</ele><time>2026-04-09T09:01:17.999Z</time></trkpt><trkpt lat="43.31861489776658" lon="11.301582630578428"><ele>251.0</ele><time>2026-04-09T09:01:18.999Z</time></trkpt><trkpt lat="43.31880138399844" lon="11.301451611915164"><ele>251.0</ele><time>2026-04-09T09:01:19.999Z</time></trkpt><trkpt lat="43.31899153074689" lon="11.30132246190951"><ele>251.0</ele><time>2026-04-09T09:01:20.999Z</time></trkpt><trkpt lat="43.31918356386992" lon="11.301189241346387"><ele>252.33333333333334</ele><time>2026-04-09T09:01:21.999Z</time></trkpt><trkpt lat="43.31937958646618" lon="11.301052425174678"><ele>253.66666666666669</ele><time>2026-04-09T09:01:22.999Z</time></trkpt><trkpt lat="43.319573566838095" lon="11.30091528830014"><ele>255.0</ele><time>2026-04-09T09:01:23.999Z</time></trkpt><trkpt lat="43.31975499089677" lon="11.300788016921492"><ele>255.0</ele><time>2026-04-09T09:01:24.999Z</time></trkpt><trkpt lat="43.31993607360702" lon="11.300657863143892"><ele>255.0</ele><time>2026-04-09T09:01:26Z</time></trkpt><trkpt lat="43.320105496971905" lon="11.300538688605707"><ele>255.0</ele><time>2026-04-09T09:01:27Z</time></trkpt><trkpt lat="43.32026587731678" lon="11.30042826310735"><ele>255.66666666666669</ele><time>2026-04-09T09:01:28Z</time></trkpt><trkpt lat="43.32042639950288" lon="11.300319809786957"><ele>256.33333333333337</ele><time>2026-04-09T09:01:29Z</time></trkpt><trkpt lat="43.3205842354252" lon="11.30019943949835"><ele>257.0</ele><time>2026-04-09T09:01:30Z</time></trkpt><trkpt lat="43.32096803023876" lon="11.299927458669655"><ele>257.0</ele><time>2026-04-09T09:01:31Z</time></trkpt><trkpt lat="43.32117180251792" lon="11.299779339701711"><ele>257.0</ele><time>2026-04-09T09:01:32Z</time></trkpt><trkpt lat="43.32137380025206" lon="11.299637054713829"><ele>259.0</ele><time>2026-04-09T09:01:33Z</time></trkpt><trkpt lat="43.32158139414892" lon="11.299489142927397"><ele>261.0</ele><time>2026-04-09T09:01:34Z</time></trkpt><trkpt lat="43.321788956963566" lon="11.299346045486415"><ele>261.0</ele><time>2026-04-09T09:01:35Z</time></trkpt><trkpt lat="43.3219924899285" lon="11.299210648889026"><ele>261.0</ele><time>2026-04-09T09:01:36Z</time></trkpt><trkpt lat="43.3221831265795" lon="11.299080491641984"><ele>261.0</ele><time>2026-04-09T09:01:37Z</time></trkpt><trkpt lat="43.3223734078239" lon="11.298954098460962"><ele>259.6666666666667</ele><time>2026-04-09T09:01:38Z</time></trkpt><trkpt lat="43.322564139156626" lon="11.298817116089225"><ele>258.33333333333337</ele><time>2026-04-09T09:01:39Z</time></trkpt><trkpt lat="43.32275828940297" lon="11.298680056813547"><ele>257.0</ele><time>2026-04-09T09:01:40Z</time></trkpt><trkpt lat="43.32295363283667" lon="11.29854316394598"><ele>259.0</ele><time>2026-04-09T09:01:41Z</time></trkpt><trkpt lat="43.323151314807724" lon="11.298406424333203"><ele>261.0</ele><time>2026-04-09T09:01:42Z</time></trkpt><trkpt lat="43.32335257279379" lon="11.298265116087526"><ele>263.0</ele><time>2026-04-09T09:01:43Z</time></trkpt><trkpt lat="43.32355158141375" lon="11.29811977181051"><ele>262.5</ele><time>2026-04-09T09:01:44Z</time></trkpt><trkpt lat="43.32375291284032" lon="11.297976818288388"><ele>262.0</ele><time>2026-04-09T09:01:45Z</time></trkpt><trkpt lat="43.323953901835935" lon="11.29783236261822"><ele>262.0</ele><time>2026-04-09T09:01:46Z</time></trkpt><trkpt lat="43.32415718578508" lon="11.29768627207841"><ele>262.0</ele><time>2026-04-09T09:01:47Z</time></trkpt><trkpt lat="43.32436156253949" lon="11.29754594216756"><ele>262.0</ele><time>2026-04-09T09:01:48Z</time></trkpt><trkpt lat="43.324565624119316" lon="11.29740136234832"><ele>262.0</ele><time>2026-04-09T09:01:49Z</time></trkpt><trkpt lat="43.324770585554944" lon="11.297260364681085"><ele>261.0</ele><time>2026-04-09T09:01:50Z</time></trkpt><trkpt lat="43.324972603752435" lon="11.29711939084605"><ele>260.0</ele><time>2026-04-09T09:01:51Z</time></trkpt><trkpt lat="43.32517955237314" lon="11.29697589012428"><ele>260.0</ele><time>2026-04-09T09:01:52Z</time></trkpt><trkpt lat="43.32538102144014" lon="11.296831148664388"><ele>260.0</ele><time>2026-04-09T09:01:53Z</time></trkpt><trkpt lat="43.3255844787381" lon="11.296688762747651"><ele>258.5</ele><time>2026-04-09T09:01:54Z</time></trkpt><trkpt lat="43.325790675841425" lon="11.296542350094748"><ele>257.0</ele><time>2026-04-09T09:01:55Z</time></trkpt><trkpt lat="43.325992472133834" lon="11.296395585195341"><ele>257.0</ele><time>2026-04-09T09:01:56Z</time></trkpt><trkpt lat="43.3261986669929" lon="11.296247546004315"><ele>257.0</ele><time>2026-04-09T09:01:57Z</time></trkpt><trkpt lat="43.32640300118247" lon="11.296096595522279"><ele>259.33333333333337</ele><time>2026-04-09T09:01:58Z</time></trkpt><trkpt lat="43.326603995672734" lon="11.295946948077598"><ele>261.6666666666667</ele><time>2026-04-09T09:01:59Z</time></trkpt><trkpt lat="43.32679379343324" lon="11.295803158628091"><ele>264.0</ele><time>2026-04-09T09:02:00Z</time></trkpt><trkpt lat="43.32697486382712" lon="11.295657560252831"><ele>265.0</ele><time>2026-04-09T09:02:01Z</time></trkpt><trkpt lat="43.32715645361456" lon="11.295504866150182"><ele>266.0</ele><time>2026-04-09T09:02:02Z</time></trkpt><trkpt lat="43.32734243903869" lon="11.29534901743642"><ele>267.0</ele><time>2026-04-09T09:02:03Z</time></trkpt><trkpt lat="43.32752939652561" lon="11.295192630431169"><ele>267.0</ele><time>2026-04-09T09:02:04Z</time></trkpt><trkpt lat="43.327720896435984" lon="11.29502472838172"><ele>267.0</ele><time>2026-04-09T09:02:05Z</time></trkpt><trkpt lat="43.32791564767857" lon="11.294857139758816"><ele>266.5</ele><time>2026-04-09T09:02:06Z</time></trkpt><trkpt lat="43.32811345371443" lon="11.294691087054613"><ele>266.0</ele><time>2026-04-09T09:02:07Z</time></trkpt><trkpt lat="43.32831307797425" lon="11.294523993980064"><ele>266.0</ele><time>2026-04-09T09:02:08Z</time></trkpt><trkpt lat="43.32851389874164" lon="11.294353470581502"><ele>266.0</ele><time>2026-04-09T09:02:09Z</time></trkpt><trkpt lat="43.328705493390565" lon="11.294184117346871"><ele>266.0</ele><time>2026-04-09T09:02:10Z</time></trkpt><trkpt lat="43.32888687387116" lon="11.294021387761164"><ele>266.0</ele><time>2026-04-09T09:02:11Z</time></trkpt><trkpt lat="43.3290698058973" lon="11.293853911273962"><ele>266.0</ele><time>2026-04-09T09:02:12Z</time></trkpt><trkpt lat="43.329256976215014" lon="11.293682562873098"><ele>267.5</ele><time>2026-04-09T09:02:13Z</time></trkpt><trkpt lat="43.329445896233274" lon="11.293513072570505"><ele>269.0</ele><time>2026-04-09T09:02:14Z</time></trkpt><trkpt lat="43.32963814591975" lon="11.2933440734878"><ele>268.6666666666667</ele><time>2026-04-09T09:02:15Z</time></trkpt><trkpt lat="43.32982271245015" lon="11.29318186536253"><ele>268.3333333333333</ele><time>2026-04-09T09:02:16Z</time></trkpt><trkpt lat="43.329996977433005" lon="11.293031210847161"><ele>268.0</ele><time>2026-04-09T09:02:17Z</time></trkpt><trkpt lat="43.33017237021837" lon="11.292879914052376"><ele>268.0</ele><time>2026-04-09T09:02:18Z</time></trkpt><trkpt lat="43.330356365539" lon="11.29272454559421"><ele>268.0</ele><time>2026-04-09T09:02:19Z</time></trkpt><trkpt lat="43.33054869582999" lon="11.292569909924845"><ele>268.0</ele><time>2026-04-09T09:02:20Z</time></trkpt><trkpt lat="43.330743054630624" lon="11.29242334771168"><ele>268.0</ele><time>2026-04-09T09:02:21Z</time></trkpt><trkpt lat="43.33094268634434" lon="11.292284765062966"><ele>268.0</ele><time>2026-04-09T09:02:22Z</time></trkpt><trkpt lat="43.33114100158451" lon="11.292162278884486"><ele>268.0</ele><time>2026-04-09T09:02:22.999Z</time></trkpt><trkpt lat="43.33132925309709" lon="11.29206354551107"><ele>270.0</ele><time>2026-04-09T09:02:23.999Z</time></trkpt><trkpt lat="43.33152225658386" lon="11.291962873832617"><ele>272.0</ele><time>2026-04-09T09:02:24.999Z</time></trkpt><trkpt lat="43.33172564397724" lon="11.29186915720917"><ele>274.0</ele><time>2026-04-09T09:02:25.999Z</time></trkpt><trkpt lat="43.33193369314502" lon="11.291780208517398"><ele>274.0</ele><time>2026-04-09T09:02:26.999Z</time></trkpt><trkpt lat="43.332142978022176" lon="11.291702648450867"><ele>274.0</ele><time>2026-04-09T09:02:27.999Z</time></trkpt><trkpt lat="43.33235706824039" lon="11.291639526336976"><ele>274.0</ele><time>2026-04-09T09:02:28.999Z</time></trkpt><trkpt lat="43.33256797780304" lon="11.291586312730164"><ele>277.0</ele><time>2026-04-09T09:02:29.999Z</time></trkpt><trkpt lat="43.33278118980153" lon="11.291539000570365"><ele>280.0</ele><time>2026-04-09T09:02:30.999Z</time></trkpt><trkpt lat="43.33299482304109" lon="11.291502159294206"><ele>283.0</ele><time>2026-04-09T09:02:31.999Z</time></trkpt><trkpt lat="43.333209742343804" lon="11.291477912786133"><ele>285.0</ele><time>2026-04-09T09:02:32.999Z</time></trkpt><trkpt lat="43.333424601488844" lon="11.29146412071218"><ele>287.0</ele><time>2026-04-09T09:02:33.999Z</time></trkpt><trkpt lat="43.33363857230464" lon="11.291457436035241"><ele>289.0</ele><time>2026-04-09T09:02:34.999Z</time></trkpt><trkpt lat="43.333860103960305" lon="11.291466907616941"><ele>290.3333333333333</ele><time>2026-04-09T09:02:35.999Z</time></trkpt><trkpt lat="43.33406385054528" lon="11.29148400223833"><ele>291.6666666666667</ele><time>2026-04-09T09:02:36.999Z</time></trkpt><trkpt lat="43.33425894600833" lon="11.291513088566468"><ele>293.0</ele><time>2026-04-09T09:02:37.999Z</time></trkpt><trkpt lat="43.334457567284346" lon="11.291552185616776"><ele>293.0</ele><time>2026-04-09T09:02:38.999Z</time></trkpt><trkpt lat="43.33466029020093" lon="11.291597603280778"><ele>293.0</ele><time>2026-04-09T09:02:39.999Z</time></trkpt><trkpt lat="43.33486196499969" lon="11.291654000111365"><ele>293.0</ele><time>2026-04-09T09:02:40.999Z</time></trkpt><trkpt lat="43.33506432429876" lon="11.291720156428871"><ele>294.6666666666667</ele><time>2026-04-09T09:02:41.999Z</time></trkpt><trkpt lat="43.335262906702624" lon="11.291794697572223"><ele>296.3333333333333</ele><time>2026-04-09T09:02:42.999Z</time></trkpt><trkpt lat="43.33546083983879" lon="11.291875070257378"><ele>298.0</ele><time>2026-04-09T09:02:43.999Z</time></trkpt><trkpt lat="43.33564928232738" lon="11.291962371801887"><ele>298.66666666666663</ele><time>2026-04-09T09:02:44.999Z</time></trkpt><trkpt lat="43.335846794862384" lon="11.292060438079352"><ele>299.3333333333333</ele><time>2026-04-09T09:02:45.999Z</time></trkpt><trkpt lat="43.33604227482229" lon="11.292167361214767"><ele>300.0</ele><time>2026-04-09T09:02:46.999Z</time></trkpt><trkpt lat="43.336233216178464" lon="11.29227914328377"><ele>301.0</ele><time>2026-04-09T09:02:47.999Z</time></trkpt><trkpt lat="43.336424348464" lon="11.292394122558589"><ele>302.0</ele><time>2026-04-09T09:02:48.999Z</time></trkpt><trkpt lat="43.336615512228" lon="11.29250664591045"><ele>303.0</ele><time>2026-04-09T09:02:49.999Z</time></trkpt><trkpt lat="43.33680628775853" lon="11.29261787225589"><ele>303.0</ele><time>2026-04-09T09:02:50.999Z</time></trkpt><trkpt lat="43.33699922792963" lon="11.292731263052692"><ele>303.0</ele><time>2026-04-09T09:02:51.999Z</time></trkpt><trkpt lat="43.3371934762636" lon="11.29284379545716"><ele>303.0</ele><time>2026-04-09T09:02:52.999Z</time></trkpt><trkpt lat="43.33738685893371" lon="11.29295792039365"><ele>303.6666666666667</ele><time>2026-04-09T09:02:53.999Z</time></trkpt><trkpt lat="43.337581628359" lon="11.293075388275472"><ele>304.33333333333337</ele><time>2026-04-09T09:02:54.999Z</time></trkpt><trkpt lat="43.33777669065497" lon="11.293191956550583"><ele>305.0</ele><time>2026-04-09T09:02:55.999Z</time></trkpt><trkpt lat="43.33797551343286" lon="11.293305225115148"><ele>309.0</ele><time>2026-04-09T09:02:56.999Z</time></trkpt><trkpt lat="43.338174711708426" lon="11.293413945666204"><ele>313.0</ele><time>2026-04-09T09:02:57.999Z</time></trkpt><trkpt lat="43.3383798510444" lon="11.293525383217961"><ele>317.0</ele><time>2026-04-09T09:02:58.999Z</time></trkpt><trkpt lat="43.33858251402128" lon="11.293638628671587"><ele>317.0</ele><time>2026-04-09T09:02:59.999Z</time></trkpt><trkpt lat="43.33876346960254" lon="11.29374371593774"><ele>317.0</ele><time>2026-04-09T09:03:00.999Z</time></trkpt><trkpt lat="43.33894450758037" lon="11.293846734716514"><ele>317.0</ele><time>2026-04-09T09:03:01.999Z</time></trkpt><trkpt lat="43.33913866384108" lon="11.293952383688403"><ele>321.0</ele><time>2026-04-09T09:03:02.999Z</time></trkpt><trkpt lat="43.33934122858778" lon="11.294063014790307"><ele>325.0</ele><time>2026-04-09T09:03:03.999Z</time></trkpt><trkpt lat="43.33954215020154" lon="11.294174071009857"><ele>329.0</ele><time>2026-04-09T09:03:04.999Z</time></trkpt><trkpt lat="43.33974278229698" lon="11.29428978596964"><ele>332.6666666666667</ele><time>2026-04-09T09:03:05.999Z</time></trkpt><trkpt lat="43.33991832012093" lon="11.294390608800585"><ele>336.3333333333333</ele><time>2026-04-09T09:03:06.999Z</time></trkpt><trkpt lat="43.34009460285434" lon="11.294488125828726"><ele>340.0</ele><time>2026-04-09T09:03:07.999Z</time></trkpt><trkpt lat="43.34027928691404" lon="11.294587876697667"><ele>340.0</ele><time>2026-04-09T09:03:09.018Z</time></trkpt><trkpt lat="43.34045879477215" lon="11.294684895550613"><ele>340.0</ele><time>2026-04-09T09:03:10.016Z</time></trkpt><trkpt lat="43.34065237680636" lon="11.294794624852594"><ele>340.0</ele><time>2026-04-09T09:03:11.017Z</time></trkpt><trkpt lat="43.34084856969949" lon="11.294902978416628"><ele>340.0</ele><time>2026-04-09T09:03:12.014Z</time></trkpt><trkpt lat="43.341051087331806" lon="11.295009520424815"><ele>340.0</ele><time>2026-04-09T09:03:13.019Z</time></trkpt><trkpt lat="43.34122181127476" lon="11.295085198970504"><ele>340.0</ele><time>2026-04-09T09:03:13.999Z</time></trkpt><trkpt lat="43.34160390798751" lon="11.295454908683862"><ele>334.0</ele><time>2026-04-09T09:03:14.999Z</time></trkpt><trkpt lat="43.34181667368359" lon="11.295624206361271"><ele>328.0</ele><time>2026-04-09T09:03:15.999Z</time></trkpt><trkpt lat="43.34202042054059" lon="11.29578658583369"><ele>329.5</ele><time>2026-04-09T09:03:16.999Z</time></trkpt><trkpt lat="43.34221861490001" lon="11.295958643930597"><ele>331.0</ele><time>2026-04-09T09:03:17.999Z</time></trkpt><trkpt lat="43.34241418018728" lon="11.296137538123244"><ele>331.0</ele><time>2026-04-09T09:03:18.999Z</time></trkpt><trkpt lat="43.34260089131068" lon="11.296315289185431"><ele>331.0</ele><time>2026-04-09T09:03:19.999Z</time></trkpt><trkpt lat="43.342776465582624" lon="11.29648466577092"><ele>331.0</ele><time>2026-04-09T09:03:20.999Z</time></trkpt><trkpt lat="43.34295735953496" lon="11.296660676989525"><ele>338.0</ele><time>2026-04-09T09:03:21.999Z</time></trkpt><trkpt lat="43.343137557473774" lon="11.296838815908954"><ele>345.0</ele><time>2026-04-09T09:03:22.999Z</time></trkpt><trkpt lat="43.34332089225938" lon="11.297029186736896"><ele>345.0</ele><time>2026-04-09T09:03:23.999Z</time></trkpt><trkpt lat="43.34350596119958" lon="11.297216705457556"><ele>345.0</ele><time>2026-04-09T09:03:24.999Z</time></trkpt><trkpt lat="43.34369329492322" lon="11.297405929972927"><ele>347.0</ele><time>2026-04-09T09:03:26.014Z</time></trkpt><trkpt lat="43.34387754713729" lon="11.297592004528163"><ele>349.0</ele><time>2026-04-09T09:03:27.015Z</time></trkpt><trkpt lat="43.34406112492167" lon="11.297773530448215"><ele>346.5</ele><time>2026-04-09T09:03:28.014Z</time></trkpt><trkpt lat="43.34424963853937" lon="11.297963419969877"><ele>344.0</ele><time>2026-04-09T09:03:29.018Z</time></trkpt><trkpt lat="43.34591789061329" lon="11.2995421017089"><ele>345.0</ele><time>2026-04-09T09:03:32.218Z</time></trkpt><trkpt lat="43.3463510452242" lon="11.299973661090526"><ele>339.6666666666667</ele><time>2026-04-09T09:03:39.999Z</time></trkpt><trkpt lat="43.346538957366256" lon="11.300145705110772"><ele>334.33333333333337</ele><time>2026-04-09T09:03:40.999Z</time></trkpt><trkpt lat="43.3467268868445" lon="11.300277325373523"><ele>329.0</ele><time>2026-04-09T09:03:41.999Z</time></trkpt><trkpt lat="43.34693943710787" lon="11.300426790016152"><ele>329.0</ele><time>2026-04-09T09:03:42.999Z</time></trkpt><trkpt lat="43.34715454323919" lon="11.300573351683738"><ele>329.0</ele><time>2026-04-09T09:03:43.999Z</time></trkpt><trkpt lat="43.34735597208696" lon="11.30069866452127"><ele>327.33333333333337</ele><time>2026-04-09T09:03:44.999Z</time></trkpt><trkpt lat="43.34755404793287" lon="11.300816189409579"><ele>325.6666666666667</ele><time>2026-04-09T09:03:46Z</time></trkpt><trkpt lat="43.34775522055574" lon="11.30093258705358"><ele>324.0</ele><time>2026-04-09T09:03:47Z</time></trkpt><trkpt lat="43.347948899635036" lon="11.3010425700607"><ele>324.6666666666667</ele><time>2026-04-09T09:03:48Z</time></trkpt><trkpt lat="43.348151971422574" lon="11.301160399492431"><ele>325.33333333333337</ele><time>2026-04-09T09:03:49Z</time></trkpt><trkpt lat="43.348345237748255" lon="11.301276773411258"><ele>326.0</ele><time>2026-04-09T09:03:50Z</time></trkpt><trkpt lat="43.3485403853372" lon="11.301393580226017"><ele>322.0</ele><time>2026-04-09T09:03:51Z</time></trkpt><trkpt lat="43.3487564750604" lon="11.301520775951891"><ele>318.0</ele><time>2026-04-09T09:03:52Z</time></trkpt><trkpt lat="43.348963301986956" lon="11.3016359170983"><ele>315.6666666666667</ele><time>2026-04-09T09:03:53Z</time></trkpt><trkpt lat="43.349168645344776" lon="11.301748764428428"><ele>313.33333333333337</ele><time>2026-04-09T09:03:54Z</time></trkpt><trkpt lat="43.34937704525507" lon="11.301866692768918"><ele>311.0</ele><time>2026-04-09T09:03:55Z</time></trkpt><trkpt lat="43.34958407043138" lon="11.30198371318015"><ele>315.0</ele><time>2026-04-09T09:03:56Z</time></trkpt><trkpt lat="43.349793474048404" lon="11.30210448374086"><ele>319.0</ele><time>2026-04-09T09:03:57Z</time></trkpt><trkpt lat="43.350002685920586" lon="11.302224716934772"><ele>317.0</ele><time>2026-04-09T09:03:58Z</time></trkpt><trkpt lat="43.350212424734856" lon="11.302342978575671"><ele>315.0</ele><time>2026-04-09T09:03:59Z</time></trkpt><trkpt lat="43.35042249983253" lon="11.302465695629046"><ele>313.0</ele><time>2026-04-09T09:04:00Z</time></trkpt><trkpt lat="43.350632712317655" lon="11.30258733313317"><ele>311.0</ele><time>2026-04-09T09:04:01Z</time></trkpt><trkpt lat="43.3508421921148" lon="11.302705672907305"><ele>311.0</ele><time>2026-04-09T09:04:02Z</time></trkpt><trkpt lat="43.3510508062476" lon="11.302823275292125"><ele>311.0</ele><time>2026-04-09T09:04:03Z</time></trkpt><trkpt lat="43.351258309568024" lon="11.302941388729602"><ele>308.0</ele><time>2026-04-09T09:04:04Z</time></trkpt><trkpt lat="43.3514660395904" lon="11.303058590398829"><ele>305.0</ele><time>2026-04-09T09:04:05Z</time></trkpt><trkpt lat="43.35167446740855" lon="11.303176258243463"><ele>303.0</ele><time>2026-04-09T09:04:06Z</time></trkpt><trkpt lat="43.351881080287235" lon="11.30329975872192"><ele>301.0</ele><time>2026-04-09T09:04:07Z</time></trkpt><trkpt lat="43.35208573866423" lon="11.303417817543444"><ele>299.0</ele><time>2026-04-09T09:04:08Z</time></trkpt><trkpt lat="43.352290194954534" lon="11.30353453699324"><ele>299.0</ele><time>2026-04-09T09:04:09Z</time></trkpt><trkpt lat="43.352496389653304" lon="11.30365397088216"><ele>299.0</ele><time>2026-04-09T09:04:10Z</time></trkpt><trkpt lat="43.35269489240944" lon="11.303766797111475"><ele>299.0</ele><time>2026-04-09T09:04:11Z</time></trkpt><trkpt lat="43.352884517737095" lon="11.303878063816606"><ele>297.33333333333337</ele><time>2026-04-09T09:04:12Z</time></trkpt><trkpt lat="43.353078136384525" lon="11.3039870733056"><ele>295.6666666666667</ele><time>2026-04-09T09:04:13Z</time></trkpt><trkpt lat="43.353270401387384" lon="11.304098336754185"><ele>294.0</ele><time>2026-04-09T09:04:14Z</time></trkpt><trkpt lat="43.353468240289814" lon="11.304209787024636"><ele>294.0</ele><time>2026-04-09T09:04:15Z</time></trkpt><trkpt lat="43.353666751360954" lon="11.304321448434155"><ele>294.0</ele><time>2026-04-09T09:04:16Z</time></trkpt><trkpt lat="43.353885837103675" lon="11.304437825185179"><ele>294.0</ele><time>2026-04-09T09:04:17Z</time></trkpt><trkpt lat="43.35412857818278" lon="11.304572537894625"><ele>292.0</ele><time>2026-04-09T09:04:18Z</time></trkpt><trkpt lat="43.354393706844824" lon="11.304717138812435"><ele>290.0</ele><time>2026-04-09T09:04:19Z</time></trkpt><trkpt lat="43.35466435776488" lon="11.304856560014061"><ele>292.33333333333337</ele><time>2026-04-09T09:04:20Z</time></trkpt><trkpt lat="43.35490690699306" lon="11.304875552234106"><ele>294.6666666666667</ele><time>2026-04-09T09:04:22Z</time></trkpt><trkpt lat="43.355108848472106" lon="11.304930212631753"><ele>297.0</ele><time>2026-04-09T09:04:23Z</time></trkpt><trkpt lat="43.35531261128088" lon="11.304974282755358"><ele>297.0</ele><time>2026-04-09T09:04:24Z</time></trkpt><trkpt lat="43.35552037966179" lon="11.305011739035155"><ele>297.0</ele><time>2026-04-09T09:04:25Z</time></trkpt><trkpt lat="43.35575113338717" lon="11.305073070683388"><ele>297.0</ele><time>2026-04-09T09:04:26Z</time></trkpt><trkpt lat="43.35595127884726" lon="11.305082131362388"><ele>297.6666666666667</ele><time>2026-04-09T09:04:27Z</time></trkpt><trkpt lat="43.35616014613074" lon="11.305087888043749"><ele>298.33333333333337</ele><time>2026-04-09T09:04:28Z</time></trkpt><trkpt lat="43.35636944012129" lon="11.305084454874484"><ele>299.0</ele><time>2026-04-09T09:04:29Z</time></trkpt><trkpt lat="43.35657640755138" lon="11.305069301116438"><ele>298.33333333333337</ele><time>2026-04-09T09:04:30Z</time></trkpt><trkpt lat="43.35678975566091" lon="11.305047530458372"><ele>297.6666666666667</ele><time>2026-04-09T09:04:31Z</time></trkpt><trkpt lat="43.35700336342338" lon="11.305017116165338"><ele>297.0</ele><time>2026-04-09T09:04:32Z</time></trkpt><trkpt lat="43.357219290069644" lon="11.304975234858164"><ele>297.0</ele><time>2026-04-09T09:04:33Z</time></trkpt><trkpt lat="43.35743742781871" lon="11.304929355860779"><ele>297.0</ele><time>2026-04-09T09:04:34Z</time></trkpt><trkpt lat="43.35765713100055" lon="11.304884119780802"><ele>297.0</ele><time>2026-04-09T09:04:35Z</time></trkpt><trkpt lat="43.35787359620575" lon="11.304832234364016"><ele>295.0</ele><time>2026-04-09T09:04:36Z</time></trkpt><trkpt lat="43.35808940354083" lon="11.304772675232954"><ele>293.0</ele><time>2026-04-09T09:04:37Z</time></trkpt><trkpt lat="43.35830507325539" lon="11.304708678949154"><ele>291.0</ele><time>2026-04-09T09:04:38Z</time></trkpt><trkpt lat="43.35852641359138" lon="11.30465149301247"><ele>289.5</ele><time>2026-04-09T09:04:39Z</time></trkpt><trkpt lat="43.35875123379015" lon="11.3045946145365"><ele>288.0</ele><time>2026-04-09T09:04:40Z</time></trkpt><trkpt lat="43.35897678854284" lon="11.304537453200874"><ele>288.0</ele><time>2026-04-09T09:04:41Z</time></trkpt><trkpt lat="43.35919643042279" lon="11.304485349450594"><ele>288.0</ele><time>2026-04-09T09:04:42Z</time></trkpt><trkpt lat="43.35942007056872" lon="11.304428844254376"><ele>288.0</ele><time>2026-04-09T09:04:43Z</time></trkpt><trkpt lat="43.35964240518279" lon="11.304375293508837"><ele>288.0</ele><time>2026-04-09T09:04:44Z</time></trkpt><trkpt lat="43.359863928776505" lon="11.304322295683669"><ele>288.0</ele><time>2026-04-09T09:04:45Z</time></trkpt><trkpt lat="43.36008114910288" lon="11.304268606960528"><ele>288.0</ele><time>2026-04-09T09:04:46Z</time></trkpt><trkpt lat="43.36030322099634" lon="11.304212961483312"><ele>288.0</ele><time>2026-04-09T09:04:47Z</time></trkpt><trkpt lat="43.36052317571513" lon="11.304157590476107"><ele>289.3333333333333</ele><time>2026-04-09T09:04:48Z</time></trkpt><trkpt lat="43.360741188314876" lon="11.304105274022595"><ele>290.66666666666663</ele><time>2026-04-09T09:04:49Z</time></trkpt><trkpt lat="43.36096249187312" lon="11.304053245966228"><ele>292.0</ele><time>2026-04-09T09:04:50Z</time></trkpt><trkpt lat="43.36118465944549" lon="11.30400196600647"><ele>292.0</ele><time>2026-04-09T09:04:51Z</time></trkpt><trkpt lat="43.361402565778256" lon="11.303952303296063"><ele>292.0</ele><time>2026-04-09T09:04:52Z</time></trkpt><trkpt lat="43.361620595527896" lon="11.303899560497376"><ele>292.0</ele><time>2026-04-09T09:04:53Z</time></trkpt><trkpt lat="43.361838848729164" lon="11.30384267853486"><ele>289.3333333333333</ele><time>2026-04-09T09:04:54Z</time></trkpt><trkpt lat="43.36205724780952" lon="11.303788817066117"><ele>286.6666666666667</ele><time>2026-04-09T09:04:55Z</time></trkpt><trkpt lat="43.362274326606496" lon="11.303736660938345"><ele>284.0</ele><time>2026-04-09T09:04:55.999Z</time></trkpt><trkpt lat="43.36249228945958" lon="11.303675670938683"><ele>284.0</ele><time>2026-04-09T09:04:56.999Z</time></trkpt><trkpt lat="43.36271327340284" lon="11.303614702373123"><ele>284.0</ele><time>2026-04-09T09:04:57.999Z</time></trkpt><trkpt lat="43.36293091145461" lon="11.303538532340093"><ele>288.5</ele><time>2026-04-09T09:04:58.999Z</time></trkpt><trkpt lat="43.36314743942768" lon="11.303437434650979"><ele>293.0</ele><time>2026-04-09T09:04:59.999Z</time></trkpt><trkpt lat="43.36336436210969" lon="11.303333527088862"><ele>293.0</ele><time>2026-04-09T09:05:00.999Z</time></trkpt><trkpt lat="43.36358730475393" lon="11.303218825164446"><ele>293.0</ele><time>2026-04-09T09:05:01.999Z</time></trkpt><trkpt lat="43.36381382583475" lon="11.303099372162452"><ele>291.5</ele><time>2026-04-09T09:05:02.999Z</time></trkpt><trkpt lat="43.36403759402452" lon="11.302965172985651"><ele>290.0</ele><time>2026-04-09T09:05:03.999Z</time></trkpt><trkpt lat="43.36424718903849" lon="11.302822744993136"><ele>290.0</ele><time>2026-04-09T09:05:04.999Z</time></trkpt><trkpt lat="43.36443916888406" lon="11.302685810381979"><ele>290.0</ele><time>2026-04-09T09:05:05.999Z</time></trkpt><trkpt lat="43.36462810920321" lon="11.302532436733014"><ele>290.0</ele><time>2026-04-09T09:05:06.999Z</time></trkpt><trkpt lat="43.36481269695479" lon="11.30236224080399"><ele>286.5</ele><time>2026-04-09T09:05:07.999Z</time></trkpt><trkpt lat="43.364999289754024" lon="11.30218485208483"><ele>283.0</ele><time>2026-04-09T09:05:08.999Z</time></trkpt><trkpt lat="43.365186642646854" lon="11.301997092720704"><ele>283.0</ele><time>2026-04-09T09:05:09.999Z</time></trkpt><trkpt lat="43.36536843360528" lon="11.301803051731373"><ele>283.0</ele><time>2026-04-09T09:05:10.999Z</time></trkpt><trkpt lat="43.36554578977356" lon="11.301595697774289"><ele>284.66666666666663</ele><time>2026-04-09T09:05:11.999Z</time></trkpt><trkpt lat="43.365705487106496" lon="11.301379504661128"><ele>286.3333333333333</ele><time>2026-04-09T09:05:12.999Z</time></trkpt><trkpt lat="43.36584966283953" lon="11.301151341545909"><ele>288.0</ele><time>2026-04-09T09:05:13.999Z</time></trkpt><trkpt lat="43.365994582501585" lon="11.300910635188954"><ele>288.0</ele><time>2026-04-09T09:05:14.999Z</time></trkpt><trkpt lat="43.36613862587589" lon="11.300665274755483"><ele>288.0</ele><time>2026-04-09T09:05:15.999Z</time></trkpt><trkpt lat="43.366284326244354" lon="11.300413077084121"><ele>291.5</ele><time>2026-04-09T09:05:16.999Z</time></trkpt><trkpt lat="43.36642129970136" lon="11.300153953462447"><ele>295.0</ele><time>2026-04-09T09:05:17.999Z</time></trkpt><trkpt lat="43.36655643574746" lon="11.299879791643892"><ele>290.5</ele><time>2026-04-09T09:05:18.999Z</time></trkpt><trkpt lat="43.36668580231446" lon="11.299599839730584"><ele>286.0</ele><time>2026-04-09T09:05:19.999Z</time></trkpt><trkpt lat="43.36681728179013" lon="11.299323138377687"><ele>286.0</ele><time>2026-04-09T09:05:20.999Z</time></trkpt><trkpt lat="43.366932131051186" lon="11.299054330679994"><ele>286.0</ele><time>2026-04-09T09:05:21.999Z</time></trkpt><trkpt lat="43.36703632481833" lon="11.298789817882552"><ele>286.0</ele><time>2026-04-09T09:05:22.999Z</time></trkpt><trkpt lat="43.367136594088805" lon="11.298517584102408"><ele>282.5</ele><time>2026-04-09T09:05:23.999Z</time></trkpt><trkpt lat="43.36723276856986" lon="11.298237482349354"><ele>279.0</ele><time>2026-04-09T09:05:24.999Z</time></trkpt><trkpt lat="43.36732491268392" lon="11.2979462580169"><ele>276.0</ele><time>2026-04-09T09:05:25.999Z</time></trkpt><trkpt lat="43.36739804081845" lon="11.297642487228611"><ele>273.0</ele><time>2026-04-09T09:05:26.999Z</time></trkpt><trkpt lat="43.36745261705795" lon="11.29733250164057"><ele>271.0</ele><time>2026-04-09T09:05:27.999Z</time></trkpt><trkpt lat="43.36750478919287" lon="11.297017091898525"><ele>269.0</ele><time>2026-04-09T09:05:28.999Z</time></trkpt><trkpt lat="43.36755814392677" lon="11.296699575274216"><ele>268.0</ele><time>2026-04-09T09:05:29.999Z</time></trkpt><trkpt lat="43.367611082271985" lon="11.296383082307706"><ele>267.0</ele><time>2026-04-09T09:05:30.999Z</time></trkpt><trkpt lat="43.3676636716936" lon="11.296065881420352"><ele>267.0</ele><time>2026-04-09T09:05:31.999Z</time></trkpt><trkpt lat="43.367714921736955" lon="11.295747393601552"><ele>267.0</ele><time>2026-04-09T09:05:32.999Z</time></trkpt><trkpt lat="43.36776951136827" lon="11.29542625428589"><ele>268.0</ele><time>2026-04-09T09:05:33.999Z</time></trkpt><trkpt lat="43.367824568603396" lon="11.295102782546149"><ele>269.0</ele><time>2026-04-09T09:05:34.999Z</time></trkpt><trkpt lat="43.367879971038946" lon="11.294783259017853"><ele>271.5</ele><time>2026-04-09T09:05:35.999Z</time></trkpt><trkpt lat="43.367936011217076" lon="11.294460157885817"><ele>274.0</ele><time>2026-04-09T09:05:36.999Z</time></trkpt><trkpt lat="43.367989517552516" lon="11.294134578119348"><ele>276.5</ele><time>2026-04-09T09:05:37.999Z</time></trkpt><trkpt lat="43.368041301974294" lon="11.29380597543133"><ele>279.0</ele><time>2026-04-09T09:05:38.999Z</time></trkpt><trkpt lat="43.36809275200686" lon="11.29347721492073"><ele>279.0</ele><time>2026-04-09T09:05:39.999Z</time></trkpt><trkpt lat="43.368146558335134" lon="11.29315297533135"><ele>279.0</ele><time>2026-04-09T09:05:40.999Z</time></trkpt><trkpt lat="43.368201758603306" lon="11.292829146807236"><ele>276.5</ele><time>2026-04-09T09:05:41.999Z</time></trkpt><trkpt lat="43.36826511059753" lon="11.292508290459786"><ele>274.0</ele><time>2026-04-09T09:05:42.999Z</time></trkpt><trkpt lat="43.36833794048802" lon="11.292199634311137"><ele>270.66666666666663</ele><time>2026-04-09T09:05:43.999Z</time></trkpt><trkpt lat="43.368416186437415" lon="11.291915105322424"><ele>267.3333333333333</ele><time>2026-04-09T09:05:44.999Z</time></trkpt><trkpt lat="43.36850107918705" lon="11.291643775102369"><ele>264.0</ele><time>2026-04-09T09:05:45.999Z</time></trkpt><trkpt lat="43.368596330750165" lon="11.291365306965801"><ele>260.5</ele><time>2026-04-09T09:05:46.999Z</time></trkpt><trkpt lat="43.36869815158451" lon="11.291085044512128"><ele>257.0</ele><time>2026-04-09T09:05:47.999Z</time></trkpt><trkpt lat="43.36881124154233" lon="11.290802533842708"><ele>260.5</ele><time>2026-04-09T09:05:48.999Z</time></trkpt><trkpt lat="43.368934831893" lon="11.290520661541805"><ele>264.0</ele><time>2026-04-09T09:05:49.999Z</time></trkpt><trkpt lat="43.369069371069585" lon="11.29024532619456"><ele>264.0</ele><time>2026-04-09T09:05:50.999Z</time></trkpt><trkpt lat="43.36920757565056" lon="11.289988101078038"><ele>264.0</ele><time>2026-04-09T09:05:52Z</time></trkpt><trkpt lat="43.369345691752756" lon="11.289754391759152"><ele>262.6666666666667</ele><time>2026-04-09T09:05:53Z</time></trkpt><trkpt lat="43.36949548681646" lon="11.289528599871165"><ele>261.33333333333337</ele><time>2026-04-09T09:05:54Z</time></trkpt><trkpt lat="43.369650034759374" lon="11.289304836056937"><ele>260.0</ele><time>2026-04-09T09:05:55Z</time></trkpt><trkpt lat="43.36981439686271" lon="11.289082471493325"><ele>259.5</ele><time>2026-04-09T09:05:56Z</time></trkpt><trkpt lat="43.369984040670595" lon="11.288865650128201"><ele>259.0</ele><time>2026-04-09T09:05:57Z</time></trkpt><trkpt lat="43.37015963263797" lon="11.288654073782466"><ele>259.0</ele><time>2026-04-09T09:05:58Z</time></trkpt><trkpt lat="43.370344914963" lon="11.288462670906851"><ele>259.0</ele><time>2026-04-09T09:05:59Z</time></trkpt><trkpt lat="43.37052950306229" lon="11.288279866498545"><ele>257.5</ele><time>2026-04-09T09:06:00Z</time></trkpt><trkpt lat="43.37072599890455" lon="11.288104481540246"><ele>256.0</ele><time>2026-04-09T09:06:01Z</time></trkpt><trkpt lat="43.37093059682222" lon="11.287946606619482"><ele>256.0</ele><time>2026-04-09T09:06:02Z</time></trkpt><trkpt lat="43.3711242172586" lon="11.287800038723164"><ele>256.0</ele><time>2026-04-09T09:06:03Z</time></trkpt><trkpt lat="43.371325552906576" lon="11.28766185754603"><ele>256.0</ele><time>2026-04-09T09:06:04Z</time></trkpt><trkpt lat="43.371533136582386" lon="11.287533059182396"><ele>260.5</ele><time>2026-04-09T09:06:05Z</time></trkpt><trkpt lat="43.371744059903484" lon="11.287420615541503"><ele>265.0</ele><time>2026-04-09T09:06:06Z</time></trkpt><trkpt lat="43.371960597237695" lon="11.287312820633797"><ele>258.0</ele><time>2026-04-09T09:06:07Z</time></trkpt><trkpt lat="43.37217215270585" lon="11.287219250998517"><ele>251.0</ele><time>2026-04-09T09:06:08Z</time></trkpt><trkpt lat="43.37239815690068" lon="11.287132149619742"><ele>251.0</ele><time>2026-04-09T09:06:09Z</time></trkpt><trkpt lat="43.37261718071841" lon="11.287063771473662"><ele>251.0</ele><time>2026-04-09T09:06:10Z</time></trkpt><trkpt lat="43.372842882926584" lon="11.286991870281355"><ele>252.5</ele><time>2026-04-09T09:06:11Z</time></trkpt><trkpt lat="43.37307163043283" lon="11.286915956590958"><ele>254.0</ele><time>2026-04-09T09:06:12Z</time></trkpt><trkpt lat="43.3732970494209" lon="11.286848362197917"><ele>254.0</ele><time>2026-04-09T09:06:13Z</time></trkpt><trkpt lat="43.373528028075796" lon="11.286773600857408"><ele>254.0</ele><time>2026-04-09T09:06:14Z</time></trkpt><trkpt lat="43.373761945555515" lon="11.28670493167714"><ele>255.0</ele><time>2026-04-09T09:06:15Z</time></trkpt><trkpt lat="43.373994249404035" lon="11.286629750465062"><ele>256.0</ele><time>2026-04-09T09:06:16Z</time></trkpt><trkpt lat="43.37422902344609" lon="11.28655708353223"><ele>256.0</ele><time>2026-04-09T09:06:17Z</time></trkpt><trkpt lat="43.37446187676571" lon="11.286478147678519"><ele>256.0</ele><time>2026-04-09T09:06:18Z</time></trkpt><trkpt lat="43.374699512809485" lon="11.28640540581053"><ele>253.0</ele><time>2026-04-09T09:06:19Z</time></trkpt><trkpt lat="43.37494022190929" lon="11.286334408338487"><ele>250.0</ele><time>2026-04-09T09:06:20Z</time></trkpt><trkpt lat="43.37517241733444" lon="11.28626211468956"><ele>250.0</ele><time>2026-04-09T09:06:21Z</time></trkpt><trkpt lat="43.37541640163684" lon="11.286187125560303"><ele>250.0</ele><time>2026-04-09T09:06:22Z</time></trkpt><trkpt lat="43.37565276204915" lon="11.286115879121322"><ele>250.5</ele><time>2026-04-09T09:06:23Z</time></trkpt><trkpt lat="43.37588503545869" lon="11.286051840298953"><ele>251.0</ele><time>2026-04-09T09:06:24Z</time></trkpt><trkpt lat="43.37609856002622" lon="11.285984597240246"><ele>251.0</ele><time>2026-04-09T09:06:25Z</time></trkpt><trkpt lat="43.37631233537296" lon="11.285916134037743"><ele>251.0</ele><time>2026-04-09T09:06:26Z</time></trkpt><trkpt lat="43.37652414138973" lon="11.285851025907222"><ele>251.0</ele><time>2026-04-09T09:06:27Z</time></trkpt><trkpt lat="43.376739927466794" lon="11.285791520687248"><ele>251.66666666666669</ele><time>2026-04-09T09:06:28Z</time></trkpt><trkpt lat="43.37693973672837" lon="11.285711433496116"><ele>252.33333333333331</ele><time>2026-04-09T09:06:29Z</time></trkpt><trkpt lat="43.377153176975526" lon="11.285646801032522"><ele>253.0</ele><time>2026-04-09T09:06:30Z</time></trkpt><trkpt lat="43.3773715639398" lon="11.28556994333131"><ele>247.33333333333331</ele><time>2026-04-09T09:06:31Z</time></trkpt><trkpt lat="43.377580067371966" lon="11.285497603995815"><ele>241.66666666666669</ele><time>2026-04-09T09:06:32Z</time></trkpt><trkpt lat="43.377772399320065" lon="11.285397308405521"><ele>236.0</ele><time>2026-04-09T09:06:33Z</time></trkpt><trkpt lat="43.3779675237453" lon="11.285281403444793"><ele>237.66666666666669</ele><time>2026-04-09T09:06:34Z</time></trkpt><trkpt lat="43.37815809568271" lon="11.285157753945215"><ele>239.33333333333331</ele><time>2026-04-09T09:06:35Z</time></trkpt><trkpt lat="43.37835095343861" lon="11.285019337032576"><ele>241.0</ele><time>2026-04-09T09:06:36Z</time></trkpt><trkpt lat="43.378539100329185" lon="11.284868454022174"><ele>239.0</ele><time>2026-04-09T09:06:37Z</time></trkpt><trkpt lat="43.37872784214854" lon="11.284701259472978"><ele>237.0</ele><time>2026-04-09T09:06:38Z</time></trkpt><trkpt lat="43.37891280262526" lon="11.284518898456387"><ele>241.5</ele><time>2026-04-09T09:06:39Z</time></trkpt><trkpt lat="43.37908920126151" lon="11.284318413036274"><ele>246.0</ele><time>2026-04-09T09:06:40Z</time></trkpt><trkpt lat="43.37925734164862" lon="11.28410323843589"><ele>242.5</ele><time>2026-04-09T09:06:41Z</time></trkpt><trkpt lat="43.379419556163924" lon="11.283880557722487"><ele>239.0</ele><time>2026-04-09T09:06:42Z</time></trkpt><trkpt lat="43.37957563576755" lon="11.283647491395055"><ele>243.5</ele><time>2026-04-09T09:06:43Z</time></trkpt><trkpt lat="43.37972460388123" lon="11.283406148321864"><ele>248.0</ele><time>2026-04-09T09:06:44Z</time></trkpt><trkpt lat="43.37986484414542" lon="11.283152214090455"><ele>245.0</ele><time>2026-04-09T09:06:45Z</time></trkpt><trkpt lat="43.37999303327103" lon="11.282887738508338"><ele>242.0</ele><time>2026-04-09T09:06:46Z</time></trkpt><trkpt lat="43.38011617738647" lon="11.282617772587708"><ele>242.0</ele><time>2026-04-09T09:06:47Z</time></trkpt><trkpt lat="43.380240590682384" lon="11.282344960403288"><ele>242.0</ele><time>2026-04-09T09:06:48Z</time></trkpt><trkpt lat="43.38037006543506" lon="11.282076791307684"><ele>243.5</ele><time>2026-04-09T09:06:49Z</time></trkpt><trkpt lat="43.3805033280814" lon="11.281810649350293"><ele>245.0</ele><time>2026-04-09T09:06:50Z</time></trkpt><trkpt lat="43.380637764418836" lon="11.28154154703775"><ele>241.0</ele><time>2026-04-09T09:06:51Z</time></trkpt><trkpt lat="43.380770121465055" lon="11.281268475269986"><ele>237.0</ele><time>2026-04-09T09:06:52Z</time></trkpt><trkpt lat="43.380901876930345" lon="11.280994641793967"><ele>237.0</ele><time>2026-04-09T09:06:53Z</time></trkpt><trkpt lat="43.38103666897572" lon="11.280721415887108"><ele>237.0</ele><time>2026-04-09T09:06:54Z</time></trkpt><trkpt lat="43.38117065259842" lon="11.280448657268735"><ele>235.0</ele><time>2026-04-09T09:06:55Z</time></trkpt><trkpt lat="43.381305158834465" lon="11.280172793262306"><ele>233.0</ele><time>2026-04-09T09:06:56Z</time></trkpt><trkpt lat="43.38143637379837" lon="11.279895021401746"><ele>238.5</ele><time>2026-04-09T09:06:57Z</time></trkpt><trkpt lat="43.38157139918393" lon="11.27961924411183"><ele>244.0</ele><time>2026-04-09T09:06:58Z</time></trkpt><trkpt lat="43.38170340539445" lon="11.27934536624614"><ele>244.0</ele><time>2026-04-09T09:06:59Z</time></trkpt><trkpt lat="43.38183379817247" lon="11.279063024301609"><ele>244.0</ele><time>2026-04-09T09:07:00Z</time></trkpt><trkpt lat="43.38196650065507" lon="11.278791738686476"><ele>246.0</ele><time>2026-04-09T09:07:01Z</time></trkpt><trkpt lat="43.38210300636578" lon="11.27851558194026"><ele>248.0</ele><time>2026-04-09T09:07:02Z</time></trkpt><trkpt lat="43.3822324084804" lon="11.278236774236857"><ele>242.5</ele><time>2026-04-09T09:07:03Z</time></trkpt><trkpt lat="43.38236152014392" lon="11.277951390814684"><ele>237.0</ele><time>2026-04-09T09:07:04Z</time></trkpt><trkpt lat="43.38249526409509" lon="11.277661997391347"><ele>237.0</ele><time>2026-04-09T09:07:05Z</time></trkpt><trkpt lat="43.38262980145425" lon="11.277376134821813"><ele>237.0</ele><time>2026-04-09T09:07:06Z</time></trkpt><trkpt lat="43.38277003312974" lon="11.277087368999394"><ele>234.5</ele><time>2026-04-09T09:07:07Z</time></trkpt><trkpt lat="43.3829059423988" lon="11.27681170679947"><ele>232.0</ele><time>2026-04-09T09:07:08Z</time></trkpt><trkpt lat="43.3830384404205" lon="11.276548374668772"><ele>232.5</ele><time>2026-04-09T09:07:09Z</time></trkpt><trkpt lat="43.38317932302233" lon="11.276282386866244"><ele>233.0</ele><time>2026-04-09T09:07:10Z</time></trkpt><trkpt lat="43.38332800662833" lon="11.276028205349673"><ele>233.0</ele><time>2026-04-09T09:07:11Z</time></trkpt><trkpt lat="43.383493347618135" lon="11.275774303852833"><ele>233.0</ele><time>2026-04-09T09:07:12Z</time></trkpt><trkpt lat="43.38366400380179" lon="11.275534281155931"><ele>233.5</ele><time>2026-04-09T09:07:13Z</time></trkpt><trkpt lat="43.38383979721507" lon="11.275306146906487"><ele>234.0</ele><time>2026-04-09T09:07:14Z</time></trkpt><trkpt lat="43.38400184124321" lon="11.275079253024742"><ele>234.0</ele><time>2026-04-09T09:07:15Z</time></trkpt><trkpt lat="43.38418642649996" lon="11.274862210237565"><ele>234.0</ele><time>2026-04-09T09:07:16Z</time></trkpt><trkpt lat="43.384364008326386" lon="11.274659787304289"><ele>231.5</ele><time>2026-04-09T09:07:17Z</time></trkpt><trkpt lat="43.384551514299815" lon="11.27445806830296"><ele>229.0</ele><time>2026-04-09T09:07:18Z</time></trkpt><trkpt lat="43.38475230142369" lon="11.274272469104114"><ele>229.0</ele><time>2026-04-09T09:07:19Z</time></trkpt><trkpt lat="43.38496018771823" lon="11.274096869182847"><ele>229.0</ele><time>2026-04-09T09:07:20Z</time></trkpt><trkpt lat="43.38517400614858" lon="11.273928770450865"><ele>226.5</ele><time>2026-04-09T09:07:21Z</time></trkpt><trkpt lat="43.3853942954698" lon="11.273770129819315"><ele>224.0</ele><time>2026-04-09T09:07:22Z</time></trkpt><trkpt lat="43.38560814115947" lon="11.27362525954433"><ele>223.5</ele><time>2026-04-09T09:07:23Z</time></trkpt><trkpt lat="43.38581189897603" lon="11.273494795721454"><ele>223.0</ele><time>2026-04-09T09:07:23.999Z</time></trkpt><trkpt lat="43.38601878460767" lon="11.273364970294871"><ele>223.0</ele><time>2026-04-09T09:07:24.999Z</time></trkpt><trkpt lat="43.38622448594781" lon="11.27322581227459"><ele>223.0</ele><time>2026-04-09T09:07:25.999Z</time></trkpt><trkpt lat="43.386422713890035" lon="11.273076766170217"><ele>223.5</ele><time>2026-04-09T09:07:26.999Z</time></trkpt><trkpt lat="43.38662239183648" lon="11.272921217370792"><ele>224.0</ele><time>2026-04-09T09:07:27.999Z</time></trkpt><trkpt lat="43.38681927758719" lon="11.27275510362535"><ele>224.0</ele><time>2026-04-09T09:07:28.999Z</time></trkpt><trkpt lat="43.387003637089585" lon="11.272576833178706"><ele>224.0</ele><time>2026-04-09T09:07:29.999Z</time></trkpt><trkpt lat="43.387185777367925" lon="11.27239210640092"><ele>223.5</ele><time>2026-04-09T09:07:30.999Z</time></trkpt><trkpt lat="43.387356073790535" lon="11.272191673046551"><ele>223.0</ele><time>2026-04-09T09:07:31.999Z</time></trkpt><trkpt lat="43.38752365034633" lon="11.271984173541544"><ele>223.0</ele><time>2026-04-09T09:07:32.999Z</time></trkpt><trkpt lat="43.38768611164238" lon="11.271771055462965"><ele>223.0</ele><time>2026-04-09T09:07:33.999Z</time></trkpt><trkpt lat="43.38783664716569" lon="11.27155077155113"><ele>223.0</ele><time>2026-04-09T09:07:34.999Z</time></trkpt><trkpt lat="43.38798376857616" lon="11.271322691375794"><ele>224.66666666666666</ele><time>2026-04-09T09:07:35.999Z</time></trkpt><trkpt lat="43.38812592177382" lon="11.27108785856162"><ele>226.33333333333331</ele><time>2026-04-09T09:07:36.999Z</time></trkpt><trkpt lat="43.3882448229116" lon="11.270839116395084"><ele>228.0</ele><time>2026-04-09T09:07:37.999Z</time></trkpt><trkpt lat="43.38835902703096" lon="11.270625770591872"><ele>226.0</ele><time>2026-04-09T09:07:38.999Z</time></trkpt><trkpt lat="43.38846637459864" lon="11.270397008788642"><ele>224.0</ele><time>2026-04-09T09:07:39.999Z</time></trkpt><trkpt lat="43.38857367907851" lon="11.27014336284408"><ele>222.0</ele><time>2026-04-09T09:07:40.999Z</time></trkpt><trkpt lat="43.38868142785106" lon="11.269890529506489"><ele>221.66666666666669</ele><time>2026-04-09T09:07:41.999Z</time></trkpt><trkpt lat="43.38878139000941" lon="11.269625178664255"><ele>221.33333333333334</ele><time>2026-04-09T09:07:42.999Z</time></trkpt><trkpt lat="43.388875872506496" lon="11.269356116476532"><ele>221.0</ele><time>2026-04-09T09:07:43.999Z</time></trkpt><trkpt lat="43.38896938847971" lon="11.269068920164147"><ele>221.0</ele><time>2026-04-09T09:07:44.999Z</time></trkpt><trkpt lat="43.38904967235147" lon="11.26879736004109"><ele>221.0</ele><time>2026-04-09T09:07:45.999Z</time></trkpt><trkpt lat="43.389113198873254" lon="11.268540886060954"><ele>221.0</ele><time>2026-04-09T09:07:46.999Z</time></trkpt><trkpt lat="43.3891651113082" lon="11.268274123383001"><ele>221.0</ele><time>2026-04-09T09:07:47.999Z</time></trkpt><trkpt lat="43.38921513853751" lon="11.267992994409212"><ele>221.0</ele><time>2026-04-09T09:07:48.999Z</time></trkpt><trkpt lat="43.38925755805509" lon="11.26769898397082"><ele>221.0</ele><time>2026-04-09T09:07:49.999Z</time></trkpt><trkpt lat="43.389299780897346" lon="11.267400699810855"><ele>221.66666666666669</ele><time>2026-04-09T09:07:50.999Z</time></trkpt><trkpt lat="43.38933727657644" lon="11.26709634403858"><ele>222.33333333333331</ele><time>2026-04-09T09:07:51.999Z</time></trkpt><trkpt lat="43.38937203725691" lon="11.266796627227093"><ele>223.0</ele><time>2026-04-09T09:07:52.999Z</time></trkpt><trkpt lat="43.389396680106216" lon="11.266482471001932"><ele>223.5</ele><time>2026-04-09T09:07:53.999Z</time></trkpt><trkpt lat="43.389418284907165" lon="11.266166153078238"><ele>224.0</ele><time>2026-04-09T09:07:54.999Z</time></trkpt><trkpt lat="43.38943685853895" lon="11.265839122170858"><ele>224.5</ele><time>2026-04-09T09:07:55.999Z</time></trkpt><trkpt lat="43.389462426343755" lon="11.265514357641372"><ele>225.0</ele><time>2026-04-09T09:07:56.999Z</time></trkpt><trkpt lat="43.389489573417336" lon="11.265186714960583"><ele>225.0</ele><time>2026-04-09T09:07:58Z</time></trkpt><trkpt lat="43.389516379989985" lon="11.264855718700277"><ele>225.0</ele><time>2026-04-09T09:07:59Z</time></trkpt><trkpt lat="43.389542312216214" lon="11.264517263061922"><ele>226.0</ele><time>2026-04-09T09:08:00Z</time></trkpt><trkpt lat="43.38956898677774" lon="11.264181638910486"><ele>227.0</ele><time>2026-04-09T09:08:01Z</time></trkpt><trkpt lat="43.38959164911043" lon="11.263840371551387"><ele>227.0</ele><time>2026-04-09T09:08:02Z</time></trkpt><trkpt lat="43.38961107741271" lon="11.263497229986978"><ele>227.0</ele><time>2026-04-09T09:08:03Z</time></trkpt><trkpt lat="43.38964095554177" lon="11.263158538744664"><ele>225.5</ele><time>2026-04-09T09:08:04Z</time></trkpt><trkpt lat="43.3896651947127" lon="11.262818877923356"><ele>224.0</ele><time>2026-04-09T09:08:05Z</time></trkpt><trkpt lat="43.389685450727264" lon="11.262502387143787"><ele>228.5</ele><time>2026-04-09T09:08:06Z</time></trkpt><trkpt lat="43.38971013548719" lon="11.262188720621268"><ele>233.0</ele><time>2026-04-09T09:08:07Z</time></trkpt><trkpt lat="43.38974042570507" lon="11.261876440055579"><ele>233.0</ele><time>2026-04-09T09:08:08Z</time></trkpt><trkpt lat="43.38977369113439" lon="11.26156469580285"><ele>233.0</ele><time>2026-04-09T09:08:09Z</time></trkpt><trkpt lat="43.38980744510814" lon="11.261250050566623"><ele>234.66666666666669</ele><time>2026-04-09T09:08:10Z</time></trkpt><trkpt lat="43.38983373777416" lon="11.260940338025732"><ele>236.33333333333331</ele><time>2026-04-09T09:08:11Z</time></trkpt><trkpt lat="43.38985106011622" lon="11.260646541509583"><ele>238.0</ele><time>2026-04-09T09:08:12Z</time></trkpt><trkpt lat="43.38987489843875" lon="11.260347208870229"><ele>238.0</ele><time>2026-04-09T09:08:13Z</time></trkpt><trkpt lat="43.389897450099525" lon="11.260041451312697"><ele>238.0</ele><time>2026-04-09T09:08:14Z</time></trkpt><trkpt lat="43.38992268383229" lon="11.259751999871318"><ele>238.0</ele><time>2026-04-09T09:08:15Z</time></trkpt><trkpt lat="43.38994815749731" lon="11.25945190844172"><ele>237.66666666666666</ele><time>2026-04-09T09:08:16Z</time></trkpt><trkpt lat="43.38996815995121" lon="11.259152205070402"><ele>237.33333333333331</ele><time>2026-04-09T09:08:17Z</time></trkpt><trkpt lat="43.38999173689564" lon="11.25884754599212"><ele>237.0</ele><time>2026-04-09T09:08:18Z</time></trkpt><trkpt lat="43.39000959664387" lon="11.258542386763676"><ele>235.0</ele><time>2026-04-09T09:08:19Z</time></trkpt><trkpt lat="43.39003014635407" lon="11.258225370671237"><ele>233.0</ele><time>2026-04-09T09:08:20Z</time></trkpt><trkpt lat="43.39005294170479" lon="11.257923957904351"><ele>231.66666666666669</ele><time>2026-04-09T09:08:21Z</time></trkpt><trkpt lat="43.390074354346375" lon="11.257618423995998"><ele>230.33333333333331</ele><time>2026-04-09T09:08:22Z</time></trkpt><trkpt lat="43.39009807356481" lon="11.257308831658506"><ele>229.0</ele><time>2026-04-09T09:08:23Z</time></trkpt><trkpt lat="43.39011776565435" lon="11.25699778508193"><ele>226.0</ele><time>2026-04-09T09:08:24Z</time></trkpt><trkpt lat="43.39013714400162" lon="11.25668747576803"><ele>223.0</ele><time>2026-04-09T09:08:25Z</time></trkpt><trkpt lat="43.39016773342974" lon="11.256374675305805"><ele>222.66666666666666</ele><time>2026-04-09T09:08:26Z</time></trkpt><trkpt lat="43.390191597256724" lon="11.256077776163664"><ele>222.33333333333331</ele><time>2026-04-09T09:08:27Z</time></trkpt><trkpt lat="43.39021125584101" lon="11.25578627448995"><ele>222.0</ele><time>2026-04-09T09:08:28Z</time></trkpt><trkpt lat="43.39022932922448" lon="11.255470105243752"><ele>221.5</ele><time>2026-04-09T09:08:29Z</time></trkpt><trkpt lat="43.39025064418754" lon="11.255150206207272"><ele>221.0</ele><time>2026-04-09T09:08:30Z</time></trkpt><trkpt lat="43.3902711689204" lon="11.254812745496718"><ele>221.0</ele><time>2026-04-09T09:08:31Z</time></trkpt><trkpt lat="43.390288868966195" lon="11.25447282652159"><ele>221.0</ele><time>2026-04-09T09:08:32Z</time></trkpt><trkpt lat="43.39031353798026" lon="11.254120606958452"><ele>222.5</ele><time>2026-04-09T09:08:33Z</time></trkpt><trkpt lat="43.39033593401462" lon="11.253772436573335"><ele>224.0</ele><time>2026-04-09T09:08:34Z</time></trkpt><trkpt lat="43.39036579106887" lon="11.253426075827461"><ele>222.5</ele><time>2026-04-09T09:08:35Z</time></trkpt><trkpt lat="43.39038291516533" lon="11.253089895876322"><ele>221.0</ele><time>2026-04-09T09:08:36Z</time></trkpt><trkpt lat="43.3904098197843" lon="11.252755230206958"><ele>221.0</ele><time>2026-04-09T09:08:37Z</time></trkpt><trkpt lat="43.39043348613553" lon="11.252405267436883"><ele>221.0</ele><time>2026-04-09T09:08:38Z</time></trkpt><trkpt lat="43.39046116107336" lon="11.252053996090055"><ele>223.0</ele><time>2026-04-09T09:08:39Z</time></trkpt><trkpt lat="43.390487386883365" lon="11.251701292681814"><ele>225.0</ele><time>2026-04-09T09:08:40Z</time></trkpt><trkpt lat="43.390514661129565" lon="11.25135698455187"><ele>229.0</ele><time>2026-04-09T09:08:41Z</time></trkpt><trkpt lat="43.39053985983293" lon="11.251026449081856"><ele>233.0</ele><time>2026-04-09T09:08:42Z</time></trkpt><trkpt lat="43.390562559501106" lon="11.25068688497208"><ele>230.5</ele><time>2026-04-09T09:08:43Z</time></trkpt><trkpt lat="43.39058675565299" lon="11.25034384339962"><ele>228.0</ele><time>2026-04-09T09:08:44Z</time></trkpt><trkpt lat="43.39061139690389" lon="11.250007572584538"><ele>226.0</ele><time>2026-04-09T09:08:45Z</time></trkpt><trkpt lat="43.390637781445825" lon="11.249691292154651"><ele>224.0</ele><time>2026-04-09T09:08:46Z</time></trkpt><trkpt lat="43.39066489111905" lon="11.249388489076729"><ele>224.0</ele><time>2026-04-09T09:08:47Z</time></trkpt><trkpt lat="43.390697566553236" lon="11.249090651782781"><ele>224.0</ele><time>2026-04-09T09:08:48Z</time></trkpt><trkpt lat="43.3907418127869" lon="11.248789614933637"><ele>224.0</ele><time>2026-04-09T09:08:49Z</time></trkpt><trkpt lat="43.39080162582398" lon="11.248487221940081"><ele>222.5</ele><time>2026-04-09T09:08:50Z</time></trkpt><trkpt lat="43.390876136347025" lon="11.24818289183336"><ele>221.0</ele><time>2026-04-09T09:08:51Z</time></trkpt><trkpt lat="43.39096517035632" lon="11.247882627228158"><ele>219.0</ele><time>2026-04-09T09:08:52Z</time></trkpt><trkpt lat="43.391069011085726" lon="11.24758839236177"><ele>217.0</ele><time>2026-04-09T09:08:53Z</time></trkpt><trkpt lat="43.39118838735504" lon="11.24729723871936"><ele>215.5</ele><time>2026-04-09T09:08:54Z</time></trkpt><trkpt lat="43.39131339774815" lon="11.247008444055346"><ele>214.0</ele><time>2026-04-09T09:08:55Z</time></trkpt><trkpt lat="43.391438346162985" lon="11.246719871665306"><ele>216.0</ele><time>2026-04-09T09:08:56Z</time></trkpt><trkpt lat="43.39155857549012" lon="11.246440265384438"><ele>218.0</ele><time>2026-04-09T09:08:57Z</time></trkpt><trkpt lat="43.39167692189786" lon="11.246170308923329"><ele>218.0</ele><time>2026-04-09T09:08:58Z</time></trkpt><trkpt lat="43.391791478531275" lon="11.245895592877664"><ele>218.0</ele><time>2026-04-09T09:08:59Z</time></trkpt><trkpt lat="43.39189531566868" lon="11.245608417091477"><ele>214.5</ele><time>2026-04-09T09:09:00Z</time></trkpt><trkpt lat="43.391988724682896" lon="11.245315134619105"><ele>211.0</ele><time>2026-04-09T09:09:01Z</time></trkpt><trkpt lat="43.39206886950037" lon="11.245018440476665"><ele>211.33333333333331</ele><time>2026-04-09T09:09:02Z</time></trkpt><trkpt lat="43.39213275685649" lon="11.244736257834951"><ele>211.66666666666669</ele><time>2026-04-09T09:09:03Z</time></trkpt><trkpt lat="43.39218692816787" lon="11.24446198375148"><ele>212.0</ele><time>2026-04-09T09:09:04Z</time></trkpt><trkpt lat="43.39223074397461" lon="11.244185758761377"><ele>211.33333333333334</ele><time>2026-04-09T09:09:05Z</time></trkpt><trkpt lat="43.392263657198335" lon="11.24388488268699"><ele>210.66666666666669</ele><time>2026-04-09T09:09:06Z</time></trkpt><trkpt lat="43.39229074954289" lon="11.24358961409265"><ele>210.0</ele><time>2026-04-09T09:09:07Z</time></trkpt><trkpt lat="43.39230817886288" lon="11.243274076813533"><ele>211.0</ele><time>2026-04-09T09:09:08Z</time></trkpt><trkpt lat="43.39231341414169" lon="11.24295944060205"><ele>212.0</ele><time>2026-04-09T09:09:09Z</time></trkpt><trkpt lat="43.392308568202345" lon="11.242645010179867"><ele>212.0</ele><time>2026-04-09T09:09:10Z</time></trkpt><trkpt lat="43.39229177307597" lon="11.242333905707154"><ele>212.0</ele><time>2026-04-09T09:09:11Z</time></trkpt><trkpt lat="43.392263405895214" lon="11.242022121718637"><ele>211.0</ele><time>2026-04-09T09:09:12Z</time></trkpt><trkpt lat="43.392226239393295" lon="11.241712010215155"><ele>210.0</ele><time>2026-04-09T09:09:13Z</time></trkpt><trkpt lat="43.39218168055441" lon="11.241398398832443"><ele>223.0</ele><time>2026-04-09T09:09:14Z</time></trkpt><trkpt lat="43.392138041241516" lon="11.241079694045299"><ele>236.0</ele><time>2026-04-09T09:09:15Z</time></trkpt><trkpt lat="43.39209617688101" lon="11.240754983099544"><ele>232.0</ele><time>2026-04-09T09:09:16Z</time></trkpt><trkpt lat="43.39205663503072" lon="11.240427103086189"><ele>228.0</ele><time>2026-04-09T09:09:17Z</time></trkpt><trkpt lat="43.39202027832273" lon="11.240092933663416"><ele>227.5</ele><time>2026-04-09T09:09:18Z</time></trkpt><trkpt lat="43.39199195761107" lon="11.239751957034027"><ele>227.0</ele><time>2026-04-09T09:09:19Z</time></trkpt><trkpt lat="43.39197231091361" lon="11.239406145605264"><ele>227.0</ele><time>2026-04-09T09:09:20Z</time></trkpt><trkpt lat="43.391968862651034" lon="11.239058979621134"><ele>227.0</ele><time>2026-04-09T09:09:21Z</time></trkpt><trkpt lat="43.39198384485936" lon="11.23872333863009"><ele>227.5</ele><time>2026-04-09T09:09:22Z</time></trkpt><trkpt lat="43.392011229727906" lon="11.23840121903926"><ele>228.0</ele><time>2026-04-09T09:09:23Z</time></trkpt><trkpt lat="43.392042392693085" lon="11.238073441838504"><ele>226.0</ele><time>2026-04-09T09:09:24Z</time></trkpt><trkpt lat="43.39207820729593" lon="11.237746489416876"><ele>224.0</ele><time>2026-04-09T09:09:25Z</time></trkpt><trkpt lat="43.392130770161735" lon="11.237423426637886"><ele>217.5</ele><time>2026-04-09T09:09:26Z</time></trkpt><trkpt lat="43.39219297885104" lon="11.237104402954428"><ele>211.0</ele><time>2026-04-09T09:09:27Z</time></trkpt><trkpt lat="43.39226688013512" lon="11.236790880995564"><ele>211.0</ele><time>2026-04-09T09:09:28Z</time></trkpt><trkpt lat="43.39234920693365" lon="11.236481902222963"><ele>211.0</ele><time>2026-04-09T09:09:29Z</time></trkpt><trkpt lat="43.392438907862" lon="11.236175110094043"><ele>210.5</ele><time>2026-04-09T09:09:30Z</time></trkpt><trkpt lat="43.39253605377651" lon="11.2358734103069"><ele>210.0</ele><time>2026-04-09T09:09:31Z</time></trkpt><trkpt lat="43.39263593593189" lon="11.235567181577618"><ele>212.0</ele><time>2026-04-09T09:09:32Z</time></trkpt><trkpt lat="43.3927336398974" lon="11.235270458423745"><ele>214.0</ele><time>2026-04-09T09:09:33Z</time></trkpt><trkpt lat="43.39283803123618" lon="11.23496670408142"><ele>217.5</ele><time>2026-04-09T09:09:34Z</time></trkpt><trkpt lat="43.39293766006571" lon="11.234672199835495"><ele>221.0</ele><time>2026-04-09T09:09:35Z</time></trkpt><trkpt lat="43.393038810002714" lon="11.23437202400312"><ele>217.0</ele><time>2026-04-09T09:09:35.999Z</time></trkpt><trkpt lat="43.39313779504378" lon="11.234077638691984"><ele>213.0</ele><time>2026-04-09T09:09:36.999Z</time></trkpt><trkpt lat="43.39324034839744" lon="11.23378242342582"><ele>213.0</ele><time>2026-04-09T09:09:37.999Z</time></trkpt><trkpt lat="43.39333727223674" lon="11.233484420274646"><ele>213.0</ele><time>2026-04-09T09:09:38.999Z</time></trkpt><trkpt lat="43.39343260682395" lon="11.233188620814865"><ele>215.0</ele><time>2026-04-09T09:09:39.999Z</time></trkpt><trkpt lat="43.393530697516674" lon="11.232893798345762"><ele>217.0</ele><time>2026-04-09T09:09:40.999Z</time></trkpt><trkpt lat="43.39363078631689" lon="11.232599529030933"><ele>219.0</ele><time>2026-04-09T09:09:41.999Z</time></trkpt><trkpt lat="43.39373116967159" lon="11.232304462670236"><ele>221.0</ele><time>2026-04-09T09:09:42.999Z</time></trkpt><trkpt lat="43.39382984128709" lon="11.232003980832447"><ele>218.5</ele><time>2026-04-09T09:09:43.999Z</time></trkpt><trkpt lat="43.39392790728301" lon="11.23170664071671"><ele>216.0</ele><time>2026-04-09T09:09:44.999Z</time></trkpt><trkpt lat="43.39402095308729" lon="11.231403369962738"><ele>216.0</ele><time>2026-04-09T09:09:45.999Z</time></trkpt><trkpt lat="43.39412275157289" lon="11.231102202835402"><ele>216.0</ele><time>2026-04-09T09:09:46.999Z</time></trkpt><trkpt lat="43.39421339689813" lon="11.230793095762719"><ele>218.33333333333331</ele><time>2026-04-09T09:09:47.999Z</time></trkpt><trkpt lat="43.39429253900738" lon="11.230507929887985"><ele>220.66666666666666</ele><time>2026-04-09T09:09:48.999Z</time></trkpt><trkpt lat="43.39434923625649" lon="11.23022630545275"><ele>223.0</ele><time>2026-04-09T09:09:49.999Z</time></trkpt><trkpt lat="43.39439959298636" lon="11.229924456231334"><ele>224.5</ele><time>2026-04-09T09:09:50.999Z</time></trkpt><trkpt lat="43.39443605590396" lon="11.229625051663705"><ele>226.0</ele><time>2026-04-09T09:09:51.999Z</time></trkpt><trkpt lat="43.39446713661272" lon="11.229312082476675"><ele>226.0</ele><time>2026-04-09T09:09:52.999Z</time></trkpt><trkpt lat="43.394482933647325" lon="11.228999281023103"><ele>226.0</ele><time>2026-04-09T09:09:53.999Z</time></trkpt><trkpt lat="43.39449492524676" lon="11.228681720369725"><ele>222.0</ele><time>2026-04-09T09:09:54.999Z</time></trkpt><trkpt lat="43.39449296514645" lon="11.2283632070267"><ele>218.0</ele><time>2026-04-09T09:09:55.999Z</time></trkpt><trkpt lat="43.39447676799045" lon="11.228043305506652"><ele>215.0</ele><time>2026-04-09T09:09:56.999Z</time></trkpt><trkpt lat="43.39445018735291" lon="11.227722876521662"><ele>212.0</ele><time>2026-04-09T09:09:57.999Z</time></trkpt><trkpt lat="43.394414533903586" lon="11.22740294596503"><ele>211.0</ele><time>2026-04-09T09:09:58.999Z</time></trkpt><trkpt lat="43.3943753202799" lon="11.22708254216698"><ele>210.0</ele><time>2026-04-09T09:09:59.999Z</time></trkpt><trkpt lat="43.394336877140276" lon="11.22675738411164"><ele>208.5</ele><time>2026-04-09T09:10:00.999Z</time></trkpt><trkpt lat="43.39430040888167" lon="11.226433040864855"><ele>207.0</ele><time>2026-04-09T09:10:01.999Z</time></trkpt><trkpt lat="43.394263652939436" lon="11.226104915869344"><ele>207.0</ele><time>2026-04-09T09:10:02.999Z</time></trkpt><trkpt lat="43.3942257472212" lon="11.225776468977038"><ele>207.0</ele><time>2026-04-09T09:10:04Z</time></trkpt><trkpt lat="43.394187126300494" lon="11.225447214418597"><ele>207.0</ele><time>2026-04-09T09:10:05Z</time></trkpt><trkpt lat="43.394148961366795" lon="11.225123026026614"><ele>207.0</ele><time>2026-04-09T09:10:06Z</time></trkpt><trkpt lat="43.39411157215864" lon="11.22479809222195"><ele>207.0</ele><time>2026-04-09T09:10:07Z</time></trkpt><trkpt lat="43.39407503251473" lon="11.224473366424576"><ele>207.0</ele><time>2026-04-09T09:10:08Z</time></trkpt><trkpt lat="43.39403869578676" lon="11.224170569665285"><ele>206.33333333333331</ele><time>2026-04-09T09:10:09Z</time></trkpt><trkpt lat="43.394000711383875" lon="11.223869951545066"><ele>205.66666666666666</ele><time>2026-04-09T09:10:10Z</time></trkpt><trkpt lat="43.39396359228826" lon="11.223568758268433"><ele>205.0</ele><time>2026-04-09T09:10:11Z</time></trkpt><trkpt lat="43.39392834641235" lon="11.223264910003316"><ele>204.33333333333331</ele><time>2026-04-09T09:10:12Z</time></trkpt><trkpt lat="43.393899593758995" lon="11.222972140746794"><ele>203.66666666666669</ele><time>2026-04-09T09:10:13Z</time></trkpt><trkpt lat="43.39387012183817" lon="11.222673894193061"><ele>203.0</ele><time>2026-04-09T09:10:14Z</time></trkpt><trkpt lat="43.393838321545196" lon="11.222397459084847"><ele>209.33333333333334</ele><time>2026-04-09T09:10:15Z</time></trkpt><trkpt lat="43.393784602651145" lon="11.222154553341124"><ele>215.66666666666669</ele><time>2026-04-09T09:10:16Z</time></trkpt><trkpt lat="43.393733010949056" lon="11.221935655317191"><ele>222.0</ele><time>2026-04-09T09:10:17Z</time></trkpt><trkpt lat="43.393682859034584" lon="11.221742139272974"><ele>222.0</ele><time>2026-04-09T09:10:18Z</time></trkpt><trkpt lat="43.3936271511235" lon="11.221566467297746"><ele>222.0</ele><time>2026-04-09T09:10:19Z</time></trkpt><trkpt lat="43.39373637208101" lon="11.22082435796756"><ele>216.0</ele><time>2026-04-09T09:10:20Z</time></trkpt><trkpt lat="43.39374006172835" lon="11.220500836684664"><ele>210.0</ele><time>2026-04-09T09:10:21Z</time></trkpt><trkpt lat="43.39374360087332" lon="11.220173424183095"><ele>210.0</ele><time>2026-04-09T09:10:22Z</time></trkpt><trkpt lat="43.39375522151954" lon="11.219848091835727"><ele>210.0</ele><time>2026-04-09T09:10:23Z</time></trkpt><trkpt lat="43.39377416186876" lon="11.219518574497538"><ele>207.0</ele><time>2026-04-09T09:10:24Z</time></trkpt><trkpt lat="43.393795270067045" lon="11.219191299459661"><ele>204.0</ele><time>2026-04-09T09:10:25Z</time></trkpt><trkpt lat="43.393824860177965" lon="11.218865479405816"><ele>201.5</ele><time>2026-04-09T09:10:26Z</time></trkpt><trkpt lat="43.3938573691078" lon="11.218537341894448"><ele>199.0</ele><time>2026-04-09T09:10:27Z</time></trkpt><trkpt lat="43.39388766806738" lon="11.218209348527912"><ele>198.0</ele><time>2026-04-09T09:10:28Z</time></trkpt><trkpt lat="43.39391336360873" lon="11.217879823439128"><ele>197.0</ele><time>2026-04-09T09:10:29Z</time></trkpt><trkpt lat="43.39393745537903" lon="11.21755043165764"><ele>196.5</ele><time>2026-04-09T09:10:30Z</time></trkpt><trkpt lat="43.39397055293752" lon="11.217215844680299"><ele>196.0</ele><time>2026-04-09T09:10:31Z</time></trkpt><trkpt lat="43.39400004362868" lon="11.216887614415434"><ele>196.0</ele><time>2026-04-09T09:10:32Z</time></trkpt><trkpt lat="43.39403460103456" lon="11.216552910291425"><ele>196.0</ele><time>2026-04-09T09:10:33Z</time></trkpt><trkpt lat="43.39406743855824" lon="11.216219077859419"><ele>196.5</ele><time>2026-04-09T09:10:34Z</time></trkpt><trkpt lat="43.39409352301961" lon="11.215885493293438"><ele>197.0</ele><time>2026-04-09T09:10:35Z</time></trkpt><trkpt lat="43.39411719553612" lon="11.215553769405993"><ele>197.5</ele><time>2026-04-09T09:10:36Z</time></trkpt><trkpt lat="43.39414971081695" lon="11.215213740437846"><ele>198.0</ele><time>2026-04-09T09:10:37Z</time></trkpt><trkpt lat="43.39417726946242" lon="11.214879720352968"><ele>197.0</ele><time>2026-04-09T09:10:38Z</time></trkpt><trkpt lat="43.39420508293968" lon="11.21453984356083"><ele>196.0</ele><time>2026-04-09T09:10:39Z</time></trkpt><trkpt lat="43.39423257384461" lon="11.214203239571148"><ele>196.0</ele><time>2026-04-09T09:10:40Z</time></trkpt><trkpt lat="43.39426260965601" lon="11.213867609978779"><ele>196.0</ele><time>2026-04-09T09:10:41Z</time></trkpt><trkpt lat="43.39428578424653" lon="11.213561070582736"><ele>196.0</ele><time>2026-04-09T09:10:42Z</time></trkpt><trkpt lat="43.39431168335636" lon="11.213262742161625"><ele>196.0</ele><time>2026-04-09T09:10:43Z</time></trkpt><trkpt lat="43.39433672605248" lon="11.212945518878676"><ele>196.0</ele><time>2026-04-09T09:10:44Z</time></trkpt><trkpt lat="43.39436485625566" lon="11.212631237091294"><ele>196.0</ele><time>2026-04-09T09:10:45Z</time></trkpt><trkpt lat="43.39439164524712" lon="11.212305244016516"><ele>195.0</ele><time>2026-04-09T09:10:46Z</time></trkpt><trkpt lat="43.39441754197188" lon="11.211988954638892"><ele>194.0</ele><time>2026-04-09T09:10:47Z</time></trkpt><trkpt lat="43.39444263097698" lon="11.21166763025346"><ele>194.0</ele><time>2026-04-09T09:10:48Z</time></trkpt><trkpt lat="43.39447150841196" lon="11.211337126713262"><ele>194.0</ele><time>2026-04-09T09:10:49Z</time></trkpt><trkpt lat="43.3944972252524" lon="11.21101659195728"><ele>194.0</ele><time>2026-04-09T09:10:50Z</time></trkpt><trkpt lat="43.39451940253162" lon="11.210694719590462"><ele>194.0</ele><time>2026-04-09T09:10:51Z</time></trkpt><trkpt lat="43.394547282044336" lon="11.210373468360403"><ele>195.0</ele><time>2026-04-09T09:10:52Z</time></trkpt><trkpt lat="43.39457633278644" lon="11.210049830293224"><ele>196.0</ele><time>2026-04-09T09:10:53Z</time></trkpt><trkpt lat="43.39460247424821" lon="11.209732861755635"><ele>197.0</ele><time>2026-04-09T09:10:54Z</time></trkpt><trkpt lat="43.39462829589981" lon="11.209429075059319"><ele>198.0</ele><time>2026-04-09T09:10:55Z</time></trkpt><trkpt lat="43.39465380297779" lon="11.209137143524739"><ele>199.0</ele><time>2026-04-09T09:10:56Z</time></trkpt><trkpt lat="43.39468044746536" lon="11.208839489154286"><ele>203.5</ele><time>2026-04-09T09:10:57Z</time></trkpt><trkpt lat="43.394706152052905" lon="11.208509619540614"><ele>208.0</ele><time>2026-04-09T09:10:58Z</time></trkpt><trkpt lat="43.39472901779169" lon="11.208179477617875"><ele>208.0</ele><time>2026-04-09T09:10:59Z</time></trkpt><trkpt lat="43.394747933590935" lon="11.207838080383896"><ele>208.0</ele><time>2026-04-09T09:11:00Z</time></trkpt><trkpt lat="43.3947765934747" lon="11.207488365911198"><ele>209.0</ele><time>2026-04-09T09:11:01Z</time></trkpt><trkpt lat="43.39480049174702" lon="11.207130649178458"><ele>210.0</ele><time>2026-04-09T09:11:02Z</time></trkpt><trkpt lat="43.3948311692468" lon="11.206796882090343"><ele>211.5</ele><time>2026-04-09T09:11:03Z</time></trkpt><trkpt lat="43.39485869575074" lon="11.20648657487019"><ele>213.0</ele><time>2026-04-09T09:11:04Z</time></trkpt><trkpt lat="43.394886298273775" lon="11.206172895691557"><ele>213.0</ele><time>2026-04-09T09:11:05Z</time></trkpt><trkpt lat="43.39491352825485" lon="11.205843866447436"><ele>213.0</ele><time>2026-04-09T09:11:06Z</time></trkpt><trkpt lat="43.39494046020927" lon="11.205510822151147"><ele>213.0</ele><time>2026-04-09T09:11:07Z</time></trkpt><trkpt lat="43.39496937583499" lon="11.20517135206876"><ele>213.0</ele><time>2026-04-09T09:11:08Z</time></trkpt><trkpt lat="43.39500203184521" lon="11.204839915056953"><ele>214.0</ele><time>2026-04-09T09:11:09Z</time></trkpt><trkpt lat="43.395042852487286" lon="11.2045390263061"><ele>215.0</ele><time>2026-04-09T09:11:10Z</time></trkpt><trkpt lat="43.39510118112422" lon="11.204244856772261"><ele>216.0</ele><time>2026-04-09T09:11:11Z</time></trkpt><trkpt lat="43.395174815139235" lon="11.203940919495919"><ele>216.0</ele><time>2026-04-09T09:11:12Z</time></trkpt><trkpt lat="43.39525532595274" lon="11.203634537755683"><ele>216.0</ele><time>2026-04-09T09:11:13Z</time></trkpt><trkpt lat="43.39534464581771" lon="11.20333119707519"><ele>216.0</ele><time>2026-04-09T09:11:14Z</time></trkpt><trkpt lat="43.39544840530054" lon="11.203032497630428"><ele>216.0</ele><time>2026-04-09T09:11:15Z</time></trkpt><trkpt lat="43.395554487047654" lon="11.202755931085374"><ele>216.0</ele><time>2026-04-09T09:11:16Z</time></trkpt><trkpt lat="43.395670077967296" lon="11.202501275282557"><ele>216.0</ele><time>2026-04-09T09:11:17Z</time></trkpt><trkpt lat="43.39579630147724" lon="11.202242727347471"><ele>216.0</ele><time>2026-04-09T09:11:18Z</time></trkpt><trkpt lat="43.39592076022844" lon="11.201973384827532"><ele>215.5</ele><time>2026-04-09T09:11:19Z</time></trkpt><trkpt lat="43.39605239007193" lon="11.201699286808402"><ele>215.0</ele><time>2026-04-09T09:11:20Z</time></trkpt><trkpt lat="43.39618981890835" lon="11.201421142367817"><ele>214.5</ele><time>2026-04-09T09:11:21Z</time></trkpt><trkpt lat="43.39631779478477" lon="11.201149046535635"><ele>214.0</ele><time>2026-04-09T09:11:22Z</time></trkpt><trkpt lat="43.39643982595715" lon="11.20089241282347"><ele>215.0</ele><time>2026-04-09T09:11:23Z</time></trkpt><trkpt lat="43.396559598714255" lon="11.20063962282013"><ele>216.0</ele><time>2026-04-09T09:11:24Z</time></trkpt><trkpt lat="43.396680947577714" lon="11.200382711043352"><ele>217.0</ele><time>2026-04-09T09:11:25Z</time></trkpt><trkpt lat="43.39680273416844" lon="11.200126364540152"><ele>217.0</ele><time>2026-04-09T09:11:26Z</time></trkpt><trkpt lat="43.39692896742302" lon="11.19986970181919"><ele>217.0</ele><time>2026-04-09T09:11:27Z</time></trkpt><trkpt lat="43.397059493995215" lon="11.199612052535329"><ele>218.5</ele><time>2026-04-09T09:11:28Z</time></trkpt><trkpt lat="43.39719378761892" lon="11.199349405253917"><ele>220.0</ele><time>2026-04-09T09:11:29Z</time></trkpt><trkpt lat="43.39732326266942" lon="11.199083913664325"><ele>216.5</ele><time>2026-04-09T09:11:30Z</time></trkpt><trkpt lat="43.39745207861291" lon="11.198814110219868"><ele>213.0</ele><time>2026-04-09T09:11:31Z</time></trkpt><trkpt lat="43.39758449649692" lon="11.198543422401633"><ele>213.0</ele><time>2026-04-09T09:11:32Z</time></trkpt><trkpt lat="43.3977189117777" lon="11.19826872846853"><ele>213.0</ele><time>2026-04-09T09:11:33Z</time></trkpt><trkpt lat="43.39785134054098" lon="11.197997443617847"><ele>212.5</ele><time>2026-04-09T09:11:34Z</time></trkpt><trkpt lat="43.397984160376204" lon="11.197720544245247"><ele>212.0</ele><time>2026-04-09T09:11:35Z</time></trkpt><trkpt lat="43.39811246740088" lon="11.197461169139096"><ele>211.0</ele><time>2026-04-09T09:11:36Z</time></trkpt><trkpt lat="43.398230222959114" lon="11.1972032530725"><ele>210.0</ele><time>2026-04-09T09:11:37Z</time></trkpt><trkpt lat="43.398351499648" lon="11.196946789162823"><ele>209.0</ele><time>2026-04-09T09:11:38Z</time></trkpt><trkpt lat="43.398475414118565" lon="11.19669001477412"><ele>209.0</ele><time>2026-04-09T09:11:38.999Z</time></trkpt><trkpt lat="43.39859974608861" lon="11.196431796803543"><ele>209.0</ele><time>2026-04-09T09:11:39.999Z</time></trkpt><trkpt lat="43.398723348503275" lon="11.196170566094585"><ele>209.5</ele><time>2026-04-09T09:11:40.999Z</time></trkpt><trkpt lat="43.39885127901768" lon="11.195914536677568"><ele>210.0</ele><time>2026-04-09T09:11:41.999Z</time></trkpt><trkpt lat="43.39897590165843" lon="11.19565360075109"><ele>210.0</ele><time>2026-04-09T09:11:42.999Z</time></trkpt><trkpt lat="43.399098333150256" lon="11.195392499822853"><ele>210.0</ele><time>2026-04-09T09:11:43.999Z</time></trkpt><trkpt lat="43.3992166823035" lon="11.195141159631747"><ele>210.0</ele><time>2026-04-09T09:11:44.999Z</time></trkpt><trkpt lat="43.39933228196216" lon="11.194909775443287"><ele>210.33333333333331</ele><time>2026-04-09T09:11:45.999Z</time></trkpt><trkpt lat="43.39944672485692" lon="11.194666422887764"><ele>210.66666666666666</ele><time>2026-04-09T09:11:46.999Z</time></trkpt><trkpt lat="43.3995632013606" lon="11.19442859101024"><ele>211.0</ele><time>2026-04-09T09:11:47.999Z</time></trkpt><trkpt lat="43.39967863342978" lon="11.194189396797007"><ele>210.66666666666666</ele><time>2026-04-09T09:11:48.999Z</time></trkpt><trkpt lat="43.39979548034161" lon="11.19395155980948"><ele>210.33333333333331</ele><time>2026-04-09T09:11:49.999Z</time></trkpt><trkpt lat="43.399912368966724" lon="11.193713171188028"><ele>210.0</ele><time>2026-04-09T09:11:50.999Z</time></trkpt><trkpt lat="43.40002635109853" lon="11.193472596987043"><ele>210.0</ele><time>2026-04-09T09:11:51.999Z</time></trkpt><trkpt lat="43.40014124606891" lon="11.19323310476163"><ele>210.0</ele><time>2026-04-09T09:11:52.999Z</time></trkpt><trkpt lat="43.40025805816887" lon="11.19299628965029"><ele>210.0</ele><time>2026-04-09T09:11:53.999Z</time></trkpt><trkpt lat="43.40037389124551" lon="11.192757947684346"><ele>210.0</ele><time>2026-04-09T09:11:54.999Z</time></trkpt><trkpt lat="43.40048710153244" lon="11.192520660927848"><ele>210.0</ele><time>2026-04-09T09:11:55.999Z</time></trkpt><trkpt lat="43.40060450745685" lon="11.192280709101302"><ele>210.0</ele><time>2026-04-09T09:11:56.999Z</time></trkpt><trkpt lat="43.4007207497543" lon="11.192047499474283"><ele>210.0</ele><time>2026-04-09T09:11:57.999Z</time></trkpt><trkpt lat="43.400836723754075" lon="11.1918067595416"><ele>210.0</ele><time>2026-04-09T09:11:58.999Z</time></trkpt><trkpt lat="43.40095172118738" lon="11.191569820434689"><ele>210.0</ele><time>2026-04-09T09:11:59.999Z</time></trkpt><trkpt lat="43.401066829630295" lon="11.191329504166001"><ele>210.0</ele><time>2026-04-09T09:12:00.999Z</time></trkpt><trkpt lat="43.401178264239626" lon="11.191089271881802"><ele>210.0</ele><time>2026-04-09T09:12:01.999Z</time></trkpt><trkpt lat="43.40129251763006" lon="11.190849936379848"><ele>210.0</ele><time>2026-04-09T09:12:02.999Z</time></trkpt><trkpt lat="43.40140565110726" lon="11.19061110113536"><ele>209.66666666666669</ele><time>2026-04-09T09:12:03.999Z</time></trkpt><trkpt lat="43.40152257995288" lon="11.19037268551735"><ele>209.33333333333334</ele><time>2026-04-09T09:12:04.999Z</time></trkpt><trkpt lat="43.4016387196268" lon="11.190134181126377"><ele>209.0</ele><time>2026-04-09T09:12:05.999Z</time></trkpt><trkpt lat="43.401758060467884" lon="11.189892025171941"><ele>209.0</ele><time>2026-04-09T09:12:06.999Z</time></trkpt><trkpt lat="43.40188032374955" lon="11.18964744824144"><ele>209.0</ele><time>2026-04-09T09:12:07.999Z</time></trkpt><trkpt lat="43.40200565386484" lon="11.189387780226685"><ele>209.0</ele><time>2026-04-09T09:12:08.999Z</time></trkpt><trkpt lat="43.402130864041276" lon="11.189126142728574"><ele>210.0</ele><time>2026-04-09T09:12:10Z</time></trkpt><trkpt lat="43.40226026824037" lon="11.188860083040833"><ele>211.0</ele><time>2026-04-09T09:12:11Z</time></trkpt><trkpt lat="43.402391422593844" lon="11.188589828132766"><ele>211.0</ele><time>2026-04-09T09:12:12Z</time></trkpt><trkpt lat="43.402525413466556" lon="11.188313134434363"><ele>211.0</ele><time>2026-04-09T09:12:13Z</time></trkpt><trkpt lat="43.40266180991942" lon="11.1880306281503"><ele>210.5</ele><time>2026-04-09T09:12:14Z</time></trkpt><trkpt lat="43.40280039043749" lon="11.187748432377237"><ele>210.0</ele><time>2026-04-09T09:12:15Z</time></trkpt><trkpt lat="43.402938455865595" lon="11.18746407589843"><ele>211.0</ele><time>2026-04-09T09:12:16Z</time></trkpt><trkpt lat="43.40307585305064" lon="11.187181184460622"><ele>212.0</ele><time>2026-04-09T09:12:17Z</time></trkpt><trkpt lat="43.40320373420945" lon="11.186916245147737"><ele>212.0</ele><time>2026-04-09T09:12:18Z</time></trkpt><trkpt lat="43.40332881569591" lon="11.18665250168984"><ele>212.0</ele><time>2026-04-09T09:12:19Z</time></trkpt><trkpt lat="43.40345808558558" lon="11.186390256627675"><ele>212.5</ele><time>2026-04-09T09:12:20Z</time></trkpt><trkpt lat="43.40358612828328" lon="11.186124832525286"><ele>213.0</ele><time>2026-04-09T09:12:21Z</time></trkpt><trkpt lat="43.40371109112408" lon="11.185859970687765"><ele>213.5</ele><time>2026-04-09T09:12:22Z</time></trkpt><trkpt lat="43.40383889317772" lon="11.185595652958828"><ele>214.0</ele><time>2026-04-09T09:12:23Z</time></trkpt><trkpt lat="43.40396816441826" lon="11.185336403170476"><ele>214.0</ele><time>2026-04-09T09:12:24Z</time></trkpt><trkpt lat="43.40409654590224" lon="11.185074897428766"><ele>214.0</ele><time>2026-04-09T09:12:25Z</time></trkpt><trkpt lat="43.40421925510419" lon="11.184809529019576"><ele>215.5</ele><time>2026-04-09T09:12:26Z</time></trkpt><trkpt lat="43.404345891004596" lon="11.18454896322046"><ele>217.0</ele><time>2026-04-09T09:12:27Z</time></trkpt><trkpt lat="43.40447270668896" lon="11.184287412098554"><ele>217.0</ele><time>2026-04-09T09:12:28Z</time></trkpt><trkpt lat="43.40459854770597" lon="11.184022942034083"><ele>217.0</ele><time>2026-04-09T09:12:29Z</time></trkpt><trkpt lat="43.404723187944" lon="11.183761178581834"><ele>217.66666666666666</ele><time>2026-04-09T09:12:30Z</time></trkpt><trkpt lat="43.40484336947722" lon="11.18350992397232"><ele>218.33333333333331</ele><time>2026-04-09T09:12:31Z</time></trkpt><trkpt lat="43.404965361176444" lon="11.183257289437485"><ele>219.0</ele><time>2026-04-09T09:12:32Z</time></trkpt><trkpt lat="43.405081081376025" lon="11.183015612235115"><ele>220.0</ele><time>2026-04-09T09:12:33Z</time></trkpt><trkpt lat="43.405201364957385" lon="11.182759318966825"><ele>221.0</ele><time>2026-04-09T09:12:34Z</time></trkpt><trkpt lat="43.40531712885944" lon="11.182492467641817"><ele>222.0</ele><time>2026-04-09T09:12:35Z</time></trkpt><trkpt lat="43.40543620493777" lon="11.182225104902779"><ele>223.0</ele><time>2026-04-09T09:12:36Z</time></trkpt><trkpt lat="43.40556045043785" lon="11.181966132803707"><ele>224.0</ele><time>2026-04-09T09:12:37Z</time></trkpt><trkpt lat="43.40569305971975" lon="11.181699216789728"><ele>223.5</ele><time>2026-04-09T09:12:38Z</time></trkpt><trkpt lat="43.40582585598554" lon="11.181425878101274"><ele>223.0</ele><time>2026-04-09T09:12:39Z</time></trkpt><trkpt lat="43.40597124488008" lon="11.181154752277143"><ele>223.0</ele><time>2026-04-09T09:12:40Z</time></trkpt><trkpt lat="43.40610482096309" lon="11.18087371421342"><ele>223.0</ele><time>2026-04-09T09:12:41Z</time></trkpt><trkpt lat="43.406246324062984" lon="11.180592010173717"><ele>222.0</ele><time>2026-04-09T09:12:42Z</time></trkpt><trkpt lat="43.40638902642448" lon="11.18031016896847"><ele>221.0</ele><time>2026-04-09T09:12:43Z</time></trkpt><trkpt lat="43.406529516792" lon="11.180019413202224"><ele>219.5</ele><time>2026-04-09T09:12:44Z</time></trkpt><trkpt lat="43.40666396931652" lon="11.179726949564047"><ele>218.0</ele><time>2026-04-09T09:12:45Z</time></trkpt><trkpt lat="43.40678058687884" lon="11.179443402788124"><ele>218.0</ele><time>2026-04-09T09:12:46Z</time></trkpt><trkpt lat="43.40689349063552" lon="11.179160883435163"><ele>218.0</ele><time>2026-04-09T09:12:47Z</time></trkpt><trkpt lat="43.407007369160745" lon="11.178872609037239"><ele>217.0</ele><time>2026-04-09T09:12:48Z</time></trkpt><trkpt lat="43.407118237705504" lon="11.178587337401828"><ele>216.0</ele><time>2026-04-09T09:12:49Z</time></trkpt><trkpt lat="43.40722173599213" lon="11.178318848927514"><ele>218.0</ele><time>2026-04-09T09:12:50Z</time></trkpt><trkpt lat="43.40731993352685" lon="11.178049198136566"><ele>220.0</ele><time>2026-04-09T09:12:51Z</time></trkpt><trkpt lat="43.407414021387225" lon="11.177772958723724"><ele>222.0</ele><time>2026-04-09T09:12:52Z</time></trkpt><trkpt lat="43.407505450303155" lon="11.177490101856769"><ele>220.5</ele><time>2026-04-09T09:12:53Z</time></trkpt><trkpt lat="43.40759260104673" lon="11.17720122258206"><ele>219.0</ele><time>2026-04-09T09:12:54Z</time></trkpt><trkpt lat="43.407680617854076" lon="11.176912407586311"><ele>219.0</ele><time>2026-04-09T09:12:55Z</time></trkpt><trkpt lat="43.40776535471695" lon="11.17661860917478"><ele>219.0</ele><time>2026-04-09T09:12:56Z</time></trkpt><trkpt lat="43.40784773500647" lon="11.17632682847123"><ele>218.0</ele><time>2026-04-09T09:12:57Z</time></trkpt><trkpt lat="43.40793607254463" lon="11.176032171527869"><ele>217.0</ele><time>2026-04-09T09:12:58Z</time></trkpt><trkpt lat="43.40802471312388" lon="11.175736107381734"><ele>222.0</ele><time>2026-04-09T09:12:59Z</time></trkpt><trkpt lat="43.40811380019009" lon="11.175443848214044"><ele>227.0</ele><time>2026-04-09T09:13:00Z</time></trkpt><trkpt lat="43.40820204780331" lon="11.175147382959809"><ele>226.0</ele><time>2026-04-09T09:13:01Z</time></trkpt><trkpt lat="43.40828902130265" lon="11.174851700930349"><ele>225.0</ele><time>2026-04-09T09:13:02Z</time></trkpt><trkpt lat="43.408375483743264" lon="11.174550399331912"><ele>225.0</ele><time>2026-04-09T09:13:03Z</time></trkpt><trkpt lat="43.40846085025775" lon="11.174249907716224"><ele>225.0</ele><time>2026-04-09T09:13:04Z</time></trkpt><trkpt lat="43.4085453027164" lon="11.173958453349439"><ele>224.33333333333331</ele><time>2026-04-09T09:13:05Z</time></trkpt><trkpt lat="43.408627517511825" lon="11.17368342355253"><ele>223.66666666666666</ele><time>2026-04-09T09:13:06Z</time></trkpt><trkpt lat="43.40870417826708" lon="11.173415224802651"><ele>223.0</ele><time>2026-04-09T09:13:07Z</time></trkpt><trkpt lat="43.408775930353414" lon="11.173155693139469"><ele>223.0</ele><time>2026-04-09T09:13:08Z</time></trkpt><trkpt lat="43.408846664401786" lon="11.172906163741056"><ele>223.0</ele><time>2026-04-09T09:13:09Z</time></trkpt><trkpt lat="43.40892508527828" lon="11.172642716165324"><ele>223.0</ele><time>2026-04-09T09:13:10Z</time></trkpt><trkpt lat="43.40900289071617" lon="11.172378118707666"><ele>223.33333333333331</ele><time>2026-04-09T09:13:11Z</time></trkpt><trkpt lat="43.40908168534606" lon="11.172112980615207"><ele>223.66666666666669</ele><time>2026-04-09T09:13:12Z</time></trkpt><trkpt lat="43.40916608924577" lon="11.171839501974352"><ele>224.0</ele><time>2026-04-09T09:13:13Z</time></trkpt><trkpt lat="43.40924638455689" lon="11.17156751548295"><ele>224.0</ele><time>2026-04-09T09:13:14Z</time></trkpt><trkpt lat="43.4093251516905" lon="11.171292472683238"><ele>224.0</ele><time>2026-04-09T09:13:15Z</time></trkpt><trkpt lat="43.40940075510009" lon="11.171009575472388"><ele>224.0</ele><time>2026-04-09T09:13:16Z</time></trkpt><trkpt lat="43.409480550469084" lon="11.170711329577482"><ele>223.0</ele><time>2026-04-09T09:13:17Z</time></trkpt><trkpt lat="43.409563787573376" lon="11.170409270877853"><ele>222.0</ele><time>2026-04-09T09:13:18Z</time></trkpt><trkpt lat="43.40964905377278" lon="11.170108191873815"><ele>223.0</ele><time>2026-04-09T09:13:19Z</time></trkpt><trkpt lat="43.409739922474856" lon="11.16979860450133"><ele>224.0</ele><time>2026-04-09T09:13:20Z</time></trkpt><trkpt lat="43.40982380401119" lon="11.169502589344328"><ele>224.0</ele><time>2026-04-09T09:13:21Z</time></trkpt><trkpt lat="43.40991078807221" lon="11.16920637418123"><ele>224.0</ele><time>2026-04-09T09:13:22Z</time></trkpt><trkpt lat="43.40999968162934" lon="11.16890521651287"><ele>224.5</ele><time>2026-04-09T09:13:23Z</time></trkpt><trkpt lat="43.4100883561148" lon="11.168600419577041"><ele>225.0</ele><time>2026-04-09T09:13:24Z</time></trkpt><trkpt lat="43.41017911634393" lon="11.168296387865936"><ele>226.0</ele><time>2026-04-09T09:13:25Z</time></trkpt><trkpt lat="43.41027018696707" lon="11.167996596479565"><ele>227.0</ele><time>2026-04-09T09:13:26Z</time></trkpt><trkpt lat="43.410362447740816" lon="11.167709484820131"><ele>227.0</ele><time>2026-04-09T09:13:27Z</time></trkpt><trkpt lat="43.410452003277065" lon="11.167437167238843"><ele>227.0</ele><time>2026-04-09T09:13:28Z</time></trkpt><trkpt lat="43.410545505805416" lon="11.167163552611708"><ele>227.0</ele><time>2026-04-09T09:13:29Z</time></trkpt><trkpt lat="43.41064488046527" lon="11.16687990723673"><ele>227.0</ele><time>2026-04-09T09:13:30Z</time></trkpt><trkpt lat="43.41075957185482" lon="11.166545446661111"><ele>227.0</ele><time>2026-04-09T09:13:31Z</time></trkpt><trkpt lat="43.410915837144806" lon="11.166187338470227"><ele>227.0</ele><time>2026-04-09T09:13:32Z</time></trkpt><trkpt lat="43.41107768544581" lon="11.165812071514212"><ele>227.0</ele><time>2026-04-09T09:13:33Z</time></trkpt><trkpt lat="43.41119283096488" lon="11.165533110012756"><ele>227.0</ele><time>2026-04-09T09:13:34.999Z</time></trkpt><trkpt lat="43.41131239283601" lon="11.16528195359359"><ele>227.0</ele><time>2026-04-09T09:13:35.999Z</time></trkpt><trkpt lat="43.411434765027366" lon="11.165043532243422"><ele>227.0</ele><time>2026-04-09T09:13:36.999Z</time></trkpt><trkpt lat="43.41156191248866" lon="11.16480759561462"><ele>226.66666666666669</ele><time>2026-04-09T09:13:37.999Z</time></trkpt><trkpt lat="43.41169440489226" lon="11.164577880356715"><ele>226.33333333333331</ele><time>2026-04-09T09:13:38.999Z</time></trkpt><trkpt lat="43.41182932801092" lon="11.164353309950561"><ele>226.0</ele><time>2026-04-09T09:13:39.999Z</time></trkpt><trkpt lat="43.41196192703196" lon="11.164135884905958"><ele>226.0</ele><time>2026-04-09T09:13:40.999Z</time></trkpt><trkpt lat="43.4121045921957" lon="11.163924622690672"><ele>226.0</ele><time>2026-04-09T09:13:41.999Z</time></trkpt><trkpt lat="43.412247461049375" lon="11.163716654030525"><ele>226.0</ele><time>2026-04-09T09:13:42.999Z</time></trkpt><trkpt lat="43.41239126727185" lon="11.163518125717864"><ele>225.66666666666666</ele><time>2026-04-09T09:13:43.999Z</time></trkpt><trkpt lat="43.41253505730901" lon="11.163315173555647"><ele>225.33333333333331</ele><time>2026-04-09T09:13:44.999Z</time></trkpt><trkpt lat="43.41268017094247" lon="11.163111371045483"><ele>225.0</ele><time>2026-04-09T09:13:45.999Z</time></trkpt><trkpt lat="43.4128181507032" lon="11.162910069091524"><ele>225.33333333333331</ele><time>2026-04-09T09:13:46.999Z</time></trkpt><trkpt lat="43.412958359303246" lon="11.162709939741974"><ele>225.66666666666666</ele><time>2026-04-09T09:13:47.999Z</time></trkpt><trkpt lat="43.41309969159298" lon="11.162507232499662"><ele>226.0</ele><time>2026-04-09T09:13:48.999Z</time></trkpt><trkpt lat="43.41323890007192" lon="11.162298819768761"><ele>226.66666666666666</ele><time>2026-04-09T09:13:49.999Z</time></trkpt><trkpt lat="43.413381002623936" lon="11.16210040027989"><ele>227.33333333333331</ele><time>2026-04-09T09:13:50.999Z</time></trkpt><trkpt lat="43.413519992763405" lon="11.161900889677678"><ele>228.0</ele><time>2026-04-09T09:13:51.999Z</time></trkpt><trkpt lat="43.413664497773574" lon="11.161698837814175"><ele>228.0</ele><time>2026-04-09T09:13:52.999Z</time></trkpt><trkpt lat="43.41380806851314" lon="11.161497944057636"><ele>228.0</ele><time>2026-04-09T09:13:53.999Z</time></trkpt><trkpt lat="43.41394948302131" lon="11.161291752722278"><ele>228.0</ele><time>2026-04-09T09:13:54.999Z</time></trkpt><trkpt lat="43.41409172742503" lon="11.161094762032967"><ele>228.33333333333331</ele><time>2026-04-09T09:13:55.999Z</time></trkpt><trkpt lat="43.4142344682533" lon="11.160881645374918"><ele>228.66666666666666</ele><time>2026-04-09T09:13:56.999Z</time></trkpt><trkpt lat="43.41437861791344" lon="11.16067429073324"><ele>229.0</ele><time>2026-04-09T09:13:57.999Z</time></trkpt><trkpt lat="43.4145194849613" lon="11.160459787530025"><ele>229.0</ele><time>2026-04-09T09:13:58.999Z</time></trkpt><trkpt lat="43.4146689941835" lon="11.160256383634213"><ele>229.0</ele><time>2026-04-09T09:13:59.999Z</time></trkpt><trkpt lat="43.41482115363371" lon="11.160030498291237"><ele>229.0</ele><time>2026-04-09T09:14:00.999Z</time></trkpt><trkpt lat="43.41498974997464" lon="11.159785864482645"><ele>229.5</ele><time>2026-04-09T09:14:01.999Z</time></trkpt><trkpt lat="43.41517378909259" lon="11.159521444821973"><ele>230.0</ele><time>2026-04-09T09:14:02.999Z</time></trkpt><trkpt lat="43.4153625461926" lon="11.159243872843295"><ele>230.5</ele><time>2026-04-09T09:14:03.999Z</time></trkpt><trkpt lat="43.41553421221428" lon="11.158988132692086"><ele>231.0</ele><time>2026-04-09T09:14:04.999Z</time></trkpt><trkpt lat="43.415704101507146" lon="11.158733283487784"><ele>231.0</ele><time>2026-04-09T09:14:05.999Z</time></trkpt><trkpt lat="43.415879578003604" lon="11.158471270762279"><ele>231.0</ele><time>2026-04-09T09:14:06.999Z</time></trkpt><trkpt lat="43.41605659001319" lon="11.158213850509167"><ele>231.5</ele><time>2026-04-09T09:14:07.999Z</time></trkpt><trkpt lat="43.41622515720857" lon="11.157972851553914"><ele>232.0</ele><time>2026-04-09T09:14:08.999Z</time></trkpt><trkpt lat="43.41638864183381" lon="11.157746789146737"><ele>232.0</ele><time>2026-04-09T09:14:09.999Z</time></trkpt><trkpt lat="43.41655764533471" lon="11.157521877700592"><ele>232.0</ele><time>2026-04-09T09:14:10.999Z</time></trkpt><trkpt lat="43.41672667195293" lon="11.1572940152742"><ele>233.0</ele><time>2026-04-09T09:14:11.999Z</time></trkpt><trkpt lat="43.41689336550516" lon="11.15706189667935"><ele>234.0</ele><time>2026-04-09T09:14:12.999Z</time></trkpt><trkpt lat="43.417058198707814" lon="11.156829274180877"><ele>234.0</ele><time>2026-04-09T09:14:13.999Z</time></trkpt><trkpt lat="43.417212054486065" lon="11.156605527187706"><ele>234.0</ele><time>2026-04-09T09:14:14.999Z</time></trkpt><trkpt lat="43.417361582142625" lon="11.156388419951908"><ele>234.0</ele><time>2026-04-09T09:14:16Z</time></trkpt><trkpt lat="43.417514783708505" lon="11.156164403158861"><ele>233.0</ele><time>2026-04-09T09:14:17Z</time></trkpt><trkpt lat="43.41767069050902" lon="11.155935314274444"><ele>232.0</ele><time>2026-04-09T09:14:18Z</time></trkpt><trkpt lat="43.41783064846777" lon="11.155705102372057"><ele>230.5</ele><time>2026-04-09T09:14:19Z</time></trkpt><trkpt lat="43.417991138707166" lon="11.155478983649557"><ele>229.0</ele><time>2026-04-09T09:14:20Z</time></trkpt><trkpt lat="43.41815360458565" lon="11.155244741516675"><ele>229.0</ele><time>2026-04-09T09:14:21Z</time></trkpt><trkpt lat="43.41831622671944" lon="11.155012795836486"><ele>229.0</ele><time>2026-04-09T09:14:22Z</time></trkpt><trkpt lat="43.418478845901916" lon="11.154774421051036"><ele>228.5</ele><time>2026-04-09T09:14:23Z</time></trkpt><trkpt lat="43.41864310881372" lon="11.154535014262967"><ele>228.0</ele><time>2026-04-09T09:14:24Z</time></trkpt><trkpt lat="43.41880844726226" lon="11.15429350779881"><ele>226.0</ele><time>2026-04-09T09:14:25Z</time></trkpt><trkpt lat="43.418971419548456" lon="11.15406140768438"><ele>224.0</ele><time>2026-04-09T09:14:26Z</time></trkpt><trkpt lat="43.419130061683376" lon="11.153838518384337"><ele>223.0</ele><time>2026-04-09T09:14:27Z</time></trkpt><trkpt lat="43.41928780793103" lon="11.153613250332388"><ele>222.0</ele><time>2026-04-09T09:14:28Z</time></trkpt><trkpt lat="43.41944619343601" lon="11.153379809760242"><ele>223.5</ele><time>2026-04-09T09:14:29Z</time></trkpt><trkpt lat="43.41960723767718" lon="11.153150883773405"><ele>225.0</ele><time>2026-04-09T09:14:30Z</time></trkpt><trkpt lat="43.41976733165528" lon="11.15291137670317"><ele>220.0</ele><time>2026-04-09T09:14:31Z</time></trkpt><trkpt lat="43.41992885106523" lon="11.152681919343355"><ele>215.0</ele><time>2026-04-09T09:14:32Z</time></trkpt><trkpt lat="43.42009132251146" lon="11.15244745494368"><ele>215.5</ele><time>2026-04-09T09:14:33Z</time></trkpt><trkpt lat="43.42025427394879" lon="11.152214620766003"><ele>216.0</ele><time>2026-04-09T09:14:34Z</time></trkpt><trkpt lat="43.420418157888" lon="11.151977979198813"><ele>212.0</ele><time>2026-04-09T09:14:35Z</time></trkpt><trkpt lat="43.420581456113446" lon="11.151741672727137"><ele>208.0</ele><time>2026-04-09T09:14:36Z</time></trkpt><trkpt lat="43.42074571465072" lon="11.151506588878755"><ele>208.0</ele><time>2026-04-09T09:14:37Z</time></trkpt><trkpt lat="43.42090967855624" lon="11.15127223784035"><ele>208.0</ele><time>2026-04-09T09:14:38Z</time></trkpt><trkpt lat="43.421073272320136" lon="11.1510344113311"><ele>208.0</ele><time>2026-04-09T09:14:39Z</time></trkpt><trkpt lat="43.421235018680356" lon="11.150802648327195"><ele>208.0</ele><time>2026-04-09T09:14:40Z</time></trkpt><trkpt lat="43.421393248777306" lon="11.150577634434518"><ele>204.0</ele><time>2026-04-09T09:14:41Z</time></trkpt><trkpt lat="43.42155052344725" lon="11.150348424391117"><ele>200.0</ele><time>2026-04-09T09:14:42Z</time></trkpt><trkpt lat="43.421710252243436" lon="11.15011772916976"><ele>200.0</ele><time>2026-04-09T09:14:43Z</time></trkpt><trkpt lat="43.4218731330133" lon="11.149880047431818"><ele>200.0</ele><time>2026-04-09T09:14:44Z</time></trkpt><trkpt lat="43.42203858818411" lon="11.149644405403475"><ele>194.0</ele><time>2026-04-09T09:14:45Z</time></trkpt><trkpt lat="43.422206195124225" lon="11.149405649438346"><ele>188.0</ele><time>2026-04-09T09:14:46Z</time></trkpt><trkpt lat="43.42236842178601" lon="11.149162054096388"><ele>188.5</ele><time>2026-04-09T09:14:47Z</time></trkpt><trkpt lat="43.42253436657142" lon="11.148928014992656"><ele>189.0</ele><time>2026-04-09T09:14:48Z</time></trkpt><trkpt lat="43.42269527401932" lon="11.148702449041132"><ele>189.0</ele><time>2026-04-09T09:14:49Z</time></trkpt><trkpt lat="43.422849249580395" lon="11.148477354516228"><ele>189.0</ele><time>2026-04-09T09:14:50Z</time></trkpt><trkpt lat="43.423007304989056" lon="11.148250601101092"><ele>184.5</ele><time>2026-04-09T09:14:51Z</time></trkpt><trkpt lat="43.42316945756712" lon="11.148022085837427"><ele>180.0</ele><time>2026-04-09T09:14:52Z</time></trkpt><trkpt lat="43.42333205245086" lon="11.14779116707215"><ele>180.0</ele><time>2026-04-09T09:14:53Z</time></trkpt><trkpt lat="43.423497455625515" lon="11.147552236405252"><ele>180.0</ele><time>2026-04-09T09:14:54Z</time></trkpt><trkpt lat="43.42365795757269" lon="11.147315335260108"><ele>180.5</ele><time>2026-04-09T09:14:55Z</time></trkpt><trkpt lat="43.42381156304063" lon="11.147082456991361"><ele>181.0</ele><time>2026-04-09T09:14:56Z</time></trkpt><trkpt lat="43.4239674545524" lon="11.146863927118796"><ele>178.0</ele><time>2026-04-09T09:14:57Z</time></trkpt><trkpt lat="43.424123423495935" lon="11.146646624480393"><ele>175.0</ele><time>2026-04-09T09:14:58Z</time></trkpt><trkpt lat="43.424288357536525" lon="11.146428659067364"><ele>175.0</ele><time>2026-04-09T09:14:59Z</time></trkpt><trkpt lat="43.42446031363204" lon="11.146212122841412"><ele>175.0</ele><time>2026-04-09T09:15:00Z</time></trkpt><trkpt lat="43.42464253151204" lon="11.146003751891223"><ele>172.5</ele><time>2026-04-09T09:15:01Z</time></trkpt><trkpt lat="43.424835671544336" lon="11.145804182642278"><ele>170.0</ele><time>2026-04-09T09:15:02Z</time></trkpt><trkpt lat="43.425042575901706" lon="11.145617010102223"><ele>170.0</ele><time>2026-04-09T09:15:03Z</time></trkpt><trkpt lat="43.42525884607813" lon="11.145442700702846"><ele>170.0</ele><time>2026-04-09T09:15:04Z</time></trkpt><trkpt lat="43.4254796353447" lon="11.145276937308015"><ele>166.0</ele><time>2026-04-09T09:15:05Z</time></trkpt><trkpt lat="43.425702789891716" lon="11.145126070765851"><ele>162.0</ele><time>2026-04-09T09:15:06Z</time></trkpt><trkpt lat="43.42591872095962" lon="11.144996542687437"><ele>162.0</ele><time>2026-04-09T09:15:07Z</time></trkpt><trkpt lat="43.42613896548231" lon="11.144891049432657"><ele>162.0</ele><time>2026-04-09T09:15:08Z</time></trkpt><trkpt lat="43.42637289664791" lon="11.144791209600255"><ele>163.5</ele><time>2026-04-09T09:15:09Z</time></trkpt><trkpt lat="43.4266236283898" lon="11.144700501066515"><ele>165.0</ele><time>2026-04-09T09:15:10Z</time></trkpt><trkpt lat="43.42687356889001" lon="11.144618989992123"><ele>165.0</ele><time>2026-04-09T09:15:11Z</time></trkpt><trkpt lat="43.427109948957394" lon="11.144557928714875"><ele>165.0</ele><time>2026-04-09T09:15:12Z</time></trkpt><trkpt lat="43.42734192536892" lon="11.144514142017009"><ele>163.5</ele><time>2026-04-09T09:15:13Z</time></trkpt><trkpt lat="43.42757550012021" lon="11.144483534746014"><ele>162.0</ele><time>2026-04-09T09:15:14Z</time></trkpt><trkpt lat="43.42780634625116" lon="11.14445838293141"><ele>161.33333333333334</ele><time>2026-04-09T09:15:15Z</time></trkpt><trkpt lat="43.428033163244045" lon="11.144450368388474"><ele>160.66666666666669</ele><time>2026-04-09T09:15:16Z</time></trkpt><trkpt lat="43.42825361174188" lon="11.144451252440057"><ele>160.0</ele><time>2026-04-09T09:15:17Z</time></trkpt><trkpt lat="43.428481246297814" lon="11.144450289669315"><ele>160.0</ele><time>2026-04-09T09:15:18Z</time></trkpt><trkpt lat="43.42871197314347" lon="11.144447356519345"><ele>160.0</ele><time>2026-04-09T09:15:19Z</time></trkpt><trkpt lat="43.42893749746792" lon="11.144444402196289"><ele>159.0</ele><time>2026-04-09T09:15:20Z</time></trkpt><trkpt lat="43.42914882639837" lon="11.144434672551963"><ele>158.0</ele><time>2026-04-09T09:15:21Z</time></trkpt><trkpt lat="43.42936062565605" lon="11.14442728144072"><ele>157.0</ele><time>2026-04-09T09:15:22Z</time></trkpt><trkpt lat="43.42959192444148" lon="11.144424224702245"><ele>155.0</ele><time>2026-04-09T09:15:23Z</time></trkpt><trkpt lat="43.42982025377381" lon="11.144421515251103"><ele>153.0</ele><time>2026-04-09T09:15:24Z</time></trkpt><trkpt lat="43.43005705994617" lon="11.14441973227572"><ele>153.0</ele><time>2026-04-09T09:15:25Z</time></trkpt><trkpt lat="43.43029424327639" lon="11.144416370475177"><ele>153.0</ele><time>2026-04-09T09:15:26Z</time></trkpt><trkpt lat="43.43053810518917" lon="11.144411881686556"><ele>150.0</ele><time>2026-04-09T09:15:27Z</time></trkpt><trkpt lat="43.430779371052445" lon="11.144412890573093"><ele>147.0</ele><time>2026-04-09T09:15:28Z</time></trkpt><trkpt lat="43.43100896910322" lon="11.144419397743983"><ele>147.0</ele><time>2026-04-09T09:15:29Z</time></trkpt><trkpt lat="43.431226927730876" lon="11.144437178851698"><ele>147.0</ele><time>2026-04-09T09:15:30Z</time></trkpt><trkpt lat="43.43144573921504" lon="11.144460877124862"><ele>147.0</ele><time>2026-04-09T09:15:31Z</time></trkpt><trkpt lat="43.431656558521475" lon="11.14450124362459"><ele>146.0</ele><time>2026-04-09T09:15:32Z</time></trkpt><trkpt lat="43.431863095625516" lon="11.14456151910348"><ele>145.0</ele><time>2026-04-09T09:15:33Z</time></trkpt><trkpt lat="43.43207324451435" lon="11.144646672408442"><ele>144.0</ele><time>2026-04-09T09:15:34Z</time></trkpt><trkpt lat="43.43227826308442" lon="11.144744692238737"><ele>144.0</ele><time>2026-04-09T09:15:35Z</time></trkpt><trkpt lat="43.432478578966716" lon="11.144845146896467"><ele>144.0</ele><time>2026-04-09T09:15:36Z</time></trkpt><trkpt lat="43.432676185392445" lon="11.144947159158871"><ele>144.0</ele><time>2026-04-09T09:15:37Z</time></trkpt><trkpt lat="43.43289110537164" lon="11.145056725760544"><ele>139.0</ele><time>2026-04-09T09:15:37.999Z</time></trkpt><trkpt lat="43.433105447358265" lon="11.145158812794614"><ele>134.0</ele><time>2026-04-09T09:15:38.999Z</time></trkpt><trkpt lat="43.43331780723942" lon="11.14526360458686"><ele>134.0</ele><time>2026-04-09T09:15:39.999Z</time></trkpt><trkpt lat="43.4335293350144" lon="11.145370425180786"><ele>134.0</ele><time>2026-04-09T09:15:40.999Z</time></trkpt><trkpt lat="43.43373835338893" lon="11.145474334139003"><ele>134.0</ele><time>2026-04-09T09:15:41.999Z</time></trkpt><trkpt lat="43.433944582527765" lon="11.145579942060019"><ele>135.66666666666666</ele><time>2026-04-09T09:15:42.999Z</time></trkpt><trkpt lat="43.43415359981125" lon="11.145686705713818"><ele>137.33333333333334</ele><time>2026-04-09T09:15:43.999Z</time></trkpt><trkpt lat="43.43436119420124" lon="11.145798692309778"><ele>139.0</ele><time>2026-04-09T09:15:44.999Z</time></trkpt><trkpt lat="43.43456733884356" lon="11.14590592584501"><ele>139.33333333333334</ele><time>2026-04-09T09:15:45.999Z</time></trkpt><trkpt lat="43.43477315369879" lon="11.14601201775861"><ele>139.66666666666666</ele><time>2026-04-09T09:15:46.999Z</time></trkpt><trkpt lat="43.43497785121922" lon="11.146116690297557"><ele>140.0</ele><time>2026-04-09T09:15:47.999Z</time></trkpt><trkpt lat="43.43518897482084" lon="11.146220800757677"><ele>140.0</ele><time>2026-04-09T09:15:48.999Z</time></trkpt><trkpt lat="43.43539689258324" lon="11.146323283512004"><ele>140.0</ele><time>2026-04-09T09:15:49.999Z</time></trkpt><trkpt lat="43.43560591482715" lon="11.14642775398754"><ele>140.0</ele><time>2026-04-09T09:15:50.999Z</time></trkpt><trkpt lat="43.43580998631087" lon="11.146525321372899"><ele>143.66666666666666</ele><time>2026-04-09T09:15:51.999Z</time></trkpt><trkpt lat="43.43600068220927" lon="11.146621987140227"><ele>147.33333333333334</ele><time>2026-04-09T09:15:52.999Z</time></trkpt><trkpt lat="43.43620538764264" lon="11.146732957208508"><ele>151.0</ele><time>2026-04-09T09:15:53.999Z</time></trkpt><trkpt lat="43.43640942939608" lon="11.146843965945498"><ele>151.66666666666669</ele><time>2026-04-09T09:15:54.999Z</time></trkpt><trkpt lat="43.436617165081685" lon="11.146953119338553"><ele>152.33333333333334</ele><time>2026-04-09T09:15:55.999Z</time></trkpt><trkpt lat="43.436826574206215" lon="11.147070687085414"><ele>153.0</ele><time>2026-04-09T09:15:56.999Z</time></trkpt><trkpt lat="43.437037446400346" lon="11.14719552341611"><ele>153.5</ele><time>2026-04-09T09:15:57.999Z</time></trkpt><trkpt lat="43.43724834297275" lon="11.147329841558893"><ele>154.0</ele><time>2026-04-09T09:15:58.999Z</time></trkpt><trkpt lat="43.43745527303502" lon="11.147480854581291"><ele>155.33333333333334</ele><time>2026-04-09T09:15:59.999Z</time></trkpt><trkpt lat="43.437643846008875" lon="11.147631302478104"><ele>156.66666666666666</ele><time>2026-04-09T09:16:00.999Z</time></trkpt><trkpt lat="43.437820395798944" lon="11.147800328867335"><ele>158.0</ele><time>2026-04-09T09:16:01.999Z</time></trkpt><trkpt lat="43.43799718194259" lon="11.147991362884095"><ele>158.0</ele><time>2026-04-09T09:16:02.999Z</time></trkpt><trkpt lat="43.43816540399355" lon="11.148192415755389"><ele>158.0</ele><time>2026-04-09T09:16:03.999Z</time></trkpt><trkpt lat="43.43833956121141" lon="11.148394663167878"><ele>160.0</ele><time>2026-04-09T09:16:04.999Z</time></trkpt><trkpt lat="43.43851565995442" lon="11.14859742530631"><ele>162.0</ele><time>2026-04-09T09:16:05.999Z</time></trkpt><trkpt lat="43.43869725970774" lon="11.148799212047106"><ele>161.33333333333334</ele><time>2026-04-09T09:16:06.999Z</time></trkpt><trkpt lat="43.438883543235136" lon="11.148985720186907"><ele>160.66666666666669</ele><time>2026-04-09T09:16:07.999Z</time></trkpt><trkpt lat="43.4390649112664" lon="11.149148358563485"><ele>160.0</ele><time>2026-04-09T09:16:08.999Z</time></trkpt><trkpt lat="43.43924597931693" lon="11.149292364375105"><ele>160.0</ele><time>2026-04-09T09:16:09.999Z</time></trkpt><trkpt lat="43.439436613692514" lon="11.149430150532021"><ele>160.0</ele><time>2026-04-09T09:16:10.999Z</time></trkpt><trkpt lat="43.43964566669678" lon="11.14955955927873"><ele>160.0</ele><time>2026-04-09T09:16:11.999Z</time></trkpt><trkpt lat="43.43984250783097" lon="11.149672461101646"><ele>160.0</ele><time>2026-04-09T09:16:12.999Z</time></trkpt><trkpt lat="43.440051816391474" lon="11.149775662628944"><ele>160.0</ele><time>2026-04-09T09:16:13.999Z</time></trkpt><trkpt lat="43.440266740966315" lon="11.149864767775599"><ele>160.0</ele><time>2026-04-09T09:16:14.999Z</time></trkpt><trkpt lat="43.44048429968624" lon="11.149911419656949"><ele>153.0</ele><time>2026-04-09T09:16:15.999Z</time></trkpt><trkpt lat="43.44071073567638" lon="11.149971264321538"><ele>146.0</ele><time>2026-04-09T09:16:16.999Z</time></trkpt><trkpt lat="43.440937402734534" lon="11.150013952248345"><ele>146.0</ele><time>2026-04-09T09:16:17.999Z</time></trkpt><trkpt lat="43.44117080982898" lon="11.150038063781269"><ele>146.0</ele><time>2026-04-09T09:16:18.999Z</time></trkpt><trkpt lat="43.441405847893456" lon="11.150045610281401"><ele>144.5</ele><time>2026-04-09T09:16:19.999Z</time></trkpt><trkpt lat="43.44163704261508" lon="11.150044660086555"><ele>143.0</ele><time>2026-04-09T09:16:20.999Z</time></trkpt><trkpt lat="43.44187156775184" lon="11.150036154081482"><ele>143.0</ele><time>2026-04-09T09:16:22Z</time></trkpt><trkpt lat="43.442100408270676" lon="11.150026490863553"><ele>143.0</ele><time>2026-04-09T09:16:23Z</time></trkpt><trkpt lat="43.442321736936506" lon="11.150020450197292"><ele>140.0</ele><time>2026-04-09T09:16:24Z</time></trkpt><trkpt lat="43.44255211823077" lon="11.150016763003427"><ele>137.0</ele><time>2026-04-09T09:16:25Z</time></trkpt><trkpt lat="43.44278745882389" lon="11.150012945827662"><ele>134.5</ele><time>2026-04-09T09:16:26Z</time></trkpt><trkpt lat="43.44302239811279" lon="11.15001005198916"><ele>132.0</ele><time>2026-04-09T09:16:27Z</time></trkpt><trkpt lat="43.443245377859505" lon="11.150006994081341"><ele>132.0</ele><time>2026-04-09T09:16:28Z</time></trkpt><trkpt lat="43.443467628267086" lon="11.149998757606761"><ele>132.0</ele><time>2026-04-09T09:16:29Z</time></trkpt><trkpt lat="43.443691721081365" lon="11.149996454356161"><ele>132.0</ele><time>2026-04-09T09:16:30Z</time></trkpt><trkpt lat="43.44392075194278" lon="11.149982598247709"><ele>130.66666666666666</ele><time>2026-04-09T09:16:31Z</time></trkpt><trkpt lat="43.44414328475765" lon="11.149976583639509"><ele>129.33333333333331</ele><time>2026-04-09T09:16:32Z</time></trkpt><trkpt lat="43.444361384091884" lon="11.14997731452234"><ele>128.0</ele><time>2026-04-09T09:16:33Z</time></trkpt><trkpt lat="43.44458628315855" lon="11.149998427758392"><ele>127.0</ele><time>2026-04-09T09:16:34Z</time></trkpt><trkpt lat="43.44480923904688" lon="11.150032478033872"><ele>126.0</ele><time>2026-04-09T09:16:35Z</time></trkpt><trkpt lat="43.44503191098962" lon="11.150083155771027"><ele>126.0</ele><time>2026-04-09T09:16:36Z</time></trkpt><trkpt lat="43.44524370881457" lon="11.150146419536688"><ele>126.0</ele><time>2026-04-09T09:16:37Z</time></trkpt><trkpt lat="43.44544926278371" lon="11.150218770913808"><ele>126.0</ele><time>2026-04-09T09:16:38Z</time></trkpt><trkpt lat="43.44565281501963" lon="11.150313065296299"><ele>127.5</ele><time>2026-04-09T09:16:39Z</time></trkpt><trkpt lat="43.44586790224219" lon="11.150424809197968"><ele>129.0</ele><time>2026-04-09T09:16:40Z</time></trkpt><trkpt lat="43.44607426244107" lon="11.15054399364097"><ele>129.0</ele><time>2026-04-09T09:16:41Z</time></trkpt><trkpt lat="43.446263270059625" lon="11.150673718292534"><ele>129.0</ele><time>2026-04-09T09:16:42Z</time></trkpt><trkpt lat="43.44646115046034" lon="11.150821289641733"><ele>129.0</ele><time>2026-04-09T09:16:43Z</time></trkpt><trkpt lat="43.44664313320215" lon="11.15098449648905"><ele>126.33333333333334</ele><time>2026-04-09T09:16:44Z</time></trkpt><trkpt lat="43.44682479625191" lon="11.151160693578053"><ele>123.66666666666667</ele><time>2026-04-09T09:16:45Z</time></trkpt><trkpt lat="43.44699332527241" lon="11.151342587893264"><ele>121.0</ele><time>2026-04-09T09:16:46Z</time></trkpt><trkpt lat="43.447168053648966" lon="11.151534794542034"><ele>119.66666666666667</ele><time>2026-04-09T09:16:47Z</time></trkpt><trkpt lat="43.44734422742748" lon="11.151722932346651"><ele>118.33333333333334</ele><time>2026-04-09T09:16:48Z</time></trkpt><trkpt lat="43.44751987080357" lon="11.151912068358548"><ele>117.0</ele><time>2026-04-09T09:16:49Z</time></trkpt><trkpt lat="43.447696603571266" lon="11.152091804872708"><ele>117.0</ele><time>2026-04-09T09:16:50Z</time></trkpt><trkpt lat="43.447872849819504" lon="11.152275961644824"><ele>117.0</ele><time>2026-04-09T09:16:51Z</time></trkpt><trkpt lat="43.44805389518481" lon="11.152447341060238"><ele>117.0</ele><time>2026-04-09T09:16:52Z</time></trkpt><trkpt lat="43.448238019632164" lon="11.15262349735028"><ele>116.0</ele><time>2026-04-09T09:16:53Z</time></trkpt><trkpt lat="43.44842731624159" lon="11.15279004197428"><ele>115.0</ele><time>2026-04-09T09:16:54Z</time></trkpt><trkpt lat="43.4486180485558" lon="11.152952629874287"><ele>114.0</ele><time>2026-04-09T09:16:55Z</time></trkpt><trkpt lat="43.44881886974978" lon="11.153110334991108"><ele>117.5</ele><time>2026-04-09T09:16:56Z</time></trkpt><trkpt lat="43.449017659649385" lon="11.153258627819714"><ele>121.0</ele><time>2026-04-09T09:16:57Z</time></trkpt><trkpt lat="43.44922299120976" lon="11.153399739830187"><ele>121.0</ele><time>2026-04-09T09:16:58Z</time></trkpt><trkpt lat="43.44943021179067" lon="11.15353440432255"><ele>121.0</ele><time>2026-04-09T09:16:59Z</time></trkpt><trkpt lat="43.44964064573322" lon="11.15366200187669"><ele>122.5</ele><time>2026-04-09T09:17:00Z</time></trkpt><trkpt lat="43.44985049715879" lon="11.153778274563555"><ele>124.0</ele><time>2026-04-09T09:17:01Z</time></trkpt><trkpt lat="43.450065121959724" lon="11.153899638916444"><ele>124.0</ele><time>2026-04-09T09:17:02Z</time></trkpt><trkpt lat="43.45028283790007" lon="11.154009849035411"><ele>124.0</ele><time>2026-04-09T09:17:03Z</time></trkpt><trkpt lat="43.45050158792176" lon="11.154123353897326"><ele>122.5</ele><time>2026-04-09T09:17:04Z</time></trkpt><trkpt lat="43.45072485364504" lon="11.15423150811253"><ele>121.0</ele><time>2026-04-09T09:17:05Z</time></trkpt><trkpt lat="43.45094414791104" lon="11.154333543654518"><ele>121.0</ele><time>2026-04-09T09:17:06Z</time></trkpt><trkpt lat="43.45115606728133" lon="11.154454227550605"><ele>121.0</ele><time>2026-04-09T09:17:07Z</time></trkpt><trkpt lat="43.45137492671229" lon="11.154566433691352"><ele>118.33333333333334</ele><time>2026-04-09T09:17:08Z</time></trkpt><trkpt lat="43.451582630494926" lon="11.154673818593126"><ele>115.66666666666666</ele><time>2026-04-09T09:17:09Z</time></trkpt><trkpt lat="43.45179106843303" lon="11.15478484970685"><ele>113.0</ele><time>2026-04-09T09:17:10Z</time></trkpt><trkpt lat="43.45200639172443" lon="11.154903666792475"><ele>112.33333333333333</ele><time>2026-04-09T09:17:11Z</time></trkpt><trkpt lat="43.452217380474" lon="11.155018005104731"><ele>111.66666666666666</ele><time>2026-04-09T09:17:12Z</time></trkpt><trkpt lat="43.45241567855517" lon="11.155140186957386"><ele>111.0</ele><time>2026-04-09T09:17:13Z</time></trkpt><trkpt lat="43.45260588925379" lon="11.15526249673825"><ele>111.0</ele><time>2026-04-09T09:17:14Z</time></trkpt><trkpt lat="43.45280012262861" lon="11.155402027126879"><ele>111.0</ele><time>2026-04-09T09:17:15Z</time></trkpt><trkpt lat="43.453000905698495" lon="11.155566776240098"><ele>111.0</ele><time>2026-04-09T09:17:16Z</time></trkpt><trkpt lat="43.45319247883736" lon="11.15574408837214"><ele>111.0</ele><time>2026-04-09T09:17:17Z</time></trkpt><trkpt lat="43.45337904439754" lon="11.155935988330505"><ele>111.0</ele><time>2026-04-09T09:17:18Z</time></trkpt><trkpt lat="43.45355197840785" lon="11.156120780673154"><ele>111.0</ele><time>2026-04-09T09:17:19Z</time></trkpt><trkpt lat="43.45370902978962" lon="11.156308234273027"><ele>111.0</ele><time>2026-04-09T09:17:20Z</time></trkpt><trkpt lat="43.45385883617569" lon="11.156497657981104"><ele>110.66666666666666</ele><time>2026-04-09T09:17:21Z</time></trkpt><trkpt lat="43.454011425602" lon="11.15670555568226"><ele>110.33333333333333</ele><time>2026-04-09T09:17:22Z</time></trkpt><trkpt lat="43.454166360869756" lon="11.156920943278335"><ele>110.0</ele><time>2026-04-09T09:17:23Z</time></trkpt><trkpt lat="43.45432398909392" lon="11.157139730208536"><ele>110.0</ele><time>2026-04-09T09:17:24Z</time></trkpt><trkpt lat="43.45448296410634" lon="11.15735662124539"><ele>110.0</ele><time>2026-04-09T09:17:25Z</time></trkpt><trkpt lat="43.45463424891701" lon="11.157562456771743"><ele>110.0</ele><time>2026-04-09T09:17:26Z</time></trkpt><trkpt lat="43.4547910038147" lon="11.157771235371666"><ele>109.0</ele><time>2026-04-09T09:17:27Z</time></trkpt><trkpt lat="43.45495319074078" lon="11.15799340650403"><ele>108.0</ele><time>2026-04-09T09:17:28Z</time></trkpt><trkpt lat="43.45511839887629" lon="11.158216706306163"><ele>112.0</ele><time>2026-04-09T09:17:29Z</time></trkpt><trkpt lat="43.45528406076734" lon="11.15844550066945"><ele>116.0</ele><time>2026-04-09T09:17:30Z</time></trkpt><trkpt lat="43.45545183252816" lon="11.158675980041425"><ele>114.5</ele><time>2026-04-09T09:17:31Z</time></trkpt><trkpt lat="43.455624235749866" lon="11.158911407742313"><ele>113.0</ele><time>2026-04-09T09:17:32Z</time></trkpt><trkpt lat="43.455802061321464" lon="11.15914417881617"><ele>113.0</ele><time>2026-04-09T09:17:33Z</time></trkpt><trkpt lat="43.45597736773371" lon="11.159385345951016"><ele>113.0</ele><time>2026-04-09T09:17:34Z</time></trkpt><trkpt lat="43.456152385305245" lon="11.159629410186534"><ele>111.0</ele><time>2026-04-09T09:17:35Z</time></trkpt><trkpt lat="43.45632738092353" lon="11.15988116993319"><ele>109.0</ele><time>2026-04-09T09:17:36Z</time></trkpt><trkpt lat="43.456510058250636" lon="11.1601232508472"><ele>109.0</ele><time>2026-04-09T09:17:37Z</time></trkpt><trkpt lat="43.45668130865987" lon="11.160355736061696"><ele>109.0</ele><time>2026-04-09T09:17:38Z</time></trkpt><trkpt lat="43.456841318350826" lon="11.160575698460187"><ele>109.5</ele><time>2026-04-09T09:17:39Z</time></trkpt><trkpt lat="43.4570020906106" lon="11.160796087326728"><ele>110.0</ele><time>2026-04-09T09:17:40Z</time></trkpt><trkpt lat="43.457160959941206" lon="11.161024547853057"><ele>109.0</ele><time>2026-04-09T09:17:41Z</time></trkpt><trkpt lat="43.45733371703052" lon="11.16124772579633"><ele>108.0</ele><time>2026-04-09T09:17:42Z</time></trkpt><trkpt lat="43.45749962873126" lon="11.161475960121292"><ele>108.33333333333334</ele><time>2026-04-09T09:17:43Z</time></trkpt><trkpt lat="43.457662878553414" lon="11.161699520327467"><ele>108.66666666666667</ele><time>2026-04-09T09:17:44Z</time></trkpt><trkpt lat="43.45781869892227" lon="11.16191047754474"><ele>109.0</ele><time>2026-04-09T09:17:45Z</time></trkpt><trkpt lat="43.45797600690657" lon="11.162108573592679"><ele>107.66666666666667</ele><time>2026-04-09T09:17:46Z</time></trkpt><trkpt lat="43.45814838016439" lon="11.162299975906068"><ele>106.33333333333334</ele><time>2026-04-09T09:17:47Z</time></trkpt><trkpt lat="43.458324582945956" lon="11.162483625555208"><ele>105.0</ele><time>2026-04-09T09:17:48Z</time></trkpt><trkpt lat="43.45851414134184" lon="11.162658699901566"><ele>104.5</ele><time>2026-04-09T09:17:49Z</time></trkpt><trkpt lat="43.458713395335934" lon="11.162810881221564"><ele>104.0</ele><time>2026-04-09T09:17:50Z</time></trkpt><trkpt lat="43.45892617070512" lon="11.162954283840795"><ele>106.0</ele><time>2026-04-09T09:17:51Z</time></trkpt><trkpt lat="43.45914062555499" lon="11.16309046731381"><ele>108.0</ele><time>2026-04-09T09:17:52Z</time></trkpt><trkpt lat="43.459373229054094" lon="11.163212090299327"><ele>108.5</ele><time>2026-04-09T09:17:52.999Z</time></trkpt><trkpt lat="43.4595898126607" lon="11.163325260634114"><ele>109.0</ele><time>2026-04-09T09:17:53.999Z</time></trkpt><trkpt lat="43.45982089243997" lon="11.163412727567719"><ele>108.0</ele><time>2026-04-09T09:17:54.999Z</time></trkpt><trkpt lat="43.46004697456322" lon="11.16348327473954"><ele>107.0</ele><time>2026-04-09T09:17:55.999Z</time></trkpt><trkpt lat="43.460261845876985" lon="11.163536535518642"><ele>107.66666666666666</ele><time>2026-04-09T09:17:56.999Z</time></trkpt><trkpt lat="43.4604726070595" lon="11.163575799233849"><ele>108.33333333333334</ele><time>2026-04-09T09:17:57.999Z</time></trkpt><trkpt lat="43.46067586491395" lon="11.163607796514476"><ele>109.0</ele><time>2026-04-09T09:17:58.999Z</time></trkpt><trkpt lat="43.46088572366348" lon="11.163618237512273"><ele>109.0</ele><time>2026-04-09T09:17:59.999Z</time></trkpt><trkpt lat="43.4610888055493" lon="11.163609426276672"><ele>109.0</ele><time>2026-04-09T09:18:00.999Z</time></trkpt><trkpt lat="43.46129033115128" lon="11.163589126460375"><ele>109.0</ele><time>2026-04-09T09:18:01.999Z</time></trkpt><trkpt lat="43.46151438387046" lon="11.163561543596238"><ele>109.0</ele><time>2026-04-09T09:18:02.999Z</time></trkpt><trkpt lat="43.46173106360919" lon="11.16354507040698"><ele>109.0</ele><time>2026-04-09T09:18:03.999Z</time></trkpt><trkpt lat="43.46194572973686" lon="11.163531186665967"><ele>109.0</ele><time>2026-04-09T09:18:04.999Z</time></trkpt><trkpt lat="43.462152582196524" lon="11.163521125541816"><ele>109.0</ele><time>2026-04-09T09:18:05.999Z</time></trkpt><trkpt lat="43.462352318995784" lon="11.163506827194324"><ele>109.0</ele><time>2026-04-09T09:18:06.999Z</time></trkpt><trkpt lat="43.46255500187903" lon="11.16349015119762"><ele>109.0</ele><time>2026-04-09T09:18:07.999Z</time></trkpt><trkpt lat="43.46276579861279" lon="11.163459927274266"><ele>109.0</ele><time>2026-04-09T09:18:08.999Z</time></trkpt><trkpt lat="43.46297897107982" lon="11.163415565745856"><ele>109.0</ele><time>2026-04-09T09:18:09.999Z</time></trkpt><trkpt lat="43.46319390625881" lon="11.163354228119386"><ele>109.0</ele><time>2026-04-09T09:18:10.999Z</time></trkpt><trkpt lat="43.46341153555706" lon="11.163277656437646"><ele>108.33333333333334</ele><time>2026-04-09T09:18:11.999Z</time></trkpt><trkpt lat="43.463622037369824" lon="11.16319559016073"><ele>107.66666666666666</ele><time>2026-04-09T09:18:12.999Z</time></trkpt><trkpt lat="43.463838826917545" lon="11.163102851185533"><ele>107.0</ele><time>2026-04-09T09:18:13.999Z</time></trkpt><trkpt lat="43.46405759001033" lon="11.163002223737745"><ele>107.0</ele><time>2026-04-09T09:18:14.999Z</time></trkpt><trkpt lat="43.46428123872993" lon="11.162884308419114"><ele>107.0</ele><time>2026-04-09T09:18:15.999Z</time></trkpt><trkpt lat="43.46450317028543" lon="11.162761904322457"><ele>107.5</ele><time>2026-04-09T09:18:16.999Z</time></trkpt><trkpt lat="43.46472687889995" lon="11.162625930836017"><ele>108.0</ele><time>2026-04-09T09:18:17.999Z</time></trkpt><trkpt lat="43.46494419609969" lon="11.162473571369146"><ele>105.5</ele><time>2026-04-09T09:18:18.999Z</time></trkpt><trkpt lat="43.46516213986921" lon="11.16231414812835"><ele>103.0</ele><time>2026-04-09T09:18:19.999Z</time></trkpt><trkpt lat="43.465356595399484" lon="11.162141113778684"><ele>106.0</ele><time>2026-04-09T09:18:20.999Z</time></trkpt><trkpt lat="43.46555123485966" lon="11.161969642115917"><ele>109.0</ele><time>2026-04-09T09:18:21.999Z</time></trkpt><trkpt lat="43.46574236476959" lon="11.161786367086728"><ele>109.0</ele><time>2026-04-09T09:18:22.999Z</time></trkpt><trkpt lat="43.465930886071895" lon="11.161592781784883"><ele>109.0</ele><time>2026-04-09T09:18:23.999Z</time></trkpt><trkpt lat="43.46611224025532" lon="11.161388491041318"><ele>107.0</ele><time>2026-04-09T09:18:24.999Z</time></trkpt><trkpt lat="43.46629304341211" lon="11.161176742635005"><ele>105.0</ele><time>2026-04-09T09:18:25.999Z</time></trkpt><trkpt lat="43.466453329030955" lon="11.16095212474495"><ele>105.0</ele><time>2026-04-09T09:18:26.999Z</time></trkpt><trkpt lat="43.46661419329381" lon="11.16072044686299"><ele>105.0</ele><time>2026-04-09T09:18:28Z</time></trkpt><trkpt lat="43.46676925252185" lon="11.160483297336928"><ele>104.0</ele><time>2026-04-09T09:18:29Z</time></trkpt><trkpt lat="43.46691606234283" lon="11.160231573365431"><ele>103.0</ele><time>2026-04-09T09:18:30Z</time></trkpt><trkpt lat="43.46706008958551" lon="11.159971451133009"><ele>102.0</ele><time>2026-04-09T09:18:31Z</time></trkpt><trkpt lat="43.46719834268711" lon="11.159702867412339"><ele>101.0</ele><time>2026-04-09T09:18:32Z</time></trkpt><trkpt lat="43.467330151700345" lon="11.15942211634149"><ele>101.0</ele><time>2026-04-09T09:18:33Z</time></trkpt><trkpt lat="43.467461115487424" lon="11.15913585547692"><ele>101.0</ele><time>2026-04-09T09:18:34Z</time></trkpt><trkpt lat="43.467595448987375" lon="11.158847458668061"><ele>101.0</ele><time>2026-04-09T09:18:35Z</time></trkpt><trkpt lat="43.46773077051431" lon="11.15855603152439"><ele>101.0</ele><time>2026-04-09T09:18:36Z</time></trkpt><trkpt lat="43.46786756601708" lon="11.1582585494604"><ele>103.0</ele><time>2026-04-09T09:18:37Z</time></trkpt><trkpt lat="43.46800859924713" lon="11.157965092212265"><ele>105.0</ele><time>2026-04-09T09:18:38Z</time></trkpt><trkpt lat="43.46814404084621" lon="11.157674366335938"><ele>105.0</ele><time>2026-04-09T09:18:39Z</time></trkpt><trkpt lat="43.46827257240799" lon="11.157407396735328"><ele>105.0</ele><time>2026-04-09T09:18:40Z</time></trkpt><trkpt lat="43.468407107580695" lon="11.157142654538065"><ele>104.0</ele><time>2026-04-09T09:18:41Z</time></trkpt><trkpt lat="43.468543419309654" lon="11.156881790154678"><ele>103.0</ele><time>2026-04-09T09:18:42Z</time></trkpt><trkpt lat="43.46867883484998" lon="11.156620240370527"><ele>103.0</ele><time>2026-04-09T09:18:43Z</time></trkpt><trkpt lat="43.46881912009777" lon="11.156368484670175"><ele>103.0</ele><time>2026-04-09T09:18:44Z</time></trkpt><trkpt lat="43.468965316306615" lon="11.156131224095695"><ele>103.0</ele><time>2026-04-09T09:18:45Z</time></trkpt><trkpt lat="43.46912180880791" lon="11.155906952661525"><ele>103.0</ele><time>2026-04-09T09:18:46Z</time></trkpt><trkpt lat="43.46928311849205" lon="11.155696431521733"><ele>103.0</ele><time>2026-04-09T09:18:47Z</time></trkpt><trkpt lat="43.469446124829794" lon="11.155486495785741"><ele>103.0</ele><time>2026-04-09T09:18:48Z</time></trkpt><trkpt lat="43.469609315811134" lon="11.155279369899299"><ele>103.0</ele><time>2026-04-09T09:18:49Z</time></trkpt><trkpt lat="43.46978035120945" lon="11.155077140403321"><ele>103.0</ele><time>2026-04-09T09:18:50Z</time></trkpt><trkpt lat="43.46995619912177" lon="11.15488930152102"><ele>103.5</ele><time>2026-04-09T09:18:51Z</time></trkpt><trkpt lat="43.47014098532793" lon="11.154708793794425"><ele>104.0</ele><time>2026-04-09T09:18:52Z</time></trkpt><trkpt lat="43.47033180424437" lon="11.15453644185179"><ele>105.0</ele><time>2026-04-09T09:18:53Z</time></trkpt><trkpt lat="43.47052915226018" lon="11.154373098989701"><ele>106.0</ele><time>2026-04-09T09:18:54Z</time></trkpt><trkpt lat="43.47073030881147" lon="11.154219572143017"><ele>106.0</ele><time>2026-04-09T09:18:55Z</time></trkpt><trkpt lat="43.47093526662495" lon="11.154076583218686"><ele>106.0</ele><time>2026-04-09T09:18:56Z</time></trkpt><trkpt lat="43.47114002155036" lon="11.153941682249556"><ele>106.0</ele><time>2026-04-09T09:18:57Z</time></trkpt><trkpt lat="43.47134752557858" lon="11.15381947377961"><ele>106.0</ele><time>2026-04-09T09:18:58Z</time></trkpt><trkpt lat="43.471558140740235" lon="11.153711600848462"><ele>106.0</ele><time>2026-04-09T09:18:59Z</time></trkpt><trkpt lat="43.47177135610717" lon="11.153610456788918"><ele>106.0</ele><time>2026-04-09T09:19:00Z</time></trkpt><trkpt lat="43.471984437748" lon="11.153511645218245"><ele>107.33333333333334</ele><time>2026-04-09T09:19:01Z</time></trkpt><trkpt lat="43.47219733154194" lon="11.153416630903278"><ele>108.66666666666666</ele><time>2026-04-09T09:19:02Z</time></trkpt><trkpt lat="43.472405318235104" lon="11.153322744110568"><ele>110.0</ele><time>2026-04-09T09:19:03Z</time></trkpt><trkpt lat="43.47260866640243" lon="11.153227376971353"><ele>109.33333333333333</ele><time>2026-04-09T09:19:04Z</time></trkpt><trkpt lat="43.4728112901555" lon="11.153126890818859"><ele>108.66666666666666</ele><time>2026-04-09T09:19:05Z</time></trkpt><trkpt lat="43.473006041935946" lon="11.153030358412439"><ele>108.0</ele><time>2026-04-09T09:19:06Z</time></trkpt><trkpt lat="43.47321623557433" lon="11.152930118668433"><ele>108.0</ele><time>2026-04-09T09:19:07Z</time></trkpt><trkpt lat="43.473426115872535" lon="11.15282909998354"><ele>108.0</ele><time>2026-04-09T09:19:08Z</time></trkpt><trkpt lat="43.47363878439451" lon="11.152725225126284"><ele>108.0</ele><time>2026-04-09T09:19:09Z</time></trkpt><trkpt lat="43.4738524247159" lon="11.152621697543303"><ele>111.0</ele><time>2026-04-09T09:19:10Z</time></trkpt><trkpt lat="43.474068268478575" lon="11.152523658172578"><ele>114.0</ele><time>2026-04-09T09:19:11Z</time></trkpt><trkpt lat="43.47428261508252" lon="11.152430447758045"><ele>116.0</ele><time>2026-04-09T09:19:12Z</time></trkpt><trkpt lat="43.47450546234695" lon="11.15233799075856"><ele>118.0</ele><time>2026-04-09T09:19:13Z</time></trkpt><trkpt lat="43.47473138994958" lon="11.152261131684797"><ele>118.0</ele><time>2026-04-09T09:19:14Z</time></trkpt><trkpt lat="43.474960874473865" lon="11.152205766508281"><ele>118.0</ele><time>2026-04-09T09:19:15Z</time></trkpt><trkpt lat="43.475195167204305" lon="11.152161851351986"><ele>118.0</ele><time>2026-04-09T09:19:16Z</time></trkpt><trkpt lat="43.475431271218234" lon="11.15211285554948"><ele>118.0</ele><time>2026-04-09T09:19:17Z</time></trkpt><trkpt lat="43.47566680622137" lon="11.152045712981426"><ele>121.0</ele><time>2026-04-09T09:19:18Z</time></trkpt><trkpt lat="43.47590023805287" lon="11.151958368291321"><ele>124.0</ele><time>2026-04-09T09:19:19Z</time></trkpt><trkpt lat="43.47613117864038" lon="11.151857540583928"><ele>128.5</ele><time>2026-04-09T09:19:20Z</time></trkpt><trkpt lat="43.476358129492546" lon="11.15174229717301"><ele>133.0</ele><time>2026-04-09T09:19:21Z</time></trkpt><trkpt lat="43.47658172614911" lon="11.151616084668266"><ele>133.0</ele><time>2026-04-09T09:19:22Z</time></trkpt><trkpt lat="43.47679324265833" lon="11.151492431383533"><ele>133.0</ele><time>2026-04-09T09:19:23Z</time></trkpt><trkpt lat="43.47699748796896" lon="11.15137733795704"><ele>133.0</ele><time>2026-04-09T09:19:24Z</time></trkpt><trkpt lat="43.47721045999661" lon="11.151256614511741"><ele>133.0</ele><time>2026-04-09T09:19:25Z</time></trkpt><trkpt lat="43.47742396765346" lon="11.151138407374782"><ele>133.0</ele><time>2026-04-09T09:19:26Z</time></trkpt><trkpt lat="43.477643782154274" lon="11.151016126274728"><ele>133.0</ele><time>2026-04-09T09:19:27Z</time></trkpt><trkpt lat="43.4778643583123" lon="11.150883145319922"><ele>133.5</ele><time>2026-04-09T09:19:28Z</time></trkpt><trkpt lat="43.4780816786836" lon="11.150755846613405"><ele>134.0</ele><time>2026-04-09T09:19:29Z</time></trkpt><trkpt lat="43.478308813800076" lon="11.150626989117796"><ele>130.5</ele><time>2026-04-09T09:19:30Z</time></trkpt><trkpt lat="43.47854358395716" lon="11.15050820119227"><ele>127.0</ele><time>2026-04-09T09:19:31Z</time></trkpt><trkpt lat="43.4787762912343" lon="11.150378600582135"><ele>123.5</ele><time>2026-04-09T09:19:32Z</time></trkpt><trkpt lat="43.47898942025979" lon="11.150247262546632"><ele>120.0</ele><time>2026-04-09T09:19:33Z</time></trkpt><trkpt lat="43.47919158147239" lon="11.150131084435783"><ele>120.0</ele><time>2026-04-09T09:19:34Z</time></trkpt><trkpt lat="43.47939822427013" lon="11.15004642790925"><ele>120.0</ele><time>2026-04-09T09:19:35Z</time></trkpt><trkpt lat="43.47959695542307" lon="11.149984871159573"><ele>120.0</ele><time>2026-04-09T09:19:36Z</time></trkpt><trkpt lat="43.47981975864574" lon="11.149921960932097"><ele>118.5</ele><time>2026-04-09T09:19:37Z</time></trkpt><trkpt lat="43.48005346309306" lon="11.14987678766938"><ele>117.0</ele><time>2026-04-09T09:19:38Z</time></trkpt><trkpt lat="43.480278910339024" lon="11.14984792851685"><ele>122.0</ele><time>2026-04-09T09:19:39Z</time></trkpt><trkpt lat="43.480507695876746" lon="11.149839162445705"><ele>127.0</ele><time>2026-04-09T09:19:40Z</time></trkpt><trkpt lat="43.48074504296254" lon="11.149845152802031"><ele>127.0</ele><time>2026-04-09T09:19:41Z</time></trkpt><trkpt lat="43.48098175650534" lon="11.149859548556012"><ele>127.0</ele><time>2026-04-09T09:19:42Z</time></trkpt><trkpt lat="43.48122941897905" lon="11.149892132487745"><ele>126.5</ele><time>2026-04-09T09:19:43Z</time></trkpt><trkpt lat="43.48146813731324" lon="11.149944266228506"><ele>126.0</ele><time>2026-04-09T09:19:44Z</time></trkpt><trkpt lat="43.481702810511614" lon="11.150025561432244"><ele>126.0</ele><time>2026-04-09T09:19:45Z</time></trkpt><trkpt lat="43.481929181477476" lon="11.150123176564462"><ele>126.0</ele><time>2026-04-09T09:19:46Z</time></trkpt><trkpt lat="43.48214049528997" lon="11.150231901168155"><ele>124.0</ele><time>2026-04-09T09:19:47Z</time></trkpt><trkpt lat="43.482347837065895" lon="11.150348803135575"><ele>122.0</ele><time>2026-04-09T09:19:48Z</time></trkpt><trkpt lat="43.48255279174833" lon="11.150481725625387"><ele>122.0</ele><time>2026-04-09T09:19:48.999Z</time></trkpt><trkpt lat="43.482743273033165" lon="11.150623033061464"><ele>122.0</ele><time>2026-04-09T09:19:49.999Z</time></trkpt><trkpt lat="43.48293297969139" lon="11.150784249833459"><ele>122.0</ele><time>2026-04-09T09:19:50.999Z</time></trkpt><trkpt lat="43.48312388040492" lon="11.150956708792277"><ele>120.5</ele><time>2026-04-09T09:19:51.999Z</time></trkpt><trkpt lat="43.48331448117352" lon="11.15114092853712"><ele>119.0</ele><time>2026-04-09T09:19:52.999Z</time></trkpt><trkpt lat="43.483505000417395" lon="11.15133060605891"><ele>119.0</ele><time>2026-04-09T09:19:53.999Z</time></trkpt><trkpt lat="43.48369865431312" lon="11.151521844801414"><ele>119.0</ele><time>2026-04-09T09:19:54.999Z</time></trkpt><trkpt lat="43.48388282496694" lon="11.151701769319573"><ele>115.0</ele><time>2026-04-09T09:19:55.999Z</time></trkpt><trkpt lat="43.48406701743018" lon="11.15188375383118"><ele>111.0</ele><time>2026-04-09T09:19:56.999Z</time></trkpt><trkpt lat="43.484251294576154" lon="11.152068756597084"><ele>111.0</ele><time>2026-04-09T09:19:57.999Z</time></trkpt><trkpt lat="43.48443463783283" lon="11.15224987611939"><ele>111.0</ele><time>2026-04-09T09:19:58.999Z</time></trkpt><trkpt lat="43.484619042941" lon="11.152430313841053"><ele>110.66666666666666</ele><time>2026-04-09T09:19:59.999Z</time></trkpt><trkpt lat="43.484794532864974" lon="11.152615371178793"><ele>110.33333333333333</ele><time>2026-04-09T09:20:00.999Z</time></trkpt><trkpt lat="43.4849703995654" lon="11.152802415663103"><ele>110.0</ele><time>2026-04-09T09:20:01.999Z</time></trkpt><trkpt lat="43.4851413551347" lon="11.152991408381776"><ele>110.0</ele><time>2026-04-09T09:20:02.999Z</time></trkpt><trkpt lat="43.48529797426721" lon="11.15317461394859"><ele>110.0</ele><time>2026-04-09T09:20:03.999Z</time></trkpt><trkpt lat="43.48544183251851" lon="11.153358698000448"><ele>110.0</ele><time>2026-04-09T09:20:04.999Z</time></trkpt><trkpt lat="43.48558476103733" lon="11.153559615407612"><ele>111.0</ele><time>2026-04-09T09:20:05.999Z</time></trkpt><trkpt lat="43.485729068730514" lon="11.15377622196409"><ele>112.0</ele><time>2026-04-09T09:20:06.999Z</time></trkpt><trkpt lat="43.48587174716763" lon="11.154007885221564"><ele>113.0</ele><time>2026-04-09T09:20:07.999Z</time></trkpt><trkpt lat="43.48601241289523" lon="11.15426664125277"><ele>113.0</ele><time>2026-04-09T09:20:08.999Z</time></trkpt><trkpt lat="43.486141493153724" lon="11.154530382456437"><ele>113.0</ele><time>2026-04-09T09:20:09.999Z</time></trkpt><trkpt lat="43.48626194363903" lon="11.154810328226201"><ele>115.0</ele><time>2026-04-09T09:20:10.999Z</time></trkpt><trkpt lat="43.48637275578702" lon="11.15510111490556"><ele>117.0</ele><time>2026-04-09T09:20:11.999Z</time></trkpt><trkpt lat="43.48647455076573" lon="11.15539544411941"><ele>117.0</ele><time>2026-04-09T09:20:12.999Z</time></trkpt><trkpt lat="43.48656120006028" lon="11.155677750031172"><ele>117.0</ele><time>2026-04-09T09:20:13.999Z</time></trkpt><trkpt lat="43.48662745765629" lon="11.155965273588077"><ele>117.0</ele><time>2026-04-09T09:20:14.999Z</time></trkpt><trkpt lat="43.486684530872516" lon="11.156262469806999"><ele>119.0</ele><time>2026-04-09T09:20:15.999Z</time></trkpt><trkpt lat="43.48673220444545" lon="11.15656421463289"><ele>121.0</ele><time>2026-04-09T09:20:16.999Z</time></trkpt><trkpt lat="43.48677317037749" lon="11.156870971151431"><ele>121.0</ele><time>2026-04-09T09:20:17.999Z</time></trkpt><trkpt lat="43.486807191483784" lon="11.157186032400482"><ele>121.0</ele><time>2026-04-09T09:20:18.999Z</time></trkpt><trkpt lat="43.48684194938854" lon="11.15750393005012"><ele>121.0</ele><time>2026-04-09T09:20:19.999Z</time></trkpt><trkpt lat="43.486883889000424" lon="11.157825056893069"><ele>121.0</ele><time>2026-04-09T09:20:20.999Z</time></trkpt><trkpt lat="43.486931033810166" lon="11.158144034183648"><ele>120.5</ele><time>2026-04-09T09:20:21.999Z</time></trkpt><trkpt lat="43.48697477438202" lon="11.158467522815089"><ele>120.0</ele><time>2026-04-09T09:20:22.999Z</time></trkpt><trkpt lat="43.487015830519425" lon="11.158777997023984"><ele>119.0</ele><time>2026-04-09T09:20:23.999Z</time></trkpt><trkpt lat="43.48705483963637" lon="11.159075816097566"><ele>118.0</ele><time>2026-04-09T09:20:24.999Z</time></trkpt><trkpt lat="43.48709149184526" lon="11.15937397176939"><ele>117.0</ele><time>2026-04-09T09:20:25.999Z</time></trkpt><trkpt lat="43.487131190159715" lon="11.159676394643721"><ele>120.0</ele><time>2026-04-09T09:20:26.999Z</time></trkpt><trkpt lat="43.48716806953872" lon="11.15997469246887"><ele>123.0</ele><time>2026-04-09T09:20:27.999Z</time></trkpt><trkpt lat="43.48720631806111" lon="11.160274951357689"><ele>126.0</ele><time>2026-04-09T09:20:28.999Z</time></trkpt><trkpt lat="43.48724429711819" lon="11.160572279969365"><ele>126.33333333333334</ele><time>2026-04-09T09:20:29.999Z</time></trkpt><trkpt lat="43.487286418218936" lon="11.160871039703228"><ele>126.66666666666667</ele><time>2026-04-09T09:20:30.999Z</time></trkpt><trkpt lat="43.48732827470309" lon="11.161170198766825"><ele>127.0</ele><time>2026-04-09T09:20:31.999Z</time></trkpt><trkpt lat="43.48737096433544" lon="11.161469962351648"><ele>126.33333333333334</ele><time>2026-04-09T09:20:32.999Z</time></trkpt><trkpt lat="43.48741168603668" lon="11.161771401554532"><ele>125.66666666666666</ele><time>2026-04-09T09:20:34Z</time></trkpt><trkpt lat="43.487450439397186" lon="11.162075680115711"><ele>125.0</ele><time>2026-04-09T09:20:35Z</time></trkpt><trkpt lat="43.48748793991902" lon="11.16238012127674"><ele>125.0</ele><time>2026-04-09T09:20:36Z</time></trkpt><trkpt lat="43.487525599301385" lon="11.16267771196811"><ele>125.0</ele><time>2026-04-09T09:20:37Z</time></trkpt><trkpt lat="43.48756504409333" lon="11.16297385235599"><ele>125.0</ele><time>2026-04-09T09:20:38Z</time></trkpt><trkpt lat="43.48760300245522" lon="11.16327074682754"><ele>124.66666666666666</ele><time>2026-04-09T09:20:39Z</time></trkpt><trkpt lat="43.487642048175715" lon="11.16356763720938"><ele>124.33333333333334</ele><time>2026-04-09T09:20:40Z</time></trkpt><trkpt lat="43.48768225281038" lon="11.163865109390933"><ele>124.0</ele><time>2026-04-09T09:20:41Z</time></trkpt><trkpt lat="43.48772272975587" lon="11.16415972558416"><ele>124.0</ele><time>2026-04-09T09:20:42Z</time></trkpt><trkpt lat="43.4877632734124" lon="11.164455505705128"><ele>124.0</ele><time>2026-04-09T09:20:43Z</time></trkpt><trkpt lat="43.487801854103836" lon="11.164755948664855"><ele>124.0</ele><time>2026-04-09T09:20:44Z</time></trkpt><trkpt lat="43.48783819448155" lon="11.165056953663598"><ele>124.0</ele><time>2026-04-09T09:20:45Z</time></trkpt><trkpt lat="43.48787495490325" lon="11.165357906263772"><ele>124.0</ele><time>2026-04-09T09:20:46Z</time></trkpt><trkpt lat="43.48791755029181" lon="11.165657560744355"><ele>124.0</ele><time>2026-04-09T09:20:47Z</time></trkpt><trkpt lat="43.48796302058223" lon="11.165952084594569"><ele>125.33333333333334</ele><time>2026-04-09T09:20:48Z</time></trkpt><trkpt lat="43.48801289073306" lon="11.166247321211149"><ele>126.66666666666666</ele><time>2026-04-09T09:20:49Z</time></trkpt><trkpt lat="43.48806793519974" lon="11.16654155046987"><ele>128.0</ele><time>2026-04-09T09:20:50Z</time></trkpt><trkpt lat="43.48812408215976" lon="11.166834887652717"><ele>129.0</ele><time>2026-04-09T09:20:51Z</time></trkpt><trkpt lat="43.488185264065805" lon="11.167124684203477"><ele>130.0</ele><time>2026-04-09T09:20:52Z</time></trkpt><trkpt lat="43.488248887974045" lon="11.167411206453698"><ele>131.0</ele><time>2026-04-09T09:20:53Z</time></trkpt><trkpt lat="43.488316200140936" lon="11.167696913218105"><ele>131.0</ele><time>2026-04-09T09:20:54Z</time></trkpt><trkpt lat="43.488385717835826" lon="11.167980245393645"><ele>131.0</ele><time>2026-04-09T09:20:55Z</time></trkpt><trkpt lat="43.48845746050741" lon="11.168264793132229"><ele>131.0</ele><time>2026-04-09T09:20:56Z</time></trkpt><trkpt lat="43.48853074874418" lon="11.168528437075857"><ele>131.0</ele><time>2026-04-09T09:20:57Z</time></trkpt><trkpt lat="43.48860509439316" lon="11.1688135123575"><ele>131.0</ele><time>2026-04-09T09:20:58Z</time></trkpt><trkpt lat="43.488686176431194" lon="11.169089297953956"><ele>131.0</ele><time>2026-04-09T09:20:59Z</time></trkpt><trkpt lat="43.488766895913166" lon="11.169356851924904"><ele>133.33333333333331</ele><time>2026-04-09T09:21:00Z</time></trkpt><trkpt lat="43.48885198301049" lon="11.169619510571986"><ele>135.66666666666666</ele><time>2026-04-09T09:21:01Z</time></trkpt><trkpt lat="43.488944979241865" lon="11.169878433009039"><ele>138.0</ele><time>2026-04-09T09:21:02Z</time></trkpt><trkpt lat="43.48903840441225" lon="11.170142086415106"><ele>138.0</ele><time>2026-04-09T09:21:03Z</time></trkpt><trkpt lat="43.489133163879735" lon="11.170411749543527"><ele>138.0</ele><time>2026-04-09T09:21:04Z</time></trkpt><trkpt lat="43.48923136837378" lon="11.170680494870448"><ele>138.0</ele><time>2026-04-09T09:21:05Z</time></trkpt><trkpt lat="43.48933203515421" lon="11.17094583962581"><ele>137.66666666666666</ele><time>2026-04-09T09:21:06Z</time></trkpt><trkpt lat="43.48943581727313" lon="11.171208070749993"><ele>137.33333333333331</ele><time>2026-04-09T09:21:07Z</time></trkpt><trkpt lat="43.48954674959115" lon="11.171464896909278"><ele>137.0</ele><time>2026-04-09T09:21:08Z</time></trkpt><trkpt lat="43.489658949031934" lon="11.171716060378996"><ele>137.33333333333331</ele><time>2026-04-09T09:21:09Z</time></trkpt><trkpt lat="43.489771746460114" lon="11.171974363086825"><ele>137.66666666666666</ele><time>2026-04-09T09:21:10Z</time></trkpt><trkpt lat="43.48989240992515" lon="11.172228040982802"><ele>138.0</ele><time>2026-04-09T09:21:11Z</time></trkpt><trkpt lat="43.49002234590523" lon="11.172484810145423"><ele>138.0</ele><time>2026-04-09T09:21:12Z</time></trkpt><trkpt lat="43.490154593070116" lon="11.172745381448358"><ele>138.0</ele><time>2026-04-09T09:21:13Z</time></trkpt><trkpt lat="43.49028772384658" lon="11.17300272603879"><ele>137.0</ele><time>2026-04-09T09:21:14Z</time></trkpt><trkpt lat="43.490420880091996" lon="11.173260209583182"><ele>136.0</ele><time>2026-04-09T09:21:15Z</time></trkpt><trkpt lat="43.490557557772114" lon="11.173520488532757"><ele>138.5</ele><time>2026-04-09T09:21:16Z</time></trkpt><trkpt lat="43.490691821936935" lon="11.17378217157533"><ele>141.0</ele><time>2026-04-09T09:21:17Z</time></trkpt><trkpt lat="43.490828487183556" lon="11.174049165930288"><ele>141.5</ele><time>2026-04-09T09:21:18Z</time></trkpt><trkpt lat="43.490970248976915" lon="11.174314375644192"><ele>142.0</ele><time>2026-04-09T09:21:19Z</time></trkpt><trkpt lat="43.49110926759389" lon="11.174579827371398"><ele>142.0</ele><time>2026-04-09T09:21:20Z</time></trkpt><trkpt lat="43.49124644993003" lon="11.174847622268329"><ele>142.0</ele><time>2026-04-09T09:21:21Z</time></trkpt><trkpt lat="43.49138461277586" lon="11.175115183747375"><ele>145.5</ele><time>2026-04-09T09:21:22Z</time></trkpt><trkpt lat="43.49152537387211" lon="11.175386376773032"><ele>149.0</ele><time>2026-04-09T09:21:23Z</time></trkpt><trkpt lat="43.491663619168" lon="11.17565077148961"><ele>149.0</ele><time>2026-04-09T09:21:24Z</time></trkpt><trkpt lat="43.49179539296048" lon="11.175909662862987"><ele>149.0</ele><time>2026-04-09T09:21:25Z</time></trkpt><trkpt lat="43.49192475464381" lon="11.176149144996891"><ele>149.0</ele><time>2026-04-09T09:21:26Z</time></trkpt><trkpt lat="43.492055366157764" lon="11.176390197046407"><ele>152.0</ele><time>2026-04-09T09:21:27Z</time></trkpt><trkpt lat="43.49219329672808" lon="11.176629035235521"><ele>155.0</ele><time>2026-04-09T09:21:28Z</time></trkpt><trkpt lat="43.4923347804258" lon="11.176863291048548"><ele>158.0</ele><time>2026-04-09T09:21:29Z</time></trkpt><trkpt lat="43.492486358700624" lon="11.17708814386695"><ele>158.0</ele><time>2026-04-09T09:21:30Z</time></trkpt><trkpt lat="43.49264342163349" lon="11.17729860121028"><ele>158.0</ele><time>2026-04-09T09:21:31Z</time></trkpt><trkpt lat="43.49280609977333" lon="11.177502271207008"><ele>158.0</ele><time>2026-04-09T09:21:32Z</time></trkpt><trkpt lat="43.492977382918276" lon="11.177699127408113"><ele>157.66666666666666</ele><time>2026-04-09T09:21:33Z</time></trkpt><trkpt lat="43.49314999240858" lon="11.177873380398573"><ele>157.33333333333334</ele><time>2026-04-09T09:21:34Z</time></trkpt><trkpt lat="43.49333337105136" lon="11.178042050685722"><ele>157.0</ele><time>2026-04-09T09:21:35Z</time></trkpt><trkpt lat="43.49351355010849" lon="11.178202904401628"><ele>157.0</ele><time>2026-04-09T09:21:36Z</time></trkpt><trkpt lat="43.49370775884971" lon="11.17835845270421"><ele>157.0</ele><time>2026-04-09T09:21:37Z</time></trkpt><trkpt lat="43.493906611326764" lon="11.178502939938708"><ele>157.0</ele><time>2026-04-09T09:21:38Z</time></trkpt><trkpt lat="43.49411109040768" lon="11.17863691725166"><ele>156.0</ele><time>2026-04-09T09:21:39Z</time></trkpt><trkpt lat="43.494322813739494" lon="11.178759053446125"><ele>155.0</ele><time>2026-04-09T09:21:40Z</time></trkpt><trkpt lat="43.49454393317154" lon="11.178876032918666"><ele>157.5</ele><time>2026-04-09T09:21:41Z</time></trkpt><trkpt lat="43.494762815322034" lon="11.178994066252177"><ele>160.0</ele><time>2026-04-09T09:21:42Z</time></trkpt><trkpt lat="43.49499121190233" lon="11.17911456547446"><ele>161.0</ele><time>2026-04-09T09:21:43Z</time></trkpt><trkpt lat="43.4952141831801" lon="11.179241741889475"><ele>162.0</ele><time>2026-04-09T09:21:44Z</time></trkpt><trkpt lat="43.49543562967543" lon="11.179380170534088"><ele>162.0</ele><time>2026-04-09T09:21:45Z</time></trkpt><trkpt lat="43.49565815068041" lon="11.17952410610586"><ele>162.0</ele><time>2026-04-09T09:21:46Z</time></trkpt><trkpt lat="43.49587768865198" lon="11.179672598697026"><ele>162.0</ele><time>2026-04-09T09:21:47Z</time></trkpt><trkpt lat="43.49609397405838" lon="11.179838575359488"><ele>162.0</ele><time>2026-04-09T09:21:48Z</time></trkpt><trkpt lat="43.49630526350138" lon="11.18001320693994"><ele>164.5</ele><time>2026-04-09T09:21:49Z</time></trkpt><trkpt lat="43.49650317407934" lon="11.180185231843428"><ele>167.0</ele><time>2026-04-09T09:21:50Z</time></trkpt><trkpt lat="43.49669300331359" lon="11.180344254288672"><ele>167.0</ele><time>2026-04-09T09:21:51Z</time></trkpt><trkpt lat="43.49687750382026" lon="11.180529255007295"><ele>167.0</ele><time>2026-04-09T09:21:52Z</time></trkpt><trkpt lat="43.49706261133344" lon="11.180717274825327"><ele>168.0</ele><time>2026-04-09T09:21:53Z</time></trkpt><trkpt lat="43.49724264114618" lon="11.180910867436511"><ele>169.0</ele><time>2026-04-09T09:21:54Z</time></trkpt><trkpt lat="43.49741924997133" lon="11.181115410220158"><ele>169.0</ele><time>2026-04-09T09:21:55Z</time></trkpt><trkpt lat="43.49759126864697" lon="11.181331172440975"><ele>169.0</ele><time>2026-04-09T09:21:56Z</time></trkpt><trkpt lat="43.49775890980734" lon="11.181549324294357"><ele>172.5</ele><time>2026-04-09T09:21:57Z</time></trkpt><trkpt lat="43.49792348779879" lon="11.181776136519169"><ele>176.0</ele><time>2026-04-09T09:21:58Z</time></trkpt><trkpt lat="43.49808188005251" lon="11.182010011399631"><ele>176.0</ele><time>2026-04-09T09:21:59Z</time></trkpt><trkpt lat="43.4982351153349" lon="11.182251724252463"><ele>176.0</ele><time>2026-04-09T09:22:00Z</time></trkpt><trkpt lat="43.498373592076" lon="11.182488993097886"><ele>176.66666666666666</ele><time>2026-04-09T09:22:01Z</time></trkpt><trkpt lat="43.4985070736071" lon="11.182723566746002"><ele>177.33333333333334</ele><time>2026-04-09T09:22:02Z</time></trkpt><trkpt lat="43.49863854820365" lon="11.182970690350764"><ele>178.0</ele><time>2026-04-09T09:22:03Z</time></trkpt><trkpt lat="43.49877138449369" lon="11.18322780723498"><ele>178.0</ele><time>2026-04-09T09:22:04Z</time></trkpt><trkpt lat="43.4989048432539" lon="11.183478726922353"><ele>178.0</ele><time>2026-04-09T09:22:05Z</time></trkpt><trkpt lat="43.49904067899548" lon="11.183735613100874"><ele>178.0</ele><time>2026-04-09T09:22:06Z</time></trkpt><trkpt lat="43.49917670432947" lon="11.183992906164498"><ele>178.0</ele><time>2026-04-09T09:22:07Z</time></trkpt><trkpt lat="43.499312818589765" lon="11.184251596864515"><ele>182.0</ele><time>2026-04-09T09:22:08Z</time></trkpt><trkpt lat="43.49944757349055" lon="11.18451029286466"><ele>186.0</ele><time>2026-04-09T09:22:09Z</time></trkpt><trkpt lat="43.4995750871059" lon="11.184755738136763"><ele>184.66666666666666</ele><time>2026-04-09T09:22:10Z</time></trkpt><trkpt lat="43.499700517384355" lon="11.184998033979518"><ele>183.33333333333331</ele><time>2026-04-09T09:22:11Z</time></trkpt><trkpt lat="43.49982999429861" lon="11.185241900324675"><ele>182.0</ele><time>2026-04-09T09:22:12Z</time></trkpt><trkpt lat="43.499965916212034" lon="11.185488476989649"><ele>182.33333333333331</ele><time>2026-04-09T09:22:13Z</time></trkpt><trkpt lat="43.50010737314683" lon="11.185721514301957"><ele>182.66666666666666</ele><time>2026-04-09T09:22:14Z</time></trkpt><trkpt lat="43.50025974215421" lon="11.185945042288932"><ele>183.0</ele><time>2026-04-09T09:22:15Z</time></trkpt><trkpt lat="43.50042159280888" lon="11.186156121606368"><ele>183.0</ele><time>2026-04-09T09:22:16Z</time></trkpt><trkpt lat="43.500590407264326" lon="11.186358926654787"><ele>183.0</ele><time>2026-04-09T09:22:17Z</time></trkpt><trkpt lat="43.500768025438475" lon="11.186546180121738"><ele>183.0</ele><time>2026-04-09T09:22:18Z</time></trkpt><trkpt lat="43.5009554830656" lon="11.186718061183914"><ele>183.0</ele><time>2026-04-09T09:22:19Z</time></trkpt><trkpt lat="43.50114497990993" lon="11.186880442745469"><ele>183.0</ele><time>2026-04-09T09:22:20Z</time></trkpt><trkpt lat="43.501338087105935" lon="11.1870355681892"><ele>183.0</ele><time>2026-04-09T09:22:21Z</time></trkpt><trkpt lat="43.50153812871051" lon="11.187175513002703"><ele>183.0</ele><time>2026-04-09T09:22:22Z</time></trkpt><trkpt lat="43.5017419690028" lon="11.18730282348883"><ele>183.0</ele><time>2026-04-09T09:22:23Z</time></trkpt><trkpt lat="43.50194997090355" lon="11.18741685129451"><ele>183.0</ele><time>2026-04-09T09:22:24Z</time></trkpt><trkpt lat="43.50215694919945" lon="11.187511982305052"><ele>188.5</ele><time>2026-04-09T09:22:24.999Z</time></trkpt><trkpt lat="43.50237205868752" lon="11.18760808447951"><ele>194.0</ele><time>2026-04-09T09:22:25.999Z</time></trkpt><trkpt lat="43.50259093895029" lon="11.187699685223993"><ele>194.0</ele><time>2026-04-09T09:22:26.999Z</time></trkpt><trkpt lat="43.50280915690423" lon="11.187799846940521"><ele>194.0</ele><time>2026-04-09T09:22:27.999Z</time></trkpt><trkpt lat="43.50302348875674" lon="11.18790646132375"><ele>192.5</ele><time>2026-04-09T09:22:28.999Z</time></trkpt><trkpt lat="43.50323582951205" lon="11.188009362719521"><ele>191.0</ele><time>2026-04-09T09:22:29.999Z</time></trkpt><trkpt lat="43.50345489695415" lon="11.188118006648656"><ele>194.0</ele><time>2026-04-09T09:22:30.999Z</time></trkpt><trkpt lat="43.503667725768196" lon="11.188212506688526"><ele>197.0</ele><time>2026-04-09T09:22:31.999Z</time></trkpt><trkpt lat="43.503885855107164" lon="11.188320117670354"><ele>197.0</ele><time>2026-04-09T09:22:32.999Z</time></trkpt><trkpt lat="43.50409878320945" lon="11.188419621256731"><ele>197.0</ele><time>2026-04-09T09:22:33.999Z</time></trkpt><trkpt lat="43.50431494411661" lon="11.188523803191833"><ele>197.0</ele><time>2026-04-09T09:22:34.999Z</time></trkpt><trkpt lat="43.50452798881914" lon="11.18861729826249"><ele>197.0</ele><time>2026-04-09T09:22:35.999Z</time></trkpt><trkpt lat="43.50474118778913" lon="11.188718163926707"><ele>197.0</ele><time>2026-04-09T09:22:36.999Z</time></trkpt><trkpt lat="43.50495658246084" lon="11.188816734450125"><ele>196.0</ele><time>2026-04-09T09:22:37.999Z</time></trkpt><trkpt lat="43.50517192234222" lon="11.18891673149964"><ele>195.0</ele><time>2026-04-09T09:22:38.999Z</time></trkpt><trkpt lat="43.50538003608104" lon="11.189013537747519"><ele>194.0</ele><time>2026-04-09T09:22:40Z</time></trkpt><trkpt lat="43.50559558836607" lon="11.18910566502035"><ele>200.5</ele><time>2026-04-09T09:22:41Z</time></trkpt><trkpt lat="43.50581820906565" lon="11.189184899451625"><ele>207.0</ele><time>2026-04-09T09:22:42Z</time></trkpt><trkpt lat="43.506044808468104" lon="11.189261595106707"><ele>205.5</ele><time>2026-04-09T09:22:43Z</time></trkpt><trkpt lat="43.506272728004575" lon="11.189330466171624"><ele>204.0</ele><time>2026-04-09T09:22:44Z</time></trkpt><trkpt lat="43.50650575511075" lon="11.189397194327356"><ele>204.0</ele><time>2026-04-09T09:22:45Z</time></trkpt><trkpt lat="43.506739109453726" lon="11.18946640708698"><ele>204.0</ele><time>2026-04-09T09:22:46Z</time></trkpt><trkpt lat="43.50697050944965" lon="11.18953796958067"><ele>204.5</ele><time>2026-04-09T09:22:47Z</time></trkpt><trkpt lat="43.507203545058886" lon="11.189617822273979"><ele>205.0</ele><time>2026-04-09T09:22:48Z</time></trkpt><trkpt lat="43.50744121152397" lon="11.189685263383428"><ele>205.0</ele><time>2026-04-09T09:22:49Z</time></trkpt><trkpt lat="43.50767572249032" lon="11.189757875718971"><ele>205.0</ele><time>2026-04-09T09:22:50Z</time></trkpt><trkpt lat="43.50791240643665" lon="11.189826760469733"><ele>209.0</ele><time>2026-04-09T09:22:51Z</time></trkpt><trkpt lat="43.508148226756326" lon="11.189894485375234"><ele>213.0</ele><time>2026-04-09T09:22:52Z</time></trkpt><trkpt lat="43.508382759847514" lon="11.189966702537738"><ele>213.0</ele><time>2026-04-09T09:22:53Z</time></trkpt><trkpt lat="43.508620895630564" lon="11.190040314626195"><ele>213.0</ele><time>2026-04-09T09:22:54Z</time></trkpt><trkpt lat="43.508857033388644" lon="11.190103032141684"><ele>213.0</ele><time>2026-04-09T09:22:55Z</time></trkpt><trkpt lat="43.50908570483836" lon="11.190180953206625"><ele>213.0</ele><time>2026-04-09T09:22:56Z</time></trkpt><trkpt lat="43.50931855591755" lon="11.190264849664722"><ele>213.0</ele><time>2026-04-09T09:22:57Z</time></trkpt><trkpt lat="43.509550229771726" lon="11.190360461374258"><ele>213.0</ele><time>2026-04-09T09:22:58Z</time></trkpt><trkpt lat="43.50977618882326" lon="11.190464266480076"><ele>211.0</ele><time>2026-04-09T09:22:59Z</time></trkpt><trkpt lat="43.50999878194452" lon="11.190579911596515"><ele>209.0</ele><time>2026-04-09T09:23:00Z</time></trkpt><trkpt lat="43.51022039406997" lon="11.19070156557784"><ele>212.5</ele><time>2026-04-09T09:23:01Z</time></trkpt><trkpt lat="43.51044181002678" lon="11.190843333277328"><ele>216.0</ele><time>2026-04-09T09:23:02Z</time></trkpt><trkpt lat="43.510653186196286" lon="11.190989204565506"><ele>216.0</ele><time>2026-04-09T09:23:03Z</time></trkpt><trkpt lat="43.510863996408354" lon="11.191147671341104"><ele>216.0</ele><time>2026-04-09T09:23:04Z</time></trkpt><trkpt lat="43.51106862323112" lon="11.191312350938121"><ele>212.5</ele><time>2026-04-09T09:23:05Z</time></trkpt><trkpt lat="43.51126414573108" lon="11.191485915794594"><ele>209.0</ele><time>2026-04-09T09:23:06Z</time></trkpt><trkpt lat="43.51146262486259" lon="11.191656097769195"><ele>216.5</ele><time>2026-04-09T09:23:07Z</time></trkpt><trkpt lat="43.511659777791536" lon="11.19184805953205"><ele>224.0</ele><time>2026-04-09T09:23:08Z</time></trkpt><trkpt lat="43.51185996059857" lon="11.192030950581193"><ele>224.0</ele><time>2026-04-09T09:23:09Z</time></trkpt><trkpt lat="43.51205554259857" lon="11.192217555783401"><ele>224.0</ele><time>2026-04-09T09:23:10Z</time></trkpt><trkpt lat="43.512244573751985" lon="11.192414951826757"><ele>226.0</ele><time>2026-04-09T09:23:11Z</time></trkpt><trkpt lat="43.512421795538145" lon="11.192633458765972"><ele>228.0</ele><time>2026-04-09T09:23:12Z</time></trkpt><trkpt lat="43.51258961990963" lon="11.19284223400944"><ele>228.0</ele><time>2026-04-09T09:23:13Z</time></trkpt><trkpt lat="43.512732484193066" lon="11.19306391043602"><ele>228.0</ele><time>2026-04-09T09:23:14Z</time></trkpt><trkpt lat="43.51287134600253" lon="11.193303924852747"><ele>228.0</ele><time>2026-04-09T09:23:15Z</time></trkpt><trkpt lat="43.51299935815957" lon="11.193557075996086"><ele>228.0</ele><time>2026-04-09T09:23:16Z</time></trkpt><trkpt lat="43.51312069687925" lon="11.193816046911373"><ele>228.0</ele><time>2026-04-09T09:23:17Z</time></trkpt><trkpt lat="43.513233768529396" lon="11.19408528303783"><ele>228.0</ele><time>2026-04-09T09:23:18Z</time></trkpt><trkpt lat="43.51334619693802" lon="11.194359204342094"><ele>231.33333333333331</ele><time>2026-04-09T09:23:19Z</time></trkpt><trkpt lat="43.513461178447294" lon="11.194626279085778"><ele>234.66666666666666</ele><time>2026-04-09T09:23:20Z</time></trkpt><trkpt lat="43.51357839660602" lon="11.194878634321135"><ele>238.0</ele><time>2026-04-09T09:23:21Z</time></trkpt><trkpt lat="43.51369761281227" lon="11.195100469361032"><ele>237.66666666666666</ele><time>2026-04-09T09:23:22Z</time></trkpt><trkpt lat="43.51383239742825" lon="11.195309239108868"><ele>237.33333333333331</ele><time>2026-04-09T09:23:23Z</time></trkpt><trkpt lat="43.51397811833131" lon="11.195521591089014"><ele>237.0</ele><time>2026-04-09T09:23:24Z</time></trkpt><trkpt lat="43.51413774914175" lon="11.195724479582903"><ele>238.66666666666669</ele><time>2026-04-09T09:23:25Z</time></trkpt><trkpt lat="43.51430641510109" lon="11.195920557712618"><ele>240.33333333333334</ele><time>2026-04-09T09:23:26Z</time></trkpt><trkpt lat="43.514476638449516" lon="11.196096012106397"><ele>242.0</ele><time>2026-04-09T09:23:27Z</time></trkpt><trkpt lat="43.51466787416891" lon="11.19627035600476"><ele>238.33333333333334</ele><time>2026-04-09T09:23:28Z</time></trkpt><trkpt lat="43.514860514949206" lon="11.196424587391396"><ele>234.66666666666669</ele><time>2026-04-09T09:23:29Z</time></trkpt><trkpt lat="43.51506052958521" lon="11.196564680050956"><ele>231.0</ele><time>2026-04-09T09:23:30Z</time></trkpt><trkpt lat="43.515268271820375" lon="11.196692182145757"><ele>232.0</ele><time>2026-04-09T09:23:31Z</time></trkpt><trkpt lat="43.515480522739125" lon="11.196797959756385"><ele>233.0</ele><time>2026-04-09T09:23:32Z</time></trkpt><trkpt lat="43.515689146307714" lon="11.196891115192896"><ele>234.0</ele><time>2026-04-09T09:23:33Z</time></trkpt><trkpt lat="43.51588492949174" lon="11.196963772771493"><ele>234.0</ele><time>2026-04-09T09:23:34Z</time></trkpt><trkpt lat="43.51606964591824" lon="11.197008335558909"><ele>234.0</ele><time>2026-04-09T09:23:35Z</time></trkpt><trkpt lat="43.51625826080185" lon="11.197105513314526"><ele>234.0</ele><time>2026-04-09T09:23:36Z</time></trkpt><trkpt lat="43.5164564137521" lon="11.197122421342751"><ele>238.0</ele><time>2026-04-09T09:23:37Z</time></trkpt><trkpt lat="43.51666261138275" lon="11.197138432593476"><ele>242.0</ele><time>2026-04-09T09:23:38Z</time></trkpt><trkpt lat="43.51687461704754" lon="11.197150408272071"><ele>246.0</ele><time>2026-04-09T09:23:39Z</time></trkpt><trkpt lat="43.51708309451068" lon="11.19715444953678"><ele>248.33333333333331</ele><time>2026-04-09T09:23:40Z</time></trkpt><trkpt lat="43.51730252869754" lon="11.197152894717572"><ele>250.66666666666666</ele><time>2026-04-09T09:23:41Z</time></trkpt><trkpt lat="43.51752523270987" lon="11.197151675468726"><ele>253.0</ele><time>2026-04-09T09:23:42Z</time></trkpt><trkpt lat="43.51775393472363" lon="11.197160279277607"><ele>254.0</ele><time>2026-04-09T09:23:43Z</time></trkpt><trkpt lat="43.517984921555424" lon="11.197166291733536"><ele>255.0</ele><time>2026-04-09T09:23:44Z</time></trkpt><trkpt lat="43.51822471992087" lon="11.197181535851177"><ele>255.0</ele><time>2026-04-09T09:23:45Z</time></trkpt><trkpt lat="43.51844968773045" lon="11.197196716450858"><ele>255.0</ele><time>2026-04-09T09:23:46Z</time></trkpt><trkpt lat="43.51866605365564" lon="11.197210850842515"><ele>255.0</ele><time>2026-04-09T09:23:47Z</time></trkpt><trkpt lat="43.51888440364466" lon="11.19723535542638"><ele>255.33333333333331</ele><time>2026-04-09T09:23:48Z</time></trkpt><trkpt lat="43.519106571779666" lon="11.197278688816814"><ele>255.66666666666666</ele><time>2026-04-09T09:23:49Z</time></trkpt><trkpt lat="43.51932518137602" lon="11.197328730041407"><ele>256.0</ele><time>2026-04-09T09:23:50Z</time></trkpt><trkpt lat="43.519541824142614" lon="11.197387249567736"><ele>259.66666666666663</ele><time>2026-04-09T09:23:51Z</time></trkpt><trkpt lat="43.51975635107686" lon="11.197450440948638"><ele>263.3333333333333</ele><time>2026-04-09T09:23:52Z</time></trkpt><trkpt lat="43.519966792254394" lon="11.197530829922947"><ele>267.0</ele><time>2026-04-09T09:23:53Z</time></trkpt><trkpt lat="43.520175072433666" lon="11.197622388822749"><ele>267.0</ele><time>2026-04-09T09:23:54Z</time></trkpt><trkpt lat="43.520375889581146" lon="11.197719503595888"><ele>267.0</ele><time>2026-04-09T09:23:55Z</time></trkpt><trkpt lat="43.5205783883552" lon="11.197828796512379"><ele>267.0</ele><time>2026-04-09T09:23:56Z</time></trkpt><trkpt lat="43.52077105116099" lon="11.197931674391251"><ele>268.3333333333333</ele><time>2026-04-09T09:23:57Z</time></trkpt><trkpt lat="43.52095465394892" lon="11.19803858781201"><ele>269.66666666666663</ele><time>2026-04-09T09:23:58Z</time></trkpt><trkpt lat="43.521137485431645" lon="11.198168334815792"><ele>271.0</ele><time>2026-04-09T09:23:59Z</time></trkpt><trkpt lat="43.521333036972386" lon="11.19825447888166"><ele>271.0</ele><time>2026-04-09T09:24:00Z</time></trkpt><trkpt lat="43.52151692101457" lon="11.198349895632468"><ele>271.0</ele><time>2026-04-09T09:24:01Z</time></trkpt><trkpt lat="43.52168007936076" lon="11.198444530155307"><ele>271.0</ele><time>2026-04-09T09:24:02Z</time></trkpt><trkpt lat="43.521832575855605" lon="11.198528574707595"><ele>271.0</ele><time>2026-04-09T09:24:03Z</time></trkpt><trkpt lat="43.521997669001664" lon="11.198619316105109"><ele>271.0</ele><time>2026-04-09T09:24:04Z</time></trkpt><trkpt lat="43.5221677303078" lon="11.198710878587507"><ele>271.0</ele><time>2026-04-09T09:24:05Z</time></trkpt><trkpt lat="43.52233913541415" lon="11.198807121351473"><ele>270.0</ele><time>2026-04-09T09:24:06Z</time></trkpt><trkpt lat="43.52251039125925" lon="11.198906108830592"><ele>269.0</ele><time>2026-04-09T09:24:07Z</time></trkpt><trkpt lat="43.522682181706" lon="11.19899588794759"><ele>268.0</ele><time>2026-04-09T09:24:08Z</time></trkpt><trkpt lat="43.52284377478802" lon="11.199093346925993"><ele>269.3333333333333</ele><time>2026-04-09T09:24:09Z</time></trkpt><trkpt lat="43.5230133898467" lon="11.19920152245233"><ele>270.6666666666667</ele><time>2026-04-09T09:24:10Z</time></trkpt><trkpt lat="43.5231869076251" lon="11.199325723492954"><ele>272.0</ele><time>2026-04-09T09:24:11Z</time></trkpt><trkpt lat="43.523367356133704" lon="11.19946228712026"><ele>272.0</ele><time>2026-04-09T09:24:12Z</time></trkpt><trkpt lat="43.52355510354536" lon="11.199608484519139"><ele>272.0</ele><time>2026-04-09T09:24:13Z</time></trkpt><trkpt lat="43.5237478347242" lon="11.19976516229241"><ele>272.0</ele><time>2026-04-09T09:24:14Z</time></trkpt><trkpt lat="43.52393849019852" lon="11.199931552875729"><ele>275.0</ele><time>2026-04-09T09:24:15Z</time></trkpt><trkpt lat="43.52413075684363" lon="11.20010524833226"><ele>278.0</ele><time>2026-04-09T09:24:16Z</time></trkpt><trkpt lat="43.524321093305176" lon="11.20029520740402"><ele>278.0</ele><time>2026-04-09T09:24:17Z</time></trkpt><trkpt lat="43.52451026769321" lon="11.200494213548712"><ele>278.0</ele><time>2026-04-09T09:24:18Z</time></trkpt><trkpt lat="43.524700258569034" lon="11.200701580841981"><ele>280.0</ele><time>2026-04-09T09:24:19Z</time></trkpt><trkpt lat="43.52489153977772" lon="11.200920299696444"><ele>282.0</ele><time>2026-04-09T09:24:20Z</time></trkpt><trkpt lat="43.525082949634424" lon="11.201147021192146"><ele>282.0</ele><time>2026-04-09T09:24:21Z</time></trkpt><trkpt lat="43.52526900014519" lon="11.2013879660682"><ele>282.0</ele><time>2026-04-09T09:24:22Z</time></trkpt><trkpt lat="43.52544075162751" lon="11.201625064161076"><ele>286.5</ele><time>2026-04-09T09:24:23Z</time></trkpt><trkpt lat="43.52559916239607" lon="11.201859556850819"><ele>291.0</ele><time>2026-04-09T09:24:24Z</time></trkpt><trkpt lat="43.52575714963176" lon="11.202103013991394"><ele>290.5</ele><time>2026-04-09T09:24:25Z</time></trkpt><trkpt lat="43.525916407975714" lon="11.20235077243274"><ele>290.0</ele><time>2026-04-09T09:24:26Z</time></trkpt><trkpt lat="43.526066439233695" lon="11.202605014220955"><ele>290.0</ele><time>2026-04-09T09:24:27Z</time></trkpt><trkpt lat="43.52620748104676" lon="11.202873394043822"><ele>290.0</ele><time>2026-04-09T09:24:28Z</time></trkpt><trkpt lat="43.526341825291915" lon="11.203122081624898"><ele>289.6666666666667</ele><time>2026-04-09T09:24:29Z</time></trkpt><trkpt lat="43.52646908402975" lon="11.203375136239984"><ele>289.3333333333333</ele><time>2026-04-09T09:24:30Z</time></trkpt><trkpt lat="43.52659169510656" lon="11.203636111390232"><ele>289.0</ele><time>2026-04-09T09:24:31Z</time></trkpt><trkpt lat="43.52672090080645" lon="11.203910971829837"><ele>290.5</ele><time>2026-04-09T09:24:32Z</time></trkpt><trkpt lat="43.526847667835774" lon="11.204216471714782"><ele>292.0</ele><time>2026-04-09T09:24:33Z</time></trkpt><trkpt lat="43.526987109032106" lon="11.204526724027572"><ele>288.5</ele><time>2026-04-09T09:24:34Z</time></trkpt><trkpt lat="43.52711264998053" lon="11.204816980320409"><ele>285.0</ele><time>2026-04-09T09:24:35Z</time></trkpt><trkpt lat="43.527235230140874" lon="11.205101309808922"><ele>285.0</ele><time>2026-04-09T09:24:36Z</time></trkpt><trkpt lat="43.52735793688709" lon="11.205395915116519"><ele>285.0</ele><time>2026-04-09T09:24:36.999Z</time></trkpt><trkpt lat="43.52748349517754" lon="11.205693210848207"><ele>289.5</ele><time>2026-04-09T09:24:37.999Z</time></trkpt><trkpt lat="43.527606704137746" lon="11.206004069471382"><ele>294.0</ele><time>2026-04-09T09:24:38.999Z</time></trkpt><trkpt lat="43.5277269372292" lon="11.206283432868922"><ele>294.0</ele><time>2026-04-09T09:24:39.999Z</time></trkpt><trkpt lat="43.52784036097526" lon="11.206555872033531"><ele>294.0</ele><time>2026-04-09T09:24:40.999Z</time></trkpt><trkpt lat="43.527957005995425" lon="11.20683194273328"><ele>294.0</ele><time>2026-04-09T09:24:41.999Z</time></trkpt><trkpt lat="43.528069153649874" lon="11.207092828314584"><ele>294.0</ele><time>2026-04-09T09:24:42.999Z</time></trkpt><trkpt lat="43.52818204457515" lon="11.207348086177154"><ele>294.0</ele><time>2026-04-09T09:24:43.999Z</time></trkpt><trkpt lat="43.52829512732039" lon="11.207604478081459"><ele>292.5</ele><time>2026-04-09T09:24:44.999Z</time></trkpt><trkpt lat="43.52841406080354" lon="11.207865496042972"><ele>291.0</ele><time>2026-04-09T09:24:46Z</time></trkpt><trkpt lat="43.528535782081235" lon="11.208130684190271"><ele>292.0</ele><time>2026-04-09T09:24:47Z</time></trkpt><trkpt lat="43.52867198385979" lon="11.208377135647948"><ele>293.0</ele><time>2026-04-09T09:24:48Z</time></trkpt><trkpt lat="43.52881578684167" lon="11.208627907310651"><ele>293.5</ele><time>2026-04-09T09:24:49Z</time></trkpt><trkpt lat="43.52897093309973" lon="11.208857233958984"><ele>294.0</ele><time>2026-04-09T09:24:50Z</time></trkpt><trkpt lat="43.52913076187104" lon="11.209083324406286"><ele>294.0</ele><time>2026-04-09T09:24:51Z</time></trkpt><trkpt lat="43.5292913460099" lon="11.209302064665154"><ele>294.0</ele><time>2026-04-09T09:24:52Z</time></trkpt><trkpt lat="43.52944323041256" lon="11.20951528073954"><ele>294.0</ele><time>2026-04-09T09:24:53Z</time></trkpt><trkpt lat="43.52958852012425" lon="11.209722045436225"><ele>292.6666666666667</ele><time>2026-04-09T09:24:54Z</time></trkpt><trkpt lat="43.529732346690984" lon="11.20993006509551"><ele>291.33333333333337</ele><time>2026-04-09T09:24:55Z</time></trkpt><trkpt lat="43.529871802720635" lon="11.210146207777797"><ele>290.0</ele><time>2026-04-09T09:24:56Z</time></trkpt><trkpt lat="43.53000462077139" lon="11.21037563675303"><ele>290.0</ele><time>2026-04-09T09:24:57Z</time></trkpt><trkpt lat="43.53012852505575" lon="11.210617535599875"><ele>290.0</ele><time>2026-04-09T09:24:58Z</time></trkpt><trkpt lat="43.53024470905011" lon="11.210870531679738"><ele>290.0</ele><time>2026-04-09T09:24:59Z</time></trkpt><trkpt lat="43.530351242901716" lon="11.211131534615623"><ele>289.33333333333337</ele><time>2026-04-09T09:25:00Z</time></trkpt><trkpt lat="43.53044936001731" lon="11.211390556265274"><ele>288.6666666666667</ele><time>2026-04-09T09:25:01Z</time></trkpt><trkpt lat="43.530541936349906" lon="11.21168347147031"><ele>288.0</ele><time>2026-04-09T09:25:02Z</time></trkpt><trkpt lat="43.53062701437433" lon="11.211978547944682"><ele>288.0</ele><time>2026-04-09T09:25:03Z</time></trkpt><trkpt lat="43.530708922522486" lon="11.212269338811799"><ele>288.0</ele><time>2026-04-09T09:25:04Z</time></trkpt><trkpt lat="43.53079255906807" lon="11.212566540192636"><ele>290.0</ele><time>2026-04-09T09:25:05Z</time></trkpt><trkpt lat="43.53087790679334" lon="11.212865836749542"><ele>292.0</ele><time>2026-04-09T09:25:06Z</time></trkpt><trkpt lat="43.530967491480695" lon="11.213166031211173"><ele>292.3333333333333</ele><time>2026-04-09T09:25:07Z</time></trkpt><trkpt lat="43.53105671897605" lon="11.213458348843037"><ele>292.6666666666667</ele><time>2026-04-09T09:25:08Z</time></trkpt><trkpt lat="43.53114742191208" lon="11.213731439439282"><ele>293.0</ele><time>2026-04-09T09:25:09Z</time></trkpt><trkpt lat="43.53124238375284" lon="11.213984529040555"><ele>287.6666666666667</ele><time>2026-04-09T09:25:10Z</time></trkpt><trkpt lat="43.53135082698433" lon="11.21423690036796"><ele>282.3333333333333</ele><time>2026-04-09T09:25:11Z</time></trkpt><trkpt lat="43.53147271821258" lon="11.214478951277256"><ele>277.0</ele><time>2026-04-09T09:25:12Z</time></trkpt><trkpt lat="43.53160162658958" lon="11.214716236290435"><ele>277.66666666666663</ele><time>2026-04-09T09:25:13Z</time></trkpt><trkpt lat="43.53173915973683" lon="11.214947570526745"><ele>278.3333333333333</ele><time>2026-04-09T09:25:14Z</time></trkpt><trkpt lat="43.53188450228766" lon="11.215175807425735"><ele>279.0</ele><time>2026-04-09T09:25:15Z</time></trkpt><trkpt lat="43.53203033536163" lon="11.21540051411678"><ele>284.3333333333333</ele><time>2026-04-09T09:25:16Z</time></trkpt><trkpt lat="43.5321736206451" lon="11.21563076630912"><ele>289.66666666666663</ele><time>2026-04-09T09:25:17Z</time></trkpt><trkpt lat="43.53231786232762" lon="11.215858196444843"><ele>295.0</ele><time>2026-04-09T09:25:18Z</time></trkpt><trkpt lat="43.53246339190438" lon="11.216088655170227"><ele>295.3333333333333</ele><time>2026-04-09T09:25:19Z</time></trkpt><trkpt lat="43.53260801143654" lon="11.216318249940493"><ele>295.6666666666667</ele><time>2026-04-09T09:25:20Z</time></trkpt><trkpt lat="43.532754394881046" lon="11.216543818965311"><ele>296.0</ele><time>2026-04-09T09:25:21Z</time></trkpt><trkpt lat="43.532902703107936" lon="11.216774239323495"><ele>299.0</ele><time>2026-04-09T09:25:22Z</time></trkpt><trkpt lat="43.53304743296444" lon="11.217002340836565"><ele>302.0</ele><time>2026-04-09T09:25:23Z</time></trkpt><trkpt lat="43.53319169446456" lon="11.217236621867157"><ele>305.0</ele><time>2026-04-09T09:25:24Z</time></trkpt><trkpt lat="43.53333483751808" lon="11.217471303412152"><ele>305.0</ele><time>2026-04-09T09:25:25Z</time></trkpt><trkpt lat="43.53348027042028" lon="11.217705758866039"><ele>305.0</ele><time>2026-04-09T09:25:26Z</time></trkpt><trkpt lat="43.53362616939458" lon="11.21793835892001"><ele>305.0</ele><time>2026-04-09T09:25:27Z</time></trkpt><trkpt lat="43.53377446430752" lon="11.218164782401345"><ele>306.6666666666667</ele><time>2026-04-09T09:25:28Z</time></trkpt><trkpt lat="43.53392578290635" lon="11.218392453339984"><ele>308.3333333333333</ele><time>2026-04-09T09:25:29Z</time></trkpt><trkpt lat="43.53408529376128" lon="11.218608345908965"><ele>310.0</ele><time>2026-04-09T09:25:30Z</time></trkpt><trkpt lat="43.5342534999561" lon="11.218812669294508"><ele>312.5</ele><time>2026-04-09T09:25:31Z</time></trkpt><trkpt lat="43.53443295929951" lon="11.219009370624464"><ele>315.0</ele><time>2026-04-09T09:25:32Z</time></trkpt><trkpt lat="43.53461645230139" lon="11.219190263026597"><ele>315.0</ele><time>2026-04-09T09:25:33Z</time></trkpt><trkpt lat="43.53480158445133" lon="11.219370131595923"><ele>315.0</ele><time>2026-04-09T09:25:34Z</time></trkpt><trkpt lat="43.53499592922946" lon="11.219539548952392"><ele>315.0</ele><time>2026-04-09T09:25:35Z</time></trkpt><trkpt lat="43.535196270974026" lon="11.219696948104948"><ele>315.0</ele><time>2026-04-09T09:25:36Z</time></trkpt><trkpt lat="43.535403922420805" lon="11.21984090507892"><ele>316.5</ele><time>2026-04-09T09:25:37Z</time></trkpt><trkpt lat="43.53561437320555" lon="11.219973841449274"><ele>318.0</ele><time>2026-04-09T09:25:38Z</time></trkpt><trkpt lat="43.53582616802971" lon="11.220096947325871"><ele>318.0</ele><time>2026-04-09T09:25:39Z</time></trkpt><trkpt lat="43.53603597746825" lon="11.22020428296068"><ele>318.0</ele><time>2026-04-09T09:25:40Z</time></trkpt><trkpt lat="43.53626812011473" lon="11.220306223765203"><ele>320.0</ele><time>2026-04-09T09:25:41Z</time></trkpt><trkpt lat="43.536492686029796" lon="11.220392699020104"><ele>322.0</ele><time>2026-04-09T09:25:42Z</time></trkpt><trkpt lat="43.536721897580684" lon="11.220462776739627"><ele>322.0</ele><time>2026-04-09T09:25:43Z</time></trkpt><trkpt lat="43.53695466350518" lon="11.22051905753593"><ele>322.0</ele><time>2026-04-09T09:25:44Z</time></trkpt><trkpt lat="43.53719058665673" lon="11.220558383099455"><ele>320.0</ele><time>2026-04-09T09:25:45Z</time></trkpt><trkpt lat="43.53743289729076" lon="11.220590671119849"><ele>318.0</ele><time>2026-04-09T09:25:46Z</time></trkpt><trkpt lat="43.53767982142176" lon="11.22061232240815"><ele>315.0</ele><time>2026-04-09T09:25:47Z</time></trkpt><trkpt lat="43.53792871357202" lon="11.220611980796853"><ele>312.0</ele><time>2026-04-09T09:25:48Z</time></trkpt><trkpt lat="43.53818012503338" lon="11.220580703851441"><ele>312.0</ele><time>2026-04-09T09:25:49Z</time></trkpt><trkpt lat="43.538423872230865" lon="11.220563398336099"><ele>312.0</ele><time>2026-04-09T09:25:50Z</time></trkpt><trkpt lat="43.53865429706056" lon="11.220514362213017"><ele>311.5</ele><time>2026-04-09T09:25:51Z</time></trkpt><trkpt lat="43.538887523257806" lon="11.220454968433776"><ele>311.0</ele><time>2026-04-09T09:25:52Z</time></trkpt><trkpt lat="43.539118539028365" lon="11.220396457350837"><ele>311.0</ele><time>2026-04-09T09:25:53Z</time></trkpt><trkpt lat="43.539341801199924" lon="11.22031145991773"><ele>311.0</ele><time>2026-04-09T09:25:54Z</time></trkpt><trkpt lat="43.53956617293047" lon="11.22020942550308"><ele>312.5</ele><time>2026-04-09T09:25:55Z</time></trkpt><trkpt lat="43.53978234008596" lon="11.220104555449797"><ele>314.0</ele><time>2026-04-09T09:25:56Z</time></trkpt><trkpt lat="43.539999791310294" lon="11.219985649410262"><ele>314.0</ele><time>2026-04-09T09:25:57Z</time></trkpt><trkpt lat="43.54020738977564" lon="11.219838108203229"><ele>314.0</ele><time>2026-04-09T09:25:58Z</time></trkpt><trkpt lat="43.54041263667146" lon="11.219694853342531"><ele>311.5</ele><time>2026-04-09T09:25:59Z</time></trkpt><trkpt lat="43.54061750859497" lon="11.219543149835976"><ele>309.0</ele><time>2026-04-09T09:26:00Z</time></trkpt><trkpt lat="43.54081841761434" lon="11.219364867733198"><ele>309.0</ele><time>2026-04-09T09:26:01Z</time></trkpt><trkpt lat="43.54100565525276" lon="11.21917292029585"><ele>309.0</ele><time>2026-04-09T09:26:02Z</time></trkpt><trkpt lat="43.54120106623405" lon="11.218976278141954"><ele>306.0</ele><time>2026-04-09T09:26:03Z</time></trkpt><trkpt lat="43.54138483484172" lon="11.218764540315572"><ele>303.0</ele><time>2026-04-09T09:26:04Z</time></trkpt><trkpt lat="43.54156269030321" lon="11.218539224672396"><ele>303.0</ele><time>2026-04-09T09:26:05Z</time></trkpt><trkpt lat="43.541735008734236" lon="11.218299689566114"><ele>303.0</ele><time>2026-04-09T09:26:06Z</time></trkpt><trkpt lat="43.54190245688558" lon="11.218048866211124"><ele>303.0</ele><time>2026-04-09T09:26:07Z</time></trkpt><trkpt lat="43.54206891620263" lon="11.2177912018016"><ele>303.0</ele><time>2026-04-09T09:26:08Z</time></trkpt><trkpt lat="43.5422316141386" lon="11.21752781645294"><ele>299.0</ele><time>2026-04-09T09:26:09Z</time></trkpt><trkpt lat="43.54239549206275" lon="11.217271080250404"><ele>295.0</ele><time>2026-04-09T09:26:10Z</time></trkpt><trkpt lat="43.54256124600708" lon="11.217016747497386"><ele>295.0</ele><time>2026-04-09T09:26:11Z</time></trkpt><trkpt lat="43.54273062246809" lon="11.216757884758302"><ele>295.0</ele><time>2026-04-09T09:26:12Z</time></trkpt><trkpt lat="43.54289633444443" lon="11.21649423430318"><ele>293.5</ele><time>2026-04-09T09:26:13Z</time></trkpt><trkpt lat="43.543061906859315" lon="11.216228292773675"><ele>292.0</ele><time>2026-04-09T09:26:14Z</time></trkpt><trkpt lat="43.5432187881982" lon="11.215971466493915"><ele>292.0</ele><time>2026-04-09T09:26:15Z</time></trkpt><trkpt lat="43.54337335494837" lon="11.21573009069749"><ele>292.0</ele><time>2026-04-09T09:26:16Z</time></trkpt><trkpt lat="43.54352998816343" lon="11.215483304641173"><ele>290.5</ele><time>2026-04-09T09:26:17Z</time></trkpt><trkpt lat="43.54368790465948" lon="11.215236489510955"><ele>289.0</ele><time>2026-04-09T09:26:18Z</time></trkpt><trkpt lat="43.543850390457166" lon="11.214989059124767"><ele>292.5</ele><time>2026-04-09T09:26:19Z</time></trkpt><trkpt lat="43.54401142440398" lon="11.214748975261294"><ele>296.0</ele><time>2026-04-09T09:26:20Z</time></trkpt><trkpt lat="43.544176557826525" lon="11.214511113386987"><ele>296.0</ele><time>2026-04-09T09:26:21Z</time></trkpt><trkpt lat="43.5443435047276" lon="11.21427802714183"><ele>296.0</ele><time>2026-04-09T09:26:22Z</time></trkpt><trkpt lat="43.54451596637295" lon="11.214046436948923"><ele>296.0</ele><time>2026-04-09T09:26:23Z</time></trkpt><trkpt lat="43.54469189040019" lon="11.213814422602814"><ele>296.0</ele><time>2026-04-09T09:26:24Z</time></trkpt><trkpt lat="43.54486591049811" lon="11.213585742896637"><ele>296.0</ele><time>2026-04-09T09:26:25Z</time></trkpt><trkpt lat="43.545042593999526" lon="11.213364984216085"><ele>296.0</ele><time>2026-04-09T09:26:26Z</time></trkpt><trkpt lat="43.54521770582447" lon="11.213142755684318"><ele>295.0</ele><time>2026-04-09T09:26:27Z</time></trkpt><trkpt lat="43.54539321781816" lon="11.212929358427186"><ele>294.0</ele><time>2026-04-09T09:26:28Z</time></trkpt><trkpt lat="43.545571597489726" lon="11.21271831402571"><ele>294.0</ele><time>2026-04-09T09:26:29Z</time></trkpt><trkpt lat="43.545752344262155" lon="11.212517035269798"><ele>294.0</ele><time>2026-04-09T09:26:30Z</time></trkpt><trkpt lat="43.54593118882724" lon="11.212315285869872"><ele>294.5</ele><time>2026-04-09T09:26:31Z</time></trkpt><trkpt lat="43.54611004503299" lon="11.212119568002462"><ele>295.0</ele><time>2026-04-09T09:26:32Z</time></trkpt><trkpt lat="43.54628571621725" lon="11.21192128255682"><ele>295.0</ele><time>2026-04-09T09:26:33Z</time></trkpt><trkpt lat="43.54646165896582" lon="11.211725037712853"><ele>295.0</ele><time>2026-04-09T09:26:33.999Z</time></trkpt><trkpt lat="43.546643850368085" lon="11.211530596154674"><ele>294.5</ele><time>2026-04-09T09:26:34.999Z</time></trkpt><trkpt lat="43.54682968083267" lon="11.211350474065329"><ele>294.0</ele><time>2026-04-09T09:26:35.999Z</time></trkpt><trkpt lat="43.54702469833938" lon="11.211190342474174"><ele>301.0</ele><time>2026-04-09T09:26:36.999Z</time></trkpt><trkpt lat="43.547227995686455" lon="11.211040471386584"><ele>308.0</ele><time>2026-04-09T09:26:37.999Z</time></trkpt><trkpt lat="43.54744071605489" lon="11.21090367777618"><ele>308.0</ele><time>2026-04-09T09:26:38.999Z</time></trkpt><trkpt lat="43.547658545100695" lon="11.210780377615722"><ele>308.0</ele><time>2026-04-09T09:26:39.999Z</time></trkpt><trkpt lat="43.54788152817993" lon="11.210672295871333"><ele>305.5</ele><time>2026-04-09T09:26:40.999Z</time></trkpt><trkpt lat="43.548113296811316" lon="11.210569362445193"><ele>303.0</ele><time>2026-04-09T09:26:41.999Z</time></trkpt><trkpt lat="43.548354653953886" lon="11.210489709730608"><ele>303.0</ele><time>2026-04-09T09:26:42.999Z</time></trkpt><trkpt lat="43.548602080414526" lon="11.210430629101733"><ele>303.0</ele><time>2026-04-09T09:26:43.999Z</time></trkpt><trkpt lat="43.548853344617385" lon="11.210389097100949"><ele>307.0</ele><time>2026-04-09T09:26:44.999Z</time></trkpt><trkpt lat="43.54909173011552" lon="11.21036932072347"><ele>311.0</ele><time>2026-04-09T09:26:45.999Z</time></trkpt><trkpt lat="43.54930956780167" lon="11.210368871751387"><ele>311.0</ele><time>2026-04-09T09:26:46.999Z</time></trkpt><trkpt lat="43.54953200431969" lon="11.210363635597844"><ele>311.0</ele><time>2026-04-09T09:26:47.999Z</time></trkpt><trkpt lat="43.54976030749021" lon="11.210361698064338"><ele>310.5</ele><time>2026-04-09T09:26:48.999Z</time></trkpt><trkpt lat="43.54999118814387" lon="11.210356808168473"><ele>310.0</ele><time>2026-04-09T09:26:49.999Z</time></trkpt><trkpt lat="43.55022344059412" lon="11.210353073356853"><ele>305.0</ele><time>2026-04-09T09:26:50.999Z</time></trkpt><trkpt lat="43.55045810053883" lon="11.210348234841037"><ele>300.0</ele><time>2026-04-09T09:26:52Z</time></trkpt><trkpt lat="43.55069092634336" lon="11.210341568045623"><ele>300.0</ele><time>2026-04-09T09:26:53Z</time></trkpt><trkpt lat="43.550926028974594" lon="11.210335875384658"><ele>300.0</ele><time>2026-04-09T09:26:54Z</time></trkpt><trkpt lat="43.55116593464392" lon="11.21033354286688"><ele>302.0</ele><time>2026-04-09T09:26:55Z</time></trkpt><trkpt lat="43.55139341102018" lon="11.21033193408121"><ele>304.0</ele><time>2026-04-09T09:26:56Z</time></trkpt><trkpt lat="43.5516116361974" lon="11.210330262029954"><ele>306.0</ele><time>2026-04-09T09:26:57Z</time></trkpt><trkpt lat="43.55181499510995" lon="11.210328420335468"><ele>306.0</ele><time>2026-04-09T09:26:58Z</time></trkpt><trkpt lat="43.5520084028822" lon="11.21032542466008"><ele>306.0</ele><time>2026-04-09T09:26:59Z</time></trkpt><trkpt lat="43.552186567666986" lon="11.210323227367589"><ele>306.0</ele><time>2026-04-09T09:27:00Z</time></trkpt><trkpt lat="43.55233212664197" lon="11.210327488887255"><ele>310.0</ele><time>2026-04-09T09:27:01Z</time></trkpt><trkpt lat="43.552464984890335" lon="11.210331658054683"><ele>314.0</ele><time>2026-04-09T09:27:02Z</time></trkpt><trkpt lat="43.55292478861863" lon="11.210313458711944"><ele>314.33333333333337</ele><time>2026-04-09T09:27:03Z</time></trkpt><trkpt lat="43.55314377527876" lon="11.21030936471273"><ele>314.6666666666667</ele><time>2026-04-09T09:27:04Z</time></trkpt><trkpt lat="43.55336502404063" lon="11.210305595153034"><ele>315.0</ele><time>2026-04-09T09:27:05Z</time></trkpt><trkpt lat="43.55359389908139" lon="11.210296096954924"><ele>316.5</ele><time>2026-04-09T09:27:06Z</time></trkpt><trkpt lat="43.55382780463266" lon="11.210288994443486"><ele>318.0</ele><time>2026-04-09T09:27:07Z</time></trkpt><trkpt lat="43.55406201096064" lon="11.210281303281937"><ele>318.0</ele><time>2026-04-09T09:27:08Z</time></trkpt><trkpt lat="43.5543030979342" lon="11.210280907253555"><ele>318.0</ele><time>2026-04-09T09:27:09Z</time></trkpt><trkpt lat="43.55454661021347" lon="11.210291476020876"><ele>315.0</ele><time>2026-04-09T09:27:10Z</time></trkpt><trkpt lat="43.55478952967263" lon="11.210319214470656"><ele>312.0</ele><time>2026-04-09T09:27:11Z</time></trkpt><trkpt lat="43.55501793991618" lon="11.21036664888332"><ele>312.0</ele><time>2026-04-09T09:27:12Z</time></trkpt><trkpt lat="43.55523901647924" lon="11.210432489106255"><ele>312.0</ele><time>2026-04-09T09:27:13Z</time></trkpt><trkpt lat="43.55546114558765" lon="11.210520291848628"><ele>312.5</ele><time>2026-04-09T09:27:14Z</time></trkpt><trkpt lat="43.55568216151867" lon="11.210622656315236"><ele>313.0</ele><time>2026-04-09T09:27:15Z</time></trkpt><trkpt lat="43.55589699675817" lon="11.210740637124372"><ele>308.0</ele><time>2026-04-09T09:27:16Z</time></trkpt><trkpt lat="43.55611253014918" lon="11.210880266319"><ele>303.0</ele><time>2026-04-09T09:27:17Z</time></trkpt><trkpt lat="43.556327532696585" lon="11.211032708261477"><ele>300.5</ele><time>2026-04-09T09:27:18Z</time></trkpt><trkpt lat="43.55653985381243" lon="11.211198798138057"><ele>298.0</ele><time>2026-04-09T09:27:19Z</time></trkpt><trkpt lat="43.55674891080555" lon="11.211376466035581"><ele>293.0</ele><time>2026-04-09T09:27:20Z</time></trkpt><trkpt lat="43.55695907941947" lon="11.211564911215305"><ele>288.0</ele><time>2026-04-09T09:27:21Z</time></trkpt><trkpt lat="43.55717285487233" lon="11.211751625058863"><ele>287.5</ele><time>2026-04-09T09:27:22Z</time></trkpt><trkpt lat="43.55738858368188" lon="11.211929909638815"><ele>287.0</ele><time>2026-04-09T09:27:23Z</time></trkpt><trkpt lat="43.55759501639059" lon="11.212093139095767"><ele>287.0</ele><time>2026-04-09T09:27:24Z</time></trkpt><trkpt lat="43.55779837407252" lon="11.212239027828511"><ele>287.0</ele><time>2026-04-09T09:27:25Z</time></trkpt><trkpt lat="43.558014770370455" lon="11.212354429156267"><ele>287.5</ele><time>2026-04-09T09:27:26Z</time></trkpt><trkpt lat="43.55824189396945" lon="11.212458455823686"><ele>288.0</ele><time>2026-04-09T09:27:27Z</time></trkpt><trkpt lat="43.558476255599025" lon="11.212553237810965"><ele>288.0</ele><time>2026-04-09T09:27:28Z</time></trkpt><trkpt lat="43.55872342994086" lon="11.212626948435327"><ele>288.0</ele><time>2026-04-09T09:27:29Z</time></trkpt><trkpt lat="43.55896805339164" lon="11.21268248016472"><ele>288.0</ele><time>2026-04-09T09:27:30Z</time></trkpt><trkpt lat="43.559215629755606" lon="11.21271615013768"><ele>288.0</ele><time>2026-04-09T09:27:31Z</time></trkpt><trkpt lat="43.55945939331606" lon="11.212739921276937"><ele>287.0</ele><time>2026-04-09T09:27:32Z</time></trkpt><trkpt lat="43.5596987760387" lon="11.212769027084267"><ele>286.0</ele><time>2026-04-09T09:27:33Z</time></trkpt><trkpt lat="43.5599473777209" lon="11.212797704230978"><ele>286.0</ele><time>2026-04-09T09:27:34Z</time></trkpt><trkpt lat="43.56019027844765" lon="11.212829286145544"><ele>286.0</ele><time>2026-04-09T09:27:35Z</time></trkpt><trkpt lat="43.56042219410151" lon="11.212862805682438"><ele>282.0</ele><time>2026-04-09T09:27:36Z</time></trkpt><trkpt lat="43.560646832239776" lon="11.212901365927053"><ele>278.0</ele><time>2026-04-09T09:27:37Z</time></trkpt><trkpt lat="43.56087121126393" lon="11.212929081200636"><ele>278.0</ele><time>2026-04-09T09:27:38Z</time></trkpt><trkpt lat="43.56110108227065" lon="11.21295701418061"><ele>278.0</ele><time>2026-04-09T09:27:39Z</time></trkpt><trkpt lat="43.56133221089213" lon="11.212999263640972"><ele>277.0</ele><time>2026-04-09T09:27:40Z</time></trkpt><trkpt lat="43.561562071881944" lon="11.213029768650152"><ele>276.0</ele><time>2026-04-09T09:27:41Z</time></trkpt><trkpt lat="43.56180424134938" lon="11.213054579712917"><ele>276.0</ele><time>2026-04-09T09:27:42Z</time></trkpt><trkpt lat="43.56204334818934" lon="11.213092073339727"><ele>276.0</ele><time>2026-04-09T09:27:43Z</time></trkpt><trkpt lat="43.562283694468526" lon="11.21312372011687"><ele>276.0</ele><time>2026-04-09T09:27:44Z</time></trkpt><trkpt lat="43.56252561672803" lon="11.213151809112112"><ele>276.0</ele><time>2026-04-09T09:27:45Z</time></trkpt><trkpt lat="43.56276546310943" lon="11.21318131612533"><ele>268.0</ele><time>2026-04-09T09:27:46Z</time></trkpt><trkpt lat="43.563007926869226" lon="11.213212830658923"><ele>260.0</ele><time>2026-04-09T09:27:47Z</time></trkpt><trkpt lat="43.56325141791833" lon="11.21324578715074"><ele>260.0</ele><time>2026-04-09T09:27:48Z</time></trkpt><trkpt lat="43.56349440946774" lon="11.213278812455538"><ele>260.0</ele><time>2026-04-09T09:27:49Z</time></trkpt><trkpt lat="43.563725356225824" lon="11.213312870281156"><ele>262.0</ele><time>2026-04-09T09:27:50Z</time></trkpt><trkpt lat="43.56394595460372" lon="11.213336431937568"><ele>264.0</ele><time>2026-04-09T09:27:51Z</time></trkpt><trkpt lat="43.56415785315298" lon="11.21336021451886"><ele>266.0</ele><time>2026-04-09T09:27:52Z</time></trkpt><trkpt lat="43.564365734771435" lon="11.213372864383208"><ele>267.0</ele><time>2026-04-09T09:27:53Z</time></trkpt><trkpt lat="43.564588418381575" lon="11.213369727449692"><ele>268.0</ele><time>2026-04-09T09:27:54Z</time></trkpt><trkpt lat="43.56480560546341" lon="11.213345345876508"><ele>269.0</ele><time>2026-04-09T09:27:55Z</time></trkpt><trkpt lat="43.56502164265763" lon="11.213304978136955"><ele>269.0</ele><time>2026-04-09T09:27:56Z</time></trkpt><trkpt lat="43.56522968595685" lon="11.213263338058557"><ele>269.0</ele><time>2026-04-09T09:27:57Z</time></trkpt><trkpt lat="43.565445546107505" lon="11.213200045529074"><ele>269.0</ele><time>2026-04-09T09:27:58Z</time></trkpt><trkpt lat="43.56566348385075" lon="11.213114913387377"><ele>272.0</ele><time>2026-04-09T09:27:59Z</time></trkpt><trkpt lat="43.56587690879534" lon="11.213024624662143"><ele>275.0</ele><time>2026-04-09T09:28:00Z</time></trkpt><trkpt lat="43.56609042571491" lon="11.212919168093796"><ele>268.5</ele><time>2026-04-09T09:28:01Z</time></trkpt><trkpt lat="43.56629652354932" lon="11.212792786385984"><ele>262.0</ele><time>2026-04-09T09:28:02Z</time></trkpt><trkpt lat="43.566504736801846" lon="11.212655641328144"><ele>262.0</ele><time>2026-04-09T09:28:03Z</time></trkpt><trkpt lat="43.566708136308385" lon="11.212499744551629"><ele>262.0</ele><time>2026-04-09T09:28:04Z</time></trkpt><trkpt lat="43.56689894055729" lon="11.212326381716283"><ele>251.0</ele><time>2026-04-09T09:28:05Z</time></trkpt><trkpt lat="43.56708879180058" lon="11.212135150247185"><ele>240.0</ele><time>2026-04-09T09:28:06Z</time></trkpt><trkpt lat="43.56727713906399" lon="11.211931107946375"><ele>240.0</ele><time>2026-04-09T09:28:07Z</time></trkpt><trkpt lat="43.56747028942837" lon="11.211716768125912"><ele>240.0</ele><time>2026-04-09T09:28:08Z</time></trkpt><trkpt lat="43.56766359278351" lon="11.21150573792991"><ele>239.5</ele><time>2026-04-09T09:28:09Z</time></trkpt><trkpt lat="43.567856761355536" lon="11.211293466921338"><ele>239.0</ele><time>2026-04-09T09:28:10Z</time></trkpt><trkpt lat="43.5680536109678" lon="11.211077581299788"><ele>239.0</ele><time>2026-04-09T09:28:11Z</time></trkpt><trkpt lat="43.56825413314357" lon="11.21086448394266"><ele>239.0</ele><time>2026-04-09T09:28:12Z</time></trkpt><trkpt lat="43.56845496973924" lon="11.210654469902314"><ele>238.0</ele><time>2026-04-09T09:28:13Z</time></trkpt><trkpt lat="43.56865270830587" lon="11.210449418663984"><ele>237.0</ele><time>2026-04-09T09:28:14Z</time></trkpt><trkpt lat="43.568845167124294" lon="11.21024491436997"><ele>237.0</ele><time>2026-04-09T09:28:15Z</time></trkpt><trkpt lat="43.5690339747507" lon="11.210033086033997"><ele>237.0</ele><time>2026-04-09T09:28:16Z</time></trkpt><trkpt lat="43.5692299038988" lon="11.209813257486122"><ele>234.0</ele><time>2026-04-09T09:28:17Z</time></trkpt><trkpt lat="43.56942087245601" lon="11.20960279559451"><ele>231.0</ele><time>2026-04-09T09:28:18Z</time></trkpt><trkpt lat="43.569618441116205" lon="11.209386224033913"><ele>231.0</ele><time>2026-04-09T09:28:19Z</time></trkpt><trkpt lat="43.569820005426344" lon="11.20916918909536"><ele>231.0</ele><time>2026-04-09T09:28:20Z</time></trkpt><trkpt lat="43.570012306153956" lon="11.208963033978286"><ele>229.5</ele><time>2026-04-09T09:28:21Z</time></trkpt><trkpt lat="43.5701921261283" lon="11.20876073435732"><ele>228.0</ele><time>2026-04-09T09:28:22Z</time></trkpt><trkpt lat="43.57036677260208" lon="11.20856719689891"><ele>228.0</ele><time>2026-04-09T09:28:23Z</time></trkpt><trkpt lat="43.5705431759645" lon="11.208386634597268"><ele>228.0</ele><time>2026-04-09T09:28:24Z</time></trkpt><trkpt lat="43.57072588673891" lon="11.208210102687667"><ele>228.0</ele><time>2026-04-09T09:28:25Z</time></trkpt><trkpt lat="43.57091562217563" lon="11.208044632227747"><ele>223.5</ele><time>2026-04-09T09:28:26Z</time></trkpt><trkpt lat="43.57111991320432" lon="11.207898019080117"><ele>219.0</ele><time>2026-04-09T09:28:27Z</time></trkpt><trkpt lat="43.571332567295464" lon="11.207765487675633"><ele>219.0</ele><time>2026-04-09T09:28:28Z</time></trkpt><trkpt lat="43.57154790236396" lon="11.207645380970778"><ele>219.0</ele><time>2026-04-09T09:28:29Z</time></trkpt><trkpt lat="43.57176292355232" lon="11.207527603164765"><ele>219.0</ele><time>2026-04-09T09:28:30Z</time></trkpt><trkpt lat="43.571973897935386" lon="11.207410439098568"><ele>219.0</ele><time>2026-04-09T09:28:31Z</time></trkpt><trkpt lat="43.572190920889376" lon="11.207286982207687"><ele>217.0</ele><time>2026-04-09T09:28:32Z</time></trkpt><trkpt lat="43.572410357806106" lon="11.207163841866283"><ele>215.0</ele><time>2026-04-09T09:28:33Z</time></trkpt><trkpt lat="43.57262650111429" lon="11.207036931044875"><ele>215.0</ele><time>2026-04-09T09:28:34Z</time></trkpt><trkpt lat="43.57284378720187" lon="11.206919037300562"><ele>215.0</ele><time>2026-04-09T09:28:35Z</time></trkpt><trkpt lat="43.57305958747028" lon="11.20679647227848"><ele>217.0</ele><time>2026-04-09T09:28:36Z</time></trkpt><trkpt lat="43.573283124539934" lon="11.206673272695458"><ele>219.0</ele><time>2026-04-09T09:28:37Z</time></trkpt><trkpt lat="43.57349844723929" lon="11.206556459062863"><ele>224.5</ele><time>2026-04-09T09:28:37.999Z</time></trkpt><trkpt lat="43.5737165216472" lon="11.206433096433816"><ele>230.0</ele><time>2026-04-09T09:28:38.999Z</time></trkpt><trkpt lat="43.57393405162914" lon="11.206309428583078"><ele>230.0</ele><time>2026-04-09T09:28:39.999Z</time></trkpt><trkpt lat="43.57415391046488" lon="11.20618926733963"><ele>230.0</ele><time>2026-04-09T09:28:40.999Z</time></trkpt><trkpt lat="43.57437197340883" lon="11.206068088000334"><ele>220.0</ele><time>2026-04-09T09:28:41.999Z</time></trkpt><trkpt lat="43.574591355914386" lon="11.205950761452373"><ele>210.0</ele><time>2026-04-09T09:28:42.999Z</time></trkpt><trkpt lat="43.5748117076958" lon="11.205831533090565"><ele>210.0</ele><time>2026-04-09T09:28:43.999Z</time></trkpt><trkpt lat="43.57502773764016" lon="11.205708059110046"><ele>210.0</ele><time>2026-04-09T09:28:44.999Z</time></trkpt><trkpt lat="43.57524314458631" lon="11.20558592785345"><ele>209.5</ele><time>2026-04-09T09:28:45.999Z</time></trkpt><trkpt lat="43.5754546090976" lon="11.205461632396569"><ele>209.0</ele><time>2026-04-09T09:28:46.999Z</time></trkpt><trkpt lat="43.57566986325286" lon="11.205341727140615"><ele>209.0</ele><time>2026-04-09T09:28:47.999Z</time></trkpt><trkpt lat="43.57588355388421" lon="11.20522531943061"><ele>209.0</ele><time>2026-04-09T09:28:48.999Z</time></trkpt><trkpt lat="43.576102047058754" lon="11.20511469884592"><ele>203.5</ele><time>2026-04-09T09:28:49.999Z</time></trkpt><trkpt lat="43.57632550449021" lon="11.205011830802485"><ele>198.0</ele><time>2026-04-09T09:28:50.999Z</time></trkpt><trkpt lat="43.57654663387155" lon="11.20491556485723"><ele>203.0</ele><time>2026-04-09T09:28:51.999Z</time></trkpt><trkpt lat="43.57677047222375" lon="11.20482342985375"><ele>208.0</ele><time>2026-04-09T09:28:52.999Z</time></trkpt><trkpt lat="43.57699211482375" lon="11.204725890599983"><ele>205.0</ele><time>2026-04-09T09:28:53.999Z</time></trkpt><trkpt lat="43.57721270249277" lon="11.20463429977494"><ele>202.0</ele><time>2026-04-09T09:28:54.999Z</time></trkpt><trkpt lat="43.57743525164056" lon="11.20454969706274"><ele>202.0</ele><time>2026-04-09T09:28:55.999Z</time></trkpt><trkpt lat="43.577659483010905" lon="11.204469877335683"><ele>202.0</ele><time>2026-04-09T09:28:56.999Z</time></trkpt><trkpt lat="43.57788433519962" lon="11.204389692197726"><ele>199.0</ele><time>2026-04-09T09:28:58Z</time></trkpt><trkpt lat="43.57810795982367" lon="11.204315759545173"><ele>196.0</ele><time>2026-04-09T09:28:59Z</time></trkpt><trkpt lat="43.578332744612794" lon="11.204244756297811"><ele>196.0</ele><time>2026-04-09T09:29:00Z</time></trkpt><trkpt lat="43.578553769437825" lon="11.204179837052514"><ele>196.0</ele><time>2026-04-09T09:29:01Z</time></trkpt><trkpt lat="43.578780572281985" lon="11.204109589428175"><ele>191.5</ele><time>2026-04-09T09:29:02Z</time></trkpt><trkpt lat="43.579006085061266" lon="11.204040106237153"><ele>187.0</ele><time>2026-04-09T09:29:03Z</time></trkpt><trkpt lat="43.57923509357326" lon="11.203970937512322"><ele>190.5</ele><time>2026-04-09T09:29:04Z</time></trkpt><trkpt lat="43.57946702035983" lon="11.203902165622859"><ele>194.0</ele><time>2026-04-09T09:29:05Z</time></trkpt><trkpt lat="43.57970253406458" lon="11.203831586927105"><ele>194.0</ele><time>2026-04-09T09:29:06Z</time></trkpt><trkpt lat="43.5799403339425" lon="11.203758865894509"><ele>194.0</ele><time>2026-04-09T09:29:07Z</time></trkpt><trkpt lat="43.58018019006244" lon="11.20368717602305"><ele>189.5</ele><time>2026-04-09T09:29:08Z</time></trkpt><trkpt lat="43.580415492725265" lon="11.203614715365136"><ele>185.0</ele><time>2026-04-09T09:29:09Z</time></trkpt><trkpt lat="43.580645815371724" lon="11.203546166173474"><ele>185.0</ele><time>2026-04-09T09:29:10Z</time></trkpt><trkpt lat="43.580869101891324" lon="11.20347583136948"><ele>185.0</ele><time>2026-04-09T09:29:11Z</time></trkpt><trkpt lat="43.5810976010964" lon="11.203405168555959"><ele>182.5</ele><time>2026-04-09T09:29:12Z</time></trkpt><trkpt lat="43.58132478126625" lon="11.203338374145975"><ele>180.0</ele><time>2026-04-09T09:29:13Z</time></trkpt><trkpt lat="43.58155360863963" lon="11.203266668158532"><ele>180.0</ele><time>2026-04-09T09:29:14Z</time></trkpt><trkpt lat="43.581779746727555" lon="11.203198039726537"><ele>180.0</ele><time>2026-04-09T09:29:15Z</time></trkpt><trkpt lat="43.582004669753495" lon="11.203128937436695"><ele>181.0</ele><time>2026-04-09T09:29:16Z</time></trkpt><trkpt lat="43.58223098239218" lon="11.203062987524534"><ele>182.0</ele><time>2026-04-09T09:29:17Z</time></trkpt><trkpt lat="43.58245728317239" lon="11.202994588843783"><ele>182.0</ele><time>2026-04-09T09:29:18Z</time></trkpt><trkpt lat="43.58268400883693" lon="11.202926355617464"><ele>182.0</ele><time>2026-04-09T09:29:19Z</time></trkpt><trkpt lat="43.58290690242274" lon="11.202860366458236"><ele>179.0</ele><time>2026-04-09T09:29:20Z</time></trkpt><trkpt lat="43.583132501149784" lon="11.202791336453412"><ele>176.0</ele><time>2026-04-09T09:29:21Z</time></trkpt><trkpt lat="43.583354062351006" lon="11.202724069940517"><ele>176.0</ele><time>2026-04-09T09:29:22Z</time></trkpt><trkpt lat="43.58357883773221" lon="11.202652331785957"><ele>176.0</ele><time>2026-04-09T09:29:23Z</time></trkpt><trkpt lat="43.58380976360392" lon="11.202577301121636"><ele>175.0</ele><time>2026-04-09T09:29:24Z</time></trkpt><trkpt lat="43.584042103381876" lon="11.202500617785047"><ele>174.0</ele><time>2026-04-09T09:29:25Z</time></trkpt><trkpt lat="43.584273730694264" lon="11.202425087651058"><ele>173.5</ele><time>2026-04-09T09:29:26Z</time></trkpt><trkpt lat="43.58451548363652" lon="11.202349920304803"><ele>173.0</ele><time>2026-04-09T09:29:27Z</time></trkpt><trkpt lat="43.584757166682714" lon="11.202274361732972"><ele>174.0</ele><time>2026-04-09T09:29:28Z</time></trkpt><trkpt lat="43.58500034645468" lon="11.202200506988133"><ele>175.0</ele><time>2026-04-09T09:29:29Z</time></trkpt><trkpt lat="43.58525000592701" lon="11.20212637596654"><ele>175.0</ele><time>2026-04-09T09:29:30Z</time></trkpt><trkpt lat="43.58549919404302" lon="11.202053169500127"><ele>175.0</ele><time>2026-04-09T09:29:31Z</time></trkpt><trkpt lat="43.58575091116919" lon="11.201976031878234"><ele>175.0</ele><time>2026-04-09T09:29:32Z</time></trkpt><trkpt lat="43.58598672061596" lon="11.20190650295247"><ele>175.0</ele><time>2026-04-09T09:29:33Z</time></trkpt><trkpt lat="43.586216613047036" lon="11.20183191060521"><ele>172.5</ele><time>2026-04-09T09:29:34Z</time></trkpt><trkpt lat="43.58645162195208" lon="11.201752087018248"><ele>170.0</ele><time>2026-04-09T09:29:35Z</time></trkpt><trkpt lat="43.58669240560132" lon="11.201686088356832"><ele>170.0</ele><time>2026-04-09T09:29:36Z</time></trkpt><trkpt lat="43.58692586762531" lon="11.201611867095563"><ele>170.0</ele><time>2026-04-09T09:29:37Z</time></trkpt><trkpt lat="43.58716967940812" lon="11.201539564347055"><ele>169.5</ele><time>2026-04-09T09:29:38Z</time></trkpt><trkpt lat="43.5874081567239" lon="11.201464334945276"><ele>169.0</ele><time>2026-04-09T09:29:39Z</time></trkpt><trkpt lat="43.58762932424227" lon="11.201387264831286"><ele>169.0</ele><time>2026-04-09T09:29:40Z</time></trkpt><trkpt lat="43.587842935759724" lon="11.201306139175484"><ele>169.0</ele><time>2026-04-09T09:29:41Z</time></trkpt><trkpt lat="43.58805430582842" lon="11.201215456422048"><ele>169.0</ele><time>2026-04-09T09:29:42Z</time></trkpt><trkpt lat="43.588266130452304" lon="11.201122343242563"><ele>167.66666666666669</ele><time>2026-04-09T09:29:43Z</time></trkpt><trkpt lat="43.58847511035925" lon="11.20102338725232"><ele>166.33333333333334</ele><time>2026-04-09T09:29:44Z</time></trkpt><trkpt lat="43.5886847135257" lon="11.20092143652579"><ele>165.0</ele><time>2026-04-09T09:29:45Z</time></trkpt><trkpt lat="43.58890003081598" lon="11.200816293482811"><ele>165.0</ele><time>2026-04-09T09:29:46Z</time></trkpt><trkpt lat="43.58911819743631" lon="11.200708585116379"><ele>165.0</ele><time>2026-04-09T09:29:47Z</time></trkpt><trkpt lat="43.58934007032443" lon="11.200595754436215"><ele>163.0</ele><time>2026-04-09T09:29:48Z</time></trkpt><trkpt lat="43.58956309007829" lon="11.200484519084505"><ele>161.0</ele><time>2026-04-09T09:29:49Z</time></trkpt><trkpt lat="43.58978835842216" lon="11.200372331959791"><ele>161.0</ele><time>2026-04-09T09:29:50Z</time></trkpt><trkpt lat="43.59001415933703" lon="11.200258864506988"><ele>161.0</ele><time>2026-04-09T09:29:51Z</time></trkpt><trkpt lat="43.59023980887222" lon="11.200145975743911"><ele>160.66666666666666</ele><time>2026-04-09T09:29:52Z</time></trkpt><trkpt lat="43.59045021637465" lon="11.200040000220756"><ele>160.33333333333334</ele><time>2026-04-09T09:29:53Z</time></trkpt><trkpt lat="43.59065632748301" lon="11.199931915341843"><ele>160.0</ele><time>2026-04-09T09:29:54Z</time></trkpt><trkpt lat="43.59087497845581" lon="11.199827155030952"><ele>160.5</ele><time>2026-04-09T09:29:55Z</time></trkpt><trkpt lat="43.5910979782397" lon="11.199718115342655"><ele>161.0</ele><time>2026-04-09T09:29:56Z</time></trkpt><trkpt lat="43.59132096189392" lon="11.199605615917282"><ele>161.0</ele><time>2026-04-09T09:29:57Z</time></trkpt><trkpt lat="43.59154904606312" lon="11.199495036325848"><ele>161.0</ele><time>2026-04-09T09:29:58Z</time></trkpt><trkpt lat="43.59177456673614" lon="11.199379762615951"><ele>161.0</ele><time>2026-04-09T09:29:59Z</time></trkpt><trkpt lat="43.59200239633206" lon="11.199263037409922"><ele>161.0</ele><time>2026-04-09T09:30:00Z</time></trkpt><trkpt lat="43.59221762903139" lon="11.19914997442346"><ele>161.0</ele><time>2026-04-09T09:30:01Z</time></trkpt><trkpt lat="43.59242559158873" lon="11.199038181067895"><ele>161.0</ele><time>2026-04-09T09:30:02Z</time></trkpt><trkpt lat="43.59263415400466" lon="11.198923289781392"><ele>161.0</ele><time>2026-04-09T09:30:03Z</time></trkpt><trkpt lat="43.592852104906896" lon="11.198791955088902"><ele>162.0</ele><time>2026-04-09T09:30:04Z</time></trkpt><trkpt lat="43.59306887962638" lon="11.198648781295272"><ele>163.0</ele><time>2026-04-09T09:30:05Z</time></trkpt><trkpt lat="43.59326845453057" lon="11.19850191360416"><ele>163.0</ele><time>2026-04-09T09:30:06Z</time></trkpt><trkpt lat="43.593458399618626" lon="11.198351455990966"><ele>163.0</ele><time>2026-04-09T09:30:07Z</time></trkpt><trkpt lat="43.59364210286089" lon="11.198208476519907"><ele>163.0</ele><time>2026-04-09T09:30:08Z</time></trkpt><trkpt lat="43.59380539204062" lon="11.198063205232547"><ele>162.66666666666669</ele><time>2026-04-09T09:30:09Z</time></trkpt><trkpt lat="43.593926007084185" lon="11.197942326520856"><ele>162.33333333333334</ele><time>2026-04-09T09:30:10Z</time></trkpt><trkpt lat="43.59402452907918" lon="11.197819391934763"><ele>162.0</ele><time>2026-04-09T09:30:11Z</time></trkpt><trkpt lat="43.594422278279566" lon="11.197530330446638"><ele>161.0</ele><time>2026-04-09T09:30:12Z</time></trkpt><trkpt lat="43.59462334436511" lon="11.197338335753509"><ele>160.0</ele><time>2026-04-09T09:30:13Z</time></trkpt><trkpt lat="43.59482534671349" lon="11.197153195313696"><ele>160.0</ele><time>2026-04-09T09:30:14Z</time></trkpt><trkpt lat="43.5950095214733" lon="11.19697676575626"><ele>160.0</ele><time>2026-04-09T09:30:15Z</time></trkpt><trkpt lat="43.59518844109338" lon="11.196814468969725"><ele>160.0</ele><time>2026-04-09T09:30:16Z</time></trkpt><trkpt lat="43.595368579281626" lon="11.19665588914545"><ele>160.33333333333334</ele><time>2026-04-09T09:30:17Z</time></trkpt><trkpt lat="43.5955510765978" lon="11.196484586439878"><ele>160.66666666666666</ele><time>2026-04-09T09:30:18Z</time></trkpt><trkpt lat="43.595734257034344" lon="11.196310144346656"><ele>161.0</ele><time>2026-04-09T09:30:19Z</time></trkpt><trkpt lat="43.59592996769683" lon="11.196139126045495"><ele>161.0</ele><time>2026-04-09T09:30:20Z</time></trkpt><trkpt lat="43.59612329347536" lon="11.195956425724301"><ele>161.0</ele><time>2026-04-09T09:30:21Z</time></trkpt><trkpt lat="43.596327755275155" lon="11.195777095646188"><ele>162.0</ele><time>2026-04-09T09:30:22Z</time></trkpt><trkpt lat="43.59653424441951" lon="11.195584121567784"><ele>163.0</ele><time>2026-04-09T09:30:23Z</time></trkpt><trkpt lat="43.596739607920675" lon="11.195388702370927"><ele>163.0</ele><time>2026-04-09T09:30:24Z</time></trkpt><trkpt lat="43.596933035170316" lon="11.19520955200622"><ele>163.0</ele><time>2026-04-09T09:30:25Z</time></trkpt><trkpt lat="43.5971263958106" lon="11.19503775432645"><ele>160.5</ele><time>2026-04-09T09:30:26Z</time></trkpt><trkpt lat="43.59732399571994" lon="11.194865382043904"><ele>158.0</ele><time>2026-04-09T09:30:26.999Z</time></trkpt><trkpt lat="43.59752158634257" lon="11.194708781863948"><ele>158.0</ele><time>2026-04-09T09:30:27.999Z</time></trkpt><trkpt lat="43.597717712419346" lon="11.194571481357041"><ele>158.0</ele><time>2026-04-09T09:30:28.999Z</time></trkpt><trkpt lat="43.597929919552215" lon="11.194437518467577"><ele>155.5</ele><time>2026-04-09T09:30:29.999Z</time></trkpt><trkpt lat="43.59815346232169" lon="11.194300568651267"><ele>153.0</ele><time>2026-04-09T09:30:30.999Z</time></trkpt><trkpt lat="43.598382377864034" lon="11.194164182725592"><ele>153.0</ele><time>2026-04-09T09:30:31.999Z</time></trkpt><trkpt lat="43.59861273220041" lon="11.194037069312275"><ele>153.0</ele><time>2026-04-09T09:30:32.999Z</time></trkpt><trkpt lat="43.59884963665826" lon="11.193917108165467"><ele>152.0</ele><time>2026-04-09T09:30:33.999Z</time></trkpt><trkpt lat="43.59909605320608" lon="11.193804760863431"><ele>151.0</ele><time>2026-04-09T09:30:34.999Z</time></trkpt><trkpt lat="43.59934018138387" lon="11.193720846790583"><ele>151.5</ele><time>2026-04-09T09:30:35.999Z</time></trkpt><trkpt lat="43.5995590641097" lon="11.19364159824091"><ele>152.0</ele><time>2026-04-09T09:30:36.999Z</time></trkpt><trkpt lat="43.599778882929385" lon="11.193551733638545"><ele>152.0</ele><time>2026-04-09T09:30:37.999Z</time></trkpt><trkpt lat="43.599999550174026" lon="11.193468261086288"><ele>152.0</ele><time>2026-04-09T09:30:38.999Z</time></trkpt><trkpt lat="43.600223835672615" lon="11.193373878998157"><ele>152.0</ele><time>2026-04-09T09:30:39.999Z</time></trkpt><trkpt lat="43.60045236619568" lon="11.193275024417531"><ele>152.0</ele><time>2026-04-09T09:30:40.999Z</time></trkpt><trkpt lat="43.6006699047459" lon="11.193188569671479"><ele>152.0</ele><time>2026-04-09T09:30:41.999Z</time></trkpt><trkpt lat="43.60087049879598" lon="11.193115196750917"><ele>152.0</ele><time>2026-04-09T09:30:42.999Z</time></trkpt><trkpt lat="43.6010783564945" lon="11.193028582642523"><ele>152.0</ele><time>2026-04-09T09:30:43.999Z</time></trkpt><trkpt lat="43.601284839612696" lon="11.19293924091613"><ele>151.66666666666666</ele><time>2026-04-09T09:30:44.999Z</time></trkpt><trkpt lat="43.601503010875106" lon="11.192849636959645"><ele>151.33333333333334</ele><time>2026-04-09T09:30:45.999Z</time></trkpt><trkpt lat="43.601714452993434" lon="11.192763926177763"><ele>151.0</ele><time>2026-04-09T09:30:46.999Z</time></trkpt><trkpt lat="43.60192972376034" lon="11.192682226535338"><ele>150.0</ele><time>2026-04-09T09:30:47.999Z</time></trkpt><trkpt lat="43.60214934729777" lon="11.19259420364189"><ele>149.0</ele><time>2026-04-09T09:30:48.999Z</time></trkpt><trkpt lat="43.602373124865366" lon="11.192501713198649"><ele>149.0</ele><time>2026-04-09T09:30:49.999Z</time></trkpt><trkpt lat="43.60259538252465" lon="11.192408424643206"><ele>149.0</ele><time>2026-04-09T09:30:50.999Z</time></trkpt><trkpt lat="43.60282205023065" lon="11.192315762774202"><ele>150.0</ele><time>2026-04-09T09:30:51.999Z</time></trkpt><trkpt lat="43.60304814880553" lon="11.192221566422027"><ele>151.0</ele><time>2026-04-09T09:30:52.999Z</time></trkpt><trkpt lat="43.60328065016677" lon="11.192124405522607"><ele>151.0</ele><time>2026-04-09T09:30:53.999Z</time></trkpt><trkpt lat="43.60351564546091" lon="11.192029138105433"><ele>151.0</ele><time>2026-04-09T09:30:54.999Z</time></trkpt><trkpt lat="43.603748710684584" lon="11.1919372140598"><ele>151.0</ele><time>2026-04-09T09:30:55.999Z</time></trkpt><trkpt lat="43.60398284648062" lon="11.191848081940872"><ele>151.0</ele><time>2026-04-09T09:30:56.999Z</time></trkpt><trkpt lat="43.60420140624567" lon="11.191772578141018"><ele>151.0</ele><time>2026-04-09T09:30:57.999Z</time></trkpt><trkpt lat="43.60441957395638" lon="11.191710355905938"><ele>151.0</ele><time>2026-04-09T09:30:58.999Z</time></trkpt><trkpt lat="43.60464405541405" lon="11.191651199733686"><ele>151.0</ele><time>2026-04-09T09:30:59.999Z</time></trkpt><trkpt lat="43.60487369884105" lon="11.191599293978346"><ele>151.0</ele><time>2026-04-09T09:31:00.999Z</time></trkpt><trkpt lat="43.60510667374186" lon="11.191559035750155"><ele>150.5</ele><time>2026-04-09T09:31:01.999Z</time></trkpt><trkpt lat="43.60534159144371" lon="11.191517772798363"><ele>150.0</ele><time>2026-04-09T09:31:02.999Z</time></trkpt><trkpt lat="43.60558055938125" lon="11.191492400284393"><ele>148.5</ele><time>2026-04-09T09:31:04Z</time></trkpt><trkpt lat="43.60581962395307" lon="11.191464555171693"><ele>147.0</ele><time>2026-04-09T09:31:05Z</time></trkpt><trkpt lat="43.60606138031258" lon="11.191438968105361"><ele>146.5</ele><time>2026-04-09T09:31:06Z</time></trkpt><trkpt lat="43.606305714819236" lon="11.191414659216065"><ele>146.0</ele><time>2026-04-09T09:31:07Z</time></trkpt><trkpt lat="43.60655030066457" lon="11.1913859507044"><ele>146.0</ele><time>2026-04-09T09:31:08Z</time></trkpt><trkpt lat="43.606783311743" lon="11.191361714187721"><ele>146.0</ele><time>2026-04-09T09:31:09Z</time></trkpt><trkpt lat="43.607006991386804" lon="11.191334937214698"><ele>145.5</ele><time>2026-04-09T09:31:10Z</time></trkpt><trkpt lat="43.60722841803835" lon="11.191308211852975"><ele>145.0</ele><time>2026-04-09T09:31:11Z</time></trkpt><trkpt lat="43.60745700875263" lon="11.191283487428967"><ele>145.0</ele><time>2026-04-09T09:31:12Z</time></trkpt><trkpt lat="43.60768714686391" lon="11.191257485657731"><ele>145.0</ele><time>2026-04-09T09:31:13Z</time></trkpt><trkpt lat="43.607919688960784" lon="11.191232253511885"><ele>146.0</ele><time>2026-04-09T09:31:14Z</time></trkpt><trkpt lat="43.60815318021956" lon="11.191205956297717"><ele>147.0</ele><time>2026-04-09T09:31:15Z</time></trkpt><trkpt lat="43.60838759721422" lon="11.191181116651167"><ele>147.0</ele><time>2026-04-09T09:31:16Z</time></trkpt><trkpt lat="43.6086232649511" lon="11.19115398472865"><ele>147.0</ele><time>2026-04-09T09:31:17Z</time></trkpt><trkpt lat="43.608860581345375" lon="11.191125071236746"><ele>147.0</ele><time>2026-04-09T09:31:18Z</time></trkpt><trkpt lat="43.609098451008" lon="11.191097117204887"><ele>147.0</ele><time>2026-04-09T09:31:19Z</time></trkpt><trkpt lat="43.60933931091735" lon="11.19106822896706"><ele>145.5</ele><time>2026-04-09T09:31:20Z</time></trkpt><trkpt lat="43.60957825110832" lon="11.191036701815266"><ele>144.0</ele><time>2026-04-09T09:31:21Z</time></trkpt><trkpt lat="43.60982527696767" lon="11.191007311733772"><ele>144.0</ele><time>2026-04-09T09:31:22Z</time></trkpt><trkpt lat="43.6100678712612" lon="11.190979648680553"><ele>144.0</ele><time>2026-04-09T09:31:23Z</time></trkpt><trkpt lat="43.61030882529833" lon="11.190958819024454"><ele>143.5</ele><time>2026-04-09T09:31:24Z</time></trkpt><trkpt lat="43.61053674506541" lon="11.190929193129449"><ele>143.0</ele><time>2026-04-09T09:31:25Z</time></trkpt><trkpt lat="43.61075926506588" lon="11.190903572888011"><ele>143.0</ele><time>2026-04-09T09:31:26Z</time></trkpt><trkpt lat="43.61098690109977" lon="11.190878379207875"><ele>143.0</ele><time>2026-04-09T09:31:27Z</time></trkpt><trkpt lat="43.61121871272127" lon="11.190852290360068"><ele>143.5</ele><time>2026-04-09T09:31:28Z</time></trkpt><trkpt lat="43.61144873618282" lon="11.1908231332164"><ele>144.0</ele><time>2026-04-09T09:31:29Z</time></trkpt><trkpt lat="43.611677974424126" lon="11.190788434409715"><ele>144.0</ele><time>2026-04-09T09:31:30Z</time></trkpt><trkpt lat="43.611903570120546" lon="11.190747890695127"><ele>144.0</ele><time>2026-04-09T09:31:31Z</time></trkpt><trkpt lat="43.61213042050122" lon="11.190695264230152"><ele>143.5</ele><time>2026-04-09T09:31:32Z</time></trkpt><trkpt lat="43.61235342962889" lon="11.190635660304729"><ele>143.0</ele><time>2026-04-09T09:31:33Z</time></trkpt><trkpt lat="43.61258070686999" lon="11.19056140371331"><ele>143.0</ele><time>2026-04-09T09:31:34Z</time></trkpt><trkpt lat="43.61280969345148" lon="11.190480517324898"><ele>143.0</ele><time>2026-04-09T09:31:35Z</time></trkpt><trkpt lat="43.61303033535136" lon="11.190395820552794"><ele>143.5</ele><time>2026-04-09T09:31:36Z</time></trkpt><trkpt lat="43.61325160835267" lon="11.190299979385603"><ele>144.0</ele><time>2026-04-09T09:31:37Z</time></trkpt><trkpt lat="43.613471608167515" lon="11.19020010935669"><ele>144.0</ele><time>2026-04-09T09:31:38Z</time></trkpt><trkpt lat="43.613691247973165" lon="11.190092265196034"><ele>144.0</ele><time>2026-04-09T09:31:39Z</time></trkpt><trkpt lat="43.61390983880194" lon="11.189978955333073"><ele>144.0</ele><time>2026-04-09T09:31:40Z</time></trkpt><trkpt lat="43.61412589133226" lon="11.189857457382217"><ele>144.0</ele><time>2026-04-09T09:31:41Z</time></trkpt><trkpt lat="43.61434040269726" lon="11.189728837646992"><ele>142.5</ele><time>2026-04-09T09:31:42Z</time></trkpt><trkpt lat="43.61455208520705" lon="11.189606884810443"><ele>141.0</ele><time>2026-04-09T09:31:43Z</time></trkpt><trkpt lat="43.61477267504123" lon="11.189487743385293"><ele>141.0</ele><time>2026-04-09T09:31:44Z</time></trkpt><trkpt lat="43.61498842365258" lon="11.189364182808932"><ele>141.0</ele><time>2026-04-09T09:31:45Z</time></trkpt><trkpt lat="43.61520156761731" lon="11.189241004151924"><ele>141.5</ele><time>2026-04-09T09:31:46Z</time></trkpt><trkpt lat="43.61542245062577" lon="11.189112319093413"><ele>142.0</ele><time>2026-04-09T09:31:47Z</time></trkpt><trkpt lat="43.61562959621236" lon="11.188989981988941"><ele>142.0</ele><time>2026-04-09T09:31:48Z</time></trkpt><trkpt lat="43.61583635420261" lon="11.188863624513315"><ele>142.0</ele><time>2026-04-09T09:31:49Z</time></trkpt><trkpt lat="43.61604621339775" lon="11.188740878714828"><ele>143.0</ele><time>2026-04-09T09:31:50Z</time></trkpt><trkpt lat="43.61626084878521" lon="11.188617725537764"><ele>144.0</ele><time>2026-04-09T09:31:51Z</time></trkpt><trkpt lat="43.6164734373682" lon="11.188495695455872"><ele>144.0</ele><time>2026-04-09T09:31:52Z</time></trkpt><trkpt lat="43.61668208484871" lon="11.188374729406137"><ele>144.0</ele><time>2026-04-09T09:31:53Z</time></trkpt><trkpt lat="43.61689740861713" lon="11.188251698941263"><ele>142.5</ele><time>2026-04-09T09:31:54Z</time></trkpt><trkpt lat="43.61710367056306" lon="11.188127208969169"><ele>141.0</ele><time>2026-04-09T09:31:55Z</time></trkpt><trkpt lat="43.61731763893373" lon="11.188004858235951"><ele>141.0</ele><time>2026-04-09T09:31:56Z</time></trkpt><trkpt lat="43.6175366651121" lon="11.187892461509492"><ele>141.0</ele><time>2026-04-09T09:31:57Z</time></trkpt><trkpt lat="43.61774724257706" lon="11.187760238937228"><ele>140.5</ele><time>2026-04-09T09:31:58Z</time></trkpt><trkpt lat="43.617953447534" lon="11.187635936850157"><ele>140.0</ele><time>2026-04-09T09:31:59Z</time></trkpt><trkpt lat="43.61817024730631" lon="11.187514437118136"><ele>140.0</ele><time>2026-04-09T09:32:00Z</time></trkpt><trkpt lat="43.61838164400619" lon="11.187394003077808"><ele>140.0</ele><time>2026-04-09T09:32:01Z</time></trkpt><trkpt lat="43.61859645147815" lon="11.187274705149399"><ele>138.5</ele><time>2026-04-09T09:32:02Z</time></trkpt><trkpt lat="43.61881232928981" lon="11.187146730788202"><ele>137.0</ele><time>2026-04-09T09:32:03Z</time></trkpt><trkpt lat="43.619020459005874" lon="11.1870225675813"><ele>137.0</ele><time>2026-04-09T09:32:04Z</time></trkpt><trkpt lat="43.61923764293201" lon="11.186893621206183"><ele>137.0</ele><time>2026-04-09T09:32:05Z</time></trkpt><trkpt lat="43.61945204954605" lon="11.186773520580505"><ele>137.5</ele><time>2026-04-09T09:32:06Z</time></trkpt><trkpt lat="43.61969411679278" lon="11.186707872791779"><ele>138.0</ele><time>2026-04-09T09:32:07Z</time></trkpt><trkpt lat="43.61988034110263" lon="11.186524011745346"><ele>136.5</ele><time>2026-04-09T09:32:08Z</time></trkpt><trkpt lat="43.620091025115265" lon="11.186396316371987"><ele>135.0</ele><time>2026-04-09T09:32:09Z</time></trkpt><trkpt lat="43.62030177252216" lon="11.18627281470058"><ele>135.5</ele><time>2026-04-09T09:32:10Z</time></trkpt><trkpt lat="43.62051305624164" lon="11.186151513490604"><ele>136.0</ele><time>2026-04-09T09:32:11Z</time></trkpt><trkpt lat="43.62072257168146" lon="11.186028961215445"><ele>136.0</ele><time>2026-04-09T09:32:12Z</time></trkpt><trkpt lat="43.62093238415773" lon="11.18591091712404"><ele>136.0</ele><time>2026-04-09T09:32:13Z</time></trkpt><trkpt lat="43.62114445156917" lon="11.185782151957222"><ele>135.5</ele><time>2026-04-09T09:32:14Z</time></trkpt><trkpt lat="43.62134937185032" lon="11.185661560700554"><ele>135.0</ele><time>2026-04-09T09:32:15Z</time></trkpt><trkpt lat="43.62155827288655" lon="11.18553802736947"><ele>135.0</ele><time>2026-04-09T09:32:16Z</time></trkpt><trkpt lat="43.6217674887853" lon="11.185417975210528"><ele>135.0</ele><time>2026-04-09T09:32:17Z</time></trkpt><trkpt lat="43.62197594889329" lon="11.185293958193029"><ele>135.0</ele><time>2026-04-09T09:32:18Z</time></trkpt><trkpt lat="43.62218374420942" lon="11.185172374178391"><ele>135.0</ele><time>2026-04-09T09:32:19Z</time></trkpt><trkpt lat="43.622393169048685" lon="11.185047965222413"><ele>135.0</ele><time>2026-04-09T09:32:19.999Z</time></trkpt><trkpt lat="43.62260172664377" lon="11.184924900571172"><ele>135.0</ele><time>2026-04-09T09:32:20.999Z</time></trkpt><trkpt lat="43.62281369701849" lon="11.18480075345629"><ele>136.0</ele><time>2026-04-09T09:32:21.999Z</time></trkpt><trkpt lat="43.62302889977367" lon="11.184682139973694"><ele>137.0</ele><time>2026-04-09T09:32:22.999Z</time></trkpt><trkpt lat="43.62324376304931" lon="11.184554863767769"><ele>137.0</ele><time>2026-04-09T09:32:23.999Z</time></trkpt><trkpt lat="43.62345959867837" lon="11.18442770181136"><ele>137.0</ele><time>2026-04-09T09:32:24.999Z</time></trkpt><trkpt lat="43.62366760968297" lon="11.184306006421563"><ele>138.5</ele><time>2026-04-09T09:32:25.999Z</time></trkpt><trkpt lat="43.62388568438648" lon="11.184182491794402"><ele>140.0</ele><time>2026-04-09T09:32:26.999Z</time></trkpt><trkpt lat="43.624099985714906" lon="11.184060871023965"><ele>139.0</ele><time>2026-04-09T09:32:28Z</time></trkpt><trkpt lat="43.62431879018834" lon="11.183944704302968"><ele>138.0</ele><time>2026-04-09T09:32:28.999Z</time></trkpt><trkpt lat="43.62454185229215" lon="11.183836778664192"><ele>138.0</ele><time>2026-04-09T09:32:29.999Z</time></trkpt><trkpt lat="43.624760660283506" lon="11.18373710952803"><ele>138.0</ele><time>2026-04-09T09:32:30.999Z</time></trkpt><trkpt lat="43.62499576870283" lon="11.183646522802713"><ele>138.0</ele><time>2026-04-09T09:32:31.999Z</time></trkpt><trkpt lat="43.62522555455921" lon="11.183566021554936"><ele>138.0</ele><time>2026-04-09T09:32:32.999Z</time></trkpt><trkpt lat="43.625459040946325" lon="11.183492961700257"><ele>139.0</ele><time>2026-04-09T09:32:33.999Z</time></trkpt><trkpt lat="43.625689811459445" lon="11.183428426418319"><ele>140.0</ele><time>2026-04-09T09:32:34.999Z</time></trkpt><trkpt lat="43.62592501585644" lon="11.183368805515812"><ele>139.0</ele><time>2026-04-09T09:32:35.999Z</time></trkpt><trkpt lat="43.62616381961092" lon="11.183322915592473"><ele>138.0</ele><time>2026-04-09T09:32:36.999Z</time></trkpt><trkpt lat="43.62640701157556" lon="11.183271612737705"><ele>138.0</ele><time>2026-04-09T09:32:37.999Z</time></trkpt><trkpt lat="43.62664254716012" lon="11.183243275769211"><ele>138.0</ele><time>2026-04-09T09:32:38.999Z</time></trkpt><trkpt lat="43.62687339122186" lon="11.183217834296906"><ele>138.0</ele><time>2026-04-09T09:32:39.999Z</time></trkpt><trkpt lat="43.627097067266995" lon="11.18320189697986"><ele>138.0</ele><time>2026-04-09T09:32:40.999Z</time></trkpt><trkpt lat="43.62731913815562" lon="11.183196465511957"><ele>138.0</ele><time>2026-04-09T09:32:41.999Z</time></trkpt><trkpt lat="43.62754608855254" lon="11.183206004740882"><ele>138.0</ele><time>2026-04-09T09:32:42.999Z</time></trkpt><trkpt lat="43.62777441859835" lon="11.18320718016265"><ele>138.0</ele><time>2026-04-09T09:32:43.999Z</time></trkpt><trkpt lat="43.628004258074604" lon="11.183215627806064"><ele>138.0</ele><time>2026-04-09T09:32:44.999Z</time></trkpt><trkpt lat="43.62822708442078" lon="11.183223337275903"><ele>138.0</ele><time>2026-04-09T09:32:45.999Z</time></trkpt><trkpt lat="43.6284518004583" lon="11.183226804405333"><ele>138.0</ele><time>2026-04-09T09:32:46.999Z</time></trkpt><trkpt lat="43.62841040805386" lon="11.182802859794474"><ele>140.0</ele><time>2026-04-09T09:32:47.999Z</time></trkpt><trkpt lat="43.62890146921471" lon="11.183242727947722"><ele>140.0</ele><time>2026-04-09T09:32:48.999Z</time></trkpt><trkpt lat="43.629128521802684" lon="11.183247095930241"><ele>140.0</ele><time>2026-04-09T09:32:49.999Z</time></trkpt><trkpt lat="43.629348907902575" lon="11.183255098574454"><ele>140.0</ele><time>2026-04-09T09:32:50.999Z</time></trkpt><trkpt lat="43.62957002882712" lon="11.183264779258153"><ele>141.0</ele><time>2026-04-09T09:32:51.999Z</time></trkpt><trkpt lat="43.62979048712678" lon="11.183271949857861"><ele>142.0</ele><time>2026-04-09T09:32:52.999Z</time></trkpt><trkpt lat="43.63001066191271" lon="11.183271802190239"><ele>143.0</ele><time>2026-04-09T09:32:53.999Z</time></trkpt><trkpt lat="43.63023912471339" lon="11.183272168507928"><ele>145.0</ele><time>2026-04-09T09:32:54.999Z</time></trkpt><trkpt lat="43.63049588259086" lon="11.183262269939473"><ele>147.0</ele><time>2026-04-09T09:32:55.999Z</time></trkpt><trkpt lat="43.630761634789835" lon="11.183209530313334"><ele>142.0</ele><time>2026-04-09T09:32:56.999Z</time></trkpt><trkpt lat="43.63103022653508" lon="11.183120786215742"><ele>137.0</ele><time>2026-04-09T09:32:57.999Z</time></trkpt><trkpt lat="43.63131209472495" lon="11.183025382777734"><ele>137.0</ele><time>2026-04-09T09:32:58.999Z</time></trkpt><trkpt lat="43.63129968898072" lon="11.183176992268914"><ele>137.0</ele><time>2026-04-09T09:32:59.999Z</time></trkpt><trkpt lat="43.63151180669895" lon="11.183122109102863"><ele>137.0</ele><time>2026-04-09T09:33:00.999Z</time></trkpt><trkpt lat="43.63172231842721" lon="11.183056354901867"><ele>137.0</ele><time>2026-04-09T09:33:01.999Z</time></trkpt><trkpt lat="43.631934751285456" lon="11.182986581812154"><ele>137.0</ele><time>2026-04-09T09:33:02.999Z</time></trkpt><trkpt lat="43.63214482638069" lon="11.182916535358611"><ele>137.0</ele><time>2026-04-09T09:33:03.999Z</time></trkpt><trkpt lat="43.63235429719774" lon="11.182833481831931"><ele>139.66666666666666</ele><time>2026-04-09T09:33:04.999Z</time></trkpt><trkpt lat="43.63256111304618" lon="11.18274315409558"><ele>142.33333333333334</ele><time>2026-04-09T09:33:05.999Z</time></trkpt><trkpt lat="43.63276843183776" lon="11.182645795179907"><ele>145.0</ele><time>2026-04-09T09:33:06.999Z</time></trkpt><trkpt lat="43.63297299681112" lon="11.182539858934565"><ele>145.66666666666669</ele><time>2026-04-09T09:33:07.999Z</time></trkpt><trkpt lat="43.633176275767525" lon="11.182421927362578"><ele>146.33333333333334</ele><time>2026-04-09T09:33:08.999Z</time></trkpt><trkpt lat="43.63337070644347" lon="11.182289914106256"><ele>147.0</ele><time>2026-04-09T09:33:10Z</time></trkpt><trkpt lat="43.63356624805433" lon="11.182150228732427"><ele>143.33333333333334</ele><time>2026-04-09T09:33:11Z</time></trkpt><trkpt lat="43.633760410306486" lon="11.182012178700516"><ele>139.66666666666669</ele><time>2026-04-09T09:33:12Z</time></trkpt><trkpt lat="43.63396149892231" lon="11.181879891917879"><ele>136.0</ele><time>2026-04-09T09:33:13Z</time></trkpt><trkpt lat="43.6341594523391" lon="11.181743023884458"><ele>136.0</ele><time>2026-04-09T09:33:14Z</time></trkpt><trkpt lat="43.634359089800896" lon="11.18160268609724"><ele>136.0</ele><time>2026-04-09T09:33:15Z</time></trkpt><trkpt lat="43.634564365992276" lon="11.181469584387127"><ele>138.0</ele><time>2026-04-09T09:33:16Z</time></trkpt><trkpt lat="43.63476732562682" lon="11.181332684432675"><ele>140.0</ele><time>2026-04-09T09:33:17Z</time></trkpt><trkpt lat="43.634972413930264" lon="11.181203134462116"><ele>140.0</ele><time>2026-04-09T09:33:18Z</time></trkpt><trkpt lat="43.63517863615955" lon="11.181068045453591"><ele>140.0</ele><time>2026-04-09T09:33:19Z</time></trkpt><trkpt lat="43.63538301931773" lon="11.180935932825674"><ele>141.0</ele><time>2026-04-09T09:33:20Z</time></trkpt><trkpt lat="43.635586892997125" lon="11.180806860920022"><ele>142.0</ele><time>2026-04-09T09:33:21Z</time></trkpt><trkpt lat="43.635796292681384" lon="11.180682128894988"><ele>142.0</ele><time>2026-04-09T09:33:22Z</time></trkpt><trkpt lat="43.636000087428336" lon="11.180556221568997"><ele>142.0</ele><time>2026-04-09T09:33:23Z</time></trkpt><trkpt lat="43.63620653321324" lon="11.180443809677573"><ele>142.0</ele><time>2026-04-09T09:33:24Z</time></trkpt><trkpt lat="43.63641281943744" lon="11.180338413555821"><ele>147.33333333333334</ele><time>2026-04-09T09:33:25Z</time></trkpt><trkpt lat="43.63662210398368" lon="11.180235618805975"><ele>152.66666666666666</ele><time>2026-04-09T09:33:26Z</time></trkpt><trkpt lat="43.636830622701055" lon="11.180140586198364"><ele>158.0</ele><time>2026-04-09T09:33:27Z</time></trkpt><trkpt lat="43.63704443949219" lon="11.180042882891644"><ele>163.5</ele><time>2026-04-09T09:33:28Z</time></trkpt><trkpt lat="43.63726400384302" lon="11.179947806773464"><ele>169.0</ele><time>2026-04-09T09:33:29Z</time></trkpt><trkpt lat="43.637481504333884" lon="11.179850322362915"><ele>168.0</ele><time>2026-04-09T09:33:29.999Z</time></trkpt><trkpt lat="43.63770819045371" lon="11.179760805971753"><ele>167.0</ele><time>2026-04-09T09:33:30.999Z</time></trkpt><trkpt lat="43.63793578545472" lon="11.179669102224246"><ele>167.0</ele><time>2026-04-09T09:33:31.999Z</time></trkpt><trkpt lat="43.63817390415872" lon="11.179577809280488"><ele>167.0</ele><time>2026-04-09T09:33:32.999Z</time></trkpt><trkpt lat="43.638390990636154" lon="11.179498320858992"><ele>167.0</ele><time>2026-04-09T09:33:33.999Z</time></trkpt><trkpt lat="43.6385980041531" lon="11.179416434110896"><ele>167.0</ele><time>2026-04-09T09:33:34.999Z</time></trkpt><trkpt lat="43.638803142779246" lon="11.179334305083186"><ele>167.0</ele><time>2026-04-09T09:33:35.999Z</time></trkpt><trkpt lat="43.63901535850471" lon="11.179245446029443"><ele>171.5</ele><time>2026-04-09T09:33:36.999Z</time></trkpt><trkpt lat="43.63923363297923" lon="11.179161138261799"><ele>176.0</ele><time>2026-04-09T09:33:37.999Z</time></trkpt><trkpt lat="43.639457411091904" lon="11.179078877621649"><ele>178.33333333333331</ele><time>2026-04-09T09:33:38.999Z</time></trkpt><trkpt lat="43.6396754331439" lon="11.178996206907794"><ele>180.66666666666666</ele><time>2026-04-09T09:33:39.999Z</time></trkpt><trkpt lat="43.63987569040776" lon="11.178919437387618"><ele>183.0</ele><time>2026-04-09T09:33:40.999Z</time></trkpt><trkpt lat="43.64006059784926" lon="11.178849022647995"><ele>183.0</ele><time>2026-04-09T09:33:41.999Z</time></trkpt><trkpt lat="43.64023624574756" lon="11.178782621750585"><ele>183.0</ele><time>2026-04-09T09:33:42.999Z</time></trkpt><trkpt lat="43.64040792242444" lon="11.178717063812583"><ele>183.0</ele><time>2026-04-09T09:33:43.999Z</time></trkpt><trkpt lat="43.64056137295581" lon="11.178659084701001"><ele>180.75</ele><time>2026-04-09T09:33:44.999Z</time></trkpt><trkpt lat="43.64071100949646" lon="11.178602559936587"><ele>178.5</ele><time>2026-04-09T09:33:45.999Z</time></trkpt><trkpt lat="43.64084672153492" lon="11.178547256147308"><ele>176.25</ele><time>2026-04-09T09:33:46.999Z</time></trkpt><trkpt lat="43.64097881423658" lon="11.178500577162929"><ele>174.0</ele><time>2026-04-09T09:33:47.999Z</time></trkpt><trkpt lat="43.64109673305367" lon="11.178460313668383"><ele>176.39999999999998</ele><time>2026-04-09T09:33:48.999Z</time></trkpt><trkpt lat="43.64120613579404" lon="11.178430963736158"><ele>178.8</ele><time>2026-04-09T09:33:49.999Z</time></trkpt><trkpt lat="43.64130418070323" lon="11.178389280133112"><ele>181.2</ele><time>2026-04-09T09:33:50.999Z</time></trkpt><trkpt lat="43.64138658057898" lon="11.178360659694388"><ele>183.60000000000002</ele><time>2026-04-09T09:33:51.999Z</time></trkpt><trkpt lat="43.64146718334684" lon="11.178328168784189"><ele>186.0</ele><time>2026-04-09T09:33:52.999Z</time></trkpt><trkpt lat="43.641549507370726" lon="11.178296585926306"><ele>186.0</ele><time>2026-04-09T09:33:53.999Z</time></trkpt><trkpt lat="43.64164000082761" lon="11.178269827864423"><ele>186.0</ele><time>2026-04-09T09:33:54.999Z</time></trkpt><trkpt lat="43.641741385729176" lon="11.178249800766649"><ele>186.0</ele><time>2026-04-09T09:33:55.999Z</time></trkpt><trkpt lat="43.64186529096364" lon="11.178227828449112"><ele>186.0</ele><time>2026-04-09T09:33:56.999Z</time></trkpt><trkpt lat="43.64200838505684" lon="11.178203553918623"><ele>186.0</ele><time>2026-04-09T09:33:57.999Z</time></trkpt><trkpt lat="43.64218289861872" lon="11.178183486130541"><ele>186.0</ele><time>2026-04-09T09:33:58.999Z</time></trkpt><trkpt lat="43.64236975069739" lon="11.178171883168803"><ele>186.0</ele><time>2026-04-09T09:33:59.999Z</time></trkpt><trkpt lat="43.64254850504907" lon="11.178172912084742"><ele>186.0</ele><time>2026-04-09T09:34:00.999Z</time></trkpt><trkpt lat="43.64271878468392" lon="11.178172576770846"><ele>186.0</ele><time>2026-04-09T09:34:01.999Z</time></trkpt><trkpt lat="43.64290057962853" lon="11.178192550888026"><ele>186.0</ele><time>2026-04-09T09:34:02.999Z</time></trkpt><trkpt lat="43.64306973086212" lon="11.17821182435653"><ele>189.0</ele><time>2026-04-09T09:34:03.999Z</time></trkpt><trkpt lat="43.64325684701792" lon="11.17824431118916"><ele>192.0</ele><time>2026-04-09T09:34:04.999Z</time></trkpt><trkpt lat="43.643438658532794" lon="11.178288926796649"><ele>195.0</ele><time>2026-04-09T09:34:05.999Z</time></trkpt><trkpt lat="43.64362261502315" lon="11.17833563372257"><ele>192.0</ele><time>2026-04-09T09:34:06.999Z</time></trkpt><trkpt lat="43.64380431170323" lon="11.17839980280339"><ele>189.0</ele><time>2026-04-09T09:34:07.999Z</time></trkpt><trkpt lat="43.64400855809986" lon="11.178509309727541"><ele>186.0</ele><time>2026-04-09T09:34:08.999Z</time></trkpt><trkpt lat="43.64421179797863" lon="11.178604197547077"><ele>186.0</ele><time>2026-04-09T09:34:09.999Z</time></trkpt><trkpt lat="43.644402184571426" lon="11.17870578857467"><ele>186.0</ele><time>2026-04-09T09:34:10.999Z</time></trkpt><trkpt lat="43.64458375713255" lon="11.17881737304178"><ele>186.0</ele><time>2026-04-09T09:34:11.999Z</time></trkpt><trkpt lat="43.64475954624622" lon="11.178937404905124"><ele>188.33333333333331</ele><time>2026-04-09T09:34:12.999Z</time></trkpt><trkpt lat="43.644922129846414" lon="11.179081769517689"><ele>190.66666666666666</ele><time>2026-04-09T09:34:13.998Z</time></trkpt><trkpt lat="43.645083924951145" lon="11.179240452291335"><ele>193.0</ele><time>2026-04-09T09:34:14.998Z</time></trkpt><trkpt lat="43.64525702468969" lon="11.179415922869138"><ele>194.0</ele><time>2026-04-09T09:34:15.998Z</time></trkpt><trkpt lat="43.64543463681539" lon="11.1796031518854"><ele>195.0</ele><time>2026-04-09T09:34:16.998Z</time></trkpt><trkpt lat="43.64560946963799" lon="11.179795431424317"><ele>196.0</ele><time>2026-04-09T09:34:17.998Z</time></trkpt><trkpt lat="43.645780555250184" lon="11.179968741696678"><ele>196.0</ele><time>2026-04-09T09:34:18.998Z</time></trkpt><trkpt lat="43.645950593752204" lon="11.180143424976439"><ele>196.0</ele><time>2026-04-09T09:34:19.998Z</time></trkpt><trkpt lat="43.64612771961781" lon="11.180328057225097"><ele>196.0</ele><time>2026-04-09T09:34:20.998Z</time></trkpt><trkpt lat="43.64630087258547" lon="11.180512868234125"><ele>198.0</ele><time>2026-04-09T09:34:21.998Z</time></trkpt><trkpt lat="43.64647497678239" lon="11.180701837879086"><ele>200.0</ele><time>2026-04-09T09:34:22.998Z</time></trkpt><trkpt lat="43.64665175792589" lon="11.180896769391934"><ele>202.0</ele><time>2026-04-09T09:34:23.998Z</time></trkpt><trkpt lat="43.6468331419214" lon="11.181100700205961"><ele>203.33333333333331</ele><time>2026-04-09T09:34:24.998Z</time></trkpt><trkpt lat="43.6470105833972" lon="11.181298962373038"><ele>204.66666666666669</ele><time>2026-04-09T09:34:25.998Z</time></trkpt><trkpt lat="43.64716736596886" lon="11.181482344868598"><ele>206.0</ele><time>2026-04-09T09:34:26.998Z</time></trkpt><trkpt lat="43.64732331491172" lon="11.181682874487398"><ele>206.0</ele><time>2026-04-09T09:34:27.998Z</time></trkpt><trkpt lat="43.64748273899651" lon="11.181886226144279"><ele>206.0</ele><time>2026-04-09T09:34:28.998Z</time></trkpt><trkpt lat="43.64763451551407" lon="11.182093758089401"><ele>206.0</ele><time>2026-04-09T09:34:29.998Z</time></trkpt><trkpt lat="43.64778710809749" lon="11.18232173062819"><ele>206.0</ele><time>2026-04-09T09:34:30.998Z</time></trkpt><trkpt lat="43.64793876845999" lon="11.182560889352656"><ele>206.0</ele><time>2026-04-09T09:34:31.998Z</time></trkpt><trkpt lat="43.648077950109005" lon="11.182810154554613"><ele>206.0</ele><time>2026-04-09T09:34:32.998Z</time></trkpt><trkpt lat="43.64822218534157" lon="11.183058888235493"><ele>206.0</ele><time>2026-04-09T09:34:33.998Z</time></trkpt><trkpt lat="43.648363970128045" lon="11.183308735679914"><ele>209.33333333333334</ele><time>2026-04-09T09:34:34.998Z</time></trkpt><trkpt lat="43.64849291383608" lon="11.183573964556006"><ele>212.66666666666669</ele><time>2026-04-09T09:34:35.998Z</time></trkpt><trkpt lat="43.648607681959774" lon="11.183823528280753"><ele>216.0</ele><time>2026-04-09T09:34:36.998Z</time></trkpt><trkpt lat="43.64871569658747" lon="11.184059043444163"><ele>216.0</ele><time>2026-04-09T09:34:37.998Z</time></trkpt><trkpt lat="43.64881403245893" lon="11.184279416664952"><ele>216.0</ele><time>2026-04-09T09:34:38.998Z</time></trkpt><trkpt lat="43.648915244901936" lon="11.184497544312077"><ele>216.0</ele><time>2026-04-09T09:34:39.998Z</time></trkpt><trkpt lat="43.64902961351325" lon="11.184729186374886"><ele>219.66666666666669</ele><time>2026-04-09T09:34:40.998Z</time></trkpt><trkpt lat="43.64914212224015" lon="11.184957842901662"><ele>223.33333333333334</ele><time>2026-04-09T09:34:41.998Z</time></trkpt><trkpt lat="43.64925784152888" lon="11.185193437872131"><ele>227.0</ele><time>2026-04-09T09:34:42.998Z</time></trkpt><trkpt lat="43.649368549940476" lon="11.185432500966401"><ele>225.0</ele><time>2026-04-09T09:34:43.998Z</time></trkpt><trkpt lat="43.64947930939717" lon="11.185672654430444"><ele>223.0</ele><time>2026-04-09T09:34:44.998Z</time></trkpt><trkpt lat="43.64959131041113" lon="11.185913123166353"><ele>221.0</ele><time>2026-04-09T09:34:45.998Z</time></trkpt><trkpt lat="43.64970475594988" lon="11.18615207857018"><ele>221.0</ele><time>2026-04-09T09:34:46.998Z</time></trkpt><trkpt lat="43.6498206551754" lon="11.1863929477441"><ele>221.0</ele><time>2026-04-09T09:34:47.998Z</time></trkpt><trkpt lat="43.6499368273932" lon="11.186634099377903"><ele>221.0</ele><time>2026-04-09T09:34:48.998Z</time></trkpt><trkpt lat="43.65005273102903" lon="11.186878253500886"><ele>222.33333333333334</ele><time>2026-04-09T09:34:49.998Z</time></trkpt><trkpt lat="43.65016934533005" lon="11.187122073078692"><ele>223.66666666666669</ele><time>2026-04-09T09:34:50.998Z</time></trkpt><trkpt lat="43.65028390986097" lon="11.187369427187155"><ele>225.0</ele><time>2026-04-09T09:34:51.998Z</time></trkpt><trkpt lat="43.65040051555797" lon="11.18762643634214"><ele>228.66666666666669</ele><time>2026-04-09T09:34:52.998Z</time></trkpt><trkpt lat="43.650517236850945" lon="11.1878817440562"><ele>232.33333333333334</ele><time>2026-04-09T09:34:53.998Z</time></trkpt><trkpt lat="43.65064115835598" lon="11.188140900184527"><ele>236.0</ele><time>2026-04-09T09:34:54.998Z</time></trkpt><trkpt lat="43.65075999463624" lon="11.188394711411032"><ele>236.0</ele><time>2026-04-09T09:34:55.998Z</time></trkpt><trkpt lat="43.65088508723027" lon="11.188649347754323"><ele>236.0</ele><time>2026-04-09T09:34:56.998Z</time></trkpt><trkpt lat="43.65100958105554" lon="11.188909866694136"><ele>236.0</ele><time>2026-04-09T09:34:57.998Z</time></trkpt><trkpt lat="43.65113354271213" lon="11.18917303195713"><ele>243.0</ele><time>2026-04-09T09:34:58.998Z</time></trkpt><trkpt lat="43.65126173546184" lon="11.1894441449016"><ele>250.0</ele><time>2026-04-09T09:34:59.998Z</time></trkpt><trkpt lat="43.65139268174811" lon="11.189708271817084"><ele>247.66666666666666</ele><time>2026-04-09T09:35:00.998Z</time></trkpt><trkpt lat="43.65151810954377" lon="11.189948111433697"><ele>245.33333333333331</ele><time>2026-04-09T09:35:01.998Z</time></trkpt><trkpt lat="43.65164692445425" lon="11.190189500276933"><ele>243.0</ele><time>2026-04-09T09:35:02.998Z</time></trkpt><trkpt lat="43.651784409353894" lon="11.190412646851023"><ele>243.0</ele><time>2026-04-09T09:35:03.998Z</time></trkpt><trkpt lat="43.65192737203275" lon="11.190645450218616"><ele>243.0</ele><time>2026-04-09T09:35:04.998Z</time></trkpt><trkpt lat="43.65207557485699" lon="11.190872877092046"><ele>243.0</ele><time>2026-04-09T09:35:05.998Z</time></trkpt><trkpt lat="43.65223246095367" lon="11.19110122208382"><ele>247.5</ele><time>2026-04-09T09:35:06.998Z</time></trkpt><trkpt lat="43.652391297483945" lon="11.191331349332833"><ele>252.0</ele><time>2026-04-09T09:35:07.998Z</time></trkpt><trkpt lat="43.65254955733607" lon="11.191560056334175"><ele>253.0</ele><time>2026-04-09T09:35:08.998Z</time></trkpt><trkpt lat="43.65270815035636" lon="11.191798106154815"><ele>254.0</ele><time>2026-04-09T09:35:09.998Z</time></trkpt><trkpt lat="43.65285807407114" lon="11.192018384726616"><ele>255.66666666666669</ele><time>2026-04-09T09:35:10.998Z</time></trkpt><trkpt lat="43.65299794270455" lon="11.192220262980745"><ele>257.3333333333333</ele><time>2026-04-09T09:35:11.998Z</time></trkpt><trkpt lat="43.65311963892005" lon="11.19243248650483"><ele>259.0</ele><time>2026-04-09T09:35:12.998Z</time></trkpt><trkpt lat="43.65324532382875" lon="11.192646999495642"><ele>260.0</ele><time>2026-04-09T09:35:13.998Z</time></trkpt><trkpt lat="43.653369761295416" lon="11.192870389990981"><ele>261.0</ele><time>2026-04-09T09:35:15.016Z</time></trkpt><trkpt lat="43.653498529777" lon="11.19309002503311"><ele>262.0</ele><time>2026-04-09T09:35:16.018Z</time></trkpt><trkpt lat="43.65362720710568" lon="11.193307020615165"><ele>269.3333333333333</ele><time>2026-04-09T09:35:17.016Z</time></trkpt><trkpt lat="43.65372870882672" lon="11.193521564549458"><ele>276.6666666666667</ele><time>2026-04-09T09:35:18.015Z</time></trkpt><trkpt lat="43.65384832541981" lon="11.193735444785847"><ele>284.0</ele><time>2026-04-09T09:35:19.018Z</time></trkpt><trkpt lat="43.65396437943875" lon="11.193951238116417"><ele>246.0</ele><time>2026-04-09T09:35:20.018Z</time></trkpt><trkpt lat="43.65560475740922" lon="11.196064213301238"><ele>246.0</ele><time>2026-04-09T09:35:29.998Z</time></trkpt><trkpt lat="43.65575926017364" lon="11.196293287029018"><ele>246.0</ele><time>2026-04-09T09:35:30.999Z</time></trkpt><trkpt lat="43.65495230427018" lon="11.196391705995639"><ele>246.0</ele><time>2026-04-09T09:35:31.999Z</time></trkpt><trkpt lat="43.6551018539801" lon="11.196601560791267"><ele>246.0</ele><time>2026-04-09T09:35:32.999Z</time></trkpt><trkpt lat="43.65531500851419" lon="11.196855667097308"><ele>246.0</ele><time>2026-04-09T09:35:33.999Z</time></trkpt><trkpt lat="43.655459839969474" lon="11.19709465595962"><ele>246.0</ele><time>2026-04-09T09:35:34.999Z</time></trkpt><trkpt lat="43.6557040057441" lon="11.197338319054913"><ele>255.5</ele><time>2026-04-09T09:35:35.999Z</time></trkpt><trkpt lat="43.65585076210384" lon="11.197576175123515"><ele>265.0</ele><time>2026-04-09T09:35:36.999Z</time></trkpt><trkpt lat="43.656016903876036" lon="11.197808611744161"><ele>252.5</ele><time>2026-04-09T09:35:37.999Z</time></trkpt><trkpt lat="43.65618240394179" lon="11.198048705791832"><ele>240.0</ele><time>2026-04-09T09:35:38.999Z</time></trkpt><trkpt lat="43.65636611208735" lon="11.198295837133935"><ele>240.0</ele><time>2026-04-09T09:35:39.999Z</time></trkpt><trkpt lat="43.65651634820839" lon="11.198545460695293"><ele>240.0</ele><time>2026-04-09T09:35:40.999Z</time></trkpt><trkpt lat="43.656740000062" lon="11.19879274753778"><ele>230.0</ele><time>2026-04-09T09:35:41.999Z</time></trkpt><trkpt lat="43.65697548802975" lon="11.199050222800619"><ele>220.0</ele><time>2026-04-09T09:35:42.999Z</time></trkpt><trkpt lat="43.65731389273279" lon="11.199291775770103"><ele>220.0</ele><time>2026-04-09T09:35:43.999Z</time></trkpt><trkpt lat="43.65752898502248" lon="11.199567214695282"><ele>220.0</ele><time>2026-04-09T09:35:44.999Z</time></trkpt><trkpt lat="43.65722581246974" lon="11.199858196371592"><ele>217.0</ele><time>2026-04-09T09:35:46Z</time></trkpt><trkpt lat="43.65768347941114" lon="11.200140557068888"><ele>219.5</ele><time>2026-04-09T09:35:47Z</time></trkpt><trkpt lat="43.65787920693811" lon="11.200448965299298"><ele>222.0</ele><time>2026-04-09T09:35:48Z</time></trkpt><trkpt lat="43.65800080244885" lon="11.200730321164814"><ele>222.0</ele><time>2026-04-09T09:35:49Z</time></trkpt><trkpt lat="43.65810248097326" lon="11.201018990275609"><ele>222.0</ele><time>2026-04-09T09:35:50Z</time></trkpt><trkpt lat="43.65820288672697" lon="11.20129689775898"><ele>219.33333333333331</ele><time>2026-04-09T09:35:51Z</time></trkpt><trkpt lat="43.658300862448094" lon="11.201570702374061"><ele>216.66666666666666</ele><time>2026-04-09T09:35:52Z</time></trkpt><trkpt lat="43.65838838201399" lon="11.201828910223862"><ele>214.0</ele><time>2026-04-09T09:35:53Z</time></trkpt><trkpt lat="43.658477586907935" lon="11.202081282130543"><ele>214.0</ele><time>2026-04-09T09:35:54Z</time></trkpt><trkpt lat="43.658575844322435" lon="11.202330767842648"><ele>214.0</ele><time>2026-04-09T09:35:55Z</time></trkpt><trkpt lat="43.65869019646197" lon="11.202574656629983"><ele>214.0</ele><time>2026-04-09T09:35:56Z</time></trkpt><trkpt lat="43.65881678603841" lon="11.20280640210334"><ele>212.0</ele><time>2026-04-09T09:35:57Z</time></trkpt><trkpt lat="43.65895201357306" lon="11.203034166432557"><ele>210.0</ele><time>2026-04-09T09:35:58Z</time></trkpt><trkpt lat="43.65908088438227" lon="11.203254543295918"><ele>208.0</ele><time>2026-04-09T09:35:59Z</time></trkpt><trkpt lat="43.659222082090174" lon="11.203473134264733"><ele>208.0</ele><time>2026-04-09T09:36:00Z</time></trkpt><trkpt lat="43.65937288779725" lon="11.203680176312819"><ele>208.0</ele><time>2026-04-09T09:36:01Z</time></trkpt><trkpt lat="43.65953327379321" lon="11.203874645702015"><ele>208.0</ele><time>2026-04-09T09:36:02Z</time></trkpt><trkpt lat="43.659707413818495" lon="11.204057915089024"><ele>208.5</ele><time>2026-04-09T09:36:03Z</time></trkpt><trkpt lat="43.65989242485497" lon="11.204241968709553"><ele>209.0</ele><time>2026-04-09T09:36:04Z</time></trkpt><trkpt lat="43.66008893396198" lon="11.204419869000931"><ele>216.5</ele><time>2026-04-09T09:36:05Z</time></trkpt><trkpt lat="43.66029343552822" lon="11.204593339098386"><ele>224.0</ele><time>2026-04-09T09:36:06Z</time></trkpt><trkpt lat="43.66049932311245" lon="11.204762114168865"><ele>210.5</ele><time>2026-04-09T09:36:07Z</time></trkpt><trkpt lat="43.6607052714022" lon="11.204931805242722"><ele>197.0</ele><time>2026-04-09T09:36:08Z</time></trkpt><trkpt lat="43.660927487823194" lon="11.205104336924725"><ele>201.5</ele><time>2026-04-09T09:36:09Z</time></trkpt><trkpt lat="43.66112485552989" lon="11.205274304692164"><ele>206.0</ele><time>2026-04-09T09:36:10Z</time></trkpt><trkpt lat="43.66130778820254" lon="11.205439971661287"><ele>206.0</ele><time>2026-04-09T09:36:11Z</time></trkpt><trkpt lat="43.66149409608767" lon="11.20561094263963"><ele>206.0</ele><time>2026-04-09T09:36:12Z</time></trkpt><trkpt lat="43.661696490482235" lon="11.205775095727398"><ele>199.5</ele><time>2026-04-09T09:36:13Z</time></trkpt><trkpt lat="43.66189840814039" lon="11.205947196506365"><ele>193.0</ele><time>2026-04-09T09:36:14Z</time></trkpt><trkpt lat="43.66208994407504" lon="11.206110128885495"><ele>193.0</ele><time>2026-04-09T09:36:15Z</time></trkpt><trkpt lat="43.662268276126355" lon="11.206268240259499"><ele>193.0</ele><time>2026-04-09T09:36:16Z</time></trkpt><trkpt lat="43.662454444022146" lon="11.206440068447865"><ele>193.0</ele><time>2026-04-09T09:36:17Z</time></trkpt><trkpt lat="43.662642487327176" lon="11.206597079420266"><ele>181.0</ele><time>2026-04-09T09:36:18Z</time></trkpt><trkpt lat="43.66283119379557" lon="11.206764076859661"><ele>169.0</ele><time>2026-04-09T09:36:19Z</time></trkpt><trkpt lat="43.66302121286468" lon="11.206936114838598"><ele>169.0</ele><time>2026-04-09T09:36:20Z</time></trkpt><trkpt lat="43.66321500576609" lon="11.207101259160755"><ele>169.0</ele><time>2026-04-09T09:36:21Z</time></trkpt><trkpt lat="43.663409471737566" lon="11.207273975356035"><ele>166.66666666666669</ele><time>2026-04-09T09:36:22Z</time></trkpt><trkpt lat="43.66360237999197" lon="11.207438553831297"><ele>164.33333333333334</ele><time>2026-04-09T09:36:23Z</time></trkpt><trkpt lat="43.66379000816914" lon="11.20759792927566"><ele>162.0</ele><time>2026-04-09T09:36:24Z</time></trkpt><trkpt lat="43.66396663790621" lon="11.207750374053447"><ele>166.66666666666666</ele><time>2026-04-09T09:36:25Z</time></trkpt><trkpt lat="43.664144760091915" lon="11.207908882903677"><ele>171.33333333333331</ele><time>2026-04-09T09:36:26Z</time></trkpt><trkpt lat="43.66431836864871" lon="11.20805999758414"><ele>176.0</ele><time>2026-04-09T09:36:27Z</time></trkpt><trkpt lat="43.66448445781087" lon="11.208204069755109"><ele>177.0</ele><time>2026-04-09T09:36:28Z</time></trkpt><trkpt lat="43.664654188518" lon="11.20834878092084"><ele>178.0</ele><time>2026-04-09T09:36:29Z</time></trkpt><trkpt lat="43.66482870348174" lon="11.20850445991775"><ele>179.0</ele><time>2026-04-09T09:36:30Z</time></trkpt><trkpt lat="43.66500601156924" lon="11.208654443846699"><ele>179.0</ele><time>2026-04-09T09:36:31Z</time></trkpt><trkpt lat="43.66519034966595" lon="11.208803229057116"><ele>179.0</ele><time>2026-04-09T09:36:32Z</time></trkpt><trkpt lat="43.66536779928868" lon="11.208938805842774"><ele>179.0</ele><time>2026-04-09T09:36:33Z</time></trkpt><trkpt lat="43.665542451500826" lon="11.209049069579649"><ele>177.33333333333331</ele><time>2026-04-09T09:36:34Z</time></trkpt><trkpt lat="43.66572836272735" lon="11.20915511161927"><ele>175.66666666666666</ele><time>2026-04-09T09:36:35Z</time></trkpt><trkpt lat="43.665925045357405" lon="11.209252367654353"><ele>174.0</ele><time>2026-04-09T09:36:36Z</time></trkpt><trkpt lat="43.666127311642704" lon="11.209340879249085"><ele>174.0</ele><time>2026-04-09T09:36:37Z</time></trkpt><trkpt lat="43.66633920147348" lon="11.209418633812712"><ele>174.0</ele><time>2026-04-09T09:36:38Z</time></trkpt><trkpt lat="43.666556313636505" lon="11.209484253332153"><ele>174.0</ele><time>2026-04-09T09:36:39Z</time></trkpt><trkpt lat="43.66675240766406" lon="11.209525342253311"><ele>174.0</ele><time>2026-04-09T09:36:40Z</time></trkpt><trkpt lat="43.66693786031776" lon="11.209562236852822"><ele>174.0</ele><time>2026-04-09T09:36:41Z</time></trkpt><trkpt lat="43.66711490558436" lon="11.209602035397609"><ele>174.0</ele><time>2026-04-09T09:36:42Z</time></trkpt><trkpt lat="43.66729058184607" lon="11.209637322651703"><ele>172.75</ele><time>2026-04-09T09:36:43Z</time></trkpt><trkpt lat="43.66744708298289" lon="11.209671197566397"><ele>171.5</ele><time>2026-04-09T09:36:44Z</time></trkpt><trkpt lat="43.667586468344986" lon="11.209695548383555"><ele>170.25</ele><time>2026-04-09T09:36:45Z</time></trkpt><trkpt lat="43.66771982655773" lon="11.209727927705408"><ele>169.0</ele><time>2026-04-09T09:36:46Z</time></trkpt><trkpt lat="43.66785207855175" lon="11.20975112283658"><ele>167.75</ele><time>2026-04-09T09:36:47Z</time></trkpt><trkpt lat="43.66797964491101" lon="11.20978103004016"><ele>166.5</ele><time>2026-04-09T09:36:48Z</time></trkpt><trkpt lat="43.6680884451502" lon="11.209796612130814"><ele>165.25</ele><time>2026-04-09T09:36:49Z</time></trkpt><trkpt lat="43.6682030343252" lon="11.209820070615104"><ele>164.0</ele><time>2026-04-09T09:36:49.999Z</time></trkpt><trkpt lat="43.66831085618891" lon="11.20984327630544"><ele>162.0</ele><time>2026-04-09T09:36:50.999Z</time></trkpt><trkpt lat="43.66842176801155" lon="11.209862960782534"><ele>160.0</ele><time>2026-04-09T09:36:51.999Z</time></trkpt><trkpt lat="43.66853661610771" lon="11.209883563323555"><ele>158.0</ele><time>2026-04-09T09:36:52.999Z</time></trkpt><trkpt lat="43.66865894815349" lon="11.209909375908294"><ele>156.0</ele><time>2026-04-09T09:36:53.999Z</time></trkpt><trkpt lat="43.66878492645515" lon="11.209934634692493"><ele>155.75</ele><time>2026-04-09T09:36:54.999Z</time></trkpt><trkpt lat="43.66891513543345" lon="11.209958335722288"><ele>155.5</ele><time>2026-04-09T09:36:55.999Z</time></trkpt><trkpt lat="43.669037804139435" lon="11.209969956800894"><ele>155.25</ele><time>2026-04-09T09:36:56.999Z</time></trkpt><trkpt lat="43.669171501023115" lon="11.210000100013367"><ele>155.0</ele><time>2026-04-09T09:36:57.999Z</time></trkpt><trkpt lat="43.669304087612694" lon="11.210026043872906"><ele>154.75</ele><time>2026-04-09T09:36:58.999Z</time></trkpt><trkpt lat="43.669449461328426" lon="11.21005928579565"><ele>154.5</ele><time>2026-04-09T09:36:59.999Z</time></trkpt><trkpt lat="43.66959634259526" lon="11.210087862862828"><ele>154.25</ele><time>2026-04-09T09:37:00.999Z</time></trkpt><trkpt lat="43.6697405021638" lon="11.210108862691373"><ele>154.0</ele><time>2026-04-09T09:37:01.999Z</time></trkpt><trkpt lat="43.669868300458944" lon="11.210135051469171"><ele>154.0</ele><time>2026-04-09T09:37:02.999Z</time></trkpt><trkpt lat="43.66999144577695" lon="11.210157704732046"><ele>154.0</ele><time>2026-04-09T09:37:03.999Z</time></trkpt><trkpt lat="43.670113978544045" lon="11.210184986285036"><ele>154.0</ele><time>2026-04-09T09:37:04.999Z</time></trkpt><trkpt lat="43.670252016644206" lon="11.210213618866874"><ele>154.0</ele><time>2026-04-09T09:37:05.999Z</time></trkpt><trkpt lat="43.67040498640036" lon="11.210247088818456"><ele>154.0</ele><time>2026-04-09T09:37:06.999Z</time></trkpt><trkpt lat="43.67055098372484" lon="11.210278240187455"><ele>154.0</ele><time>2026-04-09T09:37:07.999Z</time></trkpt><trkpt lat="43.67069022860455" lon="11.210306111153436"><ele>154.0</ele><time>2026-04-09T09:37:08.999Z</time></trkpt><trkpt lat="43.670844473451474" lon="11.210329279539256"><ele>154.0</ele><time>2026-04-09T09:37:09.999Z</time></trkpt><trkpt lat="43.671010352464386" lon="11.210361827469503"><ele>154.66666666666669</ele><time>2026-04-09T09:37:10.999Z</time></trkpt><trkpt lat="43.67118001295498" lon="11.2103926321595"><ele>155.33333333333334</ele><time>2026-04-09T09:37:11.999Z</time></trkpt><trkpt lat="43.67133689080573" lon="11.210409922166452"><ele>156.0</ele><time>2026-04-09T09:37:12.999Z</time></trkpt><trkpt lat="43.6714899542796" lon="11.210426907989092"><ele>156.0</ele><time>2026-04-09T09:37:13.999Z</time></trkpt><trkpt lat="43.67163389269982" lon="11.210427763373042"><ele>156.0</ele><time>2026-04-09T09:37:14.999Z</time></trkpt><trkpt lat="43.67178757684296" lon="11.210434704646989"><ele>156.0</ele><time>2026-04-09T09:37:15.999Z</time></trkpt><trkpt lat="43.67192881764768" lon="11.210433293694276"><ele>156.0</ele><time>2026-04-09T09:37:16.999Z</time></trkpt><trkpt lat="43.67208383934766" lon="11.210406933208237"><ele>153.75</ele><time>2026-04-09T09:37:17.999Z</time></trkpt><trkpt lat="43.67221894770604" lon="11.21040759774241"><ele>151.5</ele><time>2026-04-09T09:37:18.999Z</time></trkpt><trkpt lat="43.67237346543925" lon="11.21039827092495"><ele>149.25</ele><time>2026-04-09T09:37:19.999Z</time></trkpt><trkpt lat="43.67251142150028" lon="11.210389241964469"><ele>147.0</ele><time>2026-04-09T09:37:20.999Z</time></trkpt><trkpt lat="43.67264702140264" lon="11.210381474022634"><ele>147.0</ele><time>2026-04-09T09:37:21.999Z</time></trkpt><trkpt lat="43.67278939844258" lon="11.210370721231259"><ele>147.0</ele><time>2026-04-09T09:37:22.999Z</time></trkpt><trkpt lat="43.672934904547965" lon="11.21037524544575"><ele>147.0</ele><time>2026-04-09T09:37:23.999Z</time></trkpt><trkpt lat="43.673070744404065" lon="11.21037483743671"><ele>147.0</ele><time>2026-04-09T09:37:24.999Z</time></trkpt><trkpt lat="43.67319755206366" lon="11.210351878820981"><ele>147.0</ele><time>2026-04-09T09:37:25.999Z</time></trkpt><trkpt lat="43.67332343706649" lon="11.210349113093162"><ele>147.0</ele><time>2026-04-09T09:37:26.999Z</time></trkpt><trkpt lat="43.67344198309677" lon="11.210339198228176"><ele>147.0</ele><time>2026-04-09T09:37:27.999Z</time></trkpt><trkpt lat="43.673556326174584" lon="11.210346816720378"><ele>147.0</ele><time>2026-04-09T09:37:28.999Z</time></trkpt><trkpt lat="43.673672250261966" lon="11.210332221495367"><ele>146.5</ele><time>2026-04-09T09:37:29.999Z</time></trkpt><trkpt lat="43.67378261440502" lon="11.210321743605192"><ele>146.0</ele><time>2026-04-09T09:37:30.999Z</time></trkpt><trkpt lat="43.67390211704206" lon="11.210316978820606"><ele>145.5</ele><time>2026-04-09T09:37:31.999Z</time></trkpt><trkpt lat="43.67402018165296" lon="11.210306359134997"><ele>145.0</ele><time>2026-04-09T09:37:32.999Z</time></trkpt><trkpt lat="43.674139869060774" lon="11.210302585744348"><ele>145.0</ele><time>2026-04-09T09:37:33.999Z</time></trkpt><trkpt lat="43.67424818845353" lon="11.210304692136857"><ele>145.0</ele><time>2026-04-09T09:37:34.999Z</time></trkpt><trkpt lat="43.67436523670039" lon="11.210291087823576"><ele>145.0</ele><time>2026-04-09T09:37:35.999Z</time></trkpt><trkpt lat="43.67447503244126" lon="11.210273964902006"><ele>145.0</ele><time>2026-04-09T09:37:37Z</time></trkpt><trkpt lat="43.67459444858042" lon="11.210271465956593"><ele>140.0</ele><time>2026-04-09T09:37:38Z</time></trkpt><trkpt lat="43.67470057910158" lon="11.210265088073676"><ele>135.0</ele><time>2026-04-09T09:37:39Z</time></trkpt><trkpt lat="43.674826348456726" lon="11.210257255593156"><ele>130.0</ele><time>2026-04-09T09:37:40Z</time></trkpt><trkpt lat="43.674954120601136" lon="11.210247729904934"><ele>125.0</ele><time>2026-04-09T09:37:41Z</time></trkpt><trkpt lat="43.67508765917896" lon="11.210246725517976"><ele>125.0</ele><time>2026-04-09T09:37:42Z</time></trkpt><trkpt lat="43.675240615371955" lon="11.210234089167079"><ele>125.0</ele><time>2026-04-09T09:37:43Z</time></trkpt><trkpt lat="43.6753925390172" lon="11.210215902418046"><ele>125.0</ele><time>2026-04-09T09:37:44Z</time></trkpt><trkpt lat="43.675536121070415" lon="11.21021456134274"><ele>125.0</ele><time>2026-04-09T09:37:45Z</time></trkpt><trkpt lat="43.675675098312915" lon="11.210213431176046"><ele>119.75</ele><time>2026-04-09T09:37:46Z</time></trkpt><trkpt lat="43.67580716822526" lon="11.210207257893519"><ele>114.5</ele><time>2026-04-09T09:37:47Z</time></trkpt><trkpt lat="43.675943645218176" lon="11.210204408258948"><ele>109.25</ele><time>2026-04-09T09:37:48Z</time></trkpt><trkpt lat="43.67606798103826" lon="11.210203782410138"><ele>104.0</ele><time>2026-04-09T09:37:49Z</time></trkpt><trkpt lat="43.67620617337544" lon="11.210215366655511"><ele>104.0</ele><time>2026-04-09T09:37:50Z</time></trkpt><trkpt lat="43.67635086131492" lon="11.210233803562405"><ele>104.0</ele><time>2026-04-09T09:37:51Z</time></trkpt><trkpt lat="43.676493889892384" lon="11.210262797476593"><ele>104.0</ele><time>2026-04-09T09:37:52Z</time></trkpt><trkpt lat="43.67663188475205" lon="11.210289510986648"><ele>104.0</ele><time>2026-04-09T09:37:53Z</time></trkpt><trkpt lat="43.67676661031101" lon="11.210317720805646"><ele>104.0</ele><time>2026-04-09T09:37:54Z</time></trkpt><trkpt lat="43.67690980255205" lon="11.21036070629557"><ele>104.0</ele><time>2026-04-09T09:37:55Z</time></trkpt><trkpt lat="43.67705299251927" lon="11.210409383234113"><ele>104.0</ele><time>2026-04-09T09:37:56Z</time></trkpt><trkpt lat="43.677186977203164" lon="11.210458944692448"><ele>104.0</ele><time>2026-04-09T09:37:57Z</time></trkpt><trkpt lat="43.67731803146573" lon="11.210514051554567"><ele>104.5</ele><time>2026-04-09T09:37:58Z</time></trkpt><trkpt lat="43.67743787488376" lon="11.210569959150778"><ele>105.0</ele><time>2026-04-09T09:37:59Z</time></trkpt><trkpt lat="43.677550176880516" lon="11.210624494953958"><ele>105.5</ele><time>2026-04-09T09:38:00Z</time></trkpt><trkpt lat="43.67767944058504" lon="11.21069884266602"><ele>106.0</ele><time>2026-04-09T09:38:01Z</time></trkpt><trkpt lat="43.67781144489628" lon="11.210781495351661"><ele>107.0</ele><time>2026-04-09T09:38:02Z</time></trkpt><trkpt lat="43.67796492012459" lon="11.210878513427335"><ele>108.0</ele><time>2026-04-09T09:38:03Z</time></trkpt><trkpt lat="43.67810310653468" lon="11.210978406058128"><ele>109.0</ele><time>2026-04-09T09:38:04Z</time></trkpt><trkpt lat="43.67825034062633" lon="11.211082563590727"><ele>109.0</ele><time>2026-04-09T09:38:05Z</time></trkpt><trkpt lat="43.678392881648314" lon="11.211179056543486"><ele>109.0</ele><time>2026-04-09T09:38:06Z</time></trkpt><trkpt lat="43.678522475435926" lon="11.211273936701279"><ele>109.0</ele><time>2026-04-09T09:38:07Z</time></trkpt><trkpt lat="43.678660165603844" lon="11.211365084627055"><ele>109.0</ele><time>2026-04-09T09:38:08Z</time></trkpt><trkpt lat="43.678794724634265" lon="11.211459664279193"><ele>109.0</ele><time>2026-04-09T09:38:09Z</time></trkpt><trkpt lat="43.678924966603134" lon="11.211549372907317"><ele>109.0</ele><time>2026-04-09T09:38:10Z</time></trkpt><trkpt lat="43.67904913024414" lon="11.211633518351672"><ele>109.0</ele><time>2026-04-09T09:38:11Z</time></trkpt><trkpt lat="43.679179308033675" lon="11.211713808604513"><ele>109.0</ele><time>2026-04-09T09:38:12Z</time></trkpt><trkpt lat="43.67931443601554" lon="11.211792468864655"><ele>109.0</ele><time>2026-04-09T09:38:13Z</time></trkpt><trkpt lat="43.67944137177519" lon="11.211865891414535"><ele>109.0</ele><time>2026-04-09T09:38:14Z</time></trkpt><trkpt lat="43.67957045491001" lon="11.211920590624079"><ele>109.0</ele><time>2026-04-09T09:38:15Z</time></trkpt><trkpt lat="43.6797062711708" lon="11.211984488785994"><ele>106.5</ele><time>2026-04-09T09:38:16Z</time></trkpt><trkpt lat="43.67984963936926" lon="11.212038777217845"><ele>104.0</ele><time>2026-04-09T09:38:17Z</time></trkpt><trkpt lat="43.67999370636955" lon="11.212084784817668"><ele>101.5</ele><time>2026-04-09T09:38:18Z</time></trkpt><trkpt lat="43.68012088943969" lon="11.212125563732794"><ele>99.0</ele><time>2026-04-09T09:38:19Z</time></trkpt><trkpt lat="43.680265677654525" lon="11.21216130235458"><ele>98.25</ele><time>2026-04-09T09:38:20Z</time></trkpt><trkpt lat="43.6804065539456" lon="11.212186073640993"><ele>97.5</ele><time>2026-04-09T09:38:21Z</time></trkpt><trkpt lat="43.68055070422714" lon="11.212204198916591"><ele>96.75</ele><time>2026-04-09T09:38:22Z</time></trkpt><trkpt lat="43.68069282396282" lon="11.212223379916534"><ele>96.0</ele><time>2026-04-09T09:38:23Z</time></trkpt><trkpt lat="43.680841930000724" lon="11.212239091197032"><ele>96.0</ele><time>2026-04-09T09:38:24Z</time></trkpt><trkpt lat="43.68097676122929" lon="11.212232982620836"><ele>96.0</ele><time>2026-04-09T09:38:25Z</time></trkpt><trkpt lat="43.68112285638855" lon="11.212233919686076"><ele>96.0</ele><time>2026-04-09T09:38:26Z</time></trkpt><trkpt lat="43.68126344753596" lon="11.212224089458127"><ele>96.0</ele><time>2026-04-09T09:38:27Z</time></trkpt><trkpt lat="43.68139780048825" lon="11.212208893036447"><ele>96.0</ele><time>2026-04-09T09:38:28Z</time></trkpt><trkpt lat="43.6815334407629" lon="11.212190356708911"><ele>96.0</ele><time>2026-04-09T09:38:29Z</time></trkpt><trkpt lat="43.68166869795271" lon="11.212172142353571"><ele>96.0</ele><time>2026-04-09T09:38:30Z</time></trkpt><trkpt lat="43.681810636523736" lon="11.212145797816968"><ele>96.0</ele><time>2026-04-09T09:38:31Z</time></trkpt><trkpt lat="43.68196084581029" lon="11.212111625198494"><ele>96.0</ele><time>2026-04-09T09:38:32Z</time></trkpt><trkpt lat="43.68211063077736" lon="11.212085012239575"><ele>96.0</ele><time>2026-04-09T09:38:33Z</time></trkpt><trkpt lat="43.68225455683004" lon="11.212061775998563"><ele>96.0</ele><time>2026-04-09T09:38:34Z</time></trkpt><trkpt lat="43.6823960560347" lon="11.212036047990056"><ele>96.0</ele><time>2026-04-09T09:38:35Z</time></trkpt><trkpt lat="43.68254101847088" lon="11.212008177691565"><ele>96.0</ele><time>2026-04-09T09:38:36Z</time></trkpt><trkpt lat="43.68269128297817" lon="11.21197995165853"><ele>96.0</ele><time>2026-04-09T09:38:37Z</time></trkpt><trkpt lat="43.682841159734075" lon="11.21195444264785"><ele>96.0</ele><time>2026-04-09T09:38:38Z</time></trkpt><trkpt lat="43.68299874083889" lon="11.211919824190023"><ele>97.33333333333334</ele><time>2026-04-09T09:38:39Z</time></trkpt><trkpt lat="43.68316644252052" lon="11.211885508155568"><ele>98.66666666666667</ele><time>2026-04-09T09:38:40Z</time></trkpt><trkpt lat="43.6833449953748" lon="11.211855293389718"><ele>100.0</ele><time>2026-04-09T09:38:41Z</time></trkpt><trkpt lat="43.68353372719928" lon="11.211819828871802"><ele>104.0</ele><time>2026-04-09T09:38:42Z</time></trkpt><trkpt lat="43.68371596950519" lon="11.211786187723268"><ele>108.0</ele><time>2026-04-09T09:38:43Z</time></trkpt><trkpt lat="43.68391882117028" lon="11.211740581294539"><ele>112.0</ele><time>2026-04-09T09:38:44Z</time></trkpt><trkpt lat="43.68413931092449" lon="11.211693310441268"><ele>112.0</ele><time>2026-04-09T09:38:45Z</time></trkpt><trkpt lat="43.6843813802932" lon="11.211642589140734"><ele>112.0</ele><time>2026-04-09T09:38:46Z</time></trkpt><trkpt lat="43.68464629753947" lon="11.211588761685414"><ele>112.0</ele><time>2026-04-09T09:38:47Z</time></trkpt><trkpt lat="43.68492757980722" lon="11.211541276669287"><ele>112.0</ele><time>2026-04-09T09:38:48Z</time></trkpt><trkpt lat="43.68522912487743" lon="11.211488113173079"><ele>121.0</ele><time>2026-04-09T09:38:49Z</time></trkpt><trkpt lat="43.685545014560034" lon="11.211429414847318"><ele>130.0</ele><time>2026-04-09T09:38:50Z</time></trkpt><trkpt lat="43.6858843414544" lon="11.211365721728148"><ele>130.0</ele><time>2026-04-09T09:38:51Z</time></trkpt><trkpt lat="43.68579282097679" lon="11.211325427719686"><ele>130.0</ele><time>2026-04-09T09:38:52Z</time></trkpt><trkpt lat="43.686024291181354" lon="11.211275482426947"><ele>130.0</ele><time>2026-04-09T09:38:53Z</time></trkpt><trkpt lat="43.686253757582904" lon="11.211226610568268"><ele>123.5</ele><time>2026-04-09T09:38:54Z</time></trkpt><trkpt lat="43.68649539925346" lon="11.211178157633416"><ele>117.0</ele><time>2026-04-09T09:38:55Z</time></trkpt><trkpt lat="43.68672005926126" lon="11.211139608619332"><ele>114.0</ele><time>2026-04-09T09:38:56Z</time></trkpt><trkpt lat="43.68693629985096" lon="11.211107961449665"><ele>111.0</ele><time>2026-04-09T09:38:57Z</time></trkpt><trkpt lat="43.687149746996255" lon="11.211075912411475"><ele>108.0</ele><time>2026-04-09T09:38:58Z</time></trkpt><trkpt lat="43.68737057921521" lon="11.211064390555949"><ele>108.0</ele><time>2026-04-09T09:38:59Z</time></trkpt><trkpt lat="43.6875783043624" lon="11.211080056047637"><ele>108.0</ele><time>2026-04-09T09:38:59.999Z</time></trkpt><trkpt lat="43.68780728229831" lon="11.21111745040758"><ele>108.0</ele><time>2026-04-09T09:39:00.999Z</time></trkpt><trkpt lat="43.68804680838063" lon="11.211162086077218"><ele>103.66666666666667</ele><time>2026-04-09T09:39:01.999Z</time></trkpt><trkpt lat="43.688268619269294" lon="11.211220132754242"><ele>99.33333333333334</ele><time>2026-04-09T09:39:02.999Z</time></trkpt><trkpt lat="43.68847387891042" lon="11.211308959663967"><ele>95.0</ele><time>2026-04-09T09:39:03.999Z</time></trkpt><trkpt lat="43.68868707213018" lon="11.21141490447554"><ele>94.0</ele><time>2026-04-09T09:39:04.999Z</time></trkpt><trkpt lat="43.688889524398334" lon="11.211534339075175"><ele>93.0</ele><time>2026-04-09T09:39:05.999Z</time></trkpt><trkpt lat="43.689100195128965" lon="11.21167220350079"><ele>93.0</ele><time>2026-04-09T09:39:06.999Z</time></trkpt><trkpt lat="43.689321260982666" lon="11.211828741718666"><ele>93.0</ele><time>2026-04-09T09:39:07.999Z</time></trkpt><trkpt lat="43.689542188660525" lon="11.211994794944818"><ele>92.5</ele><time>2026-04-09T09:39:08.999Z</time></trkpt><trkpt lat="43.689763349883414" lon="11.212178518662915"><ele>92.0</ele><time>2026-04-09T09:39:09.999Z</time></trkpt><trkpt lat="43.689966591229236" lon="11.212342932040263"><ele>92.66666666666667</ele><time>2026-04-09T09:39:10.999Z</time></trkpt><trkpt lat="43.69016081735541" lon="11.21248880540874"><ele>93.33333333333333</ele><time>2026-04-09T09:39:11.999Z</time></trkpt><trkpt lat="43.69035664827117" lon="11.212625212184674"><ele>94.0</ele><time>2026-04-09T09:39:12.999Z</time></trkpt><trkpt lat="43.6905547960984" lon="11.21275227603268"><ele>94.0</ele><time>2026-04-09T09:39:13.999Z</time></trkpt><trkpt lat="43.6907634227282" lon="11.212857378337786"><ele>94.0</ele><time>2026-04-09T09:39:14.999Z</time></trkpt><trkpt lat="43.69097551353567" lon="11.212941205508864"><ele>94.0</ele><time>2026-04-09T09:39:15.999Z</time></trkpt><trkpt lat="43.69119676591344" lon="11.213016382304136"><ele>93.0</ele><time>2026-04-09T09:39:16.999Z</time></trkpt><trkpt lat="43.69142215814248" lon="11.213075670954282"><ele>92.0</ele><time>2026-04-09T09:39:17.999Z</time></trkpt><trkpt lat="43.69164241264302" lon="11.213112715837218"><ele>92.0</ele><time>2026-04-09T09:39:18.999Z</time></trkpt><trkpt lat="43.69186402469605" lon="11.213136021803649"><ele>92.0</ele><time>2026-04-09T09:39:19.999Z</time></trkpt><trkpt lat="43.69207523322153" lon="11.213146257912108"><ele>92.0</ele><time>2026-04-09T09:39:20.999Z</time></trkpt><trkpt lat="43.692281672516984" lon="11.213131337951486"><ele>91.66666666666667</ele><time>2026-04-09T09:39:21.999Z</time></trkpt><trkpt lat="43.692501488267546" lon="11.213103422119678"><ele>91.33333333333333</ele><time>2026-04-09T09:39:22.999Z</time></trkpt><trkpt lat="43.69271659015137" lon="11.213055912027949"><ele>91.0</ele><time>2026-04-09T09:39:23.999Z</time></trkpt><trkpt lat="43.69293683888366" lon="11.21296137605869"><ele>94.0</ele><time>2026-04-09T09:39:24.999Z</time></trkpt><trkpt lat="43.693162018961644" lon="11.212875094659285"><ele>97.0</ele><time>2026-04-09T09:39:25.999Z</time></trkpt><trkpt lat="43.69338298276606" lon="11.212781185601187"><ele>97.5</ele><time>2026-04-09T09:39:26.999Z</time></trkpt><trkpt lat="43.69360778451811" lon="11.212670114815888"><ele>98.0</ele><time>2026-04-09T09:39:27.999Z</time></trkpt><trkpt lat="43.693825625870126" lon="11.212567154639489"><ele>98.0</ele><time>2026-04-09T09:39:28.999Z</time></trkpt><trkpt lat="43.694047969884444" lon="11.21245684978801"><ele>98.0</ele><time>2026-04-09T09:39:29.999Z</time></trkpt><trkpt lat="43.69427513375823" lon="11.212347499910152"><ele>95.0</ele><time>2026-04-09T09:39:30.999Z</time></trkpt><trkpt lat="43.694509659087466" lon="11.212248271402464"><ele>92.0</ele><time>2026-04-09T09:39:31.999Z</time></trkpt><trkpt lat="43.694732985135964" lon="11.212153813859096"><ele>92.0</ele><time>2026-04-09T09:39:32.999Z</time></trkpt><trkpt lat="43.69494949954055" lon="11.212049268119934"><ele>92.0</ele><time>2026-04-09T09:39:33.999Z</time></trkpt><trkpt lat="43.69516445538254" lon="11.211946443094485"><ele>94.33333333333334</ele><time>2026-04-09T09:39:34.999Z</time></trkpt><trkpt lat="43.69537219535489" lon="11.211848190185508"><ele>96.66666666666667</ele><time>2026-04-09T09:39:35.999Z</time></trkpt><trkpt lat="43.69559095208656" lon="11.211756705830675"><ele>99.0</ele><time>2026-04-09T09:39:36.999Z</time></trkpt><trkpt lat="43.69579344198456" lon="11.211690035385407"><ele>99.0</ele><time>2026-04-09T09:39:37.999Z</time></trkpt><trkpt lat="43.69601563100916" lon="11.211644088353944"><ele>99.0</ele><time>2026-04-09T09:39:38.999Z</time></trkpt><trkpt lat="43.69624885705532" lon="11.21160339158819"><ele>98.0</ele><time>2026-04-09T09:39:39.999Z</time></trkpt><trkpt lat="43.69649159151704" lon="11.211585788502907"><ele>97.0</ele><time>2026-04-09T09:39:40.999Z</time></trkpt><trkpt lat="43.69673255026079" lon="11.211592486075705"><ele>95.66666666666667</ele><time>2026-04-09T09:39:41.999Z</time></trkpt><trkpt lat="43.69696760681073" lon="11.211611010761537"><ele>94.33333333333334</ele><time>2026-04-09T09:39:43Z</time></trkpt><trkpt lat="43.69717494332351" lon="11.211647547807473"><ele>93.0</ele><time>2026-04-09T09:39:44Z</time></trkpt><trkpt lat="43.697389408039776" lon="11.211694280134036"><ele>93.0</ele><time>2026-04-09T09:39:45Z</time></trkpt><trkpt lat="43.69759627585135" lon="11.211756131595038"><ele>93.0</ele><time>2026-04-09T09:39:46Z</time></trkpt><trkpt lat="43.69780193654333" lon="11.211838332791682"><ele>93.0</ele><time>2026-04-09T09:39:47Z</time></trkpt><trkpt lat="43.69801081709018" lon="11.211940165940916"><ele>91.0</ele><time>2026-04-09T09:39:48Z</time></trkpt><trkpt lat="43.698228102559625" lon="11.2120687505458"><ele>89.0</ele><time>2026-04-09T09:39:49Z</time></trkpt><trkpt lat="43.698439643653906" lon="11.212213085408886"><ele>89.0</ele><time>2026-04-09T09:39:50Z</time></trkpt><trkpt lat="43.69865195980745" lon="11.212373090794099"><ele>89.0</ele><time>2026-04-09T09:39:51Z</time></trkpt><trkpt lat="43.698860377640045" lon="11.21254777143891"><ele>89.0</ele><time>2026-04-09T09:39:52Z</time></trkpt><trkpt lat="43.699068994161074" lon="11.212719428516612"><ele>89.0</ele><time>2026-04-09T09:39:53Z</time></trkpt><trkpt lat="43.69925522477403" lon="11.212885232244245"><ele>88.0</ele><time>2026-04-09T09:39:54Z</time></trkpt><trkpt lat="43.69944135755581" lon="11.213041471505395"><ele>87.0</ele><time>2026-04-09T09:39:55Z</time></trkpt><trkpt lat="43.69962395623246" lon="11.213186948968671"><ele>86.0</ele><time>2026-04-09T09:39:56Z</time></trkpt><trkpt lat="43.69979967081581" lon="11.213319988261754"><ele>86.0</ele><time>2026-04-09T09:39:57Z</time></trkpt><trkpt lat="43.69997257898593" lon="11.213439780857668"><ele>86.0</ele><time>2026-04-09T09:39:58Z</time></trkpt><trkpt lat="43.70015576662965" lon="11.213553450733698"><ele>86.0</ele><time>2026-04-09T09:39:59Z</time></trkpt><trkpt lat="43.7003423170913" lon="11.213662082405868"><ele>86.0</ele><time>2026-04-09T09:40:00Z</time></trkpt><trkpt lat="43.70054704201038" lon="11.213768871969279"><ele>86.0</ele><time>2026-04-09T09:40:01Z</time></trkpt><trkpt lat="43.700750996258265" lon="11.213867973885566"><ele>86.0</ele><time>2026-04-09T09:40:02Z</time></trkpt><trkpt lat="43.70094889648061" lon="11.213943620195005"><ele>85.33333333333334</ele><time>2026-04-09T09:40:03Z</time></trkpt><trkpt lat="43.70115516306314" lon="11.214006680655471"><ele>84.66666666666667</ele><time>2026-04-09T09:40:04Z</time></trkpt><trkpt lat="43.701368687437466" lon="11.214062225293905"><ele>84.0</ele><time>2026-04-09T09:40:05Z</time></trkpt><trkpt lat="43.70159425301576" lon="11.214102469824097"><ele>84.0</ele><time>2026-04-09T09:40:06Z</time></trkpt><trkpt lat="43.70181988650276" lon="11.214133023626117"><ele>84.0</ele><time>2026-04-09T09:40:07Z</time></trkpt><trkpt lat="43.70205031560213" lon="11.214141004408159"><ele>85.5</ele><time>2026-04-09T09:40:08Z</time></trkpt><trkpt lat="43.70228796768305" lon="11.214129985458626"><ele>87.0</ele><time>2026-04-09T09:40:09Z</time></trkpt><trkpt lat="43.702517949455384" lon="11.214104331167707"><ele>87.0</ele><time>2026-04-09T09:40:10Z</time></trkpt><trkpt lat="43.70273079333912" lon="11.214067325922917"><ele>87.0</ele><time>2026-04-09T09:40:11Z</time></trkpt><trkpt lat="43.70294725362818" lon="11.21402416126746"><ele>87.0</ele><time>2026-04-09T09:40:12Z</time></trkpt><trkpt lat="43.70315130734188" lon="11.213990134112223"><ele>90.33333333333334</ele><time>2026-04-09T09:40:13Z</time></trkpt><trkpt lat="43.70335186086854" lon="11.213953987950662"><ele>93.66666666666667</ele><time>2026-04-09T09:40:14Z</time></trkpt><trkpt lat="43.703555678543935" lon="11.213915000959899"><ele>97.0</ele><time>2026-04-09T09:40:15Z</time></trkpt><trkpt lat="43.70376207799959" lon="11.213874444783785"><ele>114.33333333333334</ele><time>2026-04-09T09:40:16Z</time></trkpt><trkpt lat="43.70396639975179" lon="11.21384232512558"><ele>131.66666666666666</ele><time>2026-04-09T09:40:17Z</time></trkpt><trkpt lat="43.70416900097889" lon="11.213807318840207"><ele>149.0</ele><time>2026-04-09T09:40:18Z</time></trkpt><trkpt lat="43.70436734381405" lon="11.213773077039885"><ele>153.66666666666666</ele><time>2026-04-09T09:40:19.018Z</time></trkpt><trkpt lat="43.704563297408995" lon="11.213736436577923"><ele>158.33333333333334</ele><time>2026-04-09T09:40:20.015Z</time></trkpt><trkpt lat="43.70475865726321" lon="11.213696181164778"><ele>163.0</ele><time>2026-04-09T09:40:21.015Z</time></trkpt><trkpt lat="43.70498400829635" lon="11.213656561742104"><ele>163.0</ele><time>2026-04-09T09:40:22.02Z</time></trkpt><trkpt lat="43.705231922346215" lon="11.213623845705035"><ele>163.0</ele><time>2026-04-09T09:40:23.02Z</time></trkpt><trkpt lat="43.70545046586233" lon="11.213591051138167"><ele>83.0</ele><time>2026-04-09T09:40:24.016Z</time></trkpt><trkpt lat="43.70741040915596" lon="11.21324124747069"><ele>83.0</ele><time>2026-04-09T09:40:32Z</time></trkpt><trkpt lat="43.70762373026284" lon="11.21320314475621"><ele>83.0</ele><time>2026-04-09T09:40:33Z</time></trkpt><trkpt lat="43.70784700090332" lon="11.213177587596308"><ele>83.0</ele><time>2026-04-09T09:40:34Z</time></trkpt><trkpt lat="43.708054343660265" lon="11.21315493447133"><ele>80.33333333333334</ele><time>2026-04-09T09:40:35Z</time></trkpt><trkpt lat="43.70825417032744" lon="11.213152160956886"><ele>77.66666666666667</ele><time>2026-04-09T09:40:36Z</time></trkpt><trkpt lat="43.7084554477869" lon="11.21315272574447"><ele>75.0</ele><time>2026-04-09T09:40:37Z</time></trkpt><trkpt lat="43.708647330470484" lon="11.213154028245203"><ele>74.33333333333333</ele><time>2026-04-09T09:40:38Z</time></trkpt><trkpt lat="43.70886644657734" lon="11.213180294024259"><ele>73.66666666666666</ele><time>2026-04-09T09:40:39Z</time></trkpt><trkpt lat="43.70908801640953" lon="11.21322865120031"><ele>73.0</ele><time>2026-04-09T09:40:40Z</time></trkpt><trkpt lat="43.709297530622045" lon="11.213272631972359"><ele>73.0</ele><time>2026-04-09T09:40:41Z</time></trkpt><trkpt lat="43.70949514122687" lon="11.2133406326084"><ele>73.0</ele><time>2026-04-09T09:40:42Z</time></trkpt><trkpt lat="43.70970366870549" lon="11.213419982432319"><ele>73.0</ele><time>2026-04-09T09:40:43Z</time></trkpt><trkpt lat="43.70991275910961" lon="11.213512096660418"><ele>73.0</ele><time>2026-04-09T09:40:44Z</time></trkpt><trkpt lat="43.71012137844748" lon="11.213611180086994"><ele>73.0</ele><time>2026-04-09T09:40:45Z</time></trkpt><trkpt lat="43.710334686561694" lon="11.21374221758468"><ele>72.5</ele><time>2026-04-09T09:40:46Z</time></trkpt><trkpt lat="43.71054431114569" lon="11.213865245812267"><ele>72.0</ele><time>2026-04-09T09:40:47Z</time></trkpt><trkpt lat="43.71074984584444" lon="11.214000198303037"><ele>72.0</ele><time>2026-04-09T09:40:48Z</time></trkpt><trkpt lat="43.71093718076282" lon="11.214129063929253"><ele>72.0</ele><time>2026-04-09T09:40:49Z</time></trkpt><trkpt lat="43.71112779310289" lon="11.214245312501689"><ele>72.0</ele><time>2026-04-09T09:40:50Z</time></trkpt><trkpt lat="43.71131605153492" lon="11.21436767761968"><ele>73.0</ele><time>2026-04-09T09:40:51Z</time></trkpt><trkpt lat="43.71150621953619" lon="11.214493789597423"><ele>74.0</ele><time>2026-04-09T09:40:52Z</time></trkpt><trkpt lat="43.711705093944154" lon="11.214626738925507"><ele>75.0</ele><time>2026-04-09T09:40:53Z</time></trkpt><trkpt lat="43.711915083402424" lon="11.214751831201639"><ele>74.33333333333333</ele><time>2026-04-09T09:40:54Z</time></trkpt><trkpt lat="43.712118343063466" lon="11.214879057500315"><ele>73.66666666666666</ele><time>2026-04-09T09:40:55Z</time></trkpt><trkpt lat="43.71229968762496" lon="11.215008554478473"><ele>73.0</ele><time>2026-04-09T09:40:56Z</time></trkpt><trkpt lat="43.71249734390153" lon="11.215147917147666"><ele>73.0</ele><time>2026-04-09T09:40:57Z</time></trkpt><trkpt lat="43.71267885948378" lon="11.215286459365505"><ele>73.0</ele><time>2026-04-09T09:40:58Z</time></trkpt><trkpt lat="43.71283818806767" lon="11.215440177472225"><ele>73.0</ele><time>2026-04-09T09:40:59Z</time></trkpt><trkpt lat="43.712985702137466" lon="11.21560135484591"><ele>72.0</ele><time>2026-04-09T09:41:00Z</time></trkpt><trkpt lat="43.71311992514449" lon="11.215757575412985"><ele>71.0</ele><time>2026-04-09T09:41:01Z</time></trkpt><trkpt lat="43.713250007240774" lon="11.215921895832055"><ele>70.0</ele><time>2026-04-09T09:41:02Z</time></trkpt><trkpt lat="43.71338161637737" lon="11.216096782164684"><ele>70.0</ele><time>2026-04-09T09:41:03Z</time></trkpt><trkpt lat="43.7135125662564" lon="11.216287638366484"><ele>70.0</ele><time>2026-04-09T09:41:04Z</time></trkpt><trkpt lat="43.71363750224883" lon="11.216496625486283"><ele>70.0</ele><time>2026-04-09T09:41:05Z</time></trkpt><trkpt lat="43.71374373822347" lon="11.216694497677233"><ele>70.66666666666666</ele><time>2026-04-09T09:41:05.999Z</time></trkpt><trkpt lat="43.713848816208625" lon="11.21689985366687"><ele>71.33333333333333</ele><time>2026-04-09T09:41:06.999Z</time></trkpt><trkpt lat="43.71395207247243" lon="11.21712414998627"><ele>72.0</ele><time>2026-04-09T09:41:07.999Z</time></trkpt><trkpt lat="43.71405212158369" lon="11.217358767877283"><ele>72.0</ele><time>2026-04-09T09:41:08.999Z</time></trkpt><trkpt lat="43.71413655716268" lon="11.21757924807535"><ele>72.0</ele><time>2026-04-09T09:41:09.999Z</time></trkpt><trkpt lat="43.714222535343566" lon="11.217784537801997"><ele>72.0</ele><time>2026-04-09T09:41:10.999Z</time></trkpt><trkpt lat="43.714313791818476" lon="11.217996638572133"><ele>75.66666666666667</ele><time>2026-04-09T09:41:11.999Z</time></trkpt><trkpt lat="43.71441191957609" lon="11.218207867154373"><ele>79.33333333333334</ele><time>2026-04-09T09:41:12.999Z</time></trkpt><trkpt lat="43.714530313170734" lon="11.218419785074248"><ele>83.0</ele><time>2026-04-09T09:41:13.999Z</time></trkpt><trkpt lat="43.71465765081459" lon="11.21862196102319"><ele>83.0</ele><time>2026-04-09T09:41:14.999Z</time></trkpt><trkpt lat="43.7147872034051" lon="11.218811785618048"><ele>83.0</ele><time>2026-04-09T09:41:15.999Z</time></trkpt><trkpt lat="43.714912260356066" lon="11.2189783308569"><ele>83.0</ele><time>2026-04-09T09:41:16.999Z</time></trkpt><trkpt lat="43.7150362174085" lon="11.219141173631238"><ele>84.0</ele><time>2026-04-09T09:41:17.999Z</time></trkpt><trkpt lat="43.715172264473125" lon="11.219296915706469"><ele>85.0</ele><time>2026-04-09T09:41:18.999Z</time></trkpt><trkpt lat="43.71532626499873" lon="11.219441256821476"><ele>86.0</ele><time>2026-04-09T09:41:19.999Z</time></trkpt><trkpt lat="43.71547926948846" lon="11.219576111578242"><ele>86.0</ele><time>2026-04-09T09:41:20.999Z</time></trkpt><trkpt lat="43.71563748710065" lon="11.219716862904065"><ele>86.0</ele><time>2026-04-09T09:41:21.999Z</time></trkpt><trkpt lat="43.71580141260952" lon="11.219851538916007"><ele>86.0</ele><time>2026-04-09T09:41:22.999Z</time></trkpt><trkpt lat="43.71596647266144" lon="11.219956946416602"><ele>84.33333333333334</ele><time>2026-04-09T09:41:23.999Z</time></trkpt><trkpt lat="43.71613091970585" lon="11.220059961837773"><ele>82.66666666666667</ele><time>2026-04-09T09:41:24.999Z</time></trkpt><trkpt lat="43.71630931535907" lon="11.220156491758226"><ele>81.0</ele><time>2026-04-09T09:41:25.999Z</time></trkpt><trkpt lat="43.71649965693285" lon="11.220243739270558"><ele>81.0</ele><time>2026-04-09T09:41:26.999Z</time></trkpt><trkpt lat="43.716677040006616" lon="11.220313660138318"><ele>81.0</ele><time>2026-04-09T09:41:27.999Z</time></trkpt><trkpt lat="43.71685336871051" lon="11.220362225481486"><ele>81.0</ele><time>2026-04-09T09:41:28.999Z</time></trkpt><trkpt lat="43.717016581778765" lon="11.220393757339739"><ele>82.33333333333333</ele><time>2026-04-09T09:41:29.999Z</time></trkpt><trkpt lat="43.71717650625486" lon="11.220417530761313"><ele>83.66666666666666</ele><time>2026-04-09T09:41:30.999Z</time></trkpt><trkpt lat="43.71734827867412" lon="11.22043040516606"><ele>85.0</ele><time>2026-04-09T09:41:31.999Z</time></trkpt><trkpt lat="43.71752722360893" lon="11.220436060756237"><ele>85.0</ele><time>2026-04-09T09:41:32.999Z</time></trkpt><trkpt lat="43.71770905844135" lon="11.220440480180507"><ele>85.0</ele><time>2026-04-09T09:41:33.999Z</time></trkpt><trkpt lat="43.71790756248952" lon="11.2204408531721"><ele>85.0</ele><time>2026-04-09T09:41:34.999Z</time></trkpt><trkpt lat="43.7181028092856" lon="11.220447584367207"><ele>84.33333333333333</ele><time>2026-04-09T09:41:35.999Z</time></trkpt><trkpt lat="43.718292252925" lon="11.220454695179152"><ele>83.66666666666667</ele><time>2026-04-09T09:41:36.999Z</time></trkpt><trkpt lat="43.71847345132726" lon="11.220437677955248"><ele>83.0</ele><time>2026-04-09T09:41:37.999Z</time></trkpt><trkpt lat="43.7186537153056" lon="11.220451534100555"><ele>81.66666666666667</ele><time>2026-04-09T09:41:38.999Z</time></trkpt><trkpt lat="43.71882673416433" lon="11.22045343664826"><ele>80.33333333333333</ele><time>2026-04-09T09:41:39.999Z</time></trkpt><trkpt lat="43.71899268727742" lon="11.22045514525434"><ele>79.0</ele><time>2026-04-09T09:41:40.999Z</time></trkpt><trkpt lat="43.719147587651186" lon="11.22046401609042"><ele>79.0</ele><time>2026-04-09T09:41:41.999Z</time></trkpt><trkpt lat="43.71928528552818" lon="11.220485368949898"><ele>79.0</ele><time>2026-04-09T09:41:42.999Z</time></trkpt><trkpt lat="43.71941659434659" lon="11.220558309299436"><ele>79.0</ele><time>2026-04-09T09:41:43.999Z</time></trkpt><trkpt lat="43.719527114336614" lon="11.220645388111276"><ele>79.0</ele><time>2026-04-09T09:41:44.999Z</time></trkpt><trkpt lat="43.7196322685794" lon="11.220750776267408"><ele>76.4</ele><time>2026-04-09T09:41:45.999Z</time></trkpt><trkpt lat="43.719728859295905" lon="11.220848721812517"><ele>73.80000000000001</ele><time>2026-04-09T09:41:46.999Z</time></trkpt><trkpt lat="43.719781868187134" lon="11.22095444653594"><ele>71.19999999999999</ele><time>2026-04-09T09:41:47.999Z</time></trkpt><trkpt lat="43.719819518639326" lon="11.22105941487729"><ele>68.6</ele><time>2026-04-09T09:41:49Z</time></trkpt><trkpt lat="43.71984029228035" lon="11.221163462883272"><ele>66.0</ele><time>2026-04-09T09:41:50Z</time></trkpt><trkpt lat="43.71985121923423" lon="11.221271912733846"><ele>66.0</ele><time>2026-04-09T09:41:51Z</time></trkpt><trkpt lat="43.71985961949326" lon="11.221380377823177"><ele>66.0</ele><time>2026-04-09T09:41:52Z</time></trkpt><trkpt lat="43.71986484416477" lon="11.221487934831941"><ele>66.0</ele><time>2026-04-09T09:41:53Z</time></trkpt><trkpt lat="43.71985276690296" lon="11.221574275541958"><ele>66.0</ele><time>2026-04-09T09:41:54Z</time></trkpt><trkpt lat="43.71984873725577" lon="11.221741899860055"><ele>66.0</ele><time>2026-04-09T09:41:56Z</time></trkpt><trkpt lat="43.719838820731596" lon="11.22185214738689"><ele>66.0</ele><time>2026-04-09T09:41:59Z</time></trkpt><trkpt lat="43.7198394977013" lon="11.221951388467282"><ele>65.66666666666667</ele><time>2026-04-09T09:42:02Z</time></trkpt><trkpt lat="43.71985292190145" lon="11.222099844695503"><ele>65.33333333333333</ele><time>2026-04-09T09:42:04Z</time></trkpt><trkpt lat="43.71985230932137" lon="11.222205245689064"><ele>65.0</ele><time>2026-04-09T09:42:05Z</time></trkpt><trkpt lat="43.71985318336529" lon="11.22233258806618"><ele>64.66666666666666</ele><time>2026-04-09T09:42:06Z</time></trkpt><trkpt lat="43.71985319524504" lon="11.222437696023151"><ele>64.33333333333333</ele><time>2026-04-09T09:42:07Z</time></trkpt><trkpt lat="43.71984100162666" lon="11.222529841297817"><ele>64.0</ele><time>2026-04-09T09:42:08Z</time></trkpt><trkpt lat="43.71983573652198" lon="11.222628229973687"><ele>64.0</ele><time>2026-04-09T09:42:11Z</time></trkpt><trkpt lat="43.71982258381428" lon="11.222728694749543"><ele>63.99999999999999</ele><time>2026-04-09T09:42:14Z</time></trkpt><trkpt lat="43.719831307191185" lon="11.222821888126564"><ele>64.0</ele><time>2026-04-09T09:42:17Z</time></trkpt><trkpt lat="43.71981934509749" lon="11.222907747454268"><ele>64.0</ele><time>2026-04-09T09:42:19Z</time></trkpt><trkpt lat="43.719813709749985" lon="11.22302052752775"><ele>63.99999999999999</ele><time>2026-04-09T09:42:22Z</time></trkpt><trkpt lat="43.71979782781899" lon="11.223118301526402"><ele>64.0</ele><time>2026-04-09T09:42:24Z</time></trkpt><trkpt lat="43.71981135558193" lon="11.223208918202198"><ele>64.0</ele><time>2026-04-09T09:42:26Z</time></trkpt><trkpt lat="43.7198211301396" lon="11.223305629062986"><ele>64.8</ele><time>2026-04-09T09:42:28Z</time></trkpt><trkpt lat="43.71987984330704" lon="11.22341158720973"><ele>65.60000000000001</ele><time>2026-04-09T09:42:30Z</time></trkpt><trkpt lat="43.719967671232695" lon="11.223479608488967"><ele>66.4</ele><time>2026-04-09T09:42:32Z</time></trkpt><trkpt lat="43.720063990644285" lon="11.223499455562392"><ele>67.2</ele><time>2026-04-09T09:42:34Z</time></trkpt><trkpt lat="43.72015694859263" lon="11.223488975846514"><ele>68.0</ele><time>2026-04-09T09:42:36Z</time></trkpt><trkpt lat="43.72021041779142" lon="11.223402338634"><ele>67.83333333333334</ele><time>2026-04-09T09:42:37Z</time></trkpt><trkpt lat="43.720271857148184" lon="11.22335900384929"><ele>67.66666666666667</ele><time>2026-04-09T09:42:38Z</time></trkpt><trkpt lat="43.72030882459764" lon="11.223263633149369"><ele>67.5</ele><time>2026-04-09T09:42:39Z</time></trkpt><trkpt lat="43.720329793195866" lon="11.223170850360944"><ele>67.33333333333333</ele><time>2026-04-09T09:42:40Z</time></trkpt><trkpt lat="43.720296971260034" lon="11.223055311708459"><ele>67.16666666666666</ele><time>2026-04-09T09:42:41Z</time></trkpt><trkpt lat="43.72025229629032" lon="11.222967298249758"><ele>67.0</ele><time>2026-04-09T09:42:42Z</time></trkpt><trkpt lat="43.72019223000179" lon="11.222898788930186"><ele>67.2</ele><time>2026-04-09T09:42:43Z</time></trkpt><trkpt lat="43.72011713916856" lon="11.22285315185907"><ele>67.4</ele><time>2026-04-09T09:42:44Z</time></trkpt><trkpt lat="43.720040087030576" lon="11.22287328868339"><ele>67.6</ele><time>2026-04-09T09:42:45Z</time></trkpt><trkpt lat="43.719929836163764" lon="11.222923348638208"><ele>67.8</ele><time>2026-04-09T09:42:47Z</time></trkpt><trkpt lat="43.71984489659707" lon="11.223059970445147"><ele>68.0</ele><time>2026-04-09T09:42:49Z</time></trkpt><trkpt lat="43.71982384025646" lon="11.223163693764093"><ele>68.0</ele><time>2026-04-09T09:42:50Z</time></trkpt><trkpt lat="43.71982610709117" lon="11.223272775132829"><ele>68.0</ele><time>2026-04-09T09:42:51Z</time></trkpt><trkpt lat="43.71984037822102" lon="11.223370783842334"><ele>68.0</ele><time>2026-04-09T09:42:52Z</time></trkpt><trkpt lat="43.71988606792646" lon="11.223452291270815"><ele>68.0</ele><time>2026-04-09T09:42:53Z</time></trkpt><trkpt lat="43.71996958498726" lon="11.22354337884799"><ele>68.0</ele><time>2026-04-09T09:42:55Z</time></trkpt><trkpt lat="43.720037052754456" lon="11.223566224173561"><ele>68.0</ele><time>2026-04-09T09:42:58Z</time></trkpt><trkpt lat="43.72015291823944" lon="11.223545853296546"><ele>68.0</ele><time>2026-04-09T09:45:09Z</time></trkpt><trkpt lat="43.720206222582554" lon="11.223481135984072"><ele>68.0</ele><time>2026-04-09T09:45:10Z</time></trkpt><trkpt lat="43.720269592015995" lon="11.223408589462224"><ele>68.0</ele><time>2026-04-09T09:45:11Z</time></trkpt><trkpt lat="43.720328332864845" lon="11.22333014501127"><ele>68.0</ele><time>2026-04-09T09:45:12Z</time></trkpt><trkpt lat="43.720399474963074" lon="11.223251405280685"><ele>68.0</ele><time>2026-04-09T09:45:12.999Z</time></trkpt><trkpt lat="43.72047473219246" lon="11.223152644652108"><ele>68.0</ele><time>2026-04-09T09:45:13.999Z</time></trkpt><trkpt lat="43.72056775449786" lon="11.223088289633175"><ele>67.5</ele><time>2026-04-09T09:45:14.999Z</time></trkpt><trkpt lat="43.72067038352702" lon="11.22301464703385"><ele>67.0</ele><time>2026-04-09T09:45:15.999Z</time></trkpt><trkpt lat="43.72075482596661" lon="11.222952932895687"><ele>66.5</ele><time>2026-04-09T09:45:16.999Z</time></trkpt><trkpt lat="43.72088555231451" lon="11.22293924241163"><ele>66.0</ele><time>2026-04-09T09:45:17.999Z</time></trkpt><trkpt lat="43.720988893574315" lon="11.222878840509416"><ele>66.0</ele><time>2026-04-09T09:45:18.999Z</time></trkpt><trkpt lat="43.72107514807577" lon="11.222826765933087"><ele>66.0</ele><time>2026-04-09T09:45:19.999Z</time></trkpt><trkpt lat="43.721152678581376" lon="11.222779958872128"><ele>66.0</ele><time>2026-04-09T09:45:20.999Z</time></trkpt><trkpt lat="43.721224237359344" lon="11.222722882012652"><ele>66.0</ele><time>2026-04-09T09:45:21.999Z</time></trkpt><trkpt lat="43.72131561415633" lon="11.222677847489106"><ele>66.0</ele><time>2026-04-09T09:45:23.999Z</time></trkpt><trkpt lat="43.7214100341511" lon="11.22263022029249"><ele>66.0</ele><time>2026-04-09T09:45:38.999Z</time></trkpt><trkpt lat="43.72147625562519" lon="11.222594489496368"><ele>66.0</ele><time>2026-04-09T09:45:39.999Z</time></trkpt><trkpt lat="43.72156651853741" lon="11.222541140827042"><ele>66.0</ele><time>2026-04-09T09:45:40.999Z</time></trkpt><trkpt lat="43.72166166028243" lon="11.222483225970942"><ele>66.0</ele><time>2026-04-09T09:45:41.999Z</time></trkpt><trkpt lat="43.72177741265706" lon="11.22246307540993"><ele>66.0</ele><time>2026-04-09T09:45:42.999Z</time></trkpt><trkpt lat="43.72187211514047" lon="11.222359085011473"><ele>66.5</ele><time>2026-04-09T09:45:43.999Z</time></trkpt><trkpt lat="43.72197484951261" lon="11.222268054482301"><ele>67.0</ele><time>2026-04-09T09:45:44.999Z</time></trkpt><trkpt lat="43.72210113310169" lon="11.222196518488184"><ele>67.5</ele><time>2026-04-09T09:45:45.999Z</time></trkpt><trkpt lat="43.722249152585775" lon="11.222127226429365"><ele>68.0</ele><time>2026-04-09T09:45:46.999Z</time></trkpt><trkpt lat="43.722397654887814" lon="11.222068117256153"><ele>68.0</ele><time>2026-04-09T09:45:47.999Z</time></trkpt><trkpt lat="43.72257008295565" lon="11.222010638465063"><ele>68.0</ele><time>2026-04-09T09:45:48.999Z</time></trkpt><trkpt lat="43.72271089955612" lon="11.221985510522856"><ele>68.0</ele><time>2026-04-09T09:45:49.999Z</time></trkpt><trkpt lat="43.72285549390721" lon="11.221973182290892"><ele>70.33333333333334</ele><time>2026-04-09T09:45:50.999Z</time></trkpt><trkpt lat="43.72300655731858" lon="11.2219791676866"><ele>72.66666666666667</ele><time>2026-04-09T09:45:51.999Z</time></trkpt><trkpt lat="43.723170171774555" lon="11.222000328835438"><ele>75.0</ele><time>2026-04-09T09:45:52.999Z</time></trkpt><trkpt lat="43.72334772265043" lon="11.222031161055577"><ele>75.0</ele><time>2026-04-09T09:45:53.999Z</time></trkpt><trkpt lat="43.72353533481923" lon="11.222060653439616"><ele>75.0</ele><time>2026-04-09T09:45:54.999Z</time></trkpt><trkpt lat="43.72364885894459" lon="11.222052172882815"><ele>75.0</ele><time>2026-04-09T09:45:55.999Z</time></trkpt><trkpt lat="43.72379693960281" lon="11.222089602182052"><ele>75.2</ele><time>2026-04-09T09:45:56.999Z</time></trkpt><trkpt lat="43.72393197686346" lon="11.222116268526175"><ele>75.4</ele><time>2026-04-09T09:45:57.999Z</time></trkpt><trkpt lat="43.72401000665629" lon="11.222125808813566"><ele>75.6</ele><time>2026-04-09T09:45:58.999Z</time></trkpt><trkpt lat="43.724094445954904" lon="11.222150814699791"><ele>75.8</ele><time>2026-04-09T09:45:59.999Z</time></trkpt><trkpt lat="43.724179741800455" lon="11.222212414586691"><ele>76.0</ele><time>2026-04-09T09:46:01Z</time></trkpt><trkpt lat="43.72425150049755" lon="11.222308157746031"><ele>74.8</ele><time>2026-04-09T09:46:02Z</time></trkpt><trkpt lat="43.724287973018114" lon="11.222432177788574"><ele>73.6</ele><time>2026-04-09T09:46:03Z</time></trkpt><trkpt lat="43.724300613722605" lon="11.222574581762107"><ele>72.4</ele><time>2026-04-09T09:46:04Z</time></trkpt><trkpt lat="43.72427455246147" lon="11.22270213226328"><ele>71.2</ele><time>2026-04-09T09:46:05Z</time></trkpt><trkpt lat="43.72422894558892" lon="11.222820224567512"><ele>70.0</ele><time>2026-04-09T09:46:06Z</time></trkpt><trkpt lat="43.724137855127445" lon="11.222889890946242"><ele>70.0</ele><time>2026-04-09T09:46:07Z</time></trkpt><trkpt lat="43.72405800817707" lon="11.22293487039699"><ele>70.0</ele><time>2026-04-09T09:46:08Z</time></trkpt><trkpt lat="43.72397616370571" lon="11.222937550696457"><ele>70.0</ele><time>2026-04-09T09:46:09Z</time></trkpt><trkpt lat="43.72389067127763" lon="11.222957655512193"><ele>70.0</ele><time>2026-04-09T09:46:10Z</time></trkpt><trkpt lat="43.72381671979133" lon="11.22287241843244"><ele>70.0</ele><time>2026-04-09T09:46:11Z</time></trkpt><trkpt lat="43.723769688452705" lon="11.222797868283193"><ele>70.0</ele><time>2026-04-09T09:46:12Z</time></trkpt><trkpt lat="43.723735572776086" lon="11.22271568163541"><ele>70.0</ele><time>2026-04-09T09:46:13Z</time></trkpt><trkpt lat="43.723716439086395" lon="11.222626801820674"><ele>70.0</ele><time>2026-04-09T09:46:14Z</time></trkpt><trkpt lat="43.7237041220966" lon="11.222522682583001"><ele>70.0</ele><time>2026-04-09T09:46:15Z</time></trkpt><trkpt lat="43.72370663267376" lon="11.222405512809804"><ele>70.0</ele><time>2026-04-09T09:46:16Z</time></trkpt><trkpt lat="43.723713170688285" lon="11.222271790389742"><ele>70.0</ele><time>2026-04-09T09:46:17Z</time></trkpt><trkpt lat="43.72372975626741" lon="11.222105990824263"><ele>70.0</ele><time>2026-04-09T09:46:18Z</time></trkpt><trkpt lat="43.72377234842005" lon="11.221961431177162"><ele>71.5</ele><time>2026-04-09T09:46:19Z</time></trkpt><trkpt lat="43.72384090430421" lon="11.22181716023964"><ele>73.0</ele><time>2026-04-09T09:46:20Z</time></trkpt><trkpt lat="43.72390764014327" lon="11.22164345705554"><ele>74.5</ele><time>2026-04-09T09:46:21Z</time></trkpt><trkpt lat="43.723987525401554" lon="11.221449055961788"><ele>76.0</ele><time>2026-04-09T09:46:22Z</time></trkpt><trkpt lat="43.72407387187725" lon="11.2212377977997"><ele>76.33333333333333</ele><time>2026-04-09T09:46:23Z</time></trkpt><trkpt lat="43.72416455155489" lon="11.221021871115"><ele>76.66666666666667</ele><time>2026-04-09T09:46:24Z</time></trkpt><trkpt lat="43.724270448906964" lon="11.220820929247026"><ele>77.0</ele><time>2026-04-09T09:46:25Z</time></trkpt><trkpt lat="43.7243873177506" lon="11.22060410709883"><ele>76.0</ele><time>2026-04-09T09:46:26Z</time></trkpt><trkpt lat="43.72451452773855" lon="11.220389094591091"><ele>75.0</ele><time>2026-04-09T09:46:27Z</time></trkpt><trkpt lat="43.724640143935424" lon="11.220173764703217"><ele>74.0</ele><time>2026-04-09T09:46:28Z</time></trkpt><trkpt lat="43.724766994525" lon="11.21994488513874"><ele>77.66666666666667</ele><time>2026-04-09T09:46:29Z</time></trkpt><trkpt lat="43.72489037266333" lon="11.219724873956118"><ele>81.33333333333333</ele><time>2026-04-09T09:46:30Z</time></trkpt><trkpt lat="43.725030273805395" lon="11.219489869835007"><ele>85.0</ele><time>2026-04-09T09:46:31Z</time></trkpt><trkpt lat="43.72516230593608" lon="11.219257911839042"><ele>84.33333333333333</ele><time>2026-04-09T09:46:32Z</time></trkpt><trkpt lat="43.72529803289726" lon="11.219018913866952"><ele>83.66666666666667</ele><time>2026-04-09T09:46:33Z</time></trkpt><trkpt lat="43.72543705845929" lon="11.218779904260149"><ele>83.0</ele><time>2026-04-09T09:46:34Z</time></trkpt><trkpt lat="43.72557357418625" lon="11.218529273680797"><ele>85.5</ele><time>2026-04-09T09:46:35Z</time></trkpt><trkpt lat="43.725712771582266" lon="11.218281011739943"><ele>88.0</ele><time>2026-04-09T09:46:36Z</time></trkpt><trkpt lat="43.72586614674243" lon="11.218012755407978"><ele>90.5</ele><time>2026-04-09T09:46:37Z</time></trkpt><trkpt lat="43.72601962506195" lon="11.217733697487214"><ele>93.0</ele><time>2026-04-09T09:46:38Z</time></trkpt><trkpt lat="43.72615744834219" lon="11.217453466104931"><ele>88.0</ele><time>2026-04-09T09:46:39Z</time></trkpt><trkpt lat="43.72629044533863" lon="11.21717735341269"><ele>83.0</ele><time>2026-04-09T09:46:40Z</time></trkpt><trkpt lat="43.72642618032162" lon="11.216901825269955"><ele>83.0</ele><time>2026-04-09T09:46:41Z</time></trkpt><trkpt lat="43.72644375651995" lon="11.216634133072851"><ele>83.0</ele><time>2026-04-09T09:46:42Z</time></trkpt><trkpt lat="43.726529041118404" lon="11.216352371470508"><ele>83.0</ele><time>2026-04-09T09:46:43Z</time></trkpt><trkpt lat="43.72660083697652" lon="11.216051687560881"><ele>86.0</ele><time>2026-04-09T09:46:44Z</time></trkpt><trkpt lat="43.7266718612928" lon="11.215742026572908"><ele>89.0</ele><time>2026-04-09T09:46:45Z</time></trkpt><trkpt lat="43.72672579230812" lon="11.215423961488987"><ele>91.5</ele><time>2026-04-09T09:46:46Z</time></trkpt><trkpt lat="43.72676418850699" lon="11.215103996002725"><ele>94.0</ele><time>2026-04-09T09:46:47Z</time></trkpt><trkpt lat="43.7267944029899" lon="11.21477130817921"><ele>94.5</ele><time>2026-04-09T09:46:48Z</time></trkpt><trkpt lat="43.72681380490188" lon="11.214431703335293"><ele>95.0</ele><time>2026-04-09T09:46:49Z</time></trkpt><trkpt lat="43.72682976264436" lon="11.214092491700994"><ele>95.5</ele><time>2026-04-09T09:46:50Z</time></trkpt><trkpt lat="43.726849051342164" lon="11.213749790513248"><ele>96.0</ele><time>2026-04-09T09:46:51Z</time></trkpt><trkpt lat="43.726875582219925" lon="11.21339821570582"><ele>107.5</ele><time>2026-04-09T09:46:52Z</time></trkpt><trkpt lat="43.72690061757034" lon="11.213041062495922"><ele>119.0</ele><time>2026-04-09T09:46:53Z</time></trkpt><trkpt lat="43.72692589241656" lon="11.212683514766441"><ele>119.0</ele><time>2026-04-09T09:46:54Z</time></trkpt><trkpt lat="43.72694953827671" lon="11.212324108216352"><ele>119.0</ele><time>2026-04-09T09:46:55Z</time></trkpt><trkpt lat="43.72697152797974" lon="11.21196167151266"><ele>115.5</ele><time>2026-04-09T09:46:56Z</time></trkpt><trkpt lat="43.72699741152077" lon="11.211589710721658"><ele>112.0</ele><time>2026-04-09T09:46:57Z</time></trkpt><trkpt lat="43.72702437735186" lon="11.21122037443383"><ele>111.0</ele><time>2026-04-09T09:46:58Z</time></trkpt><trkpt lat="43.72704573189115" lon="11.210847216306469"><ele>110.0</ele><time>2026-04-09T09:46:59Z</time></trkpt><trkpt lat="43.72706906747837" lon="11.210470723946312"><ele>111.5</ele><time>2026-04-09T09:47:00Z</time></trkpt><trkpt lat="43.72709438097986" lon="11.210115418926348"><ele>113.0</ele><time>2026-04-09T09:47:01Z</time></trkpt><trkpt lat="43.727119565119594" lon="11.20977922904541"><ele>113.0</ele><time>2026-04-09T09:47:02Z</time></trkpt><trkpt lat="43.727141463716116" lon="11.209432845267962"><ele>113.0</ele><time>2026-04-09T09:47:03Z</time></trkpt><trkpt lat="43.727168284929455" lon="11.209094284638368"><ele>112.5</ele><time>2026-04-09T09:47:04Z</time></trkpt><trkpt lat="43.727189844944824" lon="11.208751662602165"><ele>112.0</ele><time>2026-04-09T09:47:05Z</time></trkpt><trkpt lat="43.727209419420205" lon="11.208409478829768"><ele>113.5</ele><time>2026-04-09T09:47:06Z</time></trkpt><trkpt lat="43.727230968585516" lon="11.208067995101052"><ele>115.0</ele><time>2026-04-09T09:47:07Z</time></trkpt><trkpt lat="43.72725326564852" lon="11.207734707271888"><ele>115.0</ele><time>2026-04-09T09:47:08Z</time></trkpt><trkpt lat="43.72728402110454" lon="11.207409281632863"><ele>115.0</ele><time>2026-04-09T09:47:09Z</time></trkpt><trkpt lat="43.72730274420103" lon="11.207093775648296"><ele>116.33333333333334</ele><time>2026-04-09T09:47:10Z</time></trkpt><trkpt lat="43.7273260042472" lon="11.206810975805702"><ele>117.66666666666666</ele><time>2026-04-09T09:47:11Z</time></trkpt><trkpt lat="43.72736269172769" lon="11.206521205541202"><ele>119.0</ele><time>2026-04-09T09:47:12Z</time></trkpt><trkpt lat="43.727402369579885" lon="11.206221590111129"><ele>120.33333333333333</ele><time>2026-04-09T09:47:13Z</time></trkpt><trkpt lat="43.727467632517104" lon="11.205921092786205"><ele>121.66666666666666</ele><time>2026-04-09T09:47:14Z</time></trkpt><trkpt lat="43.72753759831735" lon="11.205648787514589"><ele>123.0</ele><time>2026-04-09T09:47:15Z</time></trkpt><trkpt lat="43.72761193185903" lon="11.205388356585901"><ele>126.66666666666666</ele><time>2026-04-09T09:47:16Z</time></trkpt><trkpt lat="43.72768343371885" lon="11.205119021707448"><ele>130.33333333333331</ele><time>2026-04-09T09:47:17.019Z</time></trkpt><trkpt lat="43.72775465760392" lon="11.204851828323278"><ele>134.0</ele><time>2026-04-09T09:47:18.016Z</time></trkpt><trkpt lat="43.72782791091806" lon="11.204584515999677"><ele>140.33333333333331</ele><time>2026-04-09T09:47:19.02Z</time></trkpt><trkpt lat="43.72789702381788" lon="11.204324691191415"><ele>146.66666666666666</ele><time>2026-04-09T09:47:20.019Z</time></trkpt><trkpt lat="43.727963269365574" lon="11.204072588220825"><ele>153.0</ele><time>2026-04-09T09:47:21.017Z</time></trkpt><trkpt lat="43.73065443247904" lon="11.199822574864328"><ele>134.0</ele><time>2026-04-09T09:47:36.999Z</time></trkpt><trkpt lat="43.73076112130152" lon="11.199562855468681"><ele>115.0</ele><time>2026-04-09T09:47:37.999Z</time></trkpt><trkpt lat="43.73083192891745" lon="11.199064245802628"><ele>113.33333333333334</ele><time>2026-04-09T09:47:38.999Z</time></trkpt><trkpt lat="43.730898592199914" lon="11.198804366963882"><ele>111.66666666666666</ele><time>2026-04-09T09:47:39.999Z</time></trkpt><trkpt lat="43.73095709395517" lon="11.198538561658406"><ele>110.0</ele><time>2026-04-09T09:47:40.999Z</time></trkpt><trkpt lat="43.7310226156866" lon="11.198226929537109"><ele>109.0</ele><time>2026-04-09T09:47:41.999Z</time></trkpt><trkpt lat="43.73105221183771" lon="11.198043126780007"><ele>108.0</ele><time>2026-04-09T09:47:42.999Z</time></trkpt><trkpt lat="43.731075455633466" lon="11.197728938607401"><ele>107.0</ele><time>2026-04-09T09:47:43.999Z</time></trkpt><trkpt lat="43.73107496290658" lon="11.197428074646213"><ele>108.66666666666666</ele><time>2026-04-09T09:47:44.999Z</time></trkpt><trkpt lat="43.73106530074288" lon="11.197139147490512"><ele>110.33333333333334</ele><time>2026-04-09T09:47:45.999Z</time></trkpt><trkpt lat="43.73105832981387" lon="11.196813486546969"><ele>112.0</ele><time>2026-04-09T09:47:46.999Z</time></trkpt><trkpt lat="43.7310413480997" lon="11.196387557848384"><ele>105.5</ele><time>2026-04-09T09:47:47.999Z</time></trkpt><trkpt lat="43.73103071892628" lon="11.196003829754641"><ele>99.0</ele><time>2026-04-09T09:47:48.999Z</time></trkpt><trkpt lat="43.73103468861367" lon="11.195592626704096"><ele>97.0</ele><time>2026-04-09T09:47:49.999Z</time></trkpt><trkpt lat="43.73103189425609" lon="11.19513318444132"><ele>95.0</ele><time>2026-04-09T09:47:50.999Z</time></trkpt><trkpt lat="43.73102243409587" lon="11.194710587023302"><ele>94.0</ele><time>2026-04-09T09:47:51.999Z</time></trkpt><trkpt lat="43.731010384065996" lon="11.194346763121352"><ele>93.0</ele><time>2026-04-09T09:47:52.999Z</time></trkpt><trkpt lat="43.73100183452437" lon="11.19396479983238"><ele>92.0</ele><time>2026-04-09T09:47:53.999Z</time></trkpt><trkpt lat="43.73099778357056" lon="11.193620789322955"><ele>91.0</ele><time>2026-04-09T09:47:54.999Z</time></trkpt><trkpt lat="43.730995311719425" lon="11.19330084807752"><ele>90.0</ele><time>2026-04-09T09:47:55.999Z</time></trkpt><trkpt lat="43.73100115245929" lon="11.193005422339102"><ele>89.0</ele><time>2026-04-09T09:47:56.999Z</time></trkpt><trkpt lat="43.731012023133026" lon="11.192697564864693"><ele>88.0</ele><time>2026-04-09T09:47:57.999Z</time></trkpt><trkpt lat="43.73104684040065" lon="11.192363344175432"><ele>94.0</ele><time>2026-04-09T09:47:58.999Z</time></trkpt><trkpt lat="43.73110206144962" lon="11.192039952252623"><ele>100.0</ele><time>2026-04-09T09:47:59.999Z</time></trkpt><trkpt lat="43.731155907121725" lon="11.191709473171382"><ele>101.0</ele><time>2026-04-09T09:48:00.999Z</time></trkpt><trkpt lat="43.73123936439813" lon="11.191387167582427"><ele>102.0</ele><time>2026-04-09T09:48:01.999Z</time></trkpt><trkpt lat="43.73129628300131" lon="11.191059140298083"><ele>102.0</ele><time>2026-04-09T09:48:02.999Z</time></trkpt><trkpt lat="43.73140652643546" lon="11.190739647070558"><ele>102.0</ele><time>2026-04-09T09:48:03.999Z</time></trkpt><trkpt lat="43.73154727304267" lon="11.190419740911578"><ele>97.5</ele><time>2026-04-09T09:48:04.999Z</time></trkpt><trkpt lat="43.73168316558797" lon="11.190129006547743"><ele>93.0</ele><time>2026-04-09T09:48:05.999Z</time></trkpt><trkpt lat="43.73183130599792" lon="11.189850125156472"><ele>93.5</ele><time>2026-04-09T09:48:07Z</time></trkpt><trkpt lat="43.731995097258356" lon="11.189573348650239"><ele>94.0</ele><time>2026-04-09T09:48:08Z</time></trkpt><trkpt lat="43.73216824433564" lon="11.18930724472634"><ele>94.0</ele><time>2026-04-09T09:48:09Z</time></trkpt><trkpt lat="43.73235769857889" lon="11.189054413334524"><ele>94.0</ele><time>2026-04-09T09:48:10Z</time></trkpt><trkpt lat="43.73256364784041" lon="11.188810542499697"><ele>90.0</ele><time>2026-04-09T09:48:11Z</time></trkpt><trkpt lat="43.73278231957035" lon="11.188587033335384"><ele>86.0</ele><time>2026-04-09T09:48:12Z</time></trkpt><trkpt lat="43.733016347034905" lon="11.188383763415333"><ele>86.0</ele><time>2026-04-09T09:48:13Z</time></trkpt><trkpt lat="43.7332488022916" lon="11.18819398501566"><ele>86.0</ele><time>2026-04-09T09:48:14Z</time></trkpt><trkpt lat="43.733502785380914" lon="11.188038780924424"><ele>81.5</ele><time>2026-04-09T09:48:15Z</time></trkpt><trkpt lat="43.7337653057628" lon="11.187897454294186"><ele>77.0</ele><time>2026-04-09T09:48:16Z</time></trkpt><trkpt lat="43.73403259449946" lon="11.187764857212743"><ele>77.0</ele><time>2026-04-09T09:48:17Z</time></trkpt><trkpt lat="43.734295836336514" lon="11.18762356796966"><ele>77.0</ele><time>2026-04-09T09:48:18Z</time></trkpt><trkpt lat="43.734559839906396" lon="11.18748104951861"><ele>81.5</ele><time>2026-04-09T09:48:19Z</time></trkpt><trkpt lat="43.734824471897376" lon="11.187341547128328"><ele>86.0</ele><time>2026-04-09T09:48:20Z</time></trkpt><trkpt lat="43.735089730174124" lon="11.187200302096205"><ele>83.5</ele><time>2026-04-09T09:48:21Z</time></trkpt><trkpt lat="43.73534742437462" lon="11.187059194267745"><ele>81.0</ele><time>2026-04-09T09:48:22Z</time></trkpt><trkpt lat="43.73558465858597" lon="11.186926791346025"><ele>81.0</ele><time>2026-04-09T09:48:23Z</time></trkpt><trkpt lat="43.735808178090345" lon="11.186799242252768"><ele>81.0</ele><time>2026-04-09T09:48:24Z</time></trkpt><trkpt lat="43.73603062826214" lon="11.186676943627356"><ele>80.5</ele><time>2026-04-09T09:48:25Z</time></trkpt><trkpt lat="43.73625595766396" lon="11.186536658161145"><ele>80.0</ele><time>2026-04-09T09:48:26Z</time></trkpt><trkpt lat="43.73648850119567" lon="11.18639984996264"><ele>77.5</ele><time>2026-04-09T09:48:27Z</time></trkpt><trkpt lat="43.73671970764385" lon="11.186252018406401"><ele>75.0</ele><time>2026-04-09T09:48:28Z</time></trkpt><trkpt lat="43.736947231966475" lon="11.186096122670197"><ele>75.0</ele><time>2026-04-09T09:48:29Z</time></trkpt><trkpt lat="43.73715776968253" lon="11.185939578158525"><ele>75.0</ele><time>2026-04-09T09:48:30Z</time></trkpt><trkpt lat="43.73736032355749" lon="11.18577807416669"><ele>76.5</ele><time>2026-04-09T09:48:31Z</time></trkpt><trkpt lat="43.737562936054516" lon="11.185604406346581"><ele>78.0</ele><time>2026-04-09T09:48:32Z</time></trkpt><trkpt lat="43.73777025156431" lon="11.185424360612261"><ele>72.5</ele><time>2026-04-09T09:48:33Z</time></trkpt><trkpt lat="43.737979991003044" lon="11.185241274109792"><ele>67.0</ele><time>2026-04-09T09:48:34Z</time></trkpt><trkpt lat="43.73818324091867" lon="11.185052199545567"><ele>67.0</ele><time>2026-04-09T09:48:35Z</time></trkpt><trkpt lat="43.73837500840147" lon="11.184866517692596"><ele>67.0</ele><time>2026-04-09T09:48:36Z</time></trkpt><trkpt lat="43.73857081927884" lon="11.184669166577441"><ele>66.0</ele><time>2026-04-09T09:48:37Z</time></trkpt><trkpt lat="43.73877582196262" lon="11.184466534998098"><ele>65.0</ele><time>2026-04-09T09:48:38Z</time></trkpt><trkpt lat="43.73898796285554" lon="11.18425539883804"><ele>65.0</ele><time>2026-04-09T09:48:39Z</time></trkpt><trkpt lat="43.73920944157923" lon="11.184033191667329"><ele>65.0</ele><time>2026-04-09T09:48:40Z</time></trkpt><trkpt lat="43.739442709082766" lon="11.1838002986205"><ele>64.0</ele><time>2026-04-09T09:48:41Z</time></trkpt><trkpt lat="43.73968947354305" lon="11.183561589084364"><ele>63.0</ele><time>2026-04-09T09:48:42Z</time></trkpt><trkpt lat="43.73994626311407" lon="11.183320658494093"><ele>63.0</ele><time>2026-04-09T09:48:43Z</time></trkpt><trkpt lat="43.740205488194576" lon="11.183077233505294"><ele>63.0</ele><time>2026-04-09T09:48:44Z</time></trkpt><trkpt lat="43.740468868763905" lon="11.182827617661236"><ele>63.0</ele><time>2026-04-09T09:48:45Z</time></trkpt><trkpt lat="43.740736803783264" lon="11.182572963416822"><ele>63.0</ele><time>2026-04-09T09:48:46Z</time></trkpt><trkpt lat="43.74101112815931" lon="11.1823121546627"><ele>61.0</ele><time>2026-04-09T09:48:47Z</time></trkpt><trkpt lat="43.74128755516649" lon="11.18205730081392"><ele>59.0</ele><time>2026-04-09T09:48:48Z</time></trkpt><trkpt lat="43.74155379224507" lon="11.181805298819537"><ele>59.0</ele><time>2026-04-09T09:48:49Z</time></trkpt><trkpt lat="43.74180327234613" lon="11.181572896331195"><ele>59.0</ele><time>2026-04-09T09:48:50Z</time></trkpt><trkpt lat="43.74205321326516" lon="11.181335758105828"><ele>58.0</ele><time>2026-04-09T09:48:51Z</time></trkpt><trkpt lat="43.742299868512596" lon="11.181098808708366"><ele>57.0</ele><time>2026-04-09T09:48:52Z</time></trkpt><trkpt lat="43.74253400821816" lon="11.180879784055858"><ele>57.5</ele><time>2026-04-09T09:48:53Z</time></trkpt><trkpt lat="43.742752975202315" lon="11.180673352976234"><ele>58.0</ele><time>2026-04-09T09:48:54Z</time></trkpt><trkpt lat="43.74296466645971" lon="11.18046524398173"><ele>58.0</ele><time>2026-04-09T09:48:55Z</time></trkpt><trkpt lat="43.74317070351652" lon="11.180239954414855"><ele>58.0</ele><time>2026-04-09T09:48:56Z</time></trkpt><trkpt lat="43.74337254917021" lon="11.179996421678805"><ele>57.5</ele><time>2026-04-09T09:48:57Z</time></trkpt><trkpt lat="43.74355969419788" lon="11.179737008106631"><ele>57.0</ele><time>2026-04-09T09:48:58Z</time></trkpt><trkpt lat="43.743729718404396" lon="11.179462201732518"><ele>57.0</ele><time>2026-04-09T09:48:59Z</time></trkpt><trkpt lat="43.74388440097926" lon="11.179166380366622"><ele>57.0</ele><time>2026-04-09T09:49:00Z</time></trkpt><trkpt lat="43.74402665756492" lon="11.178853762208018"><ele>59.0</ele><time>2026-04-09T09:49:01Z</time></trkpt><trkpt lat="43.74415908778774" lon="11.178518062963091"><ele>61.0</ele><time>2026-04-09T09:49:02Z</time></trkpt><trkpt lat="43.744276969709716" lon="11.178159428786035"><ele>59.5</ele><time>2026-04-09T09:49:03Z</time></trkpt><trkpt lat="43.744390470139585" lon="11.177784314664672"><ele>58.0</ele><time>2026-04-09T09:49:04Z</time></trkpt><trkpt lat="43.74450088416944" lon="11.17740064775296"><ele>58.5</ele><time>2026-04-09T09:49:05Z</time></trkpt><trkpt lat="43.74461839985391" lon="11.17701552332451"><ele>59.0</ele><time>2026-04-09T09:49:06Z</time></trkpt><trkpt lat="43.744728710465274" lon="11.176629921711996"><ele>56.5</ele><time>2026-04-09T09:49:07Z</time></trkpt><trkpt lat="43.744834927111164" lon="11.176274324923204"><ele>54.0</ele><time>2026-04-09T09:49:08Z</time></trkpt><trkpt lat="43.74494035030509" lon="11.175936262244013"><ele>53.5</ele><time>2026-04-09T09:49:09Z</time></trkpt><trkpt lat="43.74504928769089" lon="11.175594853573076"><ele>53.0</ele><time>2026-04-09T09:49:10Z</time></trkpt><trkpt lat="43.74517507909654" lon="11.17525680535222"><ele>52.5</ele><time>2026-04-09T09:49:11Z</time></trkpt><trkpt lat="43.74531548985291" lon="11.174929372879681"><ele>52.0</ele><time>2026-04-09T09:49:12Z</time></trkpt><trkpt lat="43.745467500285606" lon="11.174609212935623"><ele>53.0</ele><time>2026-04-09T09:49:13Z</time></trkpt><trkpt lat="43.74563499096058" lon="11.174306941373105"><ele>54.0</ele><time>2026-04-09T09:49:14Z</time></trkpt><trkpt lat="43.74581930107345" lon="11.174020815855988"><ele>54.5</ele><time>2026-04-09T09:49:15Z</time></trkpt><trkpt lat="43.746014825108354" lon="11.173750713623559"><ele>55.0</ele><time>2026-04-09T09:49:16Z</time></trkpt><trkpt lat="43.746223250816634" lon="11.17349624085888"><ele>53.5</ele><time>2026-04-09T09:49:17Z</time></trkpt><trkpt lat="43.74644046996851" lon="11.173261627324786"><ele>52.0</ele><time>2026-04-09T09:49:18Z</time></trkpt><trkpt lat="43.74666910656589" lon="11.173046755663396"><ele>50.5</ele><time>2026-04-09T09:49:19Z</time></trkpt><trkpt lat="43.746904351267986" lon="11.17285688037656"><ele>49.0</ele><time>2026-04-09T09:49:20Z</time></trkpt><trkpt lat="43.74714718556452" lon="11.17268509090355"><ele>49.0</ele><time>2026-04-09T09:49:21Z</time></trkpt><trkpt lat="43.74740986025273" lon="11.17254414164726"><ele>49.0</ele><time>2026-04-09T09:49:22Z</time></trkpt><trkpt lat="43.747675638702084" lon="11.172410705425316"><ele>49.0</ele><time>2026-04-09T09:49:23Z</time></trkpt><trkpt lat="43.747929896918784" lon="11.172304988222386"><ele>49.0</ele><time>2026-04-09T09:49:24Z</time></trkpt><trkpt lat="43.748188142179494" lon="11.172226237250484"><ele>49.0</ele><time>2026-04-09T09:49:25Z</time></trkpt><trkpt lat="43.74847153874158" lon="11.172155251704975"><ele>49.0</ele><time>2026-04-09T09:49:26Z</time></trkpt><trkpt lat="43.748769209234915" lon="11.17209409207519"><ele>49.0</ele><time>2026-04-09T09:49:27Z</time></trkpt><trkpt lat="43.749086863744786" lon="11.172036791852273"><ele>49.0</ele><time>2026-04-09T09:49:28Z</time></trkpt><trkpt lat="43.74941851717639" lon="11.171977160201664"><ele>48.0</ele><time>2026-04-09T09:49:29Z</time></trkpt><trkpt lat="43.74976159387037" lon="11.171915359510454"><ele>47.0</ele><time>2026-04-09T09:49:30Z</time></trkpt><trkpt lat="43.75011682492857" lon="11.171850441466674"><ele>47.0</ele><time>2026-04-09T09:49:30.999Z</time></trkpt><trkpt lat="43.750475112977156" lon="11.171781779072127"><ele>47.0</ele><time>2026-04-09T09:49:31.999Z</time></trkpt><trkpt lat="43.750843357588444" lon="11.171715597251799"><ele>46.5</ele><time>2026-04-09T09:49:32.999Z</time></trkpt><trkpt lat="43.75121401195799" lon="11.171647805671427"><ele>46.0</ele><time>2026-04-09T09:49:33.999Z</time></trkpt><trkpt lat="43.751561216593565" lon="11.171584392744604"><ele>45.5</ele><time>2026-04-09T09:49:34.999Z</time></trkpt><trkpt lat="43.751881367740204" lon="11.171521553399652"><ele>45.0</ele><time>2026-04-09T09:49:35.999Z</time></trkpt><trkpt lat="43.75219951188144" lon="11.171459980376941"><ele>45.0</ele><time>2026-04-09T09:49:36.999Z</time></trkpt><trkpt lat="43.75251538718934" lon="11.17140491849476"><ele>45.0</ele><time>2026-04-09T09:49:37.999Z</time></trkpt><trkpt lat="43.752832168400374" lon="11.171343740201257"><ele>45.5</ele><time>2026-04-09T09:49:38.999Z</time></trkpt><trkpt lat="43.753140299191195" lon="11.171284653215526"><ele>46.0</ele><time>2026-04-09T09:49:39.999Z</time></trkpt><trkpt lat="43.753448055739234" lon="11.17122572539527"><ele>45.0</ele><time>2026-04-09T09:49:40.999Z</time></trkpt><trkpt lat="43.75375664826402" lon="11.171169520141339"><ele>44.0</ele><time>2026-04-09T09:49:41.999Z</time></trkpt><trkpt lat="43.75406417348176" lon="11.171110903847117"><ele>44.0</ele><time>2026-04-09T09:49:42.999Z</time></trkpt><trkpt lat="43.75436931515903" lon="11.171056330448323"><ele>44.0</ele><time>2026-04-09T09:49:43.999Z</time></trkpt><trkpt lat="43.75467435315602" lon="11.170998566781286"><ele>44.0</ele><time>2026-04-09T09:49:44.999Z</time></trkpt><trkpt lat="43.75498221994575" lon="11.170944263578958"><ele>44.0</ele><time>2026-04-09T09:49:45.999Z</time></trkpt><trkpt lat="43.755288291500136" lon="11.170888506224163"><ele>44.0</ele><time>2026-04-09T09:49:46.999Z</time></trkpt><trkpt lat="43.75559903285543" lon="11.170832838434919"><ele>44.0</ele><time>2026-04-09T09:49:47.999Z</time></trkpt><trkpt lat="43.75591676511737" lon="11.170773107640384"><ele>44.0</ele><time>2026-04-09T09:49:48.999Z</time></trkpt><trkpt lat="43.75624238968616" lon="11.170714810849043"><ele>44.0</ele><time>2026-04-09T09:49:49.999Z</time></trkpt><trkpt lat="43.75657842285771" lon="11.170656867458288"><ele>42.5</ele><time>2026-04-09T09:49:50.999Z</time></trkpt><trkpt lat="43.75690668122704" lon="11.170591669238368"><ele>41.0</ele><time>2026-04-09T09:49:51.999Z</time></trkpt><trkpt lat="43.75724231361184" lon="11.170529498888987"><ele>41.0</ele><time>2026-04-09T09:49:52.999Z</time></trkpt><trkpt lat="43.757577879756745" lon="11.170468850275391"><ele>41.0</ele><time>2026-04-09T09:49:53.999Z</time></trkpt><trkpt lat="43.757912862234484" lon="11.170404463792337"><ele>41.0</ele><time>2026-04-09T09:49:54.999Z</time></trkpt><trkpt lat="43.75824548246006" lon="11.170342087150619"><ele>41.0</ele><time>2026-04-09T09:49:55.999Z</time></trkpt><trkpt lat="43.75858244164989" lon="11.170288435950656"><ele>41.5</ele><time>2026-04-09T09:49:56.999Z</time></trkpt><trkpt lat="43.7589149554948" lon="11.170224768982747"><ele>42.0</ele><time>2026-04-09T09:49:57.999Z</time></trkpt><trkpt lat="43.75924580170956" lon="11.17015892661806"><ele>41.0</ele><time>2026-04-09T09:49:58.999Z</time></trkpt><trkpt lat="43.759577916611114" lon="11.170096462577126"><ele>40.0</ele><time>2026-04-09T09:49:59.999Z</time></trkpt><trkpt lat="43.759908426698885" lon="11.17003770169774"><ele>40.0</ele><time>2026-04-09T09:50:00.999Z</time></trkpt><trkpt lat="43.76024008621069" lon="11.169977540790736"><ele>40.0</ele><time>2026-04-09T09:50:01.999Z</time></trkpt><trkpt lat="43.76056925838725" lon="11.169909303405742"><ele>40.0</ele><time>2026-04-09T09:50:02.999Z</time></trkpt><trkpt lat="43.760896367758335" lon="11.169841278244657"><ele>40.0</ele><time>2026-04-09T09:50:03.999Z</time></trkpt><trkpt lat="43.76123364773218" lon="11.16976300567684"><ele>40.0</ele><time>2026-04-09T09:50:04.999Z</time></trkpt><trkpt lat="43.76155829189147" lon="11.169670727554857"><ele>40.0</ele><time>2026-04-09T09:50:05.999Z</time></trkpt><trkpt lat="43.76188259970984" lon="11.169565646145708"><ele>41.0</ele><time>2026-04-09T09:50:06.999Z</time></trkpt><trkpt lat="43.762203651001386" lon="11.16944845959025"><ele>42.0</ele><time>2026-04-09T09:50:07.999Z</time></trkpt><trkpt lat="43.7625168013165" lon="11.169332284068663"><ele>41.5</ele><time>2026-04-09T09:50:08.999Z</time></trkpt><trkpt lat="43.7628042174117" lon="11.169213038630764"><ele>41.0</ele><time>2026-04-09T09:50:09.999Z</time></trkpt><trkpt lat="43.763086164237826" lon="11.169093832609486"><ele>40.5</ele><time>2026-04-09T09:50:10.999Z</time></trkpt><trkpt lat="43.763377752350685" lon="11.168969045475972"><ele>40.0</ele><time>2026-04-09T09:50:11.999Z</time></trkpt><trkpt lat="43.76367746412505" lon="11.168841782280063"><ele>39.5</ele><time>2026-04-09T09:50:13.02Z</time></trkpt><trkpt lat="43.763967520461485" lon="11.16871771857428"><ele>39.0</ele><time>2026-04-09T09:50:14.019Z</time></trkpt><trkpt lat="43.764256758602144" lon="11.168594178271636"><ele>39.5</ele><time>2026-04-09T09:50:15.015Z</time></trkpt><trkpt lat="43.764549784497184" lon="11.168473925269227"><ele>40.0</ele><time>2026-04-09T09:50:16.016Z</time></trkpt><trkpt lat="43.76478776500156" lon="11.168229181383216"><ele>39.0</ele><time>2026-04-09T09:50:17.015Z</time></trkpt><trkpt lat="43.7650394340085" lon="11.168053647975782"><ele>38.0</ele><time>2026-04-09T09:50:18.015Z</time></trkpt><trkpt lat="43.765274868193345" lon="11.167887659553038"><ele>38.0</ele><time>2026-04-09T09:50:19.02Z</time></trkpt><trkpt lat="43.76551725550577" lon="11.16771169643984"><ele>38.0</ele><time>2026-04-09T09:50:20.018Z</time></trkpt><trkpt lat="43.7668739771878" lon="11.166569804783133"><ele>37.5</ele><time>2026-04-09T09:50:25Z</time></trkpt><trkpt lat="43.76711888113157" lon="11.166383804232959"><ele>37.0</ele><time>2026-04-09T09:50:26Z</time></trkpt><trkpt lat="43.76731657366057" lon="11.166259551867501"><ele>37.0</ele><time>2026-04-09T09:50:27Z</time></trkpt><trkpt lat="43.76755143036006" lon="11.166094917883884"><ele>37.0</ele><time>2026-04-09T09:50:28Z</time></trkpt><trkpt lat="43.76779761109376" lon="11.165916638690002"><ele>37.5</ele><time>2026-04-09T09:50:29Z</time></trkpt><trkpt lat="43.76804553325432" lon="11.165728335757567"><ele>38.0</ele><time>2026-04-09T09:50:30Z</time></trkpt><trkpt lat="43.7682778740971" lon="11.165521790512864"><ele>39.0</ele><time>2026-04-09T09:50:31Z</time></trkpt><trkpt lat="43.76853930469967" lon="11.165330340858722"><ele>40.0</ele><time>2026-04-09T09:50:32Z</time></trkpt><trkpt lat="43.76880335387164" lon="11.165135574497317"><ele>40.0</ele><time>2026-04-09T09:50:33Z</time></trkpt><trkpt lat="43.76906801742265" lon="11.16493672507632"><ele>40.0</ele><time>2026-04-09T09:50:34Z</time></trkpt><trkpt lat="43.76934169423752" lon="11.164737542421678"><ele>38.5</ele><time>2026-04-09T09:50:35Z</time></trkpt><trkpt lat="43.76961898981229" lon="11.16454123521476"><ele>37.0</ele><time>2026-04-09T09:50:36Z</time></trkpt><trkpt lat="43.76989737602484" lon="11.164346878083697"><ele>37.0</ele><time>2026-04-09T09:50:37Z</time></trkpt><trkpt lat="43.770178720729575" lon="11.164163011750725"><ele>37.0</ele><time>2026-04-09T09:50:38Z</time></trkpt><trkpt lat="43.770472332320146" lon="11.163981737708212"><ele>36.5</ele><time>2026-04-09T09:50:39Z</time></trkpt><trkpt lat="43.770764244983255" lon="11.163799627019076"><ele>36.0</ele><time>2026-04-09T09:50:40Z</time></trkpt><trkpt lat="43.771055086425314" lon="11.163631517380328"><ele>37.0</ele><time>2026-04-09T09:50:41Z</time></trkpt><trkpt lat="43.77135094925408" lon="11.163466581106544"><ele>38.0</ele><time>2026-04-09T09:50:42Z</time></trkpt><trkpt lat="43.77164750117969" lon="11.163315667589485"><ele>36.5</ele><time>2026-04-09T09:50:43Z</time></trkpt><trkpt lat="43.771933312512516" lon="11.163180959762492"><ele>35.0</ele><time>2026-04-09T09:50:44Z</time></trkpt><trkpt lat="43.77221882685504" lon="11.163052047569582"><ele>35.0</ele><time>2026-04-09T09:50:45Z</time></trkpt><trkpt lat="43.7725114884855" lon="11.162927188050308"><ele>35.0</ele><time>2026-04-09T09:50:46Z</time></trkpt><trkpt lat="43.77280943726896" lon="11.162810403326588"><ele>35.0</ele><time>2026-04-09T09:50:47Z</time></trkpt><trkpt lat="43.773106195964466" lon="11.16269740156286"><ele>35.0</ele><time>2026-04-09T09:50:48Z</time></trkpt><trkpt lat="43.773399878648576" lon="11.162594774894828"><ele>34.0</ele><time>2026-04-09T09:50:49Z</time></trkpt><trkpt lat="43.77371153062534" lon="11.16249064924444"><ele>33.0</ele><time>2026-04-09T09:50:50Z</time></trkpt><trkpt lat="43.77401615897919" lon="11.16239693469559"><ele>33.5</ele><time>2026-04-09T09:50:51Z</time></trkpt><trkpt lat="43.77432129853658" lon="11.162301918691487"><ele>34.0</ele><time>2026-04-09T09:50:52Z</time></trkpt><trkpt lat="43.77462816678649" lon="11.162209188870749"><ele>34.0</ele><time>2026-04-09T09:50:53Z</time></trkpt><trkpt lat="43.774933374080526" lon="11.162116941862061"><ele>34.0</ele><time>2026-04-09T09:50:54Z</time></trkpt><trkpt lat="43.775239986716414" lon="11.162026745203526"><ele>34.0</ele><time>2026-04-09T09:50:55Z</time></trkpt><trkpt lat="43.77554265768916" lon="11.161939164288457"><ele>34.0</ele><time>2026-04-09T09:50:56Z</time></trkpt><trkpt lat="43.77584476543531" lon="11.16185483043656"><ele>35.5</ele><time>2026-04-09T09:50:57Z</time></trkpt><trkpt lat="43.77614846195069" lon="11.16177179337262"><ele>37.0</ele><time>2026-04-09T09:50:58Z</time></trkpt><trkpt lat="43.77645291509349" lon="11.161688887178288"><ele>37.0</ele><time>2026-04-09T09:50:59Z</time></trkpt><trkpt lat="43.776755647444936" lon="11.161605199971014"><ele>37.0</ele><time>2026-04-09T09:51:00Z</time></trkpt><trkpt lat="43.77705688768546" lon="11.161521396795944"><ele>35.5</ele><time>2026-04-09T09:51:01Z</time></trkpt><trkpt lat="43.7773570088491" lon="11.16143882941074"><ele>34.0</ele><time>2026-04-09T09:51:02Z</time></trkpt><trkpt lat="43.77765783912502" lon="11.161356614970584"><ele>34.5</ele><time>2026-04-09T09:51:03Z</time></trkpt><trkpt lat="43.77795949196075" lon="11.161274524462296"><ele>35.0</ele><time>2026-04-09T09:51:04Z</time></trkpt><trkpt lat="43.7782591025706" lon="11.161193202506677"><ele>36.0</ele><time>2026-04-09T09:51:05Z</time></trkpt><trkpt lat="43.77856167981812" lon="11.161117133049602"><ele>37.0</ele><time>2026-04-09T09:51:06Z</time></trkpt><trkpt lat="43.77885964371271" lon="11.161035599686384"><ele>37.0</ele><time>2026-04-09T09:51:07Z</time></trkpt><trkpt lat="43.77916036848688" lon="11.160952268065431"><ele>37.0</ele><time>2026-04-09T09:51:08Z</time></trkpt><trkpt lat="43.7794577902978" lon="11.160866292840828"><ele>36.5</ele><time>2026-04-09T09:51:09Z</time></trkpt><trkpt lat="43.77975755900792" lon="11.160779126376513"><ele>36.0</ele><time>2026-04-09T09:51:10Z</time></trkpt><trkpt lat="43.780059074159105" lon="11.16069547343598"><ele>36.0</ele><time>2026-04-09T09:51:11Z</time></trkpt><trkpt lat="43.780359364892966" lon="11.160615650046736"><ele>36.0</ele><time>2026-04-09T09:51:12Z</time></trkpt><trkpt lat="43.780658699026546" lon="11.160531338985535"><ele>36.0</ele><time>2026-04-09T09:51:13Z</time></trkpt><trkpt lat="43.7809552289434" lon="11.160452333469054"><ele>36.0</ele><time>2026-04-09T09:51:14Z</time></trkpt><trkpt lat="43.78125596536915" lon="11.160369372806104"><ele>35.5</ele><time>2026-04-09T09:51:15Z</time></trkpt><trkpt lat="43.78155580966035" lon="11.160281832695762"><ele>35.0</ele><time>2026-04-09T09:51:16Z</time></trkpt><trkpt lat="43.78185213267546" lon="11.160192148057668"><ele>35.0</ele><time>2026-04-09T09:51:17Z</time></trkpt><trkpt lat="43.78214944833067" lon="11.160111965477896"><ele>35.0</ele><time>2026-04-09T09:51:18Z</time></trkpt><trkpt lat="43.782449065918655" lon="11.160028943185061"><ele>35.5</ele><time>2026-04-09T09:51:19Z</time></trkpt><trkpt lat="43.78274744262869" lon="11.159950671491941"><ele>36.0</ele><time>2026-04-09T09:51:20Z</time></trkpt><trkpt lat="43.78304880061022" lon="11.159866091478191"><ele>36.5</ele><time>2026-04-09T09:51:21Z</time></trkpt><trkpt lat="43.78335403668829" lon="11.15978341392697"><ele>37.0</ele><time>2026-04-09T09:51:22Z</time></trkpt><trkpt lat="43.783656735983314" lon="11.159699323214133"><ele>37.0</ele><time>2026-04-09T09:51:23Z</time></trkpt><trkpt lat="43.78396278153874" lon="11.159614261609905"><ele>37.0</ele><time>2026-04-09T09:51:24Z</time></trkpt><trkpt lat="43.78426790456941" lon="11.15952580555654"><ele>37.5</ele><time>2026-04-09T09:51:25Z</time></trkpt><trkpt lat="43.78456902608791" lon="11.159435345071238"><ele>38.0</ele><time>2026-04-09T09:51:26Z</time></trkpt><trkpt lat="43.784873919302306" lon="11.159353669213333"><ele>38.0</ele><time>2026-04-09T09:51:27Z</time></trkpt><trkpt lat="43.78517715650111" lon="11.159267047551367"><ele>38.0</ele><time>2026-04-09T09:51:28Z</time></trkpt><trkpt lat="43.785471471929874" lon="11.159167542110168"><ele>39.0</ele><time>2026-04-09T09:51:29Z</time></trkpt><trkpt lat="43.78575659311099" lon="11.159088784750141"><ele>40.0</ele><time>2026-04-09T09:51:29.999Z</time></trkpt><trkpt lat="43.786029109199916" lon="11.159017664855698"><ele>38.0</ele><time>2026-04-09T09:51:30.999Z</time></trkpt><trkpt lat="43.786290083624" lon="11.158948828362991"><ele>36.0</ele><time>2026-04-09T09:51:31.999Z</time></trkpt><trkpt lat="43.78655368469934" lon="11.15887816884063"><ele>36.0</ele><time>2026-04-09T09:51:32.999Z</time></trkpt><trkpt lat="43.786826749976456" lon="11.158803067202872"><ele>36.0</ele><time>2026-04-09T09:51:33.999Z</time></trkpt><trkpt lat="43.78713335102939" lon="11.158736029897593"><ele>37.0</ele><time>2026-04-09T09:51:34.999Z</time></trkpt><trkpt lat="43.78741454779571" lon="11.158652087239435"><ele>38.0</ele><time>2026-04-09T09:51:35.999Z</time></trkpt><trkpt lat="43.787693626567886" lon="11.158571492040192"><ele>38.5</ele><time>2026-04-09T09:51:36.999Z</time></trkpt><trkpt lat="43.78795840739134" lon="11.158499871214055"><ele>39.0</ele><time>2026-04-09T09:51:37.999Z</time></trkpt><trkpt lat="43.788208503794486" lon="11.15843749843581"><ele>39.0</ele><time>2026-04-09T09:51:38.999Z</time></trkpt><trkpt lat="43.78847529944595" lon="11.158367593126293"><ele>39.0</ele><time>2026-04-09T09:51:39.999Z</time></trkpt><trkpt lat="43.7887448271888" lon="11.15828952547706"><ele>39.0</ele><time>2026-04-09T09:51:40.999Z</time></trkpt><trkpt lat="43.789020532979315" lon="11.158206847153195"><ele>39.0</ele><time>2026-04-09T09:51:41.999Z</time></trkpt><trkpt lat="43.789294256638115" lon="11.158133319829926"><ele>38.0</ele><time>2026-04-09T09:51:42.999Z</time></trkpt><trkpt lat="43.78956969998033" lon="11.158056259515229"><ele>37.0</ele><time>2026-04-09T09:51:43.999Z</time></trkpt><trkpt lat="43.78985027223979" lon="11.157975821648929"><ele>37.0</ele><time>2026-04-09T09:51:44.999Z</time></trkpt><trkpt lat="43.790140434269205" lon="11.157893643077442"><ele>37.0</ele><time>2026-04-09T09:51:45.999Z</time></trkpt><trkpt lat="43.790426682242376" lon="11.157811925582223"><ele>37.0</ele><time>2026-04-09T09:51:46.999Z</time></trkpt><trkpt lat="43.79071837253147" lon="11.157729698695668"><ele>37.0</ele><time>2026-04-09T09:51:47.999Z</time></trkpt><trkpt lat="43.79100719089843" lon="11.157640865720621"><ele>38.0</ele><time>2026-04-09T09:51:48.999Z</time></trkpt><trkpt lat="43.79130176931579" lon="11.157553372276789"><ele>39.0</ele><time>2026-04-09T09:51:49.999Z</time></trkpt><trkpt lat="43.791607506640155" lon="11.15748121244818"><ele>38.5</ele><time>2026-04-09T09:51:50.999Z</time></trkpt><trkpt lat="43.7919051024598" lon="11.15739284957178"><ele>38.0</ele><time>2026-04-09T09:51:51.999Z</time></trkpt><trkpt lat="43.79218383829748" lon="11.157317301827211"><ele>38.5</ele><time>2026-04-09T09:51:52.999Z</time></trkpt><trkpt lat="43.79248946939914" lon="11.15723108977128"><ele>39.0</ele><time>2026-04-09T09:51:53.999Z</time></trkpt><trkpt lat="43.792801851428" lon="11.15714312832155"><ele>39.0</ele><time>2026-04-09T09:51:54.999Z</time></trkpt><trkpt lat="43.7931158274177" lon="11.157053360087609"><ele>39.0</ele><time>2026-04-09T09:51:55.999Z</time></trkpt><trkpt lat="43.79342927073712" lon="11.156963983320418"><ele>37.5</ele><time>2026-04-09T09:51:56.999Z</time></trkpt><trkpt lat="43.793742776830534" lon="11.156874961064581"><ele>36.0</ele><time>2026-04-09T09:51:57.999Z</time></trkpt><trkpt lat="43.79405809788873" lon="11.156789678319328"><ele>35.5</ele><time>2026-04-09T09:51:58.999Z</time></trkpt><trkpt lat="43.794380226313635" lon="11.156698873782048"><ele>35.0</ele><time>2026-04-09T09:51:59.999Z</time></trkpt><trkpt lat="43.7946983955843" lon="11.156613437121525"><ele>35.0</ele><time>2026-04-09T09:52:00.999Z</time></trkpt><trkpt lat="43.79501874140365" lon="11.156521866890118"><ele>35.0</ele><time>2026-04-09T09:52:01.999Z</time></trkpt><trkpt lat="43.79532349761246" lon="11.156436728173844"><ele>35.0</ele><time>2026-04-09T09:52:02.999Z</time></trkpt><trkpt lat="43.795617153238794" lon="11.156351324672304"><ele>35.0</ele><time>2026-04-09T09:52:03.999Z</time></trkpt><trkpt lat="43.79591318426783" lon="11.156265938372101"><ele>35.0</ele><time>2026-04-09T09:52:04.999Z</time></trkpt><trkpt lat="43.7962072739741" lon="11.15617773665508"><ele>35.0</ele><time>2026-04-09T09:52:05.999Z</time></trkpt><trkpt lat="43.79650330143325" lon="11.15609392151234"><ele>35.0</ele><time>2026-04-09T09:52:06.999Z</time></trkpt><trkpt lat="43.79679987733258" lon="11.156007528769718"><ele>35.0</ele><time>2026-04-09T09:52:07.999Z</time></trkpt><trkpt lat="43.79709720983783" lon="11.155930146161342"><ele>35.5</ele><time>2026-04-09T09:52:08.999Z</time></trkpt><trkpt lat="43.79739530546049" lon="11.155847806066012"><ele>36.0</ele><time>2026-04-09T09:52:09.999Z</time></trkpt><trkpt lat="43.79769169149073" lon="11.155765260024328"><ele>36.0</ele><time>2026-04-09T09:52:10.999Z</time></trkpt><trkpt lat="43.79799374887972" lon="11.155683472641726"><ele>36.0</ele><time>2026-04-09T09:52:11.999Z</time></trkpt><trkpt lat="43.79829650734321" lon="11.155599589882524"><ele>35.5</ele><time>2026-04-09T09:52:12.999Z</time></trkpt><trkpt lat="43.79859748507592" lon="11.15551099459288"><ele>35.0</ele><time>2026-04-09T09:52:13.999Z</time></trkpt><trkpt lat="43.798899474378345" lon="11.155427587854897"><ele>35.0</ele><time>2026-04-09T09:52:14.999Z</time></trkpt><trkpt lat="43.79920744914027" lon="11.15534406865093"><ele>35.0</ele><time>2026-04-09T09:52:15.999Z</time></trkpt><trkpt lat="43.7995084143247" lon="11.155259481062373"><ele>35.5</ele><time>2026-04-09T09:52:16.999Z</time></trkpt><trkpt lat="43.799812038429074" lon="11.15517440204575"><ele>36.0</ele><time>2026-04-09T09:52:17.999Z</time></trkpt><trkpt lat="43.800117023300785" lon="11.155091978096097"><ele>35.5</ele><time>2026-04-09T09:52:19Z</time></trkpt><trkpt lat="43.80042109166948" lon="11.155004706617067"><ele>35.0</ele><time>2026-04-09T09:52:20Z</time></trkpt><trkpt lat="43.800727963037545" lon="11.154916956504078"><ele>36.0</ele><time>2026-04-09T09:52:21Z</time></trkpt><trkpt lat="43.801019365159114" lon="11.154832168440926"><ele>37.0</ele><time>2026-04-09T09:52:22Z</time></trkpt><trkpt lat="43.80126340731716" lon="11.15475992183724"><ele>37.0</ele><time>2026-04-09T09:52:23Z</time></trkpt><trkpt lat="43.80145347315728" lon="11.154710747841154"><ele>37.0</ele><time>2026-04-09T09:52:24Z</time></trkpt><trkpt lat="43.80161598553251" lon="11.154666544048103"><ele>37.0</ele><time>2026-04-09T09:52:25Z</time></trkpt><trkpt lat="43.80176056725991" lon="11.15462580688315"><ele>36.75</ele><time>2026-04-09T09:52:26Z</time></trkpt><trkpt lat="43.80188896061448" lon="11.154587069675118"><ele>36.5</ele><time>2026-04-09T09:52:27Z</time></trkpt><trkpt lat="43.802011297382066" lon="11.154551124415164"><ele>36.25</ele><time>2026-04-09T09:52:28Z</time></trkpt><trkpt lat="43.80212765107718" lon="11.154521543746819"><ele>36.0</ele><time>2026-04-09T09:52:29Z</time></trkpt><trkpt lat="43.80224013609605" lon="11.154496883428711"><ele>36.0</ele><time>2026-04-09T09:52:30Z</time></trkpt><trkpt lat="43.80234712873425" lon="11.154467126292408"><ele>36.0</ele><time>2026-04-09T09:52:31Z</time></trkpt><trkpt lat="43.802460170041485" lon="11.154432137502441"><ele>36.0</ele><time>2026-04-09T09:52:32Z</time></trkpt><trkpt lat="43.80256786025302" lon="11.15439911545391"><ele>36.0</ele><time>2026-04-09T09:52:33Z</time></trkpt><trkpt lat="43.80266926029462" lon="11.154371283060067"><ele>36.0</ele><time>2026-04-09T09:52:34Z</time></trkpt><trkpt lat="43.80277304105839" lon="11.154342096565241"><ele>35.666666666666664</ele><time>2026-04-09T09:52:35Z</time></trkpt><trkpt lat="43.80286655645552" lon="11.154317921255672"><ele>35.333333333333336</ele><time>2026-04-09T09:52:36Z</time></trkpt><trkpt lat="43.80294774913473" lon="11.154293059657087"><ele>35.0</ele><time>2026-04-09T09:52:37Z</time></trkpt><trkpt lat="43.8030234959716" lon="11.154270453654847"><ele>34.66666666666667</ele><time>2026-04-09T09:52:38Z</time></trkpt><trkpt lat="43.803098176999605" lon="11.154252703958102"><ele>34.333333333333336</ele><time>2026-04-09T09:52:39Z</time></trkpt><trkpt lat="43.8031691024004" lon="11.154233975446163"><ele>34.0</ele><time>2026-04-09T09:52:40Z</time></trkpt><trkpt lat="43.80324669669987" lon="11.154216133927491"><ele>34.0</ele><time>2026-04-09T09:52:41Z</time></trkpt><trkpt lat="43.80333342020769" lon="11.154189179575262"><ele>34.0</ele><time>2026-04-09T09:52:42Z</time></trkpt><trkpt lat="43.80342496203127" lon="11.154166564887795"><ele>34.0</ele><time>2026-04-09T09:52:43Z</time></trkpt><trkpt lat="43.80351560220311" lon="11.154143730025615"><ele>34.0</ele><time>2026-04-09T09:52:44Z</time></trkpt><trkpt lat="43.803593238477085" lon="11.154117540216156"><ele>34.0</ele><time>2026-04-09T09:52:45Z</time></trkpt><trkpt lat="43.80368212197364" lon="11.154093866937282"><ele>34.0</ele><time>2026-04-09T09:52:46Z</time></trkpt><trkpt lat="43.803778590987854" lon="11.154070102666834"><ele>34.16666666666667</ele><time>2026-04-09T09:52:47Z</time></trkpt><trkpt lat="43.80386951140864" lon="11.154045555818053"><ele>34.333333333333336</ele><time>2026-04-09T09:52:48Z</time></trkpt><trkpt lat="43.80394383295305" lon="11.154032608779273"><ele>34.5</ele><time>2026-04-09T09:52:49Z</time></trkpt><trkpt lat="43.804010399406" lon="11.154019871621507"><ele>34.666666666666664</ele><time>2026-04-09T09:52:50Z</time></trkpt><trkpt lat="43.80408892634335" lon="11.154000020668693"><ele>34.83333333333333</ele><time>2026-04-09T09:52:51Z</time></trkpt><trkpt lat="43.80416594705342" lon="11.153977635626362"><ele>35.0</ele><time>2026-04-09T09:52:52Z</time></trkpt><trkpt lat="43.804228289226025" lon="11.153957503272133"><ele>35.0</ele><time>2026-04-09T09:52:53Z</time></trkpt><trkpt lat="43.804310486295584" lon="11.153933636563151"><ele>35.0</ele><time>2026-04-09T09:52:54Z</time></trkpt><trkpt lat="43.80442223699874" lon="11.153889036534894"><ele>35.0</ele><time>2026-04-09T09:52:55Z</time></trkpt><trkpt lat="43.804525678071315" lon="11.153869758885984"><ele>35.0</ele><time>2026-04-09T09:52:56Z</time></trkpt><trkpt lat="43.80462958782551" lon="11.153842663343909"><ele>35.0</ele><time>2026-04-09T09:52:57Z</time></trkpt><trkpt lat="43.804722942776834" lon="11.153821724991635"><ele>34.8</ele><time>2026-04-09T09:52:58Z</time></trkpt><trkpt lat="43.804790999704764" lon="11.153804034832907"><ele>34.6</ele><time>2026-04-09T09:52:59Z</time></trkpt><trkpt lat="43.804920070114974" lon="11.153755632143048"><ele>34.4</ele><time>2026-04-09T09:53:01Z</time></trkpt><trkpt lat="43.804994682048836" lon="11.153738990355551"><ele>34.2</ele><time>2026-04-09T09:53:02Z</time></trkpt><trkpt lat="43.80510355966502" lon="11.153708030633526"><ele>34.0</ele><time>2026-04-09T09:53:04Z</time></trkpt><trkpt lat="43.805186996826976" lon="11.153687044853022"><ele>34.0</ele><time>2026-04-09T09:53:06Z</time></trkpt><trkpt lat="43.80528975576846" lon="11.153632381221769"><ele>34.0</ele><time>2026-04-09T09:53:08Z</time></trkpt><trkpt lat="43.80538675993542" lon="11.153601498347895"><ele>34.0</ele><time>2026-04-09T09:53:10Z</time></trkpt><trkpt lat="43.80545964734277" lon="11.153613059251583"><ele>34.0</ele><time>2026-04-09T09:53:13Z</time></trkpt><trkpt lat="43.80552248815329" lon="11.153590451536564"><ele>34.0</ele><time>2026-04-09T09:53:20Z</time></trkpt><trkpt lat="43.80559968644839" lon="11.15356614789055"><ele>34.0</ele><time>2026-04-09T09:53:24Z</time></trkpt><trkpt lat="43.80566521376002" lon="11.153543138324629"><ele>34.0</ele><time>2026-04-09T09:53:27Z</time></trkpt><trkpt lat="43.80573349914161" lon="11.153528994702603"><ele>34.0</ele><time>2026-04-09T09:53:29Z</time></trkpt><trkpt lat="43.80585723871719" lon="11.153517048421836"><ele>34.0</ele><time>2026-04-09T09:53:31Z</time></trkpt><trkpt lat="43.80595149592182" lon="11.153475313140955"><ele>34.0</ele><time>2026-04-09T09:53:31.999Z</time></trkpt><trkpt lat="43.806038600900166" lon="11.153442487758507"><ele>34.0</ele><time>2026-04-09T09:53:32.999Z</time></trkpt><trkpt lat="43.80614543628472" lon="11.153415059420583"><ele>33.75</ele><time>2026-04-09T09:53:33.999Z</time></trkpt><trkpt lat="43.806260917181376" lon="11.153379782805526"><ele>33.5</ele><time>2026-04-09T09:53:34.999Z</time></trkpt><trkpt lat="43.806389224036906" lon="11.153344682688916"><ele>33.25</ele><time>2026-04-09T09:53:35.999Z</time></trkpt><trkpt lat="43.80649983408071" lon="11.153315246033623"><ele>33.0</ele><time>2026-04-09T09:53:36.999Z</time></trkpt><trkpt lat="43.806594172674856" lon="11.153286352918824"><ele>33.0</ele><time>2026-04-09T09:53:37.999Z</time></trkpt><trkpt lat="43.80668016101087" lon="11.153260386528052"><ele>33.0</ele><time>2026-04-09T09:53:38.999Z</time></trkpt><trkpt lat="43.80676626812767" lon="11.153239836067382"><ele>33.0</ele><time>2026-04-09T09:53:39.999Z</time></trkpt><trkpt lat="43.80686226440036" lon="11.15321218621709"><ele>33.0</ele><time>2026-04-09T09:53:40.999Z</time></trkpt><trkpt lat="43.80695515394267" lon="11.153189556834251"><ele>33.0</ele><time>2026-04-09T09:53:41.999Z</time></trkpt><trkpt lat="43.80703753343567" lon="11.153169272334505"><ele>33.166666666666664</ele><time>2026-04-09T09:53:42.999Z</time></trkpt><trkpt lat="43.80711820416247" lon="11.153144647687135"><ele>33.333333333333336</ele><time>2026-04-09T09:53:43.999Z</time></trkpt><trkpt lat="43.807196030751776" lon="11.153121651114676"><ele>33.5</ele><time>2026-04-09T09:53:44.999Z</time></trkpt><trkpt lat="43.807263876084775" lon="11.153087724047943"><ele>33.66666666666667</ele><time>2026-04-09T09:53:45.999Z</time></trkpt><trkpt lat="43.80733671170841" lon="11.15307498771654"><ele>33.833333333333336</ele><time>2026-04-09T09:53:46.999Z</time></trkpt><trkpt lat="43.8074674411013" lon="11.153037852541031"><ele>34.0</ele><time>2026-04-09T09:53:48.999Z</time></trkpt><trkpt lat="43.80755173764223" lon="11.153015214233882"><ele>34.0</ele><time>2026-04-09T09:53:49.999Z</time></trkpt><trkpt lat="43.807654583705826" lon="11.152982511942769"><ele>34.0</ele><time>2026-04-09T09:53:50.999Z</time></trkpt><trkpt lat="43.80776230245895" lon="11.15295287870639"><ele>34.0</ele><time>2026-04-09T09:53:51.999Z</time></trkpt><trkpt lat="43.80790496900554" lon="11.152905586994128"><ele>34.0</ele><time>2026-04-09T09:53:52.999Z</time></trkpt><trkpt lat="43.80803057021777" lon="11.15287562013592"><ele>34.0</ele><time>2026-04-09T09:53:53.999Z</time></trkpt><trkpt lat="43.80814953526698" lon="11.152845279389698"><ele>34.0</ele><time>2026-04-09T09:53:54.999Z</time></trkpt><trkpt lat="43.808271550471765" lon="11.15282872177036"><ele>34.0</ele><time>2026-04-09T09:53:55.999Z</time></trkpt><trkpt lat="43.80838404568404" lon="11.152800325842641"><ele>34.0</ele><time>2026-04-09T09:53:56.999Z</time></trkpt><trkpt lat="43.80849824247733" lon="11.152761790208785"><ele>34.66666666666667</ele><time>2026-04-09T09:53:57.999Z</time></trkpt><trkpt lat="43.808633659045825" lon="11.152717753873352"><ele>35.333333333333336</ele><time>2026-04-09T09:53:58.999Z</time></trkpt><trkpt lat="43.80878449831899" lon="11.152668671564218"><ele>36.0</ele><time>2026-04-09T09:53:59.999Z</time></trkpt><trkpt lat="43.808946969082875" lon="11.152624127057898"><ele>36.0</ele><time>2026-04-09T09:54:00.999Z</time></trkpt><trkpt lat="43.80911646398303" lon="11.152577907985775"><ele>36.0</ele><time>2026-04-09T09:54:01.999Z</time></trkpt><trkpt lat="43.80931171180289" lon="11.152520394029462"><ele>36.0</ele><time>2026-04-09T09:54:02.999Z</time></trkpt><trkpt lat="43.80948092330584" lon="11.15248223579421"><ele>36.333333333333336</ele><time>2026-04-09T09:54:03.999Z</time></trkpt><trkpt lat="43.80964597048044" lon="11.152434811146124"><ele>36.66666666666667</ele><time>2026-04-09T09:54:04.999Z</time></trkpt><trkpt lat="43.80982537847069" lon="11.152382692886514"><ele>37.0</ele><time>2026-04-09T09:54:05.999Z</time></trkpt><trkpt lat="43.810005381312465" lon="11.152332468254949"><ele>36.0</ele><time>2026-04-09T09:54:06.999Z</time></trkpt><trkpt lat="43.81017066428541" lon="11.152284615724582"><ele>35.0</ele><time>2026-04-09T09:54:07.999Z</time></trkpt><trkpt lat="43.81034443621253" lon="11.15223365901115"><ele>34.0</ele><time>2026-04-09T09:54:08.999Z</time></trkpt><trkpt lat="43.81052148189716" lon="11.152184736853997"><ele>34.0</ele><time>2026-04-09T09:54:09.999Z</time></trkpt><trkpt lat="43.81070174289878" lon="11.15213735286127"><ele>34.0</ele><time>2026-04-09T09:54:10.999Z</time></trkpt><trkpt lat="43.81086737867114" lon="11.15208772623264"><ele>34.0</ele><time>2026-04-09T09:54:11.999Z</time></trkpt><trkpt lat="43.81103859915051" lon="11.152037450439982"><ele>34.0</ele><time>2026-04-09T09:54:12.999Z</time></trkpt><trkpt lat="43.811212314585426" lon="11.151992432947994"><ele>34.0</ele><time>2026-04-09T09:54:13.999Z</time></trkpt><trkpt lat="43.81137336917531" lon="11.151941191492517"><ele>34.0</ele><time>2026-04-09T09:54:14.999Z</time></trkpt><trkpt lat="43.81154200567724" lon="11.151894235298652"><ele>34.0</ele><time>2026-04-09T09:54:15.999Z</time></trkpt><trkpt lat="43.81173431067578" lon="11.151847497664694"><ele>34.0</ele><time>2026-04-09T09:54:16.999Z</time></trkpt><trkpt lat="43.8119357854669" lon="11.151804719130533"><ele>34.0</ele><time>2026-04-09T09:54:17.999Z</time></trkpt><trkpt lat="43.812159069193896" lon="11.15175859640203"><ele>34.5</ele><time>2026-04-09T09:54:18.999Z</time></trkpt><trkpt lat="43.812383296054094" lon="11.151714922536396"><ele>35.0</ele><time>2026-04-09T09:54:19.999Z</time></trkpt><trkpt lat="43.81261707305109" lon="11.151667998393622"><ele>35.0</ele><time>2026-04-09T09:54:20.999Z</time></trkpt><trkpt lat="43.81286140318176" lon="11.15162441957784"><ele>35.0</ele><time>2026-04-09T09:54:21.999Z</time></trkpt><trkpt lat="43.81308746015121" lon="11.151591405917097"><ele>35.0</ele><time>2026-04-09T09:54:22.999Z</time></trkpt><trkpt lat="43.813295509642955" lon="11.151566214681829"><ele>35.0</ele><time>2026-04-09T09:54:23.999Z</time></trkpt><trkpt lat="43.813501967885706" lon="11.151545962315748"><ele>35.0</ele><time>2026-04-09T09:54:25Z</time></trkpt><trkpt lat="43.81371599905375" lon="11.15153063937707"><ele>34.666666666666664</ele><time>2026-04-09T09:54:26Z</time></trkpt><trkpt lat="43.81393424689101" lon="11.151514623367635"><ele>34.333333333333336</ele><time>2026-04-09T09:54:27Z</time></trkpt><trkpt lat="43.814157173870626" lon="11.151501285021551"><ele>34.0</ele><time>2026-04-09T09:54:28Z</time></trkpt><trkpt lat="43.814382259718336" lon="11.151493410145205"><ele>34.0</ele><time>2026-04-09T09:54:29Z</time></trkpt><trkpt lat="43.81460520147971" lon="11.151487917670305"><ele>34.0</ele><time>2026-04-09T09:54:30Z</time></trkpt><trkpt lat="43.8148244237701" lon="11.151486312524105"><ele>34.0</ele><time>2026-04-09T09:54:31Z</time></trkpt><trkpt lat="43.81504922233588" lon="11.151488723839863"><ele>34.0</ele><time>2026-04-09T09:54:32Z</time></trkpt><trkpt lat="43.815262897694296" lon="11.151492738851271"><ele>34.0</ele><time>2026-04-09T09:54:33Z</time></trkpt><trkpt lat="43.815463707564795" lon="11.151493670789161"><ele>34.0</ele><time>2026-04-09T09:54:34Z</time></trkpt><trkpt lat="43.815646986543015" lon="11.151492551499038"><ele>34.0</ele><time>2026-04-09T09:54:35Z</time></trkpt><trkpt lat="43.81582425369368" lon="11.15149463191079"><ele>34.0</ele><time>2026-04-09T09:54:36Z</time></trkpt><trkpt lat="43.8160107908576" lon="11.151498907668518"><ele>34.0</ele><time>2026-04-09T09:54:37Z</time></trkpt><trkpt lat="43.8162017305699" lon="11.151502854832255"><ele>35.0</ele><time>2026-04-09T09:54:38Z</time></trkpt><trkpt lat="43.816385747755874" lon="11.15150489677125"><ele>36.0</ele><time>2026-04-09T09:54:39Z</time></trkpt><trkpt lat="43.81657096942577" lon="11.151505123497474"><ele>37.0</ele><time>2026-04-09T09:54:40Z</time></trkpt><trkpt lat="43.81674841863183" lon="11.151501142357835"><ele>36.333333333333336</ele><time>2026-04-09T09:54:41Z</time></trkpt><trkpt lat="43.81693388652567" lon="11.151502870402789"><ele>35.666666666666664</ele><time>2026-04-09T09:54:42Z</time></trkpt><trkpt lat="43.81712621489789" lon="11.151507925044482"><ele>35.0</ele><time>2026-04-09T09:54:43Z</time></trkpt><trkpt lat="43.81731968192678" lon="11.151512687848351"><ele>35.0</ele><time>2026-04-09T09:54:44Z</time></trkpt><trkpt lat="43.81751997010318" lon="11.151520535739648"><ele>35.0</ele><time>2026-04-09T09:54:45Z</time></trkpt><trkpt lat="43.81774540039222" lon="11.151536461540095"><ele>35.0</ele><time>2026-04-09T09:54:46Z</time></trkpt><trkpt lat="43.81798944728933" lon="11.151561932630175"><ele>35.0</ele><time>2026-04-09T09:54:47Z</time></trkpt><trkpt lat="43.81822525460885" lon="11.151568779159426"><ele>35.0</ele><time>2026-04-09T09:54:48Z</time></trkpt><trkpt lat="43.8184934667602" lon="11.151577615804204"><ele>35.0</ele><time>2026-04-09T09:54:49Z</time></trkpt><trkpt lat="43.81873038088224" lon="11.151575457701057"><ele>35.0</ele><time>2026-04-09T09:54:50Z</time></trkpt><trkpt lat="43.818936601995944" lon="11.151568255274537"><ele>35.0</ele><time>2026-04-09T09:54:51Z</time></trkpt><trkpt lat="43.819171592618936" lon="11.151561368942327"><ele>35.5</ele><time>2026-04-09T09:54:52Z</time></trkpt><trkpt lat="43.81941104555354" lon="11.151555848531444"><ele>36.0</ele><time>2026-04-09T09:54:53Z</time></trkpt><trkpt lat="43.81965194233652" lon="11.151552412227508"><ele>36.0</ele><time>2026-04-09T09:54:54Z</time></trkpt><trkpt lat="43.819890853395066" lon="11.151554097661396"><ele>36.0</ele><time>2026-04-09T09:54:55Z</time></trkpt><trkpt lat="43.820110779433094" lon="11.151553990828512"><ele>36.0</ele><time>2026-04-09T09:54:56Z</time></trkpt><trkpt lat="43.82032548709341" lon="11.151551267893282"><ele>36.0</ele><time>2026-04-09T09:54:57Z</time></trkpt><trkpt lat="43.82054279262809" lon="11.151552600488966"><ele>36.0</ele><time>2026-04-09T09:54:58Z</time></trkpt><trkpt lat="43.82076637620043" lon="11.151555143659778"><ele>35.333333333333336</ele><time>2026-04-09T09:54:59Z</time></trkpt><trkpt lat="43.820985800432716" lon="11.151559275815664"><ele>34.66666666666667</ele><time>2026-04-09T09:55:00Z</time></trkpt><trkpt lat="43.82119204586562" lon="11.151563527577698"><ele>34.0</ele><time>2026-04-09T09:55:01Z</time></trkpt><trkpt lat="43.82140072007228" lon="11.151567475680666"><ele>34.0</ele><time>2026-04-09T09:55:02Z</time></trkpt><trkpt lat="43.82162854625585" lon="11.151570183113233"><ele>34.0</ele><time>2026-04-09T09:55:03Z</time></trkpt><trkpt lat="43.82184631621982" lon="11.151573536558788"><ele>34.0</ele><time>2026-04-09T09:55:04Z</time></trkpt><trkpt lat="43.82205100416364" lon="11.151576966447035"><ele>35.0</ele><time>2026-04-09T09:55:05Z</time></trkpt><trkpt lat="43.822261792846504" lon="11.151578840281992"><ele>36.0</ele><time>2026-04-09T09:55:06Z</time></trkpt><trkpt lat="43.82247809521813" lon="11.151580609100904"><ele>37.0</ele><time>2026-04-09T09:55:07Z</time></trkpt><trkpt lat="43.82270101610041" lon="11.15158208945086"><ele>37.333333333333336</ele><time>2026-04-09T09:55:08Z</time></trkpt><trkpt lat="43.82292141170869" lon="11.151585864346561"><ele>37.666666666666664</ele><time>2026-04-09T09:55:09Z</time></trkpt><trkpt lat="43.82312383723659" lon="11.151590329608508"><ele>38.0</ele><time>2026-04-09T09:55:10Z</time></trkpt><trkpt lat="43.823310374498824" lon="11.151592857027957"><ele>37.33333333333333</ele><time>2026-04-09T09:55:11Z</time></trkpt><trkpt lat="43.823487860915456" lon="11.15159441410341"><ele>36.666666666666664</ele><time>2026-04-09T09:55:12Z</time></trkpt><trkpt lat="43.82365583447456" lon="11.151602057706159"><ele>36.0</ele><time>2026-04-09T09:55:13Z</time></trkpt><trkpt lat="43.823804431418665" lon="11.15160862919905"><ele>36.0</ele><time>2026-04-09T09:55:14Z</time></trkpt><trkpt lat="43.823939453783915" lon="11.151621043793803"><ele>36.0</ele><time>2026-04-09T09:55:15Z</time></trkpt><trkpt lat="43.824188259696534" lon="11.151608487593968"><ele>36.0</ele><time>2026-04-09T09:55:16Z</time></trkpt><trkpt lat="43.824306894075875" lon="11.151623097690072"><ele>36.0</ele><time>2026-04-09T09:55:17Z</time></trkpt><trkpt lat="43.82440338170493" lon="11.151632184565335"><ele>36.0</ele><time>2026-04-09T09:55:18Z</time></trkpt><trkpt lat="43.82447466526501" lon="11.151639675762986"><ele>36.0</ele><time>2026-04-09T09:55:19Z</time></trkpt><trkpt lat="43.82457315315985" lon="11.151627144815741"><ele>36.0</ele><time>2026-04-09T09:55:21Z</time></trkpt><trkpt lat="43.82469020510108" lon="11.151638336342085"><ele>36.0</ele><time>2026-04-09T09:55:23Z</time></trkpt><trkpt lat="43.824802558134806" lon="11.151653576630276"><ele>36.0</ele><time>2026-04-09T09:55:25Z</time></trkpt><trkpt lat="43.824909913611776" lon="11.151670861650379"><ele>36.0</ele><time>2026-04-09T09:55:27Z</time></trkpt><trkpt lat="43.82501337187275" lon="11.151682309128681"><ele>36.0</ele><time>2026-04-09T09:55:29Z</time></trkpt><trkpt lat="43.82509633457333" lon="11.15170681001941"><ele>36.0</ele><time>2026-04-09T09:55:30.999Z</time></trkpt><trkpt lat="43.825172746314024" lon="11.151724044565356"><ele>36.0</ele><time>2026-04-09T09:55:32.999Z</time></trkpt><trkpt lat="43.82527332629464" lon="11.151749937020197"><ele>36.4</ele><time>2026-04-09T09:55:34.999Z</time></trkpt><trkpt lat="43.82537375637977" lon="11.151781055063227"><ele>36.8</ele><time>2026-04-09T09:55:35.999Z</time></trkpt><trkpt lat="43.825479648646116" lon="11.151807618838554"><ele>37.199999999999996</ele><time>2026-04-09T09:55:36.999Z</time></trkpt><trkpt lat="43.82558891871103" lon="11.151825328608103"><ele>37.6</ele><time>2026-04-09T09:55:37.999Z</time></trkpt><trkpt lat="43.825713394662024" lon="11.151857104212997"><ele>38.0</ele><time>2026-04-09T09:55:38.999Z</time></trkpt><trkpt lat="43.82579965172378" lon="11.151888406395857"><ele>38.0</ele><time>2026-04-09T09:55:39.999Z</time></trkpt><trkpt lat="43.82587421659456" lon="11.15191631053594"><ele>38.0</ele><time>2026-04-09T09:55:40.999Z</time></trkpt><trkpt lat="43.82595929826008" lon="11.151941209705383"><ele>38.0</ele><time>2026-04-09T09:55:41.999Z</time></trkpt><trkpt lat="43.82603905668969" lon="11.151961980179633"><ele>38.0</ele><time>2026-04-09T09:55:42.999Z</time></trkpt><trkpt lat="43.82610162415237" lon="11.151981623555114"><ele>38.0</ele><time>2026-04-09T09:55:43.999Z</time></trkpt><trkpt lat="43.82620902097888" lon="11.152019665840314"><ele>38.0</ele><time>2026-04-09T09:55:45.999Z</time></trkpt><trkpt lat="43.82629208428385" lon="11.15205062950569"><ele>37.8</ele><time>2026-04-09T09:55:48.999Z</time></trkpt><trkpt lat="43.826368002331385" lon="11.15207788476084"><ele>37.599999999999994</ele><time>2026-04-09T09:55:50.999Z</time></trkpt><trkpt lat="43.826479936823716" lon="11.152119535955856"><ele>37.400000000000006</ele><time>2026-04-09T09:55:52.999Z</time></trkpt><trkpt lat="43.82657978894509" lon="11.152157473933373"><ele>37.2</ele><time>2026-04-09T09:55:54.999Z</time></trkpt><trkpt lat="43.826665035008695" lon="11.15219321971475"><ele>37.0</ele><time>2026-04-09T09:55:56.999Z</time></trkpt><trkpt lat="43.82675055986659" lon="11.15223661125793"><ele>36.833333333333336</ele><time>2026-04-09T09:55:58.999Z</time></trkpt><trkpt lat="43.82682110709659" lon="11.152266760235365"><ele>36.66666666666667</ele><time>2026-04-09T09:56:00.999Z</time></trkpt><trkpt lat="43.826889321406654" lon="11.152294321335159"><ele>36.5</ele><time>2026-04-09T09:56:05.999Z</time></trkpt><trkpt lat="43.826957342572854" lon="11.152326210820407"><ele>36.333333333333336</ele><time>2026-04-09T09:56:07.999Z</time></trkpt><trkpt lat="43.82703532052224" lon="11.152399413324936"><ele>36.166666666666664</ele><time>2026-04-09T09:56:11.999Z</time></trkpt><trkpt lat="43.827161074670904" lon="11.15247440969504"><ele>36.0</ele><time>2026-04-09T09:56:13.999Z</time></trkpt><trkpt lat="43.827250437201215" lon="11.152517261124773"><ele>36.333333333333336</ele><time>2026-04-09T09:56:14.999Z</time></trkpt><trkpt lat="43.827316175217675" lon="11.152568198923484"><ele>36.666666666666664</ele><time>2026-04-09T09:56:15.999Z</time></trkpt><trkpt lat="43.82742871577922" lon="11.15262204303384"><ele>37.0</ele><time>2026-04-09T09:56:17.999Z</time></trkpt><trkpt lat="43.82749977028887" lon="11.152691864468297"><ele>37.33333333333333</ele><time>2026-04-09T09:56:19.999Z</time></trkpt><trkpt lat="43.827566565990885" lon="11.152732062303926"><ele>37.666666666666664</ele><time>2026-04-09T09:56:22.999Z</time></trkpt><trkpt lat="43.827637329602304" lon="11.15277541311265"><ele>38.0</ele><time>2026-04-09T09:56:27.999Z</time></trkpt><trkpt lat="43.82770902393204" lon="11.152813222252627"><ele>38.0</ele><time>2026-04-09T09:56:29.999Z</time></trkpt><trkpt lat="43.82777298477195" lon="11.152856491589418"><ele>38.0</ele><time>2026-04-09T09:56:32Z</time></trkpt><trkpt lat="43.82785034456499" lon="11.152913928201844"><ele>38.0</ele><time>2026-04-09T09:56:36Z</time></trkpt><trkpt lat="43.8279215195891" lon="11.152943809169678"><ele>38.0</ele><time>2026-04-09T09:56:39Z</time></trkpt><trkpt lat="43.82799397096083" lon="11.15295694620637"><ele>38.0</ele><time>2026-04-09T09:56:42Z</time></trkpt><trkpt lat="43.828048570260336" lon="11.15302078891443"><ele>38.0</ele><time>2026-04-09T09:56:43Z</time></trkpt><trkpt lat="43.828130996944225" lon="11.153085271846646"><ele>38.0</ele><time>2026-04-09T09:56:44Z</time></trkpt><trkpt lat="43.828222627975" lon="11.153150036989775"><ele>38.0</ele><time>2026-04-09T09:56:45Z</time></trkpt><trkpt lat="43.82832378195243" lon="11.153228607823191"><ele>38.0</ele><time>2026-04-09T09:56:46Z</time></trkpt><trkpt lat="43.82842893326028" lon="11.153319934279498"><ele>38.0</ele><time>2026-04-09T09:56:47Z</time></trkpt><trkpt lat="43.8285407301374" lon="11.15340468785711"><ele>38.5</ele><time>2026-04-09T09:56:48Z</time></trkpt><trkpt lat="43.82866467123461" lon="11.153501365104852"><ele>39.0</ele><time>2026-04-09T09:56:49Z</time></trkpt><trkpt lat="43.828786558000445" lon="11.153603851611148"><ele>39.5</ele><time>2026-04-09T09:56:50Z</time></trkpt><trkpt lat="43.82891679524003" lon="11.153709816730341"><ele>40.0</ele><time>2026-04-09T09:56:51Z</time></trkpt><trkpt lat="43.82905431366723" lon="11.153826579823733"><ele>40.0</ele><time>2026-04-09T09:56:52Z</time></trkpt><trkpt lat="43.82920139841709" lon="11.153948346069752"><ele>40.0</ele><time>2026-04-09T09:56:53Z</time></trkpt><trkpt lat="43.829341894065344" lon="11.154067261626071"><ele>40.0</ele><time>2026-04-09T09:56:54Z</time></trkpt><trkpt lat="43.8294896718632" lon="11.15419428829008"><ele>39.66666666666667</ele><time>2026-04-09T09:56:55Z</time></trkpt><trkpt lat="43.82964223689052" lon="11.154325829029496"><ele>39.333333333333336</ele><time>2026-04-09T09:56:56Z</time></trkpt><trkpt lat="43.82980074221198" lon="11.1544579650882"><ele>39.0</ele><time>2026-04-09T09:56:57Z</time></trkpt><trkpt lat="43.82996862630512" lon="11.15460596948582"><ele>39.0</ele><time>2026-04-09T09:56:58Z</time></trkpt><trkpt lat="43.83013735070637" lon="11.15474832937782"><ele>39.0</ele><time>2026-04-09T09:56:59Z</time></trkpt><trkpt lat="43.83031978529559" lon="11.154908395438413"><ele>39.0</ele><time>2026-04-09T09:57:00Z</time></trkpt><trkpt lat="43.83050385706857" lon="11.155065414850098"><ele>39.0</ele><time>2026-04-09T09:57:01Z</time></trkpt><trkpt lat="43.83067173434388" lon="11.155211485789886"><ele>39.0</ele><time>2026-04-09T09:57:02Z</time></trkpt><trkpt lat="43.830828968806046" lon="11.15533867924425"><ele>39.0</ele><time>2026-04-09T09:57:03Z</time></trkpt><trkpt lat="43.83098811372038" lon="11.155477941375002"><ele>38.333333333333336</ele><time>2026-04-09T09:57:04Z</time></trkpt><trkpt lat="43.83115418368455" lon="11.155620306911084"><ele>37.66666666666667</ele><time>2026-04-09T09:57:05Z</time></trkpt><trkpt lat="43.83131791495246" lon="11.155758371081895"><ele>37.0</ele><time>2026-04-09T09:57:06Z</time></trkpt><trkpt lat="43.83148898845042" lon="11.15590276933827"><ele>38.0</ele><time>2026-04-09T09:57:07Z</time></trkpt><trkpt lat="43.831670586520744" lon="11.156057969139427"><ele>39.0</ele><time>2026-04-09T09:57:08Z</time></trkpt><trkpt lat="43.83184566296213" lon="11.156203623086682"><ele>40.0</ele><time>2026-04-09T09:57:09Z</time></trkpt><trkpt lat="43.832012515007634" lon="11.156348923531349"><ele>40.0</ele><time>2026-04-09T09:57:10Z</time></trkpt><trkpt lat="43.8321698112172" lon="11.15647965965535"><ele>40.0</ele><time>2026-04-09T09:57:11Z</time></trkpt><trkpt lat="43.83233338275139" lon="11.156621086142758"><ele>40.0</ele><time>2026-04-09T09:57:12Z</time></trkpt><trkpt lat="43.83249663889562" lon="11.156766079007957"><ele>39.0</ele><time>2026-04-09T09:57:13Z</time></trkpt><trkpt lat="43.8326614150173" lon="11.15691165608641"><ele>38.0</ele><time>2026-04-09T09:57:14Z</time></trkpt><trkpt lat="43.83281505605589" lon="11.157048355204486"><ele>37.0</ele><time>2026-04-09T09:57:15Z</time></trkpt><trkpt lat="43.83296209754504" lon="11.157177373931212"><ele>37.0</ele><time>2026-04-09T09:57:16Z</time></trkpt><trkpt lat="43.8331028768976" lon="11.157298287368516"><ele>37.0</ele><time>2026-04-09T09:57:17Z</time></trkpt><trkpt lat="43.83324539368956" lon="11.157419366378479"><ele>37.0</ele><time>2026-04-09T09:57:18Z</time></trkpt><trkpt lat="43.83338573022005" lon="11.157539492104894"><ele>37.5</ele><time>2026-04-09T09:57:19Z</time></trkpt><trkpt lat="43.833508536606615" lon="11.157660596172462"><ele>38.0</ele><time>2026-04-09T09:57:20Z</time></trkpt><trkpt lat="43.833619217977024" lon="11.157764761286087"><ele>38.5</ele><time>2026-04-09T09:57:21Z</time></trkpt><trkpt lat="43.83370748749404" lon="11.157845785465822"><ele>39.0</ele><time>2026-04-09T09:57:22Z</time></trkpt><trkpt lat="43.83377924303217" lon="11.15791270790807"><ele>39.0</ele><time>2026-04-09T09:57:23Z</time></trkpt><trkpt lat="43.83384156101667" lon="11.157969503988532"><ele>39.0</ele><time>2026-04-09T09:57:24Z</time></trkpt><trkpt lat="43.83394409663962" lon="11.158050439545057"><ele>39.0</ele><time>2026-04-09T09:57:26Z</time></trkpt><trkpt lat="43.83402066271701" lon="11.15809770849314"><ele>39.0</ele><time>2026-04-09T09:57:28Z</time></trkpt><trkpt lat="43.83412764668433" lon="11.158191655983616"><ele>39.0</ele><time>2026-04-09T09:57:30Z</time></trkpt><trkpt lat="43.834194813256595" lon="11.158253255463181"><ele>39.4</ele><time>2026-04-09T09:57:31Z</time></trkpt><trkpt lat="43.83426674356861" lon="11.158316730262747"><ele>39.8</ele><time>2026-04-09T09:57:31.999Z</time></trkpt><trkpt lat="43.83435557371166" lon="11.158387531100502"><ele>40.199999999999996</ele><time>2026-04-09T09:57:32.999Z</time></trkpt><trkpt lat="43.83445184575631" lon="11.158466041419757"><ele>40.599999999999994</ele><time>2026-04-09T09:57:33.999Z</time></trkpt><trkpt lat="43.83453192887931" lon="11.158532640325818"><ele>41.0</ele><time>2026-04-09T09:57:34.999Z</time></trkpt><trkpt lat="43.83460513584166" lon="11.158597554776673"><ele>40.199999999999996</ele><time>2026-04-09T09:57:35.999Z</time></trkpt><trkpt lat="43.834679574083154" lon="11.158664661917767"><ele>39.4</ele><time>2026-04-09T09:57:36.999Z</time></trkpt><trkpt lat="43.83474647768184" lon="11.158723613569315"><ele>38.6</ele><time>2026-04-09T09:57:37.999Z</time></trkpt><trkpt lat="43.83480898037346" lon="11.158775178973853"><ele>37.8</ele><time>2026-04-09T09:57:38.999Z</time></trkpt><trkpt lat="43.83491239430222" lon="11.158866144543317"><ele>37.0</ele><time>2026-04-09T09:57:40.999Z</time></trkpt><trkpt lat="43.83501167658553" lon="11.158956279385555"><ele>37.0</ele><time>2026-04-09T09:57:42.999Z</time></trkpt><trkpt lat="43.83508446220376" lon="11.159022516591323"><ele>37.0</ele><time>2026-04-09T09:57:44.999Z</time></trkpt><trkpt lat="43.83515694552024" lon="11.159086640511878"><ele>37.0</ele><time>2026-04-09T09:57:46.999Z</time></trkpt><trkpt lat="43.83523415241358" lon="11.159147695101433"><ele>37.0</ele><time>2026-04-09T09:57:48.999Z</time></trkpt><trkpt lat="43.835300014579886" lon="11.159205872960179"><ele>37.0</ele><time>2026-04-09T09:57:50.999Z</time></trkpt><trkpt lat="43.83537959957044" lon="11.159276564866008"><ele>37.0</ele><time>2026-04-09T09:57:52.999Z</time></trkpt><trkpt lat="43.8354608537484" lon="11.159345882288157"><ele>37.0</ele><time>2026-04-09T09:57:54.999Z</time></trkpt><trkpt lat="43.835516203345" lon="11.15939815236631"><ele>37.0</ele><time>2026-04-09T09:57:55.999Z</time></trkpt><trkpt lat="43.835577630226275" lon="11.159466100066814"><ele>37.0</ele><time>2026-04-09T09:57:56.999Z</time></trkpt><trkpt lat="43.83565640549229" lon="11.15953225692751"><ele>37.0</ele><time>2026-04-09T09:57:57.999Z</time></trkpt><trkpt lat="43.83574754319346" lon="11.159601104298787"><ele>37.0</ele><time>2026-04-09T09:57:58.999Z</time></trkpt><trkpt lat="43.83584352907728" lon="11.159677415083127"><ele>37.0</ele><time>2026-04-09T09:57:59.999Z</time></trkpt><trkpt lat="43.835943389711865" lon="11.15976512518429"><ele>37.0</ele><time>2026-04-09T09:58:00.999Z</time></trkpt><trkpt lat="43.83602452184897" lon="11.159837411917527"><ele>37.0</ele><time>2026-04-09T09:58:01.999Z</time></trkpt><trkpt lat="43.83609878164806" lon="11.159899046421156"><ele>37.0</ele><time>2026-04-09T09:58:02.999Z</time></trkpt><trkpt lat="43.83616807860355" lon="11.159955822732647"><ele>37.0</ele><time>2026-04-09T09:58:03.999Z</time></trkpt><trkpt lat="43.83624243670748" lon="11.160019870417514"><ele>37.66666666666667</ele><time>2026-04-09T09:58:04.999Z</time></trkpt><trkpt lat="43.83630686593967" lon="11.160070477299127"><ele>38.333333333333336</ele><time>2026-04-09T09:58:05.999Z</time></trkpt><trkpt lat="43.83637295791083" lon="11.160133354117121"><ele>39.0</ele><time>2026-04-09T09:58:06.999Z</time></trkpt><trkpt lat="43.83644620164524" lon="11.16019424687385"><ele>39.666666666666664</ele><time>2026-04-09T09:58:07.999Z</time></trkpt><trkpt lat="43.83652534361288" lon="11.160262657814863"><ele>40.33333333333333</ele><time>2026-04-09T09:58:08.999Z</time></trkpt><trkpt lat="43.836606976471614" lon="11.160334755665259"><ele>41.0</ele><time>2026-04-09T09:58:09.999Z</time></trkpt><trkpt lat="43.83668182305284" lon="11.16040087109786"><ele>41.0</ele><time>2026-04-09T09:58:10.999Z</time></trkpt><trkpt lat="43.83675331301355" lon="11.160461263321977"><ele>41.0</ele><time>2026-04-09T09:58:11.999Z</time></trkpt><trkpt lat="43.8368254504423" lon="11.160520705594605"><ele>41.0</ele><time>2026-04-09T09:58:12.999Z</time></trkpt><trkpt lat="43.83689939196073" lon="11.160599297640621"><ele>41.0</ele><time>2026-04-09T09:58:13.999Z</time></trkpt><trkpt lat="43.83699257649848" lon="11.160676670220482"><ele>41.0</ele><time>2026-04-09T09:58:14.999Z</time></trkpt><trkpt lat="43.8370904129779" lon="11.160768985762715"><ele>41.199999999999996</ele><time>2026-04-09T09:58:15.999Z</time></trkpt><trkpt lat="43.83718156523011" lon="11.160838653612643"><ele>41.4</ele><time>2026-04-09T09:58:16.999Z</time></trkpt><trkpt lat="43.83725262235495" lon="11.160898488017711"><ele>41.6</ele><time>2026-04-09T09:58:17.999Z</time></trkpt><trkpt lat="43.8373172854566" lon="11.16094307457107"><ele>41.8</ele><time>2026-04-09T09:58:18.999Z</time></trkpt><trkpt lat="43.83741664508886" lon="11.161016832141103"><ele>42.0</ele><time>2026-04-09T09:58:20.999Z</time></trkpt><trkpt lat="43.83750807811458" lon="11.161094842513156"><ele>42.0</ele><time>2026-04-09T09:58:22.999Z</time></trkpt><trkpt lat="43.837571552178076" lon="11.161146657544021"><ele>42.0</ele><time>2026-04-09T09:58:24.999Z</time></trkpt><trkpt lat="43.837641851818795" lon="11.161174058375606"><ele>42.0</ele><time>2026-04-09T09:58:34.999Z</time></trkpt><trkpt lat="43.837699754594105" lon="11.161228038185536"><ele>42.0</ele><time>2026-04-09T09:58:38Z</time></trkpt><trkpt lat="43.8377969842281" lon="11.161294800266488"><ele>42.0</ele><time>2026-04-09T09:58:40Z</time></trkpt><trkpt lat="43.83785860767985" lon="11.161349246553845"><ele>42.0</ele><time>2026-04-09T09:58:41Z</time></trkpt><trkpt lat="43.83793701245496" lon="11.16141658823076"><ele>42.0</ele><time>2026-04-09T09:58:42Z</time></trkpt><trkpt lat="43.83802195799776" lon="11.161501567123668"><ele>42.0</ele><time>2026-04-09T09:58:43Z</time></trkpt><trkpt lat="43.83808242931355" lon="11.161570997187312"><ele>42.0</ele><time>2026-04-09T09:58:47Z</time></trkpt><trkpt lat="43.83817603873621" lon="11.16165625156715"><ele>42.0</ele><time>2026-04-09T09:58:49Z</time></trkpt><trkpt lat="43.838255050636015" lon="11.161714764464053"><ele>42.0</ele><time>2026-04-09T09:58:50Z</time></trkpt><trkpt lat="43.83833394487248" lon="11.161766760957697"><ele>42.0</ele><time>2026-04-09T09:58:51Z</time></trkpt><trkpt lat="43.838384915685644" lon="11.161833715016243"><ele>42.0</ele><time>2026-04-09T09:58:52Z</time></trkpt><trkpt lat="43.838438144065584" lon="11.161882929874382"><ele>42.0</ele><time>2026-04-09T09:58:53Z</time></trkpt><trkpt lat="43.83852398130131" lon="11.161953984839116"><ele>42.0</ele><time>2026-04-09T09:58:55Z</time></trkpt><trkpt lat="43.83859284415008" lon="11.162016922025717"><ele>42.0</ele><time>2026-04-09T09:58:57Z</time></trkpt><trkpt lat="43.83866371717011" lon="11.162074813991218"><ele>42.0</ele><time>2026-04-09T09:58:59Z</time></trkpt><trkpt lat="43.83873998481776" lon="11.162145472419926"><ele>42.0</ele><time>2026-04-09T09:59:01Z</time></trkpt><trkpt lat="43.83882498211427" lon="11.162210706333795"><ele>42.0</ele><time>2026-04-09T09:59:03Z</time></trkpt><trkpt lat="43.838886119396356" lon="11.162274386464722"><ele>42.0</ele><time>2026-04-09T09:59:04Z</time></trkpt><trkpt lat="43.83895712622501" lon="11.162334055023765"><ele>42.0</ele><time>2026-04-09T09:59:05Z</time></trkpt><trkpt lat="43.83901801064209" lon="11.162386715429504"><ele>42.0</ele><time>2026-04-09T09:59:06Z</time></trkpt><trkpt lat="43.839095801246025" lon="11.162450126280214"><ele>42.0</ele><time>2026-04-09T09:59:08Z</time></trkpt><trkpt lat="43.839158420206864" lon="11.16250398888604"><ele>41.833333333333336</ele><time>2026-04-09T09:59:13Z</time></trkpt><trkpt lat="43.839218807512246" lon="11.162560216782097"><ele>41.666666666666664</ele><time>2026-04-09T09:59:15Z</time></trkpt><trkpt lat="43.83928323633587" lon="11.162608749239313"><ele>41.5</ele><time>2026-04-09T09:59:16Z</time></trkpt><trkpt lat="43.83933962602834" lon="11.16265614660853"><ele>41.33333333333333</ele><time>2026-04-09T09:59:17Z</time></trkpt><trkpt lat="43.83942318565964" lon="11.162733920782905"><ele>41.166666666666664</ele><time>2026-04-09T09:59:19Z</time></trkpt><trkpt lat="43.839518136692774" lon="11.16281417462666"><ele>41.0</ele><time>2026-04-09T09:59:21Z</time></trkpt><trkpt lat="43.83957149334918" lon="11.162861137817455"><ele>41.0</ele><time>2026-04-09T09:59:22Z</time></trkpt><trkpt lat="43.83964778850551" lon="11.162932703380912"><ele>41.0</ele><time>2026-04-09T09:59:24Z</time></trkpt><trkpt lat="43.83970514362397" lon="11.1629772928937"><ele>41.0</ele><time>2026-04-09T09:59:34Z</time></trkpt><trkpt lat="43.83976194146195" lon="11.163018225463066"><ele>41.0</ele><time>2026-04-09T09:59:38Z</time></trkpt><trkpt lat="43.83982467766482" lon="11.163081894509897"><ele>41.0</ele><time>2026-04-09T09:59:42.999Z</time></trkpt><trkpt lat="43.83994686279794" lon="11.163182646622126"><ele>41.0</ele><time>2026-04-09T09:59:44.999Z</time></trkpt><trkpt lat="43.840039749838716" lon="11.163262054414652"><ele>41.0</ele><time>2026-04-09T09:59:46.999Z</time></trkpt><trkpt lat="43.840129029233246" lon="11.16334440936526"><ele>41.0</ele><time>2026-04-09T09:59:48.999Z</time></trkpt><trkpt lat="43.84018848212499" lon="11.16339021124235"><ele>41.0</ele><time>2026-04-09T09:59:50.999Z</time></trkpt><trkpt lat="43.84025562029632" lon="11.163442147743503"><ele>41.0</ele><time>2026-04-09T09:59:54.999Z</time></trkpt><trkpt lat="43.84032257897191" lon="11.163489724135493"><ele>41.0</ele><time>2026-04-09T09:59:58.999Z</time></trkpt><trkpt lat="43.84041756596032" lon="11.163560211541176"><ele>41.0</ele><time>2026-04-09T10:00:01.999Z</time></trkpt><trkpt lat="43.84048935581447" lon="11.163618487175725"><ele>41.0</ele><time>2026-04-09T10:00:03.999Z</time></trkpt><trkpt lat="43.84056774689128" lon="11.163684931039734"><ele>41.0</ele><time>2026-04-09T10:00:05.999Z</time></trkpt><trkpt lat="43.84066119320759" lon="11.163771241717452"><ele>41.0</ele><time>2026-04-09T10:00:07.999Z</time></trkpt><trkpt lat="43.84074309334572" lon="11.163850666546134"><ele>41.0</ele><time>2026-04-09T10:00:09.999Z</time></trkpt><trkpt lat="43.84080946986534" lon="11.163913151033766"><ele>41.0</ele><time>2026-04-09T10:00:12.999Z</time></trkpt><trkpt lat="43.840883358304836" lon="11.163967086824822"><ele>41.0</ele><time>2026-04-09T10:00:14.999Z</time></trkpt><trkpt lat="43.84094229274684" lon="11.164014011699217"><ele>41.0</ele><time>2026-04-09T10:00:15.999Z</time></trkpt><trkpt lat="43.84099464572336" lon="11.164063002720145"><ele>41.0</ele><time>2026-04-09T10:00:16.999Z</time></trkpt><trkpt lat="43.841088757021566" lon="11.164152000741058"><ele>41.0</ele><time>2026-04-09T10:00:18.999Z</time></trkpt><trkpt lat="43.84114990436832" lon="11.164207606660135"><ele>41.0</ele><time>2026-04-09T10:00:19.999Z</time></trkpt><trkpt lat="43.84120458666747" lon="11.164257162477124"><ele>41.0</ele><time>2026-04-09T10:00:20.999Z</time></trkpt><trkpt lat="43.84132584769787" lon="11.164359615124035"><ele>41.8</ele><time>2026-04-09T10:00:22.999Z</time></trkpt><trkpt lat="43.841414710828296" lon="11.164434960220941"><ele>42.599999999999994</ele><time>2026-04-09T10:00:24.999Z</time></trkpt><trkpt lat="43.84148525292562" lon="11.16449469132266"><ele>43.4</ele><time>2026-04-09T10:00:26.999Z</time></trkpt><trkpt lat="43.84160265317572" lon="11.164582306193601"><ele>44.2</ele><time>2026-04-09T10:00:28.999Z</time></trkpt><trkpt lat="43.84170242667916" lon="11.164666397706556"><ele>45.0</ele><time>2026-04-09T10:00:29.999Z</time></trkpt><trkpt lat="43.8417840850818" lon="11.164738336506344"><ele>45.0</ele><time>2026-04-09T10:00:30.999Z</time></trkpt><trkpt lat="43.841848610081605" lon="11.16479052877759"><ele>45.0</ele><time>2026-04-09T10:00:31.999Z</time></trkpt><trkpt lat="43.84190571718282" lon="11.164848395631173"><ele>45.0</ele><time>2026-04-09T10:00:32.999Z</time></trkpt><trkpt lat="43.8419604871271" lon="11.16489593298669"><ele>45.0</ele><time>2026-04-09T10:00:33.999Z</time></trkpt><trkpt lat="43.84201829314532" lon="11.164934847709757"><ele>45.0</ele><time>2026-04-09T10:00:34.999Z</time></trkpt><trkpt lat="43.842161692305794" lon="11.16504660074309"><ele>45.0</ele><time>2026-04-09T10:00:36.999Z</time></trkpt><trkpt lat="43.84224857707067" lon="11.165123504788758"><ele>45.0</ele><time>2026-04-09T10:00:37.999Z</time></trkpt><trkpt lat="43.842315437168814" lon="11.165185567078872"><ele>45.0</ele><time>2026-04-09T10:00:38.999Z</time></trkpt><trkpt lat="43.84238586559457" lon="11.16524804139436"><ele>45.0</ele><time>2026-04-09T10:00:39.999Z</time></trkpt><trkpt lat="43.84245183715061" lon="11.16530184255929"><ele>45.0</ele><time>2026-04-09T10:00:40.999Z</time></trkpt><trkpt lat="43.842556662768985" lon="11.165398019131002"><ele>45.0</ele><time>2026-04-09T10:00:43Z</time></trkpt><trkpt lat="43.842615586892244" lon="11.165446567994044"><ele>45.0</ele><time>2026-04-09T10:00:44Z</time></trkpt><trkpt lat="43.84268557294389" lon="11.165500602977424"><ele>45.166666666666664</ele><time>2026-04-09T10:00:45Z</time></trkpt><trkpt lat="43.84276146383322" lon="11.165569285708813"><ele>45.333333333333336</ele><time>2026-04-09T10:00:46Z</time></trkpt><trkpt lat="43.84281779914751" lon="11.165624063953645"><ele>45.5</ele><time>2026-04-09T10:00:47Z</time></trkpt><trkpt lat="43.842903813568924" lon="11.165707472114754"><ele>45.66666666666667</ele><time>2026-04-09T10:00:49Z</time></trkpt><trkpt lat="43.84296523206416" lon="11.165743315243922"><ele>45.833333333333336</ele><time>2026-04-09T10:00:50Z</time></trkpt><trkpt lat="43.843030790768104" lon="11.165805962462356"><ele>46.0</ele><time>2026-04-09T10:00:51Z</time></trkpt><trkpt lat="43.843090780391044" lon="11.165848812136902"><ele>46.285714285714285</ele><time>2026-04-09T10:00:52Z</time></trkpt><trkpt lat="43.84314735825814" lon="11.16591082197149"><ele>46.57142857142857</ele><time>2026-04-09T10:00:53Z</time></trkpt><trkpt lat="43.84322530211183" lon="11.165971198689064"><ele>46.857142857142854</ele><time>2026-04-09T10:00:54Z</time></trkpt><trkpt lat="43.84329301964203" lon="11.166026961769157"><ele>47.14285714285714</ele><time>2026-04-09T10:00:55Z</time></trkpt><trkpt lat="43.84334883644158" lon="11.16607359366975"><ele>47.42857142857143</ele><time>2026-04-09T10:00:56Z</time></trkpt><trkpt lat="43.84340452737148" lon="11.16612377351962"><ele>47.71428571428571</ele><time>2026-04-09T10:00:57Z</time></trkpt><trkpt lat="43.84345910845197" lon="11.166176272398133"><ele>48.0</ele><time>2026-04-09T10:00:58Z</time></trkpt><trkpt lat="43.84352275702595" lon="11.166232677952914"><ele>48.0</ele><time>2026-04-09T10:00:59Z</time></trkpt><trkpt lat="43.84359674321196" lon="11.166301546560515"><ele>48.0</ele><time>2026-04-09T10:01:00Z</time></trkpt><trkpt lat="43.84367398823083" lon="11.166360729177997"><ele>48.0</ele><time>2026-04-09T10:01:01Z</time></trkpt><trkpt lat="43.84372908600393" lon="11.166403674815452"><ele>48.0</ele><time>2026-04-09T10:01:02Z</time></trkpt><trkpt lat="43.843808976346374" lon="11.16647170957358"><ele>48.0</ele><time>2026-04-09T10:01:04Z</time></trkpt><trkpt lat="43.84386630985576" lon="11.166523059826906"><ele>48.0</ele><time>2026-04-09T10:01:06Z</time></trkpt><trkpt lat="43.84393480643309" lon="11.166585981205095"><ele>48.166666666666664</ele><time>2026-04-09T10:01:08Z</time></trkpt><trkpt lat="43.84402275427853" lon="11.166649523734357"><ele>48.33333333333333</ele><time>2026-04-09T10:01:10Z</time></trkpt><trkpt lat="43.84408980449181" lon="11.166701600477099"><ele>48.5</ele><time>2026-04-09T10:01:12Z</time></trkpt><trkpt lat="43.84416125933289" lon="11.166761185616295"><ele>48.666666666666664</ele><time>2026-04-09T10:01:14Z</time></trkpt><trkpt lat="43.8442152426007" lon="11.166813289146507"><ele>48.83333333333333</ele><time>2026-04-09T10:01:15Z</time></trkpt><trkpt lat="43.84428884645136" lon="11.166885967817066"><ele>49.0</ele><time>2026-04-09T10:01:16Z</time></trkpt><trkpt lat="43.84437285341187" lon="11.166965899392814"><ele>49.166666666666664</ele><time>2026-04-09T10:01:17Z</time></trkpt><trkpt lat="43.844428124691284" lon="11.167008990049565"><ele>49.33333333333333</ele><time>2026-04-09T10:01:18Z</time></trkpt><trkpt lat="43.84450508545339" lon="11.167068245878514"><ele>49.5</ele><time>2026-04-09T10:01:20Z</time></trkpt><trkpt lat="43.84456248919191" lon="11.167124102273197"><ele>49.66666666666667</ele><time>2026-04-09T10:01:22Z</time></trkpt><trkpt lat="43.84466583639926" lon="11.167208880402015"><ele>49.833333333333336</ele><time>2026-04-09T10:01:24Z</time></trkpt><trkpt lat="43.84475232926622" lon="11.167286174405897"><ele>50.0</ele><time>2026-04-09T10:01:26Z</time></trkpt><trkpt lat="43.844848496579345" lon="11.167366687590492"><ele>50.16666666666667</ele><time>2026-04-09T10:01:28Z</time></trkpt><trkpt lat="43.84492800487962" lon="11.167431670480688"><ele>50.333333333333336</ele><time>2026-04-09T10:01:30Z</time></trkpt><trkpt lat="43.84498506841781" lon="11.167476131614707"><ele>50.5</ele><time>2026-04-09T10:01:33Z</time></trkpt><trkpt lat="43.845047109555" lon="11.167521372269963"><ele>50.66666666666667</ele><time>2026-04-09T10:01:37Z</time></trkpt><trkpt lat="43.84512615058006" lon="11.167591355637681"><ele>50.833333333333336</ele><time>2026-04-09T10:01:40Z</time></trkpt><trkpt lat="43.84520517438997" lon="11.167655527235627"><ele>51.0</ele><time>2026-04-09T10:01:44Z</time></trkpt><trkpt lat="43.84531133503215" lon="11.167749560655912"><ele>51.0</ele><time>2026-04-09T10:01:46Z</time></trkpt><trkpt lat="43.845383757961756" lon="11.16781087303743"><ele>51.0</ele><time>2026-04-09T10:01:48Z</time></trkpt><trkpt lat="43.84545715470973" lon="11.167866107947624"><ele>51.0</ele><time>2026-04-09T10:01:54Z</time></trkpt><trkpt lat="43.8455184129619" lon="11.167923150004354"><ele>51.0</ele><time>2026-04-09T10:01:56Z</time></trkpt><trkpt lat="43.845583609682194" lon="11.167998957455069"><ele>51.0</ele><time>2026-04-09T10:02:01.999Z</time></trkpt><trkpt lat="43.84558828837725" lon="11.16809996460453"><ele>51.0</ele><time>2026-04-09T10:02:07.999Z</time></trkpt><trkpt lat="43.84563616896515" lon="11.16816846156056"><ele>51.25</ele><time>2026-04-09T10:02:09.999Z</time></trkpt><trkpt lat="43.84577316227194" lon="11.168268417617401"><ele>51.5</ele><time>2026-04-09T10:02:11.999Z</time></trkpt><trkpt lat="43.84586486372792" lon="11.168353732876337"><ele>51.75</ele><time>2026-04-09T10:02:12.999Z</time></trkpt><trkpt lat="43.84595588075449" lon="11.1684350300331"><ele>52.0</ele><time>2026-04-09T10:02:13.999Z</time></trkpt><trkpt lat="43.846060228374974" lon="11.168524343189679"><ele>52.0</ele><time>2026-04-09T10:02:14.999Z</time></trkpt><trkpt lat="43.84614519033312" lon="11.168594668587277"><ele>52.0</ele><time>2026-04-09T10:02:15.999Z</time></trkpt><trkpt lat="43.84624535191595" lon="11.168682122981483"><ele>52.0</ele><time>2026-04-09T10:02:16.999Z</time></trkpt><trkpt lat="43.84636094935414" lon="11.168786398506727"><ele>52.0</ele><time>2026-04-09T10:02:17.999Z</time></trkpt><trkpt lat="43.84645790351914" lon="11.168874130988963"><ele>52.0</ele><time>2026-04-09T10:02:18.999Z</time></trkpt><trkpt lat="43.84654637256002" lon="11.168948012817106"><ele>52.0</ele><time>2026-04-09T10:02:19.999Z</time></trkpt><trkpt lat="43.84662584037006" lon="11.169017395136681"><ele>52.0</ele><time>2026-04-09T10:02:20.999Z</time></trkpt><trkpt lat="43.84671416073526" lon="11.169097402663484"><ele>52.0</ele><time>2026-04-09T10:02:21.999Z</time></trkpt><trkpt lat="43.84680301985804" lon="11.169175885837307"><ele>52.0</ele><time>2026-04-09T10:02:22.999Z</time></trkpt><trkpt lat="43.84688625186531" lon="11.169250374070694"><ele>52.400000000000006</ele><time>2026-04-09T10:02:23.999Z</time></trkpt><trkpt lat="43.84697514441035" lon="11.169323082503155"><ele>52.800000000000004</ele><time>2026-04-09T10:02:24.999Z</time></trkpt><trkpt lat="43.84705438711737" lon="11.169393409853756"><ele>53.2</ele><time>2026-04-09T10:02:25.999Z</time></trkpt><trkpt lat="43.84713306115309" lon="11.169458683909763"><ele>53.6</ele><time>2026-04-09T10:02:26.999Z</time></trkpt><trkpt lat="43.84721178992001" lon="11.169530913245007"><ele>54.0</ele><time>2026-04-09T10:02:27.999Z</time></trkpt><trkpt lat="43.84727555888923" lon="11.16958486341652"><ele>54.0</ele><time>2026-04-09T10:02:28.999Z</time></trkpt><trkpt lat="43.84733379512083" lon="11.169633386780873"><ele>54.0</ele><time>2026-04-09T10:02:29.999Z</time></trkpt><trkpt lat="43.84739038144796" lon="11.169680760827928"><ele>54.0</ele><time>2026-04-09T10:02:30.999Z</time></trkpt><trkpt lat="43.84748200412248" lon="11.169755385605468"><ele>54.0</ele><time>2026-04-09T10:02:32.999Z</time></trkpt><trkpt lat="43.84753879130284" lon="11.169808465117477"><ele>54.0</ele><time>2026-04-09T10:02:34.999Z</time></trkpt><trkpt lat="43.84760150074064" lon="11.169865169909562"><ele>54.0</ele><time>2026-04-09T10:02:37.999Z</time></trkpt><trkpt lat="43.847659173548664" lon="11.169927431416651"><ele>54.666666666666664</ele><time>2026-04-09T10:02:44.999Z</time></trkpt><trkpt lat="43.84773149025076" lon="11.169951979565155"><ele>55.33333333333333</ele><time>2026-04-09T10:02:51Z</time></trkpt><trkpt lat="43.84780021368312" lon="11.170008927617356"><ele>56.0</ele><time>2026-04-09T10:02:53Z</time></trkpt><trkpt lat="43.847866057094855" lon="11.170053219640671"><ele>56.666666666666664</ele><time>2026-04-09T10:02:55Z</time></trkpt><trkpt lat="43.84795344634153" lon="11.17012243530676"><ele>57.33333333333333</ele><time>2026-04-09T10:02:56Z</time></trkpt><trkpt lat="43.84803977680787" lon="11.170192934893324"><ele>58.0</ele><time>2026-04-09T10:02:57Z</time></trkpt><trkpt lat="43.84810489673495" lon="11.170246110568394"><ele>58.0</ele><time>2026-04-09T10:02:58Z</time></trkpt><trkpt lat="43.848167705279046" lon="11.170305784190784"><ele>58.0</ele><time>2026-04-09T10:02:59Z</time></trkpt><trkpt lat="43.84822192004724" lon="11.170364304304622"><ele>58.0</ele><time>2026-04-09T10:03:00Z</time></trkpt><trkpt lat="43.848313043405156" lon="11.170450619477755"><ele>58.0</ele><time>2026-04-09T10:03:02Z</time></trkpt><trkpt lat="43.84840246275615" lon="11.170530433817197"><ele>58.0</ele><time>2026-04-09T10:03:04Z</time></trkpt><trkpt lat="43.84851379675487" lon="11.170632828643335"><ele>57.83333333333333</ele><time>2026-04-09T10:03:06Z</time></trkpt><trkpt lat="43.84859688320739" lon="11.170712308840631"><ele>57.666666666666664</ele><time>2026-04-09T10:03:07Z</time></trkpt><trkpt lat="43.84866641629614" lon="11.170777920773608"><ele>57.5</ele><time>2026-04-09T10:03:08Z</time></trkpt><trkpt lat="43.84873741247549" lon="11.170847091794181"><ele>57.33333333333333</ele><time>2026-04-09T10:03:09Z</time></trkpt><trkpt lat="43.848817394896486" lon="11.170889826692584"><ele>57.166666666666664</ele><time>2026-04-09T10:03:10Z</time></trkpt><trkpt lat="43.8488835229596" lon="11.170946709737297"><ele>57.0</ele><time>2026-04-09T10:03:11Z</time></trkpt><trkpt lat="43.84895383267452" lon="11.171006972473927"><ele>57.0</ele><time>2026-04-09T10:03:12Z</time></trkpt><trkpt lat="43.8490254118171" lon="11.171068323202059"><ele>57.0</ele><time>2026-04-09T10:03:13Z</time></trkpt><trkpt lat="43.849103661789904" lon="11.171135391715156"><ele>57.0</ele><time>2026-04-09T10:03:14Z</time></trkpt><trkpt lat="43.849175621047905" lon="11.171197068075042"><ele>57.0</ele><time>2026-04-09T10:03:15Z</time></trkpt><trkpt lat="43.84925694358708" lon="11.17126688139265"><ele>57.0</ele><time>2026-04-09T10:03:16Z</time></trkpt><trkpt lat="43.849336669485005" lon="11.171335391777585"><ele>57.0</ele><time>2026-04-09T10:03:17Z</time></trkpt><trkpt lat="43.84941295385317" lon="11.17140094431228"><ele>57.0</ele><time>2026-04-09T10:03:18Z</time></trkpt><trkpt lat="43.84949448114613" lon="11.17147100277945"><ele>57.0</ele><time>2026-04-09T10:03:19Z</time></trkpt><trkpt lat="43.84958177071179" lon="11.171545260828664"><ele>57.0</ele><time>2026-04-09T10:03:20Z</time></trkpt><trkpt lat="43.849648855728056" lon="11.171602282669733"><ele>57.0</ele><time>2026-04-09T10:03:21Z</time></trkpt><trkpt lat="43.84972566812839" lon="11.171667593457245"><ele>57.0</ele><time>2026-04-09T10:03:22Z</time></trkpt><trkpt lat="43.84980265976582" lon="11.171733056381138"><ele>57.0</ele><time>2026-04-09T10:03:23Z</time></trkpt><trkpt lat="43.849883770826835" lon="11.171802021978717"><ele>57.0</ele><time>2026-04-09T10:03:24Z</time></trkpt><trkpt lat="43.849970813375464" lon="11.171876030955568"><ele>57.0</ele><time>2026-04-09T10:03:25Z</time></trkpt><trkpt lat="43.85004775009438" lon="11.1719414471877"><ele>57.0</ele><time>2026-04-09T10:03:26Z</time></trkpt><trkpt lat="43.85011284610587" lon="11.172023441500452"><ele>57.25</ele><time>2026-04-09T10:03:27Z</time></trkpt><trkpt lat="43.850203504228475" lon="11.172074551155003"><ele>57.5</ele><time>2026-04-09T10:03:28Z</time></trkpt><trkpt lat="43.850298485686295" lon="11.17221680245702"><ele>57.75</ele><time>2026-04-09T10:03:29Z</time></trkpt><trkpt lat="43.850383032437065" lon="11.1723230346626"><ele>58.0</ele><time>2026-04-09T10:03:30Z</time></trkpt><trkpt lat="43.850465666038126" lon="11.172441120990902"><ele>58.0</ele><time>2026-04-09T10:03:31Z</time></trkpt><trkpt lat="43.85054490677421" lon="11.172573558679987"><ele>58.0</ele><time>2026-04-09T10:03:32Z</time></trkpt><trkpt lat="43.85064740556681" lon="11.172695320283564"><ele>58.0</ele><time>2026-04-09T10:03:33Z</time></trkpt><trkpt lat="43.85070045736152" lon="11.17283801902532"><ele>58.0</ele><time>2026-04-09T10:03:34Z</time></trkpt><trkpt lat="43.85073812593791" lon="11.172976649198624"><ele>58.0</ele><time>2026-04-09T10:03:35Z</time></trkpt><trkpt lat="43.8507654501818" lon="11.173130642832119"><ele>58.0</ele><time>2026-04-09T10:03:36Z</time></trkpt><trkpt lat="43.850775845105865" lon="11.173295147113901"><ele>58.0</ele><time>2026-04-09T10:03:37Z</time></trkpt><trkpt lat="43.85077363281441" lon="11.173458853923051"><ele>58.0</ele><time>2026-04-09T10:03:38Z</time></trkpt><trkpt lat="43.85075879326346" lon="11.173594741042052"><ele>58.2</ele><time>2026-04-09T10:03:39Z</time></trkpt><trkpt lat="43.85073690113641" lon="11.173731318067862"><ele>58.4</ele><time>2026-04-09T10:03:40Z</time></trkpt><trkpt lat="43.85072659879074" lon="11.173865472653823"><ele>58.60000000000001</ele><time>2026-04-09T10:03:41Z</time></trkpt><trkpt lat="43.850703210810096" lon="11.173999549793397"><ele>58.800000000000004</ele><time>2026-04-09T10:03:42Z</time></trkpt><trkpt lat="43.85070343509108" lon="11.174113813149361"><ele>59.0</ele><time>2026-04-09T10:03:43Z</time></trkpt><trkpt lat="43.850714661069055" lon="11.174235727121134"><ele>59.400000000000006</ele><time>2026-04-09T10:03:44Z</time></trkpt><trkpt lat="43.850743729161486" lon="11.174358444769672"><ele>59.800000000000004</ele><time>2026-04-09T10:03:45Z</time></trkpt><trkpt lat="43.85079034001221" lon="11.17448312973692"><ele>60.199999999999996</ele><time>2026-04-09T10:03:46Z</time></trkpt><trkpt lat="43.85084723812949" lon="11.174608291203164"><ele>60.599999999999994</ele><time>2026-04-09T10:03:47Z</time></trkpt><trkpt lat="43.850924560335876" lon="11.174689629543549"><ele>61.0</ele><time>2026-04-09T10:03:48Z</time></trkpt><trkpt lat="43.85101772634499" lon="11.174746344521717"><ele>61.4</ele><time>2026-04-09T10:03:49Z</time></trkpt><trkpt lat="43.85111888775532" lon="11.174781276977825"><ele>61.8</ele><time>2026-04-09T10:03:50Z</time></trkpt><trkpt lat="43.85123379447656" lon="11.174779088422682"><ele>62.199999999999996</ele><time>2026-04-09T10:03:51Z</time></trkpt><trkpt lat="43.85135059844171" lon="11.174779209954146"><ele>62.599999999999994</ele><time>2026-04-09T10:03:52Z</time></trkpt><trkpt lat="43.85144917728144" lon="11.174730060515214"><ele>63.0</ele><time>2026-04-09T10:03:53Z</time></trkpt><trkpt lat="43.851539816343355" lon="11.174654031573887"><ele>63.0</ele><time>2026-04-09T10:03:54Z</time></trkpt><trkpt lat="43.851622436597616" lon="11.174545307970314"><ele>63.0</ele><time>2026-04-09T10:03:55Z</time></trkpt><trkpt lat="43.85169193739853" lon="11.174425547546566"><ele>63.0</ele><time>2026-04-09T10:03:56Z</time></trkpt><trkpt lat="43.8517493834846" lon="11.174288031674088"><ele>63.0</ele><time>2026-04-09T10:03:57Z</time></trkpt><trkpt lat="43.85181098488496" lon="11.174150427972231"><ele>63.25</ele><time>2026-04-09T10:03:58Z</time></trkpt><trkpt lat="43.851875205590474" lon="11.174006973370028"><ele>63.5</ele><time>2026-04-09T10:03:59Z</time></trkpt><trkpt lat="43.85194438748652" lon="11.173853118788204"><ele>63.75</ele><time>2026-04-09T10:04:00Z</time></trkpt><trkpt lat="43.85201829627137" lon="11.173690564605305"><ele>64.0</ele><time>2026-04-09T10:04:01Z</time></trkpt><trkpt lat="43.8520823858311" lon="11.173550313403815"><ele>64.0</ele><time>2026-04-09T10:04:02Z</time></trkpt><trkpt lat="43.85214680871797" lon="11.173407881273455"><ele>64.0</ele><time>2026-04-09T10:04:03Z</time></trkpt><trkpt lat="43.85220703220727" lon="11.173272969551354"><ele>64.0</ele><time>2026-04-09T10:04:04Z</time></trkpt><trkpt lat="43.85226222928147" lon="11.173148979772247"><ele>64.0</ele><time>2026-04-09T10:04:05Z</time></trkpt><trkpt lat="43.85230541169352" lon="11.173006818619772"><ele>64.0</ele><time>2026-04-09T10:04:06Z</time></trkpt><trkpt lat="43.85236643403384" lon="11.172872254026187"><ele>64.0</ele><time>2026-04-09T10:04:07Z</time></trkpt><trkpt lat="43.85242072909261" lon="11.17273541163461"><ele>64.0</ele><time>2026-04-09T10:04:08Z</time></trkpt><trkpt lat="43.85246965866844" lon="11.172600184290577"><ele>64.0</ele><time>2026-04-09T10:04:09Z</time></trkpt><trkpt lat="43.85250541857272" lon="11.17246433300472"><ele>64.0</ele><time>2026-04-09T10:04:10Z</time></trkpt><trkpt lat="43.852552202206994" lon="11.172321190818767"><ele>63.5</ele><time>2026-04-09T10:04:10.999Z</time></trkpt><trkpt lat="43.852577018222206" lon="11.172153985831054"><ele>63.0</ele><time>2026-04-09T10:04:11.999Z</time></trkpt><trkpt lat="43.85258738841752" lon="11.17196742009012"><ele>62.5</ele><time>2026-04-09T10:04:12.999Z</time></trkpt><trkpt lat="43.852579989494224" lon="11.17178600506533"><ele>62.0</ele><time>2026-04-09T10:04:13.999Z</time></trkpt><trkpt lat="43.852563804359825" lon="11.171610411771889"><ele>61.5</ele><time>2026-04-09T10:04:14.999Z</time></trkpt><trkpt lat="43.85253946098501" lon="11.17144137574462"><ele>61.0</ele><time>2026-04-09T10:04:15.999Z</time></trkpt><trkpt lat="43.85249919514378" lon="11.171285045645346"><ele>60.5</ele><time>2026-04-09T10:04:16.999Z</time></trkpt><trkpt lat="43.85247711497218" lon="11.171124312949672"><ele>60.0</ele><time>2026-04-09T10:04:17.999Z</time></trkpt><trkpt lat="43.852452866819426" lon="11.170958496889124"><ele>60.0</ele><time>2026-04-09T10:04:18.999Z</time></trkpt><trkpt lat="43.852422960304835" lon="11.170789243553445"><ele>60.0</ele><time>2026-04-09T10:04:19.999Z</time></trkpt><trkpt lat="43.8523915474679" lon="11.170611477301193"><ele>60.0</ele><time>2026-04-09T10:04:20.999Z</time></trkpt><trkpt lat="43.85236495271445" lon="11.170411937545985"><ele>60.0</ele><time>2026-04-09T10:04:21.999Z</time></trkpt><trkpt lat="43.85234070556655" lon="11.170223371700713"><ele>59.5</ele><time>2026-04-09T10:04:22.999Z</time></trkpt><trkpt lat="43.85233616520009" lon="11.170039121313792"><ele>59.0</ele><time>2026-04-09T10:04:23.999Z</time></trkpt><trkpt lat="43.85232049834315" lon="11.169870565754245"><ele>58.5</ele><time>2026-04-09T10:04:24.999Z</time></trkpt><trkpt lat="43.852307449935125" lon="11.1697174742585"><ele>58.0</ele><time>2026-04-09T10:04:25.999Z</time></trkpt><trkpt lat="43.852291496305575" lon="11.169574979126041"><ele>58.0</ele><time>2026-04-09T10:04:26.999Z</time></trkpt><trkpt lat="43.85227407266344" lon="11.169446234924878"><ele>58.0</ele><time>2026-04-09T10:04:27.999Z</time></trkpt><trkpt lat="43.852256302683124" lon="11.169328668418109"><ele>58.0</ele><time>2026-04-09T10:04:28.999Z</time></trkpt><trkpt lat="43.852241138317545" lon="11.169231691816412"><ele>58.0</ele><time>2026-04-09T10:04:29.999Z</time></trkpt><trkpt lat="43.85221601463597" lon="11.169088568577072"><ele>58.0</ele><time>2026-04-09T10:04:31.999Z</time></trkpt><trkpt lat="43.85219197612082" lon="11.168965812594037"><ele>57.8</ele><time>2026-04-09T10:05:16Z</time></trkpt><trkpt lat="43.852153354536156" lon="11.168853265310178"><ele>57.599999999999994</ele><time>2026-04-09T10:05:18Z</time></trkpt><trkpt lat="43.85214038347029" lon="11.168751666531497"><ele>57.400000000000006</ele><time>2026-04-09T10:05:19Z</time></trkpt><trkpt lat="43.85211032338883" lon="11.168629116902"><ele>57.2</ele><time>2026-04-09T10:05:20Z</time></trkpt><trkpt lat="43.85208166213937" lon="11.168490008087074"><ele>57.0</ele><time>2026-04-09T10:05:21Z</time></trkpt><trkpt lat="43.852057125366244" lon="11.16834129030919"><ele>57.0</ele><time>2026-04-09T10:05:22Z</time></trkpt><trkpt lat="43.85202967617047" lon="11.168178839500191"><ele>57.0</ele><time>2026-04-09T10:05:23Z</time></trkpt><trkpt lat="43.851978320260145" lon="11.168045994480988"><ele>57.0</ele><time>2026-04-09T10:05:24Z</time></trkpt><trkpt lat="43.85198613778842" lon="11.167911951501932"><ele>57.0</ele><time>2026-04-09T10:05:25Z</time></trkpt><trkpt lat="43.85194728758567" lon="11.16783347558114"><ele>57.0</ele><time>2026-04-09T10:05:26Z</time></trkpt><trkpt lat="43.851921138344174" lon="11.167734534152366"><ele>57.0</ele><time>2026-04-09T10:05:28Z</time></trkpt><trkpt lat="43.8518990918883" lon="11.167592497489007"><ele>57.0</ele><time>2026-04-09T10:06:05Z</time></trkpt><trkpt lat="43.85185005865229" lon="11.16742117257313"><ele>57.0</ele><time>2026-04-09T10:06:07Z</time></trkpt><trkpt lat="43.8518138397173" lon="11.167302264009383"><ele>57.0</ele><time>2026-04-09T10:06:08Z</time></trkpt><trkpt lat="43.85178549488296" lon="11.167200719894726"><ele>57.0</ele><time>2026-04-09T10:06:09Z</time></trkpt><trkpt lat="43.851763379764314" lon="11.167115822369182"><ele>57.0</ele><time>2026-04-09T10:06:10Z</time></trkpt><trkpt lat="43.85172310995229" lon="11.16696142636106"><ele>57.0</ele><time>2026-04-09T10:06:12Z</time></trkpt><trkpt lat="43.851690982432466" lon="11.166877859791576"><ele>57.0</ele><time>2026-04-09T10:06:13Z</time></trkpt><trkpt lat="43.85164933636971" lon="11.16679140289468"><ele>57.0</ele><time>2026-04-09T10:06:14Z</time></trkpt><trkpt lat="43.85156617847213" lon="11.166636196785534"><ele>57.0</ele><time>2026-04-09T10:06:16Z</time></trkpt><trkpt lat="43.85150630833774" lon="11.1665333432457"><ele>56.666666666666664</ele><time>2026-04-09T10:06:18Z</time></trkpt><trkpt lat="43.85146591360891" lon="11.166442681786503"><ele>56.33333333333333</ele><time>2026-04-09T10:06:21Z</time></trkpt><trkpt lat="43.851441527758446" lon="11.16634567693929"><ele>56.0</ele><time>2026-04-09T10:06:25Z</time></trkpt><trkpt lat="43.85144824746427" lon="11.16621266071254"><ele>55.666666666666664</ele><time>2026-04-09T10:06:29.999Z</time></trkpt><trkpt lat="43.85149482006954" lon="11.166056115254355"><ele>55.33333333333333</ele><time>2026-04-09T10:06:31.999Z</time></trkpt><trkpt lat="43.85151812833017" lon="11.165968540793006"><ele>55.0</ele><time>2026-04-09T10:06:32.999Z</time></trkpt><trkpt lat="43.85154223243891" lon="11.165875898794624"><ele>54.99999999999999</ele><time>2026-04-09T10:06:33.999Z</time></trkpt><trkpt lat="43.85156761336213" lon="11.165790203630603"><ele>55.0</ele><time>2026-04-09T10:06:34.999Z</time></trkpt><trkpt lat="43.85161259109142" lon="11.165652828667065"><ele>55.0</ele><time>2026-04-09T10:06:36.999Z</time></trkpt><trkpt lat="43.85165043527594" lon="11.165566445645545"><ele>55.0</ele><time>2026-04-09T10:06:37.999Z</time></trkpt><trkpt lat="43.85166252933651" lon="11.165460148819346"><ele>54.99999999999999</ele><time>2026-04-09T10:06:38.999Z</time></trkpt><trkpt lat="43.851731979776424" lon="11.165353454898938"><ele>55.0</ele><time>2026-04-09T10:06:39.999Z</time></trkpt><trkpt lat="43.85178335335001" lon="11.165231031329045"><ele>54.83333333333333</ele><time>2026-04-09T10:06:40.999Z</time></trkpt><trkpt lat="43.85182519552877" lon="11.165120264210739"><ele>54.666666666666664</ele><time>2026-04-09T10:06:41.999Z</time></trkpt><trkpt lat="43.85186455542682" lon="11.165022599271603"><ele>54.5</ele><time>2026-04-09T10:06:42.999Z</time></trkpt><trkpt lat="43.85189844860589" lon="11.164931803900878"><ele>54.33333333333333</ele><time>2026-04-09T10:06:43.999Z</time></trkpt><trkpt lat="43.85193533938764" lon="11.164835238989268"><ele>54.166666666666664</ele><time>2026-04-09T10:06:44.999Z</time></trkpt><trkpt lat="43.85197820734084" lon="11.164739500661994"><ele>54.0</ele><time>2026-04-09T10:06:45.999Z</time></trkpt><trkpt lat="43.85202069997144" lon="11.164634876333029"><ele>54.0</ele><time>2026-04-09T10:06:46.999Z</time></trkpt><trkpt lat="43.8520652753027" lon="11.16453441386663"><ele>54.0</ele><time>2026-04-09T10:06:47.999Z</time></trkpt><trkpt lat="43.85210540976013" lon="11.164448522140962"><ele>54.0</ele><time>2026-04-09T10:06:48.999Z</time></trkpt><trkpt lat="43.852143556177325" lon="11.16436621092137"><ele>54.0</ele><time>2026-04-09T10:06:49.999Z</time></trkpt><trkpt lat="43.85220134678688" lon="11.164288051021066"><ele>54.0</ele><time>2026-04-09T10:06:50.999Z</time></trkpt><trkpt lat="43.85226013775642" lon="11.164220589335093"><ele>54.0</ele><time>2026-04-09T10:06:51.999Z</time></trkpt><trkpt lat="43.8523210392553" lon="11.164186243858119"><ele>54.0</ele><time>2026-04-09T10:06:52.999Z</time></trkpt><trkpt lat="43.8523874425544" lon="11.164157257425238"><ele>54.0</ele><time>2026-04-09T10:06:53.999Z</time></trkpt><trkpt lat="43.85246671546194" lon="11.164175938427478"><ele>54.0</ele><time>2026-04-09T10:06:54.999Z</time></trkpt><trkpt lat="43.85258145226707" lon="11.164087112752616"><ele>54.0</ele><time>2026-04-09T10:06:56.999Z</time></trkpt><trkpt lat="43.852626528971605" lon="11.164017155531056"><ele>54.0</ele><time>2026-04-09T10:06:57.999Z</time></trkpt><trkpt lat="43.852661380675436" lon="11.16393247504005"><ele>54.0</ele><time>2026-04-09T10:06:58.999Z</time></trkpt><trkpt lat="43.8526835476671" lon="11.163838585800082"><ele>53.833333333333336</ele><time>2026-04-09T10:06:59.999Z</time></trkpt><trkpt lat="43.85270626650502" lon="11.163748331529781"><ele>53.66666666666667</ele><time>2026-04-09T10:07:01Z</time></trkpt><trkpt lat="43.85272728113877" lon="11.163644879626732"><ele>53.5</ele><time>2026-04-09T10:07:02Z</time></trkpt><trkpt lat="43.85274614921718" lon="11.163535160180176"><ele>53.333333333333336</ele><time>2026-04-09T10:07:03Z</time></trkpt><trkpt lat="43.852770199483345" lon="11.163446259088483"><ele>53.16666666666667</ele><time>2026-04-09T10:07:04Z</time></trkpt><trkpt lat="43.852784938905664" lon="11.163355752774235"><ele>53.0</ele><time>2026-04-09T10:07:05Z</time></trkpt><trkpt lat="43.85282707025612" lon="11.16320898792995"><ele>53.0</ele><time>2026-04-09T10:07:07Z</time></trkpt><trkpt lat="43.85274088403175" lon="11.163109978938644"><ele>53.0</ele><time>2026-04-09T10:07:08Z</time></trkpt><trkpt lat="43.85263603946525" lon="11.163038319573603"><ele>53.0</ele><time>2026-04-09T10:07:10Z</time></trkpt><trkpt lat="43.85257466981607" lon="11.163001132433232"><ele>53.0</ele><time>2026-04-09T10:07:11Z</time></trkpt><trkpt lat="43.85249435847358" lon="11.163064887284527"><ele>53.0</ele><time>2026-04-09T10:07:12Z</time></trkpt><trkpt lat="43.85243203161615" lon="11.163141311915775"><ele>52.8</ele><time>2026-04-09T10:07:13Z</time></trkpt><trkpt lat="43.85238005568271" lon="11.163264631567072"><ele>52.599999999999994</ele><time>2026-04-09T10:07:14Z</time></trkpt><trkpt lat="43.852334342949575" lon="11.163389261010442"><ele>52.400000000000006</ele><time>2026-04-09T10:07:15Z</time></trkpt><trkpt lat="43.852285609680884" lon="11.16352841569351"><ele>52.2</ele><time>2026-04-09T10:07:16Z</time></trkpt><trkpt lat="43.85224058756257" lon="11.163650203910892"><ele>52.0</ele><time>2026-04-09T10:07:17Z</time></trkpt><trkpt lat="43.85219612539326" lon="11.163766922743257"><ele>51.99999999999999</ele><time>2026-04-09T10:07:18Z</time></trkpt><trkpt lat="43.852154349745575" lon="11.163877530714336"><ele>52.0</ele><time>2026-04-09T10:07:19Z</time></trkpt><trkpt lat="43.8521152538591" lon="11.163978934023186"><ele>52.0</ele><time>2026-04-09T10:07:20Z</time></trkpt><trkpt lat="43.85207720045651" lon="11.164085267673368"><ele>52.0</ele><time>2026-04-09T10:07:21Z</time></trkpt><trkpt lat="43.85203802321597" lon="11.164198349551944"><ele>51.99999999999999</ele><time>2026-04-09T10:07:22Z</time></trkpt><trkpt lat="43.85199631280416" lon="11.164317509185711"><ele>52.0</ele><time>2026-04-09T10:07:23Z</time></trkpt><trkpt lat="43.85195175653156" lon="11.164448970847197"><ele>52.0</ele><time>2026-04-09T10:07:24Z</time></trkpt><trkpt lat="43.85189956425989" lon="11.164589509067898"><ele>52.0</ele><time>2026-04-09T10:07:25Z</time></trkpt><trkpt lat="43.851853580280626" lon="11.16471638470948"><ele>52.0</ele><time>2026-04-09T10:07:26Z</time></trkpt><trkpt lat="43.85182177089605" lon="11.164810352232642"><ele>52.0</ele><time>2026-04-09T10:07:27Z</time></trkpt><trkpt lat="43.85179741384086" lon="11.164892214660808"><ele>52.0</ele><time>2026-04-09T10:07:28Z</time></trkpt><trkpt lat="43.851721139823205" lon="11.165050945915247"><ele>51.99999999999999</ele><time>2026-04-09T10:07:30Z</time></trkpt><trkpt lat="43.85165122653812" lon="11.165125469014315"><ele>52.0</ele><time>2026-04-09T10:07:31Z</time></trkpt><trkpt lat="43.851587441656974" lon="11.165154015967971"><ele>52.0</ele><time>2026-04-09T10:07:32Z</time></trkpt><trkpt lat="43.85152485676548" lon="11.165163715180293"><ele>52.0</ele><time>2026-04-09T10:07:33Z</time></trkpt><trkpt lat="43.85145138564294" lon="11.165170107571944"><ele>51.99999999999999</ele><time>2026-04-09T10:07:34Z</time></trkpt><trkpt lat="43.8513776912329" lon="11.165205032369874"><ele>52.0</ele><time>2026-04-09T10:07:35Z</time></trkpt><trkpt lat="43.85131569303826" lon="11.16527501005148"><ele>51.99999999999999</ele><time>2026-04-09T10:07:36Z</time></trkpt><trkpt lat="43.851270149264685" lon="11.165356775361644"><ele>52.0</ele><time>2026-04-09T10:07:37Z</time></trkpt><trkpt lat="43.85123480249627" lon="11.165465743614217"><ele>52.0</ele><time>2026-04-09T10:07:38Z</time></trkpt><trkpt lat="43.85120099113509" lon="11.165587084137618"><ele>52.0</ele><time>2026-04-09T10:07:39Z</time></trkpt><trkpt lat="43.851165322431854" lon="11.165697333950328"><ele>51.99999999999999</ele><time>2026-04-09T10:07:40Z</time></trkpt><trkpt lat="43.85113616218446" lon="11.165791854193277"><ele>52.0</ele><time>2026-04-09T10:07:41Z</time></trkpt><trkpt lat="43.85110423304255" lon="11.165884384559758"><ele>52.49999999999999</ele><time>2026-04-09T10:07:42Z</time></trkpt><trkpt lat="43.85107420070259" lon="11.165967598057001"><ele>53.0</ele><time>2026-04-09T10:07:43Z</time></trkpt><trkpt lat="43.851044431219556" lon="11.166051196854516"><ele>53.5</ele><time>2026-04-09T10:07:44Z</time></trkpt><trkpt lat="43.85101799550768" lon="11.166132669237069"><ele>54.0</ele><time>2026-04-09T10:07:45Z</time></trkpt><trkpt lat="43.85099601983666" lon="11.166254502161435"><ele>54.49999999999999</ele><time>2026-04-09T10:07:47Z</time></trkpt><trkpt lat="43.85102632500174" lon="11.166388265888035"><ele>55.0</ele><time>2026-04-09T10:07:49Z</time></trkpt><trkpt lat="43.85110131432049" lon="11.16642967774824"><ele>55.0</ele><time>2026-04-09T10:07:50Z</time></trkpt><trkpt lat="43.85122140522266" lon="11.166477024661248"><ele>55.0</ele><time>2026-04-09T10:07:52Z</time></trkpt><trkpt lat="43.85128328217789" lon="11.166438445970382"><ele>55.0</ele><time>2026-04-09T10:07:53Z</time></trkpt><trkpt lat="43.85133675020296" lon="11.166376883287793"><ele>55.0</ele><time>2026-04-09T10:07:54Z</time></trkpt><trkpt lat="43.85137829524459" lon="11.166249733855716"><ele>55.0</ele><time>2026-04-09T10:07:55Z</time></trkpt><trkpt lat="43.85142595190777" lon="11.166118756892523"><ele>55.0</ele><time>2026-04-09T10:07:56Z</time></trkpt><trkpt lat="43.851469604271685" lon="11.165991011350435"><ele>55.0</ele><time>2026-04-09T10:07:57Z</time></trkpt><trkpt lat="43.85151657464008" lon="11.165851326945075"><ele>55.0</ele><time>2026-04-09T10:07:58Z</time></trkpt><trkpt lat="43.85155273125562" lon="11.165708394756873"><ele>55.0</ele><time>2026-04-09T10:07:59Z</time></trkpt><trkpt lat="43.85160878479708" lon="11.165582122893388"><ele>55.0</ele><time>2026-04-09T10:08:00Z</time></trkpt><trkpt lat="43.85165553448074" lon="11.165461922727086"><ele>54.8</ele><time>2026-04-09T10:08:01Z</time></trkpt><trkpt lat="43.851700546993754" lon="11.165360934099903"><ele>54.6</ele><time>2026-04-09T10:08:02Z</time></trkpt><trkpt lat="43.851749492012125" lon="11.165290311367361"><ele>54.400000000000006</ele><time>2026-04-09T10:08:03Z</time></trkpt><trkpt lat="43.85185275923714" lon="11.16521780029139"><ele>54.2</ele><time>2026-04-09T10:08:05Z</time></trkpt><trkpt lat="43.85196630818326" lon="11.165254236960886"><ele>54.0</ele><time>2026-04-09T10:08:07Z</time></trkpt><trkpt lat="43.85204051918343" lon="11.165316659963047"><ele>54.0</ele><time>2026-04-09T10:08:08Z</time></trkpt><trkpt lat="43.85210609778035" lon="11.165386578175081"><ele>54.0</ele><time>2026-04-09T10:08:09Z</time></trkpt><trkpt lat="43.85217870255545" lon="11.165460043275202"><ele>54.0</ele><time>2026-04-09T10:08:10Z</time></trkpt><trkpt lat="43.85224665484402" lon="11.16551780482166"><ele>54.0</ele><time>2026-04-09T10:08:11Z</time></trkpt><trkpt lat="43.852311662840584" lon="11.165578822184184"><ele>54.0</ele><time>2026-04-09T10:08:12Z</time></trkpt><trkpt lat="43.852377552444004" lon="11.165639534107202"><ele>54.0</ele><time>2026-04-09T10:08:13Z</time></trkpt><trkpt lat="43.852444590554704" lon="11.165695976659112"><ele>54.2</ele><time>2026-04-09T10:08:14Z</time></trkpt><trkpt lat="43.85251685611519" lon="11.165759082105602"><ele>54.400000000000006</ele><time>2026-04-09T10:08:15Z</time></trkpt><trkpt lat="43.852594336081495" lon="11.165824655782808"><ele>54.6</ele><time>2026-04-09T10:08:16Z</time></trkpt><trkpt lat="43.85267441631033" lon="11.165896754588386"><ele>54.8</ele><time>2026-04-09T10:08:17Z</time></trkpt><trkpt lat="43.852760378918994" lon="11.165970728977353"><ele>55.0</ele><time>2026-04-09T10:08:18Z</time></trkpt><trkpt lat="43.85283739729119" lon="11.166036568588545"><ele>55.0</ele><time>2026-04-09T10:08:19Z</time></trkpt><trkpt lat="43.85290563336809" lon="11.166101052592463"><ele>55.0</ele><time>2026-04-09T10:08:20Z</time></trkpt><trkpt lat="43.85297774403708" lon="11.166166346031611"><ele>55.0</ele><time>2026-04-09T10:08:21Z</time></trkpt><trkpt lat="43.85305538034541" lon="11.166232065572377"><ele>55.0</ele><time>2026-04-09T10:08:22Z</time></trkpt><trkpt lat="43.85313608165677" lon="11.166304059593315"><ele>55.0</ele><time>2026-04-09T10:08:23Z</time></trkpt><trkpt lat="43.85322155358999" lon="11.166377872010894"><ele>55.0</ele><time>2026-04-09T10:08:24Z</time></trkpt><trkpt lat="43.85329658819144" lon="11.16644769562359"><ele>55.0</ele><time>2026-04-09T10:08:25Z</time></trkpt><trkpt lat="43.85337071113435" lon="11.166513448517701"><ele>55.0</ele><time>2026-04-09T10:08:26Z</time></trkpt><trkpt lat="43.853446637628885" lon="11.166586525150223"><ele>55.0</ele><time>2026-04-09T10:08:27Z</time></trkpt><trkpt lat="43.85352770819584" lon="11.166662766247153"><ele>55.0</ele><time>2026-04-09T10:08:28Z</time></trkpt><trkpt lat="43.85361387112201" lon="11.1667338851288"><ele>55.33333333333333</ele><time>2026-04-09T10:08:29Z</time></trkpt><trkpt lat="43.85369115872529" lon="11.166794006038863"><ele>55.666666666666664</ele><time>2026-04-09T10:08:30Z</time></trkpt><trkpt lat="43.85376085904938" lon="11.166853064532424"><ele>56.0</ele><time>2026-04-09T10:08:31Z</time></trkpt><trkpt lat="43.853830633029744" lon="11.166907058188038"><ele>56.33333333333333</ele><time>2026-04-09T10:08:32Z</time></trkpt><trkpt lat="43.853905895388806" lon="11.166973548658685"><ele>56.666666666666664</ele><time>2026-04-09T10:08:33Z</time></trkpt><trkpt lat="43.85398455710519" lon="11.167056809720965"><ele>57.0</ele><time>2026-04-09T10:08:34Z</time></trkpt><trkpt lat="43.85405148463823" lon="11.167121650852017"><ele>57.0</ele><time>2026-04-09T10:08:35Z</time></trkpt><trkpt lat="43.85411108120976" lon="11.167173619551276"><ele>57.0</ele><time>2026-04-09T10:08:36Z</time></trkpt><trkpt lat="43.85416941625993" lon="11.167219116031113"><ele>57.0</ele><time>2026-04-09T10:08:37Z</time></trkpt><trkpt lat="43.85425311506698" lon="11.167309466169604"><ele>57.0</ele><time>2026-04-09T10:08:39Z</time></trkpt><trkpt lat="43.854222585744736" lon="11.167514063713245"><ele>57.0</ele><time>2026-04-09T10:08:41Z</time></trkpt><trkpt lat="43.85417128911821" lon="11.167610902784757"><ele>57.400000000000006</ele><time>2026-04-09T10:08:42Z</time></trkpt><trkpt lat="43.854119752964586" lon="11.16772241196665"><ele>57.800000000000004</ele><time>2026-04-09T10:08:43Z</time></trkpt><trkpt lat="43.85406012229271" lon="11.167851636337211"><ele>58.2</ele><time>2026-04-09T10:08:44Z</time></trkpt><trkpt lat="43.85401390605448" lon="11.167969779772147"><ele>58.6</ele><time>2026-04-09T10:08:44.999Z</time></trkpt><trkpt lat="43.85396576051824" lon="11.168084716413441"><ele>59.0</ele><time>2026-04-09T10:08:45.999Z</time></trkpt><trkpt lat="43.853914604306006" lon="11.168197452080754"><ele>59.6</ele><time>2026-04-09T10:08:46.999Z</time></trkpt><trkpt lat="43.853863487426864" lon="11.168309068244652"><ele>60.2</ele><time>2026-04-09T10:08:47.999Z</time></trkpt><trkpt lat="43.853816740365666" lon="11.168413213869623"><ele>60.800000000000004</ele><time>2026-04-09T10:08:48.999Z</time></trkpt><trkpt lat="43.853761871627974" lon="11.168525017852007"><ele>61.400000000000006</ele><time>2026-04-09T10:08:49.999Z</time></trkpt><trkpt lat="43.853701487960116" lon="11.168651464005828"><ele>62.0</ele><time>2026-04-09T10:08:50.999Z</time></trkpt><trkpt lat="43.853629771658284" lon="11.168801820530621"><ele>62.0</ele><time>2026-04-09T10:08:51.999Z</time></trkpt><trkpt lat="43.853537975282705" lon="11.168937325272013"><ele>62.0</ele><time>2026-04-09T10:08:52.999Z</time></trkpt><trkpt lat="43.853448754081505" lon="11.16915331262347"><ele>62.0</ele><time>2026-04-09T10:08:53.999Z</time></trkpt><trkpt lat="43.85337231333848" lon="11.169318517342179"><ele>61.75</ele><time>2026-04-09T10:08:54.999Z</time></trkpt><trkpt lat="43.85330793660652" lon="11.169470597369031"><ele>61.5</ele><time>2026-04-09T10:08:55.999Z</time></trkpt><trkpt lat="43.85324623405339" lon="11.169612111891519"><ele>61.25</ele><time>2026-04-09T10:08:56.999Z</time></trkpt><trkpt lat="43.85318523784995" lon="11.169745049369423"><ele>61.0</ele><time>2026-04-09T10:08:57.999Z</time></trkpt><trkpt lat="43.85312254762904" lon="11.169876791243636"><ele>60.8</ele><time>2026-04-09T10:08:58.999Z</time></trkpt><trkpt lat="43.85306241446228" lon="11.169992905667938"><ele>60.599999999999994</ele><time>2026-04-09T10:08:59.999Z</time></trkpt><trkpt lat="43.85302671853997" lon="11.17010623985041"><ele>60.4</ele><time>2026-04-09T10:09:00.999Z</time></trkpt><trkpt lat="43.85303012420283" lon="11.170253149127687"><ele>60.2</ele><time>2026-04-09T10:09:01.999Z</time></trkpt><trkpt lat="43.85304232471359" lon="11.170418166706405"><ele>60.0</ele><time>2026-04-09T10:09:02.999Z</time></trkpt><trkpt lat="43.85307289694395" lon="11.170598212019286"><ele>60.2</ele><time>2026-04-09T10:09:03.999Z</time></trkpt><trkpt lat="43.85310492721467" lon="11.170752718640864"><ele>60.4</ele><time>2026-04-09T10:09:04.999Z</time></trkpt><trkpt lat="43.85313424117734" lon="11.17089155260723"><ele>60.599999999999994</ele><time>2026-04-09T10:09:05.999Z</time></trkpt><trkpt lat="43.853180923888864" lon="11.171015867811395"><ele>60.8</ele><time>2026-04-09T10:09:07Z</time></trkpt><trkpt lat="43.85325290443866" lon="11.171130931405818"><ele>61.0</ele><time>2026-04-09T10:09:08Z</time></trkpt><trkpt lat="43.853338054217545" lon="11.17123559266943"><ele>60.99999999999999</ele><time>2026-04-09T10:09:09Z</time></trkpt><trkpt lat="43.85342006717471" lon="11.17130750940878"><ele>61.0</ele><time>2026-04-09T10:09:10Z</time></trkpt><trkpt lat="43.853485545441444" lon="11.171383974537768"><ele>61.0</ele><time>2026-04-09T10:09:11Z</time></trkpt><trkpt lat="43.85355245539714" lon="11.171459560036938"><ele>61.0</ele><time>2026-04-09T10:09:12Z</time></trkpt><trkpt lat="43.853572227178795" lon="11.17158889652215"><ele>60.99999999999999</ele><time>2026-04-09T10:09:13Z</time></trkpt><trkpt lat="43.853629121799564" lon="11.171648387265208"><ele>61.0</ele><time>2026-04-09T10:09:14Z</time></trkpt><trkpt lat="43.853705439461365" lon="11.171694953461994"><ele>61.25</ele><time>2026-04-09T10:09:15Z</time></trkpt><trkpt lat="43.85380717612795" lon="11.171710253285282"><ele>61.5</ele><time>2026-04-09T10:09:16Z</time></trkpt><trkpt lat="43.85391444184882" lon="11.171724786880299"><ele>61.75</ele><time>2026-04-09T10:09:17Z</time></trkpt><trkpt lat="43.85403484595277" lon="11.171780090281727"><ele>62.0</ele><time>2026-04-09T10:09:18Z</time></trkpt><trkpt lat="43.854151336193624" lon="11.171843428846756"><ele>62.0</ele><time>2026-04-09T10:09:19Z</time></trkpt><trkpt lat="43.854272895826234" lon="11.171890370993133"><ele>62.0</ele><time>2026-04-09T10:09:20Z</time></trkpt><trkpt lat="43.854409270603234" lon="11.171931463042464"><ele>62.0</ele><time>2026-04-09T10:09:21Z</time></trkpt><trkpt lat="43.85455587198463" lon="11.171993367972874"><ele>62.0</ele><time>2026-04-09T10:09:22Z</time></trkpt><trkpt lat="43.85469312404715" lon="11.172082843670342"><ele>62.5</ele><time>2026-04-09T10:09:23Z</time></trkpt><trkpt lat="43.85480666343418" lon="11.17219116196366"><ele>63.0</ele><time>2026-04-09T10:09:24Z</time></trkpt><trkpt lat="43.85493032489414" lon="11.172313589762977"><ele>63.5</ele><time>2026-04-09T10:09:25Z</time></trkpt><trkpt lat="43.855052385203074" lon="11.172445968105245"><ele>64.0</ele><time>2026-04-09T10:09:26Z</time></trkpt><trkpt lat="43.85517607303138" lon="11.172582622848408"><ele>64.33333333333333</ele><time>2026-04-09T10:09:27Z</time></trkpt><trkpt lat="43.85529788496406" lon="11.172722318090031"><ele>64.66666666666667</ele><time>2026-04-09T10:09:28Z</time></trkpt><trkpt lat="43.85541898036187" lon="11.172859417078998"><ele>65.0</ele><time>2026-04-09T10:09:29Z</time></trkpt><trkpt lat="43.855539764980946" lon="11.172998460514481"><ele>65.0</ele><time>2026-04-09T10:09:30Z</time></trkpt><trkpt lat="43.855666102046904" lon="11.173141738232138"><ele>65.0</ele><time>2026-04-09T10:09:31Z</time></trkpt><trkpt lat="43.85579370940567" lon="11.173285228128186"><ele>65.0</ele><time>2026-04-09T10:09:32Z</time></trkpt><trkpt lat="43.85592306412274" lon="11.173432054540303"><ele>66.0</ele><time>2026-04-09T10:09:33Z</time></trkpt><trkpt lat="43.85605831932211" lon="11.17358219754837"><ele>67.0</ele><time>2026-04-09T10:09:34Z</time></trkpt><trkpt lat="43.85619494526604" lon="11.173735883549199"><ele>68.0</ele><time>2026-04-09T10:09:35Z</time></trkpt><trkpt lat="43.85633353933229" lon="11.173894265826315"><ele>68.0</ele><time>2026-04-09T10:09:36Z</time></trkpt><trkpt lat="43.85646345442792" lon="11.174048192458589"><ele>68.0</ele><time>2026-04-09T10:09:37Z</time></trkpt><trkpt lat="43.85658408920759" lon="11.174189295341801"><ele>68.0</ele><time>2026-04-09T10:09:38Z</time></trkpt><trkpt lat="43.8566974008638" lon="11.174321626900188"><ele>68.5</ele><time>2026-04-09T10:09:39Z</time></trkpt><trkpt lat="43.8567989515222" lon="11.174439659479278"><ele>69.0</ele><time>2026-04-09T10:09:40Z</time></trkpt><trkpt lat="43.856905836246234" lon="11.174548838732488"><ele>69.5</ele><time>2026-04-09T10:09:41Z</time></trkpt><trkpt lat="43.85702255592819" lon="11.174636238760982"><ele>70.0</ele><time>2026-04-09T10:09:42Z</time></trkpt><trkpt lat="43.85714477768908" lon="11.174710737901552"><ele>70.0</ele><time>2026-04-09T10:09:43Z</time></trkpt><trkpt lat="43.857268959099265" lon="11.174776134640771"><ele>70.0</ele><time>2026-04-09T10:09:44Z</time></trkpt><trkpt lat="43.85738032691464" lon="11.174824102519628"><ele>70.0</ele><time>2026-04-09T10:09:45Z</time></trkpt><trkpt lat="43.8574882639179" lon="11.174869419584926"><ele>70.0</ele><time>2026-04-09T10:09:46Z</time></trkpt><trkpt lat="43.85760138385752" lon="11.17491885612713"><ele>70.75</ele><time>2026-04-09T10:09:47Z</time></trkpt><trkpt lat="43.85772064399577" lon="11.17497949119648"><ele>71.5</ele><time>2026-04-09T10:09:48Z</time></trkpt><trkpt lat="43.85783211798034" lon="11.175049797567178"><ele>72.25</ele><time>2026-04-09T10:09:49Z</time></trkpt><trkpt lat="43.85792535198128" lon="11.175124703766135"><ele>73.0</ele><time>2026-04-09T10:09:50Z</time></trkpt><trkpt lat="43.8580170548786" lon="11.175208856726217"><ele>73.0</ele><time>2026-04-09T10:09:51Z</time></trkpt><trkpt lat="43.85811405384875" lon="11.175307302409534"><ele>73.0</ele><time>2026-04-09T10:09:52Z</time></trkpt><trkpt lat="43.85820030408864" lon="11.175408518595429"><ele>73.0</ele><time>2026-04-09T10:09:53Z</time></trkpt><trkpt lat="43.85828065957722" lon="11.175499553320844"><ele>73.0</ele><time>2026-04-09T10:09:54Z</time></trkpt><trkpt lat="43.85836048931193" lon="11.175586635909442"><ele>73.0</ele><time>2026-04-09T10:09:55Z</time></trkpt><trkpt lat="43.85843335042404" lon="11.17566682629418"><ele>73.8</ele><time>2026-04-09T10:09:56Z</time></trkpt><trkpt lat="43.85849497139021" lon="11.175730182099421"><ele>74.6</ele><time>2026-04-09T10:09:57Z</time></trkpt><trkpt lat="43.85856781983479" lon="11.175806823730412"><ele>75.4</ele><time>2026-04-09T10:09:59Z</time></trkpt><trkpt lat="43.85863243666457" lon="11.175911321640012"><ele>76.2</ele><time>2026-04-09T10:10:01Z</time></trkpt><trkpt lat="43.85876738956599" lon="11.175951885466077"><ele>77.0</ele><time>2026-04-09T10:10:03Z</time></trkpt><trkpt lat="43.85886162267764" lon="11.17596245964267"><ele>77.0</ele><time>2026-04-09T10:10:04Z</time></trkpt><trkpt lat="43.858971140541556" lon="11.175966800815587"><ele>77.0</ele><time>2026-04-09T10:10:05Z</time></trkpt><trkpt lat="43.85909785840268" lon="11.175975788171941"><ele>77.0</ele><time>2026-04-09T10:10:06Z</time></trkpt><trkpt lat="43.859226021610944" lon="11.175986088237309"><ele>77.0</ele><time>2026-04-09T10:10:07Z</time></trkpt><trkpt lat="43.85934005352434" lon="11.175993301109884"><ele>77.4</ele><time>2026-04-09T10:10:08Z</time></trkpt><trkpt lat="43.859437162134924" lon="11.176003869243756"><ele>77.80000000000001</ele><time>2026-04-09T10:10:09Z</time></trkpt><trkpt lat="43.85952377927262" lon="11.176008463430993"><ele>78.2</ele><time>2026-04-09T10:10:10Z</time></trkpt><trkpt lat="43.85962029863572" lon="11.176019954165485"><ele>78.60000000000001</ele><time>2026-04-09T10:10:11Z</time></trkpt><trkpt lat="43.85972081528554" lon="11.176026197058"><ele>79.0</ele><time>2026-04-09T10:10:12Z</time></trkpt><trkpt lat="43.85980885633724" lon="11.176022209896734"><ele>79.0</ele><time>2026-04-09T10:10:13Z</time></trkpt><trkpt lat="43.85990454282264" lon="11.176013881792398"><ele>79.0</ele><time>2026-04-09T10:10:14Z</time></trkpt><trkpt lat="43.86000863458194" lon="11.176002879015362"><ele>79.0</ele><time>2026-04-09T10:10:15Z</time></trkpt><trkpt lat="43.86012111180338" lon="11.17599034013224"><ele>79.0</ele><time>2026-04-09T10:10:16Z</time></trkpt><trkpt lat="43.86023787162275" lon="11.17597051921413"><ele>79.0</ele><time>2026-04-09T10:10:17Z</time></trkpt><trkpt lat="43.860346681624534" lon="11.175953807834409"><ele>78.8</ele><time>2026-04-09T10:10:18Z</time></trkpt><trkpt lat="43.86044622910113" lon="11.175933773160732"><ele>78.60000000000001</ele><time>2026-04-09T10:10:19Z</time></trkpt><trkpt lat="43.860545257217055" lon="11.175915782682624"><ele>78.4</ele><time>2026-04-09T10:10:20Z</time></trkpt><trkpt lat="43.86065077030972" lon="11.175897495663982"><ele>78.2</ele><time>2026-04-09T10:10:21Z</time></trkpt><trkpt lat="43.86076091255084" lon="11.175877780860183"><ele>78.0</ele><time>2026-04-09T10:10:22Z</time></trkpt><trkpt lat="43.8608741507094" lon="11.17585909347059"><ele>77.8</ele><time>2026-04-09T10:10:23Z</time></trkpt><trkpt lat="43.860983381133366" lon="11.175840921822664"><ele>77.6</ele><time>2026-04-09T10:10:24Z</time></trkpt><trkpt lat="43.861086987695856" lon="11.175820485433972"><ele>77.4</ele><time>2026-04-09T10:10:25Z</time></trkpt><trkpt lat="43.86119054057634" lon="11.1758007935802"><ele>77.2</ele><time>2026-04-09T10:10:26Z</time></trkpt><trkpt lat="43.8612943526113" lon="11.175783455080442"><ele>77.0</ele><time>2026-04-09T10:10:27Z</time></trkpt><trkpt lat="43.86139705955082" lon="11.175772261842974"><ele>77.0</ele><time>2026-04-09T10:10:28Z</time></trkpt><trkpt lat="43.86148642473446" lon="11.175754219784793"><ele>77.0</ele><time>2026-04-09T10:10:29Z</time></trkpt><trkpt lat="43.86156617003397" lon="11.175711933051467"><ele>77.0</ele><time>2026-04-09T10:10:30Z</time></trkpt><trkpt lat="43.861650053444066" lon="11.175669645849649"><ele>77.0</ele><time>2026-04-09T10:10:31Z</time></trkpt><trkpt lat="43.861713416568854" lon="11.17558022020474"><ele>77.0</ele><time>2026-04-09T10:10:32Z</time></trkpt><trkpt lat="43.86177465351434" lon="11.175511427780384"><ele>77.0</ele><time>2026-04-09T10:10:33Z</time></trkpt><trkpt lat="43.861829931273526" lon="11.175460681633316"><ele>76.8</ele><time>2026-04-09T10:10:34Z</time></trkpt><trkpt lat="43.861912992832956" lon="11.175399763253766"><ele>76.6</ele><time>2026-04-09T10:10:36Z</time></trkpt><trkpt lat="43.86199768494383" lon="11.175350160121546"><ele>76.39999999999999</ele><time>2026-04-09T10:10:38Z</time></trkpt><trkpt lat="43.862075403762894" lon="11.175511991520308"><ele>76.2</ele><time>2026-04-09T10:10:39Z</time></trkpt><trkpt lat="43.862148117805276" lon="11.175593544298252"><ele>76.0</ele><time>2026-04-09T10:10:40Z</time></trkpt><trkpt lat="43.86223324204954" lon="11.175675781623168"><ele>76.33333333333333</ele><time>2026-04-09T10:10:41Z</time></trkpt><trkpt lat="43.862323244698395" lon="11.175753779654414"><ele>76.66666666666666</ele><time>2026-04-09T10:10:42Z</time></trkpt><trkpt lat="43.86240265134489" lon="11.175819684847173"><ele>77.0</ele><time>2026-04-09T10:10:43Z</time></trkpt><trkpt lat="43.86247043803271" lon="11.17588140630989"><ele>77.33333333333333</ele><time>2026-04-09T10:10:44Z</time></trkpt><trkpt lat="43.86253559394329" lon="11.175931658844847"><ele>77.66666666666667</ele><time>2026-04-09T10:10:45Z</time></trkpt><trkpt lat="43.86259778866732" lon="11.175978655323272"><ele>78.0</ele><time>2026-04-09T10:10:46Z</time></trkpt><trkpt lat="43.86265540459678" lon="11.176024344216222"><ele>78.14285714285715</ele><time>2026-04-09T10:10:47Z</time></trkpt><trkpt lat="43.862708657151984" lon="11.176089530582653"><ele>78.28571428571428</ele><time>2026-04-09T10:10:48Z</time></trkpt><trkpt lat="43.862751049485645" lon="11.176175487858854"><ele>78.42857142857143</ele><time>2026-04-09T10:10:49Z</time></trkpt><trkpt lat="43.8627959779281" lon="11.176253976687168"><ele>78.57142857142858</ele><time>2026-04-09T10:10:50Z</time></trkpt><trkpt lat="43.86285345322687" lon="11.1762924105741"><ele>78.71428571428572</ele><time>2026-04-09T10:10:51Z</time></trkpt><trkpt lat="43.862922522813285" lon="11.176313456212819"><ele>78.85714285714286</ele><time>2026-04-09T10:10:52Z</time></trkpt><trkpt lat="43.86299846152341" lon="11.176298332720576"><ele>79.0</ele><time>2026-04-09T10:10:53Z</time></trkpt><trkpt lat="43.863081009447875" lon="11.176260672034315"><ele>79.0</ele><time>2026-04-09T10:10:54Z</time></trkpt><trkpt lat="43.86316906134769" lon="11.176221664272095"><ele>79.0</ele><time>2026-04-09T10:10:55Z</time></trkpt><trkpt lat="43.86327443514238" lon="11.176210694702913"><ele>79.0</ele><time>2026-04-09T10:10:56Z</time></trkpt><trkpt lat="43.86338514073516" lon="11.17620360887267"><ele>79.0</ele><time>2026-04-09T10:10:57Z</time></trkpt><trkpt lat="43.86351420177241" lon="11.176176921606633"><ele>79.0</ele><time>2026-04-09T10:10:58Z</time></trkpt><trkpt lat="43.86365860366503" lon="11.176135523067805"><ele>79.75</ele><time>2026-04-09T10:10:59Z</time></trkpt><trkpt lat="43.86378712663131" lon="11.176086827534869"><ele>80.5</ele><time>2026-04-09T10:11:00Z</time></trkpt><trkpt lat="43.86392687773372" lon="11.176049115103043"><ele>81.25</ele><time>2026-04-09T10:11:01Z</time></trkpt><trkpt lat="43.86406606981675" lon="11.17598731847023"><ele>82.0</ele><time>2026-04-09T10:11:02Z</time></trkpt><trkpt lat="43.86420337210772" lon="11.175903180541052"><ele>83.0</ele><time>2026-04-09T10:11:03Z</time></trkpt><trkpt lat="43.86435134674021" lon="11.175860514580222"><ele>84.0</ele><time>2026-04-09T10:11:04Z</time></trkpt><trkpt lat="43.864496684515046" lon="11.175799199433495"><ele>85.0</ele><time>2026-04-09T10:11:05Z</time></trkpt><trkpt lat="43.86464391166316" lon="11.175736813275002"><ele>83.66666666666666</ele><time>2026-04-09T10:11:06Z</time></trkpt><trkpt lat="43.864791671557654" lon="11.175669936601727"><ele>82.33333333333333</ele><time>2026-04-09T10:11:07Z</time></trkpt><trkpt lat="43.8649434639464" lon="11.175597287095169"><ele>81.0</ele><time>2026-04-09T10:11:08Z</time></trkpt><trkpt lat="43.86510590272233" lon="11.175516977767591"><ele>82.0</ele><time>2026-04-09T10:11:09Z</time></trkpt><trkpt lat="43.86527286213972" lon="11.175434433501964"><ele>83.0</ele><time>2026-04-09T10:11:09.999Z</time></trkpt><trkpt lat="43.86542722314185" lon="11.175358117907598"><ele>84.0</ele><time>2026-04-09T10:11:10.999Z</time></trkpt><trkpt lat="43.865579751779215" lon="11.17528270814735"><ele>84.0</ele><time>2026-04-09T10:11:11.999Z</time></trkpt><trkpt lat="43.865719689062246" lon="11.17521247310284"><ele>84.0</ele><time>2026-04-09T10:11:13Z</time></trkpt><trkpt lat="43.865856948853164" lon="11.175143254960844"><ele>84.0</ele><time>2026-04-09T10:11:14Z</time></trkpt><trkpt lat="43.865991718189036" lon="11.175074193641375"><ele>84.0</ele><time>2026-04-09T10:11:15Z</time></trkpt><trkpt lat="43.8661287804877" lon="11.17499576191077"><ele>86.33333333333333</ele><time>2026-04-09T10:11:16Z</time></trkpt><trkpt lat="43.86627725802288" lon="11.174910706122418"><ele>88.66666666666666</ele><time>2026-04-09T10:11:17Z</time></trkpt><trkpt lat="43.86645020024449" lon="11.174811721894834"><ele>91.0</ele><time>2026-04-09T10:11:18Z</time></trkpt><trkpt lat="43.86663860094944" lon="11.174704049808375"><ele>96.75</ele><time>2026-04-09T10:11:19.016Z</time></trkpt><trkpt lat="43.86679076340677" lon="11.174617099742353"><ele>102.5</ele><time>2026-04-09T10:11:20.015Z</time></trkpt><trkpt lat="43.86691355335488" lon="11.17452436408761"><ele>108.25</ele><time>2026-04-09T10:11:21.017Z</time></trkpt><trkpt lat="43.86702468556893" lon="11.174468442857773"><ele>114.0</ele><time>2026-04-09T10:11:22.018Z</time></trkpt><trkpt lat="43.86711961617871" lon="11.174425964781792"><ele>114.0</ele><time>2026-04-09T10:11:23.022Z</time></trkpt><trkpt lat="43.867211347575974" lon="11.174387759081299"><ele>114.0</ele><time>2026-04-09T10:11:24.019Z</time></trkpt><trkpt lat="43.86893784606522" lon="11.173365409670401"><ele>107.5</ele><time>2026-04-09T10:11:28.193Z</time></trkpt><trkpt lat="43.869352007555726" lon="11.173125829920773"><ele>101.0</ele><time>2026-04-09T10:11:29.191Z</time></trkpt><trkpt lat="43.86975095957627" lon="11.172839798884757"><ele>101.0</ele><time>2026-04-09T10:11:30.19Z</time></trkpt><trkpt lat="43.8700994" lon="11.1725404"><ele>101.0</ele><time>2026-04-09T10:11:31.193Z</time></trkpt><trkpt lat="43.87053012386325" lon="11.172104626904401"><ele>97.5</ele><time>2026-04-09T10:11:45Z</time></trkpt><trkpt lat="43.8706524565569" lon="11.171969287863607"><ele>94.0</ele><time>2026-04-09T10:11:46Z</time></trkpt><trkpt lat="43.87076610894422" lon="11.171852523806763"><ele>90.5</ele><time>2026-04-09T10:11:47Z</time></trkpt><trkpt lat="43.870867138925945" lon="11.17172264536197"><ele>87.0</ele><time>2026-04-09T10:11:48Z</time></trkpt><trkpt lat="43.87097133899445" lon="11.171578522816507"><ele>85.0</ele><time>2026-04-09T10:11:49Z</time></trkpt><trkpt lat="43.871076463660806" lon="11.171428226915555"><ele>83.0</ele><time>2026-04-09T10:11:50Z</time></trkpt><trkpt lat="43.87115991277814" lon="11.171303853279513"><ele>81.0</ele><time>2026-04-09T10:11:51Z</time></trkpt><trkpt lat="43.87124381077579" lon="11.171175875513367"><ele>79.0</ele><time>2026-04-09T10:11:52Z</time></trkpt><trkpt lat="43.87130996582971" lon="11.171064924576362"><ele>79.0</ele><time>2026-04-09T10:11:53Z</time></trkpt><trkpt lat="43.87137101188282" lon="11.170964102698871"><ele>79.0</ele><time>2026-04-09T10:11:54Z</time></trkpt><trkpt lat="43.871425849276974" lon="11.17086486137755"><ele>79.0</ele><time>2026-04-09T10:11:55Z</time></trkpt><trkpt lat="43.87147665557022" lon="11.170787056828969"><ele>79.0</ele><time>2026-04-09T10:11:56Z</time></trkpt><trkpt lat="43.87152639654998" lon="11.17069300114478"><ele>79.0</ele><time>2026-04-09T10:11:57Z</time></trkpt><trkpt lat="43.871572146792616" lon="11.170607452525847"><ele>79.0</ele><time>2026-04-09T10:11:58Z</time></trkpt><trkpt lat="43.87161458909356" lon="11.17053246222903"><ele>79.0</ele><time>2026-04-09T10:11:59Z</time></trkpt><trkpt lat="43.8716525928348" lon="11.170450020106873"><ele>79.0</ele><time>2026-04-09T10:12:01Z</time></trkpt><trkpt lat="43.87170390675967" lon="11.170357002858255"><ele>79.0</ele><time>2026-04-09T10:12:03Z</time></trkpt><trkpt lat="43.87173912324372" lon="11.170276368111224"><ele>79.0</ele><time>2026-04-09T10:12:06Z</time></trkpt><trkpt lat="43.871764792355954" lon="11.17018141263611"><ele>79.0</ele><time>2026-04-09T10:12:08Z</time></trkpt><trkpt lat="43.871864502897445" lon="11.170133751260403"><ele>79.0</ele><time>2026-04-09T10:12:10Z</time></trkpt><trkpt lat="43.87193059428499" lon="11.170132186130813"><ele>77.8</ele><time>2026-04-09T10:12:11Z</time></trkpt><trkpt lat="43.871993998136816" lon="11.170115648813146"><ele>76.60000000000001</ele><time>2026-04-09T10:12:12Z</time></trkpt><trkpt lat="43.87206197059229" lon="11.170202925724235"><ele>75.4</ele><time>2026-04-09T10:12:13Z</time></trkpt><trkpt lat="43.872124138695895" lon="11.170277098774205"><ele>74.2</ele><time>2026-04-09T10:12:14Z</time></trkpt><trkpt lat="43.872187651330144" lon="11.170389990390714"><ele>73.0</ele><time>2026-04-09T10:12:15Z</time></trkpt><trkpt lat="43.87226107479723" lon="11.1705098943855"><ele>73.0</ele><time>2026-04-09T10:12:16Z</time></trkpt><trkpt lat="43.87232993910351" lon="11.170621430497274"><ele>73.0</ele><time>2026-04-09T10:12:17Z</time></trkpt><trkpt lat="43.87238876474659" lon="11.170727606497913"><ele>73.0</ele><time>2026-04-09T10:12:18Z</time></trkpt><trkpt lat="43.87247142681839" lon="11.170836369261881"><ele>73.0</ele><time>2026-04-09T10:12:19Z</time></trkpt><trkpt lat="43.87254104103364" lon="11.170956104919924"><ele>73.0</ele><time>2026-04-09T10:12:20Z</time></trkpt><trkpt lat="43.87261689959894" lon="11.171084693159898"><ele>73.25</ele><time>2026-04-09T10:12:21Z</time></trkpt><trkpt lat="43.872694292320354" lon="11.171207401986443"><ele>73.5</ele><time>2026-04-09T10:12:22Z</time></trkpt><trkpt lat="43.872781936245126" lon="11.171344158304564"><ele>73.75</ele><time>2026-04-09T10:12:23Z</time></trkpt><trkpt lat="43.87287277084384" lon="11.171489075503906"><ele>74.0</ele><time>2026-04-09T10:12:24Z</time></trkpt><trkpt lat="43.87295877853839" lon="11.171631688163433"><ele>74.25</ele><time>2026-04-09T10:12:25Z</time></trkpt><trkpt lat="43.873051467695724" lon="11.171774123584283"><ele>74.5</ele><time>2026-04-09T10:12:26Z</time></trkpt><trkpt lat="43.87314590191195" lon="11.171922390453643"><ele>74.75</ele><time>2026-04-09T10:12:27Z</time></trkpt><trkpt lat="43.873242432519625" lon="11.172071918174883"><ele>75.0</ele><time>2026-04-09T10:12:28Z</time></trkpt><trkpt lat="43.87333275901342" lon="11.172208544373161"><ele>75.0</ele><time>2026-04-09T10:12:29Z</time></trkpt><trkpt lat="43.87342950938524" lon="11.17233405314396"><ele>75.0</ele><time>2026-04-09T10:12:30Z</time></trkpt><trkpt lat="43.873538804383045" lon="11.172465649573407"><ele>75.0</ele><time>2026-04-09T10:12:31Z</time></trkpt><trkpt lat="43.873660324949" lon="11.172583284778144"><ele>75.0</ele><time>2026-04-09T10:12:32Z</time></trkpt><trkpt lat="43.87379311397592" lon="11.172691637529558"><ele>76.33333333333333</ele><time>2026-04-09T10:12:33Z</time></trkpt><trkpt lat="43.873933050305766" lon="11.172799844338133"><ele>77.66666666666666</ele><time>2026-04-09T10:12:34Z</time></trkpt><trkpt lat="43.87408147490097" lon="11.172906340692212"><ele>79.0</ele><time>2026-04-09T10:12:35Z</time></trkpt><trkpt lat="43.8742147644267" lon="11.173007068867186"><ele>78.5</ele><time>2026-04-09T10:12:36Z</time></trkpt><trkpt lat="43.87434277339556" lon="11.173096435840609"><ele>78.0</ele><time>2026-04-09T10:12:37Z</time></trkpt><trkpt lat="43.874468793896014" lon="11.173189022536244"><ele>77.5</ele><time>2026-04-09T10:12:38Z</time></trkpt><trkpt lat="43.87459303263012" lon="11.17328208504072"><ele>77.0</ele><time>2026-04-09T10:12:39Z</time></trkpt><trkpt lat="43.87471198337205" lon="11.173375140010554"><ele>77.25</ele><time>2026-04-09T10:12:40Z</time></trkpt><trkpt lat="43.8748208658723" lon="11.173457682078688"><ele>77.5</ele><time>2026-04-09T10:12:41Z</time></trkpt><trkpt lat="43.87492718405278" lon="11.1735513119921"><ele>77.75</ele><time>2026-04-09T10:12:42Z</time></trkpt><trkpt lat="43.87503673589367" lon="11.173646342130167"><ele>78.0</ele><time>2026-04-09T10:12:43Z</time></trkpt><trkpt lat="43.87514574665333" lon="11.173755227946952"><ele>78.0</ele><time>2026-04-09T10:12:44Z</time></trkpt><trkpt lat="43.875247304271284" lon="11.173865069038225"><ele>78.0</ele><time>2026-04-09T10:12:45Z</time></trkpt><trkpt lat="43.87535138483664" lon="11.173964786257422"><ele>78.0</ele><time>2026-04-09T10:12:46Z</time></trkpt><trkpt lat="43.87546077566516" lon="11.174073269768598"><ele>78.0</ele><time>2026-04-09T10:12:47Z</time></trkpt><trkpt lat="43.87556956221246" lon="11.174182570588343"><ele>78.5</ele><time>2026-04-09T10:12:48Z</time></trkpt><trkpt lat="43.875681500026" lon="11.174298426842354"><ele>79.0</ele><time>2026-04-09T10:12:49Z</time></trkpt><trkpt lat="43.875792588715406" lon="11.174407137885053"><ele>79.5</ele><time>2026-04-09T10:12:50Z</time></trkpt><trkpt lat="43.87589669787053" lon="11.174518584193759"><ele>80.0</ele><time>2026-04-09T10:12:51Z</time></trkpt><trkpt lat="43.876013057462266" lon="11.17460653440014"><ele>80.0</ele><time>2026-04-09T10:12:52Z</time></trkpt><trkpt lat="43.87611814052796" lon="11.174705983036024"><ele>80.0</ele><time>2026-04-09T10:12:53Z</time></trkpt><trkpt lat="43.876221532130906" lon="11.174799910663"><ele>80.0</ele><time>2026-04-09T10:12:54Z</time></trkpt><trkpt lat="43.87632431349865" lon="11.174889329879953"><ele>80.0</ele><time>2026-04-09T10:12:55Z</time></trkpt><trkpt lat="43.87644207762963" lon="11.174986307059115"><ele>80.33333333333334</ele><time>2026-04-09T10:12:56Z</time></trkpt><trkpt lat="43.876565661154714" lon="11.175079344231108"><ele>80.66666666666667</ele><time>2026-04-09T10:12:56.999Z</time></trkpt><trkpt lat="43.87668587731963" lon="11.175181088267331"><ele>81.0</ele><time>2026-04-09T10:12:57.999Z</time></trkpt><trkpt lat="43.876836550773724" lon="11.175294427644154"><ele>81.0</ele><time>2026-04-09T10:12:58.999Z</time></trkpt><trkpt lat="43.876948528489635" lon="11.175416272478664"><ele>81.0</ele><time>2026-04-09T10:12:59.999Z</time></trkpt><trkpt lat="43.87705727514192" lon="11.175514116219997"><ele>81.0</ele><time>2026-04-09T10:13:00.999Z</time></trkpt><trkpt lat="43.87716107095619" lon="11.17559862654853"><ele>81.0</ele><time>2026-04-09T10:13:01.999Z</time></trkpt><trkpt lat="43.877262646366574" lon="11.175680622694387"><ele>81.25</ele><time>2026-04-09T10:13:02.999Z</time></trkpt><trkpt lat="43.87735734607619" lon="11.1757803371165"><ele>81.5</ele><time>2026-04-09T10:13:03.999Z</time></trkpt><trkpt lat="43.877470361693" lon="11.17586820065458"><ele>81.75</ele><time>2026-04-09T10:13:04.999Z</time></trkpt><trkpt lat="43.87759537938643" lon="11.175970021510969"><ele>82.0</ele><time>2026-04-09T10:13:05.999Z</time></trkpt><trkpt lat="43.877707793047215" lon="11.176075051114626"><ele>82.0</ele><time>2026-04-09T10:13:06.999Z</time></trkpt><trkpt lat="43.877812985339496" lon="11.176165038817658"><ele>82.0</ele><time>2026-04-09T10:13:07.999Z</time></trkpt><trkpt lat="43.87791393395967" lon="11.176255648845467"><ele>82.0</ele><time>2026-04-09T10:13:08.999Z</time></trkpt><trkpt lat="43.878011446328834" lon="11.176356402614081"><ele>82.0</ele><time>2026-04-09T10:13:09.999Z</time></trkpt><trkpt lat="43.8781096279808" lon="11.17646433523692"><ele>81.5</ele><time>2026-04-09T10:13:10.999Z</time></trkpt><trkpt lat="43.878207532185456" lon="11.176579964376137"><ele>81.0</ele><time>2026-04-09T10:13:11.999Z</time></trkpt><trkpt lat="43.87829366407105" lon="11.176698165873782"><ele>80.5</ele><time>2026-04-09T10:13:12.999Z</time></trkpt><trkpt lat="43.8783750566191" lon="11.176806712115422"><ele>80.0</ele><time>2026-04-09T10:13:13.999Z</time></trkpt><trkpt lat="43.87846181853197" lon="11.176924174948347"><ele>80.0</ele><time>2026-04-09T10:13:14.999Z</time></trkpt><trkpt lat="43.878541698500726" lon="11.177035759431742"><ele>80.0</ele><time>2026-04-09T10:13:15.999Z</time></trkpt><trkpt lat="43.87863086450515" lon="11.177165446677177"><ele>80.0</ele><time>2026-04-09T10:13:16.999Z</time></trkpt><trkpt lat="43.87871897360494" lon="11.177301022043935"><ele>80.0</ele><time>2026-04-09T10:13:17.999Z</time></trkpt><trkpt lat="43.87881066989665" lon="11.177435945038226"><ele>81.0</ele><time>2026-04-09T10:13:19Z</time></trkpt><trkpt lat="43.87888266815099" lon="11.17755114164395"><ele>82.0</ele><time>2026-04-09T10:13:20Z</time></trkpt><trkpt lat="43.87895509689256" lon="11.177668305437534"><ele>83.0</ele><time>2026-04-09T10:13:21Z</time></trkpt><trkpt lat="43.87902950628015" lon="11.177784236798189"><ele>84.0</ele><time>2026-04-09T10:13:22Z</time></trkpt><trkpt lat="43.87910184968207" lon="11.17791658680109"><ele>84.0</ele><time>2026-04-09T10:13:23Z</time></trkpt><trkpt lat="43.87917726724575" lon="11.178053377773935"><ele>84.0</ele><time>2026-04-09T10:13:24Z</time></trkpt><trkpt lat="43.87926355769212" lon="11.178185529362732"><ele>84.0</ele><time>2026-04-09T10:13:25Z</time></trkpt><trkpt lat="43.87934346950211" lon="11.178332714867624"><ele>84.0</ele><time>2026-04-09T10:13:26Z</time></trkpt><trkpt lat="43.879411530738786" lon="11.178492705368264"><ele>83.5</ele><time>2026-04-09T10:13:27Z</time></trkpt><trkpt lat="43.87948745017371" lon="11.178645788366415"><ele>83.0</ele><time>2026-04-09T10:13:28Z</time></trkpt><trkpt lat="43.8795682890379" lon="11.17879934426864"><ele>82.5</ele><time>2026-04-09T10:13:29Z</time></trkpt><trkpt lat="43.87963883082951" lon="11.178979167184753"><ele>82.0</ele><time>2026-04-09T10:13:30Z</time></trkpt><trkpt lat="43.879720224740716" lon="11.179147631328332"><ele>83.66666666666666</ele><time>2026-04-09T10:13:31Z</time></trkpt><trkpt lat="43.87980782814589" lon="11.179323751315707"><ele>85.33333333333333</ele><time>2026-04-09T10:13:32Z</time></trkpt><trkpt lat="43.8798862251981" lon="11.179500482078279"><ele>87.0</ele><time>2026-04-09T10:13:33Z</time></trkpt><trkpt lat="43.879976958740365" lon="11.179678153984241"><ele>87.0</ele><time>2026-04-09T10:13:34Z</time></trkpt><trkpt lat="43.880079633010936" lon="11.17983942918984"><ele>87.0</ele><time>2026-04-09T10:13:35Z</time></trkpt><trkpt lat="43.88018616330459" lon="11.17998655387054"><ele>87.0</ele><time>2026-04-09T10:13:36Z</time></trkpt><trkpt lat="43.88028683676676" lon="11.180087536972675"><ele>87.0</ele><time>2026-04-09T10:13:37Z</time></trkpt><trkpt lat="43.88038650925722" lon="11.180187934185163"><ele>87.0</ele><time>2026-04-09T10:13:38Z</time></trkpt><trkpt lat="43.88048489804061" lon="11.180268785775272"><ele>87.0</ele><time>2026-04-09T10:13:39Z</time></trkpt><trkpt lat="43.88058725853784" lon="11.180342284423435"><ele>87.0</ele><time>2026-04-09T10:13:40Z</time></trkpt><trkpt lat="43.88069255982462" lon="11.180404480501693"><ele>87.0</ele><time>2026-04-09T10:13:41Z</time></trkpt><trkpt lat="43.880793265014276" lon="11.18045459007695"><ele>87.0</ele><time>2026-04-09T10:13:42Z</time></trkpt><trkpt lat="43.88088906823102" lon="11.18048724061667"><ele>87.0</ele><time>2026-04-09T10:13:43Z</time></trkpt><trkpt lat="43.88099017132192" lon="11.180513348556897"><ele>87.0</ele><time>2026-04-09T10:13:44Z</time></trkpt><trkpt lat="43.881097172907225" lon="11.180521372366735"><ele>87.0</ele><time>2026-04-09T10:13:45Z</time></trkpt><trkpt lat="43.88120439907021" lon="11.180529960152205"><ele>87.0</ele><time>2026-04-09T10:13:46Z</time></trkpt><trkpt lat="43.88129585410979" lon="11.180520003628795"><ele>87.16666666666667</ele><time>2026-04-09T10:13:47Z</time></trkpt><trkpt lat="43.88137596474793" lon="11.180497784399648"><ele>87.33333333333333</ele><time>2026-04-09T10:13:48Z</time></trkpt><trkpt lat="43.88144798098899" lon="11.18047939279122"><ele>87.5</ele><time>2026-04-09T10:13:49Z</time></trkpt><trkpt lat="43.881521401017466" lon="11.180461419653954"><ele>87.66666666666666</ele><time>2026-04-09T10:13:50Z</time></trkpt><trkpt lat="43.881596701001655" lon="11.18044756491915"><ele>87.83333333333333</ele><time>2026-04-09T10:13:51Z</time></trkpt><trkpt lat="43.88167101842763" lon="11.180468605356536"><ele>88.0</ele><time>2026-04-09T10:13:52Z</time></trkpt><trkpt lat="43.881750156339685" lon="11.180482022524409"><ele>88.5</ele><time>2026-04-09T10:13:53Z</time></trkpt><trkpt lat="43.88182115717508" lon="11.180461013305816"><ele>89.0</ele><time>2026-04-09T10:13:54Z</time></trkpt><trkpt lat="43.88188106744786" lon="11.18040788890181"><ele>89.5</ele><time>2026-04-09T10:13:55Z</time></trkpt><trkpt lat="43.88193253910153" lon="11.180353617282304"><ele>90.0</ele><time>2026-04-09T10:13:56Z</time></trkpt><trkpt lat="43.88199883593478" lon="11.180312361727378"><ele>90.5</ele><time>2026-04-09T10:13:57Z</time></trkpt><trkpt lat="43.882081755549166" lon="11.1803062693504"><ele>91.0</ele><time>2026-04-09T10:13:58Z</time></trkpt><trkpt lat="43.88216748204276" lon="11.180324171041415"><ele>91.0</ele><time>2026-04-09T10:13:59Z</time></trkpt><trkpt lat="43.882259836117356" lon="11.180345745971021"><ele>91.0</ele><time>2026-04-09T10:14:00Z</time></trkpt><trkpt lat="43.88235578850782" lon="11.180369728645221"><ele>91.0</ele><time>2026-04-09T10:14:01Z</time></trkpt><trkpt lat="43.88245268053813" lon="11.180396422420298"><ele>91.0</ele><time>2026-04-09T10:14:02Z</time></trkpt><trkpt lat="43.88254003016573" lon="11.18043294532205"><ele>91.0</ele><time>2026-04-09T10:14:03Z</time></trkpt><trkpt lat="43.88261399812474" lon="11.180470840951347"><ele>91.0</ele><time>2026-04-09T10:14:04Z</time></trkpt><trkpt lat="43.88267446113608" lon="11.180500705070965"><ele>91.0</ele><time>2026-04-09T10:14:05Z</time></trkpt><trkpt lat="43.88279014861154" lon="11.180551077930446"><ele>91.0</ele><time>2026-04-09T10:14:07Z</time></trkpt><trkpt lat="43.88285149632727" lon="11.180579242590044"><ele>91.0</ele><time>2026-04-09T10:14:08Z</time></trkpt><trkpt lat="43.882920810801686" lon="11.180614321639384"><ele>91.0</ele><time>2026-04-09T10:14:09Z</time></trkpt><trkpt lat="43.88299566585844" lon="11.180648839621202"><ele>91.0</ele><time>2026-04-09T10:14:10Z</time></trkpt><trkpt lat="43.88307769149207" lon="11.180690790169718"><ele>91.0</ele><time>2026-04-09T10:14:11Z</time></trkpt><trkpt lat="43.88315978109811" lon="11.180726623456058"><ele>91.0</ele><time>2026-04-09T10:14:12Z</time></trkpt><trkpt lat="43.88323422119123" lon="11.180763077009736"><ele>91.0</ele><time>2026-04-09T10:14:13Z</time></trkpt><trkpt lat="43.883294248084276" lon="11.180805506106053"><ele>91.0</ele><time>2026-04-09T10:14:14Z</time></trkpt><trkpt lat="43.883348567438816" lon="11.180873549937177"><ele>91.0</ele><time>2026-04-09T10:14:15Z</time></trkpt><trkpt lat="43.883405840088756" lon="11.180959743420287"><ele>91.0</ele><time>2026-04-09T10:14:16Z</time></trkpt><trkpt lat="43.88347927379778" lon="11.181025985249262"><ele>91.0</ele><time>2026-04-09T10:14:17Z</time></trkpt><trkpt lat="43.88355497541288" lon="11.181044635069808"><ele>91.0</ele><time>2026-04-09T10:14:18Z</time></trkpt><trkpt lat="43.88362688891341" lon="11.18101023913313"><ele>91.0</ele><time>2026-04-09T10:14:19Z</time></trkpt><trkpt lat="43.88370454273856" lon="11.18094939840974"><ele>91.0</ele><time>2026-04-09T10:14:20Z</time></trkpt><trkpt lat="43.88380897342195" lon="11.18091594155093"><ele>91.0</ele><time>2026-04-09T10:14:21Z</time></trkpt><trkpt lat="43.88392352356258" lon="11.180913679354939"><ele>91.0</ele><time>2026-04-09T10:14:22Z</time></trkpt><trkpt lat="43.88406815998506" lon="11.180924646089789"><ele>91.0</ele><time>2026-04-09T10:14:23Z</time></trkpt><trkpt lat="43.884237402339174" lon="11.180930420233047"><ele>91.0</ele><time>2026-04-09T10:14:24Z</time></trkpt><trkpt lat="43.88441648702684" lon="11.180949437776707"><ele>91.0</ele><time>2026-04-09T10:14:25Z</time></trkpt><trkpt lat="43.88458563892166" lon="11.18096746253754"><ele>91.0</ele><time>2026-04-09T10:14:26Z</time></trkpt><trkpt lat="43.8847236330772" lon="11.18098808668993"><ele>91.0</ele><time>2026-04-09T10:14:27Z</time></trkpt><trkpt lat="43.88485980027011" lon="11.18100703096959"><ele>91.0</ele><time>2026-04-09T10:14:28Z</time></trkpt><trkpt lat="43.884990286467925" lon="11.18103072833402"><ele>91.0</ele><time>2026-04-09T10:14:29Z</time></trkpt><trkpt lat="43.88512602432814" lon="11.181062131609417"><ele>91.0</ele><time>2026-04-09T10:14:30Z</time></trkpt><trkpt lat="43.88527061897536" lon="11.181106223080587"><ele>91.0</ele><time>2026-04-09T10:14:31Z</time></trkpt><trkpt lat="43.885421386155954" lon="11.181163010230051"><ele>91.0</ele><time>2026-04-09T10:14:32Z</time></trkpt><trkpt lat="43.88557715284896" lon="11.181226575978794"><ele>91.0</ele><time>2026-04-09T10:14:33Z</time></trkpt><trkpt lat="43.88572791316231" lon="11.181303276582755"><ele>91.0</ele><time>2026-04-09T10:14:34Z</time></trkpt><trkpt lat="43.88586211466318" lon="11.181383250752814"><ele>91.0</ele><time>2026-04-09T10:14:35Z</time></trkpt><trkpt lat="43.88599591774322" lon="11.181472224708447"><ele>92.0</ele><time>2026-04-09T10:14:36Z</time></trkpt><trkpt lat="43.88613976035325" lon="11.181574396395689"><ele>93.0</ele><time>2026-04-09T10:14:37Z</time></trkpt><trkpt lat="43.88629843359649" lon="11.181687933961113"><ele>94.0</ele><time>2026-04-09T10:14:38Z</time></trkpt><trkpt lat="43.88645303049471" lon="11.181795992363435"><ele>94.0</ele><time>2026-04-09T10:14:39Z</time></trkpt><trkpt lat="43.88658225997086" lon="11.181889039198527"><ele>94.0</ele><time>2026-04-09T10:14:40Z</time></trkpt><trkpt lat="43.886705575595414" lon="11.181966277023692"><ele>94.0</ele><time>2026-04-09T10:14:41Z</time></trkpt><trkpt lat="43.886836157784074" lon="11.182027124816438"><ele>94.0</ele><time>2026-04-09T10:14:42Z</time></trkpt><trkpt lat="43.886979579236396" lon="11.182074697013201"><ele>94.0</ele><time>2026-04-09T10:14:43Z</time></trkpt><trkpt lat="43.8871300722128" lon="11.182106435548569"><ele>94.0</ele><time>2026-04-09T10:14:44Z</time></trkpt><trkpt lat="43.887275179274226" lon="11.18213518331071"><ele>94.0</ele><time>2026-04-09T10:14:45Z</time></trkpt><trkpt lat="43.88741169376481" lon="11.182167512812343"><ele>94.0</ele><time>2026-04-09T10:14:46Z</time></trkpt><trkpt lat="43.88755219352031" lon="11.18219971681091"><ele>94.0</ele><time>2026-04-09T10:14:47Z</time></trkpt><trkpt lat="43.88769930893066" lon="11.182230219584568"><ele>94.0</ele><time>2026-04-09T10:14:48Z</time></trkpt><trkpt lat="43.88785103522711" lon="11.182263930912555"><ele>94.0</ele><time>2026-04-09T10:14:49Z</time></trkpt><trkpt lat="43.888009851933056" lon="11.182305251889069"><ele>96.0</ele><time>2026-04-09T10:14:50Z</time></trkpt><trkpt lat="43.88816213490709" lon="11.182350252536585"><ele>98.0</ele><time>2026-04-09T10:14:51Z</time></trkpt><trkpt lat="43.88829361897007" lon="11.182394525824813"><ele>100.0</ele><time>2026-04-09T10:14:52Z</time></trkpt><trkpt lat="43.88842451197745" lon="11.182422519185845"><ele>102.0</ele><time>2026-04-09T10:14:53Z</time></trkpt><trkpt lat="43.888578989103884" lon="11.182440969812035"><ele>102.33333333333334</ele><time>2026-04-09T10:14:54Z</time></trkpt><trkpt lat="43.88873298225632" lon="11.182460121957664"><ele>102.66666666666667</ele><time>2026-04-09T10:14:55Z</time></trkpt><trkpt lat="43.888898918239775" lon="11.182472924155269"><ele>103.0</ele><time>2026-04-09T10:14:56Z</time></trkpt><trkpt lat="43.889074049717735" lon="11.182495776439275"><ele>103.0</ele><time>2026-04-09T10:14:57Z</time></trkpt><trkpt lat="43.88923240813709" lon="11.182514271773774"><ele>103.0</ele><time>2026-04-09T10:14:58Z</time></trkpt><trkpt lat="43.88938618259733" lon="11.182525850469602"><ele>103.0</ele><time>2026-04-09T10:14:58.999Z</time></trkpt><trkpt lat="43.88954565330593" lon="11.182539912609293"><ele>102.33333333333334</ele><time>2026-04-09T10:14:59.999Z</time></trkpt><trkpt lat="43.889707672931216" lon="11.182553244391242"><ele>101.66666666666666</ele><time>2026-04-09T10:15:00.999Z</time></trkpt><trkpt lat="43.88987193308735" lon="11.18256894461267"><ele>101.0</ele><time>2026-04-09T10:15:01.999Z</time></trkpt><trkpt lat="43.890036195520864" lon="11.182585637215848"><ele>101.66666666666666</ele><time>2026-04-09T10:15:02.999Z</time></trkpt><trkpt lat="43.890199403309545" lon="11.182598789362418"><ele>102.33333333333334</ele><time>2026-04-09T10:15:03.999Z</time></trkpt><trkpt lat="43.89036409649498" lon="11.182620644464405"><ele>103.0</ele><time>2026-04-09T10:15:04.999Z</time></trkpt><trkpt lat="43.89051529071471" lon="11.182638887717916"><ele>103.0</ele><time>2026-04-09T10:15:05.999Z</time></trkpt><trkpt lat="43.89066095866806" lon="11.182658429156666"><ele>103.0</ele><time>2026-04-09T10:15:06.999Z</time></trkpt><trkpt lat="43.89080568576721" lon="11.182682417730442"><ele>103.0</ele><time>2026-04-09T10:15:07.999Z</time></trkpt><trkpt lat="43.89093884354334" lon="11.18271167214821"><ele>103.0</ele><time>2026-04-09T10:15:08.999Z</time></trkpt><trkpt lat="43.891083142567574" lon="11.182747245054506"><ele>103.25</ele><time>2026-04-09T10:15:09.999Z</time></trkpt><trkpt lat="43.89122152896816" lon="11.18279157413734"><ele>103.5</ele><time>2026-04-09T10:15:10.999Z</time></trkpt><trkpt lat="43.89134255036927" lon="11.182838005696695"><ele>103.75</ele><time>2026-04-09T10:15:11.999Z</time></trkpt><trkpt lat="43.89146393615061" lon="11.182889921615638"><ele>104.0</ele><time>2026-04-09T10:15:12.999Z</time></trkpt><trkpt lat="43.89157633738596" lon="11.18294142877973"><ele>104.0</ele><time>2026-04-09T10:15:13.999Z</time></trkpt><trkpt lat="43.891673276550364" lon="11.182990461516091"><ele>104.0</ele><time>2026-04-09T10:15:14.999Z</time></trkpt><trkpt lat="43.89175182511634" lon="11.18303202091454"><ele>104.0</ele><time>2026-04-09T10:15:15.999Z</time></trkpt><trkpt lat="43.891812295302785" lon="11.18306611312683"><ele>104.0</ele><time>2026-04-09T10:15:16.999Z</time></trkpt><trkpt lat="43.89190493011152" lon="11.183149728043565"><ele>104.0</ele><time>2026-04-09T10:15:18.999Z</time></trkpt><trkpt lat="43.89195525009154" lon="11.183291051313034"><ele>105.2</ele><time>2026-04-09T10:15:20.999Z</time></trkpt><trkpt lat="43.89202338259615" lon="11.18342612828081"><ele>106.4</ele><time>2026-04-09T10:15:22.999Z</time></trkpt><trkpt lat="43.89215092887915" lon="11.183463832428723"><ele>107.6</ele><time>2026-04-09T10:15:25Z</time></trkpt><trkpt lat="43.89223268240622" lon="11.183458976206117"><ele>108.8</ele><time>2026-04-09T10:15:26Z</time></trkpt><trkpt lat="43.89232325343456" lon="11.183475712837495"><ele>110.0</ele><time>2026-04-09T10:15:27Z</time></trkpt><trkpt lat="43.89242823668033" lon="11.183540491201088"><ele>110.0</ele><time>2026-04-09T10:15:28Z</time></trkpt><trkpt lat="43.89254534212894" lon="11.183647581118036"><ele>110.0</ele><time>2026-04-09T10:15:29Z</time></trkpt><trkpt lat="43.892664430058545" lon="11.183782524598156"><ele>110.0</ele><time>2026-04-09T10:15:30Z</time></trkpt><trkpt lat="43.892757175765304" lon="11.183914472079845"><ele>110.0</ele><time>2026-04-09T10:15:31Z</time></trkpt><trkpt lat="43.89286700267885" lon="11.184074973093603"><ele>110.33333333333333</ele><time>2026-04-09T10:15:32Z</time></trkpt><trkpt lat="43.89298368897641" lon="11.184249116553174"><ele>110.66666666666666</ele><time>2026-04-09T10:15:33Z</time></trkpt><trkpt lat="43.89308197153578" lon="11.184402275883116"><ele>111.0</ele><time>2026-04-09T10:15:34Z</time></trkpt><trkpt lat="43.89318144834752" lon="11.184553914076695"><ele>111.0</ele><time>2026-04-09T10:15:35Z</time></trkpt><trkpt lat="43.89328958619504" lon="11.184718985402075"><ele>111.0</ele><time>2026-04-09T10:15:36Z</time></trkpt><trkpt lat="43.89340515510438" lon="11.184895900749291"><ele>111.0</ele><time>2026-04-09T10:15:37Z</time></trkpt><trkpt lat="43.89353026594024" lon="11.185095106855607"><ele>112.0</ele><time>2026-04-09T10:15:38Z</time></trkpt><trkpt lat="43.893660797970156" lon="11.185298661772935"><ele>113.0</ele><time>2026-04-09T10:15:39Z</time></trkpt><trkpt lat="43.89379663503208" lon="11.185503854435478"><ele>114.0</ele><time>2026-04-09T10:15:40Z</time></trkpt><trkpt lat="43.89394299359993" lon="11.185724228029446"><ele>115.5</ele><time>2026-04-09T10:15:41Z</time></trkpt><trkpt lat="43.894100725321266" lon="11.185962225351588"><ele>117.0</ele><time>2026-04-09T10:15:42Z</time></trkpt><trkpt lat="43.89426753951384" lon="11.186217445893222"><ele>117.0</ele><time>2026-04-09T10:15:43Z</time></trkpt><trkpt lat="43.8941616392337" lon="11.186090175560272"><ele>117.0</ele><time>2026-04-09T10:15:44Z</time></trkpt><trkpt lat="43.8942766121974" lon="11.186269119067529"><ele>117.0</ele><time>2026-04-09T10:15:45Z</time></trkpt><trkpt lat="43.89439872005576" lon="11.186440446014961"><ele>120.66666666666666</ele><time>2026-04-09T10:15:46Z</time></trkpt><trkpt lat="43.89451390365864" lon="11.186593204134383"><ele>124.33333333333333</ele><time>2026-04-09T10:15:47Z</time></trkpt><trkpt lat="43.89462292936425" lon="11.186732378010063"><ele>128.0</ele><time>2026-04-09T10:15:48Z</time></trkpt><trkpt lat="43.89474718323106" lon="11.186874629331967"><ele>128.0</ele><time>2026-04-09T10:15:49Z</time></trkpt><trkpt lat="43.89487946680603" lon="11.187015329248323"><ele>128.0</ele><time>2026-04-09T10:15:50Z</time></trkpt><trkpt lat="43.89502633310958" lon="11.187153965015035"><ele>128.0</ele><time>2026-04-09T10:15:51Z</time></trkpt><trkpt lat="43.89518174174403" lon="11.187293726306237"><ele>128.0</ele><time>2026-04-09T10:15:52Z</time></trkpt><trkpt lat="43.895323695950914" lon="11.187414639723528"><ele>128.0</ele><time>2026-04-09T10:15:53Z</time></trkpt><trkpt lat="43.895460327652685" lon="11.187515874813801"><ele>128.0</ele><time>2026-04-09T10:15:54Z</time></trkpt><trkpt lat="43.89558974073069" lon="11.187602074008847"><ele>128.0</ele><time>2026-04-09T10:15:55Z</time></trkpt><trkpt lat="43.8957157198348" lon="11.18767304793255"><ele>128.0</ele><time>2026-04-09T10:15:56Z</time></trkpt><trkpt lat="43.89584217902419" lon="11.18773774137764"><ele>128.0</ele><time>2026-04-09T10:15:57Z</time></trkpt><trkpt lat="43.89595503935457" lon="11.187795698691367"><ele>128.0</ele><time>2026-04-09T10:15:58Z</time></trkpt><trkpt lat="43.89606823318451" lon="11.187844757118542"><ele>126.25</ele><time>2026-04-09T10:15:59Z</time></trkpt><trkpt lat="43.89619419860145" lon="11.187894216558098"><ele>124.5</ele><time>2026-04-09T10:16:00Z</time></trkpt><trkpt lat="43.89633575008823" lon="11.187951129987912"><ele>122.75</ele><time>2026-04-09T10:16:01Z</time></trkpt><trkpt lat="43.89649092509144" lon="11.188007893991541"><ele>121.0</ele><time>2026-04-09T10:16:02Z</time></trkpt><trkpt lat="43.896649945847194" lon="11.188055362690246"><ele>120.0</ele><time>2026-04-09T10:16:03Z</time></trkpt><trkpt lat="43.89680824557785" lon="11.188091491646594"><ele>119.0</ele><time>2026-04-09T10:16:04Z</time></trkpt><trkpt lat="43.89697173012458" lon="11.188130988684424"><ele>118.0</ele><time>2026-04-09T10:16:05Z</time></trkpt><trkpt lat="43.8971370426957" lon="11.188169062741139"><ele>119.66666666666667</ele><time>2026-04-09T10:16:06Z</time></trkpt><trkpt lat="43.89732229860943" lon="11.188212742907293"><ele>121.33333333333334</ele><time>2026-04-09T10:16:07Z</time></trkpt><trkpt lat="43.89749450884383" lon="11.188249402785035"><ele>123.0</ele><time>2026-04-09T10:16:08Z</time></trkpt><trkpt lat="43.89765914636636" lon="11.188288920685393"><ele>123.0</ele><time>2026-04-09T10:16:09Z</time></trkpt><trkpt lat="43.89781074510875" lon="11.18832494098183"><ele>123.0</ele><time>2026-04-09T10:16:10Z</time></trkpt><trkpt lat="43.897954643541304" lon="11.18833357103897"><ele>123.0</ele><time>2026-04-09T10:16:11Z</time></trkpt><trkpt lat="43.898089119461915" lon="11.18831342318488"><ele>123.0</ele><time>2026-04-09T10:16:12Z</time></trkpt><trkpt lat="43.89822837426664" lon="11.188310298382593"><ele>123.0</ele><time>2026-04-09T10:16:13Z</time></trkpt><trkpt lat="43.898357168499935" lon="11.18826982430298"><ele>123.0</ele><time>2026-04-09T10:16:14Z</time></trkpt><trkpt lat="43.898469794620254" lon="11.188215495981972"><ele>123.0</ele><time>2026-04-09T10:16:15Z</time></trkpt><trkpt lat="43.89857189010727" lon="11.188152080202576"><ele>123.0</ele><time>2026-04-09T10:16:16Z</time></trkpt><trkpt lat="43.89864879967033" lon="11.188080600410183"><ele>122.00000000000001</ele><time>2026-04-09T10:16:17Z</time></trkpt><trkpt lat="43.898730880961274" lon="11.188053402707007"><ele>121.0</ele><time>2026-04-09T10:16:18Z</time></trkpt><trkpt lat="43.89880361279556" lon="11.188067230224833"><ele>120.00000000000001</ele><time>2026-04-09T10:16:19Z</time></trkpt><trkpt lat="43.89886457869658" lon="11.188108842980146"><ele>119.00000000000001</ele><time>2026-04-09T10:16:20Z</time></trkpt><trkpt lat="43.8989304906156" lon="11.188097131528698"><ele>118.0</ele><time>2026-04-09T10:16:21Z</time></trkpt><trkpt lat="43.898999629813865" lon="11.188072317676781"><ele>117.00000000000001</ele><time>2026-04-09T10:16:22Z</time></trkpt><trkpt lat="43.899045543451734" lon="11.187980639348412"><ele>116.00000000000001</ele><time>2026-04-09T10:16:23Z</time></trkpt><trkpt lat="43.89911364743602" lon="11.187925579675973"><ele>116.0</ele><time>2026-04-09T10:16:24Z</time></trkpt><trkpt lat="43.89920740975554" lon="11.187919223035069"><ele>116.0</ele><time>2026-04-09T10:16:25Z</time></trkpt><trkpt lat="43.899303192939975" lon="11.187966283438977"><ele>116.0</ele><time>2026-04-09T10:16:26Z</time></trkpt><trkpt lat="43.89941535526864" lon="11.18805132726151"><ele>116.0</ele><time>2026-04-09T10:16:27Z</time></trkpt><trkpt lat="43.899534473535375" lon="11.188149582225408"><ele>117.33333333333333</ele><time>2026-04-09T10:16:28Z</time></trkpt><trkpt lat="43.899674312508985" lon="11.188271260501377"><ele>118.66666666666666</ele><time>2026-04-09T10:16:29Z</time></trkpt><trkpt lat="43.89982796117573" lon="11.188388724583893"><ele>120.0</ele><time>2026-04-09T10:16:30Z</time></trkpt><trkpt lat="43.8999761709296" lon="11.188508185742636"><ele>120.33333333333334</ele><time>2026-04-09T10:16:31Z</time></trkpt><trkpt lat="43.90012686818972" lon="11.18862333241156"><ele>120.66666666666667</ele><time>2026-04-09T10:16:32Z</time></trkpt><trkpt lat="43.900270518398095" lon="11.18873896412274"><ele>121.0</ele><time>2026-04-09T10:16:33Z</time></trkpt><trkpt lat="43.900397674385715" lon="11.18884394949718"><ele>121.0</ele><time>2026-04-09T10:16:34Z</time></trkpt><trkpt lat="43.90052902423716" lon="11.188933296361597"><ele>121.0</ele><time>2026-04-09T10:16:35Z</time></trkpt><trkpt lat="43.90068177658873" lon="11.188982165464585"><ele>121.0</ele><time>2026-04-09T10:16:36Z</time></trkpt><trkpt lat="43.900865996306216" lon="11.189016915362977"><ele>121.33333333333334</ele><time>2026-04-09T10:16:37Z</time></trkpt><trkpt lat="43.901069190951475" lon="11.189059970013872"><ele>121.66666666666666</ele><time>2026-04-09T10:16:38Z</time></trkpt><trkpt lat="43.90125431214115" lon="11.189102589531856"><ele>122.0</ele><time>2026-04-09T10:16:39Z</time></trkpt><trkpt lat="43.90142730135082" lon="11.189127614831103"><ele>122.0</ele><time>2026-04-09T10:16:40Z</time></trkpt><trkpt lat="43.901613765624084" lon="11.189149080341954"><ele>122.0</ele><time>2026-04-09T10:16:41Z</time></trkpt><trkpt lat="43.90182179435062" lon="11.189152796526752"><ele>122.0</ele><time>2026-04-09T10:16:42Z</time></trkpt><trkpt lat="43.90201485532865" lon="11.189155263332452"><ele>122.33333333333333</ele><time>2026-04-09T10:16:43Z</time></trkpt><trkpt lat="43.902191435979816" lon="11.189152532941415"><ele>122.66666666666666</ele><time>2026-04-09T10:16:44Z</time></trkpt><trkpt lat="43.902379242331776" lon="11.189178932612668"><ele>123.0</ele><time>2026-04-09T10:16:45Z</time></trkpt><trkpt lat="43.90256013836359" lon="11.18916617091747"><ele>123.66666666666666</ele><time>2026-04-09T10:16:46Z</time></trkpt><trkpt lat="43.90273823145573" lon="11.189171339969189"><ele>124.33333333333333</ele><time>2026-04-09T10:16:47Z</time></trkpt><trkpt lat="43.90294194322941" lon="11.189181988947649"><ele>125.0</ele><time>2026-04-09T10:16:48Z</time></trkpt><trkpt lat="43.903148331376656" lon="11.189188985488844"><ele>125.0</ele><time>2026-04-09T10:16:49Z</time></trkpt><trkpt lat="43.903361743907226" lon="11.189203894592657"><ele>125.0</ele><time>2026-04-09T10:16:50Z</time></trkpt><trkpt lat="43.903565429262535" lon="11.189213271593141"><ele>125.0</ele><time>2026-04-09T10:16:51Z</time></trkpt><trkpt lat="43.903752724765404" lon="11.18923246303091"><ele>126.0</ele><time>2026-04-09T10:16:52Z</time></trkpt><trkpt lat="43.903932620137795" lon="11.189243585120225"><ele>127.0</ele><time>2026-04-09T10:16:53Z</time></trkpt><trkpt lat="43.904101680319435" lon="11.189265741181028"><ele>128.0</ele><time>2026-04-09T10:16:54Z</time></trkpt><trkpt lat="43.904247383141076" lon="11.189277345620615"><ele>128.0</ele><time>2026-04-09T10:16:55Z</time></trkpt><trkpt lat="43.90439509123883" lon="11.189299548053361"><ele>128.0</ele><time>2026-04-09T10:16:56Z</time></trkpt><trkpt lat="43.904544589108895" lon="11.189361033399614"><ele>128.0</ele><time>2026-04-09T10:16:57Z</time></trkpt><trkpt lat="43.90470194009188" lon="11.189465676383092"><ele>128.0</ele><time>2026-04-09T10:16:58Z</time></trkpt><trkpt lat="43.904850955828955" lon="11.189609862027917"><ele>128.0</ele><time>2026-04-09T10:16:58.999Z</time></trkpt><trkpt lat="43.90501786669842" lon="11.18975511128192"><ele>128.0</ele><time>2026-04-09T10:16:59.999Z</time></trkpt><trkpt lat="43.90517476986343" lon="11.189886251836944"><ele>129.0</ele><time>2026-04-09T10:17:00.999Z</time></trkpt><trkpt lat="43.905341248080205" lon="11.190027972859609"><ele>130.0</ele><time>2026-04-09T10:17:01.999Z</time></trkpt><trkpt lat="43.90551072003119" lon="11.190177553705562"><ele>131.0</ele><time>2026-04-09T10:17:02.999Z</time></trkpt><trkpt lat="43.9056922676514" lon="11.19032040589967"><ele>131.0</ele><time>2026-04-09T10:17:03.999Z</time></trkpt><trkpt lat="43.905873927861954" lon="11.190471119733797"><ele>131.0</ele><time>2026-04-09T10:17:04.999Z</time></trkpt><trkpt lat="43.90603690371053" lon="11.190609923637581"><ele>131.0</ele><time>2026-04-09T10:17:05.999Z</time></trkpt><trkpt lat="43.90618534579111" lon="11.190738261946061"><ele>132.33333333333331</ele><time>2026-04-09T10:17:06.999Z</time></trkpt><trkpt lat="43.90633650517446" lon="11.190854369140252"><ele>133.66666666666666</ele><time>2026-04-09T10:17:07.999Z</time></trkpt><trkpt lat="43.90650530944441" lon="11.190949289905424"><ele>135.0</ele><time>2026-04-09T10:17:08.999Z</time></trkpt><trkpt lat="43.906684358036756" lon="11.191027321870697"><ele>135.66666666666666</ele><time>2026-04-09T10:17:09.999Z</time></trkpt><trkpt lat="43.9068624163405" lon="11.191117717829977"><ele>136.33333333333331</ele><time>2026-04-09T10:17:10.999Z</time></trkpt><trkpt lat="43.90703589621173" lon="11.191251801114182"><ele>137.0</ele><time>2026-04-09T10:17:11.999Z</time></trkpt><trkpt lat="43.90720263590148" lon="11.191404029323763"><ele>138.33333333333331</ele><time>2026-04-09T10:17:12.999Z</time></trkpt><trkpt lat="43.907368484523296" lon="11.191547922801997"><ele>139.66666666666666</ele><time>2026-04-09T10:17:13.999Z</time></trkpt><trkpt lat="43.90752007000502" lon="11.19167339861929"><ele>141.0</ele><time>2026-04-09T10:17:14.999Z</time></trkpt><trkpt lat="43.90766927256361" lon="11.191796204213198"><ele>141.0</ele><time>2026-04-09T10:17:15.999Z</time></trkpt><trkpt lat="43.90782546824082" lon="11.191920284363693"><ele>141.0</ele><time>2026-04-09T10:17:16.999Z</time></trkpt><trkpt lat="43.9079938505424" lon="11.192027100034625"><ele>141.0</ele><time>2026-04-09T10:17:17.999Z</time></trkpt><trkpt lat="43.908178136267665" lon="11.192103485262132"><ele>141.0</ele><time>2026-04-09T10:17:18.999Z</time></trkpt><trkpt lat="43.90837724354187" lon="11.192165524999448"><ele>141.0</ele><time>2026-04-09T10:17:19.999Z</time></trkpt><trkpt lat="43.90858825827427" lon="11.19220959706952"><ele>141.0</ele><time>2026-04-09T10:17:20.999Z</time></trkpt><trkpt lat="43.90879501510906" lon="11.19224421096329"><ele>141.33333333333334</ele><time>2026-04-09T10:17:21.999Z</time></trkpt><trkpt lat="43.908979924769596" lon="11.19228285664853"><ele>141.66666666666669</ele><time>2026-04-09T10:17:22.999Z</time></trkpt><trkpt lat="43.90915457920179" lon="11.192337143799593"><ele>142.0</ele><time>2026-04-09T10:17:23.999Z</time></trkpt><trkpt lat="43.909324924349384" lon="11.192417075423494"><ele>142.66666666666669</ele><time>2026-04-09T10:17:24.999Z</time></trkpt><trkpt lat="43.909495838320915" lon="11.192536742417882"><ele>143.33333333333334</ele><time>2026-04-09T10:17:25.999Z</time></trkpt><trkpt lat="43.909671294305426" lon="11.192658607769369"><ele>144.0</ele><time>2026-04-09T10:17:26.999Z</time></trkpt><trkpt lat="43.9098591074907" lon="11.192789528121548"><ele>144.0</ele><time>2026-04-09T10:17:27.999Z</time></trkpt><trkpt lat="43.91003071298961" lon="11.192910859317903"><ele>144.0</ele><time>2026-04-09T10:17:28.999Z</time></trkpt><trkpt lat="43.910185769774316" lon="11.193014499077323"><ele>144.0</ele><time>2026-04-09T10:17:29.999Z</time></trkpt><trkpt lat="43.910344470466924" lon="11.193124351267517"><ele>147.66666666666666</ele><time>2026-04-09T10:17:31Z</time></trkpt><trkpt lat="43.91051361547438" lon="11.193239475222517"><ele>151.33333333333331</ele><time>2026-04-09T10:17:32Z</time></trkpt><trkpt lat="43.910689200250474" lon="11.193360578153731"><ele>155.0</ele><time>2026-04-09T10:17:33Z</time></trkpt><trkpt lat="43.91085512026922" lon="11.193471814989838"><ele>153.33333333333331</ele><time>2026-04-09T10:17:34Z</time></trkpt><trkpt lat="43.91100806717656" lon="11.193568429230298"><ele>151.66666666666666</ele><time>2026-04-09T10:17:35Z</time></trkpt><trkpt lat="43.9111531690236" lon="11.193675332225737"><ele>150.0</ele><time>2026-04-09T10:17:36Z</time></trkpt><trkpt lat="43.91129926088239" lon="11.193779654799881"><ele>150.0</ele><time>2026-04-09T10:17:37Z</time></trkpt><trkpt lat="43.911439984138546" lon="11.193875477780626"><ele>150.0</ele><time>2026-04-09T10:17:38Z</time></trkpt><trkpt lat="43.91156809733834" lon="11.193969461694985"><ele>150.0</ele><time>2026-04-09T10:17:39Z</time></trkpt><trkpt lat="43.91170455663147" lon="11.194061454277032"><ele>150.66666666666666</ele><time>2026-04-09T10:17:40Z</time></trkpt><trkpt lat="43.911852878207306" lon="11.19415955688824"><ele>151.33333333333331</ele><time>2026-04-09T10:17:41Z</time></trkpt><trkpt lat="43.91200808022117" lon="11.194261136684496"><ele>152.0</ele><time>2026-04-09T10:17:42Z</time></trkpt><trkpt lat="43.9121741557618" lon="11.194378177273709"><ele>152.0</ele><time>2026-04-09T10:17:43Z</time></trkpt><trkpt lat="43.91235299644201" lon="11.194506315229429"><ele>152.0</ele><time>2026-04-09T10:17:44Z</time></trkpt><trkpt lat="43.912542875577074" lon="11.19464155486678"><ele>152.0</ele><time>2026-04-09T10:17:45Z</time></trkpt><trkpt lat="43.912744643247905" lon="11.194785939654578"><ele>154.0</ele><time>2026-04-09T10:17:46Z</time></trkpt><trkpt lat="43.91292219588934" lon="11.194912393258148"><ele>156.0</ele><time>2026-04-09T10:17:47Z</time></trkpt><trkpt lat="43.913075225534506" lon="11.195025961788486"><ele>158.0</ele><time>2026-04-09T10:17:48Z</time></trkpt><trkpt lat="43.91322871100079" lon="11.195143922532528"><ele>158.0</ele><time>2026-04-09T10:17:49Z</time></trkpt><trkpt lat="43.9133860538232" lon="11.195271597550171"><ele>158.0</ele><time>2026-04-09T10:17:50Z</time></trkpt><trkpt lat="43.91354324167195" lon="11.195422409787806"><ele>158.0</ele><time>2026-04-09T10:17:51Z</time></trkpt><trkpt lat="43.91368055228497" lon="11.19559417674839"><ele>158.25</ele><time>2026-04-09T10:17:52Z</time></trkpt><trkpt lat="43.91379097825107" lon="11.195765266406509"><ele>158.5</ele><time>2026-04-09T10:17:53Z</time></trkpt><trkpt lat="43.913888350286264" lon="11.195917521699208"><ele>158.75</ele><time>2026-04-09T10:17:54Z</time></trkpt><trkpt lat="43.91398564281108" lon="11.196044211778805"><ele>159.0</ele><time>2026-04-09T10:17:55Z</time></trkpt><trkpt lat="43.91408731915516" lon="11.196164600515885"><ele>159.0</ele><time>2026-04-09T10:17:56Z</time></trkpt><trkpt lat="43.914195151177275" lon="11.196271353890687"><ele>159.0</ele><time>2026-04-09T10:17:57Z</time></trkpt><trkpt lat="43.914310980095436" lon="11.196364439272894"><ele>159.0</ele><time>2026-04-09T10:17:58Z</time></trkpt><trkpt lat="43.914441870595056" lon="11.196473149217082"><ele>159.0</ele><time>2026-04-09T10:17:59Z</time></trkpt><trkpt lat="43.9145792038696" lon="11.196577459843164"><ele>160.0</ele><time>2026-04-09T10:18:00Z</time></trkpt><trkpt lat="43.91473277298166" lon="11.196686662716646"><ele>161.0</ele><time>2026-04-09T10:18:01Z</time></trkpt><trkpt lat="43.9148667969714" lon="11.196770393106739"><ele>162.0</ele><time>2026-04-09T10:18:02Z</time></trkpt><trkpt lat="43.91499056085464" lon="11.19685950078165"><ele>161.66666666666666</ele><time>2026-04-09T10:18:03Z</time></trkpt><trkpt lat="43.91511018010438" lon="11.196939036624022"><ele>161.33333333333331</ele><time>2026-04-09T10:18:04Z</time></trkpt><trkpt lat="43.91525635048652" lon="11.19703285899968"><ele>161.0</ele><time>2026-04-09T10:18:05Z</time></trkpt><trkpt lat="43.91541896840026" lon="11.197142452989574"><ele>161.0</ele><time>2026-04-09T10:18:06Z</time></trkpt><trkpt lat="43.91557519525669" lon="11.197250124517495"><ele>161.0</ele><time>2026-04-09T10:18:07Z</time></trkpt><trkpt lat="43.91571901136207" lon="11.197340787052992"><ele>161.0</ele><time>2026-04-09T10:18:08Z</time></trkpt><trkpt lat="43.91586966892695" lon="11.197435464095356"><ele>163.0</ele><time>2026-04-09T10:18:09Z</time></trkpt><trkpt lat="43.91601972330862" lon="11.19753137489032"><ele>165.0</ele><time>2026-04-09T10:18:10Z</time></trkpt><trkpt lat="43.9161544049871" lon="11.197615414421287"><ele>167.0</ele><time>2026-04-09T10:18:11Z</time></trkpt><trkpt lat="43.91628203779181" lon="11.197693308574733"><ele>167.0</ele><time>2026-04-09T10:18:12Z</time></trkpt><trkpt lat="43.91640034727783" lon="11.197753593003121"><ele>167.0</ele><time>2026-04-09T10:18:13Z</time></trkpt><trkpt lat="43.91653076631746" lon="11.197838102826559"><ele>167.0</ele><time>2026-04-09T10:18:14Z</time></trkpt><trkpt lat="43.91667935070144" lon="11.197909414836458"><ele>167.0</ele><time>2026-04-09T10:18:15Z</time></trkpt><trkpt lat="43.91684907231894" lon="11.198013223793996"><ele>169.0</ele><time>2026-04-09T10:18:16Z</time></trkpt><trkpt lat="43.91703439053577" lon="11.19814653300032"><ele>171.0</ele><time>2026-04-09T10:18:17Z</time></trkpt><trkpt lat="43.9171804646484" lon="11.198257105034289"><ele>173.0</ele><time>2026-04-09T10:18:18Z</time></trkpt><trkpt lat="43.91733375693159" lon="11.198364104411493"><ele>173.33333333333331</ele><time>2026-04-09T10:18:19Z</time></trkpt><trkpt lat="43.91748573211341" lon="11.198475624213907"><ele>173.66666666666666</ele><time>2026-04-09T10:18:20Z</time></trkpt><trkpt lat="43.917625940544184" lon="11.198576830143015"><ele>174.0</ele><time>2026-04-09T10:18:21Z</time></trkpt><trkpt lat="43.91779559949444" lon="11.198694954075853"><ele>173.0</ele><time>2026-04-09T10:18:22Z</time></trkpt><trkpt lat="43.917936894944674" lon="11.198797301306998"><ele>172.0</ele><time>2026-04-09T10:18:23Z</time></trkpt><trkpt lat="43.918065264856025" lon="11.198885225998213"><ele>171.0</ele><time>2026-04-09T10:18:24Z</time></trkpt><trkpt lat="43.91819563850502" lon="11.198983421444384"><ele>171.66666666666666</ele><time>2026-04-09T10:18:25Z</time></trkpt><trkpt lat="43.91831865901479" lon="11.199106068887385"><ele>172.33333333333331</ele><time>2026-04-09T10:18:26Z</time></trkpt><trkpt lat="43.918424779804525" lon="11.199287497082121"><ele>173.0</ele><time>2026-04-09T10:18:27Z</time></trkpt><trkpt lat="43.91853836658072" lon="11.199483771159937"><ele>173.0</ele><time>2026-04-09T10:18:28Z</time></trkpt><trkpt lat="43.918644005362985" lon="11.199655370868857"><ele>173.0</ele><time>2026-04-09T10:18:29Z</time></trkpt><trkpt lat="43.918722839913706" lon="11.199810082576118"><ele>173.0</ele><time>2026-04-09T10:18:30Z</time></trkpt><trkpt lat="43.91879908241998" lon="11.199953973114237"><ele>173.0</ele><time>2026-04-09T10:18:31Z</time></trkpt><trkpt lat="43.91886042256555" lon="11.20007131586829"><ele>175.0</ele><time>2026-04-09T10:18:32Z</time></trkpt><trkpt lat="43.91891872888289" lon="11.200191168935287"><ele>177.0</ele><time>2026-04-09T10:18:33Z</time></trkpt><trkpt lat="43.91899402203867" lon="11.200303537489026"><ele>179.0</ele><time>2026-04-09T10:18:34Z</time></trkpt><trkpt lat="43.919069771405034" lon="11.200404834035771"><ele>181.0</ele><time>2026-04-09T10:18:35Z</time></trkpt><trkpt lat="43.91912923611185" lon="11.20048426031125"><ele>183.0</ele><time>2026-04-09T10:18:36Z</time></trkpt><trkpt lat="43.91918654522414" lon="11.200554970536162"><ele>183.4</ele><time>2026-04-09T10:18:37Z</time></trkpt><trkpt lat="43.91924022539349" lon="11.20063084431572"><ele>183.8</ele><time>2026-04-09T10:18:38Z</time></trkpt><trkpt lat="43.919282659032646" lon="11.20069621063828"><ele>184.2</ele><time>2026-04-09T10:18:39Z</time></trkpt><trkpt lat="43.91937874082514" lon="11.200830071093653"><ele>184.6</ele><time>2026-04-09T10:18:41Z</time></trkpt><trkpt lat="43.919434248280865" lon="11.200920880463457"><ele>185.0</ele><time>2026-04-09T10:18:42Z</time></trkpt><trkpt lat="43.91950321262101" lon="11.201026611617293"><ele>185.0</ele><time>2026-04-09T10:18:43Z</time></trkpt><trkpt lat="43.919581823284325" lon="11.2011581810746"><ele>185.0</ele><time>2026-04-09T10:18:44Z</time></trkpt><trkpt lat="43.91966299079557" lon="11.201284323362215"><ele>185.0</ele><time>2026-04-09T10:18:45Z</time></trkpt><trkpt lat="43.91973965946884" lon="11.201406587855338"><ele>185.0</ele><time>2026-04-09T10:18:46Z</time></trkpt><trkpt lat="43.91980524426201" lon="11.201514987496749"><ele>185.5</ele><time>2026-04-09T10:18:47Z</time></trkpt><trkpt lat="43.919870276368194" lon="11.201628777852738"><ele>186.0</ele><time>2026-04-09T10:18:48Z</time></trkpt><trkpt lat="43.919947284306566" lon="11.201759153193699"><ele>186.5</ele><time>2026-04-09T10:18:49Z</time></trkpt><trkpt lat="43.92002558783195" lon="11.201893331172647"><ele>187.0</ele><time>2026-04-09T10:18:50Z</time></trkpt><trkpt lat="43.920097953996155" lon="11.2020457029305"><ele>187.0</ele><time>2026-04-09T10:18:51Z</time></trkpt><trkpt lat="43.92015926894702" lon="11.202196480131134"><ele>187.0</ele><time>2026-04-09T10:18:52Z</time></trkpt><trkpt lat="43.92020753051462" lon="11.202323606958343"><ele>187.0</ele><time>2026-04-09T10:18:53Z</time></trkpt><trkpt lat="43.92025986335465" lon="11.202457271359554"><ele>187.0</ele><time>2026-04-09T10:18:54Z</time></trkpt><trkpt lat="43.92031219467515" lon="11.202586017316447"><ele>187.0</ele><time>2026-04-09T10:18:55Z</time></trkpt><trkpt lat="43.92036757640853" lon="11.202721905527246"><ele>190.0</ele><time>2026-04-09T10:18:56Z</time></trkpt><trkpt lat="43.9204282824213" lon="11.202865895569525"><ele>193.0</ele><time>2026-04-09T10:18:57Z</time></trkpt><trkpt lat="43.920486651376656" lon="11.202991752715603"><ele>196.0</ele><time>2026-04-09T10:18:58Z</time></trkpt><trkpt lat="43.92056069429136" lon="11.203117864215443"><ele>199.0</ele><time>2026-04-09T10:18:59Z</time></trkpt><trkpt lat="43.92063993836766" lon="11.203237990769551"><ele>198.25</ele><time>2026-04-09T10:19:00Z</time></trkpt><trkpt lat="43.92074010174596" lon="11.203365294664335"><ele>197.5</ele><time>2026-04-09T10:19:01Z</time></trkpt><trkpt lat="43.92083783659231" lon="11.203472793496916"><ele>196.75</ele><time>2026-04-09T10:19:02Z</time></trkpt><trkpt lat="43.92095167369102" lon="11.203581955253021"><ele>196.0</ele><time>2026-04-09T10:19:03Z</time></trkpt><trkpt lat="43.92107383246999" lon="11.203679314344342"><ele>196.0</ele><time>2026-04-09T10:19:04Z</time></trkpt><trkpt lat="43.92119203879992" lon="11.203773543198656"><ele>196.0</ele><time>2026-04-09T10:19:05Z</time></trkpt><trkpt lat="43.92130954210124" lon="11.203851117296859"><ele>196.0</ele><time>2026-04-09T10:19:06Z</time></trkpt><trkpt lat="43.92142208240871" lon="11.20392177227966"><ele>196.0</ele><time>2026-04-09T10:19:07Z</time></trkpt><trkpt lat="43.92153183544201" lon="11.204015650409904"><ele>195.0</ele><time>2026-04-09T10:19:08Z</time></trkpt><trkpt lat="43.92163000202175" lon="11.204132540709631"><ele>194.0</ele><time>2026-04-09T10:19:08.999Z</time></trkpt><trkpt lat="43.921730715908836" lon="11.204281289406065"><ele>193.0</ele><time>2026-04-09T10:19:09.999Z</time></trkpt><trkpt lat="43.92181440156541" lon="11.204424249261049"><ele>192.0</ele><time>2026-04-09T10:19:10.999Z</time></trkpt><trkpt lat="43.92189842240071" lon="11.204558220637423"><ele>192.0</ele><time>2026-04-09T10:19:11.999Z</time></trkpt><trkpt lat="43.92194779984266" lon="11.204708786928302"><ele>192.0</ele><time>2026-04-09T10:19:12.999Z</time></trkpt><trkpt lat="43.922016252700146" lon="11.204864888297278"><ele>192.0</ele><time>2026-04-09T10:19:13.999Z</time></trkpt><trkpt lat="43.92208499463329" lon="11.205041880613027"><ele>192.0</ele><time>2026-04-09T10:19:14.999Z</time></trkpt><trkpt lat="43.922142204680945" lon="11.205211844846353"><ele>193.5</ele><time>2026-04-09T10:19:15.999Z</time></trkpt><trkpt lat="43.922198708499984" lon="11.205367889180122"><ele>195.0</ele><time>2026-04-09T10:19:16.999Z</time></trkpt><trkpt lat="43.92225882856671" lon="11.205532496530626"><ele>196.5</ele><time>2026-04-09T10:19:17.999Z</time></trkpt><trkpt lat="43.92232958165211" lon="11.20572919932608"><ele>198.0</ele><time>2026-04-09T10:19:18.999Z</time></trkpt><trkpt lat="43.92239553368138" lon="11.20592846402037"><ele>199.5</ele><time>2026-04-09T10:19:19.999Z</time></trkpt><trkpt lat="43.922460898743736" lon="11.206114068824261"><ele>201.0</ele><time>2026-04-09T10:19:20.999Z</time></trkpt><trkpt lat="43.92251716541273" lon="11.206284644968719"><ele>202.5</ele><time>2026-04-09T10:19:21.999Z</time></trkpt><trkpt lat="43.92257805491226" lon="11.20646358023886"><ele>204.0</ele><time>2026-04-09T10:19:22.999Z</time></trkpt><trkpt lat="43.92264904699679" lon="11.206646901520644"><ele>200.0</ele><time>2026-04-09T10:19:23.999Z</time></trkpt><trkpt lat="43.92273500294591" lon="11.206834274138169"><ele>196.0</ele><time>2026-04-09T10:19:24.999Z</time></trkpt><trkpt lat="43.92283060993207" lon="11.206996768863497"><ele>192.0</ele><time>2026-04-09T10:19:25.999Z</time></trkpt><trkpt lat="43.92293115340464" lon="11.207155043824086"><ele>192.0</ele><time>2026-04-09T10:19:26.999Z</time></trkpt><trkpt lat="43.92302017307431" lon="11.207308050412427"><ele>192.0</ele><time>2026-04-09T10:19:27.999Z</time></trkpt><trkpt lat="43.92311100152085" lon="11.207445312146536"><ele>192.0</ele><time>2026-04-09T10:19:28.999Z</time></trkpt><trkpt lat="43.92319931645131" lon="11.207598511053552"><ele>192.0</ele><time>2026-04-09T10:19:29.999Z</time></trkpt><trkpt lat="43.92328339547421" lon="11.207729914319943"><ele>192.75</ele><time>2026-04-09T10:19:30.999Z</time></trkpt><trkpt lat="43.923363686026605" lon="11.207857386459777"><ele>193.5</ele><time>2026-04-09T10:19:31.999Z</time></trkpt><trkpt lat="43.92343818209499" lon="11.207980710107899"><ele>194.25</ele><time>2026-04-09T10:19:32.999Z</time></trkpt><trkpt lat="43.92351424482334" lon="11.208096893776712"><ele>195.0</ele><time>2026-04-09T10:19:33.999Z</time></trkpt><trkpt lat="43.92360009450021" lon="11.20819468029565"><ele>196.75</ele><time>2026-04-09T10:19:34.999Z</time></trkpt><trkpt lat="43.923714161535415" lon="11.208296022359947"><ele>198.5</ele><time>2026-04-09T10:19:35.999Z</time></trkpt><trkpt lat="43.92383130752154" lon="11.208389598379123"><ele>200.25</ele><time>2026-04-09T10:19:37Z</time></trkpt><trkpt lat="43.92397225360705" lon="11.208446122563936"><ele>202.0</ele><time>2026-04-09T10:19:38Z</time></trkpt><trkpt lat="43.924122852340275" lon="11.208471224695842"><ele>209.33333333333331</ele><time>2026-04-09T10:19:39Z</time></trkpt><trkpt lat="43.92427178185594" lon="11.20846437783514"><ele>216.66666666666669</ele><time>2026-04-09T10:19:40Z</time></trkpt><trkpt lat="43.924434201812" lon="11.208442015600756"><ele>224.0</ele><time>2026-04-09T10:19:41Z</time></trkpt><trkpt lat="43.92458439011312" lon="11.208339555614186"><ele>224.0</ele><time>2026-04-09T10:19:42Z</time></trkpt><trkpt lat="43.924717809730566" lon="11.208229843033704"><ele>224.0</ele><time>2026-04-09T10:19:43Z</time></trkpt><trkpt lat="43.92484784152431" lon="11.208100281943514"><ele>224.0</ele><time>2026-04-09T10:19:44Z</time></trkpt><trkpt lat="43.92494909394558" lon="11.207983016146397"><ele>224.0</ele><time>2026-04-09T10:19:45Z</time></trkpt><trkpt lat="43.925064655684174" lon="11.207919598007752"><ele>221.0</ele><time>2026-04-09T10:19:46Z</time></trkpt><trkpt lat="43.925203757343766" lon="11.207873395190498"><ele>218.0</ele><time>2026-04-09T10:19:47Z</time></trkpt><trkpt lat="43.925376291419354" lon="11.207839158850541"><ele>215.0</ele><time>2026-04-09T10:19:48Z</time></trkpt><trkpt lat="43.92554924269241" lon="11.207831581981596"><ele>215.0</ele><time>2026-04-09T10:19:49Z</time></trkpt><trkpt lat="43.92568381196347" lon="11.20783029444497"><ele>215.0</ele><time>2026-04-09T10:19:50Z</time></trkpt><trkpt lat="43.92582523758429" lon="11.207850138522737"><ele>215.0</ele><time>2026-04-09T10:19:51Z</time></trkpt><trkpt lat="43.92596651488742" lon="11.20788077244949"><ele>215.0</ele><time>2026-04-09T10:19:52Z</time></trkpt><trkpt lat="43.9261156292963" lon="11.207941126189183"><ele>215.5</ele><time>2026-04-09T10:19:53Z</time></trkpt><trkpt lat="43.926281128608345" lon="11.207986288540134"><ele>216.0</ele><time>2026-04-09T10:19:54Z</time></trkpt><trkpt lat="43.926430544893456" lon="11.208022804135068"><ele>216.5</ele><time>2026-04-09T10:19:55Z</time></trkpt><trkpt lat="43.92655324436234" lon="11.208029685322282"><ele>217.0</ele><time>2026-04-09T10:19:56Z</time></trkpt><trkpt lat="43.92669261413624" lon="11.208072705013898"><ele>218.0</ele><time>2026-04-09T10:19:57Z</time></trkpt><trkpt lat="43.92685687347701" lon="11.208062253604188"><ele>219.0</ele><time>2026-04-09T10:19:58Z</time></trkpt><trkpt lat="43.92699900302448" lon="11.208078855930358"><ele>220.0</ele><time>2026-04-09T10:19:59Z</time></trkpt><trkpt lat="43.92714397497252" lon="11.20810518263497"><ele>220.0</ele><time>2026-04-09T10:20:00Z</time></trkpt><trkpt lat="43.92732044887832" lon="11.208144269493186"><ele>220.0</ele><time>2026-04-09T10:20:01Z</time></trkpt><trkpt lat="43.9274343128975" lon="11.208168349101276"><ele>220.0</ele><time>2026-04-09T10:20:02Z</time></trkpt><trkpt lat="43.92754102866651" lon="11.208191162025562"><ele>220.0</ele><time>2026-04-09T10:20:03Z</time></trkpt><trkpt lat="43.92762665875198" lon="11.20820578692342"><ele>224.75</ele><time>2026-04-09T10:20:04Z</time></trkpt><trkpt lat="43.927708714875116" lon="11.20820591658902"><ele>229.5</ele><time>2026-04-09T10:20:05Z</time></trkpt><trkpt lat="43.92782020312882" lon="11.208279957100993"><ele>234.25</ele><time>2026-04-09T10:20:06Z</time></trkpt><trkpt lat="43.927933872971536" lon="11.208351100189443"><ele>239.0</ele><time>2026-04-09T10:20:07Z</time></trkpt><trkpt lat="43.92806404968917" lon="11.208431472649831"><ele>239.0</ele><time>2026-04-09T10:20:08Z</time></trkpt><trkpt lat="43.92818414055987" lon="11.208490524197328"><ele>239.0</ele><time>2026-04-09T10:20:09Z</time></trkpt><trkpt lat="43.928286169155626" lon="11.208565143902424"><ele>239.0</ele><time>2026-04-09T10:20:10Z</time></trkpt><trkpt lat="43.92838926908204" lon="11.208641250826624"><ele>239.0</ele><time>2026-04-09T10:20:11Z</time></trkpt><trkpt lat="43.92851142948607" lon="11.208707734506346"><ele>236.5</ele><time>2026-04-09T10:20:12Z</time></trkpt><trkpt lat="43.9286240136563" lon="11.208786952873245"><ele>234.0</ele><time>2026-04-09T10:20:13Z</time></trkpt><trkpt lat="43.928720867728124" lon="11.208846391594784"><ele>231.5</ele><time>2026-04-09T10:20:14Z</time></trkpt><trkpt lat="43.92881444667048" lon="11.208920697630797"><ele>229.0</ele><time>2026-04-09T10:20:15Z</time></trkpt><trkpt lat="43.92891905375709" lon="11.209018244794732"><ele>231.25</ele><time>2026-04-09T10:20:16Z</time></trkpt><trkpt lat="43.92901821944208" lon="11.209122694708851"><ele>233.5</ele><time>2026-04-09T10:20:17Z</time></trkpt><trkpt lat="43.92914242962003" lon="11.20924388915308"><ele>235.75</ele><time>2026-04-09T10:20:18Z</time></trkpt><trkpt lat="43.92924470360435" lon="11.20935513765897"><ele>238.0</ele><time>2026-04-09T10:20:19Z</time></trkpt><trkpt lat="43.929358084960334" lon="11.209464603914125"><ele>238.0</ele><time>2026-04-09T10:20:20Z</time></trkpt><trkpt lat="43.9294642263941" lon="11.209586788098859"><ele>238.0</ele><time>2026-04-09T10:20:21Z</time></trkpt><trkpt lat="43.92956783278499" lon="11.209727712377024"><ele>238.0</ele><time>2026-04-09T10:20:22Z</time></trkpt><trkpt lat="43.92964686078763" lon="11.209846096790884"><ele>238.0</ele><time>2026-04-09T10:20:23Z</time></trkpt><trkpt lat="43.929714989749066" lon="11.209962314206617"><ele>241.0</ele><time>2026-04-09T10:20:24Z</time></trkpt><trkpt lat="43.92979221125207" lon="11.210070458435192"><ele>244.0</ele><time>2026-04-09T10:20:25Z</time></trkpt><trkpt lat="43.929878479199104" lon="11.210201396332845"><ele>247.0</ele><time>2026-04-09T10:20:26Z</time></trkpt><trkpt lat="43.929972202274406" lon="11.210317127554754"><ele>250.0</ele><time>2026-04-09T10:20:27Z</time></trkpt><trkpt lat="43.930078299028324" lon="11.210426982546798"><ele>250.0</ele><time>2026-04-09T10:20:28Z</time></trkpt><trkpt lat="43.93019782324618" lon="11.21052437922924"><ele>250.0</ele><time>2026-04-09T10:20:29Z</time></trkpt><trkpt lat="43.93032408400605" lon="11.21060711610529"><ele>250.0</ele><time>2026-04-09T10:20:30Z</time></trkpt><trkpt lat="43.9304477645028" lon="11.210679969524863"><ele>250.0</ele><time>2026-04-09T10:20:31Z</time></trkpt><trkpt lat="43.9305650492107" lon="11.210737044905784"><ele>253.5</ele><time>2026-04-09T10:20:32Z</time></trkpt><trkpt lat="43.93067771876619" lon="11.210798117853237"><ele>257.0</ele><time>2026-04-09T10:20:33Z</time></trkpt><trkpt lat="43.93078996495835" lon="11.210870427701703"><ele>260.5</ele><time>2026-04-09T10:20:34Z</time></trkpt><trkpt lat="43.930903137716136" lon="11.210952664483537"><ele>264.0</ele><time>2026-04-09T10:20:35Z</time></trkpt><trkpt lat="43.93101561330056" lon="11.211033711338663"><ele>264.0</ele><time>2026-04-09T10:20:36Z</time></trkpt><trkpt lat="43.93113330724287" lon="11.211121681321615"><ele>264.0</ele><time>2026-04-09T10:20:37Z</time></trkpt><trkpt lat="43.931265528749165" lon="11.211208484053682"><ele>264.0</ele><time>2026-04-09T10:20:38Z</time></trkpt><trkpt lat="43.93138812286606" lon="11.211294444296131"><ele>264.0</ele><time>2026-04-09T10:20:39Z</time></trkpt><trkpt lat="43.931483224614055" lon="11.211388141031438"><ele>264.0</ele><time>2026-04-09T10:20:40Z</time></trkpt><trkpt lat="43.93159169754408" lon="11.211481965518557"><ele>264.0</ele><time>2026-04-09T10:20:41Z</time></trkpt><trkpt lat="43.93170628086179" lon="11.211575978109183"><ele>264.0</ele><time>2026-04-09T10:20:42Z</time></trkpt><trkpt lat="43.93181802434024" lon="11.211685932073129"><ele>264.0</ele><time>2026-04-09T10:20:43Z</time></trkpt><trkpt lat="43.93191004503811" lon="11.21177034367221"><ele>266.8</ele><time>2026-04-09T10:20:44Z</time></trkpt><trkpt lat="43.93199994054169" lon="11.21184445369965"><ele>269.59999999999997</ele><time>2026-04-09T10:20:45Z</time></trkpt><trkpt lat="43.93208410815622" lon="11.211931612491437"><ele>272.4</ele><time>2026-04-09T10:20:46Z</time></trkpt><trkpt lat="43.932165801658115" lon="11.212045217934948"><ele>275.2</ele><time>2026-04-09T10:20:47Z</time></trkpt><trkpt lat="43.93223288890954" lon="11.212175016385585"><ele>278.0</ele><time>2026-04-09T10:20:48Z</time></trkpt><trkpt lat="43.9323015266674" lon="11.21229177970678"><ele>282.6</ele><time>2026-04-09T10:20:49Z</time></trkpt><trkpt lat="43.93236919033317" lon="11.21241358797146"><ele>287.20000000000005</ele><time>2026-04-09T10:20:50Z</time></trkpt><trkpt lat="43.93245050252282" lon="11.212488040371996"><ele>291.8</ele><time>2026-04-09T10:20:51Z</time></trkpt><trkpt lat="43.93253639067009" lon="11.21255688680458"><ele>296.40000000000003</ele><time>2026-04-09T10:20:52Z</time></trkpt><trkpt lat="43.93265087010956" lon="11.212580024454152"><ele>301.0</ele><time>2026-04-09T10:20:53Z</time></trkpt><trkpt lat="43.932783871014315" lon="11.21254491284282"><ele>301.0</ele><time>2026-04-09T10:20:54Z</time></trkpt><trkpt lat="43.93287639727059" lon="11.212530385981706"><ele>301.0</ele><time>2026-04-09T10:20:55Z</time></trkpt><trkpt lat="43.932963514827" lon="11.212509551623958"><ele>301.0</ele><time>2026-04-09T10:20:56Z</time></trkpt><trkpt lat="43.93305226402244" lon="11.21254214269019"><ele>301.0</ele><time>2026-04-09T10:20:57Z</time></trkpt><trkpt lat="43.93313401538707" lon="11.212617227945714"><ele>301.0</ele><time>2026-04-09T10:20:58Z</time></trkpt><trkpt lat="43.933210915858474" lon="11.212702660693617"><ele>301.0</ele><time>2026-04-09T10:20:59Z</time></trkpt><trkpt lat="43.93329196997013" lon="11.212802836117325"><ele>301.0</ele><time>2026-04-09T10:21:00Z</time></trkpt><trkpt lat="43.93337892957467" lon="11.212892607947047"><ele>301.0</ele><time>2026-04-09T10:21:01Z</time></trkpt><trkpt lat="43.93346471353654" lon="11.212991585768428"><ele>301.0</ele><time>2026-04-09T10:21:02Z</time></trkpt><trkpt lat="43.93355440944592" lon="11.213096718902008"><ele>301.0</ele><time>2026-04-09T10:21:03Z</time></trkpt><trkpt lat="43.933656321932496" lon="11.213189557884846"><ele>305.25</ele><time>2026-04-09T10:21:04Z</time></trkpt><trkpt lat="43.93377078078967" lon="11.21327051742287"><ele>309.5</ele><time>2026-04-09T10:21:05Z</time></trkpt><trkpt lat="43.933887143018524" lon="11.21334821980967"><ele>313.75</ele><time>2026-04-09T10:21:06Z</time></trkpt><trkpt lat="43.933991144113556" lon="11.213406462111317"><ele>318.0</ele><time>2026-04-09T10:21:07Z</time></trkpt><trkpt lat="43.934113733791946" lon="11.21347183036095"><ele>318.0</ele><time>2026-04-09T10:21:08Z</time></trkpt><trkpt lat="43.934220054187584" lon="11.213523643979885"><ele>318.0</ele><time>2026-04-09T10:21:09Z</time></trkpt><trkpt lat="43.93431095631461" lon="11.21355713534397"><ele>318.0</ele><time>2026-04-09T10:21:10Z</time></trkpt><trkpt lat="43.93440221435887" lon="11.213588669746713"><ele>318.0</ele><time>2026-04-09T10:21:11Z</time></trkpt><trkpt lat="43.93449389351679" lon="11.2136268250895"><ele>318.0</ele><time>2026-04-09T10:21:12Z</time></trkpt><trkpt lat="43.93458460764595" lon="11.213661836985198"><ele>317.2</ele><time>2026-04-09T10:21:13Z</time></trkpt><trkpt lat="43.934683069773484" lon="11.213697587701994"><ele>316.4</ele><time>2026-04-09T10:21:14Z</time></trkpt><trkpt lat="43.93477951522021" lon="11.213739184794633"><ele>315.59999999999997</ele><time>2026-04-09T10:21:15Z</time></trkpt><trkpt lat="43.934874256423704" lon="11.213783816530905"><ele>314.8</ele><time>2026-04-09T10:21:16Z</time></trkpt><trkpt lat="43.93497846737705" lon="11.21383261731216"><ele>314.0</ele><time>2026-04-09T10:21:17Z</time></trkpt><trkpt lat="43.935061938994714" lon="11.213866240834305"><ele>313.4</ele><time>2026-04-09T10:21:18Z</time></trkpt><trkpt lat="43.93514386028947" lon="11.213896895850969"><ele>312.79999999999995</ele><time>2026-04-09T10:21:18.999Z</time></trkpt><trkpt lat="43.93523627371084" lon="11.213931843193041"><ele>312.20000000000005</ele><time>2026-04-09T10:21:19.999Z</time></trkpt><trkpt lat="43.93532732773366" lon="11.213993356623227"><ele>311.6</ele><time>2026-04-09T10:21:20.999Z</time></trkpt><trkpt lat="43.93542426728138" lon="11.21407453159182"><ele>311.0</ele><time>2026-04-09T10:21:21.999Z</time></trkpt><trkpt lat="43.93552665212916" lon="11.214172231454743"><ele>317.0</ele><time>2026-04-09T10:21:22.999Z</time></trkpt><trkpt lat="43.93564282364401" lon="11.214276934336997"><ele>323.0</ele><time>2026-04-09T10:21:23.999Z</time></trkpt><trkpt lat="43.93574747669026" lon="11.214377272250992"><ele>329.0</ele><time>2026-04-09T10:21:24.999Z</time></trkpt><trkpt lat="43.935840934010685" lon="11.21444154086204"><ele>335.0</ele><time>2026-04-09T10:21:25.999Z</time></trkpt><trkpt lat="43.93594408558312" lon="11.21448809691943"><ele>335.25</ele><time>2026-04-09T10:21:26.999Z</time></trkpt><trkpt lat="43.93605503547846" lon="11.214513443336507"><ele>335.5</ele><time>2026-04-09T10:21:27.999Z</time></trkpt><trkpt lat="43.93618942191606" lon="11.214521375795258"><ele>335.75</ele><time>2026-04-09T10:21:28.999Z</time></trkpt><trkpt lat="43.93633024432215" lon="11.214515012744974"><ele>336.0</ele><time>2026-04-09T10:21:29.999Z</time></trkpt><trkpt lat="43.93642995705136" lon="11.214508256883697"><ele>336.0</ele><time>2026-04-09T10:21:30.999Z</time></trkpt><trkpt lat="43.936547773423555" lon="11.214517352248496"><ele>336.0</ele><time>2026-04-09T10:21:31.999Z</time></trkpt><trkpt lat="43.93665845653233" lon="11.214499021980366"><ele>336.0</ele><time>2026-04-09T10:21:32.999Z</time></trkpt><trkpt lat="43.93674710607093" lon="11.214532471146132"><ele>336.0</ele><time>2026-04-09T10:21:33.999Z</time></trkpt><trkpt lat="43.936828170640105" lon="11.214589882989477"><ele>336.0</ele><time>2026-04-09T10:21:34.999Z</time></trkpt><trkpt lat="43.936903188061805" lon="11.214685042846165"><ele>334.75</ele><time>2026-04-09T10:21:35.999Z</time></trkpt><trkpt lat="43.93697322148552" lon="11.214801995262496"><ele>333.5</ele><time>2026-04-09T10:21:36.999Z</time></trkpt><trkpt lat="43.9370645621155" lon="11.21491496805893"><ele>332.25</ele><time>2026-04-09T10:21:37.999Z</time></trkpt><trkpt lat="43.93716058550718" lon="11.215007706090912"><ele>331.0</ele><time>2026-04-09T10:21:38.999Z</time></trkpt><trkpt lat="43.937253045086806" lon="11.215071459723468"><ele>335.75</ele><time>2026-04-09T10:21:39.999Z</time></trkpt><trkpt lat="43.937355080192866" lon="11.215109436923154"><ele>340.5</ele><time>2026-04-09T10:21:40.999Z</time></trkpt><trkpt lat="43.937471593626064" lon="11.215126258415314"><ele>345.25</ele><time>2026-04-09T10:21:41.999Z</time></trkpt><trkpt lat="43.937592207477465" lon="11.21512878040097"><ele>350.0</ele><time>2026-04-09T10:21:43Z</time></trkpt><trkpt lat="43.937720168039846" lon="11.2151659250865"><ele>350.0</ele><time>2026-04-09T10:21:44Z</time></trkpt><trkpt lat="43.93786100039719" lon="11.215212425865914"><ele>350.0</ele><time>2026-04-09T10:21:45Z</time></trkpt><trkpt lat="43.93798511771941" lon="11.21525873295939"><ele>350.0</ele><time>2026-04-09T10:21:46Z</time></trkpt><trkpt lat="43.93808937846022" lon="11.215297439804594"><ele>350.0</ele><time>2026-04-09T10:21:47Z</time></trkpt><trkpt lat="43.938201105575295" lon="11.215352896772563"><ele>350.0</ele><time>2026-04-09T10:21:48Z</time></trkpt><trkpt lat="43.9383257367486" lon="11.215398382217844"><ele>350.0</ele><time>2026-04-09T10:21:49Z</time></trkpt><trkpt lat="43.938448090426135" lon="11.215453696716724"><ele>350.0</ele><time>2026-04-09T10:21:50Z</time></trkpt><trkpt lat="43.93854940853658" lon="11.215498355736619"><ele>350.0</ele><time>2026-04-09T10:21:51Z</time></trkpt><trkpt lat="43.93863733310401" lon="11.215541829799227"><ele>350.8</ele><time>2026-04-09T10:21:52Z</time></trkpt><trkpt lat="43.93872958922764" lon="11.215591277268896"><ele>351.6</ele><time>2026-04-09T10:21:53Z</time></trkpt><trkpt lat="43.9388309371058" lon="11.215642611434507"><ele>352.4</ele><time>2026-04-09T10:21:54Z</time></trkpt><trkpt lat="43.9389407964889" lon="11.215694971109416"><ele>353.2</ele><time>2026-04-09T10:21:55Z</time></trkpt><trkpt lat="43.93902947622172" lon="11.215743097905015"><ele>354.0</ele><time>2026-04-09T10:21:56Z</time></trkpt><trkpt lat="43.93911472252828" lon="11.215801212557343"><ele>356.2</ele><time>2026-04-09T10:21:57Z</time></trkpt><trkpt lat="43.93919543277268" lon="11.215869789008474"><ele>358.4</ele><time>2026-04-09T10:21:58Z</time></trkpt><trkpt lat="43.93928090615589" lon="11.215938255785144"><ele>360.6</ele><time>2026-04-09T10:21:59Z</time></trkpt><trkpt lat="43.939382643756204" lon="11.215980336350992"><ele>362.8</ele><time>2026-04-09T10:22:00Z</time></trkpt><trkpt lat="43.939496534055344" lon="11.215991013592133"><ele>365.0</ele><time>2026-04-09T10:22:01Z</time></trkpt><trkpt lat="43.93962012671538" lon="11.21598213175647"><ele>366.75</ele><time>2026-04-09T10:22:02Z</time></trkpt><trkpt lat="43.93975296265219" lon="11.215957308872175"><ele>368.5</ele><time>2026-04-09T10:22:03Z</time></trkpt><trkpt lat="43.93989406456076" lon="11.215934741896353"><ele>370.25</ele><time>2026-04-09T10:22:04Z</time></trkpt><trkpt lat="43.94003718040674" lon="11.215897942537712"><ele>372.0</ele><time>2026-04-09T10:22:05Z</time></trkpt><trkpt lat="43.94017342028394" lon="11.215864622789995"><ele>374.0</ele><time>2026-04-09T10:22:06Z</time></trkpt><trkpt lat="43.94029227336636" lon="11.215824367364734"><ele>376.0</ele><time>2026-04-09T10:22:07Z</time></trkpt><trkpt lat="43.94041431766722" lon="11.215788190192479"><ele>378.0</ele><time>2026-04-09T10:22:08Z</time></trkpt><trkpt lat="43.94054435765021" lon="11.215746904721453"><ele>380.0</ele><time>2026-04-09T10:22:09Z</time></trkpt><trkpt lat="43.94067856512568" lon="11.215696238762556"><ele>380.6</ele><time>2026-04-09T10:22:10Z</time></trkpt><trkpt lat="43.94078796873274" lon="11.215651529318162"><ele>381.2</ele><time>2026-04-09T10:22:11Z</time></trkpt><trkpt lat="43.94087931573991" lon="11.215611473849037"><ele>381.79999999999995</ele><time>2026-04-09T10:22:12Z</time></trkpt><trkpt lat="43.94097607664309" lon="11.215570053349932"><ele>382.4</ele><time>2026-04-09T10:22:13Z</time></trkpt><trkpt lat="43.9410734425547" lon="11.215529544832336"><ele>383.0</ele><time>2026-04-09T10:22:14Z</time></trkpt><trkpt lat="43.94116999229456" lon="11.21548366524739"><ele>383.0</ele><time>2026-04-09T10:22:15Z</time></trkpt><trkpt lat="43.941269236651685" lon="11.215432681215349"><ele>383.0</ele><time>2026-04-09T10:22:16Z</time></trkpt><trkpt lat="43.941373588017356" lon="11.21537307822762"><ele>383.0</ele><time>2026-04-09T10:22:17Z</time></trkpt><trkpt lat="43.94148309607081" lon="11.215314976401634"><ele>383.0</ele><time>2026-04-09T10:22:18Z</time></trkpt><trkpt lat="43.94158631417162" lon="11.215256318507052"><ele>383.0</ele><time>2026-04-09T10:22:19Z</time></trkpt><trkpt lat="43.94167489229344" lon="11.215213137268096"><ele>385.4</ele><time>2026-04-09T10:22:20Z</time></trkpt><trkpt lat="43.94176341019512" lon="11.215196567352757"><ele>387.79999999999995</ele><time>2026-04-09T10:22:21Z</time></trkpt><trkpt lat="43.94187691749091" lon="11.215226858191143"><ele>390.2</ele><time>2026-04-09T10:22:23Z</time></trkpt><trkpt lat="43.941935551834526" lon="11.215298550548974"><ele>392.6</ele><time>2026-04-09T10:22:25Z</time></trkpt><trkpt lat="43.941989408782646" lon="11.215424240787751"><ele>395.0</ele><time>2026-04-09T10:22:27Z</time></trkpt><trkpt lat="43.94200088590591" lon="11.215523213960756"><ele>394.99999999999994</ele><time>2026-04-09T10:22:28Z</time></trkpt><trkpt lat="43.94198448408384" lon="11.215635456669284"><ele>395.0</ele><time>2026-04-09T10:22:29Z</time></trkpt><trkpt lat="43.94192291338933" lon="11.215744698538078"><ele>395.0</ele><time>2026-04-09T10:22:30Z</time></trkpt><trkpt lat="43.94186267973348" lon="11.215805754796278"><ele>395.0</ele><time>2026-04-09T10:22:31Z</time></trkpt><trkpt lat="43.94177842857862" lon="11.215846386728584"><ele>394.99999999999994</ele><time>2026-04-09T10:22:32Z</time></trkpt><trkpt lat="43.941692569199795" lon="11.215888540976295"><ele>395.0</ele><time>2026-04-09T10:22:33Z</time></trkpt><trkpt lat="43.94160592888933" lon="11.215973397222625"><ele>394.4</ele><time>2026-04-09T10:22:34Z</time></trkpt><trkpt lat="43.9415248962202" lon="11.216098980407944"><ele>393.8</ele><time>2026-04-09T10:22:35Z</time></trkpt><trkpt lat="43.9414712290445" lon="11.216208803136972"><ele>393.20000000000005</ele><time>2026-04-09T10:22:36Z</time></trkpt><trkpt lat="43.94143419790784" lon="11.216322051706683"><ele>392.6</ele><time>2026-04-09T10:22:37Z</time></trkpt><trkpt lat="43.94140789955884" lon="11.21645862839193"><ele>392.0</ele><time>2026-04-09T10:22:38Z</time></trkpt><trkpt lat="43.94139160653261" lon="11.216603752797056"><ele>393.20000000000005</ele><time>2026-04-09T10:22:39Z</time></trkpt><trkpt lat="43.941397649896025" lon="11.216732852849818"><ele>394.4</ele><time>2026-04-09T10:22:40Z</time></trkpt><trkpt lat="43.94141982977979" lon="11.216846678682897"><ele>395.6</ele><time>2026-04-09T10:22:41Z</time></trkpt><trkpt lat="43.94146349280901" lon="11.216959468861535"><ele>396.79999999999995</ele><time>2026-04-09T10:22:42Z</time></trkpt><trkpt lat="43.941534818841724" lon="11.217050461977706"><ele>398.0</ele><time>2026-04-09T10:22:43Z</time></trkpt><trkpt lat="43.94161491561706" lon="11.217106544524883"><ele>397.99999999999994</ele><time>2026-04-09T10:22:44Z</time></trkpt><trkpt lat="43.941685617377445" lon="11.217128275185466"><ele>398.0</ele><time>2026-04-09T10:22:45Z</time></trkpt><trkpt lat="43.94176547866384" lon="11.217131544457654"><ele>398.0</ele><time>2026-04-09T10:22:46Z</time></trkpt><trkpt lat="43.941856189603435" lon="11.217131938562854"><ele>398.0</ele><time>2026-04-09T10:22:47Z</time></trkpt><trkpt lat="43.94194041096883" lon="11.217077418858846"><ele>397.99999999999994</ele><time>2026-04-09T10:22:48Z</time></trkpt><trkpt lat="43.94200535557913" lon="11.216999400310694"><ele>398.0</ele><time>2026-04-09T10:22:49Z</time></trkpt><trkpt lat="43.94206428050051" lon="11.216883987258635"><ele>398.79999999999995</ele><time>2026-04-09T10:22:50Z</time></trkpt><trkpt lat="43.942121543723594" lon="11.216764433586658"><ele>399.6</ele><time>2026-04-09T10:22:51Z</time></trkpt><trkpt lat="43.94216363962952" lon="11.216674218146691"><ele>400.4</ele><time>2026-04-09T10:22:52Z</time></trkpt><trkpt lat="43.94221149393318" lon="11.216588797894264"><ele>401.20000000000005</ele><time>2026-04-09T10:22:53Z</time></trkpt><trkpt lat="43.94227198950642" lon="11.216489626993946"><ele>402.0</ele><time>2026-04-09T10:22:54Z</time></trkpt><trkpt lat="43.942344087363885" lon="11.216376153958143"><ele>402.0</ele><time>2026-04-09T10:22:55Z</time></trkpt><trkpt lat="43.94247552621154" lon="11.2163113191067"><ele>402.0</ele><time>2026-04-09T10:22:56Z</time></trkpt><trkpt lat="43.94260107339472" lon="11.216236000557021"><ele>402.0</ele><time>2026-04-09T10:22:57Z</time></trkpt><trkpt lat="43.94274399940983" lon="11.216156956425216"><ele>402.0</ele><time>2026-04-09T10:22:58Z</time></trkpt><trkpt lat="43.94285892753172" lon="11.21607099186184"><ele>404.40000000000003</ele><time>2026-04-09T10:22:59Z</time></trkpt><trkpt lat="43.94296260675905" lon="11.216018178026108"><ele>406.8</ele><time>2026-04-09T10:23:00Z</time></trkpt><trkpt lat="43.94305750727719" lon="11.215965496971304"><ele>409.2</ele><time>2026-04-09T10:23:01Z</time></trkpt><trkpt lat="43.943164379787575" lon="11.215915224521428"><ele>411.6</ele><time>2026-04-09T10:23:02Z</time></trkpt><trkpt lat="43.9432783050629" lon="11.21588293534026"><ele>414.0</ele><time>2026-04-09T10:23:03Z</time></trkpt><trkpt lat="43.94340023524471" lon="11.215857537437596"><ele>415.75</ele><time>2026-04-09T10:23:04Z</time></trkpt><trkpt lat="43.943516031974504" lon="11.215794410351439"><ele>417.5</ele><time>2026-04-09T10:23:05Z</time></trkpt><trkpt lat="43.94362283532926" lon="11.215738984114298"><ele>419.25</ele><time>2026-04-09T10:23:06Z</time></trkpt><trkpt lat="43.94371344174696" lon="11.215645238248255"><ele>421.0</ele><time>2026-04-09T10:23:07Z</time></trkpt><trkpt lat="43.94380006588064" lon="11.215512644207143"><ele>421.0</ele><time>2026-04-09T10:23:08Z</time></trkpt><trkpt lat="43.94387791569853" lon="11.21538238693946"><ele>421.0</ele><time>2026-04-09T10:23:09Z</time></trkpt><trkpt lat="43.9439499003927" lon="11.215263263851886"><ele>421.0</ele><time>2026-04-09T10:23:10Z</time></trkpt><trkpt lat="43.94401916474714" lon="11.215145995112383"><ele>421.0</ele><time>2026-04-09T10:23:11Z</time></trkpt><trkpt lat="43.94409236915114" lon="11.215020084219587"><ele>421.0</ele><time>2026-04-09T10:23:12Z</time></trkpt><trkpt lat="43.944160647603304" lon="11.21490423132544"><ele>421.0</ele><time>2026-04-09T10:23:13Z</time></trkpt><trkpt lat="43.944212615083714" lon="11.214817332893583"><ele>421.0</ele><time>2026-04-09T10:23:14Z</time></trkpt><trkpt lat="43.944258421593496" lon="11.214731725975348"><ele>421.0</ele><time>2026-04-09T10:23:15Z</time></trkpt><trkpt lat="43.94432326833826" lon="11.214647547331461"><ele>421.0</ele><time>2026-04-09T10:23:16Z</time></trkpt><trkpt lat="43.94438571232198" lon="11.214540449002332"><ele>422.20000000000005</ele><time>2026-04-09T10:23:17Z</time></trkpt><trkpt lat="43.944452280265445" lon="11.214429853868907"><ele>423.40000000000003</ele><time>2026-04-09T10:23:18Z</time></trkpt><trkpt lat="43.94450848639343" lon="11.214338866985418"><ele>424.6</ele><time>2026-04-09T10:23:19Z</time></trkpt><trkpt lat="43.944568566385385" lon="11.214241609179416"><ele>425.8</ele><time>2026-04-09T10:23:20Z</time></trkpt><trkpt lat="43.9446333879821" lon="11.214132916958865"><ele>427.0</ele><time>2026-04-09T10:23:20.999Z</time></trkpt><trkpt lat="43.94468087454289" lon="11.214052942766509"><ele>427.33333333333337</ele><time>2026-04-09T10:23:21.999Z</time></trkpt><trkpt lat="43.94472460708651" lon="11.213979290960776"><ele>427.6666666666667</ele><time>2026-04-09T10:23:22.999Z</time></trkpt><trkpt lat="43.94476885488616" lon="11.21390848494674"><ele>428.0</ele><time>2026-04-09T10:23:23.999Z</time></trkpt><trkpt lat="43.94482459987582" lon="11.213830548186936"><ele>428.33333333333337</ele><time>2026-04-09T10:23:24.999Z</time></trkpt><trkpt lat="43.94492699413276" lon="11.213755142168303"><ele>428.6666666666667</ele><time>2026-04-09T10:23:26.999Z</time></trkpt><trkpt lat="43.94499518315773" lon="11.21379502873223"><ele>429.0</ele><time>2026-04-09T10:23:27.999Z</time></trkpt><trkpt lat="43.94507474614193" lon="11.213788960904818"><ele>429.0</ele><time>2026-04-09T10:23:28.999Z</time></trkpt><trkpt lat="43.94516142603038" lon="11.213794663459227"><ele>429.0</ele><time>2026-04-09T10:23:29.999Z</time></trkpt><trkpt lat="43.94522738150406" lon="11.21378109859058"><ele>429.0</ele><time>2026-04-09T10:23:30.999Z</time></trkpt><trkpt lat="43.94529753948657" lon="11.213769204230395"><ele>429.0</ele><time>2026-04-09T10:23:31.999Z</time></trkpt><trkpt lat="43.94548134013702" lon="11.21369958849641"><ele>429.0</ele><time>2026-04-09T10:23:33.999Z</time></trkpt><trkpt lat="43.945597785155186" lon="11.21360993841342"><ele>429.0</ele><time>2026-04-09T10:23:34.999Z</time></trkpt><trkpt lat="43.9456953220094" lon="11.213537949766161"><ele>429.0</ele><time>2026-04-09T10:23:35.999Z</time></trkpt><trkpt lat="43.94580576712998" lon="11.213506142769791"><ele>429.0</ele><time>2026-04-09T10:23:36.999Z</time></trkpt><trkpt lat="43.945905017636534" lon="11.213442837655037"><ele>429.0</ele><time>2026-04-09T10:23:37.999Z</time></trkpt><trkpt lat="43.946004766854266" lon="11.213382238163529"><ele>429.0</ele><time>2026-04-09T10:23:38.999Z</time></trkpt><trkpt lat="43.94611210073336" lon="11.213322610871575"><ele>426.25</ele><time>2026-04-09T10:23:39.999Z</time></trkpt><trkpt lat="43.946239741318145" lon="11.213268015376208"><ele>423.5</ele><time>2026-04-09T10:23:40.999Z</time></trkpt><trkpt lat="43.94637030746812" lon="11.213223570802842"><ele>420.75</ele><time>2026-04-09T10:23:41.999Z</time></trkpt><trkpt lat="43.946500959444606" lon="11.213202174783191"><ele>418.0</ele><time>2026-04-09T10:23:42.999Z</time></trkpt><trkpt lat="43.94662542542408" lon="11.213160884694501"><ele>415.75</ele><time>2026-04-09T10:23:43.999Z</time></trkpt><trkpt lat="43.946737897855016" lon="11.213142424358043"><ele>413.5</ele><time>2026-04-09T10:23:44.999Z</time></trkpt><trkpt lat="43.94685529175153" lon="11.213088922849638"><ele>411.25</ele><time>2026-04-09T10:23:45.999Z</time></trkpt><trkpt lat="43.94696132606867" lon="11.212988538944755"><ele>409.0</ele><time>2026-04-09T10:23:46.999Z</time></trkpt><trkpt lat="43.94704342128805" lon="11.212861374243651"><ele>409.0</ele><time>2026-04-09T10:23:47.999Z</time></trkpt><trkpt lat="43.94709548849162" lon="11.212710675272897"><ele>409.0</ele><time>2026-04-09T10:23:49Z</time></trkpt><trkpt lat="43.94715133806635" lon="11.212545442121684"><ele>409.0</ele><time>2026-04-09T10:23:50Z</time></trkpt><trkpt lat="43.94720230835168" lon="11.21240414985965"><ele>409.0</ele><time>2026-04-09T10:23:51Z</time></trkpt><trkpt lat="43.94726439717546" lon="11.212286380754046"><ele>410.2</ele><time>2026-04-09T10:23:52Z</time></trkpt><trkpt lat="43.94734389042027" lon="11.212188368909109"><ele>411.4</ele><time>2026-04-09T10:23:53Z</time></trkpt><trkpt lat="43.94744634211155" lon="11.21211213850629"><ele>412.6</ele><time>2026-04-09T10:23:54Z</time></trkpt><trkpt lat="43.9475498116466" lon="11.212053134413111"><ele>413.8</ele><time>2026-04-09T10:23:55Z</time></trkpt><trkpt lat="43.94764882979406" lon="11.211977993135982"><ele>415.0</ele><time>2026-04-09T10:23:56Z</time></trkpt><trkpt lat="43.94774374257436" lon="11.211857077919058"><ele>411.5</ele><time>2026-04-09T10:23:57Z</time></trkpt><trkpt lat="43.947816433545256" lon="11.211712627500997"><ele>408.0</ele><time>2026-04-09T10:23:58Z</time></trkpt><trkpt lat="43.94784278329064" lon="11.211545325197443"><ele>404.5</ele><time>2026-04-09T10:23:59Z</time></trkpt><trkpt lat="43.947890435886414" lon="11.211383330931376"><ele>401.0</ele><time>2026-04-09T10:24:00Z</time></trkpt><trkpt lat="43.94789442519361" lon="11.211195171692532"><ele>401.0</ele><time>2026-04-09T10:24:01Z</time></trkpt><trkpt lat="43.9479090146501" lon="11.211030141429918"><ele>401.0</ele><time>2026-04-09T10:24:02Z</time></trkpt><trkpt lat="43.94793773716943" lon="11.210870162686684"><ele>401.0</ele><time>2026-04-09T10:24:03Z</time></trkpt><trkpt lat="43.94798300851374" lon="11.21072936262645"><ele>401.0</ele><time>2026-04-09T10:24:04Z</time></trkpt><trkpt lat="43.94806320287136" lon="11.21061485922025"><ele>404.5</ele><time>2026-04-09T10:24:05Z</time></trkpt><trkpt lat="43.94814446491915" lon="11.210510978383308"><ele>408.0</ele><time>2026-04-09T10:24:06Z</time></trkpt><trkpt lat="43.9482588369207" lon="11.210487117733127"><ele>411.5</ele><time>2026-04-09T10:24:07Z</time></trkpt><trkpt lat="43.94837609296922" lon="11.210450697058375"><ele>415.0</ele><time>2026-04-09T10:24:08Z</time></trkpt><trkpt lat="43.94851199111652" lon="11.210481745571391"><ele>416.5</ele><time>2026-04-09T10:24:09Z</time></trkpt><trkpt lat="43.94862284245573" lon="11.2105474993513"><ele>418.0</ele><time>2026-04-09T10:24:10Z</time></trkpt><trkpt lat="43.948719016554534" lon="11.210639752643905"><ele>419.5</ele><time>2026-04-09T10:24:11Z</time></trkpt><trkpt lat="43.94881711266147" lon="11.210732491898536"><ele>421.0</ele><time>2026-04-09T10:24:12Z</time></trkpt><trkpt lat="43.9489272121866" lon="11.2107992427963"><ele>416.25</ele><time>2026-04-09T10:24:13Z</time></trkpt><trkpt lat="43.949042883496276" lon="11.21082841778746"><ele>411.5</ele><time>2026-04-09T10:24:14Z</time></trkpt><trkpt lat="43.94915536425448" lon="11.210836651632011"><ele>406.75</ele><time>2026-04-09T10:24:15Z</time></trkpt><trkpt lat="43.94926736706305" lon="11.210816781391387"><ele>402.0</ele><time>2026-04-09T10:24:16Z</time></trkpt><trkpt lat="43.94938308353833" lon="11.21077257576735"><ele>402.25</ele><time>2026-04-09T10:24:17Z</time></trkpt><trkpt lat="43.949497330450846" lon="11.21075098972277"><ele>402.5</ele><time>2026-04-09T10:24:18Z</time></trkpt><trkpt lat="43.949615776665176" lon="11.210647193996506"><ele>402.75</ele><time>2026-04-09T10:24:19Z</time></trkpt><trkpt lat="43.94973444636222" lon="11.210505784087218"><ele>403.0</ele><time>2026-04-09T10:24:20Z</time></trkpt><trkpt lat="43.94981916292654" lon="11.210335805693521"><ele>403.0</ele><time>2026-04-09T10:24:21Z</time></trkpt><trkpt lat="43.94989918936329" lon="11.210185813106525"><ele>403.0</ele><time>2026-04-09T10:24:22Z</time></trkpt><trkpt lat="43.949952825592966" lon="11.210037104812436"><ele>403.0</ele><time>2026-04-09T10:24:23Z</time></trkpt><trkpt lat="43.950001017795365" lon="11.209864442987271"><ele>403.0</ele><time>2026-04-09T10:24:24Z</time></trkpt><trkpt lat="43.95005526615315" lon="11.209697156574805"><ele>403.2</ele><time>2026-04-09T10:24:25Z</time></trkpt><trkpt lat="43.95009539284722" lon="11.209546841783364"><ele>403.4</ele><time>2026-04-09T10:24:26Z</time></trkpt><trkpt lat="43.950123485537404" lon="11.209404851926436"><ele>403.59999999999997</ele><time>2026-04-09T10:24:27Z</time></trkpt><trkpt lat="43.9501714869364" lon="11.209319506548296"><ele>403.79999999999995</ele><time>2026-04-09T10:24:28Z</time></trkpt><trkpt lat="43.95025894800293" lon="11.20928296959014"><ele>404.0</ele><time>2026-04-09T10:24:29Z</time></trkpt><trkpt lat="43.950328479082586" lon="11.209246506149743"><ele>403.99999999999994</ele><time>2026-04-09T10:24:30Z</time></trkpt><trkpt lat="43.95040395769051" lon="11.20926375825809"><ele>404.0</ele><time>2026-04-09T10:24:31Z</time></trkpt><trkpt lat="43.95047222290875" lon="11.209294804730234"><ele>404.0</ele><time>2026-04-09T10:24:32Z</time></trkpt><trkpt lat="43.95053334618554" lon="11.2093562489641"><ele>404.0</ele><time>2026-04-09T10:24:33Z</time></trkpt><trkpt lat="43.95059332520686" lon="11.209438799322998"><ele>403.99999999999994</ele><time>2026-04-09T10:24:34Z</time></trkpt><trkpt lat="43.95064131326604" lon="11.209552064952137"><ele>404.0</ele><time>2026-04-09T10:24:35Z</time></trkpt><trkpt lat="43.95067664179028" lon="11.20968190659282"><ele>402.5</ele><time>2026-04-09T10:24:36Z</time></trkpt><trkpt lat="43.95069888948991" lon="11.209835575642922"><ele>401.0</ele><time>2026-04-09T10:24:37Z</time></trkpt><trkpt lat="43.950721044293324" lon="11.210029962015726"><ele>399.5</ele><time>2026-04-09T10:24:38Z</time></trkpt><trkpt lat="43.95075567152863" lon="11.210226355096626"><ele>398.0</ele><time>2026-04-09T10:24:39Z</time></trkpt><trkpt lat="43.950786214584504" lon="11.210403284613513"><ele>398.0</ele><time>2026-04-09T10:24:40Z</time></trkpt><trkpt lat="43.95081297746387" lon="11.210566355085291"><ele>398.0</ele><time>2026-04-09T10:24:41Z</time></trkpt><trkpt lat="43.95084069736639" lon="11.210732999094626"><ele>398.0</ele><time>2026-04-09T10:24:42Z</time></trkpt><trkpt lat="43.9508664284137" lon="11.210894143365442"><ele>398.0</ele><time>2026-04-09T10:24:43Z</time></trkpt><trkpt lat="43.95089471385978" lon="11.211047114153969"><ele>398.5</ele><time>2026-04-09T10:24:44Z</time></trkpt><trkpt lat="43.95093964125572" lon="11.211198244539593"><ele>399.0</ele><time>2026-04-09T10:24:45Z</time></trkpt><trkpt lat="43.95101411185694" lon="11.21134985164385"><ele>399.5</ele><time>2026-04-09T10:24:46Z</time></trkpt><trkpt lat="43.95111447619482" lon="11.211506553420827"><ele>400.0</ele><time>2026-04-09T10:24:47Z</time></trkpt><trkpt lat="43.95123576900136" lon="11.21166864684204"><ele>400.0</ele><time>2026-04-09T10:24:48Z</time></trkpt><trkpt lat="43.951360383264365" lon="11.211840798967899"><ele>400.0</ele><time>2026-04-09T10:24:49Z</time></trkpt><trkpt lat="43.9514728446936" lon="11.21199876357005"><ele>400.0</ele><time>2026-04-09T10:24:50Z</time></trkpt><trkpt lat="43.951569025840925" lon="11.212140252605801"><ele>400.0</ele><time>2026-04-09T10:24:51Z</time></trkpt><trkpt lat="43.951658013166" lon="11.21227034316315"><ele>400.0</ele><time>2026-04-09T10:24:52Z</time></trkpt><trkpt lat="43.95174615150505" lon="11.212400586951867"><ele>400.0</ele><time>2026-04-09T10:24:53Z</time></trkpt><trkpt lat="43.95183502234262" lon="11.21252989109957"><ele>400.0</ele><time>2026-04-09T10:24:54Z</time></trkpt><trkpt lat="43.95194931007633" lon="11.212657790930397"><ele>396.75</ele><time>2026-04-09T10:24:55Z</time></trkpt><trkpt lat="43.95206645272419" lon="11.212761901302574"><ele>393.5</ele><time>2026-04-09T10:24:56Z</time></trkpt><trkpt lat="43.952180184010544" lon="11.212851067620194"><ele>390.25</ele><time>2026-04-09T10:24:57Z</time></trkpt><trkpt lat="43.9523025881686" lon="11.21294723365329"><ele>387.0</ele><time>2026-04-09T10:24:58Z</time></trkpt><trkpt lat="43.95242306448938" lon="11.21305204330996"><ele>387.0</ele><time>2026-04-09T10:24:59Z</time></trkpt><trkpt lat="43.952536047335194" lon="11.213151838340455"><ele>387.0</ele><time>2026-04-09T10:25:00Z</time></trkpt><trkpt lat="43.95264578831664" lon="11.213238103304471"><ele>387.0</ele><time>2026-04-09T10:25:01Z</time></trkpt><trkpt lat="43.952763511397464" lon="11.213307496352266"><ele>387.0</ele><time>2026-04-09T10:25:02Z</time></trkpt><trkpt lat="43.95289750303122" lon="11.213351233104554"><ele>384.75</ele><time>2026-04-09T10:25:03Z</time></trkpt><trkpt lat="43.95304778645108" lon="11.213383163976735"><ele>382.5</ele><time>2026-04-09T10:25:04Z</time></trkpt><trkpt lat="43.953198673292874" lon="11.213402801806309"><ele>380.25</ele><time>2026-04-09T10:25:05Z</time></trkpt><trkpt lat="43.953338023352615" lon="11.21340473559273"><ele>378.0</ele><time>2026-04-09T10:25:06Z</time></trkpt><trkpt lat="43.95347173467564" lon="11.213388144161007"><ele>378.0</ele><time>2026-04-09T10:25:07Z</time></trkpt><trkpt lat="43.953600719874714" lon="11.213354540715047"><ele>378.0</ele><time>2026-04-09T10:25:08Z</time></trkpt><trkpt lat="43.9537221014262" lon="11.213317023662285"><ele>378.0</ele><time>2026-04-09T10:25:09Z</time></trkpt><trkpt lat="43.95384392342425" lon="11.21331993016463"><ele>378.0</ele><time>2026-04-09T10:25:10Z</time></trkpt><trkpt lat="43.953952679945864" lon="11.213381179948565"><ele>378.0</ele><time>2026-04-09T10:25:10.999Z</time></trkpt><trkpt lat="43.954054122211744" lon="11.213474733582466"><ele>378.0</ele><time>2026-04-09T10:25:11.999Z</time></trkpt><trkpt lat="43.954166302167515" lon="11.213561099544908"><ele>378.0</ele><time>2026-04-09T10:25:12.999Z</time></trkpt><trkpt lat="43.954273534550325" lon="11.213611269729363"><ele>378.0</ele><time>2026-04-09T10:25:13.999Z</time></trkpt><trkpt lat="43.95438141936673" lon="11.213633124540964"><ele>375.5</ele><time>2026-04-09T10:25:14.999Z</time></trkpt><trkpt lat="43.954492899368624" lon="11.213625618804665"><ele>373.0</ele><time>2026-04-09T10:25:15.999Z</time></trkpt><trkpt lat="43.95462181591797" lon="11.213591237667757"><ele>370.5</ele><time>2026-04-09T10:25:16.999Z</time></trkpt><trkpt lat="43.954746308514814" lon="11.213545962819824"><ele>368.0</ele><time>2026-04-09T10:25:17.999Z</time></trkpt><trkpt lat="43.95486835369246" lon="11.213505666988915"><ele>368.0</ele><time>2026-04-09T10:25:18.999Z</time></trkpt><trkpt lat="43.954984776851205" lon="11.213467706814033"><ele>368.0</ele><time>2026-04-09T10:25:19.999Z</time></trkpt><trkpt lat="43.95510294600054" lon="11.213430453447888"><ele>368.0</ele><time>2026-04-09T10:25:20.999Z</time></trkpt><trkpt lat="43.955222455553915" lon="11.213393481861978"><ele>368.0</ele><time>2026-04-09T10:25:21.999Z</time></trkpt><trkpt lat="43.95535125505285" lon="11.213347819245778"><ele>364.75</ele><time>2026-04-09T10:25:22.999Z</time></trkpt><trkpt lat="43.95549338113803" lon="11.213303354877311"><ele>361.5</ele><time>2026-04-09T10:25:23.999Z</time></trkpt><trkpt lat="43.955637300513864" lon="11.21328664562857"><ele>358.25</ele><time>2026-04-09T10:25:24.999Z</time></trkpt><trkpt lat="43.955779967956" lon="11.213287395568988"><ele>355.0</ele><time>2026-04-09T10:25:25.999Z</time></trkpt><trkpt lat="43.95591868232312" lon="11.213303949796892"><ele>352.75</ele><time>2026-04-09T10:25:26.999Z</time></trkpt><trkpt lat="43.95605536087403" lon="11.213326268067073"><ele>350.5</ele><time>2026-04-09T10:25:27.999Z</time></trkpt><trkpt lat="43.956191931500236" lon="11.21334771618869"><ele>348.25</ele><time>2026-04-09T10:25:28.999Z</time></trkpt><trkpt lat="43.95634286589993" lon="11.213364801193885"><ele>346.0</ele><time>2026-04-09T10:25:29.999Z</time></trkpt><trkpt lat="43.95649183456431" lon="11.213377596138109"><ele>346.0</ele><time>2026-04-09T10:25:30.999Z</time></trkpt><trkpt lat="43.95663392315548" lon="11.213392913423784"><ele>346.0</ele><time>2026-04-09T10:25:31.999Z</time></trkpt><trkpt lat="43.9567655269478" lon="11.213407099356623"><ele>346.0</ele><time>2026-04-09T10:25:32.999Z</time></trkpt><trkpt lat="43.956886548005414" lon="11.213417703610789"><ele>346.0</ele><time>2026-04-09T10:25:33.999Z</time></trkpt><trkpt lat="43.957000281570316" lon="11.213416749730248"><ele>343.6</ele><time>2026-04-09T10:25:34.999Z</time></trkpt><trkpt lat="43.95710956512472" lon="11.213413448705127"><ele>341.20000000000005</ele><time>2026-04-09T10:25:35.999Z</time></trkpt><trkpt lat="43.95722196791345" lon="11.213401942288506"><ele>338.79999999999995</ele><time>2026-04-09T10:25:36.999Z</time></trkpt><trkpt lat="43.95733575800154" lon="11.213386643248052"><ele>336.4</ele><time>2026-04-09T10:25:37.999Z</time></trkpt><trkpt lat="43.95743983017994" lon="11.213373117780023"><ele>334.0</ele><time>2026-04-09T10:25:38.999Z</time></trkpt><trkpt lat="43.95754350858586" lon="11.213364742932242"><ele>331.2</ele><time>2026-04-09T10:25:39.999Z</time></trkpt><trkpt lat="43.95763819551035" lon="11.213381141016932"><ele>328.4</ele><time>2026-04-09T10:25:40.999Z</time></trkpt><trkpt lat="43.957731694031175" lon="11.213414656068254"><ele>325.6</ele><time>2026-04-09T10:25:41.999Z</time></trkpt><trkpt lat="43.957807435089286" lon="11.213484873392781"><ele>322.8</ele><time>2026-04-09T10:25:42.999Z</time></trkpt><trkpt lat="43.95787169040592" lon="11.213568829013862"><ele>320.0</ele><time>2026-04-09T10:25:43.999Z</time></trkpt><trkpt lat="43.95794112666208" lon="11.213628800417908"><ele>320.0</ele><time>2026-04-09T10:25:44.999Z</time></trkpt><trkpt lat="43.95802314231467" lon="11.21369597499145"><ele>320.0</ele><time>2026-04-09T10:25:45.999Z</time></trkpt><trkpt lat="43.95811587241848" lon="11.213772669096606"><ele>320.0</ele><time>2026-04-09T10:25:46.999Z</time></trkpt><trkpt lat="43.9582122912338" lon="11.21381759288722"><ele>320.0</ele><time>2026-04-09T10:25:47.999Z</time></trkpt><trkpt lat="43.95831289219158" lon="11.213885717760752"><ele>320.0</ele><time>2026-04-09T10:25:48.999Z</time></trkpt><trkpt lat="43.95841790782963" lon="11.213973729475677"><ele>318.75</ele><time>2026-04-09T10:25:49.999Z</time></trkpt><trkpt lat="43.958538702384004" lon="11.214084810310741"><ele>317.5</ele><time>2026-04-09T10:25:50.999Z</time></trkpt><trkpt lat="43.95865474016396" lon="11.21419052026158"><ele>316.25</ele><time>2026-04-09T10:25:51.999Z</time></trkpt><trkpt lat="43.95876787461626" lon="11.214285941032598"><ele>315.0</ele><time>2026-04-09T10:25:52.999Z</time></trkpt><trkpt lat="43.95888548851542" lon="11.214363575909497"><ele>315.0</ele><time>2026-04-09T10:25:53.999Z</time></trkpt><trkpt lat="43.95900659380806" lon="11.214422268836168"><ele>315.0</ele><time>2026-04-09T10:25:55Z</time></trkpt><trkpt lat="43.9591247490464" lon="11.214468224948769"><ele>315.0</ele><time>2026-04-09T10:25:56Z</time></trkpt><trkpt lat="43.95924605714361" lon="11.214498235848684"><ele>315.0</ele><time>2026-04-09T10:25:57Z</time></trkpt><trkpt lat="43.95936448519059" lon="11.214512071390349"><ele>314.0</ele><time>2026-04-09T10:25:58Z</time></trkpt><trkpt lat="43.95947335234691" lon="11.214518164884892"><ele>313.0</ele><time>2026-04-09T10:25:59Z</time></trkpt><trkpt lat="43.95960326366205" lon="11.214512685599404"><ele>312.0</ele><time>2026-04-09T10:26:00Z</time></trkpt><trkpt lat="43.95974046668051" lon="11.214506379352486"><ele>311.0</ele><time>2026-04-09T10:26:01Z</time></trkpt><trkpt lat="43.959839159829244" lon="11.214507759495158"><ele>311.0</ele><time>2026-04-09T10:26:02Z</time></trkpt><trkpt lat="43.95996305753045" lon="11.214490918413622"><ele>311.0</ele><time>2026-04-09T10:26:03Z</time></trkpt><trkpt lat="43.96008020347203" lon="11.214479105895608"><ele>311.0</ele><time>2026-04-09T10:26:04Z</time></trkpt><trkpt lat="43.96018885051671" lon="11.214470436557624"><ele>311.0</ele><time>2026-04-09T10:26:05Z</time></trkpt><trkpt lat="43.96030423471598" lon="11.214502239999423"><ele>310.0</ele><time>2026-04-09T10:26:06Z</time></trkpt><trkpt lat="43.96042036046661" lon="11.214562676860693"><ele>309.0</ele><time>2026-04-09T10:26:07Z</time></trkpt><trkpt lat="43.96054627358172" lon="11.214643910482128"><ele>308.0</ele><time>2026-04-09T10:26:08Z</time></trkpt><trkpt lat="43.96067794462733" lon="11.21474790939727"><ele>307.0</ele><time>2026-04-09T10:26:09Z</time></trkpt><trkpt lat="43.96079461525979" lon="11.21484792757923"><ele>306.66666666666663</ele><time>2026-04-09T10:26:10Z</time></trkpt><trkpt lat="43.960921388840504" lon="11.214954778962333"><ele>306.3333333333333</ele><time>2026-04-09T10:26:11Z</time></trkpt><trkpt lat="43.9610630770267" lon="11.215062729411569"><ele>306.0</ele><time>2026-04-09T10:26:12Z</time></trkpt><trkpt lat="43.96121447908442" lon="11.215174707867561"><ele>306.0</ele><time>2026-04-09T10:26:13Z</time></trkpt><trkpt lat="43.96137313244134" lon="11.215291209801832"><ele>306.0</ele><time>2026-04-09T10:26:14Z</time></trkpt><trkpt lat="43.96151903229382" lon="11.21539519100168"><ele>306.0</ele><time>2026-04-09T10:26:15Z</time></trkpt><trkpt lat="43.96165751963516" lon="11.215495295386788"><ele>306.0</ele><time>2026-04-09T10:26:16Z</time></trkpt><trkpt lat="43.961791742975315" lon="11.215591053304934"><ele>306.0</ele><time>2026-04-09T10:26:17Z</time></trkpt><trkpt lat="43.9619311333857" lon="11.215694365778404"><ele>306.0</ele><time>2026-04-09T10:26:18Z</time></trkpt><trkpt lat="43.96207622387368" lon="11.215806596941428"><ele>306.0</ele><time>2026-04-09T10:26:19Z</time></trkpt><trkpt lat="43.96222944384663" lon="11.215923998916924"><ele>306.0</ele><time>2026-04-09T10:26:20Z</time></trkpt><trkpt lat="43.962381677121165" lon="11.216042373430287"><ele>306.0</ele><time>2026-04-09T10:26:21Z</time></trkpt><trkpt lat="43.96251682750072" lon="11.216153594848047"><ele>308.6666666666667</ele><time>2026-04-09T10:26:22Z</time></trkpt><trkpt lat="43.96264887922261" lon="11.216259250107068"><ele>311.33333333333337</ele><time>2026-04-09T10:26:23Z</time></trkpt><trkpt lat="43.962780862108325" lon="11.216359796084435"><ele>314.0</ele><time>2026-04-09T10:26:24Z</time></trkpt><trkpt lat="43.96291611627344" lon="11.216473898243377"><ele>311.25</ele><time>2026-04-09T10:26:25Z</time></trkpt><trkpt lat="43.96304007922108" lon="11.216586939577695"><ele>308.5</ele><time>2026-04-09T10:26:26Z</time></trkpt><trkpt lat="43.96316559568234" lon="11.216668910235533"><ele>305.75</ele><time>2026-04-09T10:26:27Z</time></trkpt><trkpt lat="43.96330158784728" lon="11.21671267506385"><ele>303.0</ele><time>2026-04-09T10:26:28Z</time></trkpt><trkpt lat="43.96345567896749" lon="11.21670579235026"><ele>303.0</ele><time>2026-04-09T10:26:29Z</time></trkpt><trkpt lat="43.96361990977633" lon="11.216670281727938"><ele>303.0</ele><time>2026-04-09T10:26:30Z</time></trkpt><trkpt lat="43.9637901276854" lon="11.216601166026141"><ele>303.0</ele><time>2026-04-09T10:26:31Z</time></trkpt><trkpt lat="43.9639595749824" lon="11.216537969132105"><ele>303.0</ele><time>2026-04-09T10:26:32Z</time></trkpt><trkpt lat="43.96413260833925" lon="11.216486615704204"><ele>303.0</ele><time>2026-04-09T10:26:33Z</time></trkpt><trkpt lat="43.96432061739838" lon="11.216474292091934"><ele>303.0</ele><time>2026-04-09T10:26:34Z</time></trkpt><trkpt lat="43.96451327613296" lon="11.2165001531932"><ele>301.6666666666667</ele><time>2026-04-09T10:26:35Z</time></trkpt><trkpt lat="43.9647122760615" lon="11.21655708287288"><ele>300.33333333333337</ele><time>2026-04-09T10:26:36Z</time></trkpt><trkpt lat="43.9648980342752" lon="11.216622794761966"><ele>299.0</ele><time>2026-04-09T10:26:37Z</time></trkpt><trkpt lat="43.96507115477088" lon="11.21668980667899"><ele>297.6666666666667</ele><time>2026-04-09T10:26:38Z</time></trkpt><trkpt lat="43.96524843189775" lon="11.21673219145725"><ele>296.3333333333333</ele><time>2026-04-09T10:26:39Z</time></trkpt><trkpt lat="43.96542086089411" lon="11.216757508803688"><ele>295.0</ele><time>2026-04-09T10:26:40Z</time></trkpt><trkpt lat="43.96560168332229" lon="11.216771294876901"><ele>295.0</ele><time>2026-04-09T10:26:41Z</time></trkpt><trkpt lat="43.96579696194267" lon="11.216773182051382"><ele>295.0</ele><time>2026-04-09T10:26:42Z</time></trkpt><trkpt lat="43.96599794270334" lon="11.216744016948562"><ele>295.0</ele><time>2026-04-09T10:26:43Z</time></trkpt><trkpt lat="43.966198565306" lon="11.216699803502852"><ele>295.0</ele><time>2026-04-09T10:26:44Z</time></trkpt><trkpt lat="43.96638864068032" lon="11.216634742795408"><ele>295.0</ele><time>2026-04-09T10:26:45Z</time></trkpt><trkpt lat="43.966568493024226" lon="11.21657894654273"><ele>295.0</ele><time>2026-04-09T10:26:46Z</time></trkpt><trkpt lat="43.96674991963726" lon="11.216554750235083"><ele>296.0</ele><time>2026-04-09T10:26:47Z</time></trkpt><trkpt lat="43.9669355623772" lon="11.216542351360927"><ele>297.0</ele><time>2026-04-09T10:26:48Z</time></trkpt><trkpt lat="43.967102958611356" lon="11.21656804670073"><ele>298.0</ele><time>2026-04-09T10:26:49Z</time></trkpt><trkpt lat="43.967274473473765" lon="11.216646248837222"><ele>298.0</ele><time>2026-04-09T10:26:50Z</time></trkpt><trkpt lat="43.96743154393086" lon="11.216762381017867"><ele>298.0</ele><time>2026-04-09T10:26:51Z</time></trkpt><trkpt lat="43.96755479435893" lon="11.21688833431906"><ele>298.0</ele><time>2026-04-09T10:26:52Z</time></trkpt><trkpt lat="43.96765400149504" lon="11.216991189295374"><ele>300.0</ele><time>2026-04-09T10:26:53Z</time></trkpt><trkpt lat="43.967755931686476" lon="11.217065811891041"><ele>302.0</ele><time>2026-04-09T10:26:54Z</time></trkpt><trkpt lat="43.96786234317013" lon="11.21713453027527"><ele>304.0</ele><time>2026-04-09T10:26:55Z</time></trkpt><trkpt lat="43.96797596895361" lon="11.217172318794173"><ele>306.0</ele><time>2026-04-09T10:26:56Z</time></trkpt><trkpt lat="43.96809630581178" lon="11.217167832994953"><ele>306.0</ele><time>2026-04-09T10:26:57Z</time></trkpt><trkpt lat="43.96822523155016" lon="11.217147370394093"><ele>306.0</ele><time>2026-04-09T10:26:58Z</time></trkpt><trkpt lat="43.96834390662687" lon="11.217114818189854"><ele>306.0</ele><time>2026-04-09T10:26:59Z</time></trkpt><trkpt lat="43.96844255456651" lon="11.217086562045278"><ele>306.0</ele><time>2026-04-09T10:26:59.999Z</time></trkpt><trkpt lat="43.968530069575905" lon="11.217064583909455"><ele>306.0</ele><time>2026-04-09T10:27:00.999Z</time></trkpt><trkpt lat="43.96861814278455" lon="11.217053563214103"><ele>308.5</ele><time>2026-04-09T10:27:01.999Z</time></trkpt><trkpt lat="43.96871081601181" lon="11.217054129995073"><ele>311.0</ele><time>2026-04-09T10:27:02.999Z</time></trkpt><trkpt lat="43.96881097296239" lon="11.21705623074791"><ele>313.5</ele><time>2026-04-09T10:27:03.999Z</time></trkpt><trkpt lat="43.96893247152322" lon="11.217061860167297"><ele>316.0</ele><time>2026-04-09T10:27:04.999Z</time></trkpt><trkpt lat="43.96906841852496" lon="11.217077823679011"><ele>317.75</ele><time>2026-04-09T10:27:05.999Z</time></trkpt><trkpt lat="43.969211728101115" lon="11.217101960900182"><ele>319.5</ele><time>2026-04-09T10:27:06.999Z</time></trkpt><trkpt lat="43.969369132604214" lon="11.21713162620754"><ele>321.25</ele><time>2026-04-09T10:27:07.999Z</time></trkpt><trkpt lat="43.96948918870732" lon="11.217169298736058"><ele>323.0</ele><time>2026-04-09T10:27:08.999Z</time></trkpt><trkpt lat="43.969606686436244" lon="11.217201229603852"><ele>323.0</ele><time>2026-04-09T10:27:09.999Z</time></trkpt><trkpt lat="43.96973704786268" lon="11.21723646582371"><ele>323.0</ele><time>2026-04-09T10:27:10.999Z</time></trkpt><trkpt lat="43.96988646734034" lon="11.217276054411668"><ele>323.0</ele><time>2026-04-09T10:27:11.999Z</time></trkpt><trkpt lat="43.970021517988656" lon="11.217299177629618"><ele>323.0</ele><time>2026-04-09T10:27:12.999Z</time></trkpt><trkpt lat="43.97014098206197" lon="11.217307886377432"><ele>322.75</ele><time>2026-04-09T10:27:13.999Z</time></trkpt><trkpt lat="43.970270211643594" lon="11.217296807199862"><ele>322.5</ele><time>2026-04-09T10:27:14.999Z</time></trkpt><trkpt lat="43.97038807212031" lon="11.217244506023947"><ele>322.25</ele><time>2026-04-09T10:27:15.999Z</time></trkpt><trkpt lat="43.97051452834886" lon="11.217156675242933"><ele>322.0</ele><time>2026-04-09T10:27:16.999Z</time></trkpt><trkpt lat="43.97064676113705" lon="11.217081277414701"><ele>322.0</ele><time>2026-04-09T10:27:17.999Z</time></trkpt><trkpt lat="43.970754612716874" lon="11.216994261354898"><ele>322.0</ele><time>2026-04-09T10:27:18.999Z</time></trkpt><trkpt lat="43.970842230056014" lon="11.216903188679863"><ele>322.0</ele><time>2026-04-09T10:27:19.999Z</time></trkpt><trkpt lat="43.970946436411054" lon="11.216872136206613"><ele>322.0</ele><time>2026-04-09T10:27:20.999Z</time></trkpt><trkpt lat="43.9710580074683" lon="11.216874421057131"><ele>320.5</ele><time>2026-04-09T10:27:21.999Z</time></trkpt><trkpt lat="43.97118780030381" lon="11.216911805566896"><ele>319.0</ele><time>2026-04-09T10:27:22.999Z</time></trkpt><trkpt lat="43.97131282100996" lon="11.21695673346054"><ele>317.5</ele><time>2026-04-09T10:27:23.999Z</time></trkpt><trkpt lat="43.971426411978236" lon="11.216976136910732"><ele>316.0</ele><time>2026-04-09T10:27:24.999Z</time></trkpt><trkpt lat="43.97155121817576" lon="11.216960435764024"><ele>316.0</ele><time>2026-04-09T10:27:25.999Z</time></trkpt><trkpt lat="43.971681752584175" lon="11.216918327460352"><ele>316.0</ele><time>2026-04-09T10:27:26.999Z</time></trkpt><trkpt lat="43.97181199229228" lon="11.216881709295917"><ele>316.0</ele><time>2026-04-09T10:27:27.999Z</time></trkpt><trkpt lat="43.971938709444" lon="11.216857216631139"><ele>316.0</ele><time>2026-04-09T10:27:28.999Z</time></trkpt><trkpt lat="43.97207175363453" lon="11.216850248530461"><ele>313.75</ele><time>2026-04-09T10:27:29.999Z</time></trkpt><trkpt lat="43.972191414198754" lon="11.216820733726058"><ele>311.5</ele><time>2026-04-09T10:27:30.999Z</time></trkpt><trkpt lat="43.97232615335475" lon="11.216798003049353"><ele>309.25</ele><time>2026-04-09T10:27:31.999Z</time></trkpt><trkpt lat="43.972470480730536" lon="11.216814098934176"><ele>307.0</ele><time>2026-04-09T10:27:32.999Z</time></trkpt><trkpt lat="43.972598677051806" lon="11.216847635649469"><ele>307.0</ele><time>2026-04-09T10:27:33.999Z</time></trkpt><trkpt lat="43.97272102228127" lon="11.216907551758474"><ele>307.0</ele><time>2026-04-09T10:27:34.999Z</time></trkpt><trkpt lat="43.97285043788137" lon="11.216997631925851"><ele>307.0</ele><time>2026-04-09T10:27:35.999Z</time></trkpt><trkpt lat="43.972982936360175" lon="11.217108358625099"><ele>307.0</ele><time>2026-04-09T10:27:36.999Z</time></trkpt><trkpt lat="43.97309979852439" lon="11.217201476036196"><ele>307.0</ele><time>2026-04-09T10:27:37.999Z</time></trkpt><trkpt lat="43.9732144130204" lon="11.217287600295002"><ele>307.0</ele><time>2026-04-09T10:27:38.999Z</time></trkpt><trkpt lat="43.97332786265566" lon="11.217378909007287"><ele>307.0</ele><time>2026-04-09T10:27:39.999Z</time></trkpt><trkpt lat="43.973452417824156" lon="11.21748703172422"><ele>307.0</ele><time>2026-04-09T10:27:40.999Z</time></trkpt><trkpt lat="43.97356968232073" lon="11.217604899199722"><ele>307.5</ele><time>2026-04-09T10:27:41.999Z</time></trkpt><trkpt lat="43.97367219952861" lon="11.21772016051326"><ele>308.0</ele><time>2026-04-09T10:27:42.999Z</time></trkpt><trkpt lat="43.973773674883404" lon="11.217837391273406"><ele>308.5</ele><time>2026-04-09T10:27:43.999Z</time></trkpt><trkpt lat="43.973882659277365" lon="11.21795885519926"><ele>309.0</ele><time>2026-04-09T10:27:44.999Z</time></trkpt><trkpt lat="43.973982718453" lon="11.218067822223375"><ele>307.0</ele><time>2026-04-09T10:27:45.999Z</time></trkpt><trkpt lat="43.97407697265" lon="11.218160388039262"><ele>305.0</ele><time>2026-04-09T10:27:46.999Z</time></trkpt><trkpt lat="43.97417982157067" lon="11.218251325374979"><ele>303.0</ele><time>2026-04-09T10:27:47.999Z</time></trkpt><trkpt lat="43.974307576802445" lon="11.218320963893794"><ele>301.0</ele><time>2026-04-09T10:27:48.999Z</time></trkpt><trkpt lat="43.97445138252448" lon="11.218387014437013"><ele>301.0</ele><time>2026-04-09T10:27:49.999Z</time></trkpt><trkpt lat="43.97459014811054" lon="11.218452969589539"><ele>301.0</ele><time>2026-04-09T10:27:50.999Z</time></trkpt><trkpt lat="43.97470968416408" lon="11.218540379467703"><ele>301.0</ele><time>2026-04-09T10:27:51.999Z</time></trkpt><trkpt lat="43.97483018191723" lon="11.218643700627634"><ele>301.0</ele><time>2026-04-09T10:27:52.999Z</time></trkpt><trkpt lat="43.97494883767848" lon="11.218744387528407"><ele>300.25</ele><time>2026-04-09T10:27:53.999Z</time></trkpt><trkpt lat="43.975059095969065" lon="11.218852505274775"><ele>299.5</ele><time>2026-04-09T10:27:54.999Z</time></trkpt><trkpt lat="43.97516189996769" lon="11.218979370816776"><ele>298.75</ele><time>2026-04-09T10:27:55.999Z</time></trkpt><trkpt lat="43.97525693127826" lon="11.219144875643549"><ele>298.0</ele><time>2026-04-09T10:27:56.999Z</time></trkpt><trkpt lat="43.9753527235641" lon="11.21933625013523"><ele>298.0</ele><time>2026-04-09T10:27:57.999Z</time></trkpt><trkpt lat="43.97545151031873" lon="11.219542933508322"><ele>298.0</ele><time>2026-04-09T10:27:58.999Z</time></trkpt><trkpt lat="43.97555617372445" lon="11.219748579128828"><ele>298.0</ele><time>2026-04-09T10:27:59.999Z</time></trkpt><trkpt lat="43.97565358599717" lon="11.219935038450458"><ele>300.0</ele><time>2026-04-09T10:28:01Z</time></trkpt><trkpt lat="43.975745714788296" lon="11.220115610770197"><ele>302.0</ele><time>2026-04-09T10:28:02Z</time></trkpt><trkpt lat="43.97583579366277" lon="11.220284430017346"><ele>304.0</ele><time>2026-04-09T10:28:03Z</time></trkpt><trkpt lat="43.97591722227816" lon="11.22044771755589"><ele>304.0</ele><time>2026-04-09T10:28:04Z</time></trkpt><trkpt lat="43.9759969164725" lon="11.220606601874117"><ele>304.0</ele><time>2026-04-09T10:28:05Z</time></trkpt><trkpt lat="43.97606630132675" lon="11.220770021281007"><ele>304.0</ele><time>2026-04-09T10:28:06Z</time></trkpt><trkpt lat="43.97612218525165" lon="11.220941870988394"><ele>304.0</ele><time>2026-04-09T10:28:07Z</time></trkpt><trkpt lat="43.976153925614085" lon="11.22113227021565"><ele>302.25</ele><time>2026-04-09T10:28:08Z</time></trkpt><trkpt lat="43.976157723138236" lon="11.221333748504938"><ele>300.5</ele><time>2026-04-09T10:28:09Z</time></trkpt><trkpt lat="43.97614487568268" lon="11.221528749240846"><ele>298.75</ele><time>2026-04-09T10:28:10Z</time></trkpt><trkpt lat="43.97612533014427" lon="11.22171033711097"><ele>297.0</ele><time>2026-04-09T10:28:11Z</time></trkpt><trkpt lat="43.97611241696512" lon="11.221908053410628"><ele>296.6666666666667</ele><time>2026-04-09T10:28:12Z</time></trkpt><trkpt lat="43.97610925763465" lon="11.222113067702212"><ele>296.33333333333337</ele><time>2026-04-09T10:28:13Z</time></trkpt><trkpt lat="43.97610100181935" lon="11.222337090894065"><ele>296.0</ele><time>2026-04-09T10:28:14Z</time></trkpt><trkpt lat="43.97608603434064" lon="11.222555287563699"><ele>296.0</ele><time>2026-04-09T10:28:15Z</time></trkpt><trkpt lat="43.97607818960967" lon="11.222747773219284"><ele>296.0</ele><time>2026-04-09T10:28:16Z</time></trkpt><trkpt lat="43.97606670779291" lon="11.222927976062284"><ele>296.0</ele><time>2026-04-09T10:28:17Z</time></trkpt><trkpt lat="43.976059998048704" lon="11.223104638919374"><ele>296.0</ele><time>2026-04-09T10:28:18Z</time></trkpt><trkpt lat="43.97604509446452" lon="11.223274097815873"><ele>295.0</ele><time>2026-04-09T10:28:19Z</time></trkpt><trkpt lat="43.97603968366962" lon="11.22343241712637"><ele>294.0</ele><time>2026-04-09T10:28:20Z</time></trkpt><trkpt lat="43.97603372682763" lon="11.22357717359562"><ele>293.0</ele><time>2026-04-09T10:28:21Z</time></trkpt><trkpt lat="43.976047478878186" lon="11.22371536675689"><ele>292.0</ele><time>2026-04-09T10:28:22Z</time></trkpt><trkpt lat="43.97608918775018" lon="11.223852350503007"><ele>291.0</ele><time>2026-04-09T10:28:23Z</time></trkpt><trkpt lat="43.97615518641307" lon="11.223986271149647"><ele>288.0</ele><time>2026-04-09T10:28:24Z</time></trkpt><trkpt lat="43.97625797078095" lon="11.224096410679342"><ele>285.0</ele><time>2026-04-09T10:28:25Z</time></trkpt><trkpt lat="43.976379027862485" lon="11.224182668796997"><ele>282.0</ele><time>2026-04-09T10:28:26Z</time></trkpt><trkpt lat="43.976522843800346" lon="11.224246344125834"><ele>279.0</ele><time>2026-04-09T10:28:27Z</time></trkpt><trkpt lat="43.976685765721825" lon="11.224309104570992"><ele>279.0</ele><time>2026-04-09T10:28:28Z</time></trkpt><trkpt lat="43.97682784048084" lon="11.224358598054382"><ele>279.0</ele><time>2026-04-09T10:28:29Z</time></trkpt><trkpt lat="43.976961693699785" lon="11.224420617093935"><ele>279.0</ele><time>2026-04-09T10:28:30Z</time></trkpt><trkpt lat="43.9770902027233" lon="11.224480477924455"><ele>279.0</ele><time>2026-04-09T10:28:31Z</time></trkpt><trkpt lat="43.977226252654255" lon="11.224541012778172"><ele>279.0</ele><time>2026-04-09T10:28:32Z</time></trkpt><trkpt lat="43.97736583969563" lon="11.224605639901958"><ele>279.0</ele><time>2026-04-09T10:28:33Z</time></trkpt><trkpt lat="43.97750636025431" lon="11.224670179915158"><ele>279.0</ele><time>2026-04-09T10:28:34Z</time></trkpt><trkpt lat="43.977653699269084" lon="11.224733036502258"><ele>279.0</ele><time>2026-04-09T10:28:35Z</time></trkpt><trkpt lat="43.97778993414446" lon="11.22478992928942"><ele>274.6666666666667</ele><time>2026-04-09T10:28:36Z</time></trkpt><trkpt lat="43.97793287547052" lon="11.224854689993334"><ele>270.33333333333337</ele><time>2026-04-09T10:28:37Z</time></trkpt><trkpt lat="43.97808781301091" lon="11.22492363684062"><ele>266.0</ele><time>2026-04-09T10:28:38Z</time></trkpt><trkpt lat="43.978252494207034" lon="11.224992498480331"><ele>264.6666666666667</ele><time>2026-04-09T10:28:39Z</time></trkpt><trkpt lat="43.97842753949837" lon="11.225073114919242"><ele>263.3333333333333</ele><time>2026-04-09T10:28:40Z</time></trkpt><trkpt lat="43.97860713985746" lon="11.225150083357656"><ele>262.0</ele><time>2026-04-09T10:28:41Z</time></trkpt><trkpt lat="43.978763899317045" lon="11.225228059478281"><ele>262.0</ele><time>2026-04-09T10:28:42Z</time></trkpt><trkpt lat="43.97891272600611" lon="11.22530159453581"><ele>262.0</ele><time>2026-04-09T10:28:43Z</time></trkpt><trkpt lat="43.9790537882153" lon="11.22537520324097"><ele>262.0</ele><time>2026-04-09T10:28:44Z</time></trkpt><trkpt lat="43.97919529647214" lon="11.225448346304763"><ele>261.5</ele><time>2026-04-09T10:28:45Z</time></trkpt><trkpt lat="43.97932328055529" lon="11.22552688289296"><ele>261.0</ele><time>2026-04-09T10:28:46Z</time></trkpt><trkpt lat="43.97943961856012" lon="11.22559590193525"><ele>260.5</ele><time>2026-04-09T10:28:47Z</time></trkpt><trkpt lat="43.979550233872594" lon="11.225663857434151"><ele>260.0</ele><time>2026-04-09T10:28:48Z</time></trkpt><trkpt lat="43.979656822972466" lon="11.225722525593907"><ele>260.0</ele><time>2026-04-09T10:28:49Z</time></trkpt><trkpt lat="43.97975659277174" lon="11.225782164276216"><ele>260.0</ele><time>2026-04-09T10:28:50Z</time></trkpt><trkpt lat="43.97985079574675" lon="11.225841448852446"><ele>260.0</ele><time>2026-04-09T10:28:51Z</time></trkpt><trkpt lat="43.97992332153262" lon="11.225900447975869"><ele>260.0</ele><time>2026-04-09T10:28:52Z</time></trkpt><trkpt lat="43.9799854763346" lon="11.22597530634306"><ele>260.0</ele><time>2026-04-09T10:28:53Z</time></trkpt><trkpt lat="43.98004800082232" lon="11.226065374270286"><ele>260.0</ele><time>2026-04-09T10:28:54Z</time></trkpt><trkpt lat="43.9801101607136" lon="11.226166974249642"><ele>260.0</ele><time>2026-04-09T10:28:55Z</time></trkpt><trkpt lat="43.980154960258645" lon="11.22628272506623"><ele>260.0</ele><time>2026-04-09T10:28:56Z</time></trkpt><trkpt lat="43.98018207213708" lon="11.226400913507955"><ele>260.0</ele><time>2026-04-09T10:28:57Z</time></trkpt><trkpt lat="43.98021437197284" lon="11.22651493727501"><ele>260.0</ele><time>2026-04-09T10:28:58Z</time></trkpt><trkpt lat="43.98026687742165" lon="11.226584582084751"><ele>260.0</ele><time>2026-04-09T10:28:59Z</time></trkpt><trkpt lat="43.980339041423974" lon="11.22663910705535"><ele>259.83333333333337</ele><time>2026-04-09T10:29:00Z</time></trkpt><trkpt lat="43.98041586158319" lon="11.226665157815784"><ele>259.6666666666667</ele><time>2026-04-09T10:29:01Z</time></trkpt><trkpt lat="43.980494212900346" lon="11.226677237710403"><ele>259.5</ele><time>2026-04-09T10:29:02Z</time></trkpt><trkpt lat="43.98056139039116" lon="11.226721823913465"><ele>259.3333333333333</ele><time>2026-04-09T10:29:03Z</time></trkpt><trkpt lat="43.98063075723211" lon="11.226771544934232"><ele>259.16666666666663</ele><time>2026-04-09T10:29:04Z</time></trkpt><trkpt lat="43.98070217461868" lon="11.22684541952346"><ele>259.0</ele><time>2026-04-09T10:29:05Z</time></trkpt><trkpt lat="43.980715575506856" lon="11.227053158919926"><ele>259.0</ele><time>2026-04-09T10:29:06Z</time></trkpt><trkpt lat="43.980739070600116" lon="11.22722475734466"><ele>259.0</ele><time>2026-04-09T10:29:07Z</time></trkpt><trkpt lat="43.98075141119021" lon="11.227412494810718"><ele>259.0</ele><time>2026-04-09T10:29:08Z</time></trkpt><trkpt lat="43.98075464657102" lon="11.227620420666115"><ele>259.0</ele><time>2026-04-09T10:29:09Z</time></trkpt><trkpt lat="43.980736512061306" lon="11.227837704409948"><ele>260.0</ele><time>2026-04-09T10:29:10Z</time></trkpt><trkpt lat="43.980703935311084" lon="11.228050274995146"><ele>261.0</ele><time>2026-04-09T10:29:11Z</time></trkpt><trkpt lat="43.98066902460653" lon="11.228279719965032"><ele>262.0</ele><time>2026-04-09T10:29:12Z</time></trkpt><trkpt lat="43.980635711747745" lon="11.228510628324075"><ele>262.75</ele><time>2026-04-09T10:29:13Z</time></trkpt><trkpt lat="43.980611747468785" lon="11.228708369812747"><ele>263.5</ele><time>2026-04-09T10:29:14Z</time></trkpt><trkpt lat="43.98060050934005" lon="11.228909750094887"><ele>264.25</ele><time>2026-04-09T10:29:15Z</time></trkpt><trkpt lat="43.980600505748235" lon="11.229114641640667"><ele>265.0</ele><time>2026-04-09T10:29:16Z</time></trkpt><trkpt lat="43.98060373259911" lon="11.2293277815886"><ele>265.66666666666663</ele><time>2026-04-09T10:29:17Z</time></trkpt><trkpt lat="43.98061026720147" lon="11.22954546568499"><ele>266.3333333333333</ele><time>2026-04-09T10:29:18Z</time></trkpt><trkpt lat="43.980625583649754" lon="11.229766329566793"><ele>267.0</ele><time>2026-04-09T10:29:19Z</time></trkpt><trkpt lat="43.980656971555916" lon="11.229988801378944"><ele>267.0</ele><time>2026-04-09T10:29:20Z</time></trkpt><trkpt lat="43.98069718714953" lon="11.230192122471127"><ele>267.0</ele><time>2026-04-09T10:29:21Z</time></trkpt><trkpt lat="43.98073387089155" lon="11.23037754254407"><ele>267.0</ele><time>2026-04-09T10:29:22Z</time></trkpt><trkpt lat="43.980766507597615" lon="11.230566740728369"><ele>267.0</ele><time>2026-04-09T10:29:23Z</time></trkpt><trkpt lat="43.98080223385277" lon="11.230766565457078"><ele>265.6666666666667</ele><time>2026-04-09T10:29:24Z</time></trkpt><trkpt lat="43.98083998513904" lon="11.230975011337971"><ele>264.33333333333337</ele><time>2026-04-09T10:29:25Z</time></trkpt><trkpt lat="43.980878044348316" lon="11.231189337132435"><ele>263.0</ele><time>2026-04-09T10:29:25.999Z</time></trkpt><trkpt lat="43.98091788779458" lon="11.23139409848424"><ele>264.5</ele><time>2026-04-09T10:29:26.999Z</time></trkpt><trkpt lat="43.980954098307386" lon="11.231576321127957"><ele>266.0</ele><time>2026-04-09T10:29:27.999Z</time></trkpt><trkpt lat="43.98098966294501" lon="11.23173823135363"><ele>267.5</ele><time>2026-04-09T10:29:28.999Z</time></trkpt><trkpt lat="43.98102622355016" lon="11.231878239505148"><ele>269.0</ele><time>2026-04-09T10:29:29.999Z</time></trkpt><trkpt lat="43.98106038156735" lon="11.23200943238224"><ele>269.0</ele><time>2026-04-09T10:29:30.999Z</time></trkpt><trkpt lat="43.981098593713476" lon="11.232137270390155"><ele>269.0</ele><time>2026-04-09T10:29:31.999Z</time></trkpt><trkpt lat="43.98114147196005" lon="11.232254036272487"><ele>269.0</ele><time>2026-04-09T10:29:32.999Z</time></trkpt><trkpt lat="43.98118375925762" lon="11.232342999039382"><ele>269.0</ele><time>2026-04-09T10:29:33.999Z</time></trkpt><trkpt lat="43.98123044848203" lon="11.232409512264448"><ele>269.0</ele><time>2026-04-09T10:29:34.999Z</time></trkpt><trkpt lat="43.98128135157076" lon="11.23246603999777"><ele>269.0</ele><time>2026-04-09T10:29:35.999Z</time></trkpt><trkpt lat="43.98133203434451" lon="11.232528181409675"><ele>268.6666666666667</ele><time>2026-04-09T10:29:36.999Z</time></trkpt><trkpt lat="43.981398922433186" lon="11.232643170636024"><ele>268.33333333333337</ele><time>2026-04-09T10:29:38.999Z</time></trkpt><trkpt lat="43.98149661470891" lon="11.232573257161304"><ele>268.0</ele><time>2026-04-09T10:29:39.999Z</time></trkpt><trkpt lat="43.98155996871809" lon="11.232546389974198"><ele>267.6666666666667</ele><time>2026-04-09T10:29:40.999Z</time></trkpt><trkpt lat="43.98163510196881" lon="11.232522456463844"><ele>267.3333333333333</ele><time>2026-04-09T10:29:41.999Z</time></trkpt><trkpt lat="43.98172074216995" lon="11.23249963224541"><ele>267.0</ele><time>2026-04-09T10:29:42.999Z</time></trkpt><trkpt lat="43.981830321562235" lon="11.232512195392696"><ele>267.0</ele><time>2026-04-09T10:29:43.999Z</time></trkpt><trkpt lat="43.98193550222921" lon="11.232532811450175"><ele>267.0</ele><time>2026-04-09T10:29:44.999Z</time></trkpt><trkpt lat="43.982042872782515" lon="11.232559756130987"><ele>267.0</ele><time>2026-04-09T10:29:45.999Z</time></trkpt><trkpt lat="43.98214919509686" lon="11.232579708431638"><ele>267.0</ele><time>2026-04-09T10:29:46.999Z</time></trkpt><trkpt lat="43.98226072647881" lon="11.232606882296865"><ele>267.0</ele><time>2026-04-09T10:29:47.999Z</time></trkpt><trkpt lat="43.982368017999356" lon="11.232639815656066"><ele>267.0</ele><time>2026-04-09T10:29:48.999Z</time></trkpt><trkpt lat="43.98248184524285" lon="11.232667200182913"><ele>267.0</ele><time>2026-04-09T10:29:49.999Z</time></trkpt><trkpt lat="43.98259567703044" lon="11.232688007119053"><ele>267.0</ele><time>2026-04-09T10:29:50.999Z</time></trkpt><trkpt lat="43.98270338694558" lon="11.232701629819287"><ele>267.0</ele><time>2026-04-09T10:29:51.999Z</time></trkpt><trkpt lat="43.98279017816228" lon="11.232713899275266"><ele>267.0</ele><time>2026-04-09T10:29:52.999Z</time></trkpt><trkpt lat="43.982876817992924" lon="11.232725993852249"><ele>267.2</ele><time>2026-04-09T10:29:53.999Z</time></trkpt><trkpt lat="43.98296215852709" lon="11.23274916096933"><ele>267.4</ele><time>2026-04-09T10:29:54.999Z</time></trkpt><trkpt lat="43.98304946788443" lon="11.232769104650764"><ele>267.6</ele><time>2026-04-09T10:29:55.999Z</time></trkpt><trkpt lat="43.98314711284919" lon="11.232789006851736"><ele>267.8</ele><time>2026-04-09T10:29:56.999Z</time></trkpt><trkpt lat="43.983249143275174" lon="11.232806782343221"><ele>268.0</ele><time>2026-04-09T10:29:57.999Z</time></trkpt><trkpt lat="43.9833466475836" lon="11.232825904309243"><ele>268.3333333333333</ele><time>2026-04-09T10:29:58.999Z</time></trkpt><trkpt lat="43.98343129793066" lon="11.232845639196329"><ele>268.66666666666663</ele><time>2026-04-09T10:29:59.999Z</time></trkpt><trkpt lat="43.983510210009015" lon="11.232864767129351"><ele>269.0</ele><time>2026-04-09T10:30:00.999Z</time></trkpt><trkpt lat="43.98359203550647" lon="11.232886843396145"><ele>269.3333333333333</ele><time>2026-04-09T10:30:01.999Z</time></trkpt><trkpt lat="43.98367527015167" lon="11.232909564779153"><ele>269.6666666666667</ele><time>2026-04-09T10:30:02.999Z</time></trkpt><trkpt lat="43.983761731378614" lon="11.232943233560704"><ele>270.0</ele><time>2026-04-09T10:30:03.999Z</time></trkpt><trkpt lat="43.98384888619717" lon="11.232977450403963"><ele>270.0</ele><time>2026-04-09T10:30:04.999Z</time></trkpt><trkpt lat="43.98393718996933" lon="11.233022788817562"><ele>270.0</ele><time>2026-04-09T10:30:05.999Z</time></trkpt><trkpt lat="43.98403442109413" lon="11.233071198512816"><ele>270.0</ele><time>2026-04-09T10:30:07Z</time></trkpt><trkpt lat="43.98413437908686" lon="11.233114329802975"><ele>270.0</ele><time>2026-04-09T10:30:08Z</time></trkpt><trkpt lat="43.984233091941114" lon="11.233154478594072"><ele>270.0</ele><time>2026-04-09T10:30:09Z</time></trkpt><trkpt lat="43.98433536762397" lon="11.233183281226568"><ele>270.6</ele><time>2026-04-09T10:30:10Z</time></trkpt><trkpt lat="43.9844413022377" lon="11.233207402539467"><ele>271.2</ele><time>2026-04-09T10:30:11Z</time></trkpt><trkpt lat="43.98454932026916" lon="11.233223380631278"><ele>271.8</ele><time>2026-04-09T10:30:12Z</time></trkpt><trkpt lat="43.984656095781695" lon="11.233233432030133"><ele>272.4</ele><time>2026-04-09T10:30:13Z</time></trkpt><trkpt lat="43.98477104112747" lon="11.233245725935976"><ele>273.0</ele><time>2026-04-09T10:30:14Z</time></trkpt><trkpt lat="43.98488209261937" lon="11.233276430582613"><ele>273.0</ele><time>2026-04-09T10:30:15Z</time></trkpt><trkpt lat="43.984978962750496" lon="11.233283768817211"><ele>273.0</ele><time>2026-04-09T10:30:16Z</time></trkpt><trkpt lat="43.98507347633388" lon="11.233308416425993"><ele>273.0</ele><time>2026-04-09T10:30:17Z</time></trkpt><trkpt lat="43.98515482169227" lon="11.233326036450762"><ele>273.0</ele><time>2026-04-09T10:30:18Z</time></trkpt><trkpt lat="43.98523628939116" lon="11.233344034100167"><ele>273.0</ele><time>2026-04-09T10:30:19Z</time></trkpt><trkpt lat="43.985321076744675" lon="11.233353887662819"><ele>273.0</ele><time>2026-04-09T10:30:20Z</time></trkpt><trkpt lat="43.985400428721974" lon="11.233371066016389"><ele>270.6</ele><time>2026-04-09T10:30:21Z</time></trkpt><trkpt lat="43.98547756611402" lon="11.233368333956939"><ele>268.20000000000005</ele><time>2026-04-09T10:30:22Z</time></trkpt><trkpt lat="43.985570202940615" lon="11.233343197119899"><ele>265.8</ele><time>2026-04-09T10:30:23Z</time></trkpt><trkpt lat="43.98566587585409" lon="11.233299658278758"><ele>263.40000000000003</ele><time>2026-04-09T10:30:24Z</time></trkpt><trkpt lat="43.98578414607399" lon="11.23324567246399"><ele>261.0</ele><time>2026-04-09T10:30:25Z</time></trkpt><trkpt lat="43.985924702088134" lon="11.233175984668668"><ele>261.5</ele><time>2026-04-09T10:30:26Z</time></trkpt><trkpt lat="43.98606937545242" lon="11.233098368555636"><ele>262.0</ele><time>2026-04-09T10:30:27Z</time></trkpt><trkpt lat="43.98619418534708" lon="11.233037437825123"><ele>262.5</ele><time>2026-04-09T10:30:28Z</time></trkpt><trkpt lat="43.98631457536104" lon="11.232988441541224"><ele>263.0</ele><time>2026-04-09T10:30:29Z</time></trkpt><trkpt lat="43.98643508559769" lon="11.232951885136956"><ele>263.0</ele><time>2026-04-09T10:30:30Z</time></trkpt><trkpt lat="43.986561377766826" lon="11.232927227117765"><ele>263.0</ele><time>2026-04-09T10:30:31Z</time></trkpt><trkpt lat="43.98669960253586" lon="11.232929970246408"><ele>263.0</ele><time>2026-04-09T10:30:32Z</time></trkpt><trkpt lat="43.986840584863245" lon="11.232937563209711"><ele>263.0</ele><time>2026-04-09T10:30:33Z</time></trkpt><trkpt lat="43.986983419992804" lon="11.232948024202328"><ele>262.0</ele><time>2026-04-09T10:30:34Z</time></trkpt><trkpt lat="43.98713708770059" lon="11.23295921786045"><ele>261.0</ele><time>2026-04-09T10:30:35Z</time></trkpt><trkpt lat="43.987294589496" lon="11.232964366731405"><ele>260.0</ele><time>2026-04-09T10:30:36Z</time></trkpt><trkpt lat="43.98744011780146" lon="11.232972588971348"><ele>259.5</ele><time>2026-04-09T10:30:37Z</time></trkpt><trkpt lat="43.987580256166424" lon="11.232999506196334"><ele>259.0</ele><time>2026-04-09T10:30:38Z</time></trkpt><trkpt lat="43.98772248283505" lon="11.233039087652433"><ele>258.5</ele><time>2026-04-09T10:30:39Z</time></trkpt><trkpt lat="43.987864957253706" lon="11.233101298572302"><ele>258.0</ele><time>2026-04-09T10:30:40Z</time></trkpt><trkpt lat="43.988005255146554" lon="11.233187086129886"><ele>257.6666666666667</ele><time>2026-04-09T10:30:41Z</time></trkpt><trkpt lat="43.9881331422731" lon="11.233289770598205"><ele>257.33333333333337</ele><time>2026-04-09T10:30:42Z</time></trkpt><trkpt lat="43.98826221756696" lon="11.23341716685456"><ele>257.0</ele><time>2026-04-09T10:30:43Z</time></trkpt><trkpt lat="43.988394633332476" lon="11.233562055272852"><ele>257.0</ele><time>2026-04-09T10:30:44Z</time></trkpt><trkpt lat="43.98852860457473" lon="11.233704055626573"><ele>257.0</ele><time>2026-04-09T10:30:45Z</time></trkpt><trkpt lat="43.98868014253178" lon="11.233863377578896"><ele>257.0</ele><time>2026-04-09T10:30:46Z</time></trkpt><trkpt lat="43.98883349178736" lon="11.234023632627835"><ele>257.33333333333337</ele><time>2026-04-09T10:30:47Z</time></trkpt><trkpt lat="43.9890044371849" lon="11.23417332724794"><ele>257.6666666666667</ele><time>2026-04-09T10:30:48Z</time></trkpt><trkpt lat="43.98915752108439" lon="11.23428288189716"><ele>258.0</ele><time>2026-04-09T10:30:49Z</time></trkpt><trkpt lat="43.989308948195486" lon="11.234374449584129"><ele>258.6666666666667</ele><time>2026-04-09T10:30:50Z</time></trkpt><trkpt lat="43.98945617731661" lon="11.234453778423987"><ele>259.33333333333337</ele><time>2026-04-09T10:30:51Z</time></trkpt><trkpt lat="43.98960414729645" lon="11.234536914561861"><ele>260.0</ele><time>2026-04-09T10:30:52Z</time></trkpt><trkpt lat="43.98975028441644" lon="11.234608915303292"><ele>260.0</ele><time>2026-04-09T10:30:53Z</time></trkpt><trkpt lat="43.989891232690404" lon="11.234677469390096"><ele>260.0</ele><time>2026-04-09T10:30:54Z</time></trkpt><trkpt lat="43.99002770828891" lon="11.234743261275904"><ele>260.0</ele><time>2026-04-09T10:30:55Z</time></trkpt><trkpt lat="43.99017196597761" lon="11.23481291331114"><ele>260.0</ele><time>2026-04-09T10:30:56Z</time></trkpt><trkpt lat="43.99045695802395" lon="11.234990230565158"><ele>260.33333333333337</ele><time>2026-04-09T10:30:57Z</time></trkpt><trkpt lat="43.99059663661373" lon="11.235055483502197"><ele>260.6666666666667</ele><time>2026-04-09T10:30:58Z</time></trkpt><trkpt lat="43.99074217648932" lon="11.235125537927068"><ele>261.0</ele><time>2026-04-09T10:30:59Z</time></trkpt><trkpt lat="43.99088840525654" lon="11.235202856874869"><ele>261.75</ele><time>2026-04-09T10:31:00Z</time></trkpt><trkpt lat="43.99101717531111" lon="11.235282857365442"><ele>262.5</ele><time>2026-04-09T10:31:01Z</time></trkpt><trkpt lat="43.99113347484817" lon="11.235362103470047"><ele>263.25</ele><time>2026-04-09T10:31:02Z</time></trkpt><trkpt lat="43.991237689738476" lon="11.235444662081038"><ele>264.0</ele><time>2026-04-09T10:31:03Z</time></trkpt><trkpt lat="43.99133082683982" lon="11.235529314306321"><ele>264.0</ele><time>2026-04-09T10:31:04Z</time></trkpt><trkpt lat="43.991400033210645" lon="11.235612974477688"><ele>264.0</ele><time>2026-04-09T10:31:05Z</time></trkpt><trkpt lat="43.99144648332838" lon="11.235710415657664"><ele>264.0</ele><time>2026-04-09T10:31:06Z</time></trkpt><trkpt lat="43.99145488601508" lon="11.23583968663162"><ele>264.0</ele><time>2026-04-09T10:31:07Z</time></trkpt><trkpt lat="43.99149983661715" lon="11.235949866668777"><ele>264.0</ele><time>2026-04-09T10:31:08Z</time></trkpt><trkpt lat="43.99156487367549" lon="11.23603826717628"><ele>264.25</ele><time>2026-04-09T10:31:09Z</time></trkpt><trkpt lat="43.991661897881706" lon="11.236093396664542"><ele>264.5</ele><time>2026-04-09T10:31:10Z</time></trkpt><trkpt lat="43.99173180069184" lon="11.236210722010215"><ele>264.75</ele><time>2026-04-09T10:31:11Z</time></trkpt><trkpt lat="43.99179726667903" lon="11.236348113406857"><ele>265.0</ele><time>2026-04-09T10:31:12Z</time></trkpt><trkpt lat="43.991848532628346" lon="11.236508114034725"><ele>264.5</ele><time>2026-04-09T10:31:13Z</time></trkpt><trkpt lat="43.99189887152185" lon="11.2366802339909"><ele>264.0</ele><time>2026-04-09T10:31:14Z</time></trkpt><trkpt lat="43.99194765712753" lon="11.236841204005234"><ele>263.5</ele><time>2026-04-09T10:31:15Z</time></trkpt><trkpt lat="43.99200403281513" lon="11.237003678103319"><ele>263.0</ele><time>2026-04-09T10:31:16Z</time></trkpt><trkpt lat="43.992062453475675" lon="11.237173710796077"><ele>263.0</ele><time>2026-04-09T10:31:17Z</time></trkpt><trkpt lat="43.992121324281115" lon="11.237347878157776"><ele>263.0</ele><time>2026-04-09T10:31:18Z</time></trkpt><trkpt lat="43.99217928897259" lon="11.237523345724213"><ele>263.0</ele><time>2026-04-09T10:31:19Z</time></trkpt><trkpt lat="43.9922291309976" lon="11.237678033441204"><ele>263.0</ele><time>2026-04-09T10:31:20Z</time></trkpt><trkpt lat="43.99228578122072" lon="11.237836934071593"><ele>263.0</ele><time>2026-04-09T10:31:21Z</time></trkpt><trkpt lat="43.992344798737044" lon="11.23800772635608"><ele>263.0</ele><time>2026-04-09T10:31:22Z</time></trkpt><trkpt lat="43.9924009294939" lon="11.238184554271585"><ele>263.0</ele><time>2026-04-09T10:31:23Z</time></trkpt><trkpt lat="43.99246445928916" lon="11.238366214742472"><ele>263.0</ele><time>2026-04-09T10:31:24Z</time></trkpt><trkpt lat="43.992517821511385" lon="11.23853484703537"><ele>263.0</ele><time>2026-04-09T10:31:25Z</time></trkpt><trkpt lat="43.9925717130353" lon="11.23869708557832"><ele>263.0</ele><time>2026-04-09T10:31:26Z</time></trkpt><trkpt lat="43.992624141281624" lon="11.238859186245014"><ele>263.0</ele><time>2026-04-09T10:31:27Z</time></trkpt><trkpt lat="43.992682496751335" lon="11.239020540726917"><ele>263.0</ele><time>2026-04-09T10:31:28Z</time></trkpt><trkpt lat="43.99274181172668" lon="11.239181394437294"><ele>263.0</ele><time>2026-04-09T10:31:29Z</time></trkpt><trkpt lat="43.9927975391897" lon="11.239346303061318"><ele>263.0</ele><time>2026-04-09T10:31:30Z</time></trkpt><trkpt lat="43.992850015183286" lon="11.239508377702606"><ele>263.0</ele><time>2026-04-09T10:31:31Z</time></trkpt><trkpt lat="43.99289953422409" lon="11.239645597891629"><ele>263.0</ele><time>2026-04-09T10:31:32Z</time></trkpt><trkpt lat="43.99294220734112" lon="11.23976478037051"><ele>263.0</ele><time>2026-04-09T10:31:33Z</time></trkpt><trkpt lat="43.992979248290396" lon="11.239874600402958"><ele>263.0</ele><time>2026-04-09T10:31:34Z</time></trkpt><trkpt lat="43.99302029320798" lon="11.23999467940204"><ele>263.0</ele><time>2026-04-09T10:31:35Z</time></trkpt><trkpt lat="43.993050635845115" lon="11.240119693897512"><ele>263.0</ele><time>2026-04-09T10:31:36Z</time></trkpt><trkpt lat="43.99305982705842" lon="11.24024724296545"><ele>263.0</ele><time>2026-04-09T10:31:37Z</time></trkpt><trkpt lat="43.993080400184795" lon="11.240352641864401"><ele>263.0</ele><time>2026-04-09T10:31:38Z</time></trkpt><trkpt lat="43.9930827208558" lon="11.240459161666813"><ele>263.0</ele><time>2026-04-09T10:31:39Z</time></trkpt><trkpt lat="43.993143357333174" lon="11.240540824553394"><ele>263.0</ele><time>2026-04-09T10:31:40Z</time></trkpt><trkpt lat="43.99322240958199" lon="11.240577908373364"><ele>263.0</ele><time>2026-04-09T10:31:41Z</time></trkpt><trkpt lat="43.99330113854708" lon="11.240579215300716"><ele>263.0</ele><time>2026-04-09T10:31:42Z</time></trkpt><trkpt lat="43.993387677643" lon="11.240547931721553"><ele>263.0</ele><time>2026-04-09T10:31:43Z</time></trkpt><trkpt lat="43.993483838960024" lon="11.240510649071195"><ele>263.0</ele><time>2026-04-09T10:31:44Z</time></trkpt><trkpt lat="43.99359326994831" lon="11.240470820140429"><ele>263.0</ele><time>2026-04-09T10:31:45Z</time></trkpt><trkpt lat="43.99373356505629" lon="11.240439575183661"><ele>263.0</ele><time>2026-04-09T10:31:46Z</time></trkpt><trkpt lat="43.9938503681635" lon="11.240403699109686"><ele>263.0</ele><time>2026-04-09T10:31:47Z</time></trkpt><trkpt lat="43.99395678854936" lon="11.240383647950713"><ele>263.0</ele><time>2026-04-09T10:31:48Z</time></trkpt><trkpt lat="43.994064171465034" lon="11.240369804144628"><ele>263.4</ele><time>2026-04-09T10:31:49Z</time></trkpt><trkpt lat="43.994177625372856" lon="11.240359789459568"><ele>263.8</ele><time>2026-04-09T10:31:50Z</time></trkpt><trkpt lat="43.99430058237967" lon="11.240339369384168"><ele>264.2</ele><time>2026-04-09T10:31:51Z</time></trkpt><trkpt lat="43.994413550308565" lon="11.240326909195385"><ele>264.6</ele><time>2026-04-09T10:31:52Z</time></trkpt><trkpt lat="43.99451087881661" lon="11.2403177552038"><ele>265.0</ele><time>2026-04-09T10:31:53Z</time></trkpt><trkpt lat="43.994607027602235" lon="11.240308457340847"><ele>265.0</ele><time>2026-04-09T10:31:54Z</time></trkpt><trkpt lat="43.99471318919711" lon="11.240296100767148"><ele>265.0</ele><time>2026-04-09T10:31:55Z</time></trkpt><trkpt lat="43.99481795607383" lon="11.240281009065058"><ele>265.0</ele><time>2026-04-09T10:31:56Z</time></trkpt><trkpt lat="43.99491872499547" lon="11.240271328382699"><ele>265.0</ele><time>2026-04-09T10:31:57Z</time></trkpt><trkpt lat="43.99502183156614" lon="11.240262915595753"><ele>265.0</ele><time>2026-04-09T10:31:58Z</time></trkpt><trkpt lat="43.99514199392988" lon="11.24024651669324"><ele>265.0</ele><time>2026-04-09T10:31:59Z</time></trkpt><trkpt lat="43.99528588025752" lon="11.240234754161845"><ele>265.0</ele><time>2026-04-09T10:32:00Z</time></trkpt><trkpt lat="43.99542384984576" lon="11.240222127492572"><ele>265.0</ele><time>2026-04-09T10:32:01Z</time></trkpt><trkpt lat="43.99553970088847" lon="11.240209355218484"><ele>265.0</ele><time>2026-04-09T10:32:02Z</time></trkpt><trkpt lat="43.99564890331152" lon="11.240195367118828"><ele>265.0</ele><time>2026-04-09T10:32:03Z</time></trkpt><trkpt lat="43.9957593249283" lon="11.24018233497831"><ele>265.0</ele><time>2026-04-09T10:32:04Z</time></trkpt><trkpt lat="43.99585570192957" lon="11.240168728561082"><ele>265.0</ele><time>2026-04-09T10:32:05Z</time></trkpt><trkpt lat="43.9959366153138" lon="11.240160308127678"><ele>265.0</ele><time>2026-04-09T10:32:06Z</time></trkpt><trkpt lat="43.99600813757336" lon="11.240183521305275"><ele>265.0</ele><time>2026-04-09T10:32:07Z</time></trkpt><trkpt lat="43.996098327500384" lon="11.240351889306183"><ele>264.8</ele><time>2026-04-09T10:32:09Z</time></trkpt><trkpt lat="43.996120387798406" lon="11.24046959887891"><ele>264.6</ele><time>2026-04-09T10:32:10Z</time></trkpt><trkpt lat="43.99614644341447" lon="11.240615041147743"><ele>264.4</ele><time>2026-04-09T10:32:10.999Z</time></trkpt><trkpt lat="43.99618931855903" lon="11.240774317703146"><ele>264.2</ele><time>2026-04-09T10:32:11.999Z</time></trkpt><trkpt lat="43.99622992954433" lon="11.240933418765888"><ele>264.0</ele><time>2026-04-09T10:32:13Z</time></trkpt><trkpt lat="43.99627933674849" lon="11.241105322390862"><ele>263.25</ele><time>2026-04-09T10:32:14Z</time></trkpt><trkpt lat="43.99632224645548" lon="11.241267318213504"><ele>262.5</ele><time>2026-04-09T10:32:15Z</time></trkpt><trkpt lat="43.9963625770889" lon="11.241408313911185"><ele>261.75</ele><time>2026-04-09T10:32:16Z</time></trkpt><trkpt lat="43.996410437801906" lon="11.241544551975192"><ele>261.0</ele><time>2026-04-09T10:32:17Z</time></trkpt><trkpt lat="43.9964824673672" lon="11.241679783306024"><ele>260.75</ele><time>2026-04-09T10:32:18Z</time></trkpt><trkpt lat="43.99657426214934" lon="11.241792486080456"><ele>260.5</ele><time>2026-04-09T10:32:19Z</time></trkpt><trkpt lat="43.99669027810079" lon="11.241878307284503"><ele>260.25</ele><time>2026-04-09T10:32:20Z</time></trkpt><trkpt lat="43.99681680093947" lon="11.241947359632015"><ele>260.0</ele><time>2026-04-09T10:32:21Z</time></trkpt><trkpt lat="43.9969441836338" lon="11.242010195848795"><ele>261.0</ele><time>2026-04-09T10:32:22Z</time></trkpt><trkpt lat="43.99708129839043" lon="11.242056309296736"><ele>262.0</ele><time>2026-04-09T10:32:23Z</time></trkpt><trkpt lat="43.9972223953387" lon="11.242117336866125"><ele>263.0</ele><time>2026-04-09T10:32:24Z</time></trkpt><trkpt lat="43.997364125816546" lon="11.242186860383992"><ele>264.0</ele><time>2026-04-09T10:32:25Z</time></trkpt><trkpt lat="43.99749224502852" lon="11.242251875699756"><ele>264.0</ele><time>2026-04-09T10:32:26Z</time></trkpt><trkpt lat="43.99760463750365" lon="11.24229694406886"><ele>264.0</ele><time>2026-04-09T10:32:27Z</time></trkpt><trkpt lat="43.99771821551054" lon="11.242341981947996"><ele>264.0</ele><time>2026-04-09T10:32:28Z</time></trkpt><trkpt lat="43.9978230479664" lon="11.242382634693115"><ele>264.0</ele><time>2026-04-09T10:32:29Z</time></trkpt><trkpt lat="43.99791784379987" lon="11.242425102556197"><ele>264.0</ele><time>2026-04-09T10:32:30Z</time></trkpt><trkpt lat="43.99800634409416" lon="11.24247567732048"><ele>264.0</ele><time>2026-04-09T10:32:31Z</time></trkpt><trkpt lat="43.998108188806725" lon="11.242529402704532"><ele>264.0</ele><time>2026-04-09T10:32:32Z</time></trkpt><trkpt lat="43.998220136309804" lon="11.24258170441142"><ele>264.0</ele><time>2026-04-09T10:32:33Z</time></trkpt><trkpt lat="43.998338764895315" lon="11.242631157388495"><ele>264.0</ele><time>2026-04-09T10:32:34Z</time></trkpt><trkpt lat="43.99845857891524" lon="11.242686742889758"><ele>264.8</ele><time>2026-04-09T10:32:35Z</time></trkpt><trkpt lat="43.9985596760473" lon="11.242730389375334"><ele>265.59999999999997</ele><time>2026-04-09T10:32:36Z</time></trkpt><trkpt lat="43.99865964581236" lon="11.242773970200771"><ele>266.4</ele><time>2026-04-09T10:32:37Z</time></trkpt><trkpt lat="43.99876667781004" lon="11.242820068060446"><ele>267.2</ele><time>2026-04-09T10:32:38Z</time></trkpt><trkpt lat="43.998878213929" lon="11.24286830184655"><ele>268.0</ele><time>2026-04-09T10:32:39Z</time></trkpt><trkpt lat="43.99899747869983" lon="11.242918334917885"><ele>268.0</ele><time>2026-04-09T10:32:40Z</time></trkpt><trkpt lat="43.999112172492765" lon="11.24296980825462"><ele>268.0</ele><time>2026-04-09T10:32:41Z</time></trkpt><trkpt lat="43.99920337742418" lon="11.243009822151802"><ele>268.0</ele><time>2026-04-09T10:32:42Z</time></trkpt><trkpt lat="43.999290269082536" lon="11.24305411927188"><ele>268.0</ele><time>2026-04-09T10:32:43Z</time></trkpt><trkpt lat="43.999366404645194" lon="11.24308680165737"><ele>268.0</ele><time>2026-04-09T10:32:44Z</time></trkpt><trkpt lat="43.99943958469904" lon="11.243128090098962"><ele>268.14285714285717</ele><time>2026-04-09T10:32:45Z</time></trkpt><trkpt lat="43.999506923171914" lon="11.243148954275899"><ele>268.2857142857143</ele><time>2026-04-09T10:32:46Z</time></trkpt><trkpt lat="43.99957339937145" lon="11.24319165157975"><ele>268.42857142857144</ele><time>2026-04-09T10:32:47Z</time></trkpt><trkpt lat="43.99961833307222" lon="11.24325556279023"><ele>268.57142857142856</ele><time>2026-04-09T10:32:48Z</time></trkpt><trkpt lat="43.99965926563806" lon="11.243352898829164"><ele>268.7142857142857</ele><time>2026-04-09T10:32:49Z</time></trkpt><trkpt lat="43.99970799745827" lon="11.243430936146638"><ele>268.8571428571429</ele><time>2026-04-09T10:32:50Z</time></trkpt><trkpt lat="43.99977358605623" lon="11.243445679118711"><ele>269.0</ele><time>2026-04-09T10:32:51Z</time></trkpt><trkpt lat="43.99984623945582" lon="11.243428093692534"><ele>269.0</ele><time>2026-04-09T10:32:52Z</time></trkpt><trkpt lat="43.9999301417289" lon="11.243387163077996"><ele>269.0</ele><time>2026-04-09T10:32:53Z</time></trkpt><trkpt lat="44.00002159616392" lon="11.243373946204347"><ele>269.0</ele><time>2026-04-09T10:32:54Z</time></trkpt><trkpt lat="44.00011504922275" lon="11.243414750398026"><ele>269.0</ele><time>2026-04-09T10:32:55Z</time></trkpt><trkpt lat="44.00022013540985" lon="11.24348006266482"><ele>269.0</ele><time>2026-04-09T10:32:56Z</time></trkpt><trkpt lat="44.00033320885021" lon="11.243531830328937"><ele>269.0</ele><time>2026-04-09T10:32:57Z</time></trkpt><trkpt lat="44.00044777968876" lon="11.243583097669182"><ele>269.0</ele><time>2026-04-09T10:32:58Z</time></trkpt><trkpt lat="44.00058065133066" lon="11.243623411015916"><ele>269.0</ele><time>2026-04-09T10:32:59Z</time></trkpt><trkpt lat="44.00072949704103" lon="11.24363843189797"><ele>269.0</ele><time>2026-04-09T10:33:00Z</time></trkpt><trkpt lat="44.00085743128229" lon="11.243624840312213"><ele>269.75</ele><time>2026-04-09T10:33:01Z</time></trkpt><trkpt lat="44.000983629334925" lon="11.243605082645834"><ele>270.5</ele><time>2026-04-09T10:33:02Z</time></trkpt><trkpt lat="44.001117637833325" lon="11.243561893151487"><ele>271.25</ele><time>2026-04-09T10:33:03Z</time></trkpt><trkpt lat="44.00126508171449" lon="11.243495478910171"><ele>272.0</ele><time>2026-04-09T10:33:04Z</time></trkpt><trkpt lat="44.0013948795598" lon="11.243420420786581"><ele>272.0</ele><time>2026-04-09T10:33:05Z</time></trkpt><trkpt lat="44.0015055044509" lon="11.243346006642552"><ele>272.0</ele><time>2026-04-09T10:33:06Z</time></trkpt><trkpt lat="44.001606351414026" lon="11.24328329302643"><ele>272.0</ele><time>2026-04-09T10:33:07Z</time></trkpt><trkpt lat="44.001717444876014" lon="11.243215436339483"><ele>272.0</ele><time>2026-04-09T10:33:08Z</time></trkpt><trkpt lat="44.00182843002785" lon="11.243138762128737"><ele>271.4</ele><time>2026-04-09T10:33:09Z</time></trkpt><trkpt lat="44.00194528356202" lon="11.243064358870178"><ele>270.79999999999995</ele><time>2026-04-09T10:33:10Z</time></trkpt><trkpt lat="44.002027488874646" lon="11.243011329931011"><ele>270.2</ele><time>2026-04-09T10:33:11Z</time></trkpt><trkpt lat="44.00211798590983" lon="11.242964814280576"><ele>269.59999999999997</ele><time>2026-04-09T10:33:12Z</time></trkpt><trkpt lat="44.002225944332494" lon="11.242895056726473"><ele>269.0</ele><time>2026-04-09T10:33:13Z</time></trkpt><trkpt lat="44.00235955970854" lon="11.242792669178014"><ele>271.0</ele><time>2026-04-09T10:33:14Z</time></trkpt><trkpt lat="44.00251244295017" lon="11.242686504644894"><ele>273.0</ele><time>2026-04-09T10:33:15Z</time></trkpt><trkpt lat="44.00267895294993" lon="11.242581625791122"><ele>275.0</ele><time>2026-04-09T10:33:16Z</time></trkpt><trkpt lat="44.002828759713985" lon="11.242486033347717"><ele>275.0</ele><time>2026-04-09T10:33:17Z</time></trkpt><trkpt lat="44.00296259700747" lon="11.242400958275917"><ele>275.0</ele><time>2026-04-09T10:33:18Z</time></trkpt><trkpt lat="44.003091721581505" lon="11.24230993264193"><ele>275.0</ele><time>2026-04-09T10:33:19Z</time></trkpt><trkpt lat="44.00322338995676" lon="11.242200677256864"><ele>275.0</ele><time>2026-04-09T10:33:20Z</time></trkpt><trkpt lat="44.00336432583789" lon="11.242064741323146"><ele>275.0</ele><time>2026-04-09T10:33:21Z</time></trkpt><trkpt lat="44.00349774400849" lon="11.24190941812822"><ele>275.0</ele><time>2026-04-09T10:33:22Z</time></trkpt><trkpt lat="44.00362372267629" lon="11.24173102788003"><ele>275.0</ele><time>2026-04-09T10:33:23Z</time></trkpt><trkpt lat="44.00373353791508" lon="11.241550973531375"><ele>274.6666666666667</ele><time>2026-04-09T10:33:24Z</time></trkpt><trkpt lat="44.00383032460616" lon="11.241375779012051"><ele>274.3333333333333</ele><time>2026-04-09T10:33:25Z</time></trkpt><trkpt lat="44.00393043056174" lon="11.241208826391457"><ele>274.0</ele><time>2026-04-09T10:33:26Z</time></trkpt><trkpt lat="44.00405436780021" lon="11.241040619256127"><ele>274.0</ele><time>2026-04-09T10:33:27Z</time></trkpt><trkpt lat="44.004141957067255" lon="11.240865727874482"><ele>274.0</ele><time>2026-04-09T10:33:28Z</time></trkpt><trkpt lat="44.00423570946482" lon="11.2407200586992"><ele>274.0</ele><time>2026-04-09T10:33:29Z</time></trkpt><trkpt lat="44.00434293048695" lon="11.240603746614411"><ele>274.0</ele><time>2026-04-09T10:33:30Z</time></trkpt><trkpt lat="44.00445299223808" lon="11.240481011655437"><ele>274.3333333333333</ele><time>2026-04-09T10:33:31Z</time></trkpt><trkpt lat="44.00458297359725" lon="11.240360127120113"><ele>274.6666666666667</ele><time>2026-04-09T10:33:32Z</time></trkpt><trkpt lat="44.004731360158786" lon="11.240252528653453"><ele>275.0</ele><time>2026-04-09T10:33:33Z</time></trkpt><trkpt lat="44.004864388709095" lon="11.240156783646631"><ele>275.75</ele><time>2026-04-09T10:33:34Z</time></trkpt><trkpt lat="44.004996663386294" lon="11.240111961672834"><ele>276.5</ele><time>2026-04-09T10:33:35Z</time></trkpt><trkpt lat="44.005126310709436" lon="11.24007651030784"><ele>277.25</ele><time>2026-04-09T10:33:36Z</time></trkpt><trkpt lat="44.00526669779935" lon="11.24006024524728"><ele>278.0</ele><time>2026-04-09T10:33:37Z</time></trkpt><trkpt lat="44.00540986568924" lon="11.240053537815877"><ele>278.0</ele><time>2026-04-09T10:33:38Z</time></trkpt><trkpt lat="44.005532829405134" lon="11.240063508152737"><ele>278.0</ele><time>2026-04-09T10:33:39Z</time></trkpt><trkpt lat="44.00566118677821" lon="11.240088827806877"><ele>278.0</ele><time>2026-04-09T10:33:40Z</time></trkpt><trkpt lat="44.005811905349994" lon="11.240120705974693"><ele>278.0</ele><time>2026-04-09T10:33:41Z</time></trkpt><trkpt lat="44.0059548901134" lon="11.240156576691419"><ele>278.5</ele><time>2026-04-09T10:33:42Z</time></trkpt><trkpt lat="44.006085868855564" lon="11.24019225077269"><ele>279.0</ele><time>2026-04-09T10:33:43Z</time></trkpt><trkpt lat="44.00622920539104" lon="11.240222748578274"><ele>279.5</ele><time>2026-04-09T10:33:44Z</time></trkpt><trkpt lat="44.00637896676341" lon="11.240254600764104"><ele>280.0</ele><time>2026-04-09T10:33:45Z</time></trkpt><trkpt lat="44.00654375143967" lon="11.240290872419564"><ele>279.25</ele><time>2026-04-09T10:33:46Z</time></trkpt><trkpt lat="44.00669536249228" lon="11.240326344994607"><ele>278.5</ele><time>2026-04-09T10:33:47Z</time></trkpt><trkpt lat="44.00683827024373" lon="11.24035967981921"><ele>277.75</ele><time>2026-04-09T10:33:48Z</time></trkpt><trkpt lat="44.00698742804544" lon="11.2403871454913"><ele>277.0</ele><time>2026-04-09T10:33:49Z</time></trkpt><trkpt lat="44.007154762763754" lon="11.240420062512948"><ele>277.0</ele><time>2026-04-09T10:33:50Z</time></trkpt><trkpt lat="44.007320058764215" lon="11.240457769713514"><ele>277.0</ele><time>2026-04-09T10:33:51Z</time></trkpt><trkpt lat="44.007450449776016" lon="11.240488062628762"><ele>277.0</ele><time>2026-04-09T10:33:52Z</time></trkpt><trkpt lat="44.00757953306632" lon="11.240499213217806"><ele>277.0</ele><time>2026-04-09T10:33:53Z</time></trkpt><trkpt lat="44.007714057420934" lon="11.240505831395808"><ele>277.4</ele><time>2026-04-09T10:33:54Z</time></trkpt><trkpt lat="44.007860674362455" lon="11.240503482466734"><ele>277.79999999999995</ele><time>2026-04-09T10:33:55Z</time></trkpt><trkpt lat="44.0079776859153" lon="11.24049375704073"><ele>278.2</ele><time>2026-04-09T10:33:56Z</time></trkpt><trkpt lat="44.00805990347137" lon="11.240491204272725"><ele>278.59999999999997</ele><time>2026-04-09T10:33:57Z</time></trkpt><trkpt lat="44.008153655576606" lon="11.240485214982458"><ele>279.0</ele><time>2026-04-09T10:33:58Z</time></trkpt><trkpt lat="44.008244891225054" lon="11.24046664712972"><ele>279.0</ele><time>2026-04-09T10:33:59Z</time></trkpt><trkpt lat="44.00834395851379" lon="11.24043350210995"><ele>279.0</ele><time>2026-04-09T10:34:00Z</time></trkpt><trkpt lat="44.008456818979155" lon="11.240391387429737"><ele>279.0</ele><time>2026-04-09T10:34:01Z</time></trkpt><trkpt lat="44.008591543211864" lon="11.24034231876657"><ele>279.0</ele><time>2026-04-09T10:34:02Z</time></trkpt><trkpt lat="44.00872681585282" lon="11.240285256438694"><ele>279.0</ele><time>2026-04-09T10:34:03Z</time></trkpt><trkpt lat="44.00885882441727" lon="11.24021542302501"><ele>279.0</ele><time>2026-04-09T10:34:04Z</time></trkpt><trkpt lat="44.009000017911525" lon="11.24013043336452"><ele>279.0</ele><time>2026-04-09T10:34:05Z</time></trkpt><trkpt lat="44.00915184172531" lon="11.240052777487834"><ele>279.3333333333333</ele><time>2026-04-09T10:34:06Z</time></trkpt><trkpt lat="44.00929876990037" lon="11.239940413210727"><ele>279.66666666666663</ele><time>2026-04-09T10:34:07Z</time></trkpt><trkpt lat="44.009428252205275" lon="11.239827428597039"><ele>280.0</ele><time>2026-04-09T10:34:08Z</time></trkpt><trkpt lat="44.00954762815881" lon="11.239712450697992"><ele>280.0</ele><time>2026-04-09T10:34:09Z</time></trkpt><trkpt lat="44.0096665831236" lon="11.239585414719928"><ele>280.0</ele><time>2026-04-09T10:34:10Z</time></trkpt><trkpt lat="44.00978726603225" lon="11.239451749668747"><ele>280.0</ele><time>2026-04-09T10:34:11Z</time></trkpt><trkpt lat="44.009906943481994" lon="11.239314566791512"><ele>280.0</ele><time>2026-04-09T10:34:12Z</time></trkpt><trkpt lat="44.01002144593029" lon="11.239183317328832"><ele>280.0</ele><time>2026-04-09T10:34:13Z</time></trkpt><trkpt lat="44.01013390906126" lon="11.23905440402188"><ele>280.0</ele><time>2026-04-09T10:34:14Z</time></trkpt><trkpt lat="44.01024874672767" lon="11.238923013026593"><ele>280.0</ele><time>2026-04-09T10:34:15Z</time></trkpt><trkpt lat="44.01036836938149" lon="11.238786200933987"><ele>280.0</ele><time>2026-04-09T10:34:16Z</time></trkpt><trkpt lat="44.0104782232264" lon="11.238661557871584"><ele>280.0</ele><time>2026-04-09T10:34:17Z</time></trkpt><trkpt lat="44.0105905643672" lon="11.238535214981452"><ele>280.0</ele><time>2026-04-09T10:34:18Z</time></trkpt><trkpt lat="44.01071153737287" lon="11.238406161747918"><ele>280.0</ele><time>2026-04-09T10:34:19Z</time></trkpt><trkpt lat="44.010831078861756" lon="11.23825787607308"><ele>280.5</ele><time>2026-04-09T10:34:20Z</time></trkpt><trkpt lat="44.01096485331519" lon="11.238155670186268"><ele>281.0</ele><time>2026-04-09T10:34:21Z</time></trkpt><trkpt lat="44.01108189863601" lon="11.238047561087061"><ele>281.5</ele><time>2026-04-09T10:34:22Z</time></trkpt><trkpt lat="44.01118121432312" lon="11.237929575087296"><ele>282.0</ele><time>2026-04-09T10:34:23Z</time></trkpt><trkpt lat="44.011285695431035" lon="11.237841330015048"><ele>282.25</ele><time>2026-04-09T10:34:24Z</time></trkpt><trkpt lat="44.01139225752384" lon="11.237749752472196"><ele>282.5</ele><time>2026-04-09T10:34:25Z</time></trkpt><trkpt lat="44.011490595933374" lon="11.237682102367454"><ele>282.75</ele><time>2026-04-09T10:34:26Z</time></trkpt><trkpt lat="44.01159716206059" lon="11.237613282875335"><ele>283.0</ele><time>2026-04-09T10:34:27Z</time></trkpt><trkpt lat="44.01170515132901" lon="11.237527146850773"><ele>283.25</ele><time>2026-04-09T10:34:28Z</time></trkpt><trkpt lat="44.01181353599726" lon="11.237428902241435"><ele>283.5</ele><time>2026-04-09T10:34:29Z</time></trkpt><trkpt lat="44.01193530901874" lon="11.23733698171971"><ele>283.75</ele><time>2026-04-09T10:34:30Z</time></trkpt><trkpt lat="44.01206684215355" lon="11.237246080186802"><ele>284.0</ele><time>2026-04-09T10:34:31Z</time></trkpt><trkpt lat="44.01220723761745" lon="11.237157343285096"><ele>284.0</ele><time>2026-04-09T10:34:32Z</time></trkpt><trkpt lat="44.012352560566704" lon="11.237065003403217"><ele>284.0</ele><time>2026-04-09T10:34:33Z</time></trkpt><trkpt lat="44.01250257274241" lon="11.236979017775418"><ele>284.0</ele><time>2026-04-09T10:34:34Z</time></trkpt><trkpt lat="44.012660232612866" lon="11.236901327223833"><ele>284.6666666666667</ele><time>2026-04-09T10:34:35Z</time></trkpt><trkpt lat="44.012826462483474" lon="11.236822176304402"><ele>285.3333333333333</ele><time>2026-04-09T10:34:36Z</time></trkpt><trkpt lat="44.01300255051732" lon="11.236737293363547"><ele>286.0</ele><time>2026-04-09T10:34:37Z</time></trkpt><trkpt lat="44.0131551943494" lon="11.236667070610235"><ele>286.0</ele><time>2026-04-09T10:34:38Z</time></trkpt><trkpt lat="44.01327967685516" lon="11.236616177960853"><ele>286.0</ele><time>2026-04-09T10:34:39Z</time></trkpt><trkpt lat="44.01338087159559" lon="11.236552046646995"><ele>286.0</ele><time>2026-04-09T10:34:40Z</time></trkpt><trkpt lat="44.01345824817853" lon="11.236489384703923"><ele>286.0</ele><time>2026-04-09T10:34:41Z</time></trkpt><trkpt lat="44.013536519170934" lon="11.236444209319862"><ele>286.0</ele><time>2026-04-09T10:34:42Z</time></trkpt><trkpt lat="44.01360962809762" lon="11.23638598009912"><ele>286.0</ele><time>2026-04-09T10:34:43Z</time></trkpt><trkpt lat="44.013693699607664" lon="11.236311263000815"><ele>286.0</ele><time>2026-04-09T10:34:44Z</time></trkpt><trkpt lat="44.01402854119629" lon="11.236165124191453"><ele>287.0</ele><time>2026-04-09T10:34:45Z</time></trkpt><trkpt lat="44.01419571784636" lon="11.236136204229323"><ele>288.0</ele><time>2026-04-09T10:34:46Z</time></trkpt><trkpt lat="44.01435463604702" lon="11.236112404849457"><ele>289.0</ele><time>2026-04-09T10:34:47Z</time></trkpt><trkpt lat="44.01451976381771" lon="11.236085501853214"><ele>289.0</ele><time>2026-04-09T10:34:48Z</time></trkpt><trkpt lat="44.01469236376768" lon="11.236056090051525"><ele>289.0</ele><time>2026-04-09T10:34:49Z</time></trkpt><trkpt lat="44.014868318958" lon="11.23602755787371"><ele>289.0</ele><time>2026-04-09T10:34:50Z</time></trkpt><trkpt lat="44.01502528582202" lon="11.235986703287345"><ele>291.3333333333333</ele><time>2026-04-09T10:34:51Z</time></trkpt><trkpt lat="44.015183902329014" lon="11.236007676183771"><ele>293.6666666666667</ele><time>2026-04-09T10:34:52Z</time></trkpt><trkpt lat="44.01535504542025" lon="11.236018594324456"><ele>296.0</ele><time>2026-04-09T10:34:53Z</time></trkpt><trkpt lat="44.01550574766483" lon="11.236037045198827"><ele>296.0</ele><time>2026-04-09T10:34:54Z</time></trkpt><trkpt lat="44.01564151056575" lon="11.236062780883172"><ele>296.0</ele><time>2026-04-09T10:34:55Z</time></trkpt><trkpt lat="44.015777188390736" lon="11.236102373751384"><ele>296.0</ele><time>2026-04-09T10:34:56Z</time></trkpt><trkpt lat="44.01590314403482" lon="11.236144820915198"><ele>296.0</ele><time>2026-04-09T10:34:57Z</time></trkpt><trkpt lat="44.01600176425412" lon="11.236201871709993"><ele>296.0</ele><time>2026-04-09T10:34:58Z</time></trkpt><trkpt lat="44.016074502011904" lon="11.23628655864249"><ele>296.0</ele><time>2026-04-09T10:34:59Z</time></trkpt><trkpt lat="44.016137100959114" lon="11.236407715363548"><ele>296.0</ele><time>2026-04-09T10:35:00Z</time></trkpt><trkpt lat="44.01620448904737" lon="11.236542491686636"><ele>296.0</ele><time>2026-04-09T10:35:01Z</time></trkpt><trkpt lat="44.01628791896156" lon="11.236667666689561"><ele>296.0</ele><time>2026-04-09T10:35:02Z</time></trkpt><trkpt lat="44.01637853536501" lon="11.236782399947286"><ele>297.25</ele><time>2026-04-09T10:35:03Z</time></trkpt><trkpt lat="44.01649713765635" lon="11.236867932184625"><ele>298.5</ele><time>2026-04-09T10:35:04Z</time></trkpt><trkpt lat="44.016623161829564" lon="11.236931619795334"><ele>299.75</ele><time>2026-04-09T10:35:05Z</time></trkpt><trkpt lat="44.016760705057926" lon="11.236982923434617"><ele>301.0</ele><time>2026-04-09T10:35:06Z</time></trkpt><trkpt lat="44.01690927790107" lon="11.237046434963261"><ele>301.0</ele><time>2026-04-09T10:35:07Z</time></trkpt><trkpt lat="44.01707393524382" lon="11.237118993165504"><ele>301.0</ele><time>2026-04-09T10:35:08Z</time></trkpt><trkpt lat="44.01724470930015" lon="11.237196099997101"><ele>301.0</ele><time>2026-04-09T10:35:09Z</time></trkpt><trkpt lat="44.01741564086597" lon="11.23727108575089"><ele>307.0</ele><time>2026-04-09T10:35:10Z</time></trkpt><trkpt lat="44.017596805475804" lon="11.237356146751665"><ele>313.0</ele><time>2026-04-09T10:35:11Z</time></trkpt><trkpt lat="44.01774743532131" lon="11.237453043178649"><ele>319.0</ele><time>2026-04-09T10:35:12Z</time></trkpt><trkpt lat="44.017890611369644" lon="11.237498304808549"><ele>319.0</ele><time>2026-04-09T10:35:13Z</time></trkpt><trkpt lat="44.018000745569324" lon="11.237576177972196"><ele>319.0</ele><time>2026-04-09T10:35:14Z</time></trkpt><trkpt lat="44.01806673995325" lon="11.237681028078255"><ele>319.0</ele><time>2026-04-09T10:35:15Z</time></trkpt><trkpt lat="44.01810085386558" lon="11.237795865457297"><ele>319.0</ele><time>2026-04-09T10:35:16Z</time></trkpt><trkpt lat="44.0180970699574" lon="11.237942045539198"><ele>319.0</ele><time>2026-04-09T10:35:17Z</time></trkpt><trkpt lat="44.01806366209455" lon="11.238112893970142"><ele>322.5</ele><time>2026-04-09T10:35:18Z</time></trkpt><trkpt lat="44.018023216659195" lon="11.238291809583563"><ele>326.0</ele><time>2026-04-09T10:35:19Z</time></trkpt><trkpt lat="44.01801230594401" lon="11.238455892503554"><ele>329.5</ele><time>2026-04-09T10:35:20Z</time></trkpt><trkpt lat="44.01803236427981" lon="11.238587169490103"><ele>333.0</ele><time>2026-04-09T10:35:21Z</time></trkpt><trkpt lat="44.01807670599251" lon="11.238725377583355"><ele>333.0</ele><time>2026-04-09T10:35:22Z</time></trkpt><trkpt lat="44.01815821665199" lon="11.238841042038946"><ele>333.0</ele><time>2026-04-09T10:35:23Z</time></trkpt><trkpt lat="44.01826768886506" lon="11.23895189788918"><ele>333.0</ele><time>2026-04-09T10:35:24Z</time></trkpt><trkpt lat="44.01841058498711" lon="11.239035722734567"><ele>333.0</ele><time>2026-04-09T10:35:25Z</time></trkpt><trkpt lat="44.01855567715804" lon="11.239115445467286"><ele>330.75</ele><time>2026-04-09T10:35:26Z</time></trkpt><trkpt lat="44.01870304665369" lon="11.239191753599972"><ele>328.5</ele><time>2026-04-09T10:35:27Z</time></trkpt><trkpt lat="44.01881876206198" lon="11.2392477190162"><ele>326.25</ele><time>2026-04-09T10:35:28Z</time></trkpt><trkpt lat="44.018921904498214" lon="11.239275140102071"><ele>324.0</ele><time>2026-04-09T10:35:29Z</time></trkpt><trkpt lat="44.019025258882856" lon="11.239246121654409"><ele>324.0</ele><time>2026-04-09T10:35:30Z</time></trkpt><trkpt lat="44.01912256417457" lon="11.239173167767863"><ele>324.0</ele><time>2026-04-09T10:35:31Z</time></trkpt><trkpt lat="44.01920449348208" lon="11.239000429912394"><ele>324.0</ele><time>2026-04-09T10:35:32Z</time></trkpt><trkpt lat="44.01928694679269" lon="11.238813072762854"><ele>324.0</ele><time>2026-04-09T10:35:33Z</time></trkpt><trkpt lat="44.019387639362236" lon="11.238653788158038"><ele>322.0</ele><time>2026-04-09T10:35:34Z</time></trkpt><trkpt lat="44.019471234640896" lon="11.238520115182308"><ele>320.0</ele><time>2026-04-09T10:35:35Z</time></trkpt><trkpt lat="44.01955104097234" lon="11.238425208402578"><ele>318.0</ele><time>2026-04-09T10:35:36Z</time></trkpt><trkpt lat="44.01967344644018" lon="11.238404425401505"><ele>316.0</ele><time>2026-04-09T10:35:37Z</time></trkpt><trkpt lat="44.01980567974493" lon="11.238407671442912"><ele>316.0</ele><time>2026-04-09T10:35:38Z</time></trkpt><trkpt lat="44.01995729249638" lon="11.238421865832846"><ele>316.0</ele><time>2026-04-09T10:35:39Z</time></trkpt><trkpt lat="44.02010327720209" lon="11.238371095200513"><ele>316.0</ele><time>2026-04-09T10:35:40Z</time></trkpt><trkpt lat="44.02025234588841" lon="11.238263098550622"><ele>314.75</ele><time>2026-04-09T10:35:41Z</time></trkpt><trkpt lat="44.02038758267908" lon="11.238122720252996"><ele>313.5</ele><time>2026-04-09T10:35:42Z</time></trkpt><trkpt lat="44.020520201771724" lon="11.238027096865524"><ele>312.25</ele><time>2026-04-09T10:35:43Z</time></trkpt><trkpt lat="44.0206309999256" lon="11.237948673989509"><ele>311.0</ele><time>2026-04-09T10:35:44Z</time></trkpt><trkpt lat="44.02074368389039" lon="11.237901955108438"><ele>313.20000000000005</ele><time>2026-04-09T10:35:45Z</time></trkpt><trkpt lat="44.02083843536474" lon="11.237913534758373"><ele>315.40000000000003</ele><time>2026-04-09T10:35:46Z</time></trkpt><trkpt lat="44.02092628280779" lon="11.237965404773972"><ele>317.6</ele><time>2026-04-09T10:35:47Z</time></trkpt><trkpt lat="44.02097896176248" lon="11.238102406839277"><ele>319.8</ele><time>2026-04-09T10:35:48Z</time></trkpt><trkpt lat="44.02104890712159" lon="11.23823328272777"><ele>322.0</ele><time>2026-04-09T10:35:49Z</time></trkpt><trkpt lat="44.02111708672622" lon="11.2383748404521"><ele>326.25</ele><time>2026-04-09T10:35:50Z</time></trkpt><trkpt lat="44.02123157847265" lon="11.238486153517252"><ele>330.5</ele><time>2026-04-09T10:35:51Z</time></trkpt><trkpt lat="44.02134841838681" lon="11.238514372777502"><ele>334.75</ele><time>2026-04-09T10:35:52Z</time></trkpt><trkpt lat="44.02147555453153" lon="11.238495264414063"><ele>339.0</ele><time>2026-04-09T10:35:53Z</time></trkpt><trkpt lat="44.02158155838872" lon="11.238443516328472"><ele>339.25</ele><time>2026-04-09T10:35:54Z</time></trkpt><trkpt lat="44.02167921691104" lon="11.238427777238684"><ele>339.5</ele><time>2026-04-09T10:35:55Z</time></trkpt><trkpt lat="44.02177898814793" lon="11.238468813210412"><ele>339.75</ele><time>2026-04-09T10:35:56Z</time></trkpt><trkpt lat="44.02186949141864" lon="11.238589354972687"><ele>340.0</ele><time>2026-04-09T10:35:57Z</time></trkpt><trkpt lat="44.022000077555695" lon="11.238642004020926"><ele>340.0</ele><time>2026-04-09T10:35:58Z</time></trkpt><trkpt lat="44.02211755756215" lon="11.238636558316585"><ele>340.0</ele><time>2026-04-09T10:35:59Z</time></trkpt><trkpt lat="44.02223258874823" lon="11.238577300981866"><ele>340.0</ele><time>2026-04-09T10:36:00Z</time></trkpt><trkpt lat="44.02234036944464" lon="11.238478856680638"><ele>340.0</ele><time>2026-04-09T10:36:01Z</time></trkpt><trkpt lat="44.02245106206443" lon="11.238404712111555"><ele>340.0</ele><time>2026-04-09T10:36:02Z</time></trkpt><trkpt lat="44.02255642392894" lon="11.238356064611235"><ele>340.0</ele><time>2026-04-09T10:36:03Z</time></trkpt><trkpt lat="44.022671272471456" lon="11.238385830292046"><ele>340.0</ele><time>2026-04-09T10:36:04Z</time></trkpt><trkpt lat="44.02278177609088" lon="11.238485275945262"><ele>340.0</ele><time>2026-04-09T10:36:05Z</time></trkpt><trkpt lat="44.0229298547341" lon="11.238563587758362"><ele>340.0</ele><time>2026-04-09T10:36:06Z</time></trkpt><trkpt lat="44.02308302679134" lon="11.238678338327095"><ele>340.0</ele><time>2026-04-09T10:36:07Z</time></trkpt><trkpt lat="44.023223051608255" lon="11.238764816456865"><ele>340.0</ele><time>2026-04-09T10:36:08Z</time></trkpt><trkpt lat="44.02332607231151" lon="11.238866996798917"><ele>342.6</ele><time>2026-04-09T10:36:09Z</time></trkpt><trkpt lat="44.02339720016813" lon="11.239003115616162"><ele>345.2</ele><time>2026-04-09T10:36:10Z</time></trkpt><trkpt lat="44.023437760798124" lon="11.239150150930714"><ele>347.79999999999995</ele><time>2026-04-09T10:36:11Z</time></trkpt><trkpt lat="44.023496034502784" lon="11.23926827678739"><ele>350.4</ele><time>2026-04-09T10:36:12Z</time></trkpt><trkpt lat="44.023593773318204" lon="11.239342623900331"><ele>353.0</ele><time>2026-04-09T10:36:13Z</time></trkpt><trkpt lat="44.023725528101444" lon="11.239364534165942"><ele>353.0</ele><time>2026-04-09T10:36:14Z</time></trkpt><trkpt lat="44.02384938578386" lon="11.239334984509618"><ele>353.0</ele><time>2026-04-09T10:36:15Z</time></trkpt><trkpt lat="44.02396331306811" lon="11.239354766978053"><ele>353.0</ele><time>2026-04-09T10:36:16Z</time></trkpt><trkpt lat="44.02407232319485" lon="11.239434861068828"><ele>353.0</ele><time>2026-04-09T10:36:17Z</time></trkpt><trkpt lat="44.02417887607507" lon="11.239572139123446"><ele>348.6666666666667</ele><time>2026-04-09T10:36:18Z</time></trkpt><trkpt lat="44.02430622817105" lon="11.239725413137773"><ele>344.3333333333333</ele><time>2026-04-09T10:36:19Z</time></trkpt><trkpt lat="44.024469737892396" lon="11.239838811403054"><ele>340.0</ele><time>2026-04-09T10:36:20Z</time></trkpt><trkpt lat="44.02463931718934" lon="11.239949495337907"><ele>342.5</ele><time>2026-04-09T10:36:21Z</time></trkpt><trkpt lat="44.024767345645685" lon="11.240062869018741"><ele>345.0</ele><time>2026-04-09T10:36:22Z</time></trkpt><trkpt lat="44.024873535993876" lon="11.240162683432061"><ele>347.5</ele><time>2026-04-09T10:36:23Z</time></trkpt><trkpt lat="44.024975649096284" lon="11.240282490851778"><ele>350.0</ele><time>2026-04-09T10:36:24Z</time></trkpt><trkpt lat="44.02505980930373" lon="11.240463788274885"><ele>357.25</ele><time>2026-04-09T10:36:25Z</time></trkpt><trkpt lat="44.02513368424928" lon="11.24067580768594"><ele>364.5</ele><time>2026-04-09T10:36:26Z</time></trkpt><trkpt lat="44.02517736700856" lon="11.240859524900188"><ele>371.75</ele><time>2026-04-09T10:36:27Z</time></trkpt><trkpt lat="44.02521430881366" lon="11.241001795991151"><ele>379.0</ele><time>2026-04-09T10:36:28Z</time></trkpt><trkpt lat="44.02527649410161" lon="11.24110522925303"><ele>379.0</ele><time>2026-04-09T10:36:29Z</time></trkpt><trkpt lat="44.025345797740336" lon="11.241174719792195"><ele>379.0</ele><time>2026-04-09T10:36:30Z</time></trkpt><trkpt lat="44.02544531599063" lon="11.24120719472938"><ele>379.0</ele><time>2026-04-09T10:36:31Z</time></trkpt><trkpt lat="44.02554360058856" lon="11.241165392461012"><ele>379.0</ele><time>2026-04-09T10:36:32Z</time></trkpt><trkpt lat="44.02563264901781" lon="11.241023740990475"><ele>379.0</ele><time>2026-04-09T10:36:33Z</time></trkpt><trkpt lat="44.02568535796579" lon="11.240853983242614"><ele>379.0</ele><time>2026-04-09T10:36:34Z</time></trkpt><trkpt lat="44.02577707521116" lon="11.240747552536087"><ele>379.0</ele><time>2026-04-09T10:36:35Z</time></trkpt><trkpt lat="44.02586244742884" lon="11.240688514415414"><ele>379.0</ele><time>2026-04-09T10:36:36Z</time></trkpt><trkpt lat="44.02595885713235" lon="11.240677690207349"><ele>379.0</ele><time>2026-04-09T10:36:37Z</time></trkpt><trkpt lat="44.026074013328966" lon="11.240700397691297"><ele>379.0</ele><time>2026-04-09T10:36:38Z</time></trkpt><trkpt lat="44.02621964933866" lon="11.240746406808137"><ele>373.66666666666663</ele><time>2026-04-09T10:36:39Z</time></trkpt><trkpt lat="44.02640271444612" lon="11.240794389106412"><ele>368.3333333333333</ele><time>2026-04-09T10:36:40Z</time></trkpt><trkpt lat="44.026580957873186" lon="11.240825044056727"><ele>363.0</ele><time>2026-04-09T10:36:41Z</time></trkpt><trkpt lat="44.026723525469826" lon="11.240836736111946"><ele>363.0</ele><time>2026-04-09T10:36:42Z</time></trkpt><trkpt lat="44.02684561746514" lon="11.240917566080554"><ele>363.0</ele><time>2026-04-09T10:36:43Z</time></trkpt><trkpt lat="44.02697823229634" lon="11.240998141037666"><ele>363.0</ele><time>2026-04-09T10:36:44Z</time></trkpt><trkpt lat="44.02708026837666" lon="11.24110863612472"><ele>363.0</ele><time>2026-04-09T10:36:45Z</time></trkpt><trkpt lat="44.027166455567574" lon="11.241232412003294"><ele>363.0</ele><time>2026-04-09T10:36:46Z</time></trkpt><trkpt lat="44.02724155936059" lon="11.241396677127833"><ele>363.0</ele><time>2026-04-09T10:36:47Z</time></trkpt><trkpt lat="44.02732099282852" lon="11.241609637627663"><ele>363.0</ele><time>2026-04-09T10:36:48Z</time></trkpt><trkpt lat="44.02741398594374" lon="11.241855126773114"><ele>365.0</ele><time>2026-04-09T10:36:49Z</time></trkpt><trkpt lat="44.027516500115304" lon="11.242087691993087"><ele>367.0</ele><time>2026-04-09T10:36:50Z</time></trkpt><trkpt lat="44.02761400754551" lon="11.242291781585076"><ele>369.0</ele><time>2026-04-09T10:36:51Z</time></trkpt><trkpt lat="44.02770018443847" lon="11.242471226412778"><ele>372.75</ele><time>2026-04-09T10:36:52Z</time></trkpt><trkpt lat="44.027761782426985" lon="11.242626559460398"><ele>376.5</ele><time>2026-04-09T10:36:53Z</time></trkpt><trkpt lat="44.02779945068136" lon="11.242794989609639"><ele>380.25</ele><time>2026-04-09T10:36:54Z</time></trkpt><trkpt lat="44.02780582306274" lon="11.242957607417445"><ele>384.0</ele><time>2026-04-09T10:36:55Z</time></trkpt><trkpt lat="44.02784322483506" lon="11.243080123181896"><ele>389.25</ele><time>2026-04-09T10:36:56Z</time></trkpt><trkpt lat="44.027921618062095" lon="11.243151394937088"><ele>394.5</ele><time>2026-04-09T10:36:57Z</time></trkpt><trkpt lat="44.028032006104915" lon="11.243186333597334"><ele>399.75</ele><time>2026-04-09T10:36:58Z</time></trkpt><trkpt lat="44.02815908102908" lon="11.243205343704894"><ele>405.0</ele><time>2026-04-09T10:36:59Z</time></trkpt><trkpt lat="44.02828469361708" lon="11.243248467526918"><ele>398.25</ele><time>2026-04-09T10:37:00Z</time></trkpt><trkpt lat="44.02837214142396" lon="11.24333267715853"><ele>391.5</ele><time>2026-04-09T10:37:01Z</time></trkpt><trkpt lat="44.0284370000343" lon="11.243486122470296"><ele>384.75</ele><time>2026-04-09T10:37:02Z</time></trkpt><trkpt lat="44.028486531865305" lon="11.243662672363719"><ele>378.0</ele><time>2026-04-09T10:37:03Z</time></trkpt><trkpt lat="44.02851987910361" lon="11.243877825081071"><ele>385.0</ele><time>2026-04-09T10:37:04Z</time></trkpt><trkpt lat="44.02854972686379" lon="11.24412449523474"><ele>392.0</ele><time>2026-04-09T10:37:05Z</time></trkpt><trkpt lat="44.02857351432399" lon="11.244345841418141"><ele>399.0</ele><time>2026-04-09T10:37:06Z</time></trkpt><trkpt lat="44.02860513766965" lon="11.244525943855963"><ele>399.0</ele><time>2026-04-09T10:37:07Z</time></trkpt><trkpt lat="44.028629772499286" lon="11.244695925103105"><ele>399.0</ele><time>2026-04-09T10:37:08Z</time></trkpt><trkpt lat="44.02868670832805" lon="11.244833828566117"><ele>399.0</ele><time>2026-04-09T10:37:09Z</time></trkpt><trkpt lat="44.02875307551039" lon="11.244936326324977"><ele>399.0</ele><time>2026-04-09T10:37:10Z</time></trkpt><trkpt lat="44.02882959982231" lon="11.245032528051489"><ele>399.0</ele><time>2026-04-09T10:37:11Z</time></trkpt><trkpt lat="44.02893040812124" lon="11.245072900136666"><ele>399.75</ele><time>2026-04-09T10:37:12Z</time></trkpt><trkpt lat="44.029037675486286" lon="11.245062918885367"><ele>400.5</ele><time>2026-04-09T10:37:13Z</time></trkpt><trkpt lat="44.02912734489529" lon="11.244992599137206"><ele>401.25</ele><time>2026-04-09T10:37:14Z</time></trkpt><trkpt lat="44.029210542561906" lon="11.244897992170348"><ele>402.0</ele><time>2026-04-09T10:37:15Z</time></trkpt><trkpt lat="44.0292843664764" lon="11.244703609329626"><ele>394.6666666666667</ele><time>2026-04-09T10:37:16Z</time></trkpt><trkpt lat="44.0293892603976" lon="11.244521916552577"><ele>387.33333333333337</ele><time>2026-04-09T10:37:17Z</time></trkpt><trkpt lat="44.02948883620293" lon="11.244317173616583"><ele>380.0</ele><time>2026-04-09T10:37:18Z</time></trkpt><trkpt lat="44.029591961977786" lon="11.244159547894052"><ele>380.0</ele><time>2026-04-09T10:37:19Z</time></trkpt><trkpt lat="44.02968096586316" lon="11.24402627491091"><ele>380.0</ele><time>2026-04-09T10:37:20Z</time></trkpt><trkpt lat="44.02976155371938" lon="11.243923210079425"><ele>380.0</ele><time>2026-04-09T10:37:21Z</time></trkpt><trkpt lat="44.029854127906134" lon="11.24386657669473"><ele>380.0</ele><time>2026-04-09T10:37:22Z</time></trkpt><trkpt lat="44.029954999927774" lon="11.243852405153762"><ele>380.0</ele><time>2026-04-09T10:37:23Z</time></trkpt><trkpt lat="44.03006364699064" lon="11.243874527784424"><ele>385.0</ele><time>2026-04-09T10:37:24Z</time></trkpt><trkpt lat="44.03017951579653" lon="11.243972841129079"><ele>390.0</ele><time>2026-04-09T10:37:25Z</time></trkpt><trkpt lat="44.03027329112021" lon="11.244102954836988"><ele>395.0</ele><time>2026-04-09T10:37:26Z</time></trkpt><trkpt lat="44.03038897710421" lon="11.244231666201534"><ele>400.0</ele><time>2026-04-09T10:37:27Z</time></trkpt><trkpt lat="44.03053584463256" lon="11.24436500709535"><ele>400.0</ele><time>2026-04-09T10:37:28Z</time></trkpt><trkpt lat="44.03071309336522" lon="11.244458161596594"><ele>400.0</ele><time>2026-04-09T10:37:29Z</time></trkpt><trkpt lat="44.0308715264063" lon="11.244539829798558"><ele>400.0</ele><time>2026-04-09T10:37:30Z</time></trkpt><trkpt lat="44.03099606653362" lon="11.244642768976428"><ele>397.2</ele><time>2026-04-09T10:37:31Z</time></trkpt><trkpt lat="44.03110271800964" lon="11.244708625341964"><ele>394.4</ele><time>2026-04-09T10:37:32Z</time></trkpt><trkpt lat="44.031172110412385" lon="11.244835820176958"><ele>391.6</ele><time>2026-04-09T10:37:33Z</time></trkpt><trkpt lat="44.031193132817556" lon="11.244963861030293"><ele>388.8</ele><time>2026-04-09T10:37:34Z</time></trkpt><trkpt lat="44.0312377539047" lon="11.245047089541155"><ele>386.0</ele><time>2026-04-09T10:37:35Z</time></trkpt><trkpt lat="44.03138912833151" lon="11.24520366538165"><ele>390.25</ele><time>2026-04-09T10:37:37Z</time></trkpt><trkpt lat="44.03155677911762" lon="11.245195173484788"><ele>394.5</ele><time>2026-04-09T10:37:38Z</time></trkpt><trkpt lat="44.03169714208264" lon="11.245079013872983"><ele>398.75</ele><time>2026-04-09T10:37:39Z</time></trkpt><trkpt lat="44.03178717469518" lon="11.245001196512508"><ele>403.0</ele><time>2026-04-09T10:37:40Z</time></trkpt><trkpt lat="44.03186275652845" lon="11.24494741412085"><ele>403.0</ele><time>2026-04-09T10:37:41Z</time></trkpt><trkpt lat="44.031941048962175" lon="11.244920563045035"><ele>403.0</ele><time>2026-04-09T10:37:42Z</time></trkpt><trkpt lat="44.032056182412866" lon="11.244936008445107"><ele>403.0</ele><time>2026-04-09T10:37:43Z</time></trkpt><trkpt lat="44.0321855678429" lon="11.245000799603323"><ele>403.0</ele><time>2026-04-09T10:37:44Z</time></trkpt><trkpt lat="44.03230334872127" lon="11.245133344197544"><ele>403.0</ele><time>2026-04-09T10:37:45Z</time></trkpt><trkpt lat="44.03240916267963" lon="11.245289538315857"><ele>403.0</ele><time>2026-04-09T10:37:46Z</time></trkpt><trkpt lat="44.03251532919393" lon="11.24546459656523"><ele>403.0</ele><time>2026-04-09T10:37:47Z</time></trkpt><trkpt lat="44.03262452733214" lon="11.245664805500029"><ele>408.6666666666667</ele><time>2026-04-09T10:37:48Z</time></trkpt><trkpt lat="44.03274970051921" lon="11.2458461910417"><ele>414.33333333333337</ele><time>2026-04-09T10:37:49Z</time></trkpt><trkpt lat="44.0329088569217" lon="11.24596598537047"><ele>420.0</ele><time>2026-04-09T10:37:50Z</time></trkpt><trkpt lat="44.03309032594192" lon="11.245985484741611"><ele>420.0</ele><time>2026-04-09T10:37:51Z</time></trkpt><trkpt lat="44.03323923137487" lon="11.246037347119891"><ele>420.0</ele><time>2026-04-09T10:37:52Z</time></trkpt><trkpt lat="44.03313707976231" lon="11.246043271300088"><ele>420.0</ele><time>2026-04-09T10:37:53Z</time></trkpt><trkpt lat="44.0332283623477" lon="11.246080901499338"><ele>420.0</ele><time>2026-04-09T10:37:54Z</time></trkpt><trkpt lat="44.033289540212145" lon="11.246195596258891"><ele>420.0</ele><time>2026-04-09T10:37:55Z</time></trkpt><trkpt lat="44.033290936515" lon="11.24636053213873"><ele>420.0</ele><time>2026-04-09T10:37:56Z</time></trkpt><trkpt lat="44.03331960536611" lon="11.246543809195993"><ele>420.0</ele><time>2026-04-09T10:37:57Z</time></trkpt><trkpt lat="44.033384619488054" lon="11.24668371205527"><ele>420.0</ele><time>2026-04-09T10:37:58Z</time></trkpt><trkpt lat="44.03345973242395" lon="11.246789188599095"><ele>418.25</ele><time>2026-04-09T10:37:59Z</time></trkpt><trkpt lat="44.0335594041024" lon="11.246861955648109"><ele>416.5</ele><time>2026-04-09T10:38:00Z</time></trkpt><trkpt lat="44.03367616985443" lon="11.246934878609848"><ele>414.75</ele><time>2026-04-09T10:38:01Z</time></trkpt><trkpt lat="44.0338056130408" lon="11.247038872936317"><ele>413.0</ele><time>2026-04-09T10:38:02Z</time></trkpt><trkpt lat="44.03395422913454" lon="11.247156408224688"><ele>413.0</ele><time>2026-04-09T10:38:03Z</time></trkpt><trkpt lat="44.034122427943416" lon="11.247254811219777"><ele>413.0</ele><time>2026-04-09T10:38:04Z</time></trkpt><trkpt lat="44.03426658387604" lon="11.247323968615627"><ele>413.0</ele><time>2026-04-09T10:38:05Z</time></trkpt><trkpt lat="44.03438592103607" lon="11.247369967193773"><ele>415.25</ele><time>2026-04-09T10:38:06Z</time></trkpt><trkpt lat="44.03447730983124" lon="11.247443120937874"><ele>417.5</ele><time>2026-04-09T10:38:07Z</time></trkpt><trkpt lat="44.03451628749069" lon="11.24759750860986"><ele>419.75</ele><time>2026-04-09T10:38:08Z</time></trkpt><trkpt lat="44.03455661806332" lon="11.247764847605314"><ele>422.0</ele><time>2026-04-09T10:38:09Z</time></trkpt><trkpt lat="44.034608885483514" lon="11.247963837058489"><ele>422.0</ele><time>2026-04-09T10:38:10Z</time></trkpt><trkpt lat="44.03469272406236" lon="11.248123453425299"><ele>422.0</ele><time>2026-04-09T10:38:11Z</time></trkpt><trkpt lat="44.03475953860959" lon="11.24825225593521"><ele>422.0</ele><time>2026-04-09T10:38:12Z</time></trkpt><trkpt lat="44.03484620764838" lon="11.24835380925547"><ele>422.0</ele><time>2026-04-09T10:38:13Z</time></trkpt><trkpt lat="44.03495469897232" lon="11.24841805198843"><ele>422.25</ele><time>2026-04-09T10:38:14Z</time></trkpt><trkpt lat="44.03507868866649" lon="11.248442830907708"><ele>422.5</ele><time>2026-04-09T10:38:15Z</time></trkpt><trkpt lat="44.035211317464686" lon="11.248425858735882"><ele>422.75</ele><time>2026-04-09T10:38:16Z</time></trkpt><trkpt lat="44.03535356598287" lon="11.248373266001645"><ele>423.0</ele><time>2026-04-09T10:38:17Z</time></trkpt><trkpt lat="44.03548860750935" lon="11.248326923720294"><ele>423.0</ele><time>2026-04-09T10:38:18Z</time></trkpt><trkpt lat="44.0356139466594" lon="11.24832900740728"><ele>423.0</ele><time>2026-04-09T10:38:19Z</time></trkpt><trkpt lat="44.03575298190272" lon="11.24841177176187"><ele>423.0</ele><time>2026-04-09T10:38:20Z</time></trkpt><trkpt lat="44.03589176501253" lon="11.248476865096551"><ele>423.0</ele><time>2026-04-09T10:38:21Z</time></trkpt><trkpt lat="44.035999123958106" lon="11.24854818016602"><ele>421.75</ele><time>2026-04-09T10:38:22Z</time></trkpt><trkpt lat="44.0361069026849" lon="11.248659707563958"><ele>420.5</ele><time>2026-04-09T10:38:23Z</time></trkpt><trkpt lat="44.036209916625296" lon="11.248818052673807"><ele>419.25</ele><time>2026-04-09T10:38:24Z</time></trkpt><trkpt lat="44.03628829179135" lon="11.248984841324273"><ele>418.0</ele><time>2026-04-09T10:38:25Z</time></trkpt><trkpt lat="44.03633527386788" lon="11.249143088226083"><ele>422.75</ele><time>2026-04-09T10:38:26Z</time></trkpt><trkpt lat="44.03633268025814" lon="11.24930776927397"><ele>427.5</ele><time>2026-04-09T10:38:27Z</time></trkpt><trkpt lat="44.03631826773661" lon="11.249490085672882"><ele>432.25</ele><time>2026-04-09T10:38:28Z</time></trkpt><trkpt lat="44.036310139356374" lon="11.249708317634731"><ele>437.0</ele><time>2026-04-09T10:38:29Z</time></trkpt><trkpt lat="44.03630708751383" lon="11.249925351987404"><ele>440.5</ele><time>2026-04-09T10:38:30Z</time></trkpt><trkpt lat="44.03631847090795" lon="11.250102354759166"><ele>444.0</ele><time>2026-04-09T10:38:31Z</time></trkpt><trkpt lat="44.036348088171174" lon="11.25026609837616"><ele>447.5</ele><time>2026-04-09T10:38:32Z</time></trkpt><trkpt lat="44.03641149438457" lon="11.250419494623989"><ele>451.0</ele><time>2026-04-09T10:38:33Z</time></trkpt><trkpt lat="44.03648467753394" lon="11.250535675370958"><ele>451.0</ele><time>2026-04-09T10:38:34Z</time></trkpt><trkpt lat="44.036589666381346" lon="11.250611589570525"><ele>451.0</ele><time>2026-04-09T10:38:35Z</time></trkpt><trkpt lat="44.03672104995093" lon="11.250670176569214"><ele>451.0</ele><time>2026-04-09T10:38:36Z</time></trkpt><trkpt lat="44.03686804057024" lon="11.250672582335008"><ele>451.0</ele><time>2026-04-09T10:38:37Z</time></trkpt><trkpt lat="44.03703243606475" lon="11.250674141911787"><ele>451.0</ele><time>2026-04-09T10:38:38Z</time></trkpt><trkpt lat="44.037201925595774" lon="11.250654382691932"><ele>451.0</ele><time>2026-04-09T10:38:39Z</time></trkpt><trkpt lat="44.037380188014616" lon="11.250596451179055"><ele>451.0</ele><time>2026-04-09T10:38:40Z</time></trkpt><trkpt lat="44.03751804603528" lon="11.250527818292452"><ele>448.4</ele><time>2026-04-09T10:38:41Z</time></trkpt><trkpt lat="44.037621290224095" lon="11.2504777957513"><ele>445.8</ele><time>2026-04-09T10:38:42Z</time></trkpt><trkpt lat="44.03771020008079" lon="11.250462544767396"><ele>443.19999999999993</ele><time>2026-04-09T10:38:43Z</time></trkpt><trkpt lat="44.03779418150894" lon="11.250499819064865"><ele>440.59999999999997</ele><time>2026-04-09T10:38:44Z</time></trkpt><trkpt lat="44.037843139797516" lon="11.250613604227084"><ele>438.0</ele><time>2026-04-09T10:38:45Z</time></trkpt><trkpt lat="44.03784284896901" lon="11.25074478034603"><ele>438.0</ele><time>2026-04-09T10:38:46Z</time></trkpt><trkpt lat="44.03778385512619" lon="11.250878749373584"><ele>438.0</ele><time>2026-04-09T10:38:47Z</time></trkpt><trkpt lat="44.0377237768329" lon="11.251034584992958"><ele>438.0</ele><time>2026-04-09T10:38:48Z</time></trkpt><trkpt lat="44.03764712314993" lon="11.251232615311926"><ele>438.0</ele><time>2026-04-09T10:38:49Z</time></trkpt><trkpt lat="44.03756780628355" lon="11.251452352888755"><ele>440.0</ele><time>2026-04-09T10:38:50Z</time></trkpt><trkpt lat="44.03748579943284" lon="11.251674458487146"><ele>442.0</ele><time>2026-04-09T10:38:51Z</time></trkpt><trkpt lat="44.03740819051107" lon="11.251879079069678"><ele>444.0</ele><time>2026-04-09T10:38:52Z</time></trkpt><trkpt lat="44.037345523264165" lon="11.252042335235185"><ele>447.5</ele><time>2026-04-09T10:38:53Z</time></trkpt><trkpt lat="44.03729899694209" lon="11.252174572065957"><ele>451.0</ele><time>2026-04-09T10:38:54Z</time></trkpt><trkpt lat="44.03726240709853" lon="11.252285240448227"><ele>454.5</ele><time>2026-04-09T10:38:55Z</time></trkpt><trkpt lat="44.03724183656972" lon="11.252376336579468"><ele>458.0</ele><time>2026-04-09T10:38:56Z</time></trkpt><trkpt lat="44.0372117073155" lon="11.252501925291222"><ele>461.5</ele><time>2026-04-09T10:38:58Z</time></trkpt><trkpt lat="44.037213648367086" lon="11.252600745717489"><ele>465.0</ele><time>2026-04-09T10:39:00Z</time></trkpt><trkpt lat="44.037241078754384" lon="11.25275777784754"><ele>465.0</ele><time>2026-04-09T10:39:02Z</time></trkpt><trkpt lat="44.03725622377866" lon="11.252881209973165"><ele>465.0</ele><time>2026-04-09T10:39:03Z</time></trkpt><trkpt lat="44.03728578819652" lon="11.253055804739194"><ele>465.0</ele><time>2026-04-09T10:39:04Z</time></trkpt><trkpt lat="44.03730797478455" lon="11.253245151875905"><ele>465.0</ele><time>2026-04-09T10:39:05Z</time></trkpt><trkpt lat="44.03732907428473" lon="11.25343049999909"><ele>463.25</ele><time>2026-04-09T10:39:06Z</time></trkpt><trkpt lat="44.037337741742974" lon="11.253630880512963"><ele>461.5</ele><time>2026-04-09T10:39:07Z</time></trkpt><trkpt lat="44.037350125689954" lon="11.253807763279578"><ele>459.75</ele><time>2026-04-09T10:39:08Z</time></trkpt><trkpt lat="44.03737463433559" lon="11.253951767816295"><ele>458.0</ele><time>2026-04-09T10:39:09Z</time></trkpt><trkpt lat="44.0374396971977" lon="11.25409465645389"><ele>455.5</ele><time>2026-04-09T10:39:10Z</time></trkpt><trkpt lat="44.0375356803951" lon="11.254243368541438"><ele>453.0</ele><time>2026-04-09T10:39:11Z</time></trkpt><trkpt lat="44.037595728734566" lon="11.254398015404648"><ele>450.5</ele><time>2026-04-09T10:39:12Z</time></trkpt><trkpt lat="44.037611140855574" lon="11.254555471970088"><ele>448.0</ele><time>2026-04-09T10:39:13Z</time></trkpt><trkpt lat="44.03758551197892" lon="11.254740814127823"><ele>450.75</ele><time>2026-04-09T10:39:14Z</time></trkpt><trkpt lat="44.037556142661394" lon="11.254914492970448"><ele>453.5</ele><time>2026-04-09T10:39:15Z</time></trkpt><trkpt lat="44.03756369392836" lon="11.255077751566386"><ele>456.25</ele><time>2026-04-09T10:39:16Z</time></trkpt><trkpt lat="44.037613525931114" lon="11.255255343015211"><ele>459.0</ele><time>2026-04-09T10:39:17Z</time></trkpt><trkpt lat="44.03769632084744" lon="11.255424770685412"><ele>459.0</ele><time>2026-04-09T10:39:18Z</time></trkpt><trkpt lat="44.0378006965397" lon="11.25558850990528"><ele>459.0</ele><time>2026-04-09T10:39:19Z</time></trkpt><trkpt lat="44.0379038919783" lon="11.255719419218051"><ele>459.0</ele><time>2026-04-09T10:39:20Z</time></trkpt><trkpt lat="44.038021284505646" lon="11.255792606921268"><ele>459.0</ele><time>2026-04-09T10:39:21Z</time></trkpt><trkpt lat="44.038165228349634" lon="11.255861097084436"><ele>459.75</ele><time>2026-04-09T10:39:22Z</time></trkpt><trkpt lat="44.03831564776334" lon="11.255920584387084"><ele>460.5</ele><time>2026-04-09T10:39:23Z</time></trkpt><trkpt lat="44.03845416372121" lon="11.255911541092594"><ele>461.25</ele><time>2026-04-09T10:39:24Z</time></trkpt><trkpt lat="44.038574298907044" lon="11.255873983584102"><ele>462.0</ele><time>2026-04-09T10:39:25Z</time></trkpt><trkpt lat="44.038673271226855" lon="11.255792322575616"><ele>462.0</ele><time>2026-04-09T10:39:26Z</time></trkpt><trkpt lat="44.03877777327378" lon="11.255673488823117"><ele>462.0</ele><time>2026-04-09T10:39:27Z</time></trkpt><trkpt lat="44.03888125355733" lon="11.255497032697537"><ele>462.0</ele><time>2026-04-09T10:39:28Z</time></trkpt><trkpt lat="44.03902144749052" lon="11.255313738444352"><ele>459.0</ele><time>2026-04-09T10:39:29Z</time></trkpt><trkpt lat="44.039148585108585" lon="11.255132858279163"><ele>456.0</ele><time>2026-04-09T10:39:30Z</time></trkpt><trkpt lat="44.03925389225093" lon="11.254989557093898"><ele>453.0</ele><time>2026-04-09T10:39:31Z</time></trkpt><trkpt lat="44.03934755261633" lon="11.254879623721168"><ele>453.0</ele><time>2026-04-09T10:39:32Z</time></trkpt><trkpt lat="44.039438892861504" lon="11.254807340389068"><ele>453.0</ele><time>2026-04-09T10:39:33Z</time></trkpt><trkpt lat="44.039540178593136" lon="11.254804205559674"><ele>453.0</ele><time>2026-04-09T10:39:34Z</time></trkpt><trkpt lat="44.039657245021246" lon="11.254834768943574"><ele>453.0</ele><time>2026-04-09T10:39:35Z</time></trkpt><trkpt lat="44.03977090711047" lon="11.254962609023398"><ele>453.0</ele><time>2026-04-09T10:39:36Z</time></trkpt><trkpt lat="44.039894257733124" lon="11.255078277323195"><ele>453.0</ele><time>2026-04-09T10:39:37Z</time></trkpt><trkpt lat="44.03999723144593" lon="11.255151845600892"><ele>453.0</ele><time>2026-04-09T10:39:38Z</time></trkpt><trkpt lat="44.04010978600052" lon="11.25517902204561"><ele>453.0</ele><time>2026-04-09T10:39:39Z</time></trkpt><trkpt lat="44.04022159257345" lon="11.255122599498971"><ele>449.33333333333337</ele><time>2026-04-09T10:39:40Z</time></trkpt><trkpt lat="44.040336533336095" lon="11.255024665138091"><ele>445.6666666666667</ele><time>2026-04-09T10:39:41Z</time></trkpt><trkpt lat="44.04046157324094" lon="11.254895639309883"><ele>442.0</ele><time>2026-04-09T10:39:42Z</time></trkpt><trkpt lat="44.040583717489866" lon="11.254750597828105"><ele>442.0</ele><time>2026-04-09T10:39:43Z</time></trkpt><trkpt lat="44.04069714428671" lon="11.254665830437647"><ele>442.00000000000006</ele><time>2026-04-09T10:39:44Z</time></trkpt><trkpt lat="44.04079355231563" lon="11.254605156617057"><ele>442.00000000000006</ele><time>2026-04-09T10:39:45Z</time></trkpt><trkpt lat="44.04087296785226" lon="11.254591041075136"><ele>442.0</ele><time>2026-04-09T10:39:46Z</time></trkpt><trkpt lat="44.04094330062678" lon="11.25469145213882"><ele>442.0</ele><time>2026-04-09T10:39:47Z</time></trkpt><trkpt lat="44.04096790539095" lon="11.254824365274352"><ele>448.25</ele><time>2026-04-09T10:39:48Z</time></trkpt><trkpt lat="44.04094182295009" lon="11.254958330936864"><ele>454.5</ele><time>2026-04-09T10:39:49Z</time></trkpt><trkpt lat="44.040843846551496" lon="11.255070970886722"><ele>460.75</ele><time>2026-04-09T10:39:50Z</time></trkpt><trkpt lat="44.04077303575861" lon="11.25523090847096"><ele>467.0</ele><time>2026-04-09T10:39:51Z</time></trkpt><trkpt lat="44.04066086722099" lon="11.255395301871355"><ele>467.0</ele><time>2026-04-09T10:39:52Z</time></trkpt><trkpt lat="44.04054620431583" lon="11.255594736508733"><ele>467.0</ele><time>2026-04-09T10:39:53Z</time></trkpt><trkpt lat="44.04043459530437" lon="11.255770467148102"><ele>467.0</ele><time>2026-04-09T10:39:54Z</time></trkpt><trkpt lat="44.040357875479295" lon="11.255932378545122"><ele>471.25</ele><time>2026-04-09T10:39:55Z</time></trkpt><trkpt lat="44.040306401459596" lon="11.256087531668857"><ele>475.5</ele><time>2026-04-09T10:39:56Z</time></trkpt><trkpt lat="44.040279064418066" lon="11.256261895884476"><ele>479.75</ele><time>2026-04-09T10:39:57Z</time></trkpt><trkpt lat="44.04029075240756" lon="11.256429227749052"><ele>484.0</ele><time>2026-04-09T10:39:58Z</time></trkpt><trkpt lat="44.040349873676384" lon="11.256595454264694"><ele>485.5</ele><time>2026-04-09T10:39:59Z</time></trkpt><trkpt lat="44.04043041854579" lon="11.256755793382139"><ele>487.0</ele><time>2026-04-09T10:40:00Z</time></trkpt><trkpt lat="44.04049502691325" lon="11.256892770706528"><ele>488.5</ele><time>2026-04-09T10:40:01Z</time></trkpt><trkpt lat="44.04050691979106" lon="11.257078066952985"><ele>490.0</ele><time>2026-04-09T10:40:02Z</time></trkpt><trkpt lat="44.040494927860586" lon="11.257307344830792"><ele>490.25</ele><time>2026-04-09T10:40:03Z</time></trkpt><trkpt lat="44.040487530063366" lon="11.257526394298573"><ele>490.5</ele><time>2026-04-09T10:40:04Z</time></trkpt><trkpt lat="44.04050609124197" lon="11.257701106198772"><ele>490.75</ele><time>2026-04-09T10:40:05Z</time></trkpt><trkpt lat="44.04056540868512" lon="11.25785781030503"><ele>491.0</ele><time>2026-04-09T10:40:06Z</time></trkpt><trkpt lat="44.040647351362466" lon="11.258021629577673"><ele>490.3333333333333</ele><time>2026-04-09T10:40:07Z</time></trkpt><trkpt lat="44.04076973116226" lon="11.258162672772226"><ele>489.66666666666663</ele><time>2026-04-09T10:40:08Z</time></trkpt><trkpt lat="44.040899494828736" lon="11.258282930275492"><ele>489.0</ele><time>2026-04-09T10:40:09Z</time></trkpt><trkpt lat="44.04104769640541" lon="11.258393368285152"><ele>489.0</ele><time>2026-04-09T10:40:10Z</time></trkpt><trkpt lat="44.04121661607689" lon="11.25848341338891"><ele>489.0</ele><time>2026-04-09T10:40:11Z</time></trkpt><trkpt lat="44.041385851174404" lon="11.258557482310867"><ele>489.0</ele><time>2026-04-09T10:40:12Z</time></trkpt><trkpt lat="44.04158061515172" lon="11.25863619063434"><ele>488.33333333333337</ele><time>2026-04-09T10:40:13Z</time></trkpt><trkpt lat="44.041778646994864" lon="11.25871901768083"><ele>487.6666666666667</ele><time>2026-04-09T10:40:14Z</time></trkpt><trkpt lat="44.04195172587242" lon="11.25879369301791"><ele>487.0</ele><time>2026-04-09T10:40:15Z</time></trkpt><trkpt lat="44.04210010119724" lon="11.258862550954046"><ele>487.0</ele><time>2026-04-09T10:40:16Z</time></trkpt><trkpt lat="44.04222600536654" lon="11.258924744740261"><ele>487.00000000000006</ele><time>2026-04-09T10:40:17Z</time></trkpt><trkpt lat="44.042327825623325" lon="11.25897324845364"><ele>487.00000000000006</ele><time>2026-04-09T10:40:18Z</time></trkpt><trkpt lat="44.04240456581191" lon="11.259014104826019"><ele>487.0</ele><time>2026-04-09T10:40:19Z</time></trkpt><trkpt lat="44.04248893502231" lon="11.259072379550142"><ele>487.0</ele><time>2026-04-09T10:40:21Z</time></trkpt><trkpt lat="44.04255695509739" lon="11.259080449713672"><ele>488.5</ele><time>2026-04-09T10:40:22Z</time></trkpt><trkpt lat="44.04266255715673" lon="11.25906582847098"><ele>490.0</ele><time>2026-04-09T10:40:23Z</time></trkpt><trkpt lat="44.04277898512915" lon="11.2590355251896"><ele>491.5</ele><time>2026-04-09T10:40:24Z</time></trkpt><trkpt lat="44.042917016192426" lon="11.259007509697396"><ele>493.0</ele><time>2026-04-09T10:40:25Z</time></trkpt><trkpt lat="44.043061567752105" lon="11.258974459826971"><ele>493.0</ele><time>2026-04-09T10:40:26Z</time></trkpt><trkpt lat="44.04321216252143" lon="11.258959328560024"><ele>493.0</ele><time>2026-04-09T10:40:27Z</time></trkpt><trkpt lat="44.043372759376894" lon="11.258945799782174"><ele>493.0</ele><time>2026-04-09T10:40:28Z</time></trkpt><trkpt lat="44.0435386857364" lon="11.25893826174181"><ele>491.5</ele><time>2026-04-09T10:40:29Z</time></trkpt><trkpt lat="44.04369043610415" lon="11.25892404760842"><ele>490.0</ele><time>2026-04-09T10:40:30Z</time></trkpt><trkpt lat="44.0438152355518" lon="11.258899064162991"><ele>488.5</ele><time>2026-04-09T10:40:30.999Z</time></trkpt><trkpt lat="44.043949752149445" lon="11.258870496008111"><ele>487.0</ele><time>2026-04-09T10:40:31.999Z</time></trkpt><trkpt lat="44.04410155286242" lon="11.258824064980352"><ele>488.6666666666667</ele><time>2026-04-09T10:40:32.999Z</time></trkpt><trkpt lat="44.04427505679539" lon="11.258782016376351"><ele>490.33333333333337</ele><time>2026-04-09T10:40:33.999Z</time></trkpt><trkpt lat="44.04444064783562" lon="11.258726541135289"><ele>492.0</ele><time>2026-04-09T10:40:34.999Z</time></trkpt><trkpt lat="44.04459766150073" lon="11.25867011609561"><ele>492.0</ele><time>2026-04-09T10:40:35.999Z</time></trkpt><trkpt lat="44.04472905729934" lon="11.25863880642679"><ele>492.0</ele><time>2026-04-09T10:40:37Z</time></trkpt><trkpt lat="44.04485166613832" lon="11.258595830460246"><ele>492.0</ele><time>2026-04-09T10:40:38Z</time></trkpt><trkpt lat="44.045011529696026" lon="11.258544130625914"><ele>492.0</ele><time>2026-04-09T10:40:39Z</time></trkpt><trkpt lat="44.04515368746881" lon="11.258507746082648"><ele>494.75</ele><time>2026-04-09T10:40:40Z</time></trkpt><trkpt lat="44.04528198101496" lon="11.258477409682255"><ele>497.5</ele><time>2026-04-09T10:40:41Z</time></trkpt><trkpt lat="44.04543499563139" lon="11.258434303259364"><ele>500.25</ele><time>2026-04-09T10:40:42Z</time></trkpt><trkpt lat="44.04556343568423" lon="11.258365076831867"><ele>503.0</ele><time>2026-04-09T10:40:43Z</time></trkpt><trkpt lat="44.045699943589035" lon="11.258301235702357"><ele>504.75</ele><time>2026-04-09T10:40:44Z</time></trkpt><trkpt lat="44.04582116532165" lon="11.25823541564915"><ele>506.5</ele><time>2026-04-09T10:40:45Z</time></trkpt><trkpt lat="44.04593237849617" lon="11.258169151451558"><ele>508.25</ele><time>2026-04-09T10:40:46Z</time></trkpt><trkpt lat="44.04604504556653" lon="11.258152011511013"><ele>510.0</ele><time>2026-04-09T10:40:47Z</time></trkpt><trkpt lat="44.046157868199344" lon="11.25815118009282"><ele>510.0</ele><time>2026-04-09T10:40:48Z</time></trkpt><trkpt lat="44.046283677296536" lon="11.258193520063301"><ele>510.0</ele><time>2026-04-09T10:40:49Z</time></trkpt><trkpt lat="44.04637633513142" lon="11.25829898985093"><ele>510.0</ele><time>2026-04-09T10:40:50Z</time></trkpt><trkpt lat="44.04647724686971" lon="11.258427165702443"><ele>510.0</ele><time>2026-04-09T10:40:51Z</time></trkpt><trkpt lat="44.046585628571584" lon="11.258575194337308"><ele>508.33333333333337</ele><time>2026-04-09T10:40:52Z</time></trkpt><trkpt lat="44.046715759357035" lon="11.258703732755187"><ele>506.6666666666667</ele><time>2026-04-09T10:40:53Z</time></trkpt><trkpt lat="44.046845047872466" lon="11.258852801693191"><ele>505.0</ele><time>2026-04-09T10:40:54Z</time></trkpt><trkpt lat="44.046964752155475" lon="11.258992789594963"><ele>508.5</ele><time>2026-04-09T10:40:55Z</time></trkpt><trkpt lat="44.04708107793099" lon="11.259117733670545"><ele>512.0</ele><time>2026-04-09T10:40:56Z</time></trkpt><trkpt lat="44.04719508328407" lon="11.259230598871754"><ele>515.5</ele><time>2026-04-09T10:40:57Z</time></trkpt><trkpt lat="44.0473106730608" lon="11.2593477679619"><ele>519.0</ele><time>2026-04-09T10:40:58Z</time></trkpt><trkpt lat="44.04743335393808" lon="11.259464341316564"><ele>516.3333333333334</ele><time>2026-04-09T10:40:59Z</time></trkpt><trkpt lat="44.04755877717687" lon="11.259590043193416"><ele>513.6666666666667</ele><time>2026-04-09T10:41:00Z</time></trkpt><trkpt lat="44.0476880853696" lon="11.259718621656237"><ele>511.0</ele><time>2026-04-09T10:41:01Z</time></trkpt><trkpt lat="44.04780681947725" lon="11.259839520726493"><ele>511.0</ele><time>2026-04-09T10:41:02Z</time></trkpt><trkpt lat="44.047910452957055" lon="11.259943582557437"><ele>511.0</ele><time>2026-04-09T10:41:03Z</time></trkpt><trkpt lat="44.047997671895935" lon="11.260057271606776"><ele>511.0</ele><time>2026-04-09T10:41:04Z</time></trkpt><trkpt lat="44.048085455359534" lon="11.260192300716177"><ele>511.0</ele><time>2026-04-09T10:41:05Z</time></trkpt><trkpt lat="44.04817732588329" lon="11.260343603741426"><ele>511.0</ele><time>2026-04-09T10:41:06Z</time></trkpt><trkpt lat="44.04825921392807" lon="11.260453970377997"><ele>511.0</ele><time>2026-04-09T10:41:07Z</time></trkpt><trkpt lat="44.048333415303674" lon="11.260541293885924"><ele>511.0</ele><time>2026-04-09T10:41:08Z</time></trkpt><trkpt lat="44.048408261674325" lon="11.260624436079283"><ele>511.0</ele><time>2026-04-09T10:41:09Z</time></trkpt><trkpt lat="44.04849433387328" lon="11.260716597365724"><ele>511.0</ele><time>2026-04-09T10:41:10Z</time></trkpt><trkpt lat="44.04857791210231" lon="11.260813926554983"><ele>512.75</ele><time>2026-04-09T10:41:11Z</time></trkpt><trkpt lat="44.04868370016995" lon="11.260911295485153"><ele>514.5</ele><time>2026-04-09T10:41:12Z</time></trkpt><trkpt lat="44.04878141218428" lon="11.26097921050187"><ele>516.25</ele><time>2026-04-09T10:41:13Z</time></trkpt><trkpt lat="44.04888149572156" lon="11.2610343044415"><ele>518.0</ele><time>2026-04-09T10:41:14Z</time></trkpt><trkpt lat="44.04899259332991" lon="11.261095592111205"><ele>518.0</ele><time>2026-04-09T10:41:15Z</time></trkpt><trkpt lat="44.04912227889696" lon="11.261140830206092"><ele>518.0</ele><time>2026-04-09T10:41:16Z</time></trkpt><trkpt lat="44.049270546161914" lon="11.261189726494552"><ele>518.0</ele><time>2026-04-09T10:41:17Z</time></trkpt><trkpt lat="44.04942195884484" lon="11.261241231197825"><ele>518.0</ele><time>2026-04-09T10:41:18Z</time></trkpt><trkpt lat="44.04954688542022" lon="11.261274884590167"><ele>517.6</ele><time>2026-04-09T10:41:19Z</time></trkpt><trkpt lat="44.04966202106815" lon="11.261303677705078"><ele>517.1999999999999</ele><time>2026-04-09T10:41:20Z</time></trkpt><trkpt lat="44.04976074321211" lon="11.261318600572817"><ele>516.8</ele><time>2026-04-09T10:41:21Z</time></trkpt><trkpt lat="44.04986074589335" lon="11.261323116595003"><ele>516.4</ele><time>2026-04-09T10:41:22Z</time></trkpt><trkpt lat="44.049969646490624" lon="11.261313710543002"><ele>516.0</ele><time>2026-04-09T10:41:23Z</time></trkpt><trkpt lat="44.05010183129046" lon="11.261314979609718"><ele>516.0</ele><time>2026-04-09T10:41:24Z</time></trkpt><trkpt lat="44.0502383183436" lon="11.261312406001231"><ele>516.0</ele><time>2026-04-09T10:41:25Z</time></trkpt><trkpt lat="44.05039004162036" lon="11.26128679366551"><ele>516.0</ele><time>2026-04-09T10:41:26Z</time></trkpt><trkpt lat="44.05054759196979" lon="11.261253944204352"><ele>516.0</ele><time>2026-04-09T10:41:27Z</time></trkpt><trkpt lat="44.05068710711834" lon="11.261208101280737"><ele>516.5</ele><time>2026-04-09T10:41:28Z</time></trkpt><trkpt lat="44.05080307258037" lon="11.261162932407474"><ele>517.0</ele><time>2026-04-09T10:41:29Z</time></trkpt><trkpt lat="44.050922723060914" lon="11.261120772918169"><ele>517.5</ele><time>2026-04-09T10:41:30Z</time></trkpt><trkpt lat="44.05104736557815" lon="11.261077044832202"><ele>518.0</ele><time>2026-04-09T10:41:31Z</time></trkpt><trkpt lat="44.051170445238455" lon="11.261027408771637"><ele>518.0</ele><time>2026-04-09T10:41:32Z</time></trkpt><trkpt lat="44.05129361479763" lon="11.260977470156341"><ele>518.0</ele><time>2026-04-09T10:41:33Z</time></trkpt><trkpt lat="44.05141449249464" lon="11.26093572190299"><ele>518.0</ele><time>2026-04-09T10:41:34Z</time></trkpt><trkpt lat="44.05152314693001" lon="11.260893863809732"><ele>518.0</ele><time>2026-04-09T10:41:35Z</time></trkpt><trkpt lat="44.05162454688538" lon="11.260853252571726"><ele>518.6</ele><time>2026-04-09T10:41:36Z</time></trkpt><trkpt lat="44.05172177387364" lon="11.260817966458223"><ele>519.1999999999999</ele><time>2026-04-09T10:41:37Z</time></trkpt><trkpt lat="44.051825108921" lon="11.260776087001592"><ele>519.8</ele><time>2026-04-09T10:41:38Z</time></trkpt><trkpt lat="44.051936072961304" lon="11.260739307477454"><ele>520.4</ele><time>2026-04-09T10:41:39Z</time></trkpt><trkpt lat="44.052049786623066" lon="11.260704108208623"><ele>521.0</ele><time>2026-04-09T10:41:40Z</time></trkpt><trkpt lat="44.0521731308148" lon="11.260673493615313"><ele>521.0</ele><time>2026-04-09T10:41:41Z</time></trkpt><trkpt lat="44.05228776116058" lon="11.260646413529493"><ele>521.0</ele><time>2026-04-09T10:41:42Z</time></trkpt><trkpt lat="44.05241586613562" lon="11.260637063512661"><ele>521.0</ele><time>2026-04-09T10:41:43Z</time></trkpt><trkpt lat="44.05252879234307" lon="11.260632364010956"><ele>521.0</ele><time>2026-04-09T10:41:44Z</time></trkpt><trkpt lat="44.05264574514823" lon="11.260647497180857"><ele>522.75</ele><time>2026-04-09T10:41:45Z</time></trkpt><trkpt lat="44.052766806087604" lon="11.260714714338004"><ele>524.5</ele><time>2026-04-09T10:41:46Z</time></trkpt><trkpt lat="44.05289720682421" lon="11.260796438937685"><ele>526.25</ele><time>2026-04-09T10:41:47Z</time></trkpt><trkpt lat="44.053047748502976" lon="11.260913480878203"><ele>528.0</ele><time>2026-04-09T10:41:48Z</time></trkpt><trkpt lat="44.05320289447004" lon="11.261069073657607"><ele>527.6666666666666</ele><time>2026-04-09T10:41:49Z</time></trkpt><trkpt lat="44.053355829115525" lon="11.261211780409058"><ele>527.3333333333333</ele><time>2026-04-09T10:41:50Z</time></trkpt><trkpt lat="44.05348714127178" lon="11.261329284389682"><ele>527.0</ele><time>2026-04-09T10:41:51Z</time></trkpt><trkpt lat="44.05361276552283" lon="11.261431596887478"><ele>531.0</ele><time>2026-04-09T10:41:52Z</time></trkpt><trkpt lat="44.05376442753011" lon="11.261520719749324"><ele>535.0</ele><time>2026-04-09T10:41:53Z</time></trkpt><trkpt lat="44.053917815365935" lon="11.261599061306155"><ele>539.0</ele><time>2026-04-09T10:41:54Z</time></trkpt><trkpt lat="44.05409337429476" lon="11.261673340033084"><ele>537.3333333333333</ele><time>2026-04-09T10:41:55Z</time></trkpt><trkpt lat="44.054273974391144" lon="11.261740932227934"><ele>535.6666666666666</ele><time>2026-04-09T10:41:56Z</time></trkpt><trkpt lat="44.05446909612343" lon="11.261814687522186"><ele>534.0</ele><time>2026-04-09T10:41:57Z</time></trkpt><trkpt lat="44.054667975105296" lon="11.261888949639282"><ele>534.0</ele><time>2026-04-09T10:41:58Z</time></trkpt><trkpt lat="44.05485865249609" lon="11.261960453617078"><ele>534.0</ele><time>2026-04-09T10:41:59Z</time></trkpt><trkpt lat="44.055024888561505" lon="11.262021958372085"><ele>534.0</ele><time>2026-04-09T10:42:00Z</time></trkpt><trkpt lat="44.055177645854364" lon="11.2620836668197"><ele>533.3333333333334</ele><time>2026-04-09T10:42:01Z</time></trkpt><trkpt lat="44.055334956817234" lon="11.262146709594791"><ele>532.6666666666667</ele><time>2026-04-09T10:42:02Z</time></trkpt><trkpt lat="44.05550646360581" lon="11.262214037131994"><ele>532.0</ele><time>2026-04-09T10:42:03Z</time></trkpt><trkpt lat="44.05567852955881" lon="11.262282433044655"><ele>533.75</ele><time>2026-04-09T10:42:04Z</time></trkpt><trkpt lat="44.05582670933396" lon="11.262337712206168"><ele>535.5</ele><time>2026-04-09T10:42:05Z</time></trkpt><trkpt lat="44.055962482855996" lon="11.262392889775747"><ele>537.25</ele><time>2026-04-09T10:42:06Z</time></trkpt><trkpt lat="44.05609376911653" lon="11.262465236980203"><ele>539.0</ele><time>2026-04-09T10:42:07Z</time></trkpt><trkpt lat="44.056226704056094" lon="11.262578170501135"><ele>539.0</ele><time>2026-04-09T10:42:08Z</time></trkpt><trkpt lat="44.056336023731106" lon="11.262714420220977"><ele>539.0</ele><time>2026-04-09T10:42:09Z</time></trkpt><trkpt lat="44.056425252613195" lon="11.262815304067612"><ele>539.0</ele><time>2026-04-09T10:42:10Z</time></trkpt><trkpt lat="44.05652752617266" lon="11.262858097674165"><ele>539.0</ele><time>2026-04-09T10:42:11Z</time></trkpt><trkpt lat="44.05665425292503" lon="11.262838054020712"><ele>542.0</ele><time>2026-04-09T10:42:12Z</time></trkpt><trkpt lat="44.056790226057075" lon="11.262760592939163"><ele>545.0</ele><time>2026-04-09T10:42:13Z</time></trkpt><trkpt lat="44.05693022087817" lon="11.262647094846468"><ele>548.0</ele><time>2026-04-09T10:42:14Z</time></trkpt><trkpt lat="44.05708252298954" lon="11.262530671516885"><ele>548.0</ele><time>2026-04-09T10:42:15Z</time></trkpt><trkpt lat="44.057210260072054" lon="11.262457726176951"><ele>548.0</ele><time>2026-04-09T10:42:16Z</time></trkpt><trkpt lat="44.057328842638285" lon="11.262434029698436"><ele>548.0</ele><time>2026-04-09T10:42:17Z</time></trkpt><trkpt lat="44.05746180908614" lon="11.26246062606212"><ele>548.0</ele><time>2026-04-09T10:42:18Z</time></trkpt><trkpt lat="44.057610990039166" lon="11.2625349966826"><ele>550.3333333333333</ele><time>2026-04-09T10:42:19Z</time></trkpt><trkpt lat="44.057776139798264" lon="11.262640248324546"><ele>552.6666666666666</ele><time>2026-04-09T10:42:20Z</time></trkpt><trkpt lat="44.05794980139777" lon="11.262779896780541"><ele>555.0</ele><time>2026-04-09T10:42:21Z</time></trkpt><trkpt lat="44.05808824812567" lon="11.262908609814257"><ele>555.0</ele><time>2026-04-09T10:42:22Z</time></trkpt><trkpt lat="44.05821325765025" lon="11.263014691266857"><ele>555.0</ele><time>2026-04-09T10:42:23Z</time></trkpt><trkpt lat="44.05835086232634" lon="11.263073782614878"><ele>555.0</ele><time>2026-04-09T10:42:24Z</time></trkpt><trkpt lat="44.05851051142524" lon="11.263095625307583"><ele>556.0</ele><time>2026-04-09T10:42:25Z</time></trkpt><trkpt lat="44.05869677239906" lon="11.263083460019567"><ele>557.0</ele><time>2026-04-09T10:42:26Z</time></trkpt><trkpt lat="44.05889873309263" lon="11.263061222678136"><ele>558.0</ele><time>2026-04-09T10:42:27Z</time></trkpt><trkpt lat="44.05910369358772" lon="11.263045474042588"><ele>560.0</ele><time>2026-04-09T10:42:28Z</time></trkpt><trkpt lat="44.05929248181312" lon="11.263042538238656"><ele>562.0</ele><time>2026-04-09T10:42:29Z</time></trkpt><trkpt lat="44.059455607935966" lon="11.263039444632996"><ele>564.0</ele><time>2026-04-09T10:42:30Z</time></trkpt><trkpt lat="44.05960283436495" lon="11.263036420726953"><ele>564.0</ele><time>2026-04-09T10:42:31Z</time></trkpt><trkpt lat="44.05974516360848" lon="11.263036783786943"><ele>564.0</ele><time>2026-04-09T10:42:31.999Z</time></trkpt><trkpt lat="44.05988658287585" lon="11.263044211394165"><ele>564.0</ele><time>2026-04-09T10:42:32.999Z</time></trkpt><trkpt lat="44.06003929224302" lon="11.263055119515823"><ele>564.0</ele><time>2026-04-09T10:42:33.999Z</time></trkpt><trkpt lat="44.06020943652711" lon="11.26305977678569"><ele>566.0</ele><time>2026-04-09T10:42:34.999Z</time></trkpt><trkpt lat="44.060355035000946" lon="11.26307312165647"><ele>568.0</ele><time>2026-04-09T10:42:35.999Z</time></trkpt><trkpt lat="44.06049500389883" lon="11.263082281193649"><ele>570.0</ele><time>2026-04-09T10:42:36.999Z</time></trkpt><trkpt lat="44.06064153980425" lon="11.263102170451258"><ele>572.0</ele><time>2026-04-09T10:42:37.999Z</time></trkpt><trkpt lat="44.060789522873975" lon="11.263131035988936"><ele>572.0</ele><time>2026-04-09T10:42:38.999Z</time></trkpt><trkpt lat="44.06094433100935" lon="11.263192414679938"><ele>572.0</ele><time>2026-04-09T10:42:39.999Z</time></trkpt><trkpt lat="44.06108423025934" lon="11.26326606536331"><ele>572.0</ele><time>2026-04-09T10:42:40.999Z</time></trkpt><trkpt lat="44.06123538593915" lon="11.263353007405176"><ele>572.0</ele><time>2026-04-09T10:42:41.999Z</time></trkpt><trkpt lat="44.06139934810829" lon="11.263460620981169"><ele>572.0</ele><time>2026-04-09T10:42:43Z</time></trkpt><trkpt lat="44.06157099416184" lon="11.263569224998632"><ele>572.0</ele><time>2026-04-09T10:42:44Z</time></trkpt><trkpt lat="44.061753318015" lon="11.263693654573673"><ele>573.6666666666666</ele><time>2026-04-09T10:42:45Z</time></trkpt><trkpt lat="44.06194009682611" lon="11.26381643453772"><ele>575.3333333333334</ele><time>2026-04-09T10:42:46Z</time></trkpt><trkpt lat="44.062100943372194" lon="11.26392147275586"><ele>577.0</ele><time>2026-04-09T10:42:47Z</time></trkpt><trkpt lat="44.0622467884366" lon="11.264013427948191"><ele>577.3333333333334</ele><time>2026-04-09T10:42:48Z</time></trkpt><trkpt lat="44.062384867148886" lon="11.264094916176429"><ele>577.6666666666666</ele><time>2026-04-09T10:42:49Z</time></trkpt><trkpt lat="44.06254000724189" lon="11.264184546833992"><ele>578.0</ele><time>2026-04-09T10:42:50Z</time></trkpt><trkpt lat="44.062698428462824" lon="11.264285922692656"><ele>580.0</ele><time>2026-04-09T10:42:51Z</time></trkpt><trkpt lat="44.06283678454317" lon="11.264385649696155"><ele>582.0</ele><time>2026-04-09T10:42:52Z</time></trkpt><trkpt lat="44.06295616648445" lon="11.264493979092238"><ele>584.0</ele><time>2026-04-09T10:42:53Z</time></trkpt><trkpt lat="44.06306372355158" lon="11.264631849258253"><ele>586.0</ele><time>2026-04-09T10:42:54Z</time></trkpt><trkpt lat="44.063163927789226" lon="11.264791105624129"><ele>586.0</ele><time>2026-04-09T10:42:55Z</time></trkpt><trkpt lat="44.06324987248266" lon="11.264990951689603"><ele>586.0</ele><time>2026-04-09T10:42:56Z</time></trkpt><trkpt lat="44.0633223428191" lon="11.265216888211697"><ele>586.0</ele><time>2026-04-09T10:42:57Z</time></trkpt><trkpt lat="44.06339841598569" lon="11.26544038592882"><ele>591.0</ele><time>2026-04-09T10:42:58Z</time></trkpt><trkpt lat="44.063495215635754" lon="11.265657599647925"><ele>596.0</ele><time>2026-04-09T10:42:59Z</time></trkpt><trkpt lat="44.063600903829744" lon="11.26586604513842"><ele>601.0</ele><time>2026-04-09T10:43:00Z</time></trkpt><trkpt lat="44.06372617964844" lon="11.266068509576275"><ele>601.0</ele><time>2026-04-09T10:43:01Z</time></trkpt><trkpt lat="44.063861523532395" lon="11.26627444379733"><ele>601.0</ele><time>2026-04-09T10:43:02Z</time></trkpt><trkpt lat="44.063977401149224" lon="11.266444930335227"><ele>601.0</ele><time>2026-04-09T10:43:03Z</time></trkpt><trkpt lat="44.06407363548749" lon="11.266594147471805"><ele>604.75</ele><time>2026-04-09T10:43:04Z</time></trkpt><trkpt lat="44.06415245131663" lon="11.266728541100944"><ele>608.5</ele><time>2026-04-09T10:43:05Z</time></trkpt><trkpt lat="44.06422794154161" lon="11.26683527566846"><ele>612.25</ele><time>2026-04-09T10:43:06Z</time></trkpt><trkpt lat="44.06431714553245" lon="11.266916357779806"><ele>616.0</ele><time>2026-04-09T10:43:07Z</time></trkpt><trkpt lat="44.06443689820506" lon="11.26697029172604"><ele>616.0</ele><time>2026-04-09T10:43:08Z</time></trkpt><trkpt lat="44.06458158923156" lon="11.266986423971517"><ele>616.0</ele><time>2026-04-09T10:43:09Z</time></trkpt><trkpt lat="44.064751649565565" lon="11.266984794019848"><ele>616.0</ele><time>2026-04-09T10:43:10Z</time></trkpt><trkpt lat="44.064945070734325" lon="11.26698159517901"><ele>619.3333333333334</ele><time>2026-04-09T10:43:11Z</time></trkpt><trkpt lat="44.065134743326354" lon="11.267006409073279"><ele>622.6666666666666</ele><time>2026-04-09T10:43:12Z</time></trkpt><trkpt lat="44.065313269057036" lon="11.267093704249875"><ele>626.0</ele><time>2026-04-09T10:43:13Z</time></trkpt><trkpt lat="44.0654987414257" lon="11.267163275029876"><ele>626.0</ele><time>2026-04-09T10:43:14Z</time></trkpt><trkpt lat="44.06568735418437" lon="11.26724809022357"><ele>626.0</ele><time>2026-04-09T10:43:15Z</time></trkpt><trkpt lat="44.06588780152144" lon="11.26732542817484"><ele>626.0</ele><time>2026-04-09T10:43:16Z</time></trkpt><trkpt lat="44.06609015440757" lon="11.267376163123572"><ele>625.6666666666666</ele><time>2026-04-09T10:43:17Z</time></trkpt><trkpt lat="44.06626360988165" lon="11.267412464161099"><ele>625.3333333333334</ele><time>2026-04-09T10:43:18Z</time></trkpt><trkpt lat="44.066414523714904" lon="11.267476001520546"><ele>625.0</ele><time>2026-04-09T10:43:19Z</time></trkpt><trkpt lat="44.06655123255112" lon="11.267573603344502"><ele>627.0</ele><time>2026-04-09T10:43:20Z</time></trkpt><trkpt lat="44.06667526736425" lon="11.267714975916865"><ele>629.0</ele><time>2026-04-09T10:43:21Z</time></trkpt><trkpt lat="44.06679906511417" lon="11.267866324684043"><ele>631.0</ele><time>2026-04-09T10:43:22Z</time></trkpt><trkpt lat="44.06691593880771" lon="11.26799044625533"><ele>631.0</ele><time>2026-04-09T10:43:23Z</time></trkpt><trkpt lat="44.067042143385" lon="11.268067687206072"><ele>631.0</ele><time>2026-04-09T10:43:24Z</time></trkpt><trkpt lat="44.067205580102865" lon="11.26815381147658"><ele>631.0</ele><time>2026-04-09T10:43:25Z</time></trkpt><trkpt lat="44.06737124910947" lon="11.268206317252607"><ele>632.75</ele><time>2026-04-09T10:43:26Z</time></trkpt><trkpt lat="44.06750141968517" lon="11.268248127609153"><ele>634.5</ele><time>2026-04-09T10:43:27Z</time></trkpt><trkpt lat="44.067600707288555" lon="11.268323523928418"><ele>636.25</ele><time>2026-04-09T10:43:28Z</time></trkpt><trkpt lat="44.06768737366609" lon="11.268457844117842"><ele>638.0</ele><time>2026-04-09T10:43:29Z</time></trkpt><trkpt lat="44.067755299103744" lon="11.268633066687622"><ele>638.0</ele><time>2026-04-09T10:43:30Z</time></trkpt><trkpt lat="44.06780254563339" lon="11.268850808013932"><ele>638.0</ele><time>2026-04-09T10:43:31Z</time></trkpt><trkpt lat="44.06785010701272" lon="11.269062119310775"><ele>638.0</ele><time>2026-04-09T10:43:32Z</time></trkpt><trkpt lat="44.06792284759897" lon="11.269308654764268"><ele>637.25</ele><time>2026-04-09T10:43:33Z</time></trkpt><trkpt lat="44.06799517496859" lon="11.269507207552905"><ele>636.5</ele><time>2026-04-09T10:43:34Z</time></trkpt><trkpt lat="44.06803273452594" lon="11.269648476820013"><ele>635.75</ele><time>2026-04-09T10:43:35Z</time></trkpt><trkpt lat="44.06810138090663" lon="11.269770869613208"><ele>635.0</ele><time>2026-04-09T10:43:36Z</time></trkpt><trkpt lat="44.068207383499164" lon="11.269886025808274"><ele>638.5</ele><time>2026-04-09T10:43:37Z</time></trkpt><trkpt lat="44.068351773749015" lon="11.270007856088766"><ele>642.0</ele><time>2026-04-09T10:43:38Z</time></trkpt><trkpt lat="44.068480259707215" lon="11.270099525779019"><ele>645.5</ele><time>2026-04-09T10:43:39Z</time></trkpt><trkpt lat="44.06859489779081" lon="11.270157279466977"><ele>649.0</ele><time>2026-04-09T10:43:40Z</time></trkpt><trkpt lat="44.06871708286172" lon="11.27019034482754"><ele>649.0</ele><time>2026-04-09T10:43:41Z</time></trkpt><trkpt lat="44.06886364939296" lon="11.270193474970126"><ele>649.0</ele><time>2026-04-09T10:43:42Z</time></trkpt><trkpt lat="44.069030326962846" lon="11.270173518273007"><ele>649.0</ele><time>2026-04-09T10:43:43Z</time></trkpt><trkpt lat="44.069194756161565" lon="11.27014734436281"><ele>653.3333333333334</ele><time>2026-04-09T10:43:44Z</time></trkpt><trkpt lat="44.069350791846" lon="11.270152967983323"><ele>657.6666666666666</ele><time>2026-04-09T10:43:45Z</time></trkpt><trkpt lat="44.06953220810104" lon="11.270113400241467"><ele>662.0</ele><time>2026-04-09T10:43:46Z</time></trkpt><trkpt lat="44.06972410674635" lon="11.270061913172562"><ele>662.0</ele><time>2026-04-09T10:43:47Z</time></trkpt><trkpt lat="44.06991480749174" lon="11.270013563860092"><ele>662.0</ele><time>2026-04-09T10:43:48Z</time></trkpt><trkpt lat="44.070084359608025" lon="11.269954055463135"><ele>662.0</ele><time>2026-04-09T10:43:49Z</time></trkpt><trkpt lat="44.070227472620786" lon="11.26990103070251"><ele>663.5</ele><time>2026-04-09T10:43:50Z</time></trkpt><trkpt lat="44.07034662974747" lon="11.269856444856295"><ele>665.0</ele><time>2026-04-09T10:43:51Z</time></trkpt><trkpt lat="44.070462658567365" lon="11.269862741330913"><ele>666.5</ele><time>2026-04-09T10:43:52Z</time></trkpt><trkpt lat="44.0705821113842" lon="11.269883545529105"><ele>668.0</ele><time>2026-04-09T10:43:53Z</time></trkpt><trkpt lat="44.070697872771255" lon="11.269965924844726"><ele>670.0</ele><time>2026-04-09T10:43:54Z</time></trkpt><trkpt lat="44.070842029987865" lon="11.270077899516265"><ele>672.0</ele><time>2026-04-09T10:43:55Z</time></trkpt><trkpt lat="44.07100570223282" lon="11.270182706107407"><ele>674.0</ele><time>2026-04-09T10:43:56Z</time></trkpt><trkpt lat="44.07115221359058" lon="11.270274430768584"><ele>674.0</ele><time>2026-04-09T10:43:57Z</time></trkpt><trkpt lat="44.07128719821458" lon="11.270400663881686"><ele>674.0</ele><time>2026-04-09T10:43:58Z</time></trkpt><trkpt lat="44.07139518096818" lon="11.27053451811466"><ele>674.0</ele><time>2026-04-09T10:43:59Z</time></trkpt><trkpt lat="44.07150348043426" lon="11.270709603350333"><ele>678.0</ele><time>2026-04-09T10:44:00Z</time></trkpt><trkpt lat="44.07160806168298" lon="11.270908854871525"><ele>682.0</ele><time>2026-04-09T10:44:01Z</time></trkpt><trkpt lat="44.071700128260176" lon="11.271074525144863"><ele>686.0</ele><time>2026-04-09T10:44:02Z</time></trkpt><trkpt lat="44.071809215033326" lon="11.271207944698732"><ele>686.0</ele><time>2026-04-09T10:44:03Z</time></trkpt><trkpt lat="44.07194362838016" lon="11.271329689246883"><ele>686.0</ele><time>2026-04-09T10:44:04Z</time></trkpt><trkpt lat="44.0720950312532" lon="11.271454240496132"><ele>686.0</ele><time>2026-04-09T10:44:05Z</time></trkpt><trkpt lat="44.072226026275544" lon="11.271574034461894"><ele>687.0</ele><time>2026-04-09T10:44:06Z</time></trkpt><trkpt lat="44.072333271437714" lon="11.27167134439559"><ele>688.0</ele><time>2026-04-09T10:44:07Z</time></trkpt><trkpt lat="44.07242869816671" lon="11.27175424375818"><ele>689.0</ele><time>2026-04-09T10:44:08Z</time></trkpt><trkpt lat="44.072523091195336" lon="11.271792214788212"><ele>690.0</ele><time>2026-04-09T10:44:09Z</time></trkpt><trkpt lat="44.07261988565511" lon="11.271785742650165"><ele>691.0</ele><time>2026-04-09T10:44:10Z</time></trkpt><trkpt lat="44.072711544606186" lon="11.271734839239583"><ele>691.0</ele><time>2026-04-09T10:44:11Z</time></trkpt><trkpt lat="44.072783710561396" lon="11.271637349978155"><ele>691.0</ele><time>2026-04-09T10:44:12Z</time></trkpt><trkpt lat="44.072826561216225" lon="11.27149899039883"><ele>691.0</ele><time>2026-04-09T10:44:13Z</time></trkpt><trkpt lat="44.07283883918213" lon="11.271338120021362"><ele>691.0</ele><time>2026-04-09T10:44:14Z</time></trkpt><trkpt lat="44.07283630658978" lon="11.27114716267943"><ele>692.3333333333334</ele><time>2026-04-09T10:44:15Z</time></trkpt><trkpt lat="44.07282269511658" lon="11.270920938088379"><ele>693.6666666666666</ele><time>2026-04-09T10:44:16Z</time></trkpt><trkpt lat="44.072809901384254" lon="11.270675956169795"><ele>695.0</ele><time>2026-04-09T10:44:17Z</time></trkpt><trkpt lat="44.07280022508254" lon="11.270477904030594"><ele>695.0</ele><time>2026-04-09T10:44:18Z</time></trkpt><trkpt lat="44.07279951595333" lon="11.270312799398859"><ele>695.0</ele><time>2026-04-09T10:44:19Z</time></trkpt><trkpt lat="44.072820502681836" lon="11.270177169690191"><ele>695.0</ele><time>2026-04-09T10:44:20Z</time></trkpt><trkpt lat="44.07287461042663" lon="11.270092935652013"><ele>695.0</ele><time>2026-04-09T10:44:20.999Z</time></trkpt><trkpt lat="44.07296319660088" lon="11.27007641470397"><ele>695.0</ele><time>2026-04-09T10:44:21.999Z</time></trkpt><trkpt lat="44.073062472090676" lon="11.270051071854416"><ele>695.0</ele><time>2026-04-09T10:44:22.999Z</time></trkpt><trkpt lat="44.073183356958516" lon="11.270073802191915"><ele>695.0</ele><time>2026-04-09T10:44:23.999Z</time></trkpt><trkpt lat="44.073302896317834" lon="11.27011478455157"><ele>695.0</ele><time>2026-04-09T10:44:24.999Z</time></trkpt><trkpt lat="44.07339947588466" lon="11.270194780234819"><ele>695.0</ele><time>2026-04-09T10:44:25.999Z</time></trkpt><trkpt lat="44.073510923355144" lon="11.270311746821655"><ele>697.6666666666666</ele><time>2026-04-09T10:44:26.999Z</time></trkpt><trkpt lat="44.0736315355412" lon="11.27043807942224"><ele>700.3333333333334</ele><time>2026-04-09T10:44:27.999Z</time></trkpt><trkpt lat="44.07373657937932" lon="11.270589809209065"><ele>703.0</ele><time>2026-04-09T10:44:28.999Z</time></trkpt><trkpt lat="44.07382606518891" lon="11.270752883233575"><ele>703.3333333333334</ele><time>2026-04-09T10:44:29.999Z</time></trkpt><trkpt lat="44.07389960670853" lon="11.270940727428455"><ele>703.6666666666666</ele><time>2026-04-09T10:44:30.999Z</time></trkpt><trkpt lat="44.07395264328188" lon="11.271153516204592"><ele>704.0</ele><time>2026-04-09T10:44:31.999Z</time></trkpt><trkpt lat="44.0740008018447" lon="11.271386021436218"><ele>703.3333333333333</ele><time>2026-04-09T10:44:32.999Z</time></trkpt><trkpt lat="44.074035091549625" lon="11.271619970143039"><ele>702.6666666666666</ele><time>2026-04-09T10:44:33.999Z</time></trkpt><trkpt lat="44.07405521574691" lon="11.271833192983287"><ele>702.0</ele><time>2026-04-09T10:44:34.999Z</time></trkpt><trkpt lat="44.074071645848726" lon="11.272051160981295"><ele>702.0</ele><time>2026-04-09T10:44:35.999Z</time></trkpt><trkpt lat="44.07409294742047" lon="11.272271655542587"><ele>702.0</ele><time>2026-04-09T10:44:36.999Z</time></trkpt><trkpt lat="44.07410225125932" lon="11.272480751650148"><ele>702.0</ele><time>2026-04-09T10:44:37.999Z</time></trkpt><trkpt lat="44.0741173199671" lon="11.27266807875905"><ele>702.0</ele><time>2026-04-09T10:44:38.999Z</time></trkpt><trkpt lat="44.07412871402573" lon="11.272866458719713"><ele>705.25</ele><time>2026-04-09T10:44:39.999Z</time></trkpt><trkpt lat="44.07412602347331" lon="11.27304750956501"><ele>708.5</ele><time>2026-04-09T10:44:40.999Z</time></trkpt><trkpt lat="44.07408338687828" lon="11.273215221710199"><ele>711.75</ele><time>2026-04-09T10:44:41.999Z</time></trkpt><trkpt lat="44.07401698110309" lon="11.273397818566977"><ele>715.0</ele><time>2026-04-09T10:44:42.999Z</time></trkpt><trkpt lat="44.07395568324897" lon="11.2735525835444"><ele>715.0</ele><time>2026-04-09T10:44:43.999Z</time></trkpt><trkpt lat="44.073904351050786" lon="11.273679696075162"><ele>715.0</ele><time>2026-04-09T10:44:44.999Z</time></trkpt><trkpt lat="44.0738724074767" lon="11.273814302667347"><ele>715.0</ele><time>2026-04-09T10:44:45.999Z</time></trkpt><trkpt lat="44.07387899158811" lon="11.273980544165799"><ele>715.0</ele><time>2026-04-09T10:44:46.999Z</time></trkpt><trkpt lat="44.073919767806444" lon="11.274153507074557"><ele>716.3333333333334</ele><time>2026-04-09T10:44:47.999Z</time></trkpt><trkpt lat="44.07400260338463" lon="11.274307283159102"><ele>717.6666666666666</ele><time>2026-04-09T10:44:49Z</time></trkpt><trkpt lat="44.07412396148748" lon="11.274461252491783"><ele>719.0</ele><time>2026-04-09T10:44:50Z</time></trkpt><trkpt lat="44.074244285364166" lon="11.27464093941698"><ele>723.6666666666666</ele><time>2026-04-09T10:44:51Z</time></trkpt><trkpt lat="44.074362853056606" lon="11.274822573249205"><ele>728.3333333333334</ele><time>2026-04-09T10:44:52Z</time></trkpt><trkpt lat="44.07447098029695" lon="11.274958303077149"><ele>733.0</ele><time>2026-04-09T10:44:53Z</time></trkpt><trkpt lat="44.074599659619615" lon="11.275078669352812"><ele>733.0</ele><time>2026-04-09T10:44:54Z</time></trkpt><trkpt lat="44.074757458305605" lon="11.275165425764348"><ele>733.0</ele><time>2026-04-09T10:44:55Z</time></trkpt><trkpt lat="44.07490247016454" lon="11.275240113456112"><ele>733.0</ele><time>2026-04-09T10:44:56Z</time></trkpt><trkpt lat="44.07501090955768" lon="11.275324049269704"><ele>733.0</ele><time>2026-04-09T10:44:57Z</time></trkpt><trkpt lat="44.075101183565636" lon="11.275453106079967"><ele>737.0</ele><time>2026-04-09T10:44:58Z</time></trkpt><trkpt lat="44.07517148723602" lon="11.275625751483274"><ele>741.0</ele><time>2026-04-09T10:44:59Z</time></trkpt><trkpt lat="44.07523128882378" lon="11.275834127193166"><ele>745.0</ele><time>2026-04-09T10:45:00Z</time></trkpt><trkpt lat="44.07529426618053" lon="11.276031593649225"><ele>745.0</ele><time>2026-04-09T10:45:01Z</time></trkpt><trkpt lat="44.07539107234169" lon="11.276217216390373"><ele>745.0</ele><time>2026-04-09T10:45:02Z</time></trkpt><trkpt lat="44.07550720037961" lon="11.276399545502535"><ele>745.0</ele><time>2026-04-09T10:45:03Z</time></trkpt><trkpt lat="44.07562319477121" lon="11.276564037979767"><ele>745.0</ele><time>2026-04-09T10:45:04Z</time></trkpt><trkpt lat="44.07573236006638" lon="11.276691106141605"><ele>745.0</ele><time>2026-04-09T10:45:05Z</time></trkpt><trkpt lat="44.07581887770209" lon="11.27681263093228"><ele>745.0</ele><time>2026-04-09T10:45:06Z</time></trkpt><trkpt lat="44.075861725721474" lon="11.2769502067624"><ele>745.0</ele><time>2026-04-09T10:45:07Z</time></trkpt><trkpt lat="44.075860799148714" lon="11.27712213285213"><ele>744.5</ele><time>2026-04-09T10:45:08Z</time></trkpt><trkpt lat="44.075820453503894" lon="11.277303213992692"><ele>744.0</ele><time>2026-04-09T10:45:09Z</time></trkpt><trkpt lat="44.07576056019982" lon="11.277489276481443"><ele>743.5</ele><time>2026-04-09T10:45:10Z</time></trkpt><trkpt lat="44.075735194124164" lon="11.27765698601984"><ele>743.0</ele><time>2026-04-09T10:45:11Z</time></trkpt><trkpt lat="44.075772596403375" lon="11.277832696532254"><ele>751.0</ele><time>2026-04-09T10:45:12Z</time></trkpt><trkpt lat="44.075832649814174" lon="11.278074563530703"><ele>759.0</ele><time>2026-04-09T10:45:13Z</time></trkpt><trkpt lat="44.07586843494397" lon="11.278342213543292"><ele>767.0</ele><time>2026-04-09T10:45:14Z</time></trkpt><trkpt lat="44.07586833664805" lon="11.278621854416302"><ele>767.0</ele><time>2026-04-09T10:45:15Z</time></trkpt><trkpt lat="44.07584093777349" lon="11.27889217620487"><ele>767.0</ele><time>2026-04-09T10:45:16Z</time></trkpt><trkpt lat="44.07580947501946" lon="11.279139960955996"><ele>767.0</ele><time>2026-04-09T10:45:17Z</time></trkpt><trkpt lat="44.075796039837726" lon="11.279394599958957"><ele>766.6666666666666</ele><time>2026-04-09T10:45:18Z</time></trkpt><trkpt lat="44.07578836030487" lon="11.27963052692378"><ele>766.3333333333334</ele><time>2026-04-09T10:45:19Z</time></trkpt><trkpt lat="44.075777208648894" lon="11.279839863259605"><ele>766.0</ele><time>2026-04-09T10:45:20Z</time></trkpt><trkpt lat="44.07577314790244" lon="11.28002914365929"><ele>765.75</ele><time>2026-04-09T10:45:21Z</time></trkpt><trkpt lat="44.07577585995895" lon="11.280196251896962"><ele>765.5</ele><time>2026-04-09T10:45:22Z</time></trkpt><trkpt lat="44.07581100365743" lon="11.28035376354176"><ele>765.25</ele><time>2026-04-09T10:45:23Z</time></trkpt><trkpt lat="44.075877529932846" lon="11.280480172810407"><ele>765.0</ele><time>2026-04-09T10:45:24Z</time></trkpt><trkpt lat="44.07599443888428" lon="11.280589823298202"><ele>762.25</ele><time>2026-04-09T10:45:25Z</time></trkpt><trkpt lat="44.076109929491444" lon="11.280675478064797"><ele>759.5</ele><time>2026-04-09T10:45:26Z</time></trkpt><trkpt lat="44.0762353775419" lon="11.280710534674794"><ele>756.75</ele><time>2026-04-09T10:45:27Z</time></trkpt><trkpt lat="44.07638698454622" lon="11.280740596931444"><ele>754.0</ele><time>2026-04-09T10:45:28Z</time></trkpt><trkpt lat="44.07654178942478" lon="11.280786312883514"><ele>756.75</ele><time>2026-04-09T10:45:29Z</time></trkpt><trkpt lat="44.07666476389875" lon="11.280830523639722"><ele>759.5</ele><time>2026-04-09T10:45:30Z</time></trkpt><trkpt lat="44.07676300108315" lon="11.280934701265384"><ele>762.25</ele><time>2026-04-09T10:45:31Z</time></trkpt><trkpt lat="44.07687610472761" lon="11.281062799075256"><ele>765.0</ele><time>2026-04-09T10:45:32Z</time></trkpt><trkpt lat="44.07699410952074" lon="11.281188512089106"><ele>765.0</ele><time>2026-04-09T10:45:33Z</time></trkpt><trkpt lat="44.077098421130216" lon="11.281293859814646"><ele>765.0</ele><time>2026-04-09T10:45:34Z</time></trkpt><trkpt lat="44.07721572903933" lon="11.281363308822334"><ele>765.0</ele><time>2026-04-09T10:45:35Z</time></trkpt><trkpt lat="44.077354633065134" lon="11.281420591353486"><ele>765.0</ele><time>2026-04-09T10:45:36Z</time></trkpt><trkpt lat="44.077473963272446" lon="11.281472665549481"><ele>764.75</ele><time>2026-04-09T10:45:37Z</time></trkpt><trkpt lat="44.077569236714425" lon="11.281518099619449"><ele>764.5</ele><time>2026-04-09T10:45:38Z</time></trkpt><trkpt lat="44.0776588811642" lon="11.281556873560914"><ele>764.25</ele><time>2026-04-09T10:45:39Z</time></trkpt><trkpt lat="44.077775853268996" lon="11.281600817606963"><ele>764.0</ele><time>2026-04-09T10:45:40Z</time></trkpt><trkpt lat="44.077919520977794" lon="11.281692732020794"><ele>764.0</ele><time>2026-04-09T10:45:41Z</time></trkpt><trkpt lat="44.078074435347595" lon="11.281767621259535"><ele>764.0</ele><time>2026-04-09T10:45:42Z</time></trkpt><trkpt lat="44.07822813373871" lon="11.281844855511858"><ele>764.0</ele><time>2026-04-09T10:45:43Z</time></trkpt><trkpt lat="44.07838144286414" lon="11.28192189412947"><ele>767.3333333333333</ele><time>2026-04-09T10:45:44Z</time></trkpt><trkpt lat="44.07854712371345" lon="11.28198949166348"><ele>770.6666666666666</ele><time>2026-04-09T10:45:45Z</time></trkpt><trkpt lat="44.07870511829228" lon="11.282053126530895"><ele>774.0</ele><time>2026-04-09T10:45:46Z</time></trkpt><trkpt lat="44.078888277034956" lon="11.282085086536568"><ele>774.0</ele><time>2026-04-09T10:45:47Z</time></trkpt><trkpt lat="44.07908134312654" lon="11.2820833177914"><ele>774.0</ele><time>2026-04-09T10:45:48Z</time></trkpt><trkpt lat="44.07927902864676" lon="11.282058995683128"><ele>774.0</ele><time>2026-04-09T10:45:49Z</time></trkpt><trkpt lat="44.07948156960703" lon="11.282030139968223"><ele>780.0</ele><time>2026-04-09T10:45:50Z</time></trkpt><trkpt lat="44.07965045860872" lon="11.282034312878665"><ele>786.0</ele><time>2026-04-09T10:45:51Z</time></trkpt><trkpt lat="44.079805553985885" lon="11.282017680373862"><ele>792.0</ele><time>2026-04-09T10:45:52Z</time></trkpt><trkpt lat="44.079963961516576" lon="11.281978522665584"><ele>796.6666666666667</ele><time>2026-04-09T10:45:53Z</time></trkpt><trkpt lat="44.080131868448724" lon="11.28195949717135"><ele>801.3333333333334</ele><time>2026-04-09T10:45:54Z</time></trkpt><trkpt lat="44.08030506846722" lon="11.281945638736651"><ele>806.0</ele><time>2026-04-09T10:45:55Z</time></trkpt><trkpt lat="44.08046769695237" lon="11.281935706738487"><ele>806.0</ele><time>2026-04-09T10:45:56Z</time></trkpt><trkpt lat="44.08061587475444" lon="11.28191986980153"><ele>806.0</ele><time>2026-04-09T10:45:57Z</time></trkpt><trkpt lat="44.08075601013714" lon="11.281869664124654"><ele>806.0</ele><time>2026-04-09T10:45:58Z</time></trkpt><trkpt lat="44.08090652103926" lon="11.281830567724679"><ele>806.0</ele><time>2026-04-09T10:45:59Z</time></trkpt><trkpt lat="44.08107401709409" lon="11.28174530706248"><ele>806.75</ele><time>2026-04-09T10:46:00Z</time></trkpt><trkpt lat="44.081214088438884" lon="11.281680819519831"><ele>807.5</ele><time>2026-04-09T10:46:01Z</time></trkpt><trkpt lat="44.081322154461574" lon="11.281638841544238"><ele>808.25</ele><time>2026-04-09T10:46:02Z</time></trkpt><trkpt lat="44.08142736727596" lon="11.281491128220063"><ele>809.0</ele><time>2026-04-09T10:46:03Z</time></trkpt><trkpt lat="44.0815486561564" lon="11.281333656958788"><ele>813.0</ele><time>2026-04-09T10:46:04Z</time></trkpt><trkpt lat="44.08169444551476" lon="11.281182438382215"><ele>817.0</ele><time>2026-04-09T10:46:05Z</time></trkpt><trkpt lat="44.08179984731088" lon="11.281052113992539"><ele>821.0</ele><time>2026-04-09T10:46:06Z</time></trkpt><trkpt lat="44.08189238511637" lon="11.280954779322016"><ele>825.0</ele><time>2026-04-09T10:46:07Z</time></trkpt><trkpt lat="44.08197538204555" lon="11.280906063560867"><ele>825.0</ele><time>2026-04-09T10:46:08Z</time></trkpt><trkpt lat="44.08208167066755" lon="11.28091210709642"><ele>825.0</ele><time>2026-04-09T10:46:09Z</time></trkpt><trkpt lat="44.08220069395931" lon="11.280976524345714"><ele>825.0</ele><time>2026-04-09T10:46:10Z</time></trkpt><trkpt lat="44.08231598385924" lon="11.281075582560467"><ele>825.0</ele><time>2026-04-09T10:46:11Z</time></trkpt><trkpt lat="44.082379806981535" lon="11.281230781097676"><ele>825.0</ele><time>2026-04-09T10:46:12Z</time></trkpt><trkpt lat="44.08241719575141" lon="11.28142143464389"><ele>825.0</ele><time>2026-04-09T10:46:13Z</time></trkpt><trkpt lat="44.08241535912876" lon="11.281620068829088"><ele>825.0</ele><time>2026-04-09T10:46:14Z</time></trkpt><trkpt lat="44.082409982639035" lon="11.281831578014947"><ele>825.0</ele><time>2026-04-09T10:46:15Z</time></trkpt><trkpt lat="44.0824074527649" lon="11.282058754586116"><ele>823.6666666666667</ele><time>2026-04-09T10:46:16Z</time></trkpt><trkpt lat="44.08242675090998" lon="11.282274283235692"><ele>822.3333333333334</ele><time>2026-04-09T10:46:17Z</time></trkpt><trkpt lat="44.082458518123886" lon="11.282483943378946"><ele>821.0</ele><time>2026-04-09T10:46:18Z</time></trkpt><trkpt lat="44.08254170580276" lon="11.282683132563907"><ele>821.0</ele><time>2026-04-09T10:46:19Z</time></trkpt><trkpt lat="44.082635209858985" lon="11.282883395098754"><ele>821.0</ele><time>2026-04-09T10:46:20Z</time></trkpt><trkpt lat="44.082728876600996" lon="11.28306473921448"><ele>821.0</ele><time>2026-04-09T10:46:20.999Z</time></trkpt><trkpt lat="44.08278236914744" lon="11.283221713931026"><ele>821.0000000000001</ele><time>2026-04-09T10:46:21.999Z</time></trkpt><trkpt lat="44.08283823518728" lon="11.28333199140717"><ele>821.0</ele><time>2026-04-09T10:46:22.999Z</time></trkpt><trkpt lat="44.082888537679025" lon="11.28342736166392"><ele>821.0</ele><time>2026-04-09T10:46:23.999Z</time></trkpt><trkpt lat="44.08295617769435" lon="11.283437219069254"><ele>821.0</ele><time>2026-04-09T10:46:24.999Z</time></trkpt><trkpt lat="44.08301791975192" lon="11.28340680895881"><ele>821.0000000000001</ele><time>2026-04-09T10:46:25.999Z</time></trkpt><trkpt lat="44.083050007740894" lon="11.28326632571955"><ele>821.0</ele><time>2026-04-09T10:46:26.999Z</time></trkpt><trkpt lat="44.08303532283239" lon="11.283115739781245"><ele>821.0</ele><time>2026-04-09T10:46:27.999Z</time></trkpt><trkpt lat="44.08297400518649" lon="11.28296186701778"><ele>821.0</ele><time>2026-04-09T10:46:28.999Z</time></trkpt><trkpt lat="44.08288857715438" lon="11.282767336862035"><ele>821.0</ele><time>2026-04-09T10:46:29.999Z</time></trkpt><trkpt lat="44.08284650187146" lon="11.282532486638987"><ele>821.0</ele><time>2026-04-09T10:46:30.999Z</time></trkpt><trkpt lat="44.08281326876608" lon="11.28234089059714"><ele>821.0</ele><time>2026-04-09T10:46:31.999Z</time></trkpt><trkpt lat="44.08277520302232" lon="11.282131535449402"><ele>821.0</ele><time>2026-04-09T10:46:32.999Z</time></trkpt><trkpt lat="44.0827600937425" lon="11.281935008736875"><ele>821.0</ele><time>2026-04-09T10:46:33.999Z</time></trkpt><trkpt lat="44.08277802118797" lon="11.28179769684209"><ele>820.8</ele><time>2026-04-09T10:46:34.999Z</time></trkpt><trkpt lat="44.08283334247929" lon="11.281724476517905"><ele>820.5999999999999</ele><time>2026-04-09T10:46:35.999Z</time></trkpt><trkpt lat="44.08292279171153" lon="11.281680542423114"><ele>820.4</ele><time>2026-04-09T10:46:36.999Z</time></trkpt><trkpt lat="44.08300574700961" lon="11.281635047425803"><ele>820.2</ele><time>2026-04-09T10:46:37.999Z</time></trkpt><trkpt lat="44.08307463924841" lon="11.281558920940752"><ele>820.0</ele><time>2026-04-09T10:46:38.999Z</time></trkpt><trkpt lat="44.08312775574205" lon="11.281408874190904"><ele>819.8</ele><time>2026-04-09T10:46:39.999Z</time></trkpt><trkpt lat="44.08317455642482" lon="11.281253211562381"><ele>819.6</ele><time>2026-04-09T10:46:40.999Z</time></trkpt><trkpt lat="44.08322689390207" lon="11.281148037862522"><ele>819.4000000000001</ele><time>2026-04-09T10:46:41.999Z</time></trkpt><trkpt lat="44.083311351393206" lon="11.281096536769384"><ele>819.2</ele><time>2026-04-09T10:46:42.999Z</time></trkpt><trkpt lat="44.08339012527301" lon="11.281129673165614"><ele>819.0</ele><time>2026-04-09T10:46:43.999Z</time></trkpt><trkpt lat="44.083474282049245" lon="11.281177636430488"><ele>822.25</ele><time>2026-04-09T10:46:44.999Z</time></trkpt><trkpt lat="44.08358851050455" lon="11.281238816035268"><ele>825.5</ele><time>2026-04-09T10:46:45.999Z</time></trkpt><trkpt lat="44.08372871718962" lon="11.281304656113809"><ele>828.75</ele><time>2026-04-09T10:46:46.999Z</time></trkpt><trkpt lat="44.08386677435864" lon="11.281370017229314"><ele>832.0</ele><time>2026-04-09T10:46:47.999Z</time></trkpt><trkpt lat="44.084005625783796" lon="11.281445988586656"><ele>835.0</ele><time>2026-04-09T10:46:48.999Z</time></trkpt><trkpt lat="44.0840957221647" lon="11.28153956605778"><ele>838.0</ele><time>2026-04-09T10:46:49.999Z</time></trkpt><trkpt lat="44.084149307185854" lon="11.281655270129882"><ele>841.0</ele><time>2026-04-09T10:46:50.999Z</time></trkpt><trkpt lat="44.08419776614865" lon="11.281734614548022"><ele>844.0</ele><time>2026-04-09T10:46:51.999Z</time></trkpt><trkpt lat="44.08425132608262" lon="11.281789457169014"><ele>847.0</ele><time>2026-04-09T10:46:52.999Z</time></trkpt><trkpt lat="44.08438733386314" lon="11.281842640282784"><ele>845.25</ele><time>2026-04-09T10:46:53.999Z</time></trkpt><trkpt lat="44.08451637652616" lon="11.281651018431527"><ele>843.5</ele><time>2026-04-09T10:46:55Z</time></trkpt><trkpt lat="44.084519812515644" lon="11.28146109002426"><ele>841.75</ele><time>2026-04-09T10:46:56Z</time></trkpt><trkpt lat="44.0845305065375" lon="11.28137371015764"><ele>840.0</ele><time>2026-04-09T10:46:57Z</time></trkpt><trkpt lat="44.08454972800287" lon="11.281223542559234"><ele>840.0</ele><time>2026-04-09T10:46:58Z</time></trkpt><trkpt lat="44.08469459941186" lon="11.281223782421177"><ele>840.0</ele><time>2026-04-09T10:47:00Z</time></trkpt><trkpt lat="44.08479504759884" lon="11.281155738338647"><ele>840.0</ele><time>2026-04-09T10:47:01Z</time></trkpt><trkpt lat="44.08490855449265" lon="11.281097801828043"><ele>840.0</ele><time>2026-04-09T10:47:02Z</time></trkpt><trkpt lat="44.085004067907846" lon="11.281100665313621"><ele>842.5</ele><time>2026-04-09T10:47:03Z</time></trkpt><trkpt lat="44.08506785591422" lon="11.281261547354019"><ele>845.0</ele><time>2026-04-09T10:47:05Z</time></trkpt><trkpt lat="44.085095514786246" lon="11.28138607575661"><ele>847.5</ele><time>2026-04-09T10:47:06Z</time></trkpt><trkpt lat="44.0851718768522" lon="11.281492540536375"><ele>850.0</ele><time>2026-04-09T10:47:07Z</time></trkpt><trkpt lat="44.085292276765365" lon="11.281523097920047"><ele>854.25</ele><time>2026-04-09T10:47:08Z</time></trkpt><trkpt lat="44.08542641959148" lon="11.281566107125578"><ele>858.5</ele><time>2026-04-09T10:47:09Z</time></trkpt><trkpt lat="44.08555098779269" lon="11.281611731006796"><ele>862.75</ele><time>2026-04-09T10:47:10Z</time></trkpt><trkpt lat="44.08567889377427" lon="11.28165617939435"><ele>867.0</ele><time>2026-04-09T10:47:11Z</time></trkpt><trkpt lat="44.08581943997775" lon="11.281726893890534"><ele>868.5</ele><time>2026-04-09T10:47:12Z</time></trkpt><trkpt lat="44.08591365649434" lon="11.281892827961123"><ele>870.0</ele><time>2026-04-09T10:47:13Z</time></trkpt><trkpt lat="44.08600791747959" lon="11.282036047568296"><ele>871.5</ele><time>2026-04-09T10:47:14Z</time></trkpt><trkpt lat="44.08609191489906" lon="11.28212252227043"><ele>873.0</ele><time>2026-04-09T10:47:15Z</time></trkpt><trkpt lat="44.08616129080136" lon="11.282139928826297"><ele>873.0</ele><time>2026-04-09T10:47:16Z</time></trkpt><trkpt lat="44.08624868637309" lon="11.28198416883164"><ele>873.0</ele><time>2026-04-09T10:47:18Z</time></trkpt><trkpt lat="44.08626944685379" lon="11.281850105249513"><ele>873.0</ele><time>2026-04-09T10:47:19Z</time></trkpt><trkpt lat="44.08630613222232" lon="11.2817013898639"><ele>873.0</ele><time>2026-04-09T10:47:20Z</time></trkpt><trkpt lat="44.086326236922325" lon="11.281573145471013"><ele>873.0</ele><time>2026-04-09T10:47:21Z</time></trkpt><trkpt lat="44.08638764156963" lon="11.281539730485333"><ele>873.0</ele><time>2026-04-09T10:47:22Z</time></trkpt><trkpt lat="44.08646486039433" lon="11.281598137771153"><ele>873.0</ele><time>2026-04-09T10:47:23Z</time></trkpt><trkpt lat="44.08653947785705" lon="11.281688436428803"><ele>873.0</ele><time>2026-04-09T10:47:24Z</time></trkpt><trkpt lat="44.08660738421059" lon="11.281812000405797"><ele>873.0</ele><time>2026-04-09T10:47:25Z</time></trkpt><trkpt lat="44.08668957736285" lon="11.28187013831877"><ele>873.0</ele><time>2026-04-09T10:47:26Z</time></trkpt><trkpt lat="44.08677162055177" lon="11.281862677985577"><ele>874.8</ele><time>2026-04-09T10:47:27Z</time></trkpt><trkpt lat="44.086845435852" lon="11.281800294735278"><ele>876.5999999999999</ele><time>2026-04-09T10:47:28Z</time></trkpt><trkpt lat="44.086920970236356" lon="11.281711542743677"><ele>878.4000000000001</ele><time>2026-04-09T10:47:29Z</time></trkpt><trkpt lat="44.08695660345011" lon="11.281550566752776"><ele>880.2</ele><time>2026-04-09T10:47:30Z</time></trkpt><trkpt lat="44.08692332966194" lon="11.281362130835028"><ele>882.0</ele><time>2026-04-09T10:47:31Z</time></trkpt><trkpt lat="44.08689991114302" lon="11.281171626619464"><ele>882.0</ele><time>2026-04-09T10:47:32Z</time></trkpt><trkpt lat="44.08692182986112" lon="11.281027340795237"><ele>882.0</ele><time>2026-04-09T10:47:33Z</time></trkpt><trkpt lat="44.08695813577205" lon="11.280910326687378"><ele>882.0</ele><time>2026-04-09T10:47:34Z</time></trkpt><trkpt lat="44.08703445073059" lon="11.28080150526308"><ele>882.0</ele><time>2026-04-09T10:47:35Z</time></trkpt><trkpt lat="44.087139602897004" lon="11.280664579599202"><ele>880.4000000000001</ele><time>2026-04-09T10:47:36Z</time></trkpt><trkpt lat="44.087246739273965" lon="11.280551299808636"><ele>878.8000000000001</ele><time>2026-04-09T10:47:37Z</time></trkpt><trkpt lat="44.087328186977274" lon="11.28046973605342"><ele>877.2</ele><time>2026-04-09T10:47:38Z</time></trkpt><trkpt lat="44.08741663924912" lon="11.280505247678743"><ele>875.6</ele><time>2026-04-09T10:47:39Z</time></trkpt><trkpt lat="44.087500772655645" lon="11.280566288647275"><ele>874.0</ele><time>2026-04-09T10:47:40Z</time></trkpt><trkpt lat="44.08759735502535" lon="11.28069229200553"><ele>880.6666666666666</ele><time>2026-04-09T10:47:41Z</time></trkpt><trkpt lat="44.08771542144322" lon="11.280848135909372"><ele>887.3333333333333</ele><time>2026-04-09T10:47:42Z</time></trkpt><trkpt lat="44.08781443697589" lon="11.281001903193541"><ele>894.0</ele><time>2026-04-09T10:47:43Z</time></trkpt><trkpt lat="44.08790256980146" lon="11.281157207166151"><ele>894.0</ele><time>2026-04-09T10:47:44Z</time></trkpt><trkpt lat="44.08797919416891" lon="11.28126417848471"><ele>894.0</ele><time>2026-04-09T10:47:45Z</time></trkpt><trkpt lat="44.08808932357691" lon="11.281339871260501"><ele>894.0</ele><time>2026-04-09T10:47:46Z</time></trkpt><trkpt lat="44.088231210323734" lon="11.281383855876435"><ele>894.0</ele><time>2026-04-09T10:47:47Z</time></trkpt><trkpt lat="44.08839619145467" lon="11.2813706978866"><ele>890.6666666666667</ele><time>2026-04-09T10:47:48Z</time></trkpt><trkpt lat="44.08857363504838" lon="11.281375630982371"><ele>887.3333333333334</ele><time>2026-04-09T10:47:49Z</time></trkpt><trkpt lat="44.08876616828438" lon="11.281400181548888"><ele>884.0</ele><time>2026-04-09T10:47:50Z</time></trkpt><trkpt lat="44.088935950311246" lon="11.281423353617251"><ele>889.6666666666667</ele><time>2026-04-09T10:47:51Z</time></trkpt><trkpt lat="44.08908381334051" lon="11.28146542368253"><ele>895.3333333333333</ele><time>2026-04-09T10:47:52Z</time></trkpt><trkpt lat="44.089233598994674" lon="11.281466952603873"><ele>901.0</ele><time>2026-04-09T10:47:53Z</time></trkpt><trkpt lat="44.089387983886745" lon="11.281445702268563"><ele>897.6666666666666</ele><time>2026-04-09T10:47:54Z</time></trkpt><trkpt lat="44.089543962491895" lon="11.28133724857716"><ele>894.3333333333333</ele><time>2026-04-09T10:47:55Z</time></trkpt><trkpt lat="44.08970675373544" lon="11.281237187570541"><ele>891.0</ele><time>2026-04-09T10:47:56Z</time></trkpt><trkpt lat="44.08986508383165" lon="11.281191086897257"><ele>891.75</ele><time>2026-04-09T10:47:57Z</time></trkpt><trkpt lat="44.090007240022416" lon="11.281145579011902"><ele>892.5</ele><time>2026-04-09T10:47:58Z</time></trkpt><trkpt lat="44.09014137751245" lon="11.281127250045337"><ele>893.25</ele><time>2026-04-09T10:47:59Z</time></trkpt><trkpt lat="44.09027628415388" lon="11.281144461058414"><ele>894.0</ele><time>2026-04-09T10:48:00Z</time></trkpt><trkpt lat="44.09040023798668" lon="11.281176926394572"><ele>894.0</ele><time>2026-04-09T10:48:01Z</time></trkpt><trkpt lat="44.09051857194501" lon="11.281193908379906"><ele>894.0</ele><time>2026-04-09T10:48:02Z</time></trkpt><trkpt lat="44.09063032065877" lon="11.281200455967937"><ele>894.0</ele><time>2026-04-09T10:48:03Z</time></trkpt><trkpt lat="44.090752773743525" lon="11.281140295163802"><ele>894.0</ele><time>2026-04-09T10:48:04Z</time></trkpt><trkpt lat="44.090865795769496" lon="11.280977303427697"><ele>894.6666666666667</ele><time>2026-04-09T10:48:05Z</time></trkpt><trkpt lat="44.091006266044346" lon="11.280838092943632"><ele>895.3333333333334</ele><time>2026-04-09T10:48:06Z</time></trkpt><trkpt lat="44.09115947750333" lon="11.28067564938825"><ele>896.0</ele><time>2026-04-09T10:48:07Z</time></trkpt><trkpt lat="44.09131306796988" lon="11.280557677816908"><ele>892.6666666666667</ele><time>2026-04-09T10:48:08Z</time></trkpt><trkpt lat="44.09147296492523" lon="11.280467389393754"><ele>889.3333333333333</ele><time>2026-04-09T10:48:09Z</time></trkpt><trkpt lat="44.091640242552906" lon="11.280371231864928"><ele>886.0</ele><time>2026-04-09T10:48:10Z</time></trkpt><trkpt lat="44.09180356066018" lon="11.280275868785363"><ele>886.0</ele><time>2026-04-09T10:48:11Z</time></trkpt><trkpt lat="44.09195112496333" lon="11.280191021346893"><ele>886.0</ele><time>2026-04-09T10:48:12Z</time></trkpt><trkpt lat="44.09208852643901" lon="11.280116955913178"><ele>886.0</ele><time>2026-04-09T10:48:13Z</time></trkpt><trkpt lat="44.09220274974315" lon="11.280018417291432"><ele>886.0</ele><time>2026-04-09T10:48:14Z</time></trkpt><trkpt lat="44.09229639186138" lon="11.279903166932817"><ele>882.6666666666666</ele><time>2026-04-09T10:48:15Z</time></trkpt><trkpt lat="44.09237802192045" lon="11.27972863608687"><ele>879.3333333333333</ele><time>2026-04-09T10:48:16Z</time></trkpt><trkpt lat="44.092441849063924" lon="11.279512469011982"><ele>876.0</ele><time>2026-04-09T10:48:17Z</time></trkpt><trkpt lat="44.092520192887406" lon="11.27928184531105"><ele>879.75</ele><time>2026-04-09T10:48:18Z</time></trkpt><trkpt lat="44.09256744985874" lon="11.279056676533575"><ele>883.5</ele><time>2026-04-09T10:48:19Z</time></trkpt><trkpt lat="44.092607053042315" lon="11.278858171235363"><ele>887.25</ele><time>2026-04-09T10:48:20Z</time></trkpt><trkpt lat="44.092664987486806" lon="11.27869631643501"><ele>891.0</ele><time>2026-04-09T10:48:21Z</time></trkpt><trkpt lat="44.09274286171971" lon="11.278540802310664"><ele>891.0</ele><time>2026-04-09T10:48:22Z</time></trkpt><trkpt lat="44.092851579967416" lon="11.278452220443045"><ele>891.0</ele><time>2026-04-09T10:48:23Z</time></trkpt><trkpt lat="44.092980963272545" lon="11.278413220384744"><ele>891.0</ele><time>2026-04-09T10:48:24Z</time></trkpt><trkpt lat="44.093129333361894" lon="11.278373107083809"><ele>891.0</ele><time>2026-04-09T10:48:25Z</time></trkpt><trkpt lat="44.09328087927808" lon="11.278318759006826"><ele>892.5</ele><time>2026-04-09T10:48:26Z</time></trkpt><trkpt lat="44.09342373355386" lon="11.278262503841837"><ele>894.0</ele><time>2026-04-09T10:48:27Z</time></trkpt><trkpt lat="44.093536128125166" lon="11.278170988179633"><ele>895.5</ele><time>2026-04-09T10:48:27.999Z</time></trkpt><trkpt lat="44.0936282633258" lon="11.278068397657435"><ele>897.0</ele><time>2026-04-09T10:48:28.999Z</time></trkpt><trkpt lat="44.09371458284451" lon="11.277917791621629"><ele>897.0</ele><time>2026-04-09T10:48:29.999Z</time></trkpt><trkpt lat="44.0938097983647" lon="11.277732465347627"><ele>897.0</ele><time>2026-04-09T10:48:30.999Z</time></trkpt><trkpt lat="44.09390406583663" lon="11.277509534626724"><ele>897.0</ele><time>2026-04-09T10:48:31.999Z</time></trkpt><trkpt lat="44.093996770815274" lon="11.27728786616188"><ele>896.0</ele><time>2026-04-09T10:48:32.999Z</time></trkpt><trkpt lat="44.094075260890165" lon="11.277107885722359"><ele>895.0</ele><time>2026-04-09T10:48:33.999Z</time></trkpt><trkpt lat="44.094130407400534" lon="11.27695515790521"><ele>894.0</ele><time>2026-04-09T10:48:34.999Z</time></trkpt><trkpt lat="44.09414257851893" lon="11.276826918295477"><ele>893.0</ele><time>2026-04-09T10:48:35.999Z</time></trkpt><trkpt lat="44.09415810851095" lon="11.27672592079319"><ele>892.0</ele><time>2026-04-09T10:48:36.999Z</time></trkpt><trkpt lat="44.09419669250186" lon="11.276617939814969"><ele>895.0</ele><time>2026-04-09T10:48:37.999Z</time></trkpt><trkpt lat="44.094261001661785" lon="11.276494312125642"><ele>898.0</ele><time>2026-04-09T10:48:38.999Z</time></trkpt><trkpt lat="44.094337875127536" lon="11.276354511567643"><ele>901.0</ele><time>2026-04-09T10:48:39.999Z</time></trkpt><trkpt lat="44.09442008882079" lon="11.276198815266214"><ele>904.0</ele><time>2026-04-09T10:48:40.999Z</time></trkpt><trkpt lat="44.09449868110495" lon="11.276028950726126"><ele>904.0</ele><time>2026-04-09T10:48:41.999Z</time></trkpt><trkpt lat="44.09458487058428" lon="11.275844983134483"><ele>904.0</ele><time>2026-04-09T10:48:42.999Z</time></trkpt><trkpt lat="44.094680288043364" lon="11.275681836608458"><ele>904.0</ele><time>2026-04-09T10:48:43.999Z</time></trkpt><trkpt lat="44.0947818916785" lon="11.275561051545512"><ele>904.0</ele><time>2026-04-09T10:48:44.999Z</time></trkpt><trkpt lat="44.09486502232457" lon="11.275484510561585"><ele>905.8333333333333</ele><time>2026-04-09T10:48:45.999Z</time></trkpt><trkpt lat="44.09493373611088" lon="11.275441806286834"><ele>907.6666666666666</ele><time>2026-04-09T10:48:46.999Z</time></trkpt><trkpt lat="44.09501619861858" lon="11.275402091592175"><ele>909.5</ele><time>2026-04-09T10:48:47.999Z</time></trkpt><trkpt lat="44.095099162001574" lon="11.27538069185705"><ele>911.3333333333333</ele><time>2026-04-09T10:48:48.999Z</time></trkpt><trkpt lat="44.09518855205612" lon="11.275366118154503"><ele>913.1666666666666</ele><time>2026-04-09T10:48:49.999Z</time></trkpt><trkpt lat="44.09526856603583" lon="11.275358804981574"><ele>915.0</ele><time>2026-04-09T10:48:50.999Z</time></trkpt><trkpt lat="44.095384914682775" lon="11.275379223942435"><ele>915.0</ele><time>2026-04-09T10:48:52.999Z</time></trkpt><trkpt lat="44.09546717259423" lon="11.275418307889925"><ele>915.0</ele><time>2026-04-09T10:48:54.999Z</time></trkpt><trkpt lat="44.09555214764374" lon="11.275439250255403"><ele>915.0</ele><time>2026-04-09T10:48:57.999Z</time></trkpt><trkpt lat="44.09564769211349" lon="11.275407450730073"><ele>915.0</ele><time>2026-04-09T10:54:00Z</time></trkpt><trkpt lat="44.09578921393033" lon="11.275381652622928"><ele>915.0</ele><time>2026-04-09T10:54:02Z</time></trkpt><trkpt lat="44.095885013436906" lon="11.27536496818008"><ele>916.0</ele><time>2026-04-09T10:54:03Z</time></trkpt><trkpt lat="44.09598878631032" lon="11.275347102645705"><ele>917.0</ele><time>2026-04-09T10:54:04Z</time></trkpt><trkpt lat="44.09610625335323" lon="11.275318842087687"><ele>918.0</ele><time>2026-04-09T10:54:05Z</time></trkpt><trkpt lat="44.096233883989285" lon="11.275280375671146"><ele>919.0</ele><time>2026-04-09T10:54:06Z</time></trkpt><trkpt lat="44.096385059804035" lon="11.275256370767982"><ele>919.0</ele><time>2026-04-09T10:54:07Z</time></trkpt><trkpt lat="44.09650835185699" lon="11.275202412947346"><ele>919.0</ele><time>2026-04-09T10:54:08Z</time></trkpt><trkpt lat="44.09661603699179" lon="11.275168709919491"><ele>919.0</ele><time>2026-04-09T10:54:09Z</time></trkpt><trkpt lat="44.096729157714094" lon="11.275145960096289"><ele>919.0</ele><time>2026-04-09T10:54:10Z</time></trkpt><trkpt lat="44.096832690743916" lon="11.275073909257365"><ele>919.5</ele><time>2026-04-09T10:54:11Z</time></trkpt><trkpt lat="44.096955204044036" lon="11.275026043590346"><ele>920.0</ele><time>2026-04-09T10:54:12Z</time></trkpt><trkpt lat="44.09709887402886" lon="11.274993082652125"><ele>920.5</ele><time>2026-04-09T10:54:13Z</time></trkpt><trkpt lat="44.097250168056036" lon="11.274982601868858"><ele>921.0</ele><time>2026-04-09T10:54:14Z</time></trkpt><trkpt lat="44.09739954179638" lon="11.274991392832709"><ele>918.6666666666667</ele><time>2026-04-09T10:54:15Z</time></trkpt><trkpt lat="44.09756611626033" lon="11.27502987055595"><ele>916.3333333333334</ele><time>2026-04-09T10:54:16Z</time></trkpt><trkpt lat="44.097727045948666" lon="11.275078493069525"><ele>914.0</ele><time>2026-04-09T10:54:17Z</time></trkpt><trkpt lat="44.09787003850204" lon="11.275126663182782"><ele>914.0</ele><time>2026-04-09T10:54:18Z</time></trkpt><trkpt lat="44.0980010862274" lon="11.275175731659445"><ele>914.0</ele><time>2026-04-09T10:54:19Z</time></trkpt><trkpt lat="44.098117396740285" lon="11.275212815945066"><ele>914.0</ele><time>2026-04-09T10:54:20Z</time></trkpt><trkpt lat="44.098234277517776" lon="11.27527819822873"><ele>914.0</ele><time>2026-04-09T10:54:21Z</time></trkpt><trkpt lat="44.09835843507156" lon="11.27532280488618"><ele>913.5</ele><time>2026-04-09T10:54:22Z</time></trkpt><trkpt lat="44.098473300381386" lon="11.275334198839126"><ele>913.0</ele><time>2026-04-09T10:54:23Z</time></trkpt><trkpt lat="44.098604623191825" lon="11.275294271065512"><ele>912.5</ele><time>2026-04-09T10:54:24Z</time></trkpt><trkpt lat="44.09874262966747" lon="11.275201029433916"><ele>912.0</ele><time>2026-04-09T10:54:25Z</time></trkpt><trkpt lat="44.09886043222704" lon="11.275126435732068"><ele>912.0</ele><time>2026-04-09T10:54:26Z</time></trkpt><trkpt lat="44.09897365568041" lon="11.275073372856408"><ele>912.0</ele><time>2026-04-09T10:54:27Z</time></trkpt><trkpt lat="44.099124436882946" lon="11.275076098621298"><ele>912.0</ele><time>2026-04-09T10:54:28Z</time></trkpt><trkpt lat="44.09928407644997" lon="11.275100257220128"><ele>912.0</ele><time>2026-04-09T10:54:29Z</time></trkpt><trkpt lat="44.09944582281149" lon="11.275123613464947"><ele>910.0</ele><time>2026-04-09T10:54:30Z</time></trkpt><trkpt lat="44.09959480647415" lon="11.275123831239199"><ele>908.0</ele><time>2026-04-09T10:54:31Z</time></trkpt><trkpt lat="44.0997271379324" lon="11.275103836524893"><ele>906.0</ele><time>2026-04-09T10:54:32Z</time></trkpt><trkpt lat="44.099854934084235" lon="11.275063888790765"><ele>904.0</ele><time>2026-04-09T10:54:33Z</time></trkpt><trkpt lat="44.09997766799107" lon="11.275079399694185"><ele>903.0</ele><time>2026-04-09T10:54:34Z</time></trkpt><trkpt lat="44.10011221159145" lon="11.275120347639838"><ele>902.0</ele><time>2026-04-09T10:54:35Z</time></trkpt><trkpt lat="44.10022014126228" lon="11.275220518334581"><ele>901.0</ele><time>2026-04-09T10:54:36Z</time></trkpt><trkpt lat="44.10032077821936" lon="11.275343227140386"><ele>900.0</ele><time>2026-04-09T10:54:37Z</time></trkpt><trkpt lat="44.10043583896527" lon="11.275484984269122"><ele>898.75</ele><time>2026-04-09T10:54:38Z</time></trkpt><trkpt lat="44.10054667809909" lon="11.275667634637967"><ele>897.5</ele><time>2026-04-09T10:54:39Z</time></trkpt><trkpt lat="44.10064260088076" lon="11.275806988197656"><ele>896.25</ele><time>2026-04-09T10:54:40Z</time></trkpt><trkpt lat="44.10072602351728" lon="11.275923178964629"><ele>895.0</ele><time>2026-04-09T10:54:41Z</time></trkpt><trkpt lat="44.100848428990005" lon="11.275983282162962"><ele>895.0</ele><time>2026-04-09T10:54:42Z</time></trkpt><trkpt lat="44.100946688274114" lon="11.276041276050558"><ele>895.0</ele><time>2026-04-09T10:54:43Z</time></trkpt><trkpt lat="44.101035703705314" lon="11.27610387815117"><ele>895.0</ele><time>2026-04-09T10:54:43.999Z</time></trkpt><trkpt lat="44.1011456467742" lon="11.276119755191965"><ele>895.0</ele><time>2026-04-09T10:54:44.999Z</time></trkpt><trkpt lat="44.101286462763895" lon="11.27609338492583"><ele>895.0</ele><time>2026-04-09T10:54:45.999Z</time></trkpt><trkpt lat="44.10141290470363" lon="11.276024427539491"><ele>895.0</ele><time>2026-04-09T10:54:46.999Z</time></trkpt><trkpt lat="44.10152116837638" lon="11.27598123993205"><ele>895.0</ele><time>2026-04-09T10:54:47.999Z</time></trkpt><trkpt lat="44.10163232440201" lon="11.275974275080435"><ele>895.0</ele><time>2026-04-09T10:54:48.999Z</time></trkpt><trkpt lat="44.10175312636038" lon="11.27602263271711"><ele>895.5</ele><time>2026-04-09T10:54:49.999Z</time></trkpt><trkpt lat="44.1018604775003" lon="11.276132705031435"><ele>896.0</ele><time>2026-04-09T10:54:50.999Z</time></trkpt><trkpt lat="44.101955773908024" lon="11.276270431648879"><ele>896.5</ele><time>2026-04-09T10:54:51.999Z</time></trkpt><trkpt lat="44.1020435254087" lon="11.276438151844266"><ele>897.0</ele><time>2026-04-09T10:54:52.999Z</time></trkpt><trkpt lat="44.10210210934634" lon="11.276617104515806"><ele>893.6666666666667</ele><time>2026-04-09T10:54:53.999Z</time></trkpt><trkpt lat="44.10216014617453" lon="11.276819516254777"><ele>890.3333333333334</ele><time>2026-04-09T10:54:54.999Z</time></trkpt><trkpt lat="44.10221105108544" lon="11.277046237887182"><ele>887.0</ele><time>2026-04-09T10:54:55.999Z</time></trkpt><trkpt lat="44.102237092621166" lon="11.277275696604534"><ele>884.25</ele><time>2026-04-09T10:54:56.999Z</time></trkpt><trkpt lat="44.10224338835918" lon="11.27748547518514"><ele>881.5</ele><time>2026-04-09T10:54:57.999Z</time></trkpt><trkpt lat="44.10224497871824" lon="11.277670872701757"><ele>878.75</ele><time>2026-04-09T10:54:58.999Z</time></trkpt><trkpt lat="44.10226507238446" lon="11.277832730978984"><ele>876.0</ele><time>2026-04-09T10:54:59.999Z</time></trkpt><trkpt lat="44.10230567260942" lon="11.277962819033762"><ele>878.3333333333333</ele><time>2026-04-09T10:55:00.999Z</time></trkpt><trkpt lat="44.10236027587878" lon="11.278103504168635"><ele>880.6666666666666</ele><time>2026-04-09T10:55:01.999Z</time></trkpt><trkpt lat="44.10248278978214" lon="11.278236351482096"><ele>883.0</ele><time>2026-04-09T10:55:02.999Z</time></trkpt><trkpt lat="44.10264124652371" lon="11.27838130027791"><ele>883.0</ele><time>2026-04-09T10:55:03.999Z</time></trkpt><trkpt lat="44.10279661260616" lon="11.278526586893653"><ele>883.0</ele><time>2026-04-09T10:55:04.999Z</time></trkpt><trkpt lat="44.102941991781506" lon="11.278660575788567"><ele>883.0</ele><time>2026-04-09T10:55:05.999Z</time></trkpt><trkpt lat="44.10307513386701" lon="11.278787577730114"><ele>883.0</ele><time>2026-04-09T10:55:06.999Z</time></trkpt><trkpt lat="44.10321636683715" lon="11.278914465662785"><ele>883.0</ele><time>2026-04-09T10:55:07.999Z</time></trkpt><trkpt lat="44.103343837596206" lon="11.27908879718473"><ele>883.0</ele><time>2026-04-09T10:55:08.999Z</time></trkpt><trkpt lat="44.10344625719406" lon="11.279298597368717"><ele>882.6666666666666</ele><time>2026-04-09T10:55:09.999Z</time></trkpt><trkpt lat="44.10355396780556" lon="11.279489048953527"><ele>882.3333333333333</ele><time>2026-04-09T10:55:10.999Z</time></trkpt><trkpt lat="44.103668413488066" lon="11.279689564858568"><ele>882.0</ele><time>2026-04-09T10:55:11.999Z</time></trkpt><trkpt lat="44.103795422832874" lon="11.279865000286135"><ele>882.6666666666667</ele><time>2026-04-09T10:55:12.999Z</time></trkpt><trkpt lat="44.10396294475692" lon="11.280047650526694"><ele>883.3333333333334</ele><time>2026-04-09T10:55:13.999Z</time></trkpt><trkpt lat="44.1041114880721" lon="11.280261027096374"><ele>884.0</ele><time>2026-04-09T10:55:14.999Z</time></trkpt><trkpt lat="44.1042650910208" lon="11.28042958333523"><ele>882.0</ele><time>2026-04-09T10:55:15.999Z</time></trkpt><trkpt lat="44.10439948972746" lon="11.280610035143694"><ele>880.0</ele><time>2026-04-09T10:55:16.999Z</time></trkpt><trkpt lat="44.10453255502951" lon="11.280787932431393"><ele>878.0</ele><time>2026-04-09T10:55:17.999Z</time></trkpt><trkpt lat="44.104648515311155" lon="11.280944448246027"><ele>878.0</ele><time>2026-04-09T10:55:19Z</time></trkpt><trkpt lat="44.104757269124086" lon="11.281079030304046"><ele>878.0</ele><time>2026-04-09T10:55:20Z</time></trkpt><trkpt lat="44.10487055656581" lon="11.281223847071937"><ele>878.0</ele><time>2026-04-09T10:55:21Z</time></trkpt><trkpt lat="44.10499029914934" lon="11.28137759856901"><ele>878.6666666666667</ele><time>2026-04-09T10:55:22Z</time></trkpt><trkpt lat="44.10510980465194" lon="11.281548845675951"><ele>879.3333333333333</ele><time>2026-04-09T10:55:23Z</time></trkpt><trkpt lat="44.10524216150411" lon="11.281746451612843"><ele>880.0</ele><time>2026-04-09T10:55:24Z</time></trkpt><trkpt lat="44.10537226082788" lon="11.281949550132557"><ele>880.0</ele><time>2026-04-09T10:55:25Z</time></trkpt><trkpt lat="44.10548100134688" lon="11.28208519014342"><ele>880.0</ele><time>2026-04-09T10:55:26Z</time></trkpt><trkpt lat="44.105819895782446" lon="11.282590032536445"><ele>879.6666666666666</ele><time>2026-04-09T10:55:27Z</time></trkpt><trkpt lat="44.105938146399915" lon="11.282775969803609"><ele>879.3333333333333</ele><time>2026-04-09T10:55:28Z</time></trkpt><trkpt lat="44.106038451262215" lon="11.28295016062161"><ele>879.0</ele><time>2026-04-09T10:55:29Z</time></trkpt><trkpt lat="44.10613080583771" lon="11.283119492332736"><ele>876.5</ele><time>2026-04-09T10:55:30Z</time></trkpt><trkpt lat="44.10621586286622" lon="11.28327488705711"><ele>874.0</ele><time>2026-04-09T10:55:31Z</time></trkpt><trkpt lat="44.106303198233284" lon="11.2834196883957"><ele>871.5</ele><time>2026-04-09T10:55:32Z</time></trkpt><trkpt lat="44.10639657264591" lon="11.283541984408847"><ele>869.0</ele><time>2026-04-09T10:55:33Z</time></trkpt><trkpt lat="44.10650393561103" lon="11.283656941185145"><ele>870.5</ele><time>2026-04-09T10:55:34Z</time></trkpt><trkpt lat="44.10661069214467" lon="11.28374789134338"><ele>872.0</ele><time>2026-04-09T10:55:35Z</time></trkpt><trkpt lat="44.106729966204306" lon="11.283822348708009"><ele>873.5</ele><time>2026-04-09T10:55:36Z</time></trkpt><trkpt lat="44.10686187916231" lon="11.283864828898391"><ele>875.0</ele><time>2026-04-09T10:55:37Z</time></trkpt><trkpt lat="44.10701552471655" lon="11.283885285350937"><ele>875.0</ele><time>2026-04-09T10:55:38Z</time></trkpt><trkpt lat="44.10717450772911" lon="11.283886933716456"><ele>875.0</ele><time>2026-04-09T10:55:39Z</time></trkpt><trkpt lat="44.1073465886473" lon="11.28387576334623"><ele>875.0</ele><time>2026-04-09T10:55:40Z</time></trkpt><trkpt lat="44.107506063061884" lon="11.283861660451015"><ele>875.0</ele><time>2026-04-09T10:55:41Z</time></trkpt><trkpt lat="44.10765231101339" lon="11.28384705628181"><ele>875.0</ele><time>2026-04-09T10:55:42Z</time></trkpt><trkpt lat="44.10778114651824" lon="11.283835738403608"><ele>875.0</ele><time>2026-04-09T10:55:43Z</time></trkpt><trkpt lat="44.10790288093651" lon="11.283830302012323"><ele>875.0</ele><time>2026-04-09T10:55:44Z</time></trkpt><trkpt lat="44.10801633414522" lon="11.283818782191563"><ele>875.0</ele><time>2026-04-09T10:55:45Z</time></trkpt><trkpt lat="44.10812528594437" lon="11.283783725160667"><ele>875.0</ele><time>2026-04-09T10:55:46Z</time></trkpt><trkpt lat="44.10822513971863" lon="11.283732199920232"><ele>875.0</ele><time>2026-04-09T10:55:47Z</time></trkpt><trkpt lat="44.10831703214231" lon="11.283684424536137"><ele>875.0</ele><time>2026-04-09T10:55:48Z</time></trkpt><trkpt lat="44.10839711501877" lon="11.283631543255337"><ele>875.0</ele><time>2026-04-09T10:55:49Z</time></trkpt><trkpt lat="44.10848994191661" lon="11.283577347571825"><ele>872.25</ele><time>2026-04-09T10:55:50Z</time></trkpt><trkpt lat="44.10861029467262" lon="11.283529528425913"><ele>869.5</ele><time>2026-04-09T10:55:51Z</time></trkpt><trkpt lat="44.10874121053772" lon="11.283498824914243"><ele>866.75</ele><time>2026-04-09T10:55:52Z</time></trkpt><trkpt lat="44.10886281755619" lon="11.283494712977344"><ele>864.0</ele><time>2026-04-09T10:55:53Z</time></trkpt><trkpt lat="44.10896559910289" lon="11.283501258222508"><ele>864.0</ele><time>2026-04-09T10:55:54Z</time></trkpt><trkpt lat="44.10905484817513" lon="11.283517060246059"><ele>864.0000000000001</ele><time>2026-04-09T10:55:55Z</time></trkpt><trkpt lat="44.109161044659245" lon="11.283541294443971"><ele>864.0000000000001</ele><time>2026-04-09T10:55:56Z</time></trkpt><trkpt lat="44.10925661168708" lon="11.283563584619044"><ele>864.0</ele><time>2026-04-09T10:55:57Z</time></trkpt><trkpt lat="44.10936353117551" lon="11.283586103364712"><ele>864.0</ele><time>2026-04-09T10:55:58Z</time></trkpt><trkpt lat="44.109474034914555" lon="11.283615159656431"><ele>863.2</ele><time>2026-04-09T10:55:59Z</time></trkpt><trkpt lat="44.10956913429709" lon="11.283638790212985"><ele>862.4000000000001</ele><time>2026-04-09T10:56:00Z</time></trkpt><trkpt lat="44.10966232133377" lon="11.283669861835095"><ele>861.6</ele><time>2026-04-09T10:56:01Z</time></trkpt><trkpt lat="44.10975405150367" lon="11.283721557730662"><ele>860.8</ele><time>2026-04-09T10:56:02Z</time></trkpt><trkpt lat="44.10983920039611" lon="11.283783374402274"><ele>860.0</ele><time>2026-04-09T10:56:03Z</time></trkpt><trkpt lat="44.10992690265471" lon="11.283855305750167"><ele>860.0</ele><time>2026-04-09T10:56:04Z</time></trkpt><trkpt lat="44.11001963740671" lon="11.283925716558636"><ele>860.0</ele><time>2026-04-09T10:56:05Z</time></trkpt><trkpt lat="44.110119682584006" lon="11.283994261277313"><ele>860.0</ele><time>2026-04-09T10:56:06Z</time></trkpt><trkpt lat="44.110203939140405" lon="11.284079154938283"><ele>860.0</ele><time>2026-04-09T10:56:07Z</time></trkpt><trkpt lat="44.11028478646526" lon="11.284147881916299"><ele>860.0</ele><time>2026-04-09T10:56:08Z</time></trkpt><trkpt lat="44.11037891141373" lon="11.284213106618166"><ele>858.25</ele><time>2026-04-09T10:56:09Z</time></trkpt><trkpt lat="44.11047445791866" lon="11.284287327757466"><ele>856.5</ele><time>2026-04-09T10:56:10Z</time></trkpt><trkpt lat="44.110581680945124" lon="11.284373984748997"><ele>854.75</ele><time>2026-04-09T10:56:11Z</time></trkpt><trkpt lat="44.1106886477045" lon="11.284460209506115"><ele>853.0</ele><time>2026-04-09T10:56:12Z</time></trkpt><trkpt lat="44.110784743055994" lon="11.284541034810877"><ele>853.0</ele><time>2026-04-09T10:56:13Z</time></trkpt><trkpt lat="44.110876873082404" lon="11.284615851143325"><ele>853.0</ele><time>2026-04-09T10:56:14Z</time></trkpt><trkpt lat="44.110976695592974" lon="11.28470012666035"><ele>853.0</ele><time>2026-04-09T10:56:15Z</time></trkpt><trkpt lat="44.11108952318744" lon="11.284790995047585"><ele>853.0</ele><time>2026-04-09T10:56:16Z</time></trkpt><trkpt lat="44.111196772565705" lon="11.284873591399492"><ele>852.75</ele><time>2026-04-09T10:56:17Z</time></trkpt><trkpt lat="44.1112895423492" lon="11.284949027160255"><ele>852.5</ele><time>2026-04-09T10:56:18Z</time></trkpt><trkpt lat="44.111388434468005" lon="11.285003557942751"><ele>852.25</ele><time>2026-04-09T10:56:19Z</time></trkpt><trkpt lat="44.11150141800714" lon="11.285041172298769"><ele>852.0</ele><time>2026-04-09T10:56:20Z</time></trkpt><trkpt lat="44.111630923924466" lon="11.285059606793434"><ele>852.0</ele><time>2026-04-09T10:56:21Z</time></trkpt><trkpt lat="44.111758802293124" lon="11.285075417640819"><ele>852.0</ele><time>2026-04-09T10:56:22Z</time></trkpt><trkpt lat="44.11189807026145" lon="11.285088697821982"><ele>852.0</ele><time>2026-04-09T10:56:23Z</time></trkpt><trkpt lat="44.11205430718123" lon="11.285120375477108"><ele>852.0</ele><time>2026-04-09T10:56:24Z</time></trkpt><trkpt lat="44.11221631029525" lon="11.285126990283281"><ele>852.0</ele><time>2026-04-09T10:56:25Z</time></trkpt><trkpt lat="44.11237043034206" lon="11.28515366646003"><ele>852.0</ele><time>2026-04-09T10:56:26Z</time></trkpt><trkpt lat="44.11250716595422" lon="11.285199513714202"><ele>852.0</ele><time>2026-04-09T10:56:27Z</time></trkpt><trkpt lat="44.11263934851554" lon="11.285302375114364"><ele>852.0</ele><time>2026-04-09T10:56:28Z</time></trkpt><trkpt lat="44.11280570146823" lon="11.285393376433696"><ele>851.6666666666667</ele><time>2026-04-09T10:56:29Z</time></trkpt><trkpt lat="44.112969830863" lon="11.28553347177948"><ele>851.3333333333334</ele><time>2026-04-09T10:56:30Z</time></trkpt><trkpt lat="44.1131412026724" lon="11.285632914847614"><ele>851.0</ele><time>2026-04-09T10:56:31Z</time></trkpt><trkpt lat="44.11331209331131" lon="11.285754515077876"><ele>851.0</ele><time>2026-04-09T10:56:32Z</time></trkpt><trkpt lat="44.113475757564295" lon="11.28586346012704"><ele>851.0</ele><time>2026-04-09T10:56:33Z</time></trkpt><trkpt lat="44.11361966059601" lon="11.285994436957964"><ele>851.0</ele><time>2026-04-09T10:56:34Z</time></trkpt><trkpt lat="44.11375759902214" lon="11.286089820018859"><ele>851.0</ele><time>2026-04-09T10:56:35Z</time></trkpt><trkpt lat="44.113893293841464" lon="11.286156496019414"><ele>851.0</ele><time>2026-04-09T10:56:36Z</time></trkpt><trkpt lat="44.1140192931044" lon="11.286236834380354"><ele>851.0</ele><time>2026-04-09T10:56:37Z</time></trkpt><trkpt lat="44.11415318416403" lon="11.286297526716506"><ele>851.0</ele><time>2026-04-09T10:56:38Z</time></trkpt><trkpt lat="44.11430840892275" lon="11.286351604754262"><ele>853.3333333333334</ele><time>2026-04-09T10:56:39Z</time></trkpt><trkpt lat="44.11448140358694" lon="11.286409204646207"><ele>855.6666666666667</ele><time>2026-04-09T10:56:40Z</time></trkpt><trkpt lat="44.1146597732942" lon="11.286439766669695"><ele>858.0</ele><time>2026-04-09T10:56:41Z</time></trkpt><trkpt lat="44.11481416217659" lon="11.286492847059053"><ele>859.3333333333333</ele><time>2026-04-09T10:56:41.999Z</time></trkpt><trkpt lat="44.11495263303672" lon="11.286569324939174"><ele>860.6666666666666</ele><time>2026-04-09T10:56:42.999Z</time></trkpt><trkpt lat="44.11507817880573" lon="11.286681711938709"><ele>862.0</ele><time>2026-04-09T10:56:43.999Z</time></trkpt><trkpt lat="44.115184485821835" lon="11.286850064839935"><ele>862.0</ele><time>2026-04-09T10:56:44.999Z</time></trkpt><trkpt lat="44.11528803880891" lon="11.287043820530867"><ele>862.0</ele><time>2026-04-09T10:56:45.999Z</time></trkpt><trkpt lat="44.11536960300107" lon="11.287270543588365"><ele>862.0</ele><time>2026-04-09T10:56:46.999Z</time></trkpt><trkpt lat="44.11543577523039" lon="11.287509429993255"><ele>860.25</ele><time>2026-04-09T10:56:47.999Z</time></trkpt><trkpt lat="44.11550585007865" lon="11.287722764933863"><ele>858.5</ele><time>2026-04-09T10:56:48.999Z</time></trkpt><trkpt lat="44.11555264535385" lon="11.287912662603862"><ele>856.75</ele><time>2026-04-09T10:56:49.999Z</time></trkpt><trkpt lat="44.11562515838572" lon="11.288074359549764"><ele>855.0</ele><time>2026-04-09T10:56:50.999Z</time></trkpt><trkpt lat="44.11571278834314" lon="11.288208361574148"><ele>856.75</ele><time>2026-04-09T10:56:51.999Z</time></trkpt><trkpt lat="44.11582855503614" lon="11.288316091176533"><ele>858.5</ele><time>2026-04-09T10:56:52.999Z</time></trkpt><trkpt lat="44.11596629029144" lon="11.28839578259984"><ele>860.25</ele><time>2026-04-09T10:56:53.999Z</time></trkpt><trkpt lat="44.11610137836778" lon="11.28843302749173"><ele>862.0</ele><time>2026-04-09T10:56:54.999Z</time></trkpt><trkpt lat="44.1162231837618" lon="11.28841933475224"><ele>862.0</ele><time>2026-04-09T10:56:55.999Z</time></trkpt><trkpt lat="44.116339944497916" lon="11.288343704884317"><ele>862.0</ele><time>2026-04-09T10:56:56.999Z</time></trkpt><trkpt lat="44.11643485004175" lon="11.288238969716692"><ele>862.0</ele><time>2026-04-09T10:56:57.999Z</time></trkpt><trkpt lat="44.11650728509192" lon="11.288095653642435"><ele>862.0</ele><time>2026-04-09T10:56:58.999Z</time></trkpt><trkpt lat="44.11656186304538" lon="11.287883886142707"><ele>863.0</ele><time>2026-04-09T10:56:59.999Z</time></trkpt><trkpt lat="44.11662475033437" lon="11.287651261035768"><ele>864.0</ele><time>2026-04-09T10:57:00.999Z</time></trkpt><trkpt lat="44.116703019306584" lon="11.287409428769564"><ele>865.0</ele><time>2026-04-09T10:57:01.999Z</time></trkpt><trkpt lat="44.11678172290497" lon="11.28719979025051"><ele>868.25</ele><time>2026-04-09T10:57:02.999Z</time></trkpt><trkpt lat="44.11684703180042" lon="11.287019318860185"><ele>871.5</ele><time>2026-04-09T10:57:03.999Z</time></trkpt><trkpt lat="44.116909609242036" lon="11.286859652870637"><ele>874.75</ele><time>2026-04-09T10:57:04.999Z</time></trkpt><trkpt lat="44.11699120992994" lon="11.286746698686862"><ele>878.0</ele><time>2026-04-09T10:57:05.999Z</time></trkpt><trkpt lat="44.11708657131649" lon="11.286676302559526"><ele>878.0</ele><time>2026-04-09T10:57:06.999Z</time></trkpt><trkpt lat="44.1171935271902" lon="11.28668759735057"><ele>878.0</ele><time>2026-04-09T10:57:07.999Z</time></trkpt><trkpt lat="44.11731290522062" lon="11.286718389295356"><ele>878.0</ele><time>2026-04-09T10:57:08.999Z</time></trkpt><trkpt lat="44.11742550760701" lon="11.286829719858144"><ele>878.0</ele><time>2026-04-09T10:57:09.999Z</time></trkpt><trkpt lat="44.1174800742561" lon="11.28699953380342"><ele>874.75</ele><time>2026-04-09T10:57:10.999Z</time></trkpt><trkpt lat="44.11751541431195" lon="11.2871685863964"><ele>871.5</ele><time>2026-04-09T10:57:11.999Z</time></trkpt><trkpt lat="44.11754637342557" lon="11.287379122156398"><ele>868.25</ele><time>2026-04-09T10:57:12.999Z</time></trkpt><trkpt lat="44.1175840767116" lon="11.28758837267625"><ele>865.0</ele><time>2026-04-09T10:57:13.999Z</time></trkpt><trkpt lat="44.11760067967023" lon="11.28778520104895"><ele>863.75</ele><time>2026-04-09T10:57:14.999Z</time></trkpt><trkpt lat="44.117633090232594" lon="11.287961782512049"><ele>862.5</ele><time>2026-04-09T10:57:15.999Z</time></trkpt><trkpt lat="44.1177008216629" lon="11.288140115495144"><ele>861.25</ele><time>2026-04-09T10:57:16.999Z</time></trkpt><trkpt lat="44.11778309135539" lon="11.288287492545924"><ele>860.0</ele><time>2026-04-09T10:57:17.999Z</time></trkpt><trkpt lat="44.11789483306668" lon="11.288419241962318"><ele>859.6666666666667</ele><time>2026-04-09T10:57:18.999Z</time></trkpt><trkpt lat="44.11803302056829" lon="11.288557969304733"><ele>859.3333333333333</ele><time>2026-04-09T10:57:19.999Z</time></trkpt><trkpt lat="44.11818040837016" lon="11.288681685582057"><ele>859.0</ele><time>2026-04-09T10:57:20.999Z</time></trkpt><trkpt lat="44.1183344941651" lon="11.288810217179481"><ele>862.3333333333333</ele><time>2026-04-09T10:57:21.999Z</time></trkpt><trkpt lat="44.11849571422857" lon="11.288946118235323"><ele>865.6666666666667</ele><time>2026-04-09T10:57:22.999Z</time></trkpt><trkpt lat="44.11864353334167" lon="11.289079960931788"><ele>869.0</ele><time>2026-04-09T10:57:23.999Z</time></trkpt><trkpt lat="44.118778322092105" lon="11.289186845509366"><ele>869.0</ele><time>2026-04-09T10:57:25Z</time></trkpt><trkpt lat="44.11889895940525" lon="11.289293738127729"><ele>869.0</ele><time>2026-04-09T10:57:26Z</time></trkpt><trkpt lat="44.11899449290546" lon="11.289393655230054"><ele>869.0</ele><time>2026-04-09T10:57:27Z</time></trkpt><trkpt lat="44.11908894497724" lon="11.28950111997205"><ele>869.0</ele><time>2026-04-09T10:57:28Z</time></trkpt><trkpt lat="44.11913545174387" lon="11.289662510115457"><ele>869.3333333333334</ele><time>2026-04-09T10:57:29Z</time></trkpt><trkpt lat="44.119161943485224" lon="11.28987586986403"><ele>869.6666666666667</ele><time>2026-04-09T10:57:30Z</time></trkpt><trkpt lat="44.11916731511089" lon="11.29013139978494"><ele>870.0</ele><time>2026-04-09T10:57:31Z</time></trkpt><trkpt lat="44.11918606411727" lon="11.290386161002859"><ele>868.0</ele><time>2026-04-09T10:57:32Z</time></trkpt><trkpt lat="44.119185443180086" lon="11.290682837869895"><ele>866.0</ele><time>2026-04-09T10:57:33Z</time></trkpt><trkpt lat="44.11918157940404" lon="11.290949582308698"><ele>864.0</ele><time>2026-04-09T10:57:34Z</time></trkpt><trkpt lat="44.11918517589914" lon="11.291184311953877"><ele>864.0</ele><time>2026-04-09T10:57:35Z</time></trkpt><trkpt lat="44.11918703012768" lon="11.291404038104998"><ele>864.0</ele><time>2026-04-09T10:57:36Z</time></trkpt><trkpt lat="44.11918829340172" lon="11.291615330141836"><ele>864.0</ele><time>2026-04-09T10:57:37Z</time></trkpt><trkpt lat="44.11920720522333" lon="11.291844713715019"><ele>863.3333333333333</ele><time>2026-04-09T10:57:38Z</time></trkpt><trkpt lat="44.11925434366353" lon="11.292063678906516"><ele>862.6666666666666</ele><time>2026-04-09T10:57:39Z</time></trkpt><trkpt lat="44.11931988986816" lon="11.292255283997099"><ele>862.0</ele><time>2026-04-09T10:57:40Z</time></trkpt><trkpt lat="44.119406193486384" lon="11.292433768370502"><ele>861.3333333333333</ele><time>2026-04-09T10:57:41Z</time></trkpt><trkpt lat="44.11951974307675" lon="11.292593621203132"><ele>860.6666666666667</ele><time>2026-04-09T10:57:42Z</time></trkpt><trkpt lat="44.119648430373736" lon="11.292736370062661"><ele>860.0</ele><time>2026-04-09T10:57:43Z</time></trkpt><trkpt lat="44.11977190078102" lon="11.292865516130384"><ele>860.0</ele><time>2026-04-09T10:57:44Z</time></trkpt><trkpt lat="44.119895762615165" lon="11.293034893685322"><ele>860.0</ele><time>2026-04-09T10:57:45Z</time></trkpt><trkpt lat="44.120047188907115" lon="11.293186936411207"><ele>860.0</ele><time>2026-04-09T10:57:46Z</time></trkpt><trkpt lat="44.120197181518485" lon="11.293364795564154"><ele>860.3333333333334</ele><time>2026-04-09T10:57:47Z</time></trkpt><trkpt lat="44.12035046192014" lon="11.293543103936265"><ele>860.6666666666667</ele><time>2026-04-09T10:57:48Z</time></trkpt><trkpt lat="44.1204823548176" lon="11.293707076042429"><ele>861.0</ele><time>2026-04-09T10:57:49Z</time></trkpt><trkpt lat="44.12058960719347" lon="11.293883291384887"><ele>858.6666666666667</ele><time>2026-04-09T10:57:50Z</time></trkpt><trkpt lat="44.1206959753635" lon="11.29407909235458"><ele>856.3333333333334</ele><time>2026-04-09T10:57:51Z</time></trkpt><trkpt lat="44.120777985234845" lon="11.294294670089368"><ele>854.0</ele><time>2026-04-09T10:57:52Z</time></trkpt><trkpt lat="44.12085849377489" lon="11.29452400451822"><ele>858.0</ele><time>2026-04-09T10:57:53Z</time></trkpt><trkpt lat="44.120948949279814" lon="11.294753512807482"><ele>862.0</ele><time>2026-04-09T10:57:54Z</time></trkpt><trkpt lat="44.121079503337555" lon="11.294962095839617"><ele>866.0</ele><time>2026-04-09T10:57:55Z</time></trkpt><trkpt lat="44.12120124309246" lon="11.295176114360764"><ele>866.0</ele><time>2026-04-09T10:57:56Z</time></trkpt><trkpt lat="44.121294084262146" lon="11.295370565591092"><ele>866.0</ele><time>2026-04-09T10:57:57Z</time></trkpt><trkpt lat="44.12139433652428" lon="11.295521236506497"><ele>866.0</ele><time>2026-04-09T10:57:58Z</time></trkpt><trkpt lat="44.12146640600207" lon="11.29564233721941"><ele>866.0</ele><time>2026-04-09T10:57:59Z</time></trkpt><trkpt lat="44.12158017177589" lon="11.295746162873526"><ele>871.0</ele><time>2026-04-09T10:58:00Z</time></trkpt><trkpt lat="44.121716264954294" lon="11.295830147156806"><ele>876.0</ele><time>2026-04-09T10:58:01Z</time></trkpt><trkpt lat="44.121824994717024" lon="11.295906587039385"><ele>881.0</ele><time>2026-04-09T10:58:02Z</time></trkpt><trkpt lat="44.12191760433175" lon="11.296011722704348"><ele>886.0</ele><time>2026-04-09T10:58:03Z</time></trkpt><trkpt lat="44.121987762442664" lon="11.296178047093171"><ele>886.0</ele><time>2026-04-09T10:58:04Z</time></trkpt><trkpt lat="44.12202815814572" lon="11.296361185463306"><ele>886.0</ele><time>2026-04-09T10:58:05Z</time></trkpt><trkpt lat="44.122008718635456" lon="11.296563154601806"><ele>886.0</ele><time>2026-04-09T10:58:06Z</time></trkpt><trkpt lat="44.12199660432254" lon="11.296785963697532"><ele>886.0</ele><time>2026-04-09T10:58:07Z</time></trkpt><trkpt lat="44.12198402248725" lon="11.29704229466846"><ele>886.0</ele><time>2026-04-09T10:58:08Z</time></trkpt><trkpt lat="44.121970566559725" lon="11.297342189669758"><ele>886.0</ele><time>2026-04-09T10:58:09Z</time></trkpt><trkpt lat="44.12195856819491" lon="11.29760315402156"><ele>886.0</ele><time>2026-04-09T10:58:10Z</time></trkpt><trkpt lat="44.12195009227419" lon="11.297829835298288"><ele>886.0</ele><time>2026-04-09T10:58:11Z</time></trkpt><trkpt lat="44.12194230948999" lon="11.29805809144932"><ele>886.0</ele><time>2026-04-09T10:58:12Z</time></trkpt><trkpt lat="44.12195243455091" lon="11.29829872930724"><ele>886.0</ele><time>2026-04-09T10:58:13Z</time></trkpt><trkpt lat="44.121982335561725" lon="11.298509126572775"><ele>885.6666666666666</ele><time>2026-04-09T10:58:14Z</time></trkpt><trkpt lat="44.122051861044234" lon="11.298706152311947"><ele>885.3333333333333</ele><time>2026-04-09T10:58:15Z</time></trkpt><trkpt lat="44.12212889719772" lon="11.298923617846581"><ele>885.0</ele><time>2026-04-09T10:58:16Z</time></trkpt><trkpt lat="44.12220498640179" lon="11.29915876504403"><ele>884.3333333333333</ele><time>2026-04-09T10:58:17Z</time></trkpt><trkpt lat="44.12230853458538" lon="11.299407964033637"><ele>883.6666666666666</ele><time>2026-04-09T10:58:18Z</time></trkpt><trkpt lat="44.12241661567119" lon="11.299671431137938"><ele>883.0</ele><time>2026-04-09T10:58:19Z</time></trkpt><trkpt lat="44.12252556180887" lon="11.29989389458835"><ele>888.3333333333333</ele><time>2026-04-09T10:58:20Z</time></trkpt><trkpt lat="44.122612723854054" lon="11.300104129355171"><ele>893.6666666666667</ele><time>2026-04-09T10:58:21Z</time></trkpt><trkpt lat="44.12269296735197" lon="11.300301183804496"><ele>899.0</ele><time>2026-04-09T10:58:22Z</time></trkpt><trkpt lat="44.12277657270749" lon="11.300454292221646"><ele>899.0</ele><time>2026-04-09T10:58:23Z</time></trkpt><trkpt lat="44.12287178674612" lon="11.30057158327622"><ele>899.0</ele><time>2026-04-09T10:58:24Z</time></trkpt><trkpt lat="44.12299247136728" lon="11.300679586688709"><ele>899.0</ele><time>2026-04-09T10:58:25Z</time></trkpt><trkpt lat="44.123155798846945" lon="11.300743473531517"><ele>899.0</ele><time>2026-04-09T10:58:26Z</time></trkpt><trkpt lat="44.123342780258454" lon="11.300771851007545"><ele>904.0</ele><time>2026-04-09T10:58:27Z</time></trkpt><trkpt lat="44.123542173309275" lon="11.300808298340957"><ele>909.0</ele><time>2026-04-09T10:58:28Z</time></trkpt><trkpt lat="44.12371439049709" lon="11.300838311108247"><ele>914.0</ele><time>2026-04-09T10:58:29Z</time></trkpt><trkpt lat="44.12386295451806" lon="11.300859339119194"><ele>914.0</ele><time>2026-04-09T10:58:30Z</time></trkpt><trkpt lat="44.12400420642283" lon="11.300847629091205"><ele>914.0</ele><time>2026-04-09T10:58:31Z</time></trkpt><trkpt lat="44.124167846015794" lon="11.300784161798875"><ele>914.0</ele><time>2026-04-09T10:58:32Z</time></trkpt><trkpt lat="44.124339392126366" lon="11.300721613012175"><ele>913.6666666666667</ele><time>2026-04-09T10:58:33Z</time></trkpt><trkpt lat="44.124514394195494" lon="11.300648389108929"><ele>913.3333333333333</ele><time>2026-04-09T10:58:34Z</time></trkpt><trkpt lat="44.12470594712993" lon="11.300595056879624"><ele>913.0</ele><time>2026-04-09T10:58:35Z</time></trkpt><trkpt lat="44.12490811168681" lon="11.300589102765494"><ele>912.6666666666666</ele><time>2026-04-09T10:58:36Z</time></trkpt><trkpt lat="44.125130698157" lon="11.300615944694474"><ele>912.3333333333333</ele><time>2026-04-09T10:58:37Z</time></trkpt><trkpt lat="44.125349769737184" lon="11.300642407131852"><ele>912.0</ele><time>2026-04-09T10:58:38Z</time></trkpt><trkpt lat="44.12558519023007" lon="11.300668734172165"><ele>914.6666666666667</ele><time>2026-04-09T10:58:39Z</time></trkpt><trkpt lat="44.1258229308632" lon="11.3006979518803"><ele>917.3333333333334</ele><time>2026-04-09T10:58:40Z</time></trkpt><trkpt lat="44.12573340557287" lon="11.300684643190856"><ele>920.0</ele><time>2026-04-09T10:58:41Z</time></trkpt><trkpt lat="44.125933038554514" lon="11.300710073955067"><ele>920.0</ele><time>2026-04-09T10:58:42Z</time></trkpt><trkpt lat="44.12610794122843" lon="11.300734209135625"><ele>920.0</ele><time>2026-04-09T10:58:43Z</time></trkpt><trkpt lat="44.126270932704394" lon="11.300763945525809"><ele>920.0</ele><time>2026-04-09T10:58:44Z</time></trkpt><trkpt lat="44.1264374533615" lon="11.300821627340154"><ele>924.0</ele><time>2026-04-09T10:58:45Z</time></trkpt><trkpt lat="44.126592183862286" lon="11.300952390679983"><ele>928.0</ele><time>2026-04-09T10:58:46Z</time></trkpt><trkpt lat="44.126755487149815" lon="11.301083904072623"><ele>932.0</ele><time>2026-04-09T10:58:47Z</time></trkpt><trkpt lat="44.12689519392462" lon="11.301201113705833"><ele>932.0</ele><time>2026-04-09T10:58:47.999Z</time></trkpt><trkpt lat="44.12702101328263" lon="11.301338696308735"><ele>932.0</ele><time>2026-04-09T10:58:48.999Z</time></trkpt><trkpt lat="44.127153402920854" lon="11.301488893488841"><ele>932.0</ele><time>2026-04-09T10:58:49.999Z</time></trkpt><trkpt lat="44.12729555938086" lon="11.301652364325937"><ele>931.3333333333334</ele><time>2026-04-09T10:58:50.999Z</time></trkpt><trkpt lat="44.12744914134843" lon="11.30180414079953"><ele>930.6666666666667</ele><time>2026-04-09T10:58:51.999Z</time></trkpt><trkpt lat="44.127580266615965" lon="11.301950903726672"><ele>930.0</ele><time>2026-04-09T10:58:52.999Z</time></trkpt><trkpt lat="44.127709112613765" lon="11.302074189216562"><ele>930.0</ele><time>2026-04-09T10:58:53.999Z</time></trkpt><trkpt lat="44.12783761265139" lon="11.302172704447294"><ele>930.0</ele><time>2026-04-09T10:58:54.999Z</time></trkpt><trkpt lat="44.127975017704536" lon="11.302256349065466"><ele>930.0</ele><time>2026-04-09T10:58:55.999Z</time></trkpt><trkpt lat="44.12813938967567" lon="11.302346979599918"><ele>928.3333333333333</ele><time>2026-04-09T10:58:56.999Z</time></trkpt><trkpt lat="44.12829875328652" lon="11.30243277375287"><ele>926.6666666666666</ele><time>2026-04-09T10:58:57.999Z</time></trkpt><trkpt lat="44.12844993027274" lon="11.302520327250823"><ele>925.0</ele><time>2026-04-09T10:58:58.999Z</time></trkpt><trkpt lat="44.128600238772336" lon="11.302622249704303"><ele>925.0</ele><time>2026-04-09T10:58:59.999Z</time></trkpt><trkpt lat="44.12872658135139" lon="11.302785188696408"><ele>925.0</ele><time>2026-04-09T10:59:00.999Z</time></trkpt><trkpt lat="44.12884699323347" lon="11.302955014193213"><ele>925.0</ele><time>2026-04-09T10:59:01.999Z</time></trkpt><trkpt lat="44.12890850318959" lon="11.303130224341214"><ele>923.25</ele><time>2026-04-09T10:59:02.999Z</time></trkpt><trkpt lat="44.12895824209754" lon="11.303330691945774"><ele>921.5</ele><time>2026-04-09T10:59:03.999Z</time></trkpt><trkpt lat="44.129007169058255" lon="11.303482977033045"><ele>919.75</ele><time>2026-04-09T10:59:04.999Z</time></trkpt><trkpt lat="44.129063024298276" lon="11.303592840423436"><ele>918.0</ele><time>2026-04-09T10:59:05.999Z</time></trkpt><trkpt lat="44.12913207721837" lon="11.303681325118397"><ele>918.0</ele><time>2026-04-09T10:59:06.999Z</time></trkpt><trkpt lat="44.12922645862253" lon="11.303723083336159"><ele>918.0</ele><time>2026-04-09T10:59:07.999Z</time></trkpt><trkpt lat="44.12932870043194" lon="11.303726636143754"><ele>918.0</ele><time>2026-04-09T10:59:08.999Z</time></trkpt><trkpt lat="44.12944153186744" lon="11.303693812592046"><ele>918.0</ele><time>2026-04-09T10:59:09.999Z</time></trkpt><trkpt lat="44.129574159489664" lon="11.303712448091407"><ele>918.0</ele><time>2026-04-09T10:59:10.999Z</time></trkpt><trkpt lat="44.129723441537145" lon="11.303771093205283"><ele>918.0</ele><time>2026-04-09T10:59:11.999Z</time></trkpt><trkpt lat="44.129887918384846" lon="11.303853406161082"><ele>918.0</ele><time>2026-04-09T10:59:12.999Z</time></trkpt><trkpt lat="44.13005938307754" lon="11.303940576162015"><ele>910.6666666666667</ele><time>2026-04-09T10:59:13.999Z</time></trkpt><trkpt lat="44.130233194971076" lon="11.304021761732985"><ele>903.3333333333334</ele><time>2026-04-09T10:59:14.999Z</time></trkpt><trkpt lat="44.130406462465935" lon="11.304116681505727"><ele>896.0</ele><time>2026-04-09T10:59:15.999Z</time></trkpt><trkpt lat="44.13060114079994" lon="11.304177673093708"><ele>898.0</ele><time>2026-04-09T10:59:16.999Z</time></trkpt><trkpt lat="44.13078903015836" lon="11.304226190504805"><ele>900.0</ele><time>2026-04-09T10:59:17.999Z</time></trkpt><trkpt lat="44.130960404785306" lon="11.304273038021412"><ele>902.0</ele><time>2026-04-09T10:59:18.999Z</time></trkpt><trkpt lat="44.131126490224986" lon="11.304319388924805"><ele>902.0</ele><time>2026-04-09T10:59:19.999Z</time></trkpt><trkpt lat="44.131287580952076" lon="11.30436838773688"><ele>902.0</ele><time>2026-04-09T10:59:20.999Z</time></trkpt><trkpt lat="44.131434740433996" lon="11.304429956962483"><ele>902.0</ele><time>2026-04-09T10:59:21.999Z</time></trkpt><trkpt lat="44.131572954693254" lon="11.304507039605175"><ele>904.6666666666667</ele><time>2026-04-09T10:59:22.999Z</time></trkpt><trkpt lat="44.131693183352596" lon="11.304629152713245"><ele>907.3333333333333</ele><time>2026-04-09T10:59:23.999Z</time></trkpt><trkpt lat="44.13183861362571" lon="11.30474101504261"><ele>910.0</ele><time>2026-04-09T10:59:24.999Z</time></trkpt><trkpt lat="44.13196877915691" lon="11.304867348245633"><ele>906.25</ele><time>2026-04-09T10:59:25.999Z</time></trkpt><trkpt lat="44.13209922975281" lon="11.304968725304452"><ele>902.5</ele><time>2026-04-09T10:59:26.999Z</time></trkpt><trkpt lat="44.13222163839779" lon="11.305048197639536"><ele>898.75</ele><time>2026-04-09T10:59:27.999Z</time></trkpt><trkpt lat="44.13234402197325" lon="11.305093505501766"><ele>895.0</ele><time>2026-04-09T10:59:28.999Z</time></trkpt><trkpt lat="44.13247406805365" lon="11.305113807801881"><ele>895.0</ele><time>2026-04-09T10:59:29.999Z</time></trkpt><trkpt lat="44.1326214263475" lon="11.305098463545926"><ele>895.0</ele><time>2026-04-09T10:59:31Z</time></trkpt><trkpt lat="44.13278157238728" lon="11.30507869043857"><ele>895.0</ele><time>2026-04-09T10:59:32Z</time></trkpt><trkpt lat="44.13295071916362" lon="11.305033386037524"><ele>895.0</ele><time>2026-04-09T10:59:33Z</time></trkpt><trkpt lat="44.13309490181906" lon="11.304994134791528"><ele>895.0</ele><time>2026-04-09T10:59:34Z</time></trkpt><trkpt lat="44.13323275521752" lon="11.304935352044401"><ele>895.0</ele><time>2026-04-09T10:59:35Z</time></trkpt><trkpt lat="44.133367495453406" lon="11.30486658725118"><ele>895.0</ele><time>2026-04-09T10:59:36Z</time></trkpt><trkpt lat="44.13347167236934" lon="11.304773492194071"><ele>893.6</ele><time>2026-04-09T10:59:37Z</time></trkpt><trkpt lat="44.1335641465449" lon="11.304698785260955"><ele>892.2</ele><time>2026-04-09T10:59:38Z</time></trkpt><trkpt lat="44.13364691448778" lon="11.304683010269894"><ele>890.8</ele><time>2026-04-09T10:59:39Z</time></trkpt><trkpt lat="44.13372916598129" lon="11.3047357240127"><ele>889.4</ele><time>2026-04-09T10:59:40Z</time></trkpt><trkpt lat="44.133784298376305" lon="11.304867480080722"><ele>888.0</ele><time>2026-04-09T10:59:41Z</time></trkpt><trkpt lat="44.133852972172804" lon="11.30501186779082"><ele>888.0</ele><time>2026-04-09T10:59:42Z</time></trkpt><trkpt lat="44.13384232422923" lon="11.30520161917064"><ele>888.0</ele><time>2026-04-09T10:59:43Z</time></trkpt><trkpt lat="44.13385994060907" lon="11.30534751188615"><ele>888.0</ele><time>2026-04-09T10:59:44Z</time></trkpt><trkpt lat="44.13390917195223" lon="11.305469848838635"><ele>888.0</ele><time>2026-04-09T10:59:45Z</time></trkpt><trkpt lat="44.13398361407368" lon="11.305591286361656"><ele>883.75</ele><time>2026-04-09T10:59:46Z</time></trkpt><trkpt lat="44.134103245136494" lon="11.305701805517378"><ele>879.5</ele><time>2026-04-09T10:59:47Z</time></trkpt><trkpt lat="44.13422415262933" lon="11.305811751468738"><ele>875.25</ele><time>2026-04-09T10:59:48Z</time></trkpt><trkpt lat="44.134315899466046" lon="11.305935004974279"><ele>871.0</ele><time>2026-04-09T10:59:49Z</time></trkpt><trkpt lat="44.13443579374532" lon="11.305991598310227"><ele>871.0</ele><time>2026-04-09T10:59:50Z</time></trkpt><trkpt lat="44.134546752897315" lon="11.306036435263346"><ele>870.9999999999999</ele><time>2026-04-09T10:59:51Z</time></trkpt><trkpt lat="44.13465907311248" lon="11.306066797294275"><ele>870.9999999999999</ele><time>2026-04-09T10:59:52Z</time></trkpt><trkpt lat="44.13475939032917" lon="11.306099477039941"><ele>871.0</ele><time>2026-04-09T10:59:53Z</time></trkpt><trkpt lat="44.13486091548057" lon="11.306117536937611"><ele>871.0</ele><time>2026-04-09T10:59:54Z</time></trkpt><trkpt lat="44.1349600521257" lon="11.306133143865585"><ele>874.0</ele><time>2026-04-09T10:59:55Z</time></trkpt><trkpt lat="44.1350592107783" lon="11.306156178734852"><ele>877.0</ele><time>2026-04-09T10:59:56Z</time></trkpt><trkpt lat="44.13517239462694" lon="11.306190631404352"><ele>880.0</ele><time>2026-04-09T10:59:57Z</time></trkpt><trkpt lat="44.13529631343194" lon="11.306223250389861"><ele>883.0</ele><time>2026-04-09T10:59:58Z</time></trkpt><trkpt lat="44.1354072077252" lon="11.306242099355588"><ele>883.0</ele><time>2026-04-09T10:59:59Z</time></trkpt><trkpt lat="44.13551514440489" lon="11.306269278357675"><ele>883.0</ele><time>2026-04-09T11:00:00Z</time></trkpt><trkpt lat="44.13562908985744" lon="11.306316999740941"><ele>883.0</ele><time>2026-04-09T11:00:01Z</time></trkpt><trkpt lat="44.13574447538077" lon="11.306391688099033"><ele>883.0</ele><time>2026-04-09T11:00:02Z</time></trkpt><trkpt lat="44.13583687356342" lon="11.306531361965968"><ele>878.0</ele><time>2026-04-09T11:00:03Z</time></trkpt><trkpt lat="44.13592215698076" lon="11.306660285679094"><ele>873.0</ele><time>2026-04-09T11:00:04Z</time></trkpt><trkpt lat="44.136012317678706" lon="11.306780069162954"><ele>868.0</ele><time>2026-04-09T11:00:05Z</time></trkpt><trkpt lat="44.13609390522555" lon="11.306934544314556"><ele>863.0</ele><time>2026-04-09T11:00:06Z</time></trkpt><trkpt lat="44.13616030384256" lon="11.307115962004582"><ele>861.25</ele><time>2026-04-09T11:00:07Z</time></trkpt><trkpt lat="44.13619119714916" lon="11.30730676847414"><ele>859.5</ele><time>2026-04-09T11:00:08Z</time></trkpt><trkpt lat="44.13623744599988" lon="11.307462535035649"><ele>857.75</ele><time>2026-04-09T11:00:09Z</time></trkpt><trkpt lat="44.13627549931765" lon="11.307607519621326"><ele>856.0</ele><time>2026-04-09T11:00:10Z</time></trkpt><trkpt lat="44.136335633457854" lon="11.307736565053204"><ele>856.0</ele><time>2026-04-09T11:00:11Z</time></trkpt><trkpt lat="44.1364000754346" lon="11.307877869795467"><ele>855.9999999999999</ele><time>2026-04-09T11:00:12Z</time></trkpt><trkpt lat="44.13645445734366" lon="11.308001032169425"><ele>855.9999999999999</ele><time>2026-04-09T11:00:13Z</time></trkpt><trkpt lat="44.136511761906576" lon="11.308111226100767"><ele>856.0</ele><time>2026-04-09T11:00:14Z</time></trkpt><trkpt lat="44.13656693749098" lon="11.308211692452927"><ele>856.0</ele><time>2026-04-09T11:00:15Z</time></trkpt><trkpt lat="44.136629771587344" lon="11.308306264960828"><ele>856.75</ele><time>2026-04-09T11:00:16Z</time></trkpt><trkpt lat="44.13669052495731" lon="11.308423190483046"><ele>857.5</ele><time>2026-04-09T11:00:17Z</time></trkpt><trkpt lat="44.13681580813118" lon="11.308485880827831"><ele>858.25</ele><time>2026-04-09T11:00:18Z</time></trkpt><trkpt lat="44.13695434451256" lon="11.308584975386898"><ele>859.0</ele><time>2026-04-09T11:00:19Z</time></trkpt><trkpt lat="44.137100691654545" lon="11.30868399284544"><ele>859.0</ele><time>2026-04-09T11:00:20Z</time></trkpt><trkpt lat="44.137248175399094" lon="11.308779754908603"><ele>859.0</ele><time>2026-04-09T11:00:21Z</time></trkpt><trkpt lat="44.1373733688021" lon="11.308869742564404"><ele>859.0</ele><time>2026-04-09T11:00:22Z</time></trkpt><trkpt lat="44.13748801068021" lon="11.308949446177108"><ele>859.0</ele><time>2026-04-09T11:00:23Z</time></trkpt><trkpt lat="44.13759300052047" lon="11.30903308237972"><ele>858.0</ele><time>2026-04-09T11:00:24Z</time></trkpt><trkpt lat="44.13770520769395" lon="11.309109380796366"><ele>857.0</ele><time>2026-04-09T11:00:25Z</time></trkpt><trkpt lat="44.13779367469304" lon="11.30920684158268"><ele>856.0</ele><time>2026-04-09T11:00:26Z</time></trkpt><trkpt lat="44.13783141847709" lon="11.309350699091832"><ele>855.0</ele><time>2026-04-09T11:00:27Z</time></trkpt><trkpt lat="44.137865451636905" lon="11.309514738908058"><ele>855.0</ele><time>2026-04-09T11:00:28Z</time></trkpt><trkpt lat="44.13791712725618" lon="11.309705788666681"><ele>855.0</ele><time>2026-04-09T11:00:29Z</time></trkpt><trkpt lat="44.13795676412585" lon="11.309924810903688"><ele>855.0</ele><time>2026-04-09T11:00:30Z</time></trkpt><trkpt lat="44.137994149170126" lon="11.310115603253914"><ele>854.0</ele><time>2026-04-09T11:00:31Z</time></trkpt><trkpt lat="44.13803700483332" lon="11.31028763970639"><ele>853.0</ele><time>2026-04-09T11:00:32Z</time></trkpt><trkpt lat="44.13809153089951" lon="11.310464445594384"><ele>852.0</ele><time>2026-04-09T11:00:33Z</time></trkpt><trkpt lat="44.1381507102079" lon="11.310648213334929"><ele>851.0</ele><time>2026-04-09T11:00:34Z</time></trkpt><trkpt lat="44.13820488829799" lon="11.31081316861061"><ele>851.0</ele><time>2026-04-09T11:00:35Z</time></trkpt><trkpt lat="44.138250605514614" lon="11.310962553492832"><ele>851.0</ele><time>2026-04-09T11:00:36Z</time></trkpt><trkpt lat="44.138293373224066" lon="11.311101794915148"><ele>851.0</ele><time>2026-04-09T11:00:37Z</time></trkpt><trkpt lat="44.13831622988795" lon="11.311260116064648"><ele>851.0</ele><time>2026-04-09T11:00:38Z</time></trkpt><trkpt lat="44.138301440285225" lon="11.311420438829138"><ele>851.0</ele><time>2026-04-09T11:00:39Z</time></trkpt><trkpt lat="44.13825402959972" lon="11.31159516732768"><ele>851.0</ele><time>2026-04-09T11:00:40Z</time></trkpt><trkpt lat="44.13819742116373" lon="11.311775255303573"><ele>851.0</ele><time>2026-04-09T11:00:41Z</time></trkpt><trkpt lat="44.138158129136855" lon="11.311934741144368"><ele>851.0</ele><time>2026-04-09T11:00:42Z</time></trkpt><trkpt lat="44.138139793473385" lon="11.3120836198514"><ele>850.5</ele><time>2026-04-09T11:00:43Z</time></trkpt><trkpt lat="44.13815008710094" lon="11.312224245242144"><ele>850.0</ele><time>2026-04-09T11:00:44Z</time></trkpt><trkpt lat="44.138199021671596" lon="11.312362830562833"><ele>849.5</ele><time>2026-04-09T11:00:45Z</time></trkpt><trkpt lat="44.13830005167093" lon="11.312520188250197"><ele>849.0</ele><time>2026-04-09T11:00:46Z</time></trkpt><trkpt lat="44.13839441895034" lon="11.312648893228529"><ele>846.75</ele><time>2026-04-09T11:00:47Z</time></trkpt><trkpt lat="44.13846573014466" lon="11.312775624746502"><ele>844.5</ele><time>2026-04-09T11:00:48Z</time></trkpt><trkpt lat="44.13848308865554" lon="11.312933032730744"><ele>842.25</ele><time>2026-04-09T11:00:49Z</time></trkpt><trkpt lat="44.13846366854667" lon="11.313113545140473"><ele>840.0</ele><time>2026-04-09T11:00:50Z</time></trkpt><trkpt lat="44.1384381015852" lon="11.31331026224004"><ele>838.6666666666667</ele><time>2026-04-09T11:00:51Z</time></trkpt><trkpt lat="44.138420581455094" lon="11.31354662964675"><ele>837.3333333333334</ele><time>2026-04-09T11:00:52Z</time></trkpt><trkpt lat="44.13838494536324" lon="11.313793086847323"><ele>836.0</ele><time>2026-04-09T11:00:53Z</time></trkpt><trkpt lat="44.13835623534563" lon="11.314026253511893"><ele>836.0</ele><time>2026-04-09T11:00:54Z</time></trkpt><trkpt lat="44.13833040713303" lon="11.31424143982476"><ele>836.0</ele><time>2026-04-09T11:00:55Z</time></trkpt><trkpt lat="44.13833230685935" lon="11.314478772677"><ele>836.0</ele><time>2026-04-09T11:00:55.999Z</time></trkpt><trkpt lat="44.13834390653594" lon="11.314716302295011"><ele>836.3333333333334</ele><time>2026-04-09T11:00:56.999Z</time></trkpt><trkpt lat="44.13836127662606" lon="11.314962785016597"><ele>836.6666666666667</ele><time>2026-04-09T11:00:57.999Z</time></trkpt><trkpt lat="44.138372414573816" lon="11.315229624437722"><ele>837.0</ele><time>2026-04-09T11:00:58.999Z</time></trkpt><trkpt lat="44.13838823754913" lon="11.315504152607389"><ele>836.0</ele><time>2026-04-09T11:00:59.999Z</time></trkpt><trkpt lat="44.13840578952519" lon="11.315753600012783"><ele>835.0</ele><time>2026-04-09T11:01:00.999Z</time></trkpt><trkpt lat="44.13842892154343" lon="11.315985381969316"><ele>834.0</ele><time>2026-04-09T11:01:01.999Z</time></trkpt><trkpt lat="44.138453666650534" lon="11.316208546277865"><ele>833.3333333333333</ele><time>2026-04-09T11:01:02.999Z</time></trkpt><trkpt lat="44.138488773730515" lon="11.316423342500295"><ele>832.6666666666666</ele><time>2026-04-09T11:01:03.999Z</time></trkpt><trkpt lat="44.138546114458535" lon="11.316658936094825"><ele>832.0</ele><time>2026-04-09T11:01:04.999Z</time></trkpt><trkpt lat="44.13861626300679" lon="11.316912328397136"><ele>832.0</ele><time>2026-04-09T11:01:05.999Z</time></trkpt><trkpt lat="44.13868959715288" lon="11.317145894130329"><ele>832.0</ele><time>2026-04-09T11:01:06.999Z</time></trkpt><trkpt lat="44.138749183970255" lon="11.3173454265334"><ele>832.0</ele><time>2026-04-09T11:01:07.999Z</time></trkpt><trkpt lat="44.13880305554953" lon="11.31753807638094"><ele>829.5</ele><time>2026-04-09T11:01:08.999Z</time></trkpt><trkpt lat="44.13883742452945" lon="11.317731516855215"><ele>827.0</ele><time>2026-04-09T11:01:09.999Z</time></trkpt><trkpt lat="44.13882158569264" lon="11.317929572423353"><ele>824.5</ele><time>2026-04-09T11:01:10.999Z</time></trkpt><trkpt lat="44.13880132106153" lon="11.318150481974186"><ele>822.0</ele><time>2026-04-09T11:01:11.999Z</time></trkpt><trkpt lat="44.13878656091422" lon="11.318391143175623"><ele>820.6666666666667</ele><time>2026-04-09T11:01:12.999Z</time></trkpt><trkpt lat="44.138798330741984" lon="11.318649435430174"><ele>819.3333333333334</ele><time>2026-04-09T11:01:13.999Z</time></trkpt><trkpt lat="44.13879201674436" lon="11.318866131078211"><ele>818.0</ele><time>2026-04-09T11:01:14.999Z</time></trkpt><trkpt lat="44.138785140597165" lon="11.31909163717675"><ele>818.0</ele><time>2026-04-09T11:01:15.999Z</time></trkpt><trkpt lat="44.13876979517997" lon="11.319330861079072"><ele>818.0</ele><time>2026-04-09T11:01:16.999Z</time></trkpt><trkpt lat="44.13875054902799" lon="11.31953713852561"><ele>818.0</ele><time>2026-04-09T11:01:17.999Z</time></trkpt><trkpt lat="44.13872910166489" lon="11.319724123086326"><ele>819.0</ele><time>2026-04-09T11:01:18.999Z</time></trkpt><trkpt lat="44.13870944851449" lon="11.319892919960909"><ele>820.0</ele><time>2026-04-09T11:01:19.999Z</time></trkpt><trkpt lat="44.138695001657965" lon="11.320047190929527"><ele>821.0</ele><time>2026-04-09T11:01:20.999Z</time></trkpt><trkpt lat="44.13868275273691" lon="11.320188917608563"><ele>822.0</ele><time>2026-04-09T11:01:21.999Z</time></trkpt><trkpt lat="44.138708169200186" lon="11.32032681320215"><ele>823.0</ele><time>2026-04-09T11:01:22.999Z</time></trkpt><trkpt lat="44.13879270455583" lon="11.320461330253272"><ele>823.0</ele><time>2026-04-09T11:01:23.999Z</time></trkpt><trkpt lat="44.13891514681603" lon="11.320558349644703"><ele>823.0</ele><time>2026-04-09T11:01:24.999Z</time></trkpt><trkpt lat="44.13905918765524" lon="11.320639131383954"><ele>823.0</ele><time>2026-04-09T11:01:25.999Z</time></trkpt><trkpt lat="44.13921236294041" lon="11.320765313081036"><ele>825.3333333333333</ele><time>2026-04-09T11:01:26.999Z</time></trkpt><trkpt lat="44.13932833355513" lon="11.32092606534085"><ele>827.6666666666667</ele><time>2026-04-09T11:01:27.999Z</time></trkpt><trkpt lat="44.13944573912027" lon="11.321085448512385"><ele>830.0</ele><time>2026-04-09T11:01:28.999Z</time></trkpt><trkpt lat="44.139570066325575" lon="11.321255164963143"><ele>830.0</ele><time>2026-04-09T11:01:29.999Z</time></trkpt><trkpt lat="44.13968822623396" lon="11.321397507657256"><ele>830.0</ele><time>2026-04-09T11:01:30.999Z</time></trkpt><trkpt lat="44.13979328472986" lon="11.321534915326966"><ele>830.0</ele><time>2026-04-09T11:01:31.999Z</time></trkpt><trkpt lat="44.13990632358825" lon="11.321638701676656"><ele>830.0</ele><time>2026-04-09T11:01:32.999Z</time></trkpt><trkpt lat="44.140044649180275" lon="11.321711633182344"><ele>832.0</ele><time>2026-04-09T11:01:33.999Z</time></trkpt><trkpt lat="44.14019024008506" lon="11.321749645387124"><ele>834.0</ele><time>2026-04-09T11:01:34.999Z</time></trkpt><trkpt lat="44.14031841867664" lon="11.321764643420854"><ele>836.0</ele><time>2026-04-09T11:01:35.999Z</time></trkpt><trkpt lat="44.140443129350245" lon="11.32178242824491"><ele>838.0</ele><time>2026-04-09T11:01:37Z</time></trkpt><trkpt lat="44.14055531282837" lon="11.321828034469233"><ele>838.0</ele><time>2026-04-09T11:01:38Z</time></trkpt><trkpt lat="44.14061864322376" lon="11.321944168414833"><ele>838.0</ele><time>2026-04-09T11:01:39Z</time></trkpt><trkpt lat="44.14064772124767" lon="11.322094879916362"><ele>838.0</ele><time>2026-04-09T11:01:40Z</time></trkpt><trkpt lat="44.140711967398765" lon="11.322269886671059"><ele>838.0</ele><time>2026-04-09T11:01:41Z</time></trkpt><trkpt lat="44.14078363054486" lon="11.322465098873074"><ele>839.0</ele><time>2026-04-09T11:01:42Z</time></trkpt><trkpt lat="44.14086970877805" lon="11.322699577225514"><ele>840.0</ele><time>2026-04-09T11:01:43Z</time></trkpt><trkpt lat="44.14096706599693" lon="11.322960026977873"><ele>841.0</ele><time>2026-04-09T11:01:44Z</time></trkpt><trkpt lat="44.14106259022991" lon="11.323212339001671"><ele>841.0</ele><time>2026-04-09T11:01:45Z</time></trkpt><trkpt lat="44.14114315388694" lon="11.323420213240272"><ele>841.0</ele><time>2026-04-09T11:01:46Z</time></trkpt><trkpt lat="44.14120691838654" lon="11.32360836633368"><ele>841.0</ele><time>2026-04-09T11:01:47Z</time></trkpt><trkpt lat="44.14122773607544" lon="11.323795774329852"><ele>841.0</ele><time>2026-04-09T11:01:48Z</time></trkpt><trkpt lat="44.14123096698434" lon="11.324000866724635"><ele>841.0</ele><time>2026-04-09T11:01:49Z</time></trkpt><trkpt lat="44.14121980071247" lon="11.324230851605936"><ele>841.0</ele><time>2026-04-09T11:01:50Z</time></trkpt><trkpt lat="44.141192207236095" lon="11.324475988318735"><ele>842.0</ele><time>2026-04-09T11:01:51Z</time></trkpt><trkpt lat="44.141146618147594" lon="11.324737046971919"><ele>843.0</ele><time>2026-04-09T11:01:52Z</time></trkpt><trkpt lat="44.141093944408" lon="11.324983903522128"><ele>844.0</ele><time>2026-04-09T11:01:53Z</time></trkpt><trkpt lat="44.14106160075667" lon="11.325160204864071"><ele>844.0</ele><time>2026-04-09T11:01:54Z</time></trkpt><trkpt lat="44.141021675133835" lon="11.325311990706384"><ele>844.0</ele><time>2026-04-09T11:01:55Z</time></trkpt><trkpt lat="44.1410141062912" lon="11.325456934961723"><ele>844.0</ele><time>2026-04-09T11:01:56Z</time></trkpt><trkpt lat="44.14103520365461" lon="11.325621427035493"><ele>844.0</ele><time>2026-04-09T11:01:57Z</time></trkpt><trkpt lat="44.14109965250028" lon="11.325809136168028"><ele>844.6666666666666</ele><time>2026-04-09T11:01:58Z</time></trkpt><trkpt lat="44.141172120075815" lon="11.326021025906027"><ele>845.3333333333333</ele><time>2026-04-09T11:01:59Z</time></trkpt><trkpt lat="44.14124285995893" lon="11.326227176535307"><ele>846.0</ele><time>2026-04-09T11:02:00Z</time></trkpt><trkpt lat="44.141274085725215" lon="11.326418291911466"><ele>846.0</ele><time>2026-04-09T11:02:01Z</time></trkpt><trkpt lat="44.141301856728" lon="11.326604486292526"><ele>846.0</ele><time>2026-04-09T11:02:02Z</time></trkpt><trkpt lat="44.14128557617143" lon="11.326798255597954"><ele>846.0</ele><time>2026-04-09T11:02:03Z</time></trkpt><trkpt lat="44.14118417144446" lon="11.326927038905175"><ele>846.0</ele><time>2026-04-09T11:02:04Z</time></trkpt><trkpt lat="44.14108359743602" lon="11.327033173272795"><ele>846.0</ele><time>2026-04-09T11:02:05Z</time></trkpt><trkpt lat="44.14095080238444" lon="11.32714759005803"><ele>846.0</ele><time>2026-04-09T11:02:06Z</time></trkpt><trkpt lat="44.14080918931182" lon="11.327272514624193"><ele>846.0</ele><time>2026-04-09T11:02:07Z</time></trkpt><trkpt lat="44.14067669408825" lon="11.327390865094163"><ele>845.5</ele><time>2026-04-09T11:02:08Z</time></trkpt><trkpt lat="44.14058288173482" lon="11.327510470105766"><ele>845.0</ele><time>2026-04-09T11:02:09Z</time></trkpt><trkpt lat="44.140502198351214" lon="11.327620177625082"><ele>844.5</ele><time>2026-04-09T11:02:10Z</time></trkpt><trkpt lat="44.14046439958324" lon="11.327754770543926"><ele>844.0</ele><time>2026-04-09T11:02:11Z</time></trkpt><trkpt lat="44.140451375822956" lon="11.327918748975499"><ele>844.0</ele><time>2026-04-09T11:02:12Z</time></trkpt><trkpt lat="44.14047377092301" lon="11.328109234325636"><ele>844.0</ele><time>2026-04-09T11:02:13Z</time></trkpt><trkpt lat="44.140517194894464" lon="11.328310505132047"><ele>844.0</ele><time>2026-04-09T11:02:14Z</time></trkpt><trkpt lat="44.14056741882558" lon="11.328459961445336"><ele>844.0</ele><time>2026-04-09T11:02:15Z</time></trkpt><trkpt lat="44.140636645833276" lon="11.32856147999721"><ele>847.0</ele><time>2026-04-09T11:02:16Z</time></trkpt><trkpt lat="44.140731710205614" lon="11.32861627059715"><ele>850.0</ele><time>2026-04-09T11:02:17Z</time></trkpt><trkpt lat="44.14083452335045" lon="11.328628256235348"><ele>853.0000000000001</ele><time>2026-04-09T11:02:18Z</time></trkpt><trkpt lat="44.14093915178739" lon="11.328576969353046"><ele>856.0</ele><time>2026-04-09T11:02:19Z</time></trkpt><trkpt lat="44.14104074627284" lon="11.328471353845396"><ele>859.0</ele><time>2026-04-09T11:02:20Z</time></trkpt><trkpt lat="44.14115109620769" lon="11.328369549116035"><ele>859.0</ele><time>2026-04-09T11:02:21Z</time></trkpt><trkpt lat="44.141260061207326" lon="11.328286843375375"><ele>859.0</ele><time>2026-04-09T11:02:22Z</time></trkpt><trkpt lat="44.14136316699879" lon="11.328204735877454"><ele>859.0</ele><time>2026-04-09T11:02:23Z</time></trkpt><trkpt lat="44.141464877616414" lon="11.328127021288115"><ele>859.0</ele><time>2026-04-09T11:02:24Z</time></trkpt><trkpt lat="44.141561616862845" lon="11.328043835884978"><ele>860.5</ele><time>2026-04-09T11:02:25Z</time></trkpt><trkpt lat="44.14166473548577" lon="11.327958445701158"><ele>862.0</ele><time>2026-04-09T11:02:26Z</time></trkpt><trkpt lat="44.14176885357381" lon="11.327873038784915"><ele>863.5</ele><time>2026-04-09T11:02:27Z</time></trkpt><trkpt lat="44.141880375919825" lon="11.32778225000343"><ele>865.0</ele><time>2026-04-09T11:02:28Z</time></trkpt><trkpt lat="44.14199454111966" lon="11.32769171563601"><ele>865.0</ele><time>2026-04-09T11:02:29Z</time></trkpt><trkpt lat="44.14211011557982" lon="11.327601511104481"><ele>865.0</ele><time>2026-04-09T11:02:30Z</time></trkpt><trkpt lat="44.142228688158205" lon="11.327509069062467"><ele>865.0</ele><time>2026-04-09T11:02:31Z</time></trkpt><trkpt lat="44.14234863276627" lon="11.327417844076221"><ele>865.0</ele><time>2026-04-09T11:02:32Z</time></trkpt><trkpt lat="44.142478828541066" lon="11.327344253387878"><ele>865.0</ele><time>2026-04-09T11:02:33Z</time></trkpt><trkpt lat="44.142613933614854" lon="11.327292376557097"><ele>865.0</ele><time>2026-04-09T11:02:34Z</time></trkpt><trkpt lat="44.14275062170007" lon="11.327245062215356"><ele>865.0</ele><time>2026-04-09T11:02:35Z</time></trkpt><trkpt lat="44.142891317532296" lon="11.327214681496129"><ele>865.0</ele><time>2026-04-09T11:02:36Z</time></trkpt><trkpt lat="44.14303469538671" lon="11.327191675382885"><ele>866.75</ele><time>2026-04-09T11:02:37Z</time></trkpt><trkpt lat="44.14317401159651" lon="11.327179081525399"><ele>868.5</ele><time>2026-04-09T11:02:38Z</time></trkpt><trkpt lat="44.14331707591669" lon="11.327172178077896"><ele>870.25</ele><time>2026-04-09T11:02:39Z</time></trkpt><trkpt lat="44.14347673527209" lon="11.327181700643171"><ele>872.0</ele><time>2026-04-09T11:02:40Z</time></trkpt><trkpt lat="44.1436488846963" lon="11.327213232992278"><ele>871.6666666666667</ele><time>2026-04-09T11:02:41Z</time></trkpt><trkpt lat="44.143819209358334" lon="11.327309496255712"><ele>871.3333333333333</ele><time>2026-04-09T11:02:42Z</time></trkpt><trkpt lat="44.14399055945179" lon="11.327400862401014"><ele>871.0</ele><time>2026-04-09T11:02:43Z</time></trkpt><trkpt lat="44.144140998415715" lon="11.32746475256848"><ele>871.0</ele><time>2026-04-09T11:02:44Z</time></trkpt><trkpt lat="44.14427292321853" lon="11.327538655547256"><ele>871.0</ele><time>2026-04-09T11:02:45Z</time></trkpt><trkpt lat="44.144397751052786" lon="11.327580523213054"><ele>871.0</ele><time>2026-04-09T11:02:46Z</time></trkpt><trkpt lat="44.1445143599612" lon="11.327566874545939"><ele>871.0</ele><time>2026-04-09T11:02:47Z</time></trkpt><trkpt lat="44.14462411499832" lon="11.327500888747718"><ele>871.0</ele><time>2026-04-09T11:02:48Z</time></trkpt><trkpt lat="44.144716456983254" lon="11.327379255644587"><ele>871.0</ele><time>2026-04-09T11:02:49Z</time></trkpt><trkpt lat="44.14479756195009" lon="11.327210054925542"><ele>871.0</ele><time>2026-04-09T11:02:50Z</time></trkpt><trkpt lat="44.14486960843062" lon="11.327030107423234"><ele>871.0</ele><time>2026-04-09T11:02:51Z</time></trkpt><trkpt lat="44.14494573393655" lon="11.326887980045006"><ele>873.5</ele><time>2026-04-09T11:02:52Z</time></trkpt><trkpt lat="44.145049133339874" lon="11.326778679502498"><ele>876.0</ele><time>2026-04-09T11:02:53Z</time></trkpt><trkpt lat="44.14518437853241" lon="11.32668384507636"><ele>878.5</ele><time>2026-04-09T11:02:54Z</time></trkpt><trkpt lat="44.14534440512615" lon="11.32662444342584"><ele>881.0</ele><time>2026-04-09T11:02:55Z</time></trkpt><trkpt lat="44.14551974801367" lon="11.326598637889154"><ele>881.0</ele><time>2026-04-09T11:02:56Z</time></trkpt><trkpt lat="44.1456790278927" lon="11.326613794142288"><ele>881.0</ele><time>2026-04-09T11:02:57Z</time></trkpt><trkpt lat="44.14583846242876" lon="11.326661277993926"><ele>881.0</ele><time>2026-04-09T11:02:57.999Z</time></trkpt><trkpt lat="44.14599315121305" lon="11.326744300824199"><ele>880.3333333333334</ele><time>2026-04-09T11:02:58.999Z</time></trkpt><trkpt lat="44.14615575090719" lon="11.326852866944028"><ele>879.6666666666667</ele><time>2026-04-09T11:02:59.999Z</time></trkpt><trkpt lat="44.14631460703325" lon="11.326971167238785"><ele>879.0</ele><time>2026-04-09T11:03:00.999Z</time></trkpt><trkpt lat="44.14645512521062" lon="11.327060191681982"><ele>882.0</ele><time>2026-04-09T11:03:01.999Z</time></trkpt><trkpt lat="44.14658145140125" lon="11.327135786271143"><ele>885.0</ele><time>2026-04-09T11:03:02.999Z</time></trkpt><trkpt lat="44.146708023922876" lon="11.327194679035278"><ele>888.0</ele><time>2026-04-09T11:03:03.999Z</time></trkpt><trkpt lat="44.146848960189324" lon="11.327227326365964"><ele>891.0</ele><time>2026-04-09T11:03:04.999Z</time></trkpt><trkpt lat="44.14700981516639" lon="11.327226769347035"><ele>891.0</ele><time>2026-04-09T11:03:05.999Z</time></trkpt><trkpt lat="44.14718997889855" lon="11.32720368844654"><ele>891.0</ele><time>2026-04-09T11:03:06.999Z</time></trkpt><trkpt lat="44.14738203950983" lon="11.327186638320686"><ele>891.0</ele><time>2026-04-09T11:03:07.999Z</time></trkpt><trkpt lat="44.14755040913723" lon="11.327243641010009"><ele>889.75</ele><time>2026-04-09T11:03:08.999Z</time></trkpt><trkpt lat="44.1476964610016" lon="11.327319950348798"><ele>888.5</ele><time>2026-04-09T11:03:09.999Z</time></trkpt><trkpt lat="44.14783169375552" lon="11.327401144988473"><ele>887.25</ele><time>2026-04-09T11:03:10.999Z</time></trkpt><trkpt lat="44.14794341723348" lon="11.327491083443206"><ele>886.0</ele><time>2026-04-09T11:03:11.999Z</time></trkpt><trkpt lat="44.1480621113584" lon="11.327534912336297"><ele>886.0</ele><time>2026-04-09T11:03:12.999Z</time></trkpt><trkpt lat="44.1481701016489" lon="11.327514555679883"><ele>886.0</ele><time>2026-04-09T11:03:13.999Z</time></trkpt><trkpt lat="44.1482910927592" lon="11.32744109507501"><ele>886.0</ele><time>2026-04-09T11:03:14.999Z</time></trkpt><trkpt lat="44.148417904218874" lon="11.327324099304283"><ele>886.0</ele><time>2026-04-09T11:03:15.999Z</time></trkpt><trkpt lat="44.14854316753962" lon="11.32717488483096"><ele>892.3333333333333</ele><time>2026-04-09T11:03:16.999Z</time></trkpt><trkpt lat="44.14866137522768" lon="11.327015496969201"><ele>898.6666666666667</ele><time>2026-04-09T11:03:17.999Z</time></trkpt><trkpt lat="44.148781044879534" lon="11.326834965424213"><ele>905.0</ele><time>2026-04-09T11:03:18.999Z</time></trkpt><trkpt lat="44.148915905807684" lon="11.326641861940548"><ele>906.0</ele><time>2026-04-09T11:03:19.999Z</time></trkpt><trkpt lat="44.14905685994593" lon="11.32645029048965"><ele>907.0</ele><time>2026-04-09T11:03:20.999Z</time></trkpt><trkpt lat="44.149198026846975" lon="11.326301552782965"><ele>908.0</ele><time>2026-04-09T11:03:21.999Z</time></trkpt><trkpt lat="44.149327460955114" lon="11.326170751892064"><ele>908.0</ele><time>2026-04-09T11:03:22.999Z</time></trkpt><trkpt lat="44.14944758793875" lon="11.32605039112621"><ele>908.0</ele><time>2026-04-09T11:03:23.999Z</time></trkpt><trkpt lat="44.14956656659397" lon="11.32594557271477"><ele>908.0</ele><time>2026-04-09T11:03:24.999Z</time></trkpt><trkpt lat="44.14970715866963" lon="11.32588113825713"><ele>908.0</ele><time>2026-04-09T11:03:25.999Z</time></trkpt><trkpt lat="44.14987555014255" lon="11.325889885763305"><ele>904.0</ele><time>2026-04-09T11:03:26.999Z</time></trkpt><trkpt lat="44.15006529951075" lon="11.325894276310667"><ele>900.0</ele><time>2026-04-09T11:03:27.999Z</time></trkpt><trkpt lat="44.15025287992964" lon="11.325883449216665"><ele>896.0</ele><time>2026-04-09T11:03:28.999Z</time></trkpt><trkpt lat="44.15044305689716" lon="11.325897951710616"><ele>896.0</ele><time>2026-04-09T11:03:29.999Z</time></trkpt><trkpt lat="44.15064041871457" lon="11.32589498255626"><ele>896.0</ele><time>2026-04-09T11:03:30.999Z</time></trkpt><trkpt lat="44.15080862670876" lon="11.325892417286537"><ele>896.0</ele><time>2026-04-09T11:03:31.999Z</time></trkpt><trkpt lat="44.150952536655076" lon="11.325883699384923"><ele>893.0</ele><time>2026-04-09T11:03:32.999Z</time></trkpt><trkpt lat="44.151096604739216" lon="11.325849359100287"><ele>890.0</ele><time>2026-04-09T11:03:33.999Z</time></trkpt><trkpt lat="44.151247720959255" lon="11.325768789073651"><ele>887.0</ele><time>2026-04-09T11:03:34.999Z</time></trkpt><trkpt lat="44.15140856285859" lon="11.325661797921647"><ele>891.0</ele><time>2026-04-09T11:03:35.999Z</time></trkpt><trkpt lat="44.151569037739755" lon="11.325532111566039"><ele>895.0</ele><time>2026-04-09T11:03:36.999Z</time></trkpt><trkpt lat="44.15173353904968" lon="11.325385256836443"><ele>899.0</ele><time>2026-04-09T11:03:37.999Z</time></trkpt><trkpt lat="44.15191391864015" lon="11.325225661183548"><ele>899.0</ele><time>2026-04-09T11:03:38.999Z</time></trkpt><trkpt lat="44.152093891557655" lon="11.325074459301499"><ele>899.0</ele><time>2026-04-09T11:03:39.999Z</time></trkpt><trkpt lat="44.15225232418747" lon="11.32494206293871"><ele>899.0</ele><time>2026-04-09T11:03:40.999Z</time></trkpt><trkpt lat="44.15239800121878" lon="11.324821402271015"><ele>900.25</ele><time>2026-04-09T11:03:41.999Z</time></trkpt><trkpt lat="44.15252740051732" lon="11.324710719423631"><ele>901.5</ele><time>2026-04-09T11:03:43Z</time></trkpt><trkpt lat="44.152639071867" lon="11.324612305228142"><ele>902.75</ele><time>2026-04-09T11:03:44Z</time></trkpt><trkpt lat="44.152744564578036" lon="11.324526609102401"><ele>904.0</ele><time>2026-04-09T11:03:45Z</time></trkpt><trkpt lat="44.15285007785906" lon="11.324451311649018"><ele>904.0</ele><time>2026-04-09T11:03:46Z</time></trkpt><trkpt lat="44.15296543752704" lon="11.324422387401064"><ele>904.0</ele><time>2026-04-09T11:03:47Z</time></trkpt><trkpt lat="44.15309858870839" lon="11.324441901631314"><ele>904.0</ele><time>2026-04-09T11:03:48Z</time></trkpt><trkpt lat="44.15324314401292" lon="11.324524931005039"><ele>904.0</ele><time>2026-04-09T11:03:49Z</time></trkpt><trkpt lat="44.153392317373516" lon="11.324623361405651"><ele>897.6666666666666</ele><time>2026-04-09T11:03:50Z</time></trkpt><trkpt lat="44.15354323441387" lon="11.324746774795463"><ele>891.3333333333333</ele><time>2026-04-09T11:03:51Z</time></trkpt><trkpt lat="44.15368571570415" lon="11.324860151745035"><ele>885.0</ele><time>2026-04-09T11:03:52Z</time></trkpt><trkpt lat="44.153807581339805" lon="11.324973717138256"><ele>885.0</ele><time>2026-04-09T11:03:53Z</time></trkpt><trkpt lat="44.15392429415518" lon="11.325056097774779"><ele>885.0</ele><time>2026-04-09T11:03:54Z</time></trkpt><trkpt lat="44.154062204658366" lon="11.325127416982346"><ele>885.0</ele><time>2026-04-09T11:03:55Z</time></trkpt><trkpt lat="44.15422042150754" lon="11.32518348343024"><ele>885.0</ele><time>2026-04-09T11:03:56Z</time></trkpt><trkpt lat="44.15435773135327" lon="11.325209661756032"><ele>886.5</ele><time>2026-04-09T11:03:57Z</time></trkpt><trkpt lat="44.1544657436438" lon="11.325212978326368"><ele>888.0</ele><time>2026-04-09T11:03:58Z</time></trkpt><trkpt lat="44.154564793905074" lon="11.325178357047122"><ele>889.5</ele><time>2026-04-09T11:03:59Z</time></trkpt><trkpt lat="44.1546581830017" lon="11.325096661892127"><ele>891.0</ele><time>2026-04-09T11:04:00Z</time></trkpt><trkpt lat="44.15475038425504" lon="11.324963655869114"><ele>891.0</ele><time>2026-04-09T11:04:01Z</time></trkpt><trkpt lat="44.15483077874578" lon="11.3247931188126"><ele>891.0</ele><time>2026-04-09T11:04:02Z</time></trkpt><trkpt lat="44.1549167919318" lon="11.32459709404971"><ele>891.0</ele><time>2026-04-09T11:04:03Z</time></trkpt><trkpt lat="44.15503470690169" lon="11.324420804281832"><ele>892.3333333333333</ele><time>2026-04-09T11:04:04Z</time></trkpt><trkpt lat="44.15516755843732" lon="11.324291714458898"><ele>893.6666666666666</ele><time>2026-04-09T11:04:05Z</time></trkpt><trkpt lat="44.15530252574948" lon="11.324159658276203"><ele>895.0</ele><time>2026-04-09T11:04:06Z</time></trkpt><trkpt lat="44.155430330937854" lon="11.324003671452173"><ele>896.0</ele><time>2026-04-09T11:04:07Z</time></trkpt><trkpt lat="44.155538695926516" lon="11.323812307690034"><ele>897.0</ele><time>2026-04-09T11:04:08Z</time></trkpt><trkpt lat="44.15561656278037" lon="11.323637310456634"><ele>898.0</ele><time>2026-04-09T11:04:09Z</time></trkpt><trkpt lat="44.15569958687459" lon="11.323528411207386"><ele>899.0</ele><time>2026-04-09T11:04:10Z</time></trkpt><trkpt lat="44.15580242065169" lon="11.32344047556139"><ele>899.0</ele><time>2026-04-09T11:04:11Z</time></trkpt><trkpt lat="44.15598794623307" lon="11.323242491787864"><ele>899.0</ele><time>2026-04-09T11:04:12Z</time></trkpt><trkpt lat="44.15611119979758" lon="11.323197139817905"><ele>899.0</ele><time>2026-04-09T11:04:13Z</time></trkpt><trkpt lat="44.15624574847311" lon="11.323192021530566"><ele>899.0</ele><time>2026-04-09T11:04:14Z</time></trkpt><trkpt lat="44.156397803359305" lon="11.323222106123799"><ele>899.0</ele><time>2026-04-09T11:04:15Z</time></trkpt><trkpt lat="44.15655255126085" lon="11.323287494421788"><ele>899.0</ele><time>2026-04-09T11:04:16Z</time></trkpt><trkpt lat="44.15671336226469" lon="11.323362883896433"><ele>899.5</ele><time>2026-04-09T11:04:17Z</time></trkpt><trkpt lat="44.15685106118536" lon="11.323422838563046"><ele>900.0</ele><time>2026-04-09T11:04:18Z</time></trkpt><trkpt lat="44.15697578974901" lon="11.323437686804848"><ele>900.5</ele><time>2026-04-09T11:04:19Z</time></trkpt><trkpt lat="44.157099783277985" lon="11.323443593430174"><ele>901.0</ele><time>2026-04-09T11:04:20Z</time></trkpt><trkpt lat="44.15723525976984" lon="11.323404004941644"><ele>901.0</ele><time>2026-04-09T11:04:21Z</time></trkpt><trkpt lat="44.157382754665164" lon="11.323324828240903"><ele>901.0</ele><time>2026-04-09T11:04:22Z</time></trkpt><trkpt lat="44.157526132620276" lon="11.323212065378591"><ele>901.0</ele><time>2026-04-09T11:04:23Z</time></trkpt><trkpt lat="44.157666093595935" lon="11.323062279018014"><ele>902.25</ele><time>2026-04-09T11:04:24Z</time></trkpt><trkpt lat="44.15778033044517" lon="11.322912572402824"><ele>903.5</ele><time>2026-04-09T11:04:25Z</time></trkpt><trkpt lat="44.157891547811865" lon="11.322778630521311"><ele>904.75</ele><time>2026-04-09T11:04:26Z</time></trkpt><trkpt lat="44.158009301307786" lon="11.322676049409885"><ele>906.0</ele><time>2026-04-09T11:04:27Z</time></trkpt><trkpt lat="44.15814525190122" lon="11.322661524465591"><ele>905.6666666666667</ele><time>2026-04-09T11:04:28Z</time></trkpt><trkpt lat="44.158285921446506" lon="11.322689505244671"><ele>905.3333333333334</ele><time>2026-04-09T11:04:29Z</time></trkpt><trkpt lat="44.15842452275829" lon="11.32276649406363"><ele>905.0</ele><time>2026-04-09T11:04:30Z</time></trkpt><trkpt lat="44.15857939727975" lon="11.322873198110479"><ele>905.0</ele><time>2026-04-09T11:04:31Z</time></trkpt><trkpt lat="44.15872884848817" lon="11.323008394387221"><ele>905.0</ele><time>2026-04-09T11:04:32Z</time></trkpt><trkpt lat="44.15884151415784" lon="11.323150858116517"><ele>905.0</ele><time>2026-04-09T11:04:33Z</time></trkpt><trkpt lat="44.15895327561855" lon="11.32329393992296"><ele>903.0</ele><time>2026-04-09T11:04:34Z</time></trkpt><trkpt lat="44.1590796399549" lon="11.323403347128089"><ele>901.0</ele><time>2026-04-09T11:04:35Z</time></trkpt><trkpt lat="44.15923289683108" lon="11.32350971171583"><ele>899.0</ele><time>2026-04-09T11:04:36Z</time></trkpt><trkpt lat="44.1594016825901" lon="11.323608477603944"><ele>899.0</ele><time>2026-04-09T11:04:37Z</time></trkpt><trkpt lat="44.15955183703891" lon="11.323706469187092"><ele>899.0</ele><time>2026-04-09T11:04:38Z</time></trkpt><trkpt lat="44.15967320586215" lon="11.323818115440027"><ele>899.0</ele><time>2026-04-09T11:04:39Z</time></trkpt><trkpt lat="44.15978817380883" lon="11.323944982167019"><ele>899.0</ele><time>2026-04-09T11:04:40Z</time></trkpt><trkpt lat="44.15986928161781" lon="11.324121935016011"><ele>899.0</ele><time>2026-04-09T11:04:41Z</time></trkpt><trkpt lat="44.15992930840513" lon="11.324318701076518"><ele>899.0</ele><time>2026-04-09T11:04:42Z</time></trkpt><trkpt lat="44.159984323192695" lon="11.324528056939963"><ele>896.0</ele><time>2026-04-09T11:04:43Z</time></trkpt><trkpt lat="44.16005672631563" lon="11.32474482251734"><ele>893.0</ele><time>2026-04-09T11:04:44Z</time></trkpt><trkpt lat="44.16011610025459" lon="11.324987274380637"><ele>890.0</ele><time>2026-04-09T11:04:45Z</time></trkpt><trkpt lat="44.160190548680895" lon="11.325237906369386"><ele>890.0</ele><time>2026-04-09T11:04:46Z</time></trkpt><trkpt lat="44.16026983609698" lon="11.325502539786376"><ele>890.0</ele><time>2026-04-09T11:04:47Z</time></trkpt><trkpt lat="44.16036086995584" lon="11.325783131986569"><ele>890.0</ele><time>2026-04-09T11:04:48Z</time></trkpt><trkpt lat="44.16045485549344" lon="11.326076778019814"><ele>886.0</ele><time>2026-04-09T11:04:49Z</time></trkpt><trkpt lat="44.16056393666161" lon="11.32638201209453"><ele>882.0</ele><time>2026-04-09T11:04:50Z</time></trkpt><trkpt lat="44.16067791668809" lon="11.326681241694857"><ele>882.3333333333333</ele><time>2026-04-09T11:04:51Z</time></trkpt><trkpt lat="44.16078764660247" lon="11.326952670569858"><ele>882.6666666666666</ele><time>2026-04-09T11:04:52Z</time></trkpt><trkpt lat="44.160894299656505" lon="11.327198275038375"><ele>883.0</ele><time>2026-04-09T11:04:53Z</time></trkpt><trkpt lat="44.16099399232413" lon="11.327428821982402"><ele>883.0</ele><time>2026-04-09T11:04:54Z</time></trkpt><trkpt lat="44.16106407393088" lon="11.327667139389044"><ele>883.0</ele><time>2026-04-09T11:04:55Z</time></trkpt><trkpt lat="44.16112390359642" lon="11.327894672176388"><ele>883.0</ele><time>2026-04-09T11:04:56Z</time></trkpt><trkpt lat="44.16118574756104" lon="11.328102382264"><ele>882.75</ele><time>2026-04-09T11:04:57Z</time></trkpt><trkpt lat="44.1612195833087" lon="11.328308980763996"><ele>882.5</ele><time>2026-04-09T11:04:58Z</time></trkpt><trkpt lat="44.16125002503743" lon="11.328498936960292"><ele>882.25</ele><time>2026-04-09T11:04:59Z</time></trkpt><trkpt lat="44.16127500472948" lon="11.328698323428315"><ele>882.0</ele><time>2026-04-09T11:05:00Z</time></trkpt><trkpt lat="44.161297663620736" lon="11.328882265751467"><ele>880.0</ele><time>2026-04-09T11:05:00.999Z</time></trkpt><trkpt lat="44.16132335594019" lon="11.329048146690802"><ele>878.0</ele><time>2026-04-09T11:05:01.999Z</time></trkpt><trkpt lat="44.16137375329461" lon="11.329191114325777"><ele>876.0</ele><time>2026-04-09T11:05:02.999Z</time></trkpt><trkpt lat="44.161440478397935" lon="11.329321470869946"><ele>874.0</ele><time>2026-04-09T11:05:03.999Z</time></trkpt><trkpt lat="44.16152998757431" lon="11.32943179641723"><ele>875.75</ele><time>2026-04-09T11:05:04.999Z</time></trkpt><trkpt lat="44.161640122492294" lon="11.32952406480341"><ele>877.5</ele><time>2026-04-09T11:05:05.999Z</time></trkpt><trkpt lat="44.16177782075851" lon="11.329599191093918"><ele>879.25</ele><time>2026-04-09T11:05:06.999Z</time></trkpt><trkpt lat="44.16191152432723" lon="11.329657142262835"><ele>881.0</ele><time>2026-04-09T11:05:07.999Z</time></trkpt><trkpt lat="44.16204338376087" lon="11.329687786254981"><ele>881.0</ele><time>2026-04-09T11:05:08.999Z</time></trkpt><trkpt lat="44.16218059605927" lon="11.329709536453304"><ele>881.0</ele><time>2026-04-09T11:05:09.999Z</time></trkpt><trkpt lat="44.16231954018967" lon="11.329688861863023"><ele>881.0</ele><time>2026-04-09T11:05:10.999Z</time></trkpt><trkpt lat="44.162437565963096" lon="11.32971166558882"><ele>881.0</ele><time>2026-04-09T11:05:11.999Z</time></trkpt><trkpt lat="44.162552267187145" lon="11.329769364495249"><ele>877.8</ele><time>2026-04-09T11:05:12.999Z</time></trkpt><trkpt lat="44.162655538606536" lon="11.32985391577107"><ele>874.5999999999999</ele><time>2026-04-09T11:05:13.999Z</time></trkpt><trkpt lat="44.162729663206456" lon="11.32996386832803"><ele>871.4</ele><time>2026-04-09T11:05:14.999Z</time></trkpt><trkpt lat="44.162803969462914" lon="11.330074565935785"><ele>868.2</ele><time>2026-04-09T11:05:15.999Z</time></trkpt><trkpt lat="44.162843874559975" lon="11.330215969808892"><ele>865.0</ele><time>2026-04-09T11:05:16.999Z</time></trkpt><trkpt lat="44.162870007692064" lon="11.330362156820083"><ele>865.0</ele><time>2026-04-09T11:05:17.999Z</time></trkpt><trkpt lat="44.162844341504375" lon="11.330549427268576"><ele>865.0</ele><time>2026-04-09T11:05:18.999Z</time></trkpt><trkpt lat="44.162836446993985" lon="11.33074374600194"><ele>865.0</ele><time>2026-04-09T11:05:19.999Z</time></trkpt><trkpt lat="44.1628090615825" lon="11.330892725710344"><ele>865.0</ele><time>2026-04-09T11:05:20.999Z</time></trkpt><trkpt lat="44.162802706813835" lon="11.331036218627906"><ele>862.25</ele><time>2026-04-09T11:05:21.999Z</time></trkpt><trkpt lat="44.16282116908714" lon="11.331176484305017"><ele>859.5</ele><time>2026-04-09T11:05:22.999Z</time></trkpt><trkpt lat="44.16287717503968" lon="11.3312838269746"><ele>856.75</ele><time>2026-04-09T11:05:23.999Z</time></trkpt><trkpt lat="44.16296782355854" lon="11.33136427055802"><ele>854.0</ele><time>2026-04-09T11:05:24.999Z</time></trkpt><trkpt lat="44.1631035913542" lon="11.331457540849687"><ele>853.0</ele><time>2026-04-09T11:05:25.999Z</time></trkpt><trkpt lat="44.16324860839674" lon="11.331552536852094"><ele>852.0</ele><time>2026-04-09T11:05:26.999Z</time></trkpt><trkpt lat="44.16339748213818" lon="11.331670617866012"><ele>851.0</ele><time>2026-04-09T11:05:27.999Z</time></trkpt><trkpt lat="44.163522730852286" lon="11.331773845983376"><ele>851.0</ele><time>2026-04-09T11:05:28.999Z</time></trkpt><trkpt lat="44.16363756605101" lon="11.331868850314587"><ele>851.0</ele><time>2026-04-09T11:05:29.999Z</time></trkpt><trkpt lat="44.16374257484783" lon="11.331968512539959"><ele>851.0</ele><time>2026-04-09T11:05:30.999Z</time></trkpt><trkpt lat="44.16382782563891" lon="11.332122187626545"><ele>851.0</ele><time>2026-04-09T11:05:31.999Z</time></trkpt><trkpt lat="44.16392952258236" lon="11.332299078419888"><ele>851.5</ele><time>2026-04-09T11:05:32.999Z</time></trkpt><trkpt lat="44.164021028956974" lon="11.33248599644161"><ele>852.0</ele><time>2026-04-09T11:05:33.999Z</time></trkpt><trkpt lat="44.16411592740432" lon="11.332631180210196"><ele>852.5</ele><time>2026-04-09T11:05:34.999Z</time></trkpt><trkpt lat="44.16419289032389" lon="11.33275663528942"><ele>853.0</ele><time>2026-04-09T11:05:35.999Z</time></trkpt><trkpt lat="44.16427632079004" lon="11.33287378066879"><ele>853.0</ele><time>2026-04-09T11:05:36.999Z</time></trkpt><trkpt lat="44.16437245677921" lon="11.332974185983032"><ele>853.0</ele><time>2026-04-09T11:05:37.999Z</time></trkpt><trkpt lat="44.16443911385254" lon="11.333125695751654"><ele>853.0</ele><time>2026-04-09T11:05:38.999Z</time></trkpt><trkpt lat="44.1644833306644" lon="11.333304055069245"><ele>853.0</ele><time>2026-04-09T11:05:39.999Z</time></trkpt><trkpt lat="44.16453215392572" lon="11.333485406824986"><ele>852.0</ele><time>2026-04-09T11:05:40.999Z</time></trkpt><trkpt lat="44.164559266246485" lon="11.33368135899765"><ele>851.0</ele><time>2026-04-09T11:05:41.999Z</time></trkpt><trkpt lat="44.164609773846784" lon="11.333864236352236"><ele>850.0</ele><time>2026-04-09T11:05:42.999Z</time></trkpt><trkpt lat="44.16467332581159" lon="11.333995280595632"><ele>849.0</ele><time>2026-04-09T11:05:43.999Z</time></trkpt><trkpt lat="44.164735002666106" lon="11.33410703776861"><ele>849.0</ele><time>2026-04-09T11:05:44.999Z</time></trkpt><trkpt lat="44.16479395253773" lon="11.334210892883016"><ele>849.0</ele><time>2026-04-09T11:05:45.999Z</time></trkpt><trkpt lat="44.164863675879026" lon="11.33431615886618"><ele>849.0</ele><time>2026-04-09T11:05:46.999Z</time></trkpt><trkpt lat="44.16494003732451" lon="11.33442353595202"><ele>849.0</ele><time>2026-04-09T11:05:47.999Z</time></trkpt><trkpt lat="44.16501634609264" lon="11.334540926554498"><ele>849.0</ele><time>2026-04-09T11:05:49Z</time></trkpt><trkpt lat="44.16510256948228" lon="11.334666660160456"><ele>849.5</ele><time>2026-04-09T11:05:50Z</time></trkpt><trkpt lat="44.16519583092802" lon="11.334809960295123"><ele>850.0</ele><time>2026-04-09T11:05:51Z</time></trkpt><trkpt lat="44.165289610187564" lon="11.33497085605803"><ele>850.5</ele><time>2026-04-09T11:05:52Z</time></trkpt><trkpt lat="44.16535715533376" lon="11.335136686886147"><ele>851.0</ele><time>2026-04-09T11:05:53Z</time></trkpt><trkpt lat="44.16538158523765" lon="11.335329652172366"><ele>851.0</ele><time>2026-04-09T11:05:54Z</time></trkpt><trkpt lat="44.16539276612256" lon="11.335550120032313"><ele>851.0</ele><time>2026-04-09T11:05:55Z</time></trkpt><trkpt lat="44.165414362271264" lon="11.335776655145006"><ele>851.0</ele><time>2026-04-09T11:05:56Z</time></trkpt><trkpt lat="44.165441217660344" lon="11.335956434706864"><ele>851.1999999999999</ele><time>2026-04-09T11:05:57Z</time></trkpt><trkpt lat="44.16546347139182" lon="11.33608304692204"><ele>851.4</ele><time>2026-04-09T11:05:58Z</time></trkpt><trkpt lat="44.16555325783029" lon="11.336202417230762"><ele>851.6</ele><time>2026-04-09T11:06:00Z</time></trkpt><trkpt lat="44.16564319997368" lon="11.336216423580398"><ele>851.8</ele><time>2026-04-09T11:06:01Z</time></trkpt><trkpt lat="44.16574642696992" lon="11.33620868757475"><ele>852.0</ele><time>2026-04-09T11:06:02Z</time></trkpt><trkpt lat="44.16586188977274" lon="11.336159625468479"><ele>855.3333333333333</ele><time>2026-04-09T11:06:03Z</time></trkpt><trkpt lat="44.16598951473917" lon="11.33607725054941"><ele>858.6666666666666</ele><time>2026-04-09T11:06:04Z</time></trkpt><trkpt lat="44.166148725101216" lon="11.33597249785629"><ele>862.0</ele><time>2026-04-09T11:06:05Z</time></trkpt><trkpt lat="44.16629638973711" lon="11.33584611187703"><ele>862.0</ele><time>2026-04-09T11:06:06Z</time></trkpt><trkpt lat="44.166443799954266" lon="11.335720786711498"><ele>862.0</ele><time>2026-04-09T11:06:07Z</time></trkpt><trkpt lat="44.16658115758818" lon="11.33559278801484"><ele>862.0</ele><time>2026-04-09T11:06:08Z</time></trkpt><trkpt lat="44.16673368188786" lon="11.335449564076212"><ele>864.0</ele><time>2026-04-09T11:06:09Z</time></trkpt><trkpt lat="44.166884958154085" lon="11.335311648307908"><ele>866.0</ele><time>2026-04-09T11:06:10Z</time></trkpt><trkpt lat="44.16702014963817" lon="11.335193727003508"><ele>868.0</ele><time>2026-04-09T11:06:11Z</time></trkpt><trkpt lat="44.16716149408212" lon="11.335075325346391"><ele>868.0</ele><time>2026-04-09T11:06:12Z</time></trkpt><trkpt lat="44.16728854360526" lon="11.334965879577132"><ele>868.0</ele><time>2026-04-09T11:06:13Z</time></trkpt><trkpt lat="44.16740050438926" lon="11.334869799762817"><ele>868.0</ele><time>2026-04-09T11:06:14Z</time></trkpt><trkpt lat="44.16748281868076" lon="11.334789162421378"><ele>868.0</ele><time>2026-04-09T11:06:15Z</time></trkpt><trkpt lat="44.16753712780519" lon="11.334669465635859"><ele>869.0</ele><time>2026-04-09T11:06:16Z</time></trkpt><trkpt lat="44.167543144513814" lon="11.334547430097707"><ele>870.0</ele><time>2026-04-09T11:06:17Z</time></trkpt><trkpt lat="44.16751921479673" lon="11.334393392627456"><ele>871.0</ele><time>2026-04-09T11:06:18Z</time></trkpt><trkpt lat="44.167431553178815" lon="11.334234086028863"><ele>872.0</ele><time>2026-04-09T11:06:19Z</time></trkpt><trkpt lat="44.167339673630394" lon="11.334054290127138"><ele>874.25</ele><time>2026-04-09T11:06:20Z</time></trkpt><trkpt lat="44.16724230580113" lon="11.33385252609476"><ele>876.5</ele><time>2026-04-09T11:06:21Z</time></trkpt><trkpt lat="44.167166128205444" lon="11.33366983029049"><ele>878.75</ele><time>2026-04-09T11:06:22Z</time></trkpt><trkpt lat="44.167160771490316" lon="11.33350642471548"><ele>881.0</ele><time>2026-04-09T11:06:23Z</time></trkpt><trkpt lat="44.16718673061958" lon="11.333365959306082"><ele>881.0</ele><time>2026-04-09T11:06:24Z</time></trkpt><trkpt lat="44.16728163989979" lon="11.333245291836082"><ele>881.0</ele><time>2026-04-09T11:06:25Z</time></trkpt><trkpt lat="44.1673783348172" lon="11.333086080889649"><ele>881.0</ele><time>2026-04-09T11:06:26Z</time></trkpt><trkpt lat="44.16749993894015" lon="11.332928207115783"><ele>881.0</ele><time>2026-04-09T11:06:27Z</time></trkpt><trkpt lat="44.16760739924224" lon="11.332747195766654"><ele>883.5</ele><time>2026-04-09T11:06:28Z</time></trkpt><trkpt lat="44.16769601524536" lon="11.332601559385092"><ele>886.0</ele><time>2026-04-09T11:06:29Z</time></trkpt><trkpt lat="44.16778907711811" lon="11.332516505327579"><ele>888.5</ele><time>2026-04-09T11:06:30Z</time></trkpt><trkpt lat="44.167897941031136" lon="11.332492844795006"><ele>891.0</ele><time>2026-04-09T11:06:31Z</time></trkpt><trkpt lat="44.1680176769007" lon="11.332570380128692"><ele>891.0</ele><time>2026-04-09T11:06:32Z</time></trkpt><trkpt lat="44.16816396891311" lon="11.332609828890488"><ele>891.0</ele><time>2026-04-09T11:06:33Z</time></trkpt><trkpt lat="44.168322261573735" lon="11.332678991404"><ele>891.0</ele><time>2026-04-09T11:06:34Z</time></trkpt><trkpt lat="44.16850069186848" lon="11.332732123385952"><ele>896.3333333333333</ele><time>2026-04-09T11:06:35Z</time></trkpt><trkpt lat="44.16866754262035" lon="11.332789569436029"><ele>901.6666666666666</ele><time>2026-04-09T11:06:36Z</time></trkpt><trkpt lat="44.16883464190281" lon="11.332839240675506"><ele>907.0</ele><time>2026-04-09T11:06:37Z</time></trkpt><trkpt lat="44.16898868574828" lon="11.332878532445877"><ele>909.75</ele><time>2026-04-09T11:06:38Z</time></trkpt><trkpt lat="44.169128940793065" lon="11.332923748936517"><ele>912.5</ele><time>2026-04-09T11:06:39Z</time></trkpt><trkpt lat="44.1692732801338" lon="11.332932588028996"><ele>915.25</ele><time>2026-04-09T11:06:40Z</time></trkpt><trkpt lat="44.169421719387714" lon="11.332906671072092"><ele>918.0</ele><time>2026-04-09T11:06:41Z</time></trkpt><trkpt lat="44.169591033337966" lon="11.332837740180992"><ele>918.0</ele><time>2026-04-09T11:06:42Z</time></trkpt><trkpt lat="44.1697779374676" lon="11.332761562068976"><ele>918.0</ele><time>2026-04-09T11:06:43Z</time></trkpt><trkpt lat="44.1699670902047" lon="11.332673918416003"><ele>918.0</ele><time>2026-04-09T11:06:44Z</time></trkpt><trkpt lat="44.170130095137914" lon="11.332621687988667"><ele>919.75</ele><time>2026-04-09T11:06:45Z</time></trkpt><trkpt lat="44.170273483861486" lon="11.332552643442028"><ele>921.5</ele><time>2026-04-09T11:06:46Z</time></trkpt><trkpt lat="44.17041457536492" lon="11.332536418426221"><ele>923.25</ele><time>2026-04-09T11:06:47Z</time></trkpt><trkpt lat="44.17052896728736" lon="11.332567101108426"><ele>925.0</ele><time>2026-04-09T11:06:48Z</time></trkpt><trkpt lat="44.17062264234122" lon="11.332653694675376"><ele>925.25</ele><time>2026-04-09T11:06:49Z</time></trkpt><trkpt lat="44.170697157143906" lon="11.332778967738893"><ele>925.5</ele><time>2026-04-09T11:06:50Z</time></trkpt><trkpt lat="44.17075262455341" lon="11.332942657977544"><ele>925.75</ele><time>2026-04-09T11:06:51Z</time></trkpt><trkpt lat="44.17079292260735" lon="11.333121166938117"><ele>926.0</ele><time>2026-04-09T11:06:52Z</time></trkpt><trkpt lat="44.17083547403165" lon="11.333323136874967"><ele>926.0</ele><time>2026-04-09T11:06:53Z</time></trkpt><trkpt lat="44.17086101418362" lon="11.333532299295044"><ele>926.0</ele><time>2026-04-09T11:06:54Z</time></trkpt><trkpt lat="44.17089110199197" lon="11.333745397239044"><ele>926.0</ele><time>2026-04-09T11:06:55Z</time></trkpt><trkpt lat="44.170912850934805" lon="11.333936161682264"><ele>926.0</ele><time>2026-04-09T11:06:56Z</time></trkpt><trkpt lat="44.17097308997809" lon="11.3340894371695"><ele>925.75</ele><time>2026-04-09T11:06:57Z</time></trkpt><trkpt lat="44.171047978195226" lon="11.334245388097537"><ele>925.5</ele><time>2026-04-09T11:06:58Z</time></trkpt><trkpt lat="44.17114394811002" lon="11.334404529220988"><ele>925.25</ele><time>2026-04-09T11:06:58.999Z</time></trkpt><trkpt lat="44.17124438665212" lon="11.334565567799189"><ele>925.0</ele><time>2026-04-09T11:06:59.999Z</time></trkpt><trkpt lat="44.171354012699005" lon="11.334725097945784"><ele>924.3333333333333</ele><time>2026-04-09T11:07:00.999Z</time></trkpt><trkpt lat="44.171462515115934" lon="11.33490725026228"><ele>923.6666666666667</ele><time>2026-04-09T11:07:01.999Z</time></trkpt><trkpt lat="44.17157209458109" lon="11.335108584190133"><ele>923.0</ele><time>2026-04-09T11:07:02.999Z</time></trkpt><trkpt lat="44.171664570347794" lon="11.335332007543974"><ele>928.6666666666667</ele><time>2026-04-09T11:07:03.999Z</time></trkpt><trkpt lat="44.171762229978306" lon="11.335558857315103"><ele>934.3333333333333</ele><time>2026-04-09T11:07:04.999Z</time></trkpt><trkpt lat="44.17186287500814" lon="11.335794631403475"><ele>940.0</ele><time>2026-04-09T11:07:05.999Z</time></trkpt><trkpt lat="44.17196561968034" lon="11.336035324240429"><ele>940.0</ele><time>2026-04-09T11:07:06.999Z</time></trkpt><trkpt lat="44.1720510423253" lon="11.336231807279942"><ele>940.0</ele><time>2026-04-09T11:07:07.999Z</time></trkpt><trkpt lat="44.17212614560499" lon="11.33640450412321"><ele>940.0</ele><time>2026-04-09T11:07:08.999Z</time></trkpt><trkpt lat="44.172184180802915" lon="11.336585506517688"><ele>939.5</ele><time>2026-04-09T11:07:09.999Z</time></trkpt><trkpt lat="44.17221861683395" lon="11.336782670593985"><ele>939.0</ele><time>2026-04-09T11:07:10.999Z</time></trkpt><trkpt lat="44.17222912393243" lon="11.336974624233036"><ele>938.5</ele><time>2026-04-09T11:07:11.999Z</time></trkpt><trkpt lat="44.17223148388779" lon="11.337132648361662"><ele>938.0</ele><time>2026-04-09T11:07:12.999Z</time></trkpt><trkpt lat="44.17224044866097" lon="11.337221597986304"><ele>938.0000000000001</ele><time>2026-04-09T11:07:13.999Z</time></trkpt><trkpt lat="44.17225775022764" lon="11.337316712534893"><ele>938.0</ele><time>2026-04-09T11:07:15.999Z</time></trkpt><trkpt lat="44.17231939808233" lon="11.337416289108432"><ele>938.0</ele><time>2026-04-09T11:10:29Z</time></trkpt><trkpt lat="44.17235296626988" lon="11.337509383261395"><ele>938.0</ele><time>2026-04-09T11:10:30Z</time></trkpt><trkpt lat="44.17239349496974" lon="11.337630987880154"><ele>938.0000000000001</ele><time>2026-04-09T11:10:31Z</time></trkpt><trkpt lat="44.172440133663486" lon="11.33774700512726"><ele>938.0</ele><time>2026-04-09T11:10:32Z</time></trkpt><trkpt lat="44.17248981545174" lon="11.337874812803452"><ele>942.5999999999999</ele><time>2026-04-09T11:10:33Z</time></trkpt><trkpt lat="44.1725538973848" lon="11.33802962853617"><ele>947.1999999999999</ele><time>2026-04-09T11:10:34Z</time></trkpt><trkpt lat="44.17260517701087" lon="11.338158997431325"><ele>951.8</ele><time>2026-04-09T11:10:35Z</time></trkpt><trkpt lat="44.17264541973931" lon="11.338250203200515"><ele>956.4</ele><time>2026-04-09T11:10:36Z</time></trkpt><trkpt lat="44.17268433465705" lon="11.338335469142871"><ele>961.0</ele><time>2026-04-09T11:10:37Z</time></trkpt><trkpt lat="44.17272776062654" lon="11.338438883351186"><ele>960.9999999999999</ele><time>2026-04-09T11:10:38Z</time></trkpt><trkpt lat="44.17278236376043" lon="11.338575056103037"><ele>961.0</ele><time>2026-04-09T11:10:40Z</time></trkpt><trkpt lat="44.17280519461726" lon="11.33865835407332"><ele>961.0</ele><time>2026-04-09T11:10:42Z</time></trkpt><trkpt lat="44.17282375376238" lon="11.338766801323857"><ele>961.0</ele><time>2026-04-09T11:11:03Z</time></trkpt><trkpt lat="44.17276369026665" lon="11.338825200232014"><ele>960.9999999999999</ele><time>2026-04-09T11:18:50.996Z</time></trkpt><trkpt lat="44.17274157008509" lon="11.338925935162797"><ele>961.0</ele><time>2026-04-09T11:41:35.999Z</time></trkpt><trkpt lat="44.17275218192635" lon="11.338829801222976"><ele>960.9999999999999</ele><time>2026-04-09T11:43:35.999Z</time></trkpt><trkpt lat="44.17279839075456" lon="11.338756402309755"><ele>961.0</ele><time>2026-04-09T11:45:54Z</time></trkpt><trkpt lat="44.17277131230067" lon="11.33885659696256"><ele>961.0</ele><time>2026-04-09T11:46:24.999Z</time></trkpt><trkpt lat="44.17285604320257" lon="11.338841199697862"><ele>961.0</ele><time>2026-04-09T12:04:54Z</time></trkpt><trkpt lat="44.172929837690546" lon="11.338815392466302"><ele>960.9999999999999</ele><time>2026-04-09T12:05:03Z</time></trkpt><trkpt lat="44.17300142484476" lon="11.338921321669106"><ele>961.0</ele><time>2026-04-09T12:05:05Z</time></trkpt><trkpt lat="44.173042564265145" lon="11.339025576108801"><ele>961.3333333333333</ele><time>2026-04-09T12:05:06Z</time></trkpt><trkpt lat="44.17308128738426" lon="11.339116381814419"><ele>961.6666666666666</ele><time>2026-04-09T12:05:07Z</time></trkpt><trkpt lat="44.17312308907784" lon="11.339203050296836"><ele>962.0</ele><time>2026-04-09T12:05:08Z</time></trkpt><trkpt lat="44.17316427097159" lon="11.339298754296326"><ele>962.3333333333333</ele><time>2026-04-09T12:05:09Z</time></trkpt><trkpt lat="44.173212956247966" lon="11.339404656327762"><ele>962.6666666666666</ele><time>2026-04-09T12:05:10Z</time></trkpt><trkpt lat="44.17326650043803" lon="11.339531307086437"><ele>963.0</ele><time>2026-04-09T12:05:10.999Z</time></trkpt><trkpt lat="44.17332260400242" lon="11.339658625157048"><ele>964.0</ele><time>2026-04-09T12:05:11.999Z</time></trkpt><trkpt lat="44.17336221571594" lon="11.339757544989043"><ele>965.0</ele><time>2026-04-09T12:05:12.999Z</time></trkpt><trkpt lat="44.17342770561721" lon="11.33986913951628"><ele>966.0</ele><time>2026-04-09T12:05:13.999Z</time></trkpt><trkpt lat="44.17349726140723" lon="11.339984155757389"><ele>967.0</ele><time>2026-04-09T12:05:14.999Z</time></trkpt><trkpt lat="44.17356297829569" lon="11.340074322281724"><ele>968.0</ele><time>2026-04-09T12:05:15.999Z</time></trkpt><trkpt lat="44.17362531389469" lon="11.340163154752505"><ele>968.0000000000001</ele><time>2026-04-09T12:05:16.999Z</time></trkpt><trkpt lat="44.17369474627496" lon="11.340256175401336"><ele>968.0</ele><time>2026-04-09T12:05:17.999Z</time></trkpt><trkpt lat="44.17376393869084" lon="11.340345824077515"><ele>968.0</ele><time>2026-04-09T12:05:18.999Z</time></trkpt><trkpt lat="44.17382106849902" lon="11.34043697904728"><ele>968.0</ele><time>2026-04-09T12:05:19.999Z</time></trkpt><trkpt lat="44.17386170447464" lon="11.340531729032008"><ele>968.0000000000001</ele><time>2026-04-09T12:05:20.999Z</time></trkpt><trkpt lat="44.173890058270246" lon="11.34062913240473"><ele>968.0</ele><time>2026-04-09T12:05:21.999Z</time></trkpt><trkpt lat="44.1739003938681" lon="11.340758513781221"><ele>967.8</ele><time>2026-04-09T12:05:22.999Z</time></trkpt><trkpt lat="44.17389938066407" lon="11.340877064212844"><ele>967.5999999999999</ele><time>2026-04-09T12:05:23.999Z</time></trkpt><trkpt lat="44.1738738488545" lon="11.341003510047805"><ele>967.4000000000001</ele><time>2026-04-09T12:05:25Z</time></trkpt><trkpt lat="44.17382378745037" lon="11.341126630049356"><ele>967.2</ele><time>2026-04-09T12:05:26Z</time></trkpt><trkpt lat="44.1737527645988" lon="11.341244423821387"><ele>967.0</ele><time>2026-04-09T12:05:27Z</time></trkpt><trkpt lat="44.17366130877839" lon="11.341355726977023"><ele>964.4000000000001</ele><time>2026-04-09T12:05:28Z</time></trkpt><trkpt lat="44.17356339738316" lon="11.341450711829635"><ele>961.8000000000001</ele><time>2026-04-09T12:05:29Z</time></trkpt><trkpt lat="44.17348175700002" lon="11.341527047695344"><ele>959.2</ele><time>2026-04-09T12:05:30Z</time></trkpt><trkpt lat="44.17341623305752" lon="11.34161034695485"><ele>956.6</ele><time>2026-04-09T12:05:31Z</time></trkpt><trkpt lat="44.17337064800888" lon="11.34167821659008"><ele>954.0</ele><time>2026-04-09T12:05:32Z</time></trkpt><trkpt lat="44.17331722419452" lon="11.341764651685207"><ele>954.0</ele><time>2026-04-09T12:05:34Z</time></trkpt><trkpt lat="44.173279769839674" lon="11.341843951463064"><ele>954.0000000000001</ele><time>2026-04-09T12:05:51Z</time></trkpt><trkpt lat="44.173215520804746" lon="11.341876022328337"><ele>954.0000000000001</ele><time>2026-04-09T12:06:50Z</time></trkpt><trkpt lat="44.1730321611993" lon="11.341835254320598"><ele>954.0</ele><time>2026-04-09T12:06:53Z</time></trkpt><trkpt lat="44.17294680398139" lon="11.341850334969285"><ele>954.0</ele><time>2026-04-09T12:06:55Z</time></trkpt><trkpt lat="44.17285692084814" lon="11.341859213383728"><ele>956.4000000000001</ele><time>2026-04-09T12:06:57Z</time></trkpt><trkpt lat="44.172753240424235" lon="11.341848381673"><ele>958.8000000000001</ele><time>2026-04-09T12:06:59Z</time></trkpt><trkpt lat="44.17264518465572" lon="11.341869875570858"><ele>961.1999999999999</ele><time>2026-04-09T12:07:01Z</time></trkpt><trkpt lat="44.17254105388121" lon="11.34190534628006"><ele>963.5999999999999</ele><time>2026-04-09T12:07:03Z</time></trkpt><trkpt lat="44.17243400494699" lon="11.341911127107672"><ele>966.0</ele><time>2026-04-09T12:07:05Z</time></trkpt><trkpt lat="44.17235842584841" lon="11.341899741604152"><ele>965.5</ele><time>2026-04-09T12:07:19.999Z</time></trkpt><trkpt lat="44.17228781435785" lon="11.341896292823234"><ele>965.0</ele><time>2026-04-09T12:07:23.999Z</time></trkpt><trkpt lat="44.17222113424336" lon="11.341868902323325"><ele>964.5</ele><time>2026-04-09T12:07:25.999Z</time></trkpt><trkpt lat="44.17213322413536" lon="11.341817866737626"><ele>964.0</ele><time>2026-04-09T12:07:28.999Z</time></trkpt><trkpt lat="44.172071149144145" lon="11.341764197296298"><ele>963.5</ele><time>2026-04-09T12:07:32Z</time></trkpt><trkpt lat="44.17202092545921" lon="11.341686473151682"><ele>963.0</ele><time>2026-04-09T12:07:35Z</time></trkpt><trkpt lat="44.171954110919124" lon="11.341640155104205"><ele>963.0</ele><time>2026-04-09T12:07:37Z</time></trkpt><trkpt lat="44.17189502530513" lon="11.341598687401364"><ele>963.0</ele><time>2026-04-09T12:07:40Z</time></trkpt><trkpt lat="44.1718138685613" lon="11.341529338237727"><ele>963.0</ele><time>2026-04-09T12:07:44Z</time></trkpt><trkpt lat="44.17173990238341" lon="11.341485589511302"><ele>963.0</ele><time>2026-04-09T12:07:46Z</time></trkpt><trkpt lat="44.171681087324465" lon="11.341450223779884"><ele>963.0</ele><time>2026-04-09T12:07:48Z</time></trkpt><trkpt lat="44.17160146129486" lon="11.341405754774259"><ele>963.0</ele><time>2026-04-09T12:07:51Z</time></trkpt><trkpt lat="44.171512881943016" lon="11.341353259211543"><ele>959.1666666666666</ele><time>2026-04-09T12:07:54Z</time></trkpt><trkpt lat="44.17142312160686" lon="11.34132195735309"><ele>955.3333333333333</ele><time>2026-04-09T12:07:57Z</time></trkpt><trkpt lat="44.17133891110068" lon="11.341300941610648"><ele>951.5</ele><time>2026-04-09T12:08:00Z</time></trkpt><trkpt lat="44.171252854955654" lon="11.341294173539126"><ele>947.6666666666666</ele><time>2026-04-09T12:08:03Z</time></trkpt><trkpt lat="44.1711753525499" lon="11.341272791935381"><ele>943.8333333333333</ele><time>2026-04-09T12:08:05Z</time></trkpt><trkpt lat="44.171079519165815" lon="11.341280488040692"><ele>940.0</ele><time>2026-04-09T12:08:08Z</time></trkpt><trkpt lat="44.171014522412904" lon="11.341298338958907"><ele>939.9999999999999</ele><time>2026-04-09T12:08:10Z</time></trkpt><trkpt lat="44.170935782287884" lon="11.341313837421975"><ele>940.0</ele><time>2026-04-09T12:08:12Z</time></trkpt><trkpt lat="44.17085141708784" lon="11.341328658695506"><ele>940.0</ele><time>2026-04-09T12:08:15Z</time></trkpt><trkpt lat="44.17077670756179" lon="11.341296726011576"><ele>940.0</ele><time>2026-04-09T12:08:18Z</time></trkpt><trkpt lat="44.17069708687997" lon="11.341254269742867"><ele>939.9999999999999</ele><time>2026-04-09T12:08:21Z</time></trkpt><trkpt lat="44.17062287559409" lon="11.341158116065857"><ele>940.0</ele><time>2026-04-09T12:08:24Z</time></trkpt><trkpt lat="44.17056236695818" lon="11.341121921043463"><ele>937.8333333333333</ele><time>2026-04-09T12:08:27Z</time></trkpt><trkpt lat="44.17050759022445" lon="11.341068286759283"><ele>935.6666666666666</ele><time>2026-04-09T12:08:30Z</time></trkpt><trkpt lat="44.17043730003138" lon="11.341050600991048"><ele>933.5</ele><time>2026-04-09T12:08:33Z</time></trkpt><trkpt lat="44.17034871319623" lon="11.341036223852942"><ele>931.3333333333333</ele><time>2026-04-09T12:08:36Z</time></trkpt><trkpt lat="44.17027945610168" lon="11.34103300142405"><ele>929.1666666666666</ele><time>2026-04-09T12:08:38Z</time></trkpt><trkpt lat="44.1702077992044" lon="11.34103507390188"><ele>927.0</ele><time>2026-04-09T12:08:40Z</time></trkpt><trkpt lat="44.17011344318788" lon="11.341020892526698"><ele>926.9999999999999</ele><time>2026-04-09T12:08:43Z</time></trkpt><trkpt lat="44.17005633106328" lon="11.340972855007319"><ele>927.0</ele><time>2026-04-09T12:08:45Z</time></trkpt><trkpt lat="44.170016376614974" lon="11.340871794908336"><ele>926.9999999999999</ele><time>2026-04-09T12:08:48Z</time></trkpt><trkpt lat="44.16997421572106" lon="11.340786128484266"><ele>926.9999999999999</ele><time>2026-04-09T12:08:51Z</time></trkpt><trkpt lat="44.169940042958714" lon="11.340687239353544"><ele>927.0</ele><time>2026-04-09T12:08:54Z</time></trkpt><trkpt lat="44.16990482660209" lon="11.34060480782977"><ele>926.9999999999999</ele><time>2026-04-09T12:08:56Z</time></trkpt><trkpt lat="44.16985854435966" lon="11.340528341706124"><ele>926.9999999999999</ele><time>2026-04-09T12:08:58Z</time></trkpt><trkpt lat="44.16981305837816" lon="11.340431372190913"><ele>923.6666666666666</ele><time>2026-04-09T12:09:00Z</time></trkpt><trkpt lat="44.16977117879309" lon="11.34035616185215"><ele>920.3333333333333</ele><time>2026-04-09T12:09:02Z</time></trkpt><trkpt lat="44.169714848345215" lon="11.340251207943743"><ele>917.0</ele><time>2026-04-09T12:09:05Z</time></trkpt><trkpt lat="44.169669651425124" lon="11.340164520058234"><ele>913.6666666666666</ele><time>2026-04-09T12:09:07Z</time></trkpt><trkpt lat="44.16962574016567" lon="11.34008304141995"><ele>910.3333333333333</ele><time>2026-04-09T12:09:08.999Z</time></trkpt><trkpt lat="44.169568477710314" lon="11.340014482865369"><ele>907.0</ele><time>2026-04-09T12:09:10.999Z</time></trkpt><trkpt lat="44.16952253293864" lon="11.33993346763744"><ele>906.9999999999999</ele><time>2026-04-09T12:09:12.999Z</time></trkpt><trkpt lat="44.16947317138102" lon="11.33984895910855"><ele>907.0</ele><time>2026-04-09T12:09:14.999Z</time></trkpt><trkpt lat="44.169428470305576" lon="11.339759719367304"><ele>907.0</ele><time>2026-04-09T12:09:16.999Z</time></trkpt><trkpt lat="44.1693726691896" lon="11.339661588339705"><ele>907.0</ele><time>2026-04-09T12:09:18.999Z</time></trkpt><trkpt lat="44.169315589482" lon="11.339574346894931"><ele>906.9999999999999</ele><time>2026-04-09T12:09:20.999Z</time></trkpt><trkpt lat="44.169255970752424" lon="11.339516695122809"><ele>907.0</ele><time>2026-04-09T12:09:22.999Z</time></trkpt><trkpt lat="44.16920355374521" lon="11.33945964595633"><ele>905.857142857143</ele><time>2026-04-09T12:09:25.999Z</time></trkpt><trkpt lat="44.16911820513848" lon="11.33942430589198"><ele>904.7142857142858</ele><time>2026-04-09T12:09:37Z</time></trkpt><trkpt lat="44.16905407997171" lon="11.339396046433542"><ele>903.5714285714286</ele><time>2026-04-09T12:09:39Z</time></trkpt><trkpt lat="44.16898143679296" lon="11.339354363147468"><ele>902.4285714285714</ele><time>2026-04-09T12:09:43Z</time></trkpt><trkpt lat="44.16891675878012" lon="11.339314808007998"><ele>901.2857142857142</ele><time>2026-04-09T12:09:46Z</time></trkpt><trkpt lat="44.16885893509217" lon="11.339255724776583"><ele>900.142857142857</ele><time>2026-04-09T12:09:49Z</time></trkpt><trkpt lat="44.16879987450192" lon="11.339207453075248"><ele>898.9999999999999</ele><time>2026-04-09T12:09:51Z</time></trkpt><trkpt lat="44.16872118218446" lon="11.339136337927794"><ele>897.8333333333334</ele><time>2026-04-09T12:09:54Z</time></trkpt><trkpt lat="44.16865584589159" lon="11.339076222216418"><ele>896.6666666666667</ele><time>2026-04-09T12:09:56Z</time></trkpt><trkpt lat="44.16861042366819" lon="11.338990596493932"><ele>895.5</ele><time>2026-04-09T12:09:58Z</time></trkpt><trkpt lat="44.168586179617826" lon="11.338896393295924"><ele>894.3333333333333</ele><time>2026-04-09T12:10:00Z</time></trkpt><trkpt lat="44.168548258012564" lon="11.338786696889102"><ele>893.1666666666666</ele><time>2026-04-09T12:10:02Z</time></trkpt><trkpt lat="44.16850118332492" lon="11.33868413046021"><ele>892.0</ele><time>2026-04-09T12:10:04Z</time></trkpt><trkpt lat="44.16842986340197" lon="11.33858174241512"><ele>890.4000000000001</ele><time>2026-04-09T12:10:06Z</time></trkpt><trkpt lat="44.16836684562793" lon="11.338496714069926"><ele>888.8000000000001</ele><time>2026-04-09T12:10:08Z</time></trkpt><trkpt lat="44.168301975798464" lon="11.338412933329096"><ele>887.2</ele><time>2026-04-09T12:10:10Z</time></trkpt><trkpt lat="44.16822431035091" lon="11.33833433897831"><ele>885.6</ele><time>2026-04-09T12:10:12Z</time></trkpt><trkpt lat="44.168147994163284" lon="11.338259891545986"><ele>884.0</ele><time>2026-04-09T12:10:14Z</time></trkpt><trkpt lat="44.168067915101844" lon="11.338187353091813"><ele>882.6666666666667</ele><time>2026-04-09T12:10:16Z</time></trkpt><trkpt lat="44.1680078285844" lon="11.338104929998865"><ele>881.3333333333334</ele><time>2026-04-09T12:10:18Z</time></trkpt><trkpt lat="44.167935620594456" lon="11.338037665738666"><ele>880.0</ele><time>2026-04-09T12:10:20Z</time></trkpt><trkpt lat="44.16785772541968" lon="11.337979386088083"><ele>878.6666666666667</ele><time>2026-04-09T12:10:22Z</time></trkpt><trkpt lat="44.16779293554741" lon="11.33792978903674"><ele>877.3333333333334</ele><time>2026-04-09T12:10:24Z</time></trkpt><trkpt lat="44.1677435142039" lon="11.337872934019344"><ele>876.0</ele><time>2026-04-09T12:10:26Z</time></trkpt><trkpt lat="44.16768445765873" lon="11.337828362437184"><ele>875.5</ele><time>2026-04-09T12:10:28Z</time></trkpt><trkpt lat="44.1676081197659" lon="11.337775518247865"><ele>875.0</ele><time>2026-04-09T12:10:30Z</time></trkpt><trkpt lat="44.1675429871585" lon="11.33771926660392"><ele>874.5</ele><time>2026-04-09T12:10:32Z</time></trkpt><trkpt lat="44.167488224432915" lon="11.337638170096966"><ele>874.0</ele><time>2026-04-09T12:10:34Z</time></trkpt><trkpt lat="44.16741406165962" lon="11.337550957236406"><ele>873.5</ele><time>2026-04-09T12:10:36Z</time></trkpt><trkpt lat="44.16734873826636" lon="11.33747020384496"><ele>873.0</ele><time>2026-04-09T12:10:38Z</time></trkpt><trkpt lat="44.16726820101646" lon="11.337406100182637"><ele>871.1666666666666</ele><time>2026-04-09T12:10:40Z</time></trkpt><trkpt lat="44.16719512321905" lon="11.33733607696019"><ele>869.3333333333333</ele><time>2026-04-09T12:10:42Z</time></trkpt><trkpt lat="44.16711318690054" lon="11.337283334756512"><ele>867.5</ele><time>2026-04-09T12:10:44Z</time></trkpt><trkpt lat="44.16704892164212" lon="11.337217096384768"><ele>865.6666666666666</ele><time>2026-04-09T12:10:46Z</time></trkpt><trkpt lat="44.16699109994368" lon="11.337161216819053"><ele>863.8333333333333</ele><time>2026-04-09T12:10:48Z</time></trkpt><trkpt lat="44.1669130833825" lon="11.337136167784857"><ele>862.0</ele><time>2026-04-09T12:10:50Z</time></trkpt><trkpt lat="44.166862208313454" lon="11.337070713292805"><ele>861.4999999999999</ele><time>2026-04-09T12:10:53Z</time></trkpt><trkpt lat="44.16680590479907" lon="11.336966550380398"><ele>861.0</ele><time>2026-04-09T12:10:56Z</time></trkpt><trkpt lat="44.16675164205207" lon="11.336856787627733"><ele>860.5</ele><time>2026-04-09T12:10:58Z</time></trkpt><trkpt lat="44.16671452894509" lon="11.336785222378124"><ele>860.0</ele><time>2026-04-09T12:11:00Z</time></trkpt><trkpt lat="44.16667793958231" lon="11.336693282125982"><ele>859.4999999999999</ele><time>2026-04-09T12:11:02Z</time></trkpt><trkpt lat="44.166658291121145" lon="11.336588757483048"><ele>859.0</ele><time>2026-04-09T12:11:04Z</time></trkpt><trkpt lat="44.16662725219585" lon="11.336483251025406"><ele>858.9999999999999</ele><time>2026-04-09T12:11:06Z</time></trkpt><trkpt lat="44.16658170021314" lon="11.336408388239366"><ele>859.0</ele><time>2026-04-09T12:11:08Z</time></trkpt><trkpt lat="44.16649920231806" lon="11.336364027328822"><ele>859.0</ele><time>2026-04-09T12:11:11Z</time></trkpt><trkpt lat="44.166420482314635" lon="11.336344136330073"><ele>859.0</ele><time>2026-04-09T12:11:14Z</time></trkpt><trkpt lat="44.166327455361724" lon="11.336370735149304"><ele>858.9999999999999</ele><time>2026-04-09T12:11:16Z</time></trkpt><trkpt lat="44.16626898680812" lon="11.336405169504735"><ele>859.0</ele><time>2026-04-09T12:11:17Z</time></trkpt><trkpt lat="44.16618126993092" lon="11.33646989596613"><ele>858.3333333333333</ele><time>2026-04-09T12:11:19Z</time></trkpt><trkpt lat="44.16609719800169" lon="11.336520593246165"><ele>857.6666666666666</ele><time>2026-04-09T12:11:20.999Z</time></trkpt><trkpt lat="44.16603189268445" lon="11.336591409927527"><ele>857.0</ele><time>2026-04-09T12:11:22.999Z</time></trkpt><trkpt lat="44.16594929455222" lon="11.33662477550267"><ele>856.3333333333333</ele><time>2026-04-09T12:11:24.999Z</time></trkpt><trkpt lat="44.16587644015459" lon="11.336627447937824"><ele>855.6666666666666</ele><time>2026-04-09T12:11:26.999Z</time></trkpt><trkpt lat="44.16580938461311" lon="11.336652544333996"><ele>855.0</ele><time>2026-04-09T12:11:28.999Z</time></trkpt><trkpt lat="44.165761178068436" lon="11.33658624365306"><ele>855.0</ele><time>2026-04-09T12:11:30.999Z</time></trkpt><trkpt lat="44.1657240496688" lon="11.336509724816699"><ele>855.0</ele><time>2026-04-09T12:11:32.999Z</time></trkpt><trkpt lat="44.16560472002245" lon="11.336360425405584"><ele>855.0</ele><time>2026-04-09T12:11:33.999Z</time></trkpt><trkpt lat="44.16554547023705" lon="11.336283787517143"><ele>855.0</ele><time>2026-04-09T12:11:34.999Z</time></trkpt><trkpt lat="44.16554079135845" lon="11.336170032584036"><ele>855.0</ele><time>2026-04-09T12:12:03Z</time></trkpt><trkpt lat="44.16547161151625" lon="11.336117093150778"><ele>854.4</ele><time>2026-04-09T12:12:04Z</time></trkpt><trkpt lat="44.165455955639494" lon="11.335996745548607"><ele>853.8</ele><time>2026-04-09T12:12:05Z</time></trkpt><trkpt lat="44.16544633079855" lon="11.335864629871162"><ele>853.2</ele><time>2026-04-09T12:12:06Z</time></trkpt><trkpt lat="44.16543673568019" lon="11.33571953593675"><ele>852.6</ele><time>2026-04-09T12:12:07Z</time></trkpt><trkpt lat="44.165420821240076" lon="11.33555840584392"><ele>852.0</ele><time>2026-04-09T12:12:08Z</time></trkpt><trkpt lat="44.165406346562435" lon="11.335421240319983"><ele>851.8</ele><time>2026-04-09T12:12:09Z</time></trkpt><trkpt lat="44.165392187714794" lon="11.335289178223164"><ele>851.6</ele><time>2026-04-09T12:12:10Z</time></trkpt><trkpt lat="44.16537034736002" lon="11.335144881857524"><ele>851.4</ele><time>2026-04-09T12:12:11Z</time></trkpt><trkpt lat="44.16532892985103" lon="11.334999705064307"><ele>851.1999999999999</ele><time>2026-04-09T12:12:12Z</time></trkpt><trkpt lat="44.1652613065324" lon="11.334857348194086"><ele>851.0</ele><time>2026-04-09T12:12:13Z</time></trkpt><trkpt lat="44.165183840445216" lon="11.334738486181628"><ele>850.5</ele><time>2026-04-09T12:12:14Z</time></trkpt><trkpt lat="44.165098537965406" lon="11.334616739249748"><ele>850.0</ele><time>2026-04-09T12:12:15Z</time></trkpt><trkpt lat="44.16500831922845" lon="11.334493291448196"><ele>849.5</ele><time>2026-04-09T12:12:16Z</time></trkpt><trkpt lat="44.164934609801506" lon="11.33437842366411"><ele>849.0</ele><time>2026-04-09T12:12:17Z</time></trkpt><trkpt lat="44.16486234649407" lon="11.334272662323116"><ele>849.0</ele><time>2026-04-09T12:12:18Z</time></trkpt><trkpt lat="44.16478421113426" lon="11.334159720033043"><ele>849.0</ele><time>2026-04-09T12:12:19Z</time></trkpt><trkpt lat="44.164708170070156" lon="11.334025959135257"><ele>849.0</ele><time>2026-04-09T12:12:20Z</time></trkpt><trkpt lat="44.164641929226924" lon="11.333908402871305"><ele>849.0</ele><time>2026-04-09T12:12:21Z</time></trkpt><trkpt lat="44.16458900862667" lon="11.333770370164872"><ele>848.5</ele><time>2026-04-09T12:12:22Z</time></trkpt><trkpt lat="44.16453797223652" lon="11.333615371292757"><ele>848.0</ele><time>2026-04-09T12:12:23Z</time></trkpt><trkpt lat="44.164517054835756" lon="11.333434844867151"><ele>847.5</ele><time>2026-04-09T12:12:24Z</time></trkpt><trkpt lat="44.16449407631608" lon="11.333276460012637"><ele>847.0</ele><time>2026-04-09T12:12:25Z</time></trkpt><trkpt lat="44.164464540341704" lon="11.333128718047623"><ele>848.5</ele><time>2026-04-09T12:12:26Z</time></trkpt><trkpt lat="44.16440778447219" lon="11.332988473630044"><ele>850.0</ele><time>2026-04-09T12:12:27Z</time></trkpt><trkpt lat="44.16433464920077" lon="11.33286989039013"><ele>851.5</ele><time>2026-04-09T12:12:28Z</time></trkpt><trkpt lat="44.16424180143033" lon="11.332756110031571"><ele>853.0</ele><time>2026-04-09T12:12:29Z</time></trkpt><trkpt lat="44.16413975169903" lon="11.33266095544883"><ele>853.0</ele><time>2026-04-09T12:12:30Z</time></trkpt><trkpt lat="44.16405952573239" lon="11.332518909187014"><ele>853.0</ele><time>2026-04-09T12:12:31Z</time></trkpt><trkpt lat="44.163987235719816" lon="11.33234284354157"><ele>853.0</ele><time>2026-04-09T12:12:32Z</time></trkpt><trkpt lat="44.16389904236828" lon="11.33217622991322"><ele>853.0</ele><time>2026-04-09T12:12:33Z</time></trkpt><trkpt lat="44.16378854332635" lon="11.332028649368343"><ele>852.5</ele><time>2026-04-09T12:12:34Z</time></trkpt><trkpt lat="44.163710035863765" lon="11.33188316554436"><ele>852.0</ele><time>2026-04-09T12:12:35Z</time></trkpt><trkpt lat="44.16357867637551" lon="11.331794980686903"><ele>851.5</ele><time>2026-04-09T12:12:36Z</time></trkpt><trkpt lat="44.16345813860284" lon="11.331701696423517"><ele>851.0</ele><time>2026-04-09T12:12:37Z</time></trkpt><trkpt lat="44.163330288521" lon="11.33161206744533"><ele>851.0</ele><time>2026-04-09T12:12:38Z</time></trkpt><trkpt lat="44.16319810737036" lon="11.331514721214447"><ele>851.0</ele><time>2026-04-09T12:12:39Z</time></trkpt><trkpt lat="44.163080664659844" lon="11.331428065927481"><ele>851.0</ele><time>2026-04-09T12:12:40Z</time></trkpt><trkpt lat="44.16298163931955" lon="11.33135620415815"><ele>851.0</ele><time>2026-04-09T12:12:41Z</time></trkpt><trkpt lat="44.162899767758105" lon="11.331274980356222"><ele>851.5999999999999</ele><time>2026-04-09T12:12:42Z</time></trkpt><trkpt lat="44.16284762882497" lon="11.33115350094197"><ele>852.2</ele><time>2026-04-09T12:12:43Z</time></trkpt><trkpt lat="44.16282139205411" lon="11.331034574650229"><ele>852.8000000000001</ele><time>2026-04-09T12:12:44Z</time></trkpt><trkpt lat="44.16279732914085" lon="11.3309098965993"><ele>853.4000000000001</ele><time>2026-04-09T12:12:45Z</time></trkpt><trkpt lat="44.16285390369212" lon="11.330758924541051"><ele>854.0</ele><time>2026-04-09T12:12:46Z</time></trkpt><trkpt lat="44.16285906558681" lon="11.330584816409571"><ele>856.2</ele><time>2026-04-09T12:12:47Z</time></trkpt><trkpt lat="44.162882171004895" lon="11.330428262862675"><ele>858.4000000000001</ele><time>2026-04-09T12:12:48Z</time></trkpt><trkpt lat="44.16287911215396" lon="11.33029199587888"><ele>860.6</ele><time>2026-04-09T12:12:49Z</time></trkpt><trkpt lat="44.162851641217955" lon="11.330152690455481"><ele>862.8</ele><time>2026-04-09T12:12:50Z</time></trkpt><trkpt lat="44.162793173422465" lon="11.330017403675622"><ele>865.0</ele><time>2026-04-09T12:12:51Z</time></trkpt><trkpt lat="44.16271422953674" lon="11.329896501736608"><ele>865.0</ele><time>2026-04-09T12:12:52Z</time></trkpt><trkpt lat="44.16261607248411" lon="11.329788600579493"><ele>865.0</ele><time>2026-04-09T12:12:53Z</time></trkpt><trkpt lat="44.162509596601744" lon="11.329703680576763"><ele>865.0</ele><time>2026-04-09T12:12:54Z</time></trkpt><trkpt lat="44.16240678173569" lon="11.329650482786395"><ele>865.0</ele><time>2026-04-09T12:12:55Z</time></trkpt><trkpt lat="44.16227635053746" lon="11.329641386280423"><ele>869.0</ele><time>2026-04-09T12:12:56Z</time></trkpt><trkpt lat="44.16211337767167" lon="11.32966549202061"><ele>873.0</ele><time>2026-04-09T12:12:57Z</time></trkpt><trkpt lat="44.16197740032307" lon="11.329625635522941"><ele>877.0</ele><time>2026-04-09T12:12:58Z</time></trkpt><trkpt lat="44.16187787199779" lon="11.329596459743719"><ele>881.0</ele><time>2026-04-09T12:12:59Z</time></trkpt><trkpt lat="44.161770449723576" lon="11.329542494711633"><ele>881.0</ele><time>2026-04-09T12:13:00Z</time></trkpt><trkpt lat="44.16165493076132" lon="11.32947532226953"><ele>881.0</ele><time>2026-04-09T12:13:01Z</time></trkpt><trkpt lat="44.16155271026335" lon="11.3293956522523"><ele>881.0</ele><time>2026-04-09T12:13:02Z</time></trkpt><trkpt lat="44.161464446817874" lon="11.329300226484134"><ele>881.0</ele><time>2026-04-09T12:13:03Z</time></trkpt><trkpt lat="44.161403427869466" lon="11.329193910230849"><ele>881.25</ele><time>2026-04-09T12:13:04Z</time></trkpt><trkpt lat="44.16135620882427" lon="11.329061485649435"><ele>881.5</ele><time>2026-04-09T12:13:05Z</time></trkpt><trkpt lat="44.161324254386834" lon="11.32889334995104"><ele>881.75</ele><time>2026-04-09T12:13:06Z</time></trkpt><trkpt lat="44.161298302991504" lon="11.328703075311335"><ele>882.0</ele><time>2026-04-09T12:13:07Z</time></trkpt><trkpt lat="44.16126703937163" lon="11.328496145253354"><ele>882.0</ele><time>2026-04-09T12:13:08Z</time></trkpt><trkpt lat="44.16123318899024" lon="11.328271619153227"><ele>882.0</ele><time>2026-04-09T12:13:09Z</time></trkpt><trkpt lat="44.161194994725115" lon="11.328058236065068"><ele>882.0</ele><time>2026-04-09T12:13:10Z</time></trkpt><trkpt lat="44.161146970820596" lon="11.327845205648831"><ele>882.3333333333333</ele><time>2026-04-09T12:13:11Z</time></trkpt><trkpt lat="44.16108854870225" lon="11.327628548297925"><ele>882.6666666666666</ele><time>2026-04-09T12:13:12Z</time></trkpt><trkpt lat="44.16101517589161" lon="11.327408772975222"><ele>883.0</ele><time>2026-04-09T12:13:13Z</time></trkpt><trkpt lat="44.16092093069624" lon="11.327212628715582"><ele>884.25</ele><time>2026-04-09T12:13:14Z</time></trkpt><trkpt lat="44.16083856667716" lon="11.327043613681449"><ele>885.5</ele><time>2026-04-09T12:13:15Z</time></trkpt><trkpt lat="44.16077651109594" lon="11.326863422918542"><ele>886.75</ele><time>2026-04-09T12:13:16Z</time></trkpt><trkpt lat="44.160700169322354" lon="11.326677357563465"><ele>888.0</ele><time>2026-04-09T12:13:17Z</time></trkpt><trkpt lat="44.1606244742614" lon="11.326483210542339"><ele>886.0</ele><time>2026-04-09T12:13:18Z</time></trkpt><trkpt lat="44.16055000167313" lon="11.32628222917158"><ele>884.0</ele><time>2026-04-09T12:13:19Z</time></trkpt><trkpt lat="44.160480216777216" lon="11.326080554375546"><ele>882.0</ele><time>2026-04-09T12:13:20Z</time></trkpt><trkpt lat="44.1604105955761" lon="11.325871208462383"><ele>882.0</ele><time>2026-04-09T12:13:21Z</time></trkpt><trkpt lat="44.16034329803056" lon="11.32565616284915"><ele>882.0</ele><time>2026-04-09T12:13:22Z</time></trkpt><trkpt lat="44.160275056128896" lon="11.325434774466812"><ele>882.0</ele><time>2026-04-09T12:13:23Z</time></trkpt><trkpt lat="44.160209579083144" lon="11.325218875518567"><ele>884.0</ele><time>2026-04-09T12:13:24Z</time></trkpt><trkpt lat="44.160147243728915" lon="11.325006155639537"><ele>886.0</ele><time>2026-04-09T12:13:25Z</time></trkpt><trkpt lat="44.16009463064912" lon="11.324811953864899"><ele>888.0</ele><time>2026-04-09T12:13:26Z</time></trkpt><trkpt lat="44.1600492165229" lon="11.324640129593295"><ele>890.0</ele><time>2026-04-09T12:13:26.999Z</time></trkpt><trkpt lat="44.15999022666957" lon="11.324474016885922"><ele>890.25</ele><time>2026-04-09T12:13:27.999Z</time></trkpt><trkpt lat="44.15995327370591" lon="11.324290013234117"><ele>890.5</ele><time>2026-04-09T12:13:28.999Z</time></trkpt><trkpt lat="44.15989653541444" lon="11.324117556728634"><ele>890.75</ele><time>2026-04-09T12:13:29.999Z</time></trkpt><trkpt lat="44.15981693317083" lon="11.323964197990483"><ele>891.0</ele><time>2026-04-09T12:13:30.999Z</time></trkpt><trkpt lat="44.159711377608154" lon="11.323830692060033"><ele>893.6666666666667</ele><time>2026-04-09T12:13:31.999Z</time></trkpt><trkpt lat="44.15958181897229" lon="11.323710350842317"><ele>896.3333333333334</ele><time>2026-04-09T12:13:32.999Z</time></trkpt><trkpt lat="44.15943487051036" lon="11.32360629635657"><ele>899.0</ele><time>2026-04-09T12:13:33.999Z</time></trkpt><trkpt lat="44.15928354006453" lon="11.323504353286776"><ele>899.0</ele><time>2026-04-09T12:13:34.999Z</time></trkpt><trkpt lat="44.15915058362963" lon="11.323421742618809"><ele>899.0</ele><time>2026-04-09T12:13:35.999Z</time></trkpt><trkpt lat="44.159034966635936" lon="11.323344422306121"><ele>899.0</ele><time>2026-04-09T12:13:36.999Z</time></trkpt><trkpt lat="44.15894394477872" lon="11.323224252859957"><ele>899.0</ele><time>2026-04-09T12:13:37.999Z</time></trkpt><trkpt lat="44.15884099012014" lon="11.323085615205757"><ele>901.0</ele><time>2026-04-09T12:13:38.999Z</time></trkpt><trkpt lat="44.158720422318986" lon="11.322961265185963"><ele>903.0</ele><time>2026-04-09T12:13:39.999Z</time></trkpt><trkpt lat="44.15859511565974" lon="11.322838250237869"><ele>905.0</ele><time>2026-04-09T12:13:40.999Z</time></trkpt><trkpt lat="44.158442748933226" lon="11.322734446290976"><ele>905.0</ele><time>2026-04-09T12:13:41.999Z</time></trkpt><trkpt lat="44.15830727850017" lon="11.322660347281724"><ele>905.0</ele><time>2026-04-09T12:13:42.999Z</time></trkpt><trkpt lat="44.15817695782159" lon="11.322623750509864"><ele>905.0</ele><time>2026-04-09T12:13:43.999Z</time></trkpt><trkpt lat="44.15804468549691" lon="11.322626435731296"><ele>905.0</ele><time>2026-04-09T12:13:44.999Z</time></trkpt><trkpt lat="44.157903389359525" lon="11.322677147608733"><ele>905.3333333333334</ele><time>2026-04-09T12:13:45.999Z</time></trkpt><trkpt lat="44.15775557300656" lon="11.322786829426713"><ele>905.6666666666667</ele><time>2026-04-09T12:13:46.999Z</time></trkpt><trkpt lat="44.15762232601481" lon="11.32296156947102"><ele>906.0</ele><time>2026-04-09T12:13:47.999Z</time></trkpt><trkpt lat="44.15751209610064" lon="11.323108385286755"><ele>904.75</ele><time>2026-04-09T12:13:49Z</time></trkpt><trkpt lat="44.15741830303319" lon="11.323229505335897"><ele>903.5</ele><time>2026-04-09T12:13:50Z</time></trkpt><trkpt lat="44.15729176790461" lon="11.32329622283127"><ele>902.25</ele><time>2026-04-09T12:13:51Z</time></trkpt><trkpt lat="44.15714939781786" lon="11.323365565907352"><ele>901.0</ele><time>2026-04-09T12:13:52Z</time></trkpt><trkpt lat="44.15701587345291" lon="11.323422953454712"><ele>901.0</ele><time>2026-04-09T12:13:53Z</time></trkpt><trkpt lat="44.15688563438427" lon="11.323415388011282"><ele>901.0</ele><time>2026-04-09T12:13:54Z</time></trkpt><trkpt lat="44.156763545679404" lon="11.323337434773602"><ele>901.0</ele><time>2026-04-09T12:13:55Z</time></trkpt><trkpt lat="44.15661575032866" lon="11.323268767843238"><ele>901.0</ele><time>2026-04-09T12:13:56Z</time></trkpt><trkpt lat="44.156459562114925" lon="11.323209756248836"><ele>900.5</ele><time>2026-04-09T12:13:57Z</time></trkpt><trkpt lat="44.156322212790585" lon="11.32315155331274"><ele>900.0</ele><time>2026-04-09T12:13:58Z</time></trkpt><trkpt lat="44.15618527997444" lon="11.323141765552126"><ele>899.5</ele><time>2026-04-09T12:13:59Z</time></trkpt><trkpt lat="44.15604857627487" lon="11.3231605645918"><ele>899.0</ele><time>2026-04-09T12:14:00Z</time></trkpt><trkpt lat="44.15592066816261" lon="11.323231950950905"><ele>899.0</ele><time>2026-04-09T12:14:01Z</time></trkpt><trkpt lat="44.155796970169526" lon="11.323333817955815"><ele>899.0</ele><time>2026-04-09T12:14:02Z</time></trkpt><trkpt lat="44.155677681160626" lon="11.32348231023503"><ele>899.0</ele><time>2026-04-09T12:14:03Z</time></trkpt><trkpt lat="44.15556837272559" lon="11.323662934354813"><ele>897.6666666666667</ele><time>2026-04-09T12:14:04Z</time></trkpt><trkpt lat="44.15547219814456" lon="11.323854981412351"><ele>896.3333333333333</ele><time>2026-04-09T12:14:05Z</time></trkpt><trkpt lat="44.15538107338638" lon="11.324014677912979"><ele>895.0</ele><time>2026-04-09T12:14:06Z</time></trkpt><trkpt lat="44.15526992275105" lon="11.324153894155335"><ele>895.0</ele><time>2026-04-09T12:14:07Z</time></trkpt><trkpt lat="44.15515090281366" lon="11.324274457812823"><ele>895.0</ele><time>2026-04-09T12:14:08Z</time></trkpt><trkpt lat="44.15502688672232" lon="11.32439628413604"><ele>895.0</ele><time>2026-04-09T12:14:09Z</time></trkpt><trkpt lat="44.15491967930642" lon="11.3245276852914"><ele>895.0</ele><time>2026-04-09T12:14:10Z</time></trkpt><trkpt lat="44.15483127948171" lon="11.324683049203703"><ele>894.0</ele><time>2026-04-09T12:14:11Z</time></trkpt><trkpt lat="44.15476372711767" lon="11.324849969500526"><ele>893.0</ele><time>2026-04-09T12:14:12Z</time></trkpt><trkpt lat="44.154698320438186" lon="11.324994855634603"><ele>892.0</ele><time>2026-04-09T12:14:13Z</time></trkpt><trkpt lat="44.15461353051752" lon="11.325108569317171"><ele>891.0</ele><time>2026-04-09T12:14:14Z</time></trkpt><trkpt lat="44.154504197329935" lon="11.325172149279277"><ele>891.0</ele><time>2026-04-09T12:14:15Z</time></trkpt><trkpt lat="44.15436971250212" lon="11.325165677013976"><ele>891.0</ele><time>2026-04-09T12:14:16Z</time></trkpt><trkpt lat="44.15421780065706" lon="11.325160147029193"><ele>891.0</ele><time>2026-04-09T12:14:17Z</time></trkpt><trkpt lat="44.154051143527965" lon="11.325091564466222"><ele>889.0</ele><time>2026-04-09T12:14:18Z</time></trkpt><trkpt lat="44.15387397968001" lon="11.324997764185456"><ele>887.0</ele><time>2026-04-09T12:14:19Z</time></trkpt><trkpt lat="44.15373422701753" lon="11.324891215003051"><ele>885.0</ele><time>2026-04-09T12:14:20Z</time></trkpt><trkpt lat="44.15361217971588" lon="11.324771128598357"><ele>887.75</ele><time>2026-04-09T12:14:21Z</time></trkpt><trkpt lat="44.15348791953008" lon="11.324653636625374"><ele>890.5</ele><time>2026-04-09T12:14:22Z</time></trkpt><trkpt lat="44.15335170473143" lon="11.32455133904078"><ele>893.25</ele><time>2026-04-09T12:14:23Z</time></trkpt><trkpt lat="44.153220329087944" lon="11.32447042379941"><ele>896.0</ele><time>2026-04-09T12:14:24Z</time></trkpt><trkpt lat="44.15308798716408" lon="11.324421671935156"><ele>898.0</ele><time>2026-04-09T12:14:25Z</time></trkpt><trkpt lat="44.1529533293088" lon="11.324416536216917"><ele>900.0</ele><time>2026-04-09T12:14:26Z</time></trkpt><trkpt lat="44.1528177643403" lon="11.324453433839446"><ele>902.0</ele><time>2026-04-09T12:14:27Z</time></trkpt><trkpt lat="44.15268590083506" lon="11.324539068792612"><ele>904.0</ele><time>2026-04-09T12:14:28Z</time></trkpt><trkpt lat="44.15255429949097" lon="11.324658034272796"><ele>902.3333333333333</ele><time>2026-04-09T12:14:29Z</time></trkpt><trkpt lat="44.15241395279291" lon="11.324786871895517"><ele>900.6666666666667</ele><time>2026-04-09T12:14:30Z</time></trkpt><trkpt lat="44.15227747191822" lon="11.324896947878223"><ele>899.0</ele><time>2026-04-09T12:14:31Z</time></trkpt><trkpt lat="44.15213041673299" lon="11.325018266610014"><ele>899.0</ele><time>2026-04-09T12:14:32Z</time></trkpt><trkpt lat="44.151977828550535" lon="11.325145768585097"><ele>899.0</ele><time>2026-04-09T12:14:33Z</time></trkpt><trkpt lat="44.15181626606865" lon="11.325263133409893"><ele>899.0</ele><time>2026-04-09T12:14:34Z</time></trkpt><trkpt lat="44.151658060498065" lon="11.325411133661662"><ele>900.3333333333334</ele><time>2026-04-09T12:14:35Z</time></trkpt><trkpt lat="44.1514888981674" lon="11.325549856171257"><ele>901.6666666666667</ele><time>2026-04-09T12:14:36Z</time></trkpt><trkpt lat="44.151335511117985" lon="11.325671478713392"><ele>903.0</ele><time>2026-04-09T12:14:37Z</time></trkpt><trkpt lat="44.151195281937106" lon="11.32576143378843"><ele>897.6666666666667</ele><time>2026-04-09T12:14:38Z</time></trkpt><trkpt lat="44.15105781578063" lon="11.325818492346047"><ele>892.3333333333334</ele><time>2026-04-09T12:14:39Z</time></trkpt><trkpt lat="44.150912836450416" lon="11.325854470248512"><ele>887.0</ele><time>2026-04-09T12:14:40Z</time></trkpt><trkpt lat="44.15075371671662" lon="11.325869497764685"><ele>890.0</ele><time>2026-04-09T12:14:41Z</time></trkpt><trkpt lat="44.15058443754257" lon="11.32587543612282"><ele>893.0</ele><time>2026-04-09T12:14:42Z</time></trkpt><trkpt lat="44.15040139362421" lon="11.325878399814165"><ele>896.0</ele><time>2026-04-09T12:14:43Z</time></trkpt><trkpt lat="44.15020769195227" lon="11.325850508274584"><ele>896.0</ele><time>2026-04-09T12:14:44Z</time></trkpt><trkpt lat="44.15004061393692" lon="11.325847602570319"><ele>896.0</ele><time>2026-04-09T12:14:45Z</time></trkpt><trkpt lat="44.1498868205406" lon="11.325843924500528"><ele>896.0</ele><time>2026-04-09T12:14:46Z</time></trkpt><trkpt lat="44.14974473392549" lon="11.32587199589908"><ele>900.0</ele><time>2026-04-09T12:14:47Z</time></trkpt><trkpt lat="44.149609999877924" lon="11.325883853745218"><ele>904.0</ele><time>2026-04-09T12:14:48Z</time></trkpt><trkpt lat="44.14946497700524" lon="11.325976349808878"><ele>908.0</ele><time>2026-04-09T12:14:49Z</time></trkpt><trkpt lat="44.14933681999084" lon="11.326128121921515"><ele>908.0</ele><time>2026-04-09T12:14:50Z</time></trkpt><trkpt lat="44.14918537199316" lon="11.326264138623051"><ele>908.0</ele><time>2026-04-09T12:14:51Z</time></trkpt><trkpt lat="44.14905697791634" lon="11.326407959255816"><ele>908.0</ele><time>2026-04-09T12:14:52Z</time></trkpt><trkpt lat="44.14893501950591" lon="11.326550957062045"><ele>907.0</ele><time>2026-04-09T12:14:53Z</time></trkpt><trkpt lat="44.14882403578677" lon="11.32672142995095"><ele>906.0</ele><time>2026-04-09T12:14:54Z</time></trkpt><trkpt lat="44.14871830301461" lon="11.326865906619048"><ele>905.0</ele><time>2026-04-09T12:14:55Z</time></trkpt><trkpt lat="44.14862221108228" lon="11.327014369936736"><ele>905.0</ele><time>2026-04-09T12:14:56Z</time></trkpt><trkpt lat="44.14852646666605" lon="11.327156936959133"><ele>905.0</ele><time>2026-04-09T12:14:57Z</time></trkpt><trkpt lat="44.14842534678482" lon="11.327263992113512"><ele>905.0</ele><time>2026-04-09T12:14:58Z</time></trkpt><trkpt lat="44.14831133208584" lon="11.327366898155624"><ele>905.0</ele><time>2026-04-09T12:14:59Z</time></trkpt><trkpt lat="44.14820041091631" lon="11.327457168138109"><ele>900.25</ele><time>2026-04-09T12:15:00Z</time></trkpt><trkpt lat="44.14808733449185" lon="11.327499054389444"><ele>895.5</ele><time>2026-04-09T12:15:01Z</time></trkpt><trkpt lat="44.147967073876785" lon="11.327482234351697"><ele>890.75</ele><time>2026-04-09T12:15:02Z</time></trkpt><trkpt lat="44.147851498059374" lon="11.327381292734392"><ele>886.0</ele><time>2026-04-09T12:15:03Z</time></trkpt><trkpt lat="44.14771508356642" lon="11.327307774728567"><ele>887.6666666666666</ele><time>2026-04-09T12:15:04Z</time></trkpt><trkpt lat="44.147579405333005" lon="11.32722651790091"><ele>889.3333333333333</ele><time>2026-04-09T12:15:05Z</time></trkpt><trkpt lat="44.147437061680066" lon="11.327154918440613"><ele>891.0</ele><time>2026-04-09T12:15:06Z</time></trkpt><trkpt lat="44.14728614162303" lon="11.327137350871231"><ele>891.0</ele><time>2026-04-09T12:15:07Z</time></trkpt><trkpt lat="44.14712225145091" lon="11.32715226587992"><ele>891.0</ele><time>2026-04-09T12:15:08Z</time></trkpt><trkpt lat="44.14697083062401" lon="11.327175777683836"><ele>891.0</ele><time>2026-04-09T12:15:09Z</time></trkpt><trkpt lat="44.14683562503277" lon="11.327178227567934"><ele>891.0</ele><time>2026-04-09T12:15:10Z</time></trkpt><trkpt lat="44.14670291692821" lon="11.327153726700534"><ele>891.0</ele><time>2026-04-09T12:15:11Z</time></trkpt><trkpt lat="44.14656642483032" lon="11.327090605146571"><ele>891.0</ele><time>2026-04-09T12:15:12Z</time></trkpt><trkpt lat="44.14642476195206" lon="11.327000312375288"><ele>891.0</ele><time>2026-04-09T12:15:13Z</time></trkpt><trkpt lat="44.14628571794697" lon="11.326909050877212"><ele>887.0</ele><time>2026-04-09T12:15:14Z</time></trkpt><trkpt lat="44.14613969405059" lon="11.326828933713479"><ele>883.0</ele><time>2026-04-09T12:15:15Z</time></trkpt><trkpt lat="44.145997232951174" lon="11.326730332511065"><ele>879.0</ele><time>2026-04-09T12:15:16Z</time></trkpt><trkpt lat="44.145858785019165" lon="11.32664457733297"><ele>879.0</ele><time>2026-04-09T12:15:17Z</time></trkpt><trkpt lat="44.145725465163984" lon="11.326586178915253"><ele>879.0</ele><time>2026-04-09T12:15:18Z</time></trkpt><trkpt lat="44.14558514191712" lon="11.326568540557586"><ele>879.0</ele><time>2026-04-09T12:15:19Z</time></trkpt><trkpt lat="44.14543455191078" lon="11.32658200472708"><ele>879.0</ele><time>2026-04-09T12:15:20Z</time></trkpt><trkpt lat="44.14527263410542" lon="11.326621025084332"><ele>879.5</ele><time>2026-04-09T12:15:21Z</time></trkpt><trkpt lat="44.14512665645541" lon="11.326686115129371"><ele>880.0</ele><time>2026-04-09T12:15:22Z</time></trkpt><trkpt lat="44.14499677375091" lon="11.326779140747288"><ele>880.5</ele><time>2026-04-09T12:15:23Z</time></trkpt><trkpt lat="44.14488507042734" lon="11.326911837389618"><ele>881.0</ele><time>2026-04-09T12:15:24Z</time></trkpt><trkpt lat="44.14479331351541" lon="11.327072695589964"><ele>878.5</ele><time>2026-04-09T12:15:24.999Z</time></trkpt><trkpt lat="44.14472788960099" lon="11.327229868232312"><ele>876.0</ele><time>2026-04-09T12:15:25.999Z</time></trkpt><trkpt lat="44.14466473782829" lon="11.32737614420742"><ele>873.5</ele><time>2026-04-09T12:15:26.999Z</time></trkpt><trkpt lat="44.144572502767915" lon="11.327477350929298"><ele>871.0</ele><time>2026-04-09T12:15:27.999Z</time></trkpt><trkpt lat="44.14445625035158" lon="11.32752430177865"><ele>871.0</ele><time>2026-04-09T12:15:28.999Z</time></trkpt><trkpt lat="44.14432334160125" lon="11.327520260174923"><ele>871.0</ele><time>2026-04-09T12:15:29.999Z</time></trkpt><trkpt lat="44.14416673892636" lon="11.327461450815816"><ele>871.0</ele><time>2026-04-09T12:15:30.999Z</time></trkpt><trkpt lat="44.144002707802755" lon="11.32737527444446"><ele>869.3333333333333</ele><time>2026-04-09T12:15:31.999Z</time></trkpt><trkpt lat="44.14383570208679" lon="11.327281567544672"><ele>867.6666666666667</ele><time>2026-04-09T12:15:32.999Z</time></trkpt><trkpt lat="44.143681295900976" lon="11.327192851351603"><ele>866.0</ele><time>2026-04-09T12:15:33.999Z</time></trkpt><trkpt lat="44.143533166002626" lon="11.32714134969896"><ele>868.0</ele><time>2026-04-09T12:15:34.999Z</time></trkpt><trkpt lat="44.14337353837068" lon="11.327127893787184"><ele>870.0</ele><time>2026-04-09T12:15:35.999Z</time></trkpt><trkpt lat="44.14319228538612" lon="11.327139843493583"><ele>872.0</ele><time>2026-04-09T12:15:36.999Z</time></trkpt><trkpt lat="44.14299339163261" lon="11.32716239684319"><ele>872.0</ele><time>2026-04-09T12:15:37.999Z</time></trkpt><trkpt lat="44.14281475582116" lon="11.327198758016815"><ele>872.0</ele><time>2026-04-09T12:15:38.999Z</time></trkpt><trkpt lat="44.14264982707335" lon="11.3272443935488"><ele>872.0</ele><time>2026-04-09T12:15:39.999Z</time></trkpt><trkpt lat="44.14248428279726" lon="11.327307000869252"><ele>869.6666666666667</ele><time>2026-04-09T12:15:40.999Z</time></trkpt><trkpt lat="44.14231806122995" lon="11.327402813743042"><ele>867.3333333333333</ele><time>2026-04-09T12:15:41.999Z</time></trkpt><trkpt lat="44.14215192985527" lon="11.32752932386926"><ele>865.0</ele><time>2026-04-09T12:15:42.999Z</time></trkpt><trkpt lat="44.141983563487265" lon="11.327675326883314"><ele>865.0</ele><time>2026-04-09T12:15:43.999Z</time></trkpt><trkpt lat="44.141823647108275" lon="11.327781054595066"><ele>865.0</ele><time>2026-04-09T12:15:44.999Z</time></trkpt><trkpt lat="44.14170025385267" lon="11.327901676520222"><ele>865.0</ele><time>2026-04-09T12:15:45.999Z</time></trkpt><trkpt lat="44.14158567117203" lon="11.327984284368936"><ele>863.5</ele><time>2026-04-09T12:15:46.999Z</time></trkpt><trkpt lat="44.14147316821671" lon="11.328071812371673"><ele>862.0</ele><time>2026-04-09T12:15:47.999Z</time></trkpt><trkpt lat="44.14136528151927" lon="11.328158271959357"><ele>860.5</ele><time>2026-04-09T12:15:48.999Z</time></trkpt><trkpt lat="44.14125852179376" lon="11.328242593581729"><ele>859.0</ele><time>2026-04-09T12:15:49.999Z</time></trkpt><trkpt lat="44.141147507723176" lon="11.32833191653445"><ele>859.0</ele><time>2026-04-09T12:15:50.999Z</time></trkpt><trkpt lat="44.14103448797628" lon="11.32842742112087"><ele>859.0000000000001</ele><time>2026-04-09T12:15:51.999Z</time></trkpt><trkpt lat="44.14093865106957" lon="11.32850988099886"><ele>859.0000000000001</ele><time>2026-04-09T12:15:52.999Z</time></trkpt><trkpt lat="44.140847089981825" lon="11.328569158942196"><ele>859.0</ele><time>2026-04-09T12:15:53.999Z</time></trkpt><trkpt lat="44.14074710916195" lon="11.328581019039426"><ele>859.0</ele><time>2026-04-09T12:15:55Z</time></trkpt><trkpt lat="44.140655506808045" lon="11.328541259109507"><ele>855.25</ele><time>2026-04-09T12:15:56Z</time></trkpt><trkpt lat="44.14057476099832" lon="11.32844375401287"><ele>851.5</ele><time>2026-04-09T12:15:57Z</time></trkpt><trkpt lat="44.14051873957401" lon="11.328304188840983"><ele>847.75</ele><time>2026-04-09T12:15:58Z</time></trkpt><trkpt lat="44.14048899935189" lon="11.328131826982062"><ele>844.0</ele><time>2026-04-09T12:15:59Z</time></trkpt><trkpt lat="44.140479080606056" lon="11.327970946766929"><ele>844.0</ele><time>2026-04-09T12:16:00Z</time></trkpt><trkpt lat="44.140482911523996" lon="11.327832402823436"><ele>844.0</ele><time>2026-04-09T12:16:01Z</time></trkpt><trkpt lat="44.14050567721661" lon="11.327702184758795"><ele>844.0</ele><time>2026-04-09T12:16:02Z</time></trkpt><trkpt lat="44.14056111353253" lon="11.327578075312429"><ele>844.0</ele><time>2026-04-09T12:16:03Z</time></trkpt><trkpt lat="44.14064877333677" lon="11.327465562195975"><ele>844.0</ele><time>2026-04-09T12:16:04Z</time></trkpt><trkpt lat="44.14075730204163" lon="11.327372420172034"><ele>844.5</ele><time>2026-04-09T12:16:05Z</time></trkpt><trkpt lat="44.140874709922244" lon="11.327273529467636"><ele>845.0</ele><time>2026-04-09T12:16:06Z</time></trkpt><trkpt lat="44.14100017827892" lon="11.32716432479921"><ele>845.5</ele><time>2026-04-09T12:16:07Z</time></trkpt><trkpt lat="44.14110762784952" lon="11.327069418095043"><ele>846.0</ele><time>2026-04-09T12:16:08Z</time></trkpt><trkpt lat="44.14119832943165" lon="11.326976831269635"><ele>846.0</ele><time>2026-04-09T12:16:09Z</time></trkpt><trkpt lat="44.14126479159837" lon="11.326860289902873"><ele>846.0</ele><time>2026-04-09T12:16:10Z</time></trkpt><trkpt lat="44.14130578863129" lon="11.326712514658318"><ele>846.0</ele><time>2026-04-09T12:16:11Z</time></trkpt><trkpt lat="44.14131610140719" lon="11.326536974110816"><ele>846.0</ele><time>2026-04-09T12:16:12Z</time></trkpt><trkpt lat="44.141291218609624" lon="11.326347505625806"><ele>846.0</ele><time>2026-04-09T12:16:13Z</time></trkpt><trkpt lat="44.14124427425497" lon="11.32617098531321"><ele>846.0</ele><time>2026-04-09T12:16:14Z</time></trkpt><trkpt lat="44.14118742021053" lon="11.325982785430455"><ele>846.0</ele><time>2026-04-09T12:16:15Z</time></trkpt><trkpt lat="44.141130114750965" lon="11.325808070664076"><ele>846.0</ele><time>2026-04-09T12:16:16Z</time></trkpt><trkpt lat="44.14107852945923" lon="11.325656419687812"><ele>845.5</ele><time>2026-04-09T12:16:17Z</time></trkpt><trkpt lat="44.14104387096903" lon="11.325507990978203"><ele>845.0</ele><time>2026-04-09T12:16:18Z</time></trkpt><trkpt lat="44.14103787132327" lon="11.325356170773997"><ele>844.5</ele><time>2026-04-09T12:16:19Z</time></trkpt><trkpt lat="44.14106481483931" lon="11.325183132028195"><ele>844.0</ele><time>2026-04-09T12:16:20Z</time></trkpt><trkpt lat="44.14111637708589" lon="11.324986992898458"><ele>844.0</ele><time>2026-04-09T12:16:21Z</time></trkpt><trkpt lat="44.14116159063625" lon="11.324783081767572"><ele>844.0</ele><time>2026-04-09T12:16:22Z</time></trkpt><trkpt lat="44.14119769346954" lon="11.324591318176921"><ele>844.0</ele><time>2026-04-09T12:16:23Z</time></trkpt><trkpt lat="44.14123064314827" lon="11.324387056976018"><ele>844.0</ele><time>2026-04-09T12:16:24Z</time></trkpt><trkpt lat="44.141251572964315" lon="11.32417533794273"><ele>843.25</ele><time>2026-04-09T12:16:25Z</time></trkpt><trkpt lat="44.14125558567326" lon="11.323965926897396"><ele>842.5</ele><time>2026-04-09T12:16:26Z</time></trkpt><trkpt lat="44.141254173910255" lon="11.323785035032705"><ele>841.75</ele><time>2026-04-09T12:16:27Z</time></trkpt><trkpt lat="44.14123430718921" lon="11.323610504511649"><ele>841.0</ele><time>2026-04-09T12:16:28Z</time></trkpt><trkpt lat="44.14119010313833" lon="11.323444662720858"><ele>841.0</ele><time>2026-04-09T12:16:29Z</time></trkpt><trkpt lat="44.14112098548704" lon="11.323272292088149"><ele>841.0</ele><time>2026-04-09T12:16:30Z</time></trkpt><trkpt lat="44.14103759472246" lon="11.323077223244299"><ele>841.0</ele><time>2026-04-09T12:16:31Z</time></trkpt><trkpt lat="44.14096402409023" lon="11.322853187952383"><ele>842.3333333333333</ele><time>2026-04-09T12:16:32Z</time></trkpt><trkpt lat="44.140876657583554" lon="11.322615214025435"><ele>843.6666666666667</ele><time>2026-04-09T12:16:33Z</time></trkpt><trkpt lat="44.14079631659936" lon="11.322400805737804"><ele>845.0</ele><time>2026-04-09T12:16:34Z</time></trkpt><trkpt lat="44.14072225719558" lon="11.32220482251991"><ele>843.6</ele><time>2026-04-09T12:16:35Z</time></trkpt><trkpt lat="44.140662769709174" lon="11.322043395066864"><ele>842.2</ele><time>2026-04-09T12:16:36Z</time></trkpt><trkpt lat="44.140616350000265" lon="11.32191624662331"><ele>840.8</ele><time>2026-04-09T12:16:37Z</time></trkpt><trkpt lat="44.140559278495886" lon="11.321812500234659"><ele>839.4</ele><time>2026-04-09T12:16:38Z</time></trkpt><trkpt lat="44.14046836644059" lon="11.321741207886003"><ele>838.0</ele><time>2026-04-09T12:16:39Z</time></trkpt><trkpt lat="44.140348001149974" lon="11.321706009323512"><ele>838.0</ele><time>2026-04-09T12:16:40Z</time></trkpt><trkpt lat="44.140198478663095" lon="11.321683920844285"><ele>838.0</ele><time>2026-04-09T12:16:41Z</time></trkpt><trkpt lat="44.14006023000976" lon="11.321658820568896"><ele>838.0</ele><time>2026-04-09T12:16:42Z</time></trkpt><trkpt lat="44.13994101052557" lon="11.321612254686952"><ele>838.0</ele><time>2026-04-09T12:16:43Z</time></trkpt><trkpt lat="44.139829714976216" lon="11.321538278940512"><ele>835.3333333333333</ele><time>2026-04-09T12:16:44Z</time></trkpt><trkpt lat="44.139722452457924" lon="11.32141768203586"><ele>832.6666666666667</ele><time>2026-04-09T12:16:45Z</time></trkpt><trkpt lat="44.13961382339214" lon="11.321261483444133"><ele>830.0</ele><time>2026-04-09T12:16:46Z</time></trkpt><trkpt lat="44.13949697885923" lon="11.321102885900547"><ele>830.0</ele><time>2026-04-09T12:16:47Z</time></trkpt><trkpt lat="44.13938694360288" lon="11.320963843368519"><ele>830.0</ele><time>2026-04-09T12:16:48Z</time></trkpt><trkpt lat="44.13928410028113" lon="11.32082604575788"><ele>830.0</ele><time>2026-04-09T12:16:49Z</time></trkpt><trkpt lat="44.139174560295544" lon="11.320706459431557"><ele>830.0</ele><time>2026-04-09T12:16:50Z</time></trkpt><trkpt lat="44.13905031924236" lon="11.320598174187703"><ele>828.25</ele><time>2026-04-09T12:16:51Z</time></trkpt><trkpt lat="44.13892507894029" lon="11.320515363752438"><ele>826.5</ele><time>2026-04-09T12:16:52Z</time></trkpt><trkpt lat="44.13881978396847" lon="11.32041304067686"><ele>824.75</ele><time>2026-04-09T12:16:53Z</time></trkpt><trkpt lat="44.13874858332934" lon="11.320284452270203"><ele>823.0</ele><time>2026-04-09T12:16:54Z</time></trkpt><trkpt lat="44.13871773795771" lon="11.320135692627433"><ele>823.0</ele><time>2026-04-09T12:16:55Z</time></trkpt><trkpt lat="44.13872250846688" lon="11.319971961097805"><ele>823.0</ele><time>2026-04-09T12:16:56Z</time></trkpt><trkpt lat="44.138745577411626" lon="11.319777232568448"><ele>823.0</ele><time>2026-04-09T12:16:57Z</time></trkpt><trkpt lat="44.13877120754036" lon="11.319550050872705"><ele>823.0</ele><time>2026-04-09T12:16:58Z</time></trkpt><trkpt lat="44.138790476633915" lon="11.319306560112883"><ele>821.3333333333333</ele><time>2026-04-09T12:16:59Z</time></trkpt><trkpt lat="44.138805167120466" lon="11.319066182035955"><ele>819.6666666666667</ele><time>2026-04-09T12:17:00Z</time></trkpt><trkpt lat="44.138816381948516" lon="11.31880653130552"><ele>818.0</ele><time>2026-04-09T12:17:01Z</time></trkpt><trkpt lat="44.138817181616346" lon="11.318534204191836"><ele>818.0</ele><time>2026-04-09T12:17:02Z</time></trkpt><trkpt lat="44.13882369161811" lon="11.318251468452411"><ele>818.0</ele><time>2026-04-09T12:17:03Z</time></trkpt><trkpt lat="44.138842149577" lon="11.318008793856897"><ele>818.0</ele><time>2026-04-09T12:17:04Z</time></trkpt><trkpt lat="44.138857881183725" lon="11.317800263057041"><ele>819.0</ele><time>2026-04-09T12:17:05Z</time></trkpt><trkpt lat="44.13884402941947" lon="11.317611805122135"><ele>820.0</ele><time>2026-04-09T12:17:06Z</time></trkpt><trkpt lat="44.13880106841526" lon="11.317412850006034"><ele>821.0</ele><time>2026-04-09T12:17:07Z</time></trkpt><trkpt lat="44.138738681735234" lon="11.317214590651348"><ele>822.0</ele><time>2026-04-09T12:17:08Z</time></trkpt><trkpt lat="44.138666695814344" lon="11.317010004732152"><ele>825.3333333333333</ele><time>2026-04-09T12:17:09Z</time></trkpt><trkpt lat="44.13860266705693" lon="11.316805425164642"><ele>828.6666666666666</ele><time>2026-04-09T12:17:10Z</time></trkpt><trkpt lat="44.13854077177933" lon="11.31658580206111"><ele>832.0</ele><time>2026-04-09T12:17:11Z</time></trkpt><trkpt lat="44.138490911911255" lon="11.31634844435953"><ele>832.6666666666666</ele><time>2026-04-09T12:17:12Z</time></trkpt><trkpt lat="44.138461020787325" lon="11.316099360572192"><ele>833.3333333333333</ele><time>2026-04-09T12:17:13Z</time></trkpt><trkpt lat="44.13843664849522" lon="11.31583799418139"><ele>834.0</ele><time>2026-04-09T12:17:14Z</time></trkpt><trkpt lat="44.138413109440485" lon="11.315560765150213"><ele>834.6666666666667</ele><time>2026-04-09T12:17:15Z</time></trkpt><trkpt lat="44.13839280605994" lon="11.31526411456954"><ele>835.3333333333334</ele><time>2026-04-09T12:17:16Z</time></trkpt><trkpt lat="44.13837925936086" lon="11.314979751956074"><ele>836.0</ele><time>2026-04-09T12:17:17Z</time></trkpt><trkpt lat="44.13837075384509" lon="11.314722159087715"><ele>836.0</ele><time>2026-04-09T12:17:18Z</time></trkpt><trkpt lat="44.138365507386375" lon="11.314483427730938"><ele>836.0</ele><time>2026-04-09T12:17:19Z</time></trkpt><trkpt lat="44.13836269112673" lon="11.314251856744175"><ele>836.0</ele><time>2026-04-09T12:17:20Z</time></trkpt><trkpt lat="44.13837786551354" lon="11.314016073733313"><ele>836.0</ele><time>2026-04-09T12:17:21Z</time></trkpt><trkpt lat="44.13840123260641" lon="11.31380876214672"><ele>836.0</ele><time>2026-04-09T12:17:22Z</time></trkpt><trkpt lat="44.13842762111277" lon="11.313616408496571"><ele>836.0</ele><time>2026-04-09T12:17:23Z</time></trkpt><trkpt lat="44.138456067407645" lon="11.313409101233576"><ele>836.0</ele><time>2026-04-09T12:17:24Z</time></trkpt><trkpt lat="44.13848428860268" lon="11.31319245694837"><ele>837.0</ele><time>2026-04-09T12:17:25Z</time></trkpt><trkpt lat="44.13850832399415" lon="11.313009728074428"><ele>838.0</ele><time>2026-04-09T12:17:25.999Z</time></trkpt><trkpt lat="44.13850172829857" lon="11.312841961878252"><ele>839.0</ele><time>2026-04-09T12:17:26.999Z</time></trkpt><trkpt lat="44.13845646834964" lon="11.312698457979847"><ele>840.0</ele><time>2026-04-09T12:17:27.999Z</time></trkpt><trkpt lat="44.13837476708599" lon="11.31255169584817"><ele>840.0</ele><time>2026-04-09T12:17:28.999Z</time></trkpt><trkpt lat="44.13826587390363" lon="11.31238982305546"><ele>840.0</ele><time>2026-04-09T12:17:29.999Z</time></trkpt><trkpt lat="44.138189883096686" lon="11.312253848013677"><ele>840.0</ele><time>2026-04-09T12:17:30.999Z</time></trkpt><trkpt lat="44.138158684660915" lon="11.31210559721879"><ele>840.0</ele><time>2026-04-09T12:17:31.999Z</time></trkpt><trkpt lat="44.13817320210405" lon="11.311930330466513"><ele>842.75</ele><time>2026-04-09T12:17:32.999Z</time></trkpt><trkpt lat="44.13823540066242" lon="11.311748708300241"><ele>845.5</ele><time>2026-04-09T12:17:33.999Z</time></trkpt><trkpt lat="44.13827624292253" lon="11.311545646471625"><ele>848.25</ele><time>2026-04-09T12:17:34.999Z</time></trkpt><trkpt lat="44.1383179544415" lon="11.31136748811321"><ele>851.0</ele><time>2026-04-09T12:17:35.999Z</time></trkpt><trkpt lat="44.13832938369055" lon="11.311213280554286"><ele>851.0</ele><time>2026-04-09T12:17:36.999Z</time></trkpt><trkpt lat="44.13830446375023" lon="11.311043009867856"><ele>851.0</ele><time>2026-04-09T12:17:37.999Z</time></trkpt><trkpt lat="44.138245402873636" lon="11.310857467318359"><ele>851.0</ele><time>2026-04-09T12:17:38.999Z</time></trkpt><trkpt lat="44.138168002283145" lon="11.310647078306381"><ele>851.0</ele><time>2026-04-09T12:17:39.999Z</time></trkpt><trkpt lat="44.13809070483687" lon="11.3104095954696"><ele>851.0</ele><time>2026-04-09T12:17:40.999Z</time></trkpt><trkpt lat="44.13803551283582" lon="11.310196093008638"><ele>851.0</ele><time>2026-04-09T12:17:41.999Z</time></trkpt><trkpt lat="44.13798971143199" lon="11.309999567344537"><ele>851.0</ele><time>2026-04-09T12:17:42.999Z</time></trkpt><trkpt lat="44.137949314292854" lon="11.309791977496758"><ele>852.0</ele><time>2026-04-09T12:17:43.999Z</time></trkpt><trkpt lat="44.137916420676156" lon="11.30960422771462"><ele>853.0</ele><time>2026-04-09T12:17:44.999Z</time></trkpt><trkpt lat="44.13788535063872" lon="11.309439566422462"><ele>854.0</ele><time>2026-04-09T12:17:45.999Z</time></trkpt><trkpt lat="44.137845392456384" lon="11.309286386790697"><ele>855.0</ele><time>2026-04-09T12:17:46.999Z</time></trkpt><trkpt lat="44.13777976447462" lon="11.3091617702677"><ele>855.0</ele><time>2026-04-09T12:17:47.999Z</time></trkpt><trkpt lat="44.13768200341753" lon="11.309053691576372"><ele>855.0</ele><time>2026-04-09T12:17:48.999Z</time></trkpt><trkpt lat="44.137550958333726" lon="11.30896364830028"><ele>855.0</ele><time>2026-04-09T12:17:49.999Z</time></trkpt><trkpt lat="44.13739979433259" lon="11.308873632423905"><ele>855.0</ele><time>2026-04-09T12:17:50.999Z</time></trkpt><trkpt lat="44.137261465994996" lon="11.308776467895289"><ele>856.3333333333333</ele><time>2026-04-09T12:17:51.999Z</time></trkpt><trkpt lat="44.13711534633254" lon="11.30867014405579"><ele>857.6666666666666</ele><time>2026-04-09T12:17:52.999Z</time></trkpt><trkpt lat="44.13696658325804" lon="11.308566824675452"><ele>859.0</ele><time>2026-04-09T12:17:53.999Z</time></trkpt><trkpt lat="44.13684168834592" lon="11.30847749338628"><ele>859.0</ele><time>2026-04-09T12:17:54.999Z</time></trkpt><trkpt lat="44.13673251994618" lon="11.308394754095728"><ele>859.0</ele><time>2026-04-09T12:17:55.999Z</time></trkpt><trkpt lat="44.13664489834087" lon="11.30830493754257"><ele>859.0</ele><time>2026-04-09T12:17:56.999Z</time></trkpt><trkpt lat="44.13657823539502" lon="11.308171650196162"><ele>859.0</ele><time>2026-04-09T12:17:57.999Z</time></trkpt><trkpt lat="44.136478763204785" lon="11.308028426811248"><ele>858.0</ele><time>2026-04-09T12:17:58.999Z</time></trkpt><trkpt lat="44.13639456685802" lon="11.307839687671553"><ele>857.0</ele><time>2026-04-09T12:17:59.999Z</time></trkpt><trkpt lat="44.13631011189675" lon="11.307629884857636"><ele>856.0</ele><time>2026-04-09T12:18:00.999Z</time></trkpt><trkpt lat="44.1362449277189" lon="11.30742423604852"><ele>857.75</ele><time>2026-04-09T12:18:01.999Z</time></trkpt><trkpt lat="44.13619894520321" lon="11.30723284762366"><ele>859.5</ele><time>2026-04-09T12:18:02.999Z</time></trkpt><trkpt lat="44.13616300745136" lon="11.30705557295841"><ele>861.25</ele><time>2026-04-09T12:18:03.999Z</time></trkpt><trkpt lat="44.13610327284799" lon="11.306890681220414"><ele>863.0</ele><time>2026-04-09T12:18:04.999Z</time></trkpt><trkpt lat="44.13601993649083" lon="11.306734664060462"><ele>863.0</ele><time>2026-04-09T12:18:05.999Z</time></trkpt><trkpt lat="44.13591564123276" lon="11.30658561573417"><ele>863.0</ele><time>2026-04-09T12:18:06.999Z</time></trkpt><trkpt lat="44.135813883904575" lon="11.306441580672837"><ele>863.0</ele><time>2026-04-09T12:18:07.999Z</time></trkpt><trkpt lat="44.13571695621561" lon="11.306341502299269"><ele>863.0</ele><time>2026-04-09T12:18:08.999Z</time></trkpt><trkpt lat="44.135596579053626" lon="11.306272920823025"><ele>869.6666666666667</ele><time>2026-04-09T12:18:09.999Z</time></trkpt><trkpt lat="44.13545062244795" lon="11.30622903081559"><ele>876.3333333333333</ele><time>2026-04-09T12:18:10.999Z</time></trkpt><trkpt lat="44.13528240733533" lon="11.306197415931686"><ele>883.0</ele><time>2026-04-09T12:18:11.999Z</time></trkpt><trkpt lat="44.13511906853453" lon="11.306137687794621"><ele>883.0</ele><time>2026-04-09T12:18:12.999Z</time></trkpt><trkpt lat="44.134978400979676" lon="11.306125603100643"><ele>883.0</ele><time>2026-04-09T12:18:14Z</time></trkpt><trkpt lat="44.134858977197084" lon="11.306098616988619"><ele>883.0</ele><time>2026-04-09T12:18:15Z</time></trkpt><trkpt lat="44.13474723547367" lon="11.306050429752855"><ele>883.0</ele><time>2026-04-09T12:18:16Z</time></trkpt><trkpt lat="44.134623688243266" lon="11.306020725554768"><ele>880.0</ele><time>2026-04-09T12:18:17Z</time></trkpt><trkpt lat="44.13450043228227" lon="11.305976949839799"><ele>877.0</ele><time>2026-04-09T12:18:18Z</time></trkpt><trkpt lat="44.13437795927679" lon="11.305909667788159"><ele>874.0</ele><time>2026-04-09T12:18:19Z</time></trkpt><trkpt lat="44.1342722818136" lon="11.305847105781595"><ele>871.0</ele><time>2026-04-09T12:18:20Z</time></trkpt><trkpt lat="44.13416911867639" lon="11.305742971104884"><ele>871.0</ele><time>2026-04-09T12:18:21Z</time></trkpt><trkpt lat="44.134058802035426" lon="11.305626315635392"><ele>871.0</ele><time>2026-04-09T12:18:22Z</time></trkpt><trkpt lat="44.13396531652849" lon="11.30552587600765"><ele>871.0</ele><time>2026-04-09T12:18:23Z</time></trkpt><trkpt lat="44.13390015962565" lon="11.305412941218256"><ele>871.0</ele><time>2026-04-09T12:18:24Z</time></trkpt><trkpt lat="44.133881633081046" lon="11.305259864917577"><ele>875.25</ele><time>2026-04-09T12:18:25Z</time></trkpt><trkpt lat="44.13385981850347" lon="11.305097455868761"><ele>879.5</ele><time>2026-04-09T12:18:26Z</time></trkpt><trkpt lat="44.133834397539" lon="11.304932298613803"><ele>883.75</ele><time>2026-04-09T12:18:27Z</time></trkpt><trkpt lat="44.1337781823919" lon="11.304789210566048"><ele>888.0</ele><time>2026-04-09T12:18:28Z</time></trkpt><trkpt lat="44.1336977142409" lon="11.304697837080733"><ele>888.0</ele><time>2026-04-09T12:18:29Z</time></trkpt><trkpt lat="44.133600669111885" lon="11.304662664840889"><ele>888.0</ele><time>2026-04-09T12:18:30Z</time></trkpt><trkpt lat="44.13349488591596" lon="11.304689016115407"><ele>888.0</ele><time>2026-04-09T12:18:31Z</time></trkpt><trkpt lat="44.13338375523441" lon="11.304766568670951"><ele>888.0</ele><time>2026-04-09T12:18:32Z</time></trkpt><trkpt lat="44.133260070726514" lon="11.304869091619363"><ele>890.3333333333333</ele><time>2026-04-09T12:18:33Z</time></trkpt><trkpt lat="44.133114142005" lon="11.304951773111771"><ele>892.6666666666666</ele><time>2026-04-09T12:18:34Z</time></trkpt><trkpt lat="44.13294991230476" lon="11.305004812122199"><ele>895.0</ele><time>2026-04-09T12:18:35Z</time></trkpt><trkpt lat="44.13277059225076" lon="11.30501685370124"><ele>895.0</ele><time>2026-04-09T12:18:36Z</time></trkpt><trkpt lat="44.13261942895044" lon="11.30505602982421"><ele>895.0</ele><time>2026-04-09T12:18:37Z</time></trkpt><trkpt lat="44.132481398323904" lon="11.305067887417785"><ele>895.0</ele><time>2026-04-09T12:18:38Z</time></trkpt><trkpt lat="44.13235750013171" lon="11.305060852953444"><ele>895.0</ele><time>2026-04-09T12:18:39Z</time></trkpt><trkpt lat="44.13222925698029" lon="11.305009912245644"><ele>892.3333333333333</ele><time>2026-04-09T12:18:40Z</time></trkpt><trkpt lat="44.13208811901601" lon="11.304909281720148"><ele>889.6666666666667</ele><time>2026-04-09T12:18:41Z</time></trkpt><trkpt lat="44.13193400685196" lon="11.304791613735128"><ele>887.0</ele><time>2026-04-09T12:18:42Z</time></trkpt><trkpt lat="44.13178907516133" lon="11.304664725672161"><ele>890.75</ele><time>2026-04-09T12:18:43Z</time></trkpt><trkpt lat="44.13166540028218" lon="11.304559268930715"><ele>894.5</ele><time>2026-04-09T12:18:44Z</time></trkpt><trkpt lat="44.131549132844704" lon="11.304443350443364"><ele>898.25</ele><time>2026-04-09T12:18:45Z</time></trkpt><trkpt lat="44.13139371599414" lon="11.304391525567397"><ele>902.0</ele><time>2026-04-09T12:18:46Z</time></trkpt><trkpt lat="44.13123463948093" lon="11.304303717237543"><ele>902.0</ele><time>2026-04-09T12:18:47Z</time></trkpt><trkpt lat="44.1310857213197" lon="11.304255802935485"><ele>902.0</ele><time>2026-04-09T12:18:48Z</time></trkpt><trkpt lat="44.13095261682145" lon="11.304217399206232"><ele>902.0</ele><time>2026-04-09T12:18:49Z</time></trkpt><trkpt lat="44.13081418078747" lon="11.304177457298602"><ele>902.0</ele><time>2026-04-09T12:18:50Z</time></trkpt><trkpt lat="44.13067239658207" lon="11.304135663016957"><ele>900.5</ele><time>2026-04-09T12:18:51Z</time></trkpt><trkpt lat="44.13054936867525" lon="11.30411789944206"><ele>899.0</ele><time>2026-04-09T12:18:52Z</time></trkpt><trkpt lat="44.13043737964118" lon="11.304075563279945"><ele>897.5</ele><time>2026-04-09T12:18:53Z</time></trkpt><trkpt lat="44.1303065439773" lon="11.304027980956082"><ele>896.0</ele><time>2026-04-09T12:18:54Z</time></trkpt><trkpt lat="44.13016040805256" lon="11.303965193413923"><ele>901.5</ele><time>2026-04-09T12:18:55Z</time></trkpt><trkpt lat="44.13002190773564" lon="11.303898872564085"><ele>907.0</ele><time>2026-04-09T12:18:56Z</time></trkpt><trkpt lat="44.129902867684244" lon="11.303838587129023"><ele>912.5</ele><time>2026-04-09T12:18:57Z</time></trkpt><trkpt lat="44.12979310796666" lon="11.303786659089132"><ele>918.0</ele><time>2026-04-09T12:18:58Z</time></trkpt><trkpt lat="44.12968020901685" lon="11.303734266090547"><ele>918.0</ele><time>2026-04-09T12:18:59Z</time></trkpt><trkpt lat="44.12958803762426" lon="11.303671084782982"><ele>918.0</ele><time>2026-04-09T12:19:00Z</time></trkpt><trkpt lat="44.129494507697956" lon="11.303638216027549"><ele>918.0</ele><time>2026-04-09T12:19:01Z</time></trkpt><trkpt lat="44.129398454550866" lon="11.303627282078573"><ele>918.0</ele><time>2026-04-09T12:19:02Z</time></trkpt><trkpt lat="44.12930544382946" lon="11.303639071021035"><ele>918.0</ele><time>2026-04-09T12:19:02.999Z</time></trkpt><trkpt lat="44.129216908189775" lon="11.303651993745486"><ele>918.0</ele><time>2026-04-09T12:19:03.999Z</time></trkpt><trkpt lat="44.129139733514194" lon="11.30363310741421"><ele>918.0</ele><time>2026-04-09T12:19:04.999Z</time></trkpt><trkpt lat="44.12907778150628" lon="11.303578237862444"><ele>918.0</ele><time>2026-04-09T12:19:05.999Z</time></trkpt><trkpt lat="44.12903042648629" lon="11.303478935975164"><ele>918.0</ele><time>2026-04-09T12:19:06.999Z</time></trkpt><trkpt lat="44.128989887742556" lon="11.303354382701361"><ele>918.0</ele><time>2026-04-09T12:19:07.999Z</time></trkpt><trkpt lat="44.128951979802146" lon="11.303213637092233"><ele>918.0</ele><time>2026-04-09T12:19:08.999Z</time></trkpt><trkpt lat="44.12890879540808" lon="11.30306410230423"><ele>919.4</ele><time>2026-04-09T12:19:09.999Z</time></trkpt><trkpt lat="44.12885200628484" lon="11.302927519544117"><ele>920.8</ele><time>2026-04-09T12:19:10.999Z</time></trkpt><trkpt lat="44.128788654204094" lon="11.302831441797586"><ele>922.2</ele><time>2026-04-09T12:19:11.999Z</time></trkpt><trkpt lat="44.12873196802772" lon="11.302727741357709"><ele>923.6</ele><time>2026-04-09T12:19:12.999Z</time></trkpt><trkpt lat="44.12865780624187" lon="11.302637534016208"><ele>925.0</ele><time>2026-04-09T12:19:13.999Z</time></trkpt><trkpt lat="44.128552338434545" lon="11.302574115891435"><ele>925.0</ele><time>2026-04-09T12:19:14.999Z</time></trkpt><trkpt lat="44.12844834153298" lon="11.302496524572597"><ele>925.0</ele><time>2026-04-09T12:19:15.999Z</time></trkpt><trkpt lat="44.12835704129209" lon="11.302425466989074"><ele>925.0</ele><time>2026-04-09T12:19:16.999Z</time></trkpt><trkpt lat="44.128259586037636" lon="11.302367485545178"><ele>925.0</ele><time>2026-04-09T12:19:17.999Z</time></trkpt><trkpt lat="44.12815419434439" lon="11.302304152304114"><ele>925.0</ele><time>2026-04-09T12:19:18.999Z</time></trkpt><trkpt lat="44.12804247606036" lon="11.302237055203909"><ele>926.25</ele><time>2026-04-09T12:19:19.999Z</time></trkpt><trkpt lat="44.12792329757167" lon="11.302163843599194"><ele>927.5</ele><time>2026-04-09T12:19:20.999Z</time></trkpt><trkpt lat="44.12781289419962" lon="11.302096326909458"><ele>928.75</ele><time>2026-04-09T12:19:21.999Z</time></trkpt><trkpt lat="44.12772144676982" lon="11.302034292860473"><ele>930.0</ele><time>2026-04-09T12:19:22.999Z</time></trkpt><trkpt lat="44.127624026591754" lon="11.301963756051373"><ele>930.0</ele><time>2026-04-09T12:19:23.999Z</time></trkpt><trkpt lat="44.12752091984109" lon="11.301869723298124"><ele>930.0</ele><time>2026-04-09T12:19:24.999Z</time></trkpt><trkpt lat="44.127415093403506" lon="11.30175374041637"><ele>930.0</ele><time>2026-04-09T12:19:25.999Z</time></trkpt><trkpt lat="44.12731916137723" lon="11.30162574352159"><ele>930.0</ele><time>2026-04-09T12:19:26.999Z</time></trkpt><trkpt lat="44.12723247027764" lon="11.301519304100582"><ele>930.5</ele><time>2026-04-09T12:19:27.999Z</time></trkpt><trkpt lat="44.12713393848732" lon="11.301408909276708"><ele>931.0</ele><time>2026-04-09T12:19:28.999Z</time></trkpt><trkpt lat="44.127031957653465" lon="11.301293114920266"><ele>931.5</ele><time>2026-04-09T12:19:29.999Z</time></trkpt><trkpt lat="44.12693497284888" lon="11.30118774934778"><ele>932.0</ele><time>2026-04-09T12:19:30.999Z</time></trkpt><trkpt lat="44.12681598963019" lon="11.301084992144643"><ele>932.0</ele><time>2026-04-09T12:19:31.999Z</time></trkpt><trkpt lat="44.12668174304864" lon="11.300981979486794"><ele>932.0</ele><time>2026-04-09T12:19:32.999Z</time></trkpt><trkpt lat="44.126559075018996" lon="11.300893348284847"><ele>932.0</ele><time>2026-04-09T12:19:33.999Z</time></trkpt><trkpt lat="44.12643956282819" lon="11.300812614529189"><ele>932.0</ele><time>2026-04-09T12:19:34.999Z</time></trkpt><trkpt lat="44.1263066428868" lon="11.300745033745422"><ele>928.0</ele><time>2026-04-09T12:19:35.999Z</time></trkpt><trkpt lat="44.126141668168366" lon="11.300711395498585"><ele>924.0</ele><time>2026-04-09T12:19:36.999Z</time></trkpt><trkpt lat="44.12594397059378" lon="11.300665343909264"><ele>920.0</ele><time>2026-04-09T12:19:37.999Z</time></trkpt><trkpt lat="44.12571987649636" lon="11.300639439159754"><ele>917.3333333333334</ele><time>2026-04-09T12:19:38.999Z</time></trkpt><trkpt lat="44.12551583547141" lon="11.300614286065137"><ele>914.6666666666667</ele><time>2026-04-09T12:19:39.999Z</time></trkpt><trkpt lat="44.125337587853004" lon="11.300594702613251"><ele>912.0</ele><time>2026-04-09T12:19:40.999Z</time></trkpt><trkpt lat="44.12517598716764" lon="11.300574451115324"><ele>917.25</ele><time>2026-04-09T12:19:41.999Z</time></trkpt><trkpt lat="44.12502113603325" lon="11.300559240149237"><ele>922.5</ele><time>2026-04-09T12:19:42.999Z</time></trkpt><trkpt lat="44.124880155143074" lon="11.300541599297073"><ele>927.75</ele><time>2026-04-09T12:19:43.999Z</time></trkpt><trkpt lat="44.124741484818166" lon="11.300545172213925"><ele>933.0</ele><time>2026-04-09T12:19:44.999Z</time></trkpt><trkpt lat="44.12460669105767" lon="11.30057318822131"><ele>928.0</ele><time>2026-04-09T12:19:45.999Z</time></trkpt><trkpt lat="44.124483312090234" lon="11.300611009485328"><ele>923.0</ele><time>2026-04-09T12:19:46.999Z</time></trkpt><trkpt lat="44.12437083397465" lon="11.300655763382315"><ele>918.0</ele><time>2026-04-09T12:19:47.999Z</time></trkpt><trkpt lat="44.12426573605539" lon="11.300723896481056"><ele>913.0</ele><time>2026-04-09T12:19:48.999Z</time></trkpt><trkpt lat="44.124154947327455" lon="11.300757558064706"><ele>913.25</ele><time>2026-04-09T12:19:49.999Z</time></trkpt><trkpt lat="44.12402362061639" lon="11.300802232247369"><ele>913.5</ele><time>2026-04-09T12:19:50.999Z</time></trkpt><trkpt lat="44.1238805520219" lon="11.30082707841994"><ele>913.75</ele><time>2026-04-09T12:19:51.999Z</time></trkpt><trkpt lat="44.123752188195766" lon="11.300819583037944"><ele>914.0</ele><time>2026-04-09T12:19:52.999Z</time></trkpt><trkpt lat="44.123631169990816" lon="11.300792968526286"><ele>914.0</ele><time>2026-04-09T12:19:53.999Z</time></trkpt><trkpt lat="44.12349645402267" lon="11.300770355946726"><ele>914.0</ele><time>2026-04-09T12:19:54.999Z</time></trkpt><trkpt lat="44.12337225527008" lon="11.300750189761798"><ele>914.0</ele><time>2026-04-09T12:19:55.999Z</time></trkpt><trkpt lat="44.123263763381864" lon="11.300714260738127"><ele>914.0</ele><time>2026-04-09T12:19:56.999Z</time></trkpt><trkpt lat="44.123158417024385" lon="11.30069237838612"><ele>911.0</ele><time>2026-04-09T12:19:57.999Z</time></trkpt><trkpt lat="44.12305816220224" lon="11.30065348445242"><ele>908.0000000000001</ele><time>2026-04-09T12:19:58.999Z</time></trkpt><trkpt lat="44.12295330747273" lon="11.300593596662157"><ele>905.0000000000001</ele><time>2026-04-09T12:19:59.999Z</time></trkpt><trkpt lat="44.12286184354564" lon="11.300509784790677"><ele>902.0</ele><time>2026-04-09T12:20:00.999Z</time></trkpt><trkpt lat="44.12277108246275" lon="11.300397018919137"><ele>899.0</ele><time>2026-04-09T12:20:01.999Z</time></trkpt><trkpt lat="44.12268544394825" lon="11.300248621208643"><ele>899.0</ele><time>2026-04-09T12:20:02.999Z</time></trkpt><trkpt lat="44.12259823854309" lon="11.300053457080995"><ele>899.0</ele><time>2026-04-09T12:20:03.999Z</time></trkpt><trkpt lat="44.1225157278131" lon="11.299816499437991"><ele>899.0</ele><time>2026-04-09T12:20:04.999Z</time></trkpt><trkpt lat="44.12241165988449" lon="11.299566663294463"><ele>894.3333333333334</ele><time>2026-04-09T12:20:05.999Z</time></trkpt><trkpt lat="44.122314707399084" lon="11.299332104340099"><ele>889.6666666666667</ele><time>2026-04-09T12:20:07Z</time></trkpt><trkpt lat="44.122214760668655" lon="11.299117334052626"><ele>885.0</ele><time>2026-04-09T12:20:08Z</time></trkpt><trkpt lat="44.12214028164971" lon="11.298896002325387"><ele>885.0</ele><time>2026-04-09T12:20:09Z</time></trkpt><trkpt lat="44.122070699225276" lon="11.2986920338611"><ele>885.0</ele><time>2026-04-09T12:20:10Z</time></trkpt><trkpt lat="44.12201545001199" lon="11.298489346792962"><ele>885.0</ele><time>2026-04-09T12:20:11Z</time></trkpt><trkpt lat="44.121985827888395" lon="11.298265369733217"><ele>885.3333333333333</ele><time>2026-04-09T12:20:12Z</time></trkpt><trkpt lat="44.12197343838754" lon="11.298007587929375"><ele>885.6666666666666</ele><time>2026-04-09T12:20:13Z</time></trkpt><trkpt lat="44.121981473650926" lon="11.297761358580395"><ele>886.0</ele><time>2026-04-09T12:20:14Z</time></trkpt><trkpt lat="44.12199607007018" lon="11.297525101724707"><ele>886.0</ele><time>2026-04-09T12:20:15Z</time></trkpt><trkpt lat="44.12201089160994" lon="11.29729070696374"><ele>886.0</ele><time>2026-04-09T12:20:16Z</time></trkpt><trkpt lat="44.12201909170085" lon="11.297051682731855"><ele>886.0</ele><time>2026-04-09T12:20:17Z</time></trkpt><trkpt lat="44.12202759922325" lon="11.296839495405978"><ele>886.0</ele><time>2026-04-09T12:20:18Z</time></trkpt><trkpt lat="44.12203686054048" lon="11.296648769234793"><ele>886.0</ele><time>2026-04-09T12:20:19Z</time></trkpt><trkpt lat="44.122047383392335" lon="11.29647788806658"><ele>886.0</ele><time>2026-04-09T12:20:20Z</time></trkpt><trkpt lat="44.12204792579056" lon="11.296319029491519"><ele>886.0</ele><time>2026-04-09T12:20:21Z</time></trkpt><trkpt lat="44.122011947569305" lon="11.296166282975543"><ele>886.0</ele><time>2026-04-09T12:20:22Z</time></trkpt><trkpt lat="44.12193995772537" lon="11.296009264656133"><ele>886.0</ele><time>2026-04-09T12:20:23Z</time></trkpt><trkpt lat="44.12184294364533" lon="11.295887122730168"><ele>886.0</ele><time>2026-04-09T12:20:24Z</time></trkpt><trkpt lat="44.121723415669074" lon="11.295793536367249"><ele>886.0</ele><time>2026-04-09T12:20:25Z</time></trkpt><trkpt lat="44.121592268481926" lon="11.29572095111886"><ele>881.0</ele><time>2026-04-09T12:20:26Z</time></trkpt><trkpt lat="44.121485491177914" lon="11.295627000892123"><ele>876.0</ele><time>2026-04-09T12:20:27Z</time></trkpt><trkpt lat="44.121390565990744" lon="11.29548220670274"><ele>871.0</ele><time>2026-04-09T12:20:28Z</time></trkpt><trkpt lat="44.1212931834968" lon="11.295291987347827"><ele>866.0</ele><time>2026-04-09T12:20:29Z</time></trkpt><trkpt lat="44.121190139762945" lon="11.295104369839265"><ele>866.0</ele><time>2026-04-09T12:20:30Z</time></trkpt><trkpt lat="44.12108215373961" lon="11.294907351717963"><ele>866.0</ele><time>2026-04-09T12:20:31Z</time></trkpt><trkpt lat="44.12097356194294" lon="11.294707999088306"><ele>866.0</ele><time>2026-04-09T12:20:32Z</time></trkpt><trkpt lat="44.12088313035469" lon="11.294504365849384"><ele>867.6666666666667</ele><time>2026-04-09T12:20:33Z</time></trkpt><trkpt lat="44.120806166228014" lon="11.29428673961952"><ele>869.3333333333333</ele><time>2026-04-09T12:20:34Z</time></trkpt><trkpt lat="44.1207262735196" lon="11.294066822811631"><ele>871.0</ele><time>2026-04-09T12:20:35Z</time></trkpt><trkpt lat="44.12061830063033" lon="11.293860591175626"><ele>867.6666666666666</ele><time>2026-04-09T12:20:36Z</time></trkpt><trkpt lat="44.12049439411527" lon="11.293691761949159"><ele>864.3333333333333</ele><time>2026-04-09T12:20:37Z</time></trkpt><trkpt lat="44.120365962327284" lon="11.293540742880676"><ele>861.0</ele><time>2026-04-09T12:20:38Z</time></trkpt><trkpt lat="44.12022274465898" lon="11.293380062195189"><ele>861.0</ele><time>2026-04-09T12:20:39Z</time></trkpt><trkpt lat="44.120073544598654" lon="11.293205719677777"><ele>861.0</ele><time>2026-04-09T12:20:40Z</time></trkpt><trkpt lat="44.11993047180608" lon="11.293037990420025"><ele>861.0</ele><time>2026-04-09T12:20:41Z</time></trkpt><trkpt lat="44.11980326544193" lon="11.29288434852436"><ele>860.6666666666667</ele><time>2026-04-09T12:20:42Z</time></trkpt><trkpt lat="44.119684196651754" lon="11.292739918212945"><ele>860.3333333333334</ele><time>2026-04-09T12:20:43Z</time></trkpt><trkpt lat="44.11957186614737" lon="11.29260486577273"><ele>860.0</ele><time>2026-04-09T12:20:44Z</time></trkpt><trkpt lat="44.11945927425583" lon="11.292457073329054"><ele>860.0</ele><time>2026-04-09T12:20:45Z</time></trkpt><trkpt lat="44.119359535344365" lon="11.292279432598761"><ele>860.0</ele><time>2026-04-09T12:20:46Z</time></trkpt><trkpt lat="44.11928261719274" lon="11.292075245046535"><ele>860.0</ele><time>2026-04-09T12:20:47Z</time></trkpt><trkpt lat="44.11922445463618" lon="11.291833301106115"><ele>860.6666666666667</ele><time>2026-04-09T12:20:48Z</time></trkpt><trkpt lat="44.119214099694865" lon="11.291572187742231"><ele>861.3333333333333</ele><time>2026-04-09T12:20:49Z</time></trkpt><trkpt lat="44.119210610015955" lon="11.291286549932908"><ele>862.0</ele><time>2026-04-09T12:20:50Z</time></trkpt><trkpt lat="44.119191793476865" lon="11.290974156355066"><ele>862.6666666666666</ele><time>2026-04-09T12:20:51Z</time></trkpt><trkpt lat="44.11919550350907" lon="11.290694378276088"><ele>863.3333333333333</ele><time>2026-04-09T12:20:52Z</time></trkpt><trkpt lat="44.11919612299837" lon="11.29043962454636"><ele>864.0</ele><time>2026-04-09T12:20:53Z</time></trkpt><trkpt lat="44.11919786253925" lon="11.290204081071316"><ele>865.5</ele><time>2026-04-09T12:20:54Z</time></trkpt><trkpt lat="44.119197383467984" lon="11.28998958177862"><ele>867.0</ele><time>2026-04-09T12:20:55Z</time></trkpt><trkpt lat="44.11919369024409" lon="11.28979466462944"><ele>868.5</ele><time>2026-04-09T12:20:56Z</time></trkpt><trkpt lat="44.11916278360263" lon="11.289622356665868"><ele>870.0</ele><time>2026-04-09T12:20:57Z</time></trkpt><trkpt lat="44.11909002077478" lon="11.289465413621674"><ele>869.6666666666667</ele><time>2026-04-09T12:20:58Z</time></trkpt><trkpt lat="44.118974988045345" lon="11.289329341148282"><ele>869.3333333333334</ele><time>2026-04-09T12:20:59Z</time></trkpt><trkpt lat="44.11882772390246" lon="11.289211563700663"><ele>869.0</ele><time>2026-04-09T12:21:00Z</time></trkpt><trkpt lat="44.11866471637524" lon="11.289083758518546"><ele>871.0</ele><time>2026-04-09T12:21:01Z</time></trkpt><trkpt lat="44.11849626536411" lon="11.288911767555277"><ele>873.0</ele><time>2026-04-09T12:21:02Z</time></trkpt><trkpt lat="44.11832943894957" lon="11.288789323478843"><ele>875.0</ele><time>2026-04-09T12:21:03Z</time></trkpt><trkpt lat="44.11818924523774" lon="11.288658126990669"><ele>869.6666666666667</ele><time>2026-04-09T12:21:04Z</time></trkpt><trkpt lat="44.11805718502649" lon="11.288537528351464"><ele>864.3333333333333</ele><time>2026-04-09T12:21:05Z</time></trkpt><trkpt lat="44.11793611048978" lon="11.288415965609785"><ele>859.0</ele><time>2026-04-09T12:21:06Z</time></trkpt><trkpt lat="44.117816437916645" lon="11.288279578381506"><ele>859.0</ele><time>2026-04-09T12:21:07Z</time></trkpt><trkpt lat="44.117706245916864" lon="11.288101523560531"><ele>859.0</ele><time>2026-04-09T12:21:08Z</time></trkpt><trkpt lat="44.117647728697335" lon="11.287879263003699"><ele>859.0</ele><time>2026-04-09T12:21:09Z</time></trkpt><trkpt lat="44.11761846434907" lon="11.287667912249034"><ele>859.25</ele><time>2026-04-09T12:21:10Z</time></trkpt><trkpt lat="44.11757620262151" lon="11.287445661657706"><ele>859.5</ele><time>2026-04-09T12:21:11Z</time></trkpt><trkpt lat="44.117557190271555" lon="11.28724022146407"><ele>859.75</ele><time>2026-04-09T12:21:12Z</time></trkpt><trkpt lat="44.11752398903802" lon="11.28705715917536"><ele>860.0</ele><time>2026-04-09T12:21:13Z</time></trkpt><trkpt lat="44.11746864532589" lon="11.28689500327881"><ele>864.5</ele><time>2026-04-09T12:21:14Z</time></trkpt><trkpt lat="44.11738382117781" lon="11.28676371876451"><ele>869.0</ele><time>2026-04-09T12:21:15Z</time></trkpt><trkpt lat="44.11727576437679" lon="11.28668166667681"><ele>873.5</ele><time>2026-04-09T12:21:16Z</time></trkpt><trkpt lat="44.11715308825514" lon="11.286660964905618"><ele>878.0</ele><time>2026-04-09T12:21:17Z</time></trkpt><trkpt lat="44.11702837639545" lon="11.286699479295626"><ele>878.0</ele><time>2026-04-09T12:21:18Z</time></trkpt><trkpt lat="44.116917613956005" lon="11.286793783301533"><ele>878.0</ele><time>2026-04-09T12:21:19Z</time></trkpt><trkpt lat="44.116840016073084" lon="11.286930542388049"><ele>878.0</ele><time>2026-04-09T12:21:20Z</time></trkpt><trkpt lat="44.11678810612043" lon="11.287112520194704"><ele>878.0</ele><time>2026-04-09T12:21:21Z</time></trkpt><trkpt lat="44.1167176504152" lon="11.287300735558347"><ele>875.25</ele><time>2026-04-09T12:21:22Z</time></trkpt><trkpt lat="44.11666070499867" lon="11.28750481034399"><ele>872.5</ele><time>2026-04-09T12:21:23Z</time></trkpt><trkpt lat="44.116598169897905" lon="11.2876670307805"><ele>869.75</ele><time>2026-04-09T12:21:24Z</time></trkpt><trkpt lat="44.11654548048198" lon="11.28782038920184"><ele>867.0</ele><time>2026-04-09T12:21:25Z</time></trkpt><trkpt lat="44.11649454332796" lon="11.287985056963047"><ele>865.75</ele><time>2026-04-09T12:21:26Z</time></trkpt><trkpt lat="44.11642636003316" lon="11.288154170089424"><ele>864.5</ele><time>2026-04-09T12:21:27Z</time></trkpt><trkpt lat="44.11633300678908" lon="11.28828949049222"><ele>863.25</ele><time>2026-04-09T12:21:28Z</time></trkpt><trkpt lat="44.11621905154568" lon="11.288360214545106"><ele>862.0</ele><time>2026-04-09T12:21:29Z</time></trkpt><trkpt lat="44.11608705173468" lon="11.288388111581426"><ele>862.0</ele><time>2026-04-09T12:21:30Z</time></trkpt><trkpt lat="44.11595251833955" lon="11.288327416865599"><ele>862.0</ele><time>2026-04-09T12:21:31Z</time></trkpt><trkpt lat="44.1158195753038" lon="11.288249266027316"><ele>862.0</ele><time>2026-04-09T12:21:32Z</time></trkpt><trkpt lat="44.11570508437296" lon="11.288126696392398"><ele>862.0</ele><time>2026-04-09T12:21:33Z</time></trkpt><trkpt lat="44.11561941511351" lon="11.2879756026783"><ele>859.6666666666666</ele><time>2026-04-09T12:21:34Z</time></trkpt><trkpt lat="44.11555312954895" lon="11.287790827882386"><ele>857.3333333333333</ele><time>2026-04-09T12:21:35Z</time></trkpt><trkpt lat="44.11547856176319" lon="11.287584964912908"><ele>855.0</ele><time>2026-04-09T12:21:36Z</time></trkpt><trkpt lat="44.11542626214004" lon="11.287364891212043"><ele>856.75</ele><time>2026-04-09T12:21:37Z</time></trkpt><trkpt lat="44.115373069836906" lon="11.287178069655567"><ele>858.5</ele><time>2026-04-09T12:21:38Z</time></trkpt><trkpt lat="44.11530986621393" lon="11.287009736663911"><ele>860.25</ele><time>2026-04-09T12:21:39Z</time></trkpt><trkpt lat="44.11523055402142" lon="11.286861392857364"><ele>862.0</ele><time>2026-04-09T12:21:40Z</time></trkpt><trkpt lat="44.11513243599655" lon="11.286726880693548"><ele>862.0</ele><time>2026-04-09T12:21:41Z</time></trkpt><trkpt lat="44.11500952456523" lon="11.286609178578393"><ele>862.0</ele><time>2026-04-09T12:21:42Z</time></trkpt><trkpt lat="44.1148641152623" lon="11.286511504423284"><ele>862.0</ele><time>2026-04-09T12:21:43Z</time></trkpt><trkpt lat="44.114698101939204" lon="11.286443818612895"><ele>862.0</ele><time>2026-04-09T12:21:44Z</time></trkpt><trkpt lat="44.114524866110706" lon="11.286393158051258"><ele>862.0</ele><time>2026-04-09T12:21:45Z</time></trkpt><trkpt lat="44.114372285530116" lon="11.28633218598794"><ele>862.0</ele><time>2026-04-09T12:21:46Z</time></trkpt><trkpt lat="44.114227427248956" lon="11.286292477362908"><ele>862.0</ele><time>2026-04-09T12:21:47Z</time></trkpt><trkpt lat="44.11409557717516" lon="11.286245982207289"><ele>862.0</ele><time>2026-04-09T12:21:48Z</time></trkpt><trkpt lat="44.113959561689356" lon="11.28619517147849"><ele>862.0</ele><time>2026-04-09T12:21:49Z</time></trkpt><trkpt lat="44.113819412546704" lon="11.286103056572685"><ele>862.0</ele><time>2026-04-09T12:21:50Z</time></trkpt><trkpt lat="44.11367394631654" lon="11.286003851896334"><ele>858.3333333333333</ele><time>2026-04-09T12:21:51Z</time></trkpt><trkpt lat="44.11354074833774" lon="11.285884047929665"><ele>854.6666666666667</ele><time>2026-04-09T12:21:52Z</time></trkpt><trkpt lat="44.11338464978217" lon="11.285772726554818"><ele>851.0</ele><time>2026-04-09T12:21:53Z</time></trkpt><trkpt lat="44.11322048370301" lon="11.285658081937415"><ele>852.3333333333334</ele><time>2026-04-09T12:21:54Z</time></trkpt><trkpt lat="44.11305162887101" lon="11.285539777671964"><ele>853.6666666666667</ele><time>2026-04-09T12:21:55Z</time></trkpt><trkpt lat="44.11289798067391" lon="11.28543014349197"><ele>855.0</ele><time>2026-04-09T12:21:56Z</time></trkpt><trkpt lat="44.11275268251965" lon="11.285329791152742"><ele>855.0</ele><time>2026-04-09T12:21:56.999Z</time></trkpt><trkpt lat="44.11261488960268" lon="11.285232055638293"><ele>855.0</ele><time>2026-04-09T12:21:57.999Z</time></trkpt><trkpt lat="44.11248206286343" lon="11.285152549546453"><ele>855.0</ele><time>2026-04-09T12:21:58.999Z</time></trkpt><trkpt lat="44.11234731272919" lon="11.285125250584366"><ele>855.0</ele><time>2026-04-09T12:21:59.999Z</time></trkpt><trkpt lat="44.11221814269232" lon="11.285105720865822"><ele>854.25</ele><time>2026-04-09T12:22:00.999Z</time></trkpt><trkpt lat="44.11208842058253" lon="11.285073490183999"><ele>853.5</ele><time>2026-04-09T12:22:01.999Z</time></trkpt><trkpt lat="44.11194753622354" lon="11.285052181493914"><ele>852.75</ele><time>2026-04-09T12:22:02.999Z</time></trkpt><trkpt lat="44.111800682793046" lon="11.285039811862699"><ele>852.0</ele><time>2026-04-09T12:22:03.999Z</time></trkpt><trkpt lat="44.11166557182403" lon="11.28501871559613"><ele>850.5</ele><time>2026-04-09T12:22:04.999Z</time></trkpt><trkpt lat="44.1115463751839" lon="11.284989800988692"><ele>849.0</ele><time>2026-04-09T12:22:05.999Z</time></trkpt><trkpt lat="44.11141995845575" lon="11.28496323028868"><ele>847.5</ele><time>2026-04-09T12:22:06.999Z</time></trkpt><trkpt lat="44.11128780814975" lon="11.284897320711762"><ele>846.0</ele><time>2026-04-09T12:22:07.999Z</time></trkpt><trkpt lat="44.1111580021586" lon="11.28480388271945"><ele>848.3333333333333</ele><time>2026-04-09T12:22:08.999Z</time></trkpt><trkpt lat="44.11102706360805" lon="11.284699958231522"><ele>850.6666666666666</ele><time>2026-04-09T12:22:09.999Z</time></trkpt><trkpt lat="44.11089232314934" lon="11.284592501897757"><ele>853.0</ele><time>2026-04-09T12:22:10.999Z</time></trkpt><trkpt lat="44.11074933740608" lon="11.284482565525215"><ele>852.5</ele><time>2026-04-09T12:22:11.999Z</time></trkpt><trkpt lat="44.1106076227523" lon="11.284368563656253"><ele>852.0</ele><time>2026-04-09T12:22:13Z</time></trkpt><trkpt lat="44.1104842271943" lon="11.284267626201977"><ele>851.5</ele><time>2026-04-09T12:22:14Z</time></trkpt><trkpt lat="44.11037237192976" lon="11.284156765027191"><ele>851.0</ele><time>2026-04-09T12:22:15Z</time></trkpt><trkpt lat="44.110252859674894" lon="11.284084790580575"><ele>851.0</ele><time>2026-04-09T12:22:16Z</time></trkpt><trkpt lat="44.110133266346274" lon="11.283994310964305"><ele>851.0</ele><time>2026-04-09T12:22:17Z</time></trkpt><trkpt lat="44.1100073412762" lon="11.283893480527329"><ele>851.0</ele><time>2026-04-09T12:22:18Z</time></trkpt><trkpt lat="44.10987677553108" lon="11.28378392904992"><ele>851.0</ele><time>2026-04-09T12:22:19Z</time></trkpt><trkpt lat="44.10974736528403" lon="11.283697780427824"><ele>853.25</ele><time>2026-04-09T12:22:20Z</time></trkpt><trkpt lat="44.10963393303918" lon="11.283616306974784"><ele>855.5</ele><time>2026-04-09T12:22:21Z</time></trkpt><trkpt lat="44.10951820533666" lon="11.283596851103944"><ele>857.75</ele><time>2026-04-09T12:22:22Z</time></trkpt><trkpt lat="44.10940081526771" lon="11.283565262080945"><ele>860.0</ele><time>2026-04-09T12:22:23Z</time></trkpt><trkpt lat="44.10928160151399" lon="11.283535142685526"><ele>860.0</ele><time>2026-04-09T12:22:24Z</time></trkpt><trkpt lat="44.10915852156981" lon="11.283511069808"><ele>860.0</ele><time>2026-04-09T12:22:25Z</time></trkpt><trkpt lat="44.109041626882465" lon="11.283488979332192"><ele>860.0</ele><time>2026-04-09T12:22:26Z</time></trkpt><trkpt lat="44.10894021175264" lon="11.283455326432161"><ele>860.0</ele><time>2026-04-09T12:22:27Z</time></trkpt><trkpt lat="44.10883334470737" lon="11.283433432222568"><ele>861.0</ele><time>2026-04-09T12:22:28Z</time></trkpt><trkpt lat="44.108710946273746" lon="11.283451950255497"><ele>862.0</ele><time>2026-04-09T12:22:29Z</time></trkpt><trkpt lat="44.10858706660085" lon="11.283481332017809"><ele>863.0</ele><time>2026-04-09T12:22:30Z</time></trkpt><trkpt lat="44.10846033228948" lon="11.28353288866343"><ele>864.0</ele><time>2026-04-09T12:22:31Z</time></trkpt><trkpt lat="44.10833188030558" lon="11.28360672743333"><ele>866.75</ele><time>2026-04-09T12:22:32Z</time></trkpt><trkpt lat="44.10820222988611" lon="11.283682337704589"><ele>869.5</ele><time>2026-04-09T12:22:33Z</time></trkpt><trkpt lat="44.1080612964964" lon="11.283740024483578"><ele>872.25</ele><time>2026-04-09T12:22:34Z</time></trkpt><trkpt lat="44.107911073645084" lon="11.283768443919556"><ele>875.0</ele><time>2026-04-09T12:22:35Z</time></trkpt><trkpt lat="44.10775244613854" lon="11.283783875296667"><ele>875.0</ele><time>2026-04-09T12:22:36Z</time></trkpt><trkpt lat="44.10758606121314" lon="11.283793854978976"><ele>875.0</ele><time>2026-04-09T12:22:37Z</time></trkpt><trkpt lat="44.107430869497314" lon="11.283803373479163"><ele>875.0</ele><time>2026-04-09T12:22:38Z</time></trkpt><trkpt lat="44.107295360574284" lon="11.283816766297425"><ele>875.0</ele><time>2026-04-09T12:22:39Z</time></trkpt><trkpt lat="44.10716493250959" lon="11.283820576480913"><ele>875.0</ele><time>2026-04-09T12:22:40Z</time></trkpt><trkpt lat="44.10703599531367" lon="11.283818657366005"><ele>875.0</ele><time>2026-04-09T12:22:41Z</time></trkpt><trkpt lat="44.10690769781061" lon="11.283805304019399"><ele>875.0</ele><time>2026-04-09T12:22:42Z</time></trkpt><trkpt lat="44.10677834504374" lon="11.283772809004265"><ele>875.0</ele><time>2026-04-09T12:22:43Z</time></trkpt><trkpt lat="44.106642211835585" lon="11.283709637555802"><ele>875.0</ele><time>2026-04-09T12:22:44Z</time></trkpt><trkpt lat="44.10650839671235" lon="11.283617273218342"><ele>875.0</ele><time>2026-04-09T12:22:45Z</time></trkpt><trkpt lat="44.10640449024096" lon="11.283512112236252"><ele>875.0</ele><time>2026-04-09T12:22:46Z</time></trkpt><trkpt lat="44.106309545729566" lon="11.283385833801457"><ele>876.0</ele><time>2026-04-09T12:22:47Z</time></trkpt><trkpt lat="44.10622211532632" lon="11.28324146614073"><ele>877.0</ele><time>2026-04-09T12:22:48Z</time></trkpt><trkpt lat="44.10613799795469" lon="11.283088192863898"><ele>878.0</ele><time>2026-04-09T12:22:49Z</time></trkpt><trkpt lat="44.10604837798692" lon="11.2829308828348"><ele>879.0</ele><time>2026-04-09T12:22:50Z</time></trkpt><trkpt lat="44.10596840425215" lon="11.282788094970591"><ele>879.0</ele><time>2026-04-09T12:22:51Z</time></trkpt><trkpt lat="44.10589313791" lon="11.282666567362751"><ele>879.0000000000001</ele><time>2026-04-09T12:22:52Z</time></trkpt><trkpt lat="44.10582327354019" lon="11.28255605105278"><ele>879.0000000000001</ele><time>2026-04-09T12:22:53Z</time></trkpt><trkpt lat="44.1057607564484" lon="11.282456590725225"><ele>879.0</ele><time>2026-04-09T12:22:54Z</time></trkpt><trkpt lat="44.105689226045484" lon="11.28235265595381"><ele>879.0</ele><time>2026-04-09T12:22:55Z</time></trkpt><trkpt lat="44.10560986347378" lon="11.28224274610318"><ele>879.25</ele><time>2026-04-09T12:22:56Z</time></trkpt><trkpt lat="44.10552385661646" lon="11.282121158392844"><ele>879.5</ele><time>2026-04-09T12:22:57Z</time></trkpt><trkpt lat="44.1054361378438" lon="11.281986316656676"><ele>879.75</ele><time>2026-04-09T12:22:58Z</time></trkpt><trkpt lat="44.10534074415912" lon="11.281849028140556"><ele>880.0</ele><time>2026-04-09T12:22:59Z</time></trkpt><trkpt lat="44.1052567613208" lon="11.281726576297299"><ele>880.0</ele><time>2026-04-09T12:23:00Z</time></trkpt><trkpt lat="44.10517370351694" lon="11.281611661447847"><ele>880.0</ele><time>2026-04-09T12:23:01Z</time></trkpt><trkpt lat="44.105089197465226" lon="11.281490885816183"><ele>880.0</ele><time>2026-04-09T12:23:02Z</time></trkpt><trkpt lat="44.10500144106952" lon="11.281365050579101"><ele>880.0</ele><time>2026-04-09T12:23:03Z</time></trkpt><trkpt lat="44.104918096792375" lon="11.281250125032107"><ele>879.5</ele><time>2026-04-09T12:23:04Z</time></trkpt><trkpt lat="44.1048397719039" lon="11.281147828593841"><ele>879.0</ele><time>2026-04-09T12:23:05Z</time></trkpt><trkpt lat="44.10474533493497" lon="11.281031598437169"><ele>878.5</ele><time>2026-04-09T12:23:06Z</time></trkpt><trkpt lat="44.10464124123575" lon="11.28086796444409"><ele>878.0</ele><time>2026-04-09T12:23:07Z</time></trkpt><trkpt lat="44.10451759097659" lon="11.280707360660573"><ele>880.0</ele><time>2026-04-09T12:23:08Z</time></trkpt><trkpt lat="44.104386103167656" lon="11.280545591711151"><ele>882.0</ele><time>2026-04-09T12:23:09Z</time></trkpt><trkpt lat="44.104247559108366" lon="11.280370298448798"><ele>884.0</ele><time>2026-04-09T12:23:10Z</time></trkpt><trkpt lat="44.10410687548017" lon="11.280192761915444"><ele>883.3333333333334</ele><time>2026-04-09T12:23:11Z</time></trkpt><trkpt lat="44.10397693693307" lon="11.280028736801452"><ele>882.6666666666667</ele><time>2026-04-09T12:23:12Z</time></trkpt><trkpt lat="44.10384266444258" lon="11.279882698682554"><ele>882.0</ele><time>2026-04-09T12:23:13Z</time></trkpt><trkpt lat="44.10373856907702" lon="11.279719522548096"><ele>882.0</ele><time>2026-04-09T12:23:14Z</time></trkpt><trkpt lat="44.1036431229973" lon="11.279567446717678"><ele>882.0</ele><time>2026-04-09T12:23:15Z</time></trkpt><trkpt lat="44.103551883310914" lon="11.27941530313016"><ele>882.0</ele><time>2026-04-09T12:23:16Z</time></trkpt><trkpt lat="44.103453644909784" lon="11.279254918704016"><ele>882.0</ele><time>2026-04-09T12:23:17Z</time></trkpt><trkpt lat="44.10335420397755" lon="11.279094325635828"><ele>882.3333333333333</ele><time>2026-04-09T12:23:18Z</time></trkpt><trkpt lat="44.10323378527991" lon="11.278926024272062"><ele>882.6666666666666</ele><time>2026-04-09T12:23:19Z</time></trkpt><trkpt lat="44.10309102465557" lon="11.278768204516394"><ele>883.0</ele><time>2026-04-09T12:23:20Z</time></trkpt><trkpt lat="44.10293507825307" lon="11.278616765705044"><ele>883.0</ele><time>2026-04-09T12:23:21Z</time></trkpt><trkpt lat="44.102792699342665" lon="11.278488178280806"><ele>883.0</ele><time>2026-04-09T12:23:22Z</time></trkpt><trkpt lat="44.10265926137829" lon="11.278367754094383"><ele>883.0</ele><time>2026-04-09T12:23:23Z</time></trkpt><trkpt lat="44.10253613012568" lon="11.27825621266141"><ele>883.0</ele><time>2026-04-09T12:23:24Z</time></trkpt><trkpt lat="44.102429822476076" lon="11.278148323797659"><ele>883.0</ele><time>2026-04-09T12:23:25Z</time></trkpt><trkpt lat="44.10234211795287" lon="11.278025645573436"><ele>883.0</ele><time>2026-04-09T12:23:26Z</time></trkpt><trkpt lat="44.10227670838121" lon="11.27786159056365"><ele>883.0</ele><time>2026-04-09T12:23:27Z</time></trkpt><trkpt lat="44.10227010889504" lon="11.277658616151072"><ele>884.3333333333333</ele><time>2026-04-09T12:23:28Z</time></trkpt><trkpt lat="44.10226533195766" lon="11.277432385162289"><ele>885.6666666666667</ele><time>2026-04-09T12:23:29Z</time></trkpt><trkpt lat="44.10224751872889" lon="11.277216297598107"><ele>887.0</ele><time>2026-04-09T12:23:30Z</time></trkpt><trkpt lat="44.102227849589525" lon="11.277027702519929"><ele>887.0</ele><time>2026-04-09T12:23:31Z</time></trkpt><trkpt lat="44.10217513170165" lon="11.276817291936235"><ele>887.0</ele><time>2026-04-09T12:23:32Z</time></trkpt><trkpt lat="44.102108176543155" lon="11.276598210908496"><ele>887.0</ele><time>2026-04-09T12:23:33Z</time></trkpt><trkpt lat="44.10204779904318" lon="11.276424956765931"><ele>889.5</ele><time>2026-04-09T12:23:34Z</time></trkpt><trkpt lat="44.10198517438074" lon="11.276279304102662"><ele>892.0</ele><time>2026-04-09T12:23:35Z</time></trkpt><trkpt lat="44.10190016492604" lon="11.276148207704273"><ele>894.5</ele><time>2026-04-09T12:23:36Z</time></trkpt><trkpt lat="44.10180002090857" lon="11.276040171601185"><ele>897.0</ele><time>2026-04-09T12:23:37Z</time></trkpt><trkpt lat="44.10169504237076" lon="11.275971008851071"><ele>897.0</ele><time>2026-04-09T12:23:38Z</time></trkpt><trkpt lat="44.101583087189425" lon="11.275946041327678"><ele>897.0</ele><time>2026-04-09T12:23:39Z</time></trkpt><trkpt lat="44.10145976137989" lon="11.27597345073418"><ele>897.0</ele><time>2026-04-09T12:23:40Z</time></trkpt><trkpt lat="44.101330934500666" lon="11.276034167422972"><ele>897.0</ele><time>2026-04-09T12:23:41Z</time></trkpt><trkpt lat="44.10121746736464" lon="11.276084826118721"><ele>896.5</ele><time>2026-04-09T12:23:42Z</time></trkpt><trkpt lat="44.10109163415767" lon="11.276089920020976"><ele>896.0</ele><time>2026-04-09T12:23:43Z</time></trkpt><trkpt lat="44.10096012661344" lon="11.276022530103864"><ele>895.5</ele><time>2026-04-09T12:23:44Z</time></trkpt><trkpt lat="44.10082685633069" lon="11.275942937171697"><ele>895.0</ele><time>2026-04-09T12:23:45Z</time></trkpt><trkpt lat="44.100709171165136" lon="11.275866464133083"><ele>896.6666666666666</ele><time>2026-04-09T12:23:46Z</time></trkpt><trkpt lat="44.10061711424958" lon="11.275716960285765"><ele>898.3333333333333</ele><time>2026-04-09T12:23:47Z</time></trkpt><trkpt lat="44.10050633176634" lon="11.275546303284692"><ele>900.0</ele><time>2026-04-09T12:23:48Z</time></trkpt><trkpt lat="44.100408063828134" lon="11.275399375619596"><ele>900.0</ele><time>2026-04-09T12:23:49Z</time></trkpt><trkpt lat="44.10031518606329" lon="11.27527354353971"><ele>900.0</ele><time>2026-04-09T12:23:50Z</time></trkpt><trkpt lat="44.10020947870869" lon="11.275156664258294"><ele>900.0</ele><time>2026-04-09T12:23:51Z</time></trkpt><trkpt lat="44.100080823762106" lon="11.275073422524473"><ele>900.0</ele><time>2026-04-09T12:23:52Z</time></trkpt><trkpt lat="44.099928267075036" lon="11.275038036123597"><ele>901.3333333333333</ele><time>2026-04-09T12:23:53Z</time></trkpt><trkpt lat="44.09977064757" lon="11.275044021710134"><ele>902.6666666666666</ele><time>2026-04-09T12:23:54Z</time></trkpt><trkpt lat="44.09961196201633" lon="11.275075141279997"><ele>904.0</ele><time>2026-04-09T12:23:55Z</time></trkpt><trkpt lat="44.09947520677402" lon="11.275078868718646"><ele>904.0</ele><time>2026-04-09T12:23:56Z</time></trkpt><trkpt lat="44.09933333629933" lon="11.275068064241854"><ele>904.0</ele><time>2026-04-09T12:23:57Z</time></trkpt><trkpt lat="44.09920227610879" lon="11.275057516073504"><ele>904.0</ele><time>2026-04-09T12:23:58Z</time></trkpt><trkpt lat="44.09907366931515" lon="11.275067166594832"><ele>904.0</ele><time>2026-04-09T12:23:59Z</time></trkpt><trkpt lat="44.098935917886855" lon="11.275076604882642"><ele>906.0</ele><time>2026-04-09T12:24:00Z</time></trkpt><trkpt lat="44.09879301840152" lon="11.275127912799631"><ele>908.0</ele><time>2026-04-09T12:24:01Z</time></trkpt><trkpt lat="44.098664355366026" lon="11.275214108287726"><ele>910.0</ele><time>2026-04-09T12:24:02Z</time></trkpt><trkpt lat="44.09855325674739" lon="11.275289174367654"><ele>912.0</ele><time>2026-04-09T12:24:03Z</time></trkpt><trkpt lat="44.09842632689532" lon="11.275295532769121"><ele>912.0</ele><time>2026-04-09T12:24:04Z</time></trkpt><trkpt lat="44.09829722073363" lon="11.275257473184087"><ele>912.0</ele><time>2026-04-09T12:24:05Z</time></trkpt><trkpt lat="44.098143301490154" lon="11.275196401585143"><ele>912.0</ele><time>2026-04-09T12:24:06Z</time></trkpt><trkpt lat="44.09796269797188" lon="11.275129843075968"><ele>912.6666666666667</ele><time>2026-04-09T12:24:07Z</time></trkpt><trkpt lat="44.09778900009799" lon="11.275067210258547"><ele>913.3333333333334</ele><time>2026-04-09T12:24:07.999Z</time></trkpt><trkpt lat="44.09763717130033" lon="11.27502010207661"><ele>914.0</ele><time>2026-04-09T12:24:08.999Z</time></trkpt><trkpt lat="44.09748439989853" lon="11.274982720849902"><ele>915.75</ele><time>2026-04-09T12:24:09.999Z</time></trkpt><trkpt lat="44.09732008665879" lon="11.274954939820873"><ele>917.5</ele><time>2026-04-09T12:24:10.999Z</time></trkpt><trkpt lat="44.09717855285537" lon="11.27494475323555"><ele>919.25</ele><time>2026-04-09T12:24:11.999Z</time></trkpt><trkpt lat="44.09704595952636" lon="11.27495922472805"><ele>921.0</ele><time>2026-04-09T12:24:12.999Z</time></trkpt><trkpt lat="44.0969087400048" lon="11.275024836696256"><ele>921.0</ele><time>2026-04-09T12:24:13.999Z</time></trkpt><trkpt lat="44.09676341178744" lon="11.275091868404518"><ele>921.0</ele><time>2026-04-09T12:24:14.999Z</time></trkpt><trkpt lat="44.096611918401784" lon="11.275161058791415"><ele>921.0</ele><time>2026-04-09T12:24:15.999Z</time></trkpt><trkpt lat="44.09647290499117" lon="11.275205899705808"><ele>920.5</ele><time>2026-04-09T12:24:16.999Z</time></trkpt><trkpt lat="44.09634270363998" lon="11.275240469665915"><ele>920.0</ele><time>2026-04-09T12:24:17.999Z</time></trkpt><trkpt lat="44.09621085131006" lon="11.275274502457453"><ele>919.5</ele><time>2026-04-09T12:24:19Z</time></trkpt><trkpt lat="44.096076395328446" lon="11.275312263276883"><ele>919.0</ele><time>2026-04-09T12:24:20Z</time></trkpt><trkpt lat="44.0959486350226" lon="11.275318434745788"><ele>919.0</ele><time>2026-04-09T12:24:21Z</time></trkpt><trkpt lat="44.095832076279315" lon="11.275327735872901"><ele>919.0</ele><time>2026-04-09T12:24:22Z</time></trkpt><trkpt lat="44.095711203403674" lon="11.275338123908893"><ele>919.0</ele><time>2026-04-09T12:24:23Z</time></trkpt><trkpt lat="44.095586117436625" lon="11.275319526523077"><ele>919.0</ele><time>2026-04-09T12:24:24Z</time></trkpt><trkpt lat="44.09546989191223" lon="11.275307071181702"><ele>918.0</ele><time>2026-04-09T12:24:25Z</time></trkpt><trkpt lat="44.09535757344349" lon="11.275279292507586"><ele>917.0</ele><time>2026-04-09T12:24:26Z</time></trkpt><trkpt lat="44.09522219793763" lon="11.275303319088609"><ele>916.0</ele><time>2026-04-09T12:24:27Z</time></trkpt><trkpt lat="44.09507550726662" lon="11.27534254052617"><ele>915.0</ele><time>2026-04-09T12:24:28Z</time></trkpt><trkpt lat="44.09492988329082" lon="11.275413487824302"><ele>912.5</ele><time>2026-04-09T12:24:29Z</time></trkpt><trkpt lat="44.09480928635734" lon="11.275499999094128"><ele>910.0</ele><time>2026-04-09T12:24:30Z</time></trkpt><trkpt lat="44.09469719754852" lon="11.275617474311243"><ele>907.5</ele><time>2026-04-09T12:24:31Z</time></trkpt><trkpt lat="44.0946027835066" lon="11.275758834883861"><ele>905.0</ele><time>2026-04-09T12:24:32Z</time></trkpt><trkpt lat="44.094535519176326" lon="11.275889774356498"><ele>904.8333333333334</ele><time>2026-04-09T12:24:33Z</time></trkpt><trkpt lat="44.094479589863425" lon="11.276014012201818"><ele>904.6666666666667</ele><time>2026-04-09T12:24:34Z</time></trkpt><trkpt lat="44.09443034999285" lon="11.27612939613137"><ele>904.5</ele><time>2026-04-09T12:24:35Z</time></trkpt><trkpt lat="44.094377797662965" lon="11.276225547036567"><ele>904.3333333333333</ele><time>2026-04-09T12:24:36Z</time></trkpt><trkpt lat="44.094322603706495" lon="11.276287915326916"><ele>904.1666666666666</ele><time>2026-04-09T12:24:37Z</time></trkpt><trkpt lat="44.09425041041344" lon="11.276298721950523"><ele>904.0</ele><time>2026-04-09T12:24:38Z</time></trkpt><trkpt lat="44.09417957211889" lon="11.276269027843307"><ele>903.9999999999999</ele><time>2026-04-09T12:24:39Z</time></trkpt><trkpt lat="44.094103940858965" lon="11.276260894470084"><ele>904.0</ele><time>2026-04-09T12:24:40Z</time></trkpt><trkpt lat="44.094040500851975" lon="11.276308126116733"><ele>904.0</ele><time>2026-04-09T12:24:41Z</time></trkpt><trkpt lat="44.09400464634127" lon="11.276385578734452"><ele>904.0</ele><time>2026-04-09T12:24:42Z</time></trkpt><trkpt lat="44.09399938516598" lon="11.276492299532885"><ele>903.9999999999999</ele><time>2026-04-09T12:24:43Z</time></trkpt><trkpt lat="44.09402219747629" lon="11.276621467963233"><ele>904.0</ele><time>2026-04-09T12:24:44Z</time></trkpt><trkpt lat="44.09407237078418" lon="11.27675593397892"><ele>904.0</ele><time>2026-04-09T12:24:45Z</time></trkpt><trkpt lat="44.094094459021285" lon="11.276877483577746"><ele>904.0</ele><time>2026-04-09T12:24:46Z</time></trkpt><trkpt lat="44.094075644560554" lon="11.277019814033368"><ele>904.0</ele><time>2026-04-09T12:24:47Z</time></trkpt><trkpt lat="44.09401640171133" lon="11.277161922529551"><ele>904.0</ele><time>2026-04-09T12:24:48Z</time></trkpt><trkpt lat="44.09393758287893" lon="11.277320057744273"><ele>902.25</ele><time>2026-04-09T12:24:49Z</time></trkpt><trkpt lat="44.09387000868838" lon="11.277484867405969"><ele>900.5</ele><time>2026-04-09T12:24:50Z</time></trkpt><trkpt lat="44.093800342747045" lon="11.277666249180553"><ele>898.75</ele><time>2026-04-09T12:24:51Z</time></trkpt><trkpt lat="44.093722558497376" lon="11.277829841727396"><ele>897.0</ele><time>2026-04-09T12:24:52Z</time></trkpt><trkpt lat="44.09364101370514" lon="11.277967409801166"><ele>897.0</ele><time>2026-04-09T12:24:53Z</time></trkpt><trkpt lat="44.09355005281973" lon="11.278090858048467"><ele>897.0</ele><time>2026-04-09T12:24:54Z</time></trkpt><trkpt lat="44.093437723224916" lon="11.27820406958047"><ele>897.0</ele><time>2026-04-09T12:24:55Z</time></trkpt><trkpt lat="44.09330104253458" lon="11.27829030608496"><ele>897.0</ele><time>2026-04-09T12:24:56Z</time></trkpt><trkpt lat="44.09314882742786" lon="11.278333047054078"><ele>895.5</ele><time>2026-04-09T12:24:57Z</time></trkpt><trkpt lat="44.09301540036479" lon="11.278352731013626"><ele>894.0</ele><time>2026-04-09T12:24:58Z</time></trkpt><trkpt lat="44.09289277475094" lon="11.278375646823534"><ele>892.5</ele><time>2026-04-09T12:24:59Z</time></trkpt><trkpt lat="44.09277915592875" lon="11.278442280761258"><ele>891.0</ele><time>2026-04-09T12:25:00Z</time></trkpt><trkpt lat="44.09268015150417" lon="11.278561403466425"><ele>891.0</ele><time>2026-04-09T12:25:01Z</time></trkpt><trkpt lat="44.09260262616262" lon="11.278727325842596"><ele>891.0</ele><time>2026-04-09T12:25:02Z</time></trkpt><trkpt lat="44.09256191228717" lon="11.278893486319372"><ele>891.0</ele><time>2026-04-09T12:25:03Z</time></trkpt><trkpt lat="44.09252663184104" lon="11.279072006654166"><ele>891.0</ele><time>2026-04-09T12:25:04Z</time></trkpt><trkpt lat="44.0924971070243" lon="11.279248954190294"><ele>889.75</ele><time>2026-04-09T12:25:05Z</time></trkpt><trkpt lat="44.092455311021325" lon="11.279408888501846"><ele>888.5</ele><time>2026-04-09T12:25:06Z</time></trkpt><trkpt lat="44.09240893044114" lon="11.279564312226832"><ele>887.25</ele><time>2026-04-09T12:25:07Z</time></trkpt><trkpt lat="44.09236185133615" lon="11.279715622735061"><ele>886.0</ele><time>2026-04-09T12:25:08Z</time></trkpt><trkpt lat="44.0922923157655" lon="11.279857506194876"><ele>886.0</ele><time>2026-04-09T12:25:09Z</time></trkpt><trkpt lat="44.09220781045795" lon="11.279973730039856"><ele>886.0</ele><time>2026-04-09T12:25:10Z</time></trkpt><trkpt lat="44.09210573671896" lon="11.280069887409887"><ele>886.0</ele><time>2026-04-09T12:25:11Z</time></trkpt><trkpt lat="44.09198219314566" lon="11.280145046086126"><ele>886.0</ele><time>2026-04-09T12:25:12Z</time></trkpt><trkpt lat="44.09184169268796" lon="11.280208985864117"><ele>886.0</ele><time>2026-04-09T12:25:13Z</time></trkpt><trkpt lat="44.091712238478436" lon="11.280278041977905"><ele>886.0</ele><time>2026-04-09T12:25:14Z</time></trkpt><trkpt lat="44.09159203043707" lon="11.280347966765884"><ele>886.0</ele><time>2026-04-09T12:25:15Z</time></trkpt><trkpt lat="44.091460989124535" lon="11.280425499488885"><ele>886.0</ele><time>2026-04-09T12:25:16Z</time></trkpt><trkpt lat="44.09132500853573" lon="11.280507188862304"><ele>888.5</ele><time>2026-04-09T12:25:17Z</time></trkpt><trkpt lat="44.09118506787093" lon="11.280610312653822"><ele>891.0</ele><time>2026-04-09T12:25:18Z</time></trkpt><trkpt lat="44.091058722833374" lon="11.280727506392683"><ele>893.5</ele><time>2026-04-09T12:25:19Z</time></trkpt><trkpt lat="44.09095306412607" lon="11.28085246926199"><ele>896.0</ele><time>2026-04-09T12:25:20Z</time></trkpt><trkpt lat="44.09084846276774" lon="11.280978023102476"><ele>895.5</ele><time>2026-04-09T12:25:21Z</time></trkpt><trkpt lat="44.090735910496456" lon="11.281095238133059"><ele>895.0</ele><time>2026-04-09T12:25:22Z</time></trkpt><trkpt lat="44.09062449100045" lon="11.281177336015205"><ele>894.5</ele><time>2026-04-09T12:25:23Z</time></trkpt><trkpt lat="44.09050487311488" lon="11.281160002647052"><ele>894.0</ele><time>2026-04-09T12:25:24Z</time></trkpt><trkpt lat="44.09038291554605" lon="11.281124784492759"><ele>894.0</ele><time>2026-04-09T12:25:25Z</time></trkpt><trkpt lat="44.09024471225881" lon="11.281101074685457"><ele>894.0</ele><time>2026-04-09T12:25:26Z</time></trkpt><trkpt lat="44.09009743513701" lon="11.281093582041853"><ele>894.0</ele><time>2026-04-09T12:25:27Z</time></trkpt><trkpt lat="44.089949917188" lon="11.281122024603548"><ele>894.0</ele><time>2026-04-09T12:25:28Z</time></trkpt><trkpt lat="44.089817856391385" lon="11.281167407941936"><ele>893.0</ele><time>2026-04-09T12:25:29Z</time></trkpt><trkpt lat="44.08967867689107" lon="11.281235260073577"><ele>892.0</ele><time>2026-04-09T12:25:30Z</time></trkpt><trkpt lat="44.08953264863212" lon="11.281328894741197"><ele>891.0</ele><time>2026-04-09T12:25:31Z</time></trkpt><trkpt lat="44.08937503827325" lon="11.28142003402757"><ele>888.6666666666667</ele><time>2026-04-09T12:25:32Z</time></trkpt><trkpt lat="44.08922389695145" lon="11.281435896065132"><ele>886.3333333333334</ele><time>2026-04-09T12:25:33Z</time></trkpt><trkpt lat="44.08908366350141" lon="11.281442126942785"><ele>884.0</ele><time>2026-04-09T12:25:34Z</time></trkpt><trkpt lat="44.0889256920021" lon="11.281404742670215"><ele>884.0</ele><time>2026-04-09T12:25:35Z</time></trkpt><trkpt lat="44.088773243079764" lon="11.28135624468173"><ele>884.0</ele><time>2026-04-09T12:25:36Z</time></trkpt><trkpt lat="44.08864286046964" lon="11.281329898856235"><ele>884.0</ele><time>2026-04-09T12:25:37Z</time></trkpt><trkpt lat="44.088519673703175" lon="11.28133047064584"><ele>884.0</ele><time>2026-04-09T12:25:38Z</time></trkpt><trkpt lat="44.08838753857606" lon="11.281342866504971"><ele>884.0</ele><time>2026-04-09T12:25:39Z</time></trkpt><trkpt lat="44.08826453362445" lon="11.28134863068536"><ele>884.0</ele><time>2026-04-09T12:25:40Z</time></trkpt><trkpt lat="44.08813553564743" lon="11.281327052512696"><ele>884.0</ele><time>2026-04-09T12:25:41Z</time></trkpt><trkpt lat="44.08800771047085" lon="11.281251834781184"><ele>884.0</ele><time>2026-04-09T12:25:42Z</time></trkpt><trkpt lat="44.087909635283204" lon="11.281136652561996"><ele>886.5</ele><time>2026-04-09T12:25:43Z</time></trkpt><trkpt lat="44.08783838634061" lon="11.280981047471428"><ele>889.0</ele><time>2026-04-09T12:25:44Z</time></trkpt><trkpt lat="44.08777839088804" lon="11.280838289314982"><ele>891.5</ele><time>2026-04-09T12:25:45Z</time></trkpt><trkpt lat="44.08769035141842" lon="11.280721666881485"><ele>894.0</ele><time>2026-04-09T12:25:46Z</time></trkpt><trkpt lat="44.08759840010915" lon="11.280627129893617"><ele>890.0</ele><time>2026-04-09T12:25:47Z</time></trkpt><trkpt lat="44.08752045076165" lon="11.280543957796231"><ele>886.0000000000001</ele><time>2026-04-09T12:25:48Z</time></trkpt><trkpt lat="44.08744320309487" lon="11.280472235121394"><ele>882.0000000000001</ele><time>2026-04-09T12:25:49Z</time></trkpt><trkpt lat="44.08735403126548" lon="11.280451603511954"><ele>878.0</ele><time>2026-04-09T12:25:50Z</time></trkpt><trkpt lat="44.087263021730394" lon="11.280474140398734"><ele>874.0</ele><time>2026-04-09T12:25:51Z</time></trkpt><trkpt lat="44.08716989486171" lon="11.280550421682994"><ele>875.6</ele><time>2026-04-09T12:25:52Z</time></trkpt><trkpt lat="44.08707675539408" lon="11.280659129664782"><ele>877.2</ele><time>2026-04-09T12:25:53Z</time></trkpt><trkpt lat="44.08699609225226" lon="11.280764996443658"><ele>878.8000000000001</ele><time>2026-04-09T12:25:54Z</time></trkpt><trkpt lat="44.08693391081736" lon="11.280881117723288"><ele>880.4000000000001</ele><time>2026-04-09T12:25:55Z</time></trkpt><trkpt lat="44.086898210897495" lon="11.28101793282288"><ele>882.0</ele><time>2026-04-09T12:25:56Z</time></trkpt><trkpt lat="44.08689064823649" lon="11.28117619068446"><ele>882.0</ele><time>2026-04-09T12:25:57Z</time></trkpt><trkpt lat="44.086905504239276" lon="11.281337837094368"><ele>882.0</ele><time>2026-04-09T12:25:58Z</time></trkpt><trkpt lat="44.086923705915034" lon="11.281480422722007"><ele>882.0</ele><time>2026-04-09T12:25:59Z</time></trkpt><trkpt lat="44.08692387270161" lon="11.281612280985371"><ele>882.0</ele><time>2026-04-09T12:26:00Z</time></trkpt><trkpt lat="44.086869908277265" lon="11.281726121460418"><ele>882.0</ele><time>2026-04-09T12:26:01Z</time></trkpt><trkpt lat="44.086797127322065" lon="11.281789512564691"><ele>882.8333333333334</ele><time>2026-04-09T12:26:02Z</time></trkpt><trkpt lat="44.08671358212122" lon="11.281797632871596"><ele>883.6666666666667</ele><time>2026-04-09T12:26:03Z</time></trkpt><trkpt lat="44.086632927228536" lon="11.281764558275324"><ele>884.5</ele><time>2026-04-09T12:26:04Z</time></trkpt><trkpt lat="44.086561125273334" lon="11.281687015687892"><ele>885.3333333333334</ele><time>2026-04-09T12:26:05Z</time></trkpt><trkpt lat="44.08650590336433" lon="11.281586516417716"><ele>886.1666666666667</ele><time>2026-04-09T12:26:06Z</time></trkpt><trkpt lat="44.08644162049824" lon="11.281523573615909"><ele>887.0</ele><time>2026-04-09T12:26:07Z</time></trkpt><trkpt lat="44.08636848717082" lon="11.281523082387416"><ele>884.6666666666667</ele><time>2026-04-09T12:26:08Z</time></trkpt><trkpt lat="44.08630214913635" lon="11.281582929221665"><ele>882.3333333333334</ele><time>2026-04-09T12:26:09Z</time></trkpt><trkpt lat="44.0862368492317" lon="11.281673700261614"><ele>880.0</ele><time>2026-04-09T12:26:10Z</time></trkpt><trkpt lat="44.08623285217453" lon="11.281824216832618"><ele>877.6666666666667</ele><time>2026-04-09T12:26:11Z</time></trkpt><trkpt lat="44.086203236911004" lon="11.28193575429753"><ele>875.3333333333334</ele><time>2026-04-09T12:26:11.999Z</time></trkpt><trkpt lat="44.0861929543637" lon="11.282023854509443"><ele>873.0</ele><time>2026-04-09T12:26:12.999Z</time></trkpt><trkpt lat="44.08612984059474" lon="11.282066850519254"><ele>873.0</ele><time>2026-04-09T12:26:13.999Z</time></trkpt><trkpt lat="44.08605895195081" lon="11.282053263572571"><ele>873.0</ele><time>2026-04-09T12:26:14.999Z</time></trkpt><trkpt lat="44.085995884176505" lon="11.281977540823414"><ele>873.0</ele><time>2026-04-09T12:26:15.999Z</time></trkpt><trkpt lat="44.08593929923001" lon="11.281870255340749"><ele>873.0</ele><time>2026-04-09T12:26:16.999Z</time></trkpt><trkpt lat="44.08586345324328" lon="11.281763864111076"><ele>873.0</ele><time>2026-04-09T12:26:17.999Z</time></trkpt><trkpt lat="44.085770426995936" lon="11.281680234372296"><ele>871.5</ele><time>2026-04-09T12:26:18.999Z</time></trkpt><trkpt lat="44.08566534351004" lon="11.281621921549018"><ele>870.0</ele><time>2026-04-09T12:26:19.999Z</time></trkpt><trkpt lat="44.08553542306938" lon="11.281580309478986"><ele>868.5</ele><time>2026-04-09T12:26:20.999Z</time></trkpt><trkpt lat="44.085418873864974" lon="11.281521978541708"><ele>867.0</ele><time>2026-04-09T12:26:21.999Z</time></trkpt><trkpt lat="44.085310010705584" lon="11.281487455138231"><ele>867.0</ele><time>2026-04-09T12:26:22.999Z</time></trkpt><trkpt lat="44.08520508163715" lon="11.281449727799691"><ele>867.0</ele><time>2026-04-09T12:26:23.999Z</time></trkpt><trkpt lat="44.085117688057636" lon="11.281375694293068"><ele>867.0</ele><time>2026-04-09T12:26:25Z</time></trkpt><trkpt lat="44.08507729512468" lon="11.281260650202318"><ele>867.0</ele><time>2026-04-09T12:26:26Z</time></trkpt><trkpt lat="44.08504713338301" lon="11.281146567088497"><ele>867.0</ele><time>2026-04-09T12:26:27Z</time></trkpt><trkpt lat="44.084983336281645" lon="11.28108160557916"><ele>861.6</ele><time>2026-04-09T12:26:28Z</time></trkpt><trkpt lat="44.08488579179542" lon="11.281082898522689"><ele>856.2</ele><time>2026-04-09T12:26:29Z</time></trkpt><trkpt lat="44.08476990909097" lon="11.281137090007078"><ele>850.8</ele><time>2026-04-09T12:26:30Z</time></trkpt><trkpt lat="44.08467226929363" lon="11.281197823630503"><ele>845.4</ele><time>2026-04-09T12:26:31Z</time></trkpt><trkpt lat="44.08458245949422" lon="11.281248599776339"><ele>840.0</ele><time>2026-04-09T12:26:32Z</time></trkpt><trkpt lat="44.084517908379844" lon="11.281332971720998"><ele>842.5</ele><time>2026-04-09T12:26:33Z</time></trkpt><trkpt lat="44.084494399130044" lon="11.281462408567691"><ele>845.0</ele><time>2026-04-09T12:26:34Z</time></trkpt><trkpt lat="44.08448197101004" lon="11.28159032455662"><ele>847.5</ele><time>2026-04-09T12:26:35Z</time></trkpt><trkpt lat="44.08448669756285" lon="11.28169437885495"><ele>850.0</ele><time>2026-04-09T12:26:36Z</time></trkpt><trkpt lat="44.0844303637008" lon="11.281773707351523"><ele>852.5</ele><time>2026-04-09T12:26:37Z</time></trkpt><trkpt lat="44.08435629330745" lon="11.28179208603943"><ele>855.0</ele><time>2026-04-09T12:26:38Z</time></trkpt><trkpt lat="44.08427350296086" lon="11.28174553412887"><ele>855.0</ele><time>2026-04-09T12:26:39Z</time></trkpt><trkpt lat="44.08418386723531" lon="11.28163427873629"><ele>855.0</ele><time>2026-04-09T12:26:40Z</time></trkpt><trkpt lat="44.08410557015624" lon="11.281512990476001"><ele>855.0</ele><time>2026-04-09T12:26:41Z</time></trkpt><trkpt lat="44.083997196913344" lon="11.281416775517272"><ele>855.0</ele><time>2026-04-09T12:26:42Z</time></trkpt><trkpt lat="44.08387255035033" lon="11.281344892713157"><ele>850.4</ele><time>2026-04-09T12:26:43Z</time></trkpt><trkpt lat="44.083759265536244" lon="11.281290816972929"><ele>845.8</ele><time>2026-04-09T12:26:44Z</time></trkpt><trkpt lat="44.08365468384464" lon="11.281236207279582"><ele>841.2</ele><time>2026-04-09T12:26:45Z</time></trkpt><trkpt lat="44.08355271555591" lon="11.281180330204942"><ele>836.6</ele><time>2026-04-09T12:26:46Z</time></trkpt><trkpt lat="44.083453383551" lon="11.281121094869697"><ele>832.0</ele><time>2026-04-09T12:26:47Z</time></trkpt><trkpt lat="44.08336241451053" lon="11.281076880041601"><ele>832.0</ele><time>2026-04-09T12:26:48Z</time></trkpt><trkpt lat="44.08328399031286" lon="11.28104641668294"><ele>832.0</ele><time>2026-04-09T12:26:49Z</time></trkpt><trkpt lat="44.08321145654472" lon="11.281074544148302"><ele>832.0</ele><time>2026-04-09T12:26:50Z</time></trkpt><trkpt lat="44.08315884795262" lon="11.281165910895393"><ele>832.0</ele><time>2026-04-09T12:26:51Z</time></trkpt><trkpt lat="44.08312100927886" lon="11.2813140185666"><ele>832.0</ele><time>2026-04-09T12:26:52Z</time></trkpt><trkpt lat="44.08308832006031" lon="11.281478561292259"><ele>829.6</ele><time>2026-04-09T12:26:53Z</time></trkpt><trkpt lat="44.08303286459642" lon="11.281604931669339"><ele>827.2</ele><time>2026-04-09T12:26:54Z</time></trkpt><trkpt lat="44.08293986038672" lon="11.281667177712508"><ele>824.8</ele><time>2026-04-09T12:26:55Z</time></trkpt><trkpt lat="44.08284990778737" lon="11.281692570158503"><ele>822.4</ele><time>2026-04-09T12:26:56Z</time></trkpt><trkpt lat="44.082771313088166" lon="11.281755308000166"><ele>820.0</ele><time>2026-04-09T12:26:57Z</time></trkpt><trkpt lat="44.082730358909416" lon="11.281884277255482"><ele>820.0</ele><time>2026-04-09T12:26:58Z</time></trkpt><trkpt lat="44.082729865336965" lon="11.282055668290141"><ele>820.0</ele><time>2026-04-09T12:26:59Z</time></trkpt><trkpt lat="44.08275132308451" lon="11.282266059438925"><ele>820.0</ele><time>2026-04-09T12:27:00Z</time></trkpt><trkpt lat="44.082773468182566" lon="11.282445627787787"><ele>820.0</ele><time>2026-04-09T12:27:01Z</time></trkpt><trkpt lat="44.082807955904876" lon="11.282608145342493"><ele>820.2</ele><time>2026-04-09T12:27:02Z</time></trkpt><trkpt lat="44.08285835067259" lon="11.28276737593659"><ele>820.4</ele><time>2026-04-09T12:27:03Z</time></trkpt><trkpt lat="44.08290776091012" lon="11.282928801563935"><ele>820.5999999999999</ele><time>2026-04-09T12:27:04Z</time></trkpt><trkpt lat="44.08294563914687" lon="11.283064940272979"><ele>820.8</ele><time>2026-04-09T12:27:05Z</time></trkpt><trkpt lat="44.08298057357002" lon="11.283164765556792"><ele>821.0</ele><time>2026-04-09T12:27:06Z</time></trkpt><trkpt lat="44.08300061959202" lon="11.28331669626313"><ele>821.0</ele><time>2026-04-09T12:27:08Z</time></trkpt><trkpt lat="44.08291939495314" lon="11.283374197708115"><ele>821.0</ele><time>2026-04-09T12:27:10Z</time></trkpt><trkpt lat="44.08285868289214" lon="11.28333207488753"><ele>821.0</ele><time>2026-04-09T12:27:11Z</time></trkpt><trkpt lat="44.082803684346224" lon="11.283214275544598"><ele>821.0</ele><time>2026-04-09T12:27:12Z</time></trkpt><trkpt lat="44.082744619112326" lon="11.283072434660353"><ele>821.0</ele><time>2026-04-09T12:27:13Z</time></trkpt><trkpt lat="44.082681881596926" lon="11.28293322758385"><ele>821.0</ele><time>2026-04-09T12:27:14Z</time></trkpt><trkpt lat="44.08260578494085" lon="11.282777669122042"><ele>821.0</ele><time>2026-04-09T12:27:15Z</time></trkpt><trkpt lat="44.08253845377636" lon="11.28262935668843"><ele>821.0</ele><time>2026-04-09T12:27:16Z</time></trkpt><trkpt lat="44.0824785375448" lon="11.282475584270642"><ele>821.0</ele><time>2026-04-09T12:27:17Z</time></trkpt><trkpt lat="44.08243593827206" lon="11.282310060910394"><ele>820.75</ele><time>2026-04-09T12:27:18Z</time></trkpt><trkpt lat="44.082426533087634" lon="11.2821413179649"><ele>820.5</ele><time>2026-04-09T12:27:19Z</time></trkpt><trkpt lat="44.082429371882085" lon="11.281954287472432"><ele>820.25</ele><time>2026-04-09T12:27:20Z</time></trkpt><trkpt lat="44.08244358907334" lon="11.281759003478529"><ele>820.0</ele><time>2026-04-09T12:27:21Z</time></trkpt><trkpt lat="44.08245012537136" lon="11.281587376216866"><ele>820.0</ele><time>2026-04-09T12:27:22Z</time></trkpt><trkpt lat="44.08244755599226" lon="11.281433241861098"><ele>820.0</ele><time>2026-04-09T12:27:23Z</time></trkpt><trkpt lat="44.08243344898513" lon="11.28129428430643"><ele>820.0</ele><time>2026-04-09T12:27:24Z</time></trkpt><trkpt lat="44.08238701835495" lon="11.28116831354395"><ele>820.0</ele><time>2026-04-09T12:27:25Z</time></trkpt><trkpt lat="44.082307182863545" lon="11.28104778258006"><ele>820.0</ele><time>2026-04-09T12:27:26Z</time></trkpt><trkpt lat="44.08219734784569" lon="11.28094648959948"><ele>821.25</ele><time>2026-04-09T12:27:27Z</time></trkpt><trkpt lat="44.082084182373485" lon="11.280897944473937"><ele>822.5</ele><time>2026-04-09T12:27:28Z</time></trkpt><trkpt lat="44.08196600209435" lon="11.280870150446985"><ele>823.75</ele><time>2026-04-09T12:27:29Z</time></trkpt><trkpt lat="44.08184598449645" lon="11.280926830477528"><ele>825.0</ele><time>2026-04-09T12:27:30Z</time></trkpt><trkpt lat="44.08173852423398" lon="11.281077957436336"><ele>825.0</ele><time>2026-04-09T12:27:31Z</time></trkpt><trkpt lat="44.08162713917845" lon="11.281226343036668"><ele>825.0</ele><time>2026-04-09T12:27:32Z</time></trkpt><trkpt lat="44.081516256155005" lon="11.281370197962662"><ele>825.0</ele><time>2026-04-09T12:27:33Z</time></trkpt><trkpt lat="44.081395950750384" lon="11.281493234451421"><ele>821.0</ele><time>2026-04-09T12:27:34Z</time></trkpt><trkpt lat="44.081291812527354" lon="11.281599536639222"><ele>817.0</ele><time>2026-04-09T12:27:35Z</time></trkpt><trkpt lat="44.08117073772477" lon="11.281678389520303"><ele>813.0</ele><time>2026-04-09T12:27:36Z</time></trkpt><trkpt lat="44.081045112176135" lon="11.281724449443688"><ele>809.0</ele><time>2026-04-09T12:27:37Z</time></trkpt><trkpt lat="44.08092759225814" lon="11.281796653938374"><ele>809.0</ele><time>2026-04-09T12:27:38Z</time></trkpt><trkpt lat="44.080802333825496" lon="11.281825844715472"><ele>809.0</ele><time>2026-04-09T12:27:39Z</time></trkpt><trkpt lat="44.08068189317682" lon="11.28187261560974"><ele>809.0</ele><time>2026-04-09T12:27:40Z</time></trkpt><trkpt lat="44.0805540764361" lon="11.28189572118449"><ele>809.0</ele><time>2026-04-09T12:27:41Z</time></trkpt><trkpt lat="44.080411470643334" lon="11.281909637986987"><ele>808.0</ele><time>2026-04-09T12:27:42Z</time></trkpt><trkpt lat="44.08023750598853" lon="11.281924829519845"><ele>807.0</ele><time>2026-04-09T12:27:43Z</time></trkpt><trkpt lat="44.08004844589765" lon="11.281944987648066"><ele>806.0</ele><time>2026-04-09T12:27:44Z</time></trkpt><trkpt lat="44.07986521255413" lon="11.28196487540863"><ele>801.3333333333334</ele><time>2026-04-09T12:27:45Z</time></trkpt><trkpt lat="44.079675119978766" lon="11.281985430528925"><ele>796.6666666666667</ele><time>2026-04-09T12:27:46Z</time></trkpt><trkpt lat="44.079495995190925" lon="11.282004055224487"><ele>792.0</ele><time>2026-04-09T12:27:47Z</time></trkpt><trkpt lat="44.07932578727417" lon="11.28202175278184"><ele>792.0</ele><time>2026-04-09T12:27:48Z</time></trkpt><trkpt lat="44.07916263288616" lon="11.282037690376143"><ele>792.0</ele><time>2026-04-09T12:27:49Z</time></trkpt><trkpt lat="44.07900508451633" lon="11.282046061759965"><ele>792.0</ele><time>2026-04-09T12:27:50Z</time></trkpt><trkpt lat="44.07885022716265" lon="11.282039945674095"><ele>786.0</ele><time>2026-04-09T12:27:51Z</time></trkpt><trkpt lat="44.078694327515095" lon="11.282009548548663"><ele>780.0</ele><time>2026-04-09T12:27:52Z</time></trkpt><trkpt lat="44.07853727111525" lon="11.281948055411466"><ele>774.0</ele><time>2026-04-09T12:27:53Z</time></trkpt><trkpt lat="44.07839024782999" lon="11.281877196748631"><ele>770.6666666666666</ele><time>2026-04-09T12:27:54Z</time></trkpt><trkpt lat="44.07823914761728" lon="11.281822425542813"><ele>767.3333333333333</ele><time>2026-04-09T12:27:55Z</time></trkpt><trkpt lat="44.07808903899324" lon="11.281731711907364"><ele>764.0</ele><time>2026-04-09T12:27:56Z</time></trkpt><trkpt lat="44.07793728680873" lon="11.281662976498037"><ele>764.0</ele><time>2026-04-09T12:27:57Z</time></trkpt><trkpt lat="44.0777938463744" lon="11.281596254909747"><ele>764.0</ele><time>2026-04-09T12:27:58Z</time></trkpt><trkpt lat="44.07765563358275" lon="11.281520671183745"><ele>764.0</ele><time>2026-04-09T12:27:59Z</time></trkpt><trkpt lat="44.07752542925505" lon="11.28144522435621"><ele>764.0</ele><time>2026-04-09T12:27:59.999Z</time></trkpt><trkpt lat="44.07740426039103" lon="11.281375920055353"><ele>764.25</ele><time>2026-04-09T12:28:00.999Z</time></trkpt><trkpt lat="44.07728586572344" lon="11.281313095860426"><ele>764.5</ele><time>2026-04-09T12:28:01.999Z</time></trkpt><trkpt lat="44.07716541764757" lon="11.28124906797656"><ele>764.75</ele><time>2026-04-09T12:28:02.999Z</time></trkpt><trkpt lat="44.07703633844538" lon="11.28115745995311"><ele>765.0</ele><time>2026-04-09T12:28:03.999Z</time></trkpt><trkpt lat="44.07691203814918" lon="11.28103415998845"><ele>765.0</ele><time>2026-04-09T12:28:04.999Z</time></trkpt><trkpt lat="44.076790529586745" lon="11.280894637908837"><ele>765.0</ele><time>2026-04-09T12:28:05.999Z</time></trkpt><trkpt lat="44.07664954931936" lon="11.280784587857333"><ele>765.0</ele><time>2026-04-09T12:28:06.999Z</time></trkpt><trkpt lat="44.076489623642594" lon="11.280726141424534"><ele>765.0</ele><time>2026-04-09T12:28:07.999Z</time></trkpt><trkpt lat="44.07633552730802" lon="11.280696414758289"><ele>765.0</ele><time>2026-04-09T12:28:08.999Z</time></trkpt><trkpt lat="44.07619638431461" lon="11.28066586649664"><ele>765.0</ele><time>2026-04-09T12:28:09.999Z</time></trkpt><trkpt lat="44.07607393524981" lon="11.28059258617802"><ele>765.0</ele><time>2026-04-09T12:28:10.999Z</time></trkpt><trkpt lat="44.075960671892" lon="11.28048114464821"><ele>765.0</ele><time>2026-04-09T12:28:11.999Z</time></trkpt><trkpt lat="44.075867765619265" lon="11.280320533047181"><ele>765.0</ele><time>2026-04-09T12:28:12.999Z</time></trkpt><trkpt lat="44.07581615009623" lon="11.28015506913602"><ele>765.0</ele><time>2026-04-09T12:28:13.999Z</time></trkpt><trkpt lat="44.075800559914605" lon="11.27997914784294"><ele>765.0</ele><time>2026-04-09T12:28:14.999Z</time></trkpt><trkpt lat="44.075826332112584" lon="11.279763267102602"><ele>765.3333333333334</ele><time>2026-04-09T12:28:15.999Z</time></trkpt><trkpt lat="44.07582572340465" lon="11.279552908532501"><ele>765.6666666666667</ele><time>2026-04-09T12:28:16.999Z</time></trkpt><trkpt lat="44.075843090126455" lon="11.279332523966945"><ele>766.0</ele><time>2026-04-09T12:28:17.999Z</time></trkpt><trkpt lat="44.07585598170634" lon="11.279093153357097"><ele>766.3333333333334</ele><time>2026-04-09T12:28:18.999Z</time></trkpt><trkpt lat="44.07587639497423" lon="11.278848204298583"><ele>766.6666666666666</ele><time>2026-04-09T12:28:19.999Z</time></trkpt><trkpt lat="44.07589460400083" lon="11.278621364474708"><ele>767.0</ele><time>2026-04-09T12:28:20.999Z</time></trkpt><trkpt lat="44.07590743842277" lon="11.2784101819729"><ele>767.0</ele><time>2026-04-09T12:28:21.999Z</time></trkpt><trkpt lat="44.07590002138868" lon="11.278207891151629"><ele>767.0</ele><time>2026-04-09T12:28:22.999Z</time></trkpt><trkpt lat="44.07586695632793" lon="11.277992477048345"><ele>767.0</ele><time>2026-04-09T12:28:23.999Z</time></trkpt><trkpt lat="44.07581482505713" lon="11.277788294152385"><ele>767.0</ele><time>2026-04-09T12:28:24.999Z</time></trkpt><trkpt lat="44.07578199083036" lon="11.277606143274966"><ele>767.0</ele><time>2026-04-09T12:28:25.999Z</time></trkpt><trkpt lat="44.07581077158242" lon="11.277427067122208"><ele>767.0</ele><time>2026-04-09T12:28:26.999Z</time></trkpt><trkpt lat="44.075854620691295" lon="11.277272987037858"><ele>767.0</ele><time>2026-04-09T12:28:27.999Z</time></trkpt><trkpt lat="44.075880140710204" lon="11.277128925669613"><ele>767.0</ele><time>2026-04-09T12:28:28.999Z</time></trkpt><trkpt lat="44.07590749633662" lon="11.276984145154055"><ele>767.0</ele><time>2026-04-09T12:28:29.999Z</time></trkpt><trkpt lat="44.075869493799196" lon="11.276809588984168"><ele>767.0</ele><time>2026-04-09T12:28:30.999Z</time></trkpt><trkpt lat="44.07577317671699" lon="11.276666512751508"><ele>767.0</ele><time>2026-04-09T12:28:31.999Z</time></trkpt><trkpt lat="44.0756648395558" lon="11.276521927137232"><ele>761.5</ele><time>2026-04-09T12:28:32.999Z</time></trkpt><trkpt lat="44.07554983955893" lon="11.27637113015383"><ele>756.0</ele><time>2026-04-09T12:28:33.999Z</time></trkpt><trkpt lat="44.07545051060649" lon="11.276232778720031"><ele>750.5</ele><time>2026-04-09T12:28:34.999Z</time></trkpt><trkpt lat="44.07536142122621" lon="11.2760924759882"><ele>745.0</ele><time>2026-04-09T12:28:35.999Z</time></trkpt><trkpt lat="44.075294140404644" lon="11.275933719099836"><ele>745.0</ele><time>2026-04-09T12:28:36.999Z</time></trkpt><trkpt lat="44.075240321504715" lon="11.275769214591499"><ele>745.0</ele><time>2026-04-09T12:28:37.999Z</time></trkpt><trkpt lat="44.075187598620055" lon="11.27561165988151"><ele>745.0</ele><time>2026-04-09T12:28:38.999Z</time></trkpt><trkpt lat="44.07513367125875" lon="11.275464696486768"><ele>745.0</ele><time>2026-04-09T12:28:39.999Z</time></trkpt><trkpt lat="44.07506033768784" lon="11.275327426728643"><ele>746.5</ele><time>2026-04-09T12:28:40.999Z</time></trkpt><trkpt lat="44.07494425783506" lon="11.275219154721622"><ele>748.0</ele><time>2026-04-09T12:28:41.999Z</time></trkpt><trkpt lat="44.07480518934034" lon="11.275141579389896"><ele>749.5</ele><time>2026-04-09T12:28:42.999Z</time></trkpt><trkpt lat="44.07468126874851" lon="11.275057739987494"><ele>751.0</ele><time>2026-04-09T12:28:43.999Z</time></trkpt><trkpt lat="44.07456610908608" lon="11.274972830063781"><ele>746.3333333333334</ele><time>2026-04-09T12:28:44.999Z</time></trkpt><trkpt lat="44.07445169862371" lon="11.274851297732159"><ele>741.6666666666666</ele><time>2026-04-09T12:28:45.999Z</time></trkpt><trkpt lat="44.07433790730764" lon="11.274691367019399"><ele>737.0</ele><time>2026-04-09T12:28:46.999Z</time></trkpt><trkpt lat="44.07423774321363" lon="11.274535663331394"><ele>737.0</ele><time>2026-04-09T12:28:47.999Z</time></trkpt><trkpt lat="44.07414074213128" lon="11.274387130343552"><ele>737.0</ele><time>2026-04-09T12:28:48.999Z</time></trkpt><trkpt lat="44.07404197065274" lon="11.274269652979903"><ele>737.0</ele><time>2026-04-09T12:28:49.999Z</time></trkpt><trkpt lat="44.073979128429016" lon="11.274154031703782"><ele>737.0</ele><time>2026-04-09T12:28:51Z</time></trkpt><trkpt lat="44.073932363430124" lon="11.274023165619543"><ele>731.5</ele><time>2026-04-09T12:28:52Z</time></trkpt><trkpt lat="44.073919000174534" lon="11.273877664114364"><ele>726.0</ele><time>2026-04-09T12:28:53Z</time></trkpt><trkpt lat="44.07394042025536" lon="11.273736268088953"><ele>720.5</ele><time>2026-04-09T12:28:54Z</time></trkpt><trkpt lat="44.07397941322006" lon="11.273580002136288"><ele>715.0</ele><time>2026-04-09T12:28:55Z</time></trkpt><trkpt lat="44.074036729069384" lon="11.273426015965065"><ele>715.0</ele><time>2026-04-09T12:28:56Z</time></trkpt><trkpt lat="44.074097192604064" lon="11.27324867086649"><ele>715.0</ele><time>2026-04-09T12:28:57Z</time></trkpt><trkpt lat="44.074142182316656" lon="11.273055672114543"><ele>715.0</ele><time>2026-04-09T12:28:58Z</time></trkpt><trkpt lat="44.07415744136261" lon="11.272869813859659"><ele>715.0</ele><time>2026-04-09T12:28:59Z</time></trkpt><trkpt lat="44.07414964287713" lon="11.27267346492907"><ele>718.0</ele><time>2026-04-09T12:29:00Z</time></trkpt><trkpt lat="44.07412387697041" lon="11.272446611093926"><ele>721.0</ele><time>2026-04-09T12:29:01Z</time></trkpt><trkpt lat="44.07412064673827" lon="11.272223538078533"><ele>724.0</ele><time>2026-04-09T12:29:02Z</time></trkpt><trkpt lat="44.07409267116206" lon="11.272022945611726"><ele>719.0</ele><time>2026-04-09T12:29:03Z</time></trkpt><trkpt lat="44.074082415883716" lon="11.271830797576005"><ele>714.0</ele><time>2026-04-09T12:29:04Z</time></trkpt><trkpt lat="44.07406744666231" lon="11.271651274603448"><ele>709.0</ele><time>2026-04-09T12:29:05Z</time></trkpt><trkpt lat="44.07404476063108" lon="11.271468556233065"><ele>704.0</ele><time>2026-04-09T12:29:06Z</time></trkpt><trkpt lat="44.07401982341578" lon="11.271288394379626"><ele>704.0</ele><time>2026-04-09T12:29:07Z</time></trkpt><trkpt lat="44.07397699974673" lon="11.271109170890929"><ele>704.0</ele><time>2026-04-09T12:29:08Z</time></trkpt><trkpt lat="44.07391698250125" lon="11.270927152889469"><ele>704.0</ele><time>2026-04-09T12:29:09Z</time></trkpt><trkpt lat="44.07384607543082" lon="11.270745718673199"><ele>704.0</ele><time>2026-04-09T12:29:10Z</time></trkpt><trkpt lat="44.07376654021837" lon="11.270590865992098"><ele>703.75</ele><time>2026-04-09T12:29:11Z</time></trkpt><trkpt lat="44.07367707054784" lon="11.270458482268367"><ele>703.5</ele><time>2026-04-09T12:29:12Z</time></trkpt><trkpt lat="44.07357133187677" lon="11.270338617317838"><ele>703.25</ele><time>2026-04-09T12:29:13Z</time></trkpt><trkpt lat="44.073465556131126" lon="11.270229561429096"><ele>703.0</ele><time>2026-04-09T12:29:14Z</time></trkpt><trkpt lat="44.07336416619951" lon="11.270135983094661"><ele>701.0</ele><time>2026-04-09T12:29:15Z</time></trkpt><trkpt lat="44.07326451338615" lon="11.27005909839188"><ele>699.0</ele><time>2026-04-09T12:29:16Z</time></trkpt><trkpt lat="44.07315063716774" lon="11.270022894769337"><ele>697.0</ele><time>2026-04-09T12:29:17Z</time></trkpt><trkpt lat="44.07301369356399" lon="11.270026845938427"><ele>695.0</ele><time>2026-04-09T12:29:18Z</time></trkpt><trkpt lat="44.07290017067744" lon="11.27006280741601"><ele>695.0</ele><time>2026-04-09T12:29:19Z</time></trkpt><trkpt lat="44.07282135892534" lon="11.270119996777757"><ele>695.0</ele><time>2026-04-09T12:29:20Z</time></trkpt><trkpt lat="44.072768946265214" lon="11.270210809671292"><ele>695.0</ele><time>2026-04-09T12:29:21Z</time></trkpt><trkpt lat="44.07275451114912" lon="11.270347427790284"><ele>695.0</ele><time>2026-04-09T12:29:22Z</time></trkpt><trkpt lat="44.0727685099641" lon="11.270531643300949"><ele>695.0</ele><time>2026-04-09T12:29:23Z</time></trkpt><trkpt lat="44.0727851887235" lon="11.270704261912185"><ele>696.25</ele><time>2026-04-09T12:29:24Z</time></trkpt><trkpt lat="44.072783362818626" lon="11.270890377185092"><ele>697.5</ele><time>2026-04-09T12:29:25Z</time></trkpt><trkpt lat="44.07278483858611" lon="11.27107146147082"><ele>698.75</ele><time>2026-04-09T12:29:26Z</time></trkpt><trkpt lat="44.072788559878205" lon="11.271226446006732"><ele>700.0</ele><time>2026-04-09T12:29:27Z</time></trkpt><trkpt lat="44.07278477609318" lon="11.271379500013344"><ele>698.2</ele><time>2026-04-09T12:29:28Z</time></trkpt><trkpt lat="44.0727633636157" lon="11.271517067903368"><ele>696.4</ele><time>2026-04-09T12:29:29Z</time></trkpt><trkpt lat="44.07269693584532" lon="11.271620701426547"><ele>694.5999999999999</ele><time>2026-04-09T12:29:30Z</time></trkpt><trkpt lat="44.072609588081356" lon="11.271675893237036"><ele>692.8</ele><time>2026-04-09T12:29:31Z</time></trkpt><trkpt lat="44.07250549368196" lon="11.271691830880176"><ele>691.0</ele><time>2026-04-09T12:29:32Z</time></trkpt><trkpt lat="44.07239179445374" lon="11.271652022629615"><ele>689.75</ele><time>2026-04-09T12:29:33Z</time></trkpt><trkpt lat="44.07228471055553" lon="11.27156556259786"><ele>688.5</ele><time>2026-04-09T12:29:34Z</time></trkpt><trkpt lat="44.0721755756672" lon="11.271453832331389"><ele>687.25</ele><time>2026-04-09T12:29:35Z</time></trkpt><trkpt lat="44.072042575787535" lon="11.271341938588833"><ele>686.0</ele><time>2026-04-09T12:29:36Z</time></trkpt><trkpt lat="44.07191344555163" lon="11.271243532075719"><ele>686.0</ele><time>2026-04-09T12:29:37Z</time></trkpt><trkpt lat="44.07179706526117" lon="11.271141811953107"><ele>686.0</ele><time>2026-04-09T12:29:38Z</time></trkpt><trkpt lat="44.07169378060639" lon="11.271024805430663"><ele>686.0</ele><time>2026-04-09T12:29:39Z</time></trkpt><trkpt lat="44.071622094630776" lon="11.270872310945478"><ele>686.0</ele><time>2026-04-09T12:29:40Z</time></trkpt><trkpt lat="44.07153087382623" lon="11.270741298493464"><ele>683.0</ele><time>2026-04-09T12:29:40.999Z</time></trkpt><trkpt lat="44.071453231410715" lon="11.270599640597402"><ele>680.0</ele><time>2026-04-09T12:29:41.999Z</time></trkpt><trkpt lat="44.07137327472066" lon="11.270469432301748"><ele>677.0</ele><time>2026-04-09T12:29:42.999Z</time></trkpt><trkpt lat="44.07127242045946" lon="11.270349582429382"><ele>674.0</ele><time>2026-04-09T12:29:43.999Z</time></trkpt><trkpt lat="44.071141745730586" lon="11.270238697193202"><ele>674.0</ele><time>2026-04-09T12:29:44.999Z</time></trkpt><trkpt lat="44.07099781055122" lon="11.270137389960954"><ele>674.0</ele><time>2026-04-09T12:29:45.999Z</time></trkpt><trkpt lat="44.0708666645814" lon="11.2700521531885"><ele>674.0</ele><time>2026-04-09T12:29:46.999Z</time></trkpt><trkpt lat="44.070745139450466" lon="11.269970017740228"><ele>674.0</ele><time>2026-04-09T12:29:47.999Z</time></trkpt><trkpt lat="44.07063528359995" lon="11.269886479312751"><ele>672.5</ele><time>2026-04-09T12:29:48.999Z</time></trkpt><trkpt lat="44.070516576935425" lon="11.269829747515919"><ele>671.0</ele><time>2026-04-09T12:29:49.999Z</time></trkpt><trkpt lat="44.070375885809504" lon="11.269820639108715"><ele>669.5</ele><time>2026-04-09T12:29:50.999Z</time></trkpt><trkpt lat="44.07022248661496" lon="11.2698661766084"><ele>668.0</ele><time>2026-04-09T12:29:51.999Z</time></trkpt><trkpt lat="44.07006848380023" lon="11.269924713356206"><ele>666.0</ele><time>2026-04-09T12:29:52.999Z</time></trkpt><trkpt lat="44.06990149661547" lon="11.269984753208055"><ele>664.0</ele><time>2026-04-09T12:29:53.999Z</time></trkpt><trkpt lat="44.06971610934924" lon="11.27003636527982"><ele>662.0</ele><time>2026-04-09T12:29:54.999Z</time></trkpt><trkpt lat="44.069538280477964" lon="11.270073567206635"><ele>662.0</ele><time>2026-04-09T12:29:55.999Z</time></trkpt><trkpt lat="44.069373363694424" lon="11.270105551978267"><ele>662.0</ele><time>2026-04-09T12:29:56.999Z</time></trkpt><trkpt lat="44.06921371437769" lon="11.270133803051511"><ele>662.0</ele><time>2026-04-09T12:29:57.999Z</time></trkpt><trkpt lat="44.06906795423339" lon="11.270154643391308"><ele>658.75</ele><time>2026-04-09T12:29:58.999Z</time></trkpt><trkpt lat="44.06891945674974" lon="11.270168211599056"><ele>655.5</ele><time>2026-04-09T12:29:59.999Z</time></trkpt><trkpt lat="44.06877203988937" lon="11.270168058718784"><ele>652.25</ele><time>2026-04-09T12:30:00.999Z</time></trkpt><trkpt lat="44.06863229467577" lon="11.270146951179523"><ele>649.0</ele><time>2026-04-09T12:30:01.999Z</time></trkpt><trkpt lat="44.06849843146137" lon="11.27006392490955"><ele>649.0</ele><time>2026-04-09T12:30:02.999Z</time></trkpt><trkpt lat="44.068368003573184" lon="11.269959207677914"><ele>649.0</ele><time>2026-04-09T12:30:03.999Z</time></trkpt><trkpt lat="44.068250320112" lon="11.269857533012628"><ele>649.0</ele><time>2026-04-09T12:30:04.999Z</time></trkpt><trkpt lat="44.06814988778841" lon="11.269741423303085"><ele>649.0</ele><time>2026-04-09T12:30:05.999Z</time></trkpt><trkpt lat="44.06807428112632" lon="11.269595252791694"><ele>644.3333333333334</ele><time>2026-04-09T12:30:06.999Z</time></trkpt><trkpt lat="44.06800932791435" lon="11.269409035571911"><ele>639.6666666666666</ele><time>2026-04-09T12:30:07.999Z</time></trkpt><trkpt lat="44.067929993717065" lon="11.269211744189146"><ele>635.0</ele><time>2026-04-09T12:30:08.999Z</time></trkpt><trkpt lat="44.06787810343857" lon="11.2689926008714"><ele>635.75</ele><time>2026-04-09T12:30:09.999Z</time></trkpt><trkpt lat="44.067837563814834" lon="11.268783692141643"><ele>636.5</ele><time>2026-04-09T12:30:10.999Z</time></trkpt><trkpt lat="44.06779888308563" lon="11.268587617869823"><ele>637.25</ele><time>2026-04-09T12:30:11.999Z</time></trkpt><trkpt lat="44.067732529853586" lon="11.268429820612814"><ele>638.0</ele><time>2026-04-09T12:30:12.999Z</time></trkpt><trkpt lat="44.067633725673026" lon="11.268301119762786"><ele>638.0</ele><time>2026-04-09T12:30:13.999Z</time></trkpt><trkpt lat="44.06750910784832" lon="11.268221174064523"><ele>638.0</ele><time>2026-04-09T12:30:14.999Z</time></trkpt><trkpt lat="44.067354568996755" lon="11.268159086150847"><ele>638.0</ele><time>2026-04-09T12:30:15.999Z</time></trkpt><trkpt lat="44.06720954174198" lon="11.26811524626814"><ele>638.0</ele><time>2026-04-09T12:30:16.999Z</time></trkpt><trkpt lat="44.067074788956276" lon="11.268066509782178"><ele>635.6666666666666</ele><time>2026-04-09T12:30:17.999Z</time></trkpt><trkpt lat="44.06694420387721" lon="11.267971061504923"><ele>633.3333333333334</ele><time>2026-04-09T12:30:18.999Z</time></trkpt><trkpt lat="44.06681521646916" lon="11.26782644432265"><ele>631.0</ele><time>2026-04-09T12:30:19.999Z</time></trkpt><trkpt lat="44.066698599691144" lon="11.26766273933535"><ele>629.0</ele><time>2026-04-09T12:30:20.999Z</time></trkpt><trkpt lat="44.066581865564544" lon="11.267532152825366"><ele>627.0</ele><time>2026-04-09T12:30:21.999Z</time></trkpt><trkpt lat="44.06643580047105" lon="11.267434050419558"><ele>625.0</ele><time>2026-04-09T12:30:22.999Z</time></trkpt><trkpt lat="44.06625448224347" lon="11.267364625384495"><ele>625.0</ele><time>2026-04-09T12:30:23.999Z</time></trkpt><trkpt lat="44.066067223222554" lon="11.26732860765"><ele>625.0</ele><time>2026-04-09T12:30:24.999Z</time></trkpt><trkpt lat="44.06587261230567" lon="11.267292492053954"><ele>625.0</ele><time>2026-04-09T12:30:25.999Z</time></trkpt><trkpt lat="44.065667860419204" lon="11.267220345808436"><ele>625.3333333333334</ele><time>2026-04-09T12:30:26.999Z</time></trkpt><trkpt lat="44.065471448856194" lon="11.267124038273101"><ele>625.6666666666666</ele><time>2026-04-09T12:30:27.999Z</time></trkpt><trkpt lat="44.06529185344975" lon="11.267037817651133"><ele>626.0</ele><time>2026-04-09T12:30:28.999Z</time></trkpt><trkpt lat="44.0651206448858" lon="11.266975117324428"><ele>626.0</ele><time>2026-04-09T12:30:29.999Z</time></trkpt><trkpt lat="44.06495185544386" lon="11.266941059471726"><ele>626.0</ele><time>2026-04-09T12:30:30.999Z</time></trkpt><trkpt lat="44.064788401927316" lon="11.266933812495719"><ele>626.0</ele><time>2026-04-09T12:30:31.999Z</time></trkpt><trkpt lat="44.064642249823194" lon="11.266940958226424"><ele>623.5</ele><time>2026-04-09T12:30:32.999Z</time></trkpt><trkpt lat="44.06450859755315" lon="11.266942120013736"><ele>621.0</ele><time>2026-04-09T12:30:33.999Z</time></trkpt><trkpt lat="44.06438077663667" lon="11.266907827931702"><ele>618.5</ele><time>2026-04-09T12:30:34.999Z</time></trkpt><trkpt lat="44.064279291874456" lon="11.266795321498915"><ele>616.0</ele><time>2026-04-09T12:30:35.999Z</time></trkpt><trkpt lat="44.06416466800928" lon="11.266634480222704"><ele>611.0</ele><time>2026-04-09T12:30:37Z</time></trkpt><trkpt lat="44.06404333383614" lon="11.26648026815554"><ele>606.0</ele><time>2026-04-09T12:30:38Z</time></trkpt><trkpt lat="44.06392674993496" lon="11.266297553049545"><ele>601.0</ele><time>2026-04-09T12:30:39Z</time></trkpt><trkpt lat="44.06381046530264" lon="11.266092825216466"><ele>601.0</ele><time>2026-04-09T12:30:40Z</time></trkpt><trkpt lat="44.063689628838766" lon="11.265902565459257"><ele>601.0</ele><time>2026-04-09T12:30:41Z</time></trkpt><trkpt lat="44.063584109454126" lon="11.265722691787861"><ele>601.0</ele><time>2026-04-09T12:30:42Z</time></trkpt><trkpt lat="44.06348099946976" lon="11.26554436128439"><ele>601.6666666666667</ele><time>2026-04-09T12:30:43Z</time></trkpt><trkpt lat="44.063402887959086" lon="11.265330910253544"><ele>602.3333333333334</ele><time>2026-04-09T12:30:44Z</time></trkpt><trkpt lat="44.06332964425585" lon="11.265117330782815"><ele>603.0</ele><time>2026-04-09T12:30:45Z</time></trkpt><trkpt lat="44.06325912389207" lon="11.264925595666865"><ele>599.5</ele><time>2026-04-09T12:30:46Z</time></trkpt><trkpt lat="44.06318156914068" lon="11.264742864610973"><ele>596.0</ele><time>2026-04-09T12:30:47Z</time></trkpt><trkpt lat="44.06309094549565" lon="11.264577697691728"><ele>592.5</ele><time>2026-04-09T12:30:48Z</time></trkpt><trkpt lat="44.0629792063543" lon="11.264448001411559"><ele>589.0</ele><time>2026-04-09T12:30:49Z</time></trkpt><trkpt lat="44.06284953354727" lon="11.264344806142702"><ele>589.0</ele><time>2026-04-09T12:30:50Z</time></trkpt><trkpt lat="44.06271876609019" lon="11.26425628778958"><ele>589.0</ele><time>2026-04-09T12:30:51Z</time></trkpt><trkpt lat="44.06259528173473" lon="11.264160924175528"><ele>589.0</ele><time>2026-04-09T12:30:52Z</time></trkpt><trkpt lat="44.06248267004833" lon="11.264065318294357"><ele>589.0</ele><time>2026-04-09T12:30:53Z</time></trkpt><trkpt lat="44.06239600291649" lon="11.26398508309654"><ele>587.0</ele><time>2026-04-09T12:30:54Z</time></trkpt><trkpt lat="44.06232631116503" lon="11.263921350071648"><ele>585.0</ele><time>2026-04-09T12:30:55Z</time></trkpt><trkpt lat="44.062257566616374" lon="11.263857501024203"><ele>583.0</ele><time>2026-04-09T12:30:57Z</time></trkpt><trkpt lat="44.06218820285604" lon="11.263827179859812"><ele>581.0</ele><time>2026-04-09T12:31:42Z</time></trkpt><trkpt lat="44.06212164382312" lon="11.263754342774835"><ele>579.0</ele><time>2026-04-09T12:35:56Z</time></trkpt><trkpt lat="44.06202750742702" lon="11.263702540546575"><ele>577.0</ele><time>2026-04-09T12:35:58Z</time></trkpt><trkpt lat="44.06191784276847" lon="11.263640116211441"><ele>577.0</ele><time>2026-04-09T12:36:00Z</time></trkpt><trkpt lat="44.061845331078146" lon="11.263595540539665"><ele>577.0</ele><time>2026-04-09T12:36:01Z</time></trkpt><trkpt lat="44.06175209169668" lon="11.263537700246713"><ele>577.0</ele><time>2026-04-09T12:36:02Z</time></trkpt><trkpt lat="44.06166567906039" lon="11.263478277291927"><ele>577.0</ele><time>2026-04-09T12:36:03Z</time></trkpt><trkpt lat="44.06159887239274" lon="11.263402783168587"><ele>577.0</ele><time>2026-04-09T12:36:04Z</time></trkpt><trkpt lat="44.06152732649931" lon="11.263369869004375"><ele>577.0</ele><time>2026-04-09T12:36:05Z</time></trkpt><trkpt lat="44.06153036035401" lon="11.263192843647927"><ele>576.8000000000001</ele><time>2026-04-09T12:36:06Z</time></trkpt><trkpt lat="44.06153501621573" lon="11.263080462613905"><ele>576.6</ele><time>2026-04-09T12:36:07Z</time></trkpt><trkpt lat="44.061567873698536" lon="11.262959720424645"><ele>576.4000000000001</ele><time>2026-04-09T12:36:08Z</time></trkpt><trkpt lat="44.061624153269435" lon="11.262859444377751"><ele>576.2</ele><time>2026-04-09T12:36:09Z</time></trkpt><trkpt lat="44.06168167996029" lon="11.262790260686705"><ele>576.0</ele><time>2026-04-09T12:36:10Z</time></trkpt><trkpt lat="44.06179118738325" lon="11.262769356604041"><ele>576.0</ele><time>2026-04-09T12:36:11Z</time></trkpt><trkpt lat="44.061903469237706" lon="11.262749118955785"><ele>576.0</ele><time>2026-04-09T12:36:12Z</time></trkpt><trkpt lat="44.06203216354072" lon="11.262721568515424"><ele>576.0</ele><time>2026-04-09T12:36:13Z</time></trkpt><trkpt lat="44.06217186569374" lon="11.262679596933237"><ele>576.0</ele><time>2026-04-09T12:36:14Z</time></trkpt><trkpt lat="44.06232633705975" lon="11.26263124406183"><ele>574.6666666666666</ele><time>2026-04-09T12:36:15Z</time></trkpt><trkpt lat="44.06250342577225" lon="11.262552786139622"><ele>573.3333333333333</ele><time>2026-04-09T12:36:16Z</time></trkpt><trkpt lat="44.06268508127526" lon="11.262519299502857"><ele>572.0</ele><time>2026-04-09T12:36:17Z</time></trkpt><trkpt lat="44.06284412735758" lon="11.262464003892621"><ele>572.0</ele><time>2026-04-09T12:36:18Z</time></trkpt><trkpt lat="44.06299291737426" lon="11.26240730472349"><ele>572.0</ele><time>2026-04-09T12:36:19Z</time></trkpt><trkpt lat="44.06314701515485" lon="11.26233508477586"><ele>572.0</ele><time>2026-04-09T12:36:20Z</time></trkpt><trkpt lat="44.06329585842925" lon="11.262259091277551"><ele>570.6666666666666</ele><time>2026-04-09T12:36:21Z</time></trkpt><trkpt lat="44.063443325336266" lon="11.262180337781897"><ele>569.3333333333334</ele><time>2026-04-09T12:36:22Z</time></trkpt><trkpt lat="44.06359635613513" lon="11.26209243346852"><ele>568.0</ele><time>2026-04-09T12:36:23Z</time></trkpt><trkpt lat="44.06375770546061" lon="11.26200713556107"><ele>568.0</ele><time>2026-04-09T12:36:24Z</time></trkpt><trkpt lat="44.063923239675105" lon="11.261916400304885"><ele>568.0</ele><time>2026-04-09T12:36:25Z</time></trkpt><trkpt lat="44.06408365690001" lon="11.261829356954637"><ele>568.0</ele><time>2026-04-09T12:36:26Z</time></trkpt><trkpt lat="44.06423345162361" lon="11.26174618553247"><ele>568.5</ele><time>2026-04-09T12:36:27Z</time></trkpt><trkpt lat="44.06437613605164" lon="11.261671451641444"><ele>569.0</ele><time>2026-04-09T12:36:28Z</time></trkpt><trkpt lat="44.06451480215825" lon="11.261608818276963"><ele>569.5</ele><time>2026-04-09T12:36:29Z</time></trkpt><trkpt lat="44.06465856811253" lon="11.261565083482557"><ele>570.0</ele><time>2026-04-09T12:36:30Z</time></trkpt><trkpt lat="44.06480581439098" lon="11.261535731548928"><ele>569.6666666666666</ele><time>2026-04-09T12:36:31Z</time></trkpt><trkpt lat="44.06495986327998" lon="11.26151387557361"><ele>569.3333333333333</ele><time>2026-04-09T12:36:32Z</time></trkpt><trkpt lat="44.06512116033222" lon="11.261505076185468"><ele>569.0</ele><time>2026-04-09T12:36:33Z</time></trkpt><trkpt lat="44.06528816486089" lon="11.26151176042299"><ele>569.0</ele><time>2026-04-09T12:36:34Z</time></trkpt><trkpt lat="44.065459760518415" lon="11.26153727890668"><ele>569.0</ele><time>2026-04-09T12:36:35Z</time></trkpt><trkpt lat="44.065625215840384" lon="11.261573832717334"><ele>569.0</ele><time>2026-04-09T12:36:36Z</time></trkpt><trkpt lat="44.06578800063775" lon="11.261618860694504"><ele>567.3333333333333</ele><time>2026-04-09T12:36:37Z</time></trkpt><trkpt lat="44.065953665918165" lon="11.2616680347503"><ele>565.6666666666666</ele><time>2026-04-09T12:36:38Z</time></trkpt><trkpt lat="44.06612156454509" lon="11.261720307133917"><ele>564.0</ele><time>2026-04-09T12:36:39Z</time></trkpt><trkpt lat="44.06629370457883" lon="11.261774934166857"><ele>564.0</ele><time>2026-04-09T12:36:40Z</time></trkpt><trkpt lat="44.06647248480509" lon="11.261827433745804"><ele>564.0</ele><time>2026-04-09T12:36:41Z</time></trkpt><trkpt lat="44.06665688428369" lon="11.261882921891042"><ele>564.0</ele><time>2026-04-09T12:36:42Z</time></trkpt><trkpt lat="44.06683552198097" lon="11.261938618100556"><ele>562.3333333333334</ele><time>2026-04-09T12:36:43Z</time></trkpt><trkpt lat="44.06700381663291" lon="11.261994373513623"><ele>560.6666666666667</ele><time>2026-04-09T12:36:44Z</time></trkpt><trkpt lat="44.06716808623467" lon="11.262047514926257"><ele>559.0</ele><time>2026-04-09T12:36:45Z</time></trkpt><trkpt lat="44.067334183767834" lon="11.262101586324311"><ele>557.3333333333334</ele><time>2026-04-09T12:36:46Z</time></trkpt><trkpt lat="44.067507447853444" lon="11.26215385722587"><ele>555.6666666666666</ele><time>2026-04-09T12:36:47Z</time></trkpt><trkpt lat="44.067689226874776" lon="11.262204519525703"><ele>554.0</ele><time>2026-04-09T12:36:48Z</time></trkpt><trkpt lat="44.06787451733371" lon="11.262247597423213"><ele>554.0</ele><time>2026-04-09T12:36:49Z</time></trkpt><trkpt lat="44.068056713898756" lon="11.262273943020077"><ele>554.0</ele><time>2026-04-09T12:36:50Z</time></trkpt><trkpt lat="44.068231341591265" lon="11.262291442135602"><ele>554.0</ele><time>2026-04-09T12:36:51Z</time></trkpt><trkpt lat="44.0684078030099" lon="11.262299505966878"><ele>556.3333333333333</ele><time>2026-04-09T12:36:52Z</time></trkpt><trkpt lat="44.068591553428035" lon="11.262295150013728"><ele>558.6666666666666</ele><time>2026-04-09T12:36:53Z</time></trkpt><trkpt lat="44.06877995976722" lon="11.262274868911046"><ele>561.0</ele><time>2026-04-09T12:36:54Z</time></trkpt><trkpt lat="44.06896655651169" lon="11.262243013682046"><ele>556.3333333333334</ele><time>2026-04-09T12:36:55Z</time></trkpt><trkpt lat="44.06914571174445" lon="11.262210454514388"><ele>551.6666666666667</ele><time>2026-04-09T12:36:56Z</time></trkpt><trkpt lat="44.06931952552495" lon="11.262178231405866"><ele>547.0</ele><time>2026-04-09T12:36:57Z</time></trkpt><trkpt lat="44.069488295378314" lon="11.262143096506597"><ele>547.0</ele><time>2026-04-09T12:36:58Z</time></trkpt><trkpt lat="44.06965803689239" lon="11.262102095895855"><ele>547.0</ele><time>2026-04-09T12:36:59Z</time></trkpt><trkpt lat="44.069834566376564" lon="11.262060437900908"><ele>547.0</ele><time>2026-04-09T12:37:00Z</time></trkpt><trkpt lat="44.07001640124942" lon="11.262018816201007"><ele>545.0</ele><time>2026-04-09T12:37:01Z</time></trkpt><trkpt lat="44.07018729172628" lon="11.261977806593004"><ele>543.0</ele><time>2026-04-09T12:37:02Z</time></trkpt><trkpt lat="44.070352860435236" lon="11.261936450782644"><ele>541.0</ele><time>2026-04-09T12:37:03Z</time></trkpt><trkpt lat="44.070514478840195" lon="11.261893127339015"><ele>541.0</ele><time>2026-04-09T12:37:04Z</time></trkpt><trkpt lat="44.07067603693583" lon="11.261837249463598"><ele>541.0</ele><time>2026-04-09T12:37:05Z</time></trkpt><trkpt lat="44.070847936195506" lon="11.261790411370699"><ele>541.0</ele><time>2026-04-09T12:37:06Z</time></trkpt><trkpt lat="44.07101356798349" lon="11.261710831658538"><ele>539.6666666666667</ele><time>2026-04-09T12:37:07Z</time></trkpt><trkpt lat="44.071180894490205" lon="11.261617682367099"><ele>538.3333333333334</ele><time>2026-04-09T12:37:08Z</time></trkpt><trkpt lat="44.0713461230489" lon="11.261506603012794"><ele>537.0</ele><time>2026-04-09T12:37:09Z</time></trkpt><trkpt lat="44.071501330796764" lon="11.261385301513336"><ele>535.6666666666666</ele><time>2026-04-09T12:37:10Z</time></trkpt><trkpt lat="44.07163786994443" lon="11.261240701392751"><ele>534.3333333333333</ele><time>2026-04-09T12:37:11Z</time></trkpt><trkpt lat="44.071775762888926" lon="11.261108890028687"><ele>533.0</ele><time>2026-04-09T12:37:12Z</time></trkpt><trkpt lat="44.07191084989856" lon="11.260964411903908"><ele>533.0</ele><time>2026-04-09T12:37:13Z</time></trkpt><trkpt lat="44.07204323785759" lon="11.260809938027798"><ele>533.0</ele><time>2026-04-09T12:37:14Z</time></trkpt><trkpt lat="44.07217670726538" lon="11.260650994599715"><ele>533.0</ele><time>2026-04-09T12:37:15Z</time></trkpt><trkpt lat="44.07231229000245" lon="11.260485718425818"><ele>532.3333333333333</ele><time>2026-04-09T12:37:16Z</time></trkpt><trkpt lat="44.07245226540695" lon="11.260310539746845"><ele>531.6666666666666</ele><time>2026-04-09T12:37:17Z</time></trkpt><trkpt lat="44.07259783260535" lon="11.260130092904365"><ele>531.0</ele><time>2026-04-09T12:37:18Z</time></trkpt><trkpt lat="44.07274896040757" lon="11.259945182127973"><ele>526.3333333333334</ele><time>2026-04-09T12:37:19Z</time></trkpt><trkpt lat="44.07289768045962" lon="11.259762785308235"><ele>521.6666666666667</ele><time>2026-04-09T12:37:20Z</time></trkpt><trkpt lat="44.07304059970154" lon="11.259588006548206"><ele>517.0</ele><time>2026-04-09T12:37:21Z</time></trkpt><trkpt lat="44.0731795371967" lon="11.259418941435145"><ele>517.6666666666667</ele><time>2026-04-09T12:37:22Z</time></trkpt><trkpt lat="44.07331319174932" lon="11.25925387223081"><ele>518.3333333333334</ele><time>2026-04-09T12:37:23Z</time></trkpt><trkpt lat="44.07344420918005" lon="11.259089475384009"><ele>519.0</ele><time>2026-04-09T12:37:24Z</time></trkpt><trkpt lat="44.07357191099151" lon="11.258928048274141"><ele>515.3333333333334</ele><time>2026-04-09T12:37:25Z</time></trkpt><trkpt lat="44.073695495173354" lon="11.25877252989"><ele>511.6666666666667</ele><time>2026-04-09T12:37:26Z</time></trkpt><trkpt lat="44.07381816408386" lon="11.258623937140102"><ele>508.0</ele><time>2026-04-09T12:37:27Z</time></trkpt><trkpt lat="44.07394409675296" lon="11.258472844061075"><ele>508.0</ele><time>2026-04-09T12:37:28Z</time></trkpt><trkpt lat="44.074071242395156" lon="11.258315917087684"><ele>508.0</ele><time>2026-04-09T12:37:29Z</time></trkpt><trkpt lat="44.074201102523126" lon="11.258156505017052"><ele>508.0</ele><time>2026-04-09T12:37:30Z</time></trkpt><trkpt lat="44.07433232960491" lon="11.257988568014296"><ele>508.33333333333337</ele><time>2026-04-09T12:37:31Z</time></trkpt><trkpt lat="44.07445650529098" lon="11.257805367211528"><ele>508.66666666666663</ele><time>2026-04-09T12:37:32Z</time></trkpt><trkpt lat="44.074585810507244" lon="11.257623642836345"><ele>509.0</ele><time>2026-04-09T12:37:33Z</time></trkpt><trkpt lat="44.074695985450056" lon="11.257411249612426"><ele>505.0</ele><time>2026-04-09T12:37:34Z</time></trkpt><trkpt lat="44.07479393399758" lon="11.257184572010335"><ele>501.0</ele><time>2026-04-09T12:37:35Z</time></trkpt><trkpt lat="44.074873846550794" lon="11.256948179803942"><ele>497.0</ele><time>2026-04-09T12:37:36Z</time></trkpt><trkpt lat="44.07496327072737" lon="11.256732893400851"><ele>497.0</ele><time>2026-04-09T12:37:37Z</time></trkpt><trkpt lat="44.07504770181038" lon="11.256527155611147"><ele>497.0</ele><time>2026-04-09T12:37:38Z</time></trkpt><trkpt lat="44.0751288292482" lon="11.25633029174312"><ele>497.0</ele><time>2026-04-09T12:37:39Z</time></trkpt><trkpt lat="44.07520592665257" lon="11.256144865066863"><ele>497.0</ele><time>2026-04-09T12:37:40Z</time></trkpt><trkpt lat="44.07528322279472" lon="11.255966027480866"><ele>497.0</ele><time>2026-04-09T12:37:41Z</time></trkpt><trkpt lat="44.0753533819314" lon="11.255785937062738"><ele>497.0</ele><time>2026-04-09T12:37:42Z</time></trkpt><trkpt lat="44.075410498888665" lon="11.25560347324474"><ele>497.0</ele><time>2026-04-09T12:37:43Z</time></trkpt><trkpt lat="44.0754315530521" lon="11.255423005422372"><ele>499.5</ele><time>2026-04-09T12:37:44Z</time></trkpt><trkpt lat="44.07542479494842" lon="11.255236826776612"><ele>502.0</ele><time>2026-04-09T12:37:45Z</time></trkpt><trkpt lat="44.07538765335313" lon="11.255046476201237"><ele>504.5</ele><time>2026-04-09T12:37:46Z</time></trkpt><trkpt lat="44.07531173477779" lon="11.25486808859468"><ele>507.0</ele><time>2026-04-09T12:37:47Z</time></trkpt><trkpt lat="44.07520525887635" lon="11.254708630179197"><ele>512.6666666666666</ele><time>2026-04-09T12:37:48Z</time></trkpt><trkpt lat="44.07507205200942" lon="11.254580112848583"><ele>518.3333333333333</ele><time>2026-04-09T12:37:49Z</time></trkpt><trkpt lat="44.074910672191976" lon="11.254479087795492"><ele>524.0</ele><time>2026-04-09T12:37:50Z</time></trkpt><trkpt lat="44.07472580129742" lon="11.254398220092646"><ele>524.0</ele><time>2026-04-09T12:37:51Z</time></trkpt><trkpt lat="44.074546120291394" lon="11.254337952205303"><ele>524.0</ele><time>2026-04-09T12:37:52Z</time></trkpt><trkpt lat="44.074356861316254" lon="11.254288368079731"><ele>524.0</ele><time>2026-04-09T12:37:53Z</time></trkpt><trkpt lat="44.07416302962751" lon="11.254247350907473"><ele>518.3333333333333</ele><time>2026-04-09T12:37:54Z</time></trkpt><trkpt lat="44.073991074313675" lon="11.254200315571651"><ele>512.6666666666666</ele><time>2026-04-09T12:37:55Z</time></trkpt><trkpt lat="44.07383466316505" lon="11.254125381684595"><ele>507.0</ele><time>2026-04-09T12:37:56Z</time></trkpt><trkpt lat="44.07367549099885" lon="11.254014991522375"><ele>505.33333333333337</ele><time>2026-04-09T12:37:57Z</time></trkpt><trkpt lat="44.07351768865024" lon="11.253877935088491"><ele>503.6666666666667</ele><time>2026-04-09T12:37:58Z</time></trkpt><trkpt lat="44.073365907060094" lon="11.253724133198801"><ele>502.0</ele><time>2026-04-09T12:37:59Z</time></trkpt><trkpt lat="44.07322539921514" lon="11.25356391082644"><ele>502.0</ele><time>2026-04-09T12:38:00Z</time></trkpt><trkpt lat="44.07308685899743" lon="11.253391734820816"><ele>502.0</ele><time>2026-04-09T12:38:01Z</time></trkpt><trkpt lat="44.07294649643565" lon="11.253214789390626"><ele>502.0</ele><time>2026-04-09T12:38:02Z</time></trkpt><trkpt lat="44.072805336524965" lon="11.253029787728856"><ele>501.6666666666667</ele><time>2026-04-09T12:38:03Z</time></trkpt><trkpt lat="44.07266259162641" lon="11.252838465582354"><ele>501.33333333333337</ele><time>2026-04-09T12:38:04Z</time></trkpt><trkpt lat="44.07252155361524" lon="11.252649117546582"><ele>501.0</ele><time>2026-04-09T12:38:05Z</time></trkpt><trkpt lat="44.07239122162184" lon="11.252477129840363"><ele>495.33333333333337</ele><time>2026-04-09T12:38:06Z</time></trkpt><trkpt lat="44.07226379165263" lon="11.252312051183509"><ele>489.6666666666667</ele><time>2026-04-09T12:38:07Z</time></trkpt><trkpt lat="44.07213295568621" lon="11.252140765349234"><ele>484.0</ele><time>2026-04-09T12:38:08Z</time></trkpt><trkpt lat="44.072001227989674" lon="11.25196368769719"><ele>484.0</ele><time>2026-04-09T12:38:09Z</time></trkpt><trkpt lat="44.07186807015362" lon="11.2517829314685"><ele>484.0</ele><time>2026-04-09T12:38:10Z</time></trkpt><trkpt lat="44.071729997742224" lon="11.25160132913611"><ele>484.0</ele><time>2026-04-09T12:38:11Z</time></trkpt><trkpt lat="44.07159114241533" lon="11.251417779437164"><ele>481.33333333333337</ele><time>2026-04-09T12:38:12Z</time></trkpt><trkpt lat="44.07145186633892" lon="11.251225781343019"><ele>478.66666666666663</ele><time>2026-04-09T12:38:13Z</time></trkpt><trkpt lat="44.07130842661865" lon="11.251029673090503"><ele>476.0</ele><time>2026-04-09T12:38:14Z</time></trkpt><trkpt lat="44.07116830526691" lon="11.250825040594725"><ele>482.3333333333333</ele><time>2026-04-09T12:38:15Z</time></trkpt><trkpt lat="44.07103781826048" lon="11.25061345913252"><ele>488.66666666666663</ele><time>2026-04-09T12:38:16Z</time></trkpt><trkpt lat="44.070926915311524" lon="11.250413081392654"><ele>495.0</ele><time>2026-04-09T12:38:17Z</time></trkpt><trkpt lat="44.07082534751808" lon="11.250215692498791"><ele>491.66666666666663</ele><time>2026-04-09T12:38:18Z</time></trkpt><trkpt lat="44.07072914320246" lon="11.25001438619624"><ele>488.3333333333333</ele><time>2026-04-09T12:38:19Z</time></trkpt><trkpt lat="44.0706368149026" lon="11.249801871160148"><ele>485.0</ele><time>2026-04-09T12:38:20Z</time></trkpt><trkpt lat="44.07054878226113" lon="11.249580132837227"><ele>485.0</ele><time>2026-04-09T12:38:21Z</time></trkpt><trkpt lat="44.070466737077176" lon="11.249344957217444"><ele>485.0</ele><time>2026-04-09T12:38:22Z</time></trkpt><trkpt lat="44.07039025050639" lon="11.249100725953094"><ele>485.0</ele><time>2026-04-09T12:38:23Z</time></trkpt><trkpt lat="44.07032581331387" lon="11.248867716550738"><ele>488.3333333333333</ele><time>2026-04-09T12:38:24Z</time></trkpt><trkpt lat="44.070272366499225" lon="11.248640597270375"><ele>491.66666666666663</ele><time>2026-04-09T12:38:25Z</time></trkpt><trkpt lat="44.0702272947337" lon="11.248409070358097"><ele>495.0</ele><time>2026-04-09T12:38:26Z</time></trkpt><trkpt lat="44.070187759917324" lon="11.248166681830714"><ele>495.0</ele><time>2026-04-09T12:38:27Z</time></trkpt><trkpt lat="44.07014931123661" lon="11.247931211792569"><ele>495.0</ele><time>2026-04-09T12:38:28Z</time></trkpt><trkpt lat="44.07012103165808" lon="11.247675792848332"><ele>495.0</ele><time>2026-04-09T12:38:29Z</time></trkpt><trkpt lat="44.070121762034695" lon="11.247416537006343"><ele>493.33333333333337</ele><time>2026-04-09T12:38:30Z</time></trkpt><trkpt lat="44.070113934102054" lon="11.247174087629485"><ele>491.6666666666667</ele><time>2026-04-09T12:38:31Z</time></trkpt><trkpt lat="44.07010190295184" lon="11.246922020239708"><ele>490.0</ele><time>2026-04-09T12:38:32Z</time></trkpt><trkpt lat="44.07010922368133" lon="11.246692817181962"><ele>490.0</ele><time>2026-04-09T12:38:33Z</time></trkpt><trkpt lat="44.07012114054312" lon="11.24648221060466"><ele>490.0</ele><time>2026-04-09T12:38:34Z</time></trkpt><trkpt lat="44.07013705443257" lon="11.246281923441005"><ele>490.0</ele><time>2026-04-09T12:38:35Z</time></trkpt><trkpt lat="44.070158785725816" lon="11.246091728592114"><ele>490.0</ele><time>2026-04-09T12:38:36Z</time></trkpt><trkpt lat="44.07018614011879" lon="11.24591143068284"><ele>489.5</ele><time>2026-04-09T12:38:37Z</time></trkpt><trkpt lat="44.07022098257144" lon="11.245744363899506"><ele>489.0</ele><time>2026-04-09T12:38:38Z</time></trkpt><trkpt lat="44.07026143321903" lon="11.245593539692202"><ele>488.5</ele><time>2026-04-09T12:38:39Z</time></trkpt><trkpt lat="44.07030854547974" lon="11.245438511266768"><ele>488.0</ele><time>2026-04-09T12:38:40Z</time></trkpt><trkpt lat="44.07035251873494" lon="11.245285711482877"><ele>486.49999999999994</ele><time>2026-04-09T12:38:41Z</time></trkpt><trkpt lat="44.07038773983631" lon="11.245152948163842"><ele>485.0</ele><time>2026-04-09T12:38:42Z</time></trkpt><trkpt lat="44.07041503385446" lon="11.24504256136801"><ele>483.5</ele><time>2026-04-09T12:38:43Z</time></trkpt><trkpt lat="44.0704337605556" lon="11.244954940340362"><ele>482.0</ele><time>2026-04-09T12:38:44Z</time></trkpt><trkpt lat="44.07045629814751" lon="11.244845161453224"><ele>480.49999999999994</ele><time>2026-04-09T12:38:46Z</time></trkpt><trkpt lat="44.07049436495637" lon="11.244726231243327"><ele>479.0</ele><time>2026-04-09T12:39:02Z</time></trkpt><trkpt lat="44.07052601223888" lon="11.244604656391841"><ele>477.4</ele><time>2026-04-09T12:39:05Z</time></trkpt><trkpt lat="44.07054211540982" lon="11.244514964611708"><ele>475.79999999999995</ele><time>2026-04-09T12:39:06Z</time></trkpt><trkpt lat="44.07057821966272" lon="11.244362945484513"><ele>474.20000000000005</ele><time>2026-04-09T12:39:08Z</time></trkpt><trkpt lat="44.07060088694613" lon="11.244240110180801"><ele>472.6</ele><time>2026-04-09T12:39:10Z</time></trkpt><trkpt lat="44.070631205942064" lon="11.244087085178226"><ele>471.0</ele><time>2026-04-09T12:39:12Z</time></trkpt><trkpt lat="44.07064566613232" lon="11.243995834465387"><ele>469.8</ele><time>2026-04-09T12:39:13Z</time></trkpt><trkpt lat="44.07067290815251" lon="11.243887930935074"><ele>468.6</ele><time>2026-04-09T12:39:14Z</time></trkpt><trkpt lat="44.070700233571934" lon="11.243771132269762"><ele>467.4</ele><time>2026-04-09T12:39:15Z</time></trkpt><trkpt lat="44.07073034489072" lon="11.243636482712455"><ele>466.2</ele><time>2026-04-09T12:39:16Z</time></trkpt><trkpt lat="44.07076492763881" lon="11.243494561206196"><ele>465.0</ele><time>2026-04-09T12:39:17Z</time></trkpt><trkpt lat="44.070802523284506" lon="11.243342152953105"><ele>468.0</ele><time>2026-04-09T12:39:18Z</time></trkpt><trkpt lat="44.07084519319898" lon="11.243179153082846"><ele>471.0</ele><time>2026-04-09T12:39:19Z</time></trkpt><trkpt lat="44.07089797916462" lon="11.243007626500367"><ele>474.0</ele><time>2026-04-09T12:39:20Z</time></trkpt><trkpt lat="44.07094939735517" lon="11.242827932351462"><ele>477.0</ele><time>2026-04-09T12:39:21Z</time></trkpt><trkpt lat="44.070991304587864" lon="11.242659751078902"><ele>477.0</ele><time>2026-04-09T12:39:22Z</time></trkpt><trkpt lat="44.07102990495681" lon="11.242484543636484"><ele>477.0</ele><time>2026-04-09T12:39:23Z</time></trkpt><trkpt lat="44.07106684172104" lon="11.24230437275612"><ele>477.0</ele><time>2026-04-09T12:39:24Z</time></trkpt><trkpt lat="44.07110134520296" lon="11.242118356418773"><ele>477.0</ele><time>2026-04-09T12:39:25Z</time></trkpt><trkpt lat="44.0711362376701" lon="11.241927994551315"><ele>476.25</ele><time>2026-04-09T12:39:26Z</time></trkpt><trkpt lat="44.071165617988484" lon="11.24173449472309"><ele>475.5</ele><time>2026-04-09T12:39:27Z</time></trkpt><trkpt lat="44.07119246315339" lon="11.24154309163671"><ele>474.75</ele><time>2026-04-09T12:39:28Z</time></trkpt><trkpt lat="44.07121356817354" lon="11.241347390391796"><ele>474.0</ele><time>2026-04-09T12:39:29Z</time></trkpt><trkpt lat="44.07122790070074" lon="11.241146205267674"><ele>474.0</ele><time>2026-04-09T12:39:30Z</time></trkpt><trkpt lat="44.0712335161801" lon="11.240934057793355"><ele>474.0</ele><time>2026-04-09T12:39:31Z</time></trkpt><trkpt lat="44.071234513473684" lon="11.240713375064987"><ele>474.0</ele><time>2026-04-09T12:39:32Z</time></trkpt><trkpt lat="44.07122589742818" lon="11.240512380118224"><ele>473.0</ele><time>2026-04-09T12:39:33Z</time></trkpt><trkpt lat="44.07120635884442" lon="11.24032174795461"><ele>472.0</ele><time>2026-04-09T12:39:34Z</time></trkpt><trkpt lat="44.07116442074544" lon="11.2401415573383"><ele>471.0</ele><time>2026-04-09T12:39:35Z</time></trkpt><trkpt lat="44.07110252438798" lon="11.239984146244591"><ele>470.0</ele><time>2026-04-09T12:39:36Z</time></trkpt><trkpt lat="44.0710053943277" lon="11.239848030822566"><ele>470.0</ele><time>2026-04-09T12:39:37Z</time></trkpt><trkpt lat="44.070884159919075" lon="11.239738297325491"><ele>470.0</ele><time>2026-04-09T12:39:38Z</time></trkpt><trkpt lat="44.07074839289135" lon="11.239666674110417"><ele>470.0</ele><time>2026-04-09T12:39:39Z</time></trkpt><trkpt lat="44.07061024607982" lon="11.23962806091302"><ele>470.0</ele><time>2026-04-09T12:39:40Z</time></trkpt><trkpt lat="44.07049019874781" lon="11.23963820990875"><ele>470.0</ele><time>2026-04-09T12:39:41Z</time></trkpt><trkpt lat="44.070356812921396" lon="11.239679668375842"><ele>470.0</ele><time>2026-04-09T12:39:42Z</time></trkpt><trkpt lat="44.07022396877077" lon="11.239761836937788"><ele>470.0</ele><time>2026-04-09T12:39:43Z</time></trkpt><trkpt lat="44.07009776715367" lon="11.239883244501744"><ele>470.0</ele><time>2026-04-09T12:39:44Z</time></trkpt><trkpt lat="44.06998685930584" lon="11.24003901798031"><ele>468.3333333333333</ele><time>2026-04-09T12:39:45Z</time></trkpt><trkpt lat="44.06988420380681" lon="11.240192837901448"><ele>466.66666666666663</ele><time>2026-04-09T12:39:46Z</time></trkpt><trkpt lat="44.06976525457181" lon="11.240344473127013"><ele>465.0</ele><time>2026-04-09T12:39:47Z</time></trkpt><trkpt lat="44.06962701089244" lon="11.240486962054055"><ele>465.0</ele><time>2026-04-09T12:39:48Z</time></trkpt><trkpt lat="44.069474766857965" lon="11.240618505899418"><ele>465.0</ele><time>2026-04-09T12:39:49Z</time></trkpt><trkpt lat="44.06932129085127" lon="11.240726093962897"><ele>465.0</ele><time>2026-04-09T12:39:50Z</time></trkpt><trkpt lat="44.06916952344547" lon="11.240817968854632"><ele>463.0</ele><time>2026-04-09T12:39:51Z</time></trkpt><trkpt lat="44.06901196033454" lon="11.240918626367236"><ele>461.0</ele><time>2026-04-09T12:39:52Z</time></trkpt><trkpt lat="44.06884827204885" lon="11.241026854275715"><ele>459.0</ele><time>2026-04-09T12:39:53Z</time></trkpt><trkpt lat="44.06867834523698" lon="11.241145355655103"><ele>459.0</ele><time>2026-04-09T12:39:54Z</time></trkpt><trkpt lat="44.06850223819453" lon="11.241267329783689"><ele>459.0</ele><time>2026-04-09T12:39:55Z</time></trkpt><trkpt lat="44.06831933776697" lon="11.241390325163996"><ele>459.0</ele><time>2026-04-09T12:39:56Z</time></trkpt><trkpt lat="44.06812534054334" lon="11.24151751640291"><ele>453.5</ele><time>2026-04-09T12:39:57Z</time></trkpt><trkpt lat="44.067923131891654" lon="11.241647560090874"><ele>448.0</ele><time>2026-04-09T12:39:58Z</time></trkpt><trkpt lat="44.06771581463118" lon="11.241785648936956"><ele>448.0</ele><time>2026-04-09T12:39:59Z</time></trkpt><trkpt lat="44.06750172516969" lon="11.241928836758406"><ele>448.0</ele><time>2026-04-09T12:40:00Z</time></trkpt><trkpt lat="44.06727905715764" lon="11.242072545172341"><ele>449.0</ele><time>2026-04-09T12:40:01Z</time></trkpt><trkpt lat="44.06704679175915" lon="11.242222114945742"><ele>450.0</ele><time>2026-04-09T12:40:02Z</time></trkpt><trkpt lat="44.066809243301435" lon="11.242377857835157"><ele>456.5</ele><time>2026-04-09T12:40:03Z</time></trkpt><trkpt lat="44.06657115190083" lon="11.242533049363121"><ele>463.0</ele><time>2026-04-09T12:40:04Z</time></trkpt><trkpt lat="44.06634344184832" lon="11.242680939981419"><ele>463.0</ele><time>2026-04-09T12:40:05Z</time></trkpt><trkpt lat="44.06611311845623" lon="11.242831214987843"><ele>463.0</ele><time>2026-04-09T12:40:06Z</time></trkpt><trkpt lat="44.06587793904048" lon="11.242982068772362"><ele>463.5</ele><time>2026-04-09T12:40:07Z</time></trkpt><trkpt lat="44.06563576949186" lon="11.243139747248957"><ele>464.0</ele><time>2026-04-09T12:40:08Z</time></trkpt><trkpt lat="44.06539037196116" lon="11.243297141638767"><ele>464.0</ele><time>2026-04-09T12:40:09Z</time></trkpt><trkpt lat="44.065141207394284" lon="11.243454182175924"><ele>464.0</ele><time>2026-04-09T12:40:10Z</time></trkpt><trkpt lat="44.064885317479714" lon="11.24361152746058"><ele>470.5</ele><time>2026-04-09T12:40:11Z</time></trkpt><trkpt lat="44.064625381797555" lon="11.243761411421785"><ele>477.0</ele><time>2026-04-09T12:40:12Z</time></trkpt><trkpt lat="44.064365349624445" lon="11.243907620008603"><ele>475.5</ele><time>2026-04-09T12:40:13Z</time></trkpt><trkpt lat="44.06411613535949" lon="11.244023112489229"><ele>474.0</ele><time>2026-04-09T12:40:14Z</time></trkpt><trkpt lat="44.063858778218815" lon="11.244135492033692"><ele>477.0</ele><time>2026-04-09T12:40:15Z</time></trkpt><trkpt lat="44.063597433656376" lon="11.24424619580752"><ele>480.0</ele><time>2026-04-09T12:40:16Z</time></trkpt><trkpt lat="44.063329377546104" lon="11.24435237119296"><ele>482.0</ele><time>2026-04-09T12:40:17Z</time></trkpt><trkpt lat="44.06305648097714" lon="11.244452989651572"><ele>484.0</ele><time>2026-04-09T12:40:18Z</time></trkpt><trkpt lat="44.062786361868255" lon="11.244544749529835"><ele>484.0</ele><time>2026-04-09T12:40:19Z</time></trkpt><trkpt lat="44.0625077528772" lon="11.244623441794072"><ele>484.0</ele><time>2026-04-09T12:40:20Z</time></trkpt><trkpt lat="44.062249027020364" lon="11.24468755082087"><ele>488.0</ele><time>2026-04-09T12:40:21Z</time></trkpt><trkpt lat="44.0620060094388" lon="11.244744196481644"><ele>492.0</ele><time>2026-04-09T12:40:22Z</time></trkpt><trkpt lat="44.06175408399707" lon="11.244793092901293"><ele>483.5</ele><time>2026-04-09T12:40:23Z</time></trkpt><trkpt lat="44.0614972988149" lon="11.244832602524305"><ele>475.0</ele><time>2026-04-09T12:40:24Z</time></trkpt><trkpt lat="44.06123205707709" lon="11.244865725447958"><ele>475.0</ele><time>2026-04-09T12:40:25.018Z</time></trkpt><trkpt lat="44.06096868672706" lon="11.244888896920713"><ele>475.0</ele><time>2026-04-09T12:40:26.015Z</time></trkpt><trkpt lat="44.060700459847844" lon="11.24490319378758"><ele>471.5</ele><time>2026-04-09T12:40:27.019Z</time></trkpt><trkpt lat="44.060432111008" lon="11.244912117290333"><ele>468.0</ele><time>2026-04-09T12:40:28.02Z</time></trkpt><trkpt lat="44.05997915663203" lon="11.244871029640775"><ele>465.0</ele><time>2026-04-09T12:40:30Z</time></trkpt><trkpt lat="44.059724795203955" lon="11.244864535880042"><ele>462.0</ele><time>2026-04-09T12:40:31Z</time></trkpt><trkpt lat="44.05928633315751" lon="11.244837503269382"><ele>469.5</ele><time>2026-04-09T12:40:32Z</time></trkpt><trkpt lat="44.05902369771338" lon="11.244793806110291"><ele>477.0</ele><time>2026-04-09T12:40:33Z</time></trkpt><trkpt lat="44.05873524283946" lon="11.244734385931126"><ele>477.0</ele><time>2026-04-09T12:40:34Z</time></trkpt><trkpt lat="44.058452052540325" lon="11.24466137313188"><ele>477.0</ele><time>2026-04-09T12:40:35Z</time></trkpt><trkpt lat="44.05815039983622" lon="11.244561608038573"><ele>475.0</ele><time>2026-04-09T12:40:36Z</time></trkpt><trkpt lat="44.05786968226813" lon="11.24447225083144"><ele>473.0</ele><time>2026-04-09T12:40:37Z</time></trkpt><trkpt lat="44.057589349950945" lon="11.244373021941712"><ele>468.0</ele><time>2026-04-09T12:40:38Z</time></trkpt><trkpt lat="44.057312554909956" lon="11.244265163364165"><ele>463.0</ele><time>2026-04-09T12:40:38.999Z</time></trkpt><trkpt lat="44.05703500601185" lon="11.244153055291257"><ele>463.0</ele><time>2026-04-09T12:40:39.999Z</time></trkpt><trkpt lat="44.056757871974796" lon="11.244037865564637"><ele>463.0</ele><time>2026-04-09T12:40:40.999Z</time></trkpt><trkpt lat="44.056480505672106" lon="11.243920360793336"><ele>452.5</ele><time>2026-04-09T12:40:41.999Z</time></trkpt><trkpt lat="44.05620820933511" lon="11.243801394592518"><ele>442.0</ele><time>2026-04-09T12:40:42.999Z</time></trkpt><trkpt lat="44.055941831240865" lon="11.243672442879175"><ele>433.0</ele><time>2026-04-09T12:40:43.999Z</time></trkpt><trkpt lat="44.05567705133029" lon="11.243558291212517"><ele>424.0</ele><time>2026-04-09T12:40:44.999Z</time></trkpt><trkpt lat="44.05541238291386" lon="11.24344210291018"><ele>424.0</ele><time>2026-04-09T12:40:45.999Z</time></trkpt><trkpt lat="44.05515128912076" lon="11.243325770026432"><ele>424.0</ele><time>2026-04-09T12:40:46.999Z</time></trkpt><trkpt lat="44.054891792866584" lon="11.243207367543318"><ele>430.5</ele><time>2026-04-09T12:40:47.999Z</time></trkpt><trkpt lat="44.054634686002075" lon="11.243089595228232"><ele>437.0</ele><time>2026-04-09T12:40:48.999Z</time></trkpt><trkpt lat="44.05438688939721" lon="11.242976852538057"><ele>437.0</ele><time>2026-04-09T12:40:49.999Z</time></trkpt><trkpt lat="44.05414840348085" lon="11.242870712311829"><ele>437.0</ele><time>2026-04-09T12:40:50.999Z</time></trkpt><trkpt lat="44.05390795940714" lon="11.242763387991427"><ele>433.5</ele><time>2026-04-09T12:40:51.999Z</time></trkpt><trkpt lat="44.05366675139747" lon="11.242653904445705"><ele>430.0</ele><time>2026-04-09T12:40:52.999Z</time></trkpt><trkpt lat="44.053423797725046" lon="11.242545903528727"><ele>427.5</ele><time>2026-04-09T12:40:53.999Z</time></trkpt><trkpt lat="44.05318128085764" lon="11.242437852707445"><ele>425.0</ele><time>2026-04-09T12:40:54.999Z</time></trkpt><trkpt lat="44.052936990000106" lon="11.242328493224473"><ele>429.5</ele><time>2026-04-09T12:40:55.999Z</time></trkpt><trkpt lat="44.052692585845946" lon="11.242217593299614"><ele>434.0</ele><time>2026-04-09T12:40:56.999Z</time></trkpt><trkpt lat="44.05244770525447" lon="11.242104270245365"><ele>434.5</ele><time>2026-04-09T12:40:57.999Z</time></trkpt><trkpt lat="44.05220280832512" lon="11.241989539966292"><ele>435.0</ele><time>2026-04-09T12:40:58.999Z</time></trkpt><trkpt lat="44.05195952632318" lon="11.241872295125235"><ele>435.0</ele><time>2026-04-09T12:40:59.999Z</time></trkpt><trkpt lat="44.05172066889461" lon="11.241758247235675"><ele>435.0</ele><time>2026-04-09T12:41:00.999Z</time></trkpt><trkpt lat="44.051486072579856" lon="11.241645834625114"><ele>432.5</ele><time>2026-04-09T12:41:01.999Z</time></trkpt><trkpt lat="44.05124417868137" lon="11.241530288445665"><ele>430.0</ele><time>2026-04-09T12:41:02.999Z</time></trkpt><trkpt lat="44.05099942124681" lon="11.241413265904601"><ele>433.5</ele><time>2026-04-09T12:41:03.999Z</time></trkpt><trkpt lat="44.050752815750975" lon="11.24129102886535"><ele>437.0</ele><time>2026-04-09T12:41:04.999Z</time></trkpt><trkpt lat="44.05050535977631" lon="11.241162786480999"><ele>437.0</ele><time>2026-04-09T12:41:05.999Z</time></trkpt><trkpt lat="44.05025636522503" lon="11.241027382888516"><ele>437.0</ele><time>2026-04-09T12:41:07Z</time></trkpt><trkpt lat="44.05000477229382" lon="11.240889246844585"><ele>438.5</ele><time>2026-04-09T12:41:08Z</time></trkpt><trkpt lat="44.04975264862195" lon="11.240747942648028"><ele>440.0</ele><time>2026-04-09T12:41:09Z</time></trkpt><trkpt lat="44.04949883442355" lon="11.24060625424788"><ele>445.5</ele><time>2026-04-09T12:41:10Z</time></trkpt><trkpt lat="44.04923883688259" lon="11.240467375824197"><ele>451.0</ele><time>2026-04-09T12:41:11Z</time></trkpt><trkpt lat="44.04897706182257" lon="11.240323587887403"><ele>463.5</ele><time>2026-04-09T12:41:12Z</time></trkpt><trkpt lat="44.04870951372153" lon="11.240173915245629"><ele>476.0</ele><time>2026-04-09T12:41:13.016Z</time></trkpt><trkpt lat="44.048441970361246" lon="11.240022385277298"><ele>476.0</ele><time>2026-04-09T12:41:14.016Z</time></trkpt><trkpt lat="44.04818151283873" lon="11.239874882614647"><ele>476.0</ele><time>2026-04-09T12:41:15.016Z</time></trkpt><trkpt lat="44.04792930362879" lon="11.2397320845523"><ele>470.5</ele><time>2026-04-09T12:41:16.021Z</time></trkpt><trkpt lat="44.04768614364777" lon="11.239594126045048"><ele>465.0</ele><time>2026-04-09T12:41:17.02Z</time></trkpt><trkpt lat="44.047439623169595" lon="11.239455154147613"><ele>461.0</ele><time>2026-04-09T12:41:18.015Z</time></trkpt><trkpt lat="44.04719786245165" lon="11.239318569007914"><ele>457.0</ele><time>2026-04-09T12:41:19.019Z</time></trkpt><trkpt lat="44.04696243065971" lon="11.239185578462124"><ele>397.0</ele><time>2026-04-09T12:41:20.021Z</time></trkpt><trkpt lat="44.04492349833627" lon="11.237557232390378"><ele>397.0</ele><time>2026-04-09T12:41:30Z</time></trkpt><trkpt lat="44.044741672554544" lon="11.237388797556552"><ele>397.0</ele><time>2026-04-09T12:41:31Z</time></trkpt><trkpt lat="44.0445711934499" lon="11.23722080506525"><ele>397.0</ele><time>2026-04-09T12:41:32Z</time></trkpt><trkpt lat="44.04441235392851" lon="11.237046136524892"><ele>394.0</ele><time>2026-04-09T12:41:33Z</time></trkpt><trkpt lat="44.04425211092504" lon="11.23686507730912"><ele>391.0</ele><time>2026-04-09T12:41:34Z</time></trkpt><trkpt lat="44.0440874215886" lon="11.23667563437418"><ele>388.0</ele><time>2026-04-09T12:41:35Z</time></trkpt><trkpt lat="44.04391841696942" lon="11.236476994752406"><ele>399.0</ele><time>2026-04-09T12:41:36Z</time></trkpt><trkpt lat="44.043741530494316" lon="11.236268577641455"><ele>410.0</ele><time>2026-04-09T12:41:37Z</time></trkpt><trkpt lat="44.04356319859342" lon="11.236048119265428"><ele>410.0</ele><time>2026-04-09T12:41:38Z</time></trkpt><trkpt lat="44.04340653291634" lon="11.23583810812604"><ele>410.0</ele><time>2026-04-09T12:41:39Z</time></trkpt><trkpt lat="44.04325984904551" lon="11.235631153159332"><ele>410.0</ele><time>2026-04-09T12:41:40Z</time></trkpt><trkpt lat="44.0431129444002" lon="11.235416051397273"><ele>419.0</ele><time>2026-04-09T12:41:41Z</time></trkpt><trkpt lat="44.042976080640344" lon="11.235207526648042"><ele>428.0</ele><time>2026-04-09T12:41:42Z</time></trkpt><trkpt lat="44.04284542505474" lon="11.234997944354005"><ele>437.0</ele><time>2026-04-09T12:41:43Z</time></trkpt><trkpt lat="44.04272388908175" lon="11.234798230994715"><ele>437.0</ele><time>2026-04-09T12:41:44Z</time></trkpt><trkpt lat="44.04260174536101" lon="11.234590873092364"><ele>437.0</ele><time>2026-04-09T12:41:45Z</time></trkpt><trkpt lat="44.042479289285225" lon="11.23437616578868"><ele>437.0</ele><time>2026-04-09T12:41:46Z</time></trkpt><trkpt lat="44.042354453083746" lon="11.234148845717979"><ele>442.66666666666663</ele><time>2026-04-09T12:41:47Z</time></trkpt><trkpt lat="44.04222915590745" lon="11.233909751640548"><ele>448.33333333333337</ele><time>2026-04-09T12:41:48Z</time></trkpt><trkpt lat="44.04209929764045" lon="11.233659723006355"><ele>454.0</ele><time>2026-04-09T12:41:49.018Z</time></trkpt><trkpt lat="44.041978387632966" lon="11.233425235084926"><ele>454.0</ele><time>2026-04-09T12:41:50.019Z</time></trkpt><trkpt lat="44.04185456272179" lon="11.233179748389404"><ele>454.0</ele><time>2026-04-09T12:41:51.02Z</time></trkpt><trkpt lat="44.04172941907804" lon="11.23293114293355"><ele>454.0</ele><time>2026-04-09T12:41:52.017Z</time></trkpt><trkpt lat="44.0402187" lon="11.2298796"><ele>441.0</ele><time>2026-04-09T12:41:56.131Z</time></trkpt><trkpt lat="44.039653867264086" lon="11.228752546886012"><ele>423.0</ele><time>2026-04-09T12:42:03.131Z</time></trkpt><trkpt lat="44.03892563229049" lon="11.228631758031025"><ele>463.0</ele><time>2026-04-09T12:42:08.131Z</time></trkpt><trkpt lat="44.03976865212688" lon="11.229753564768638"><ele>499.0</ele><time>2026-04-09T12:42:09.131Z</time></trkpt><trkpt lat="44.04047128782506" lon="11.231049655251471"><ele>473.0</ele><time>2026-04-09T12:42:10.131Z</time></trkpt><trkpt lat="44.04114001730318" lon="11.232380437351237"><ele>454.0</ele><time>2026-04-09T12:42:11.131Z</time></trkpt><trkpt lat="44.04181037841493" lon="11.233709745492769"><ele>437.0</ele><time>2026-04-09T12:42:12.131Z</time></trkpt><trkpt lat="44.042512480247304" lon="11.235006567585014"><ele>405.0</ele><time>2026-04-09T12:42:13.131Z</time></trkpt><trkpt lat="44.03912087440867" lon="11.227696929137434"><ele>405.0</ele><time>2026-04-09T12:42:15Z</time></trkpt><trkpt lat="44.03901679633297" lon="11.227507301120896"><ele>405.0</ele><time>2026-04-09T12:42:16Z</time></trkpt><trkpt lat="44.03887076988544" lon="11.22731521375374"><ele>405.0</ele><time>2026-04-09T12:42:17Z</time></trkpt><trkpt lat="44.038760246331535" lon="11.22711633208408"><ele>401.0</ele><time>2026-04-09T12:42:18Z</time></trkpt><trkpt lat="44.03865606110166" lon="11.226939275658921"><ele>397.0</ele><time>2026-04-09T12:42:19Z</time></trkpt><trkpt lat="44.03855004558607" lon="11.226763710929879"><ele>393.0</ele><time>2026-04-09T12:42:20Z</time></trkpt><trkpt lat="44.038429797215514" lon="11.226578288466785"><ele>397.0</ele><time>2026-04-09T12:42:21Z</time></trkpt><trkpt lat="44.03829395940488" lon="11.226379898304398"><ele>401.0</ele><time>2026-04-09T12:42:22Z</time></trkpt><trkpt lat="44.03814871534136" lon="11.22617601224563"><ele>405.0</ele><time>2026-04-09T12:42:23Z</time></trkpt><trkpt lat="44.037991023196525" lon="11.225960184235326"><ele>405.0</ele><time>2026-04-09T12:42:24Z</time></trkpt><trkpt lat="44.03782483640705" lon="11.225744163151855"><ele>405.0</ele><time>2026-04-09T12:42:25Z</time></trkpt><trkpt lat="44.03766364310264" lon="11.22554793552323"><ele>405.0</ele><time>2026-04-09T12:42:26Z</time></trkpt><trkpt lat="44.037503081048655" lon="11.225361403208844"><ele>410.33333333333337</ele><time>2026-04-09T12:42:27Z</time></trkpt><trkpt lat="44.03733707190378" lon="11.225175631499933"><ele>415.6666666666667</ele><time>2026-04-09T12:42:28Z</time></trkpt><trkpt lat="44.03716642367747" lon="11.224991231991842"><ele>421.0</ele><time>2026-04-09T12:42:29Z</time></trkpt><trkpt lat="44.03699141280833" lon="11.224811852624585"><ele>425.0</ele><time>2026-04-09T12:42:30Z</time></trkpt><trkpt lat="44.0368080665997" lon="11.224635676482572"><ele>429.0</ele><time>2026-04-09T12:42:31Z</time></trkpt><trkpt lat="44.0366164780658" lon="11.224464213753896"><ele>429.0</ele><time>2026-04-09T12:42:32Z</time></trkpt><trkpt lat="44.03641478520334" lon="11.224291156903623"><ele>429.0</ele><time>2026-04-09T12:42:33Z</time></trkpt><trkpt lat="44.036209903353004" lon="11.224124760735481"><ele>432.0</ele><time>2026-04-09T12:42:33.999Z</time></trkpt><trkpt lat="44.03601024928031" lon="11.223967563163562"><ele>435.0</ele><time>2026-04-09T12:42:35.019Z</time></trkpt><trkpt lat="44.0358144743011" lon="11.223821276977972"><ele>431.5</ele><time>2026-04-09T12:42:36.02Z</time></trkpt><trkpt lat="44.035604942758944" lon="11.22367571663175"><ele>428.0</ele><time>2026-04-09T12:42:37.019Z</time></trkpt><trkpt lat="44.03539444277326" lon="11.223542313340683"><ele>428.0</ele><time>2026-04-09T12:42:38.019Z</time></trkpt><trkpt lat="44.03518790488258" lon="11.223417672334017"><ele>428.0</ele><time>2026-04-09T12:42:39.019Z</time></trkpt><trkpt lat="44.03484392449636" lon="11.223196601505599"><ele>416.5</ele><time>2026-04-09T12:42:40.999Z</time></trkpt><trkpt lat="44.03463359913964" lon="11.223082081401136"><ele>405.0</ele><time>2026-04-09T12:42:41.999Z</time></trkpt><trkpt lat="44.03439107658646" lon="11.22300201675093"><ele>405.0</ele><time>2026-04-09T12:42:42.999Z</time></trkpt><trkpt lat="44.03420674105374" lon="11.222912680502933"><ele>405.0</ele><time>2026-04-09T12:42:43.999Z</time></trkpt><trkpt lat="44.03400280935612" lon="11.22280572777396"><ele>405.0</ele><time>2026-04-09T12:42:44.999Z</time></trkpt><trkpt lat="44.03378764293292" lon="11.222695040432228"><ele>403.0</ele><time>2026-04-09T12:42:45.999Z</time></trkpt><trkpt lat="44.033555298744744" lon="11.222573336028699"><ele>401.0</ele><time>2026-04-09T12:42:46.999Z</time></trkpt><trkpt lat="44.03335206050933" lon="11.222469217759768"><ele>395.3333333333333</ele><time>2026-04-09T12:42:47.999Z</time></trkpt><trkpt lat="44.03314563909963" lon="11.222363825155519"><ele>389.66666666666663</ele><time>2026-04-09T12:42:48.999Z</time></trkpt><trkpt lat="44.032935505197436" lon="11.222257918611868"><ele>384.0</ele><time>2026-04-09T12:42:49.999Z</time></trkpt><trkpt lat="44.032720791862616" lon="11.222147548106863"><ele>370.5</ele><time>2026-04-09T12:42:50.999Z</time></trkpt><trkpt lat="44.03250291154408" lon="11.222036578565417"><ele>357.0</ele><time>2026-04-09T12:42:51.999Z</time></trkpt><trkpt lat="44.032284048629336" lon="11.221923104974397"><ele>352.5</ele><time>2026-04-09T12:42:52.999Z</time></trkpt><trkpt lat="44.0320584469017" lon="11.221812058779479"><ele>348.0</ele><time>2026-04-09T12:42:53.999Z</time></trkpt><trkpt lat="44.03183111733802" lon="11.221698624722706"><ele>348.0</ele><time>2026-04-09T12:42:54.999Z</time></trkpt><trkpt lat="44.031599596407666" lon="11.221582375632664"><ele>348.0</ele><time>2026-04-09T12:42:55.999Z</time></trkpt><trkpt lat="44.031366046327854" lon="11.221460863600589"><ele>345.5</ele><time>2026-04-09T12:42:56.999Z</time></trkpt><trkpt lat="44.031141106485265" lon="11.221338807809737"><ele>343.0</ele><time>2026-04-09T12:42:57.999Z</time></trkpt><trkpt lat="44.030920297566" lon="11.22121960389507"><ele>346.5</ele><time>2026-04-09T12:42:58.999Z</time></trkpt><trkpt lat="44.03069756614042" lon="11.221101131220378"><ele>350.0</ele><time>2026-04-09T12:42:59.999Z</time></trkpt><trkpt lat="44.030470240520756" lon="11.220984751211738"><ele>350.0</ele><time>2026-04-09T12:43:00.999Z</time></trkpt><trkpt lat="44.03023958346507" lon="11.220870266916188"><ele>350.0</ele><time>2026-04-09T12:43:01.999Z</time></trkpt><trkpt lat="44.03000739768112" lon="11.220754556677564"><ele>369.5</ele><time>2026-04-09T12:43:02.999Z</time></trkpt><trkpt lat="44.029772344688695" lon="11.220642085250905"><ele>389.0</ele><time>2026-04-09T12:43:03.999Z</time></trkpt><trkpt lat="44.02953399799606" lon="11.220531163035863"><ele>389.0</ele><time>2026-04-09T12:43:04.999Z</time></trkpt><trkpt lat="44.029303783466084" lon="11.220432040806848"><ele>389.0</ele><time>2026-04-09T12:43:05.999Z</time></trkpt><trkpt lat="44.029071781661926" lon="11.220341349061393"><ele>407.0</ele><time>2026-04-09T12:43:06.999Z</time></trkpt><trkpt lat="44.028837577075585" lon="11.220258283856783"><ele>425.0</ele><time>2026-04-09T12:43:07.999Z</time></trkpt><trkpt lat="44.02860098970181" lon="11.220186296301634"><ele>425.0</ele><time>2026-04-09T12:43:08.999Z</time></trkpt><trkpt lat="44.028359393436006" lon="11.22012210262382"><ele>425.0</ele><time>2026-04-09T12:43:09.999Z</time></trkpt><trkpt lat="44.02811490074237" lon="11.220064247003831"><ele>431.0</ele><time>2026-04-09T12:43:10.999Z</time></trkpt><trkpt lat="44.02786616100292" lon="11.220018458323693"><ele>437.0</ele><time>2026-04-09T12:43:11.999Z</time></trkpt><trkpt lat="44.027612543109505" lon="11.219984285928684"><ele>433.0</ele><time>2026-04-09T12:43:13Z</time></trkpt><trkpt lat="44.02735368476237" lon="11.219959198413793"><ele>429.0</ele><time>2026-04-09T12:43:14.02Z</time></trkpt><trkpt lat="44.02710710010368" lon="11.219942951400883"><ele>429.0</ele><time>2026-04-09T12:43:15.02Z</time></trkpt><trkpt lat="44.02685654057086" lon="11.219933371715218"><ele>429.0</ele><time>2026-04-09T12:43:16.02Z</time></trkpt><trkpt lat="44.02660117272478" lon="11.219935279572212"><ele>431.5</ele><time>2026-04-09T12:43:17.019Z</time></trkpt><trkpt lat="44.026342148346274" lon="11.219948910895724"><ele>434.0</ele><time>2026-04-09T12:43:18.019Z</time></trkpt><trkpt lat="44.02608133502154" lon="11.219964366922907"><ele>376.0</ele><time>2026-04-09T12:43:19.019Z</time></trkpt><trkpt lat="44.01622524489091" lon="11.221025101850946"><ele>376.0</ele><time>2026-04-09T12:43:56Z</time></trkpt><trkpt lat="44.01596059674794" lon="11.220988982581332"><ele>376.0</ele><time>2026-04-09T12:43:57Z</time></trkpt><trkpt lat="44.015713886907406" lon="11.220910188131114"><ele>372.0</ele><time>2026-04-09T12:43:58Z</time></trkpt><trkpt lat="44.01546506070711" lon="11.220861107006284"><ele>368.0</ele><time>2026-04-09T12:43:59Z</time></trkpt><trkpt lat="44.015212927734574" lon="11.220803969098762"><ele>371.0</ele><time>2026-04-09T12:44:00Z</time></trkpt><trkpt lat="44.01495472704212" lon="11.220749351000348"><ele>374.0</ele><time>2026-04-09T12:44:01Z</time></trkpt><trkpt lat="44.014692040825274" lon="11.220677998477496"><ele>372.0</ele><time>2026-04-09T12:44:02Z</time></trkpt><trkpt lat="44.014424555847235" lon="11.220608524916123"><ele>370.0</ele><time>2026-04-09T12:44:03Z</time></trkpt><trkpt lat="44.014156647388454" lon="11.220528579521119"><ele>364.0</ele><time>2026-04-09T12:44:04Z</time></trkpt><trkpt lat="44.01389272032618" lon="11.220444041519961"><ele>358.0</ele><time>2026-04-09T12:44:05Z</time></trkpt><trkpt lat="44.01363111471446" lon="11.220348767956882"><ele>358.0</ele><time>2026-04-09T12:44:06Z</time></trkpt><trkpt lat="44.013365568056926" lon="11.220247524830247"><ele>358.0</ele><time>2026-04-09T12:44:07Z</time></trkpt><trkpt lat="44.01309857090029" lon="11.220140536948678"><ele>353.0</ele><time>2026-04-09T12:44:08Z</time></trkpt><trkpt lat="44.0128317345532" lon="11.220030878401152"><ele>348.0</ele><time>2026-04-09T12:44:09Z</time></trkpt><trkpt lat="44.012561957980694" lon="11.219916368554916"><ele>336.0</ele><time>2026-04-09T12:44:10Z</time></trkpt><trkpt lat="44.01229209578386" lon="11.219792014498637"><ele>324.0</ele><time>2026-04-09T12:44:11Z</time></trkpt><trkpt lat="44.012037510400155" lon="11.219667970790503"><ele>324.0</ele><time>2026-04-09T12:44:12Z</time></trkpt><trkpt lat="44.01178474411454" lon="11.219540614604137"><ele>324.0</ele><time>2026-04-09T12:44:13Z</time></trkpt><trkpt lat="44.01153211393243" lon="11.219405365557465"><ele>318.5</ele><time>2026-04-09T12:44:14Z</time></trkpt><trkpt lat="44.01127879312387" lon="11.219261902930693"><ele>313.0</ele><time>2026-04-09T12:44:15Z</time></trkpt><trkpt lat="44.01102789171443" lon="11.219114881634866"><ele>326.5</ele><time>2026-04-09T12:44:16Z</time></trkpt><trkpt lat="44.0107731908578" lon="11.218962011580608"><ele>340.0</ele><time>2026-04-09T12:44:17Z</time></trkpt><trkpt lat="44.01052187483559" lon="11.218801367522314"><ele>340.0</ele><time>2026-04-09T12:44:18Z</time></trkpt><trkpt lat="44.01026630903191" lon="11.218638399311343"><ele>340.0</ele><time>2026-04-09T12:44:19Z</time></trkpt><trkpt lat="44.01000902689157" lon="11.218470987028374"><ele>349.0</ele><time>2026-04-09T12:44:20Z</time></trkpt><trkpt lat="44.00974999993165" lon="11.218298729594455"><ele>358.0</ele><time>2026-04-09T12:44:21Z</time></trkpt><trkpt lat="44.00948874589755" lon="11.218123340162721"><ele>363.5</ele><time>2026-04-09T12:44:22Z</time></trkpt><trkpt lat="44.00923008834772" lon="11.217948621045892"><ele>369.0</ele><time>2026-04-09T12:44:23Z</time></trkpt><trkpt lat="44.008962022992115" lon="11.217766227319574"><ele>369.0</ele><time>2026-04-09T12:44:24Z</time></trkpt><trkpt lat="44.008685614626124" lon="11.217576152934049"><ele>369.0</ele><time>2026-04-09T12:44:25.014Z</time></trkpt><trkpt lat="44.00840827525732" lon="11.217383866271481"><ele>367.0</ele><time>2026-04-09T12:44:26.016Z</time></trkpt><trkpt lat="44.00812707494635" lon="11.217190497693379"><ele>365.0</ele><time>2026-04-09T12:44:27.017Z</time></trkpt><trkpt lat="44.007851214486465" lon="11.217007748712303"><ele>365.0</ele><time>2026-04-09T12:44:28.014Z</time></trkpt><trkpt lat="44.00758627581301" lon="11.216829744412026"><ele>365.0</ele><time>2026-04-09T12:44:29.02Z</time></trkpt><trkpt lat="44.0073231324841" lon="11.21665031117158"><ele>302.0</ele><time>2026-04-09T12:44:30.017Z</time></trkpt><trkpt lat="43.989254711236796" lon="11.21100294404776"><ele>291.0</ele><time>2026-04-09T12:45:27.999Z</time></trkpt><trkpt lat="43.988963448805336" lon="11.210995517149692"><ele>280.0</ele><time>2026-04-09T12:45:28.999Z</time></trkpt><trkpt lat="43.98866005954095" lon="11.210964253614593"><ele>280.0</ele><time>2026-04-09T12:45:29.999Z</time></trkpt><trkpt lat="43.98836233934701" lon="11.210954251669241"><ele>280.0</ele><time>2026-04-09T12:45:30.999Z</time></trkpt><trkpt lat="43.988060098130376" lon="11.210954402752462"><ele>279.0</ele><time>2026-04-09T12:45:31.999Z</time></trkpt><trkpt lat="43.98775637442492" lon="11.21095658687017"><ele>278.0</ele><time>2026-04-09T12:45:32.999Z</time></trkpt><trkpt lat="43.98745500554825" lon="11.210960209877847"><ele>278.0</ele><time>2026-04-09T12:45:34Z</time></trkpt><trkpt lat="43.98715136519423" lon="11.210963816352251"><ele>278.0</ele><time>2026-04-09T12:45:35Z</time></trkpt><trkpt lat="43.98684703703647" lon="11.210970368648077"><ele>278.5</ele><time>2026-04-09T12:45:36Z</time></trkpt><trkpt lat="43.98654358869677" lon="11.210976093400252"><ele>279.0</ele><time>2026-04-09T12:45:37Z</time></trkpt><trkpt lat="43.986236364214804" lon="11.21098405651453"><ele>279.0</ele><time>2026-04-09T12:45:38Z</time></trkpt><trkpt lat="43.98592379106105" lon="11.210988782865227"><ele>279.0</ele><time>2026-04-09T12:45:39Z</time></trkpt><trkpt lat="43.98560682667636" lon="11.210991191233774"><ele>281.0</ele><time>2026-04-09T12:45:40Z</time></trkpt><trkpt lat="43.98528844916128" lon="11.210997548668615"><ele>283.0</ele><time>2026-04-09T12:45:41Z</time></trkpt><trkpt lat="43.984969442634664" lon="11.211005587113373"><ele>284.5</ele><time>2026-04-09T12:45:42Z</time></trkpt><trkpt lat="43.98464932372237" lon="11.211008193950404"><ele>286.0</ele><time>2026-04-09T12:45:43Z</time></trkpt><trkpt lat="43.984329740102766" lon="11.211017308347554"><ele>288.0</ele><time>2026-04-09T12:45:44Z</time></trkpt><trkpt lat="43.98400963985507" lon="11.211022084724359"><ele>290.0</ele><time>2026-04-09T12:45:45Z</time></trkpt><trkpt lat="43.983688517456635" lon="11.211027686859122"><ele>290.0</ele><time>2026-04-09T12:45:46Z</time></trkpt><trkpt lat="43.983365021531824" lon="11.21103118732551"><ele>290.0</ele><time>2026-04-09T12:45:47Z</time></trkpt><trkpt lat="43.983038051560136" lon="11.21104646318481"><ele>291.5</ele><time>2026-04-09T12:45:48Z</time></trkpt><trkpt lat="43.98270476400114" lon="11.211044663528645"><ele>293.0</ele><time>2026-04-09T12:45:49Z</time></trkpt><trkpt lat="43.98237671965608" lon="11.211051550510913"><ele>293.0</ele><time>2026-04-09T12:45:50Z</time></trkpt><trkpt lat="43.98204623228033" lon="11.21106600571323"><ele>293.0</ele><time>2026-04-09T12:45:51Z</time></trkpt><trkpt lat="43.98171277858629" lon="11.211074292155237"><ele>289.5</ele><time>2026-04-09T12:45:52Z</time></trkpt><trkpt lat="43.98137027837156" lon="11.211083274503494"><ele>286.0</ele><time>2026-04-09T12:45:53Z</time></trkpt><trkpt lat="43.98102909032776" lon="11.211087855900074"><ele>293.5</ele><time>2026-04-09T12:45:54Z</time></trkpt><trkpt lat="43.980687037131105" lon="11.211087065873896"><ele>301.0</ele><time>2026-04-09T12:45:55Z</time></trkpt><trkpt lat="43.98034300803091" lon="11.211091109040636"><ele>307.0</ele><time>2026-04-09T12:45:56Z</time></trkpt><trkpt lat="43.97999723697805" lon="11.211094229591982"><ele>313.0</ele><time>2026-04-09T12:45:57Z</time></trkpt><trkpt lat="43.979650931358634" lon="11.211101287139037"><ele>313.0</ele><time>2026-04-09T12:45:58Z</time></trkpt><trkpt lat="43.979305147084006" lon="11.211111194401832"><ele>313.0</ele><time>2026-04-09T12:45:59Z</time></trkpt><trkpt lat="43.978979814115704" lon="11.211122219162718"><ele>313.5</ele><time>2026-04-09T12:46:00Z</time></trkpt><trkpt lat="43.97868063734732" lon="11.211141681771565"><ele>314.0</ele><time>2026-04-09T12:46:01Z</time></trkpt><trkpt lat="43.9783855305469" lon="11.211149725936995"><ele>315.5</ele><time>2026-04-09T12:46:02Z</time></trkpt><trkpt lat="43.97809465419143" lon="11.211159167803043"><ele>317.0</ele><time>2026-04-09T12:46:03Z</time></trkpt><trkpt lat="43.97780738645474" lon="11.211165439169184"><ele>317.0</ele><time>2026-04-09T12:46:04Z</time></trkpt><trkpt lat="43.97752223721268" lon="11.21116932593408"><ele>317.0</ele><time>2026-04-09T12:46:05Z</time></trkpt><trkpt lat="43.97724022469791" lon="11.211168739060364"><ele>319.0</ele><time>2026-04-09T12:46:06Z</time></trkpt><trkpt lat="43.97696019460121" lon="11.211177163037611"><ele>321.0</ele><time>2026-04-09T12:46:07Z</time></trkpt><trkpt lat="43.97667965877346" lon="11.211183063326764"><ele>315.5</ele><time>2026-04-09T12:46:08Z</time></trkpt><trkpt lat="43.976398786336226" lon="11.21118986694003"><ele>310.0</ele><time>2026-04-09T12:46:09Z</time></trkpt><trkpt lat="43.97611651173821" lon="11.211196650777916"><ele>300.0</ele><time>2026-04-09T12:46:10Z</time></trkpt><trkpt lat="43.97583540863416" lon="11.211199895492767"><ele>290.0</ele><time>2026-04-09T12:46:11Z</time></trkpt><trkpt lat="43.97555242584684" lon="11.211206632600787"><ele>290.0</ele><time>2026-04-09T12:46:12Z</time></trkpt><trkpt lat="43.975277567986296" lon="11.211212033104207"><ele>290.0</ele><time>2026-04-09T12:46:13Z</time></trkpt><trkpt lat="43.97502080626242" lon="11.211218069353242"><ele>297.5</ele><time>2026-04-09T12:46:14Z</time></trkpt><trkpt lat="43.974766123293776" lon="11.211225752059404"><ele>305.0</ele><time>2026-04-09T12:46:15Z</time></trkpt><trkpt lat="43.974516134977016" lon="11.211231269469438"><ele>305.0</ele><time>2026-04-09T12:46:16Z</time></trkpt><trkpt lat="43.97426796263516" lon="11.21123626782665"><ele>305.0</ele><time>2026-04-09T12:46:17Z</time></trkpt><trkpt lat="43.97402174772382" lon="11.21124118437512"><ele>319.5</ele><time>2026-04-09T12:46:18Z</time></trkpt><trkpt lat="43.97377540293079" lon="11.211244558651599"><ele>334.0</ele><time>2026-04-09T12:46:19Z</time></trkpt><trkpt lat="43.97352310975761" lon="11.211246178445668"><ele>333.0</ele><time>2026-04-09T12:46:20Z</time></trkpt><trkpt lat="43.97326805262007" lon="11.211246447357395"><ele>332.0</ele><time>2026-04-09T12:46:21Z</time></trkpt><trkpt lat="43.973006846342955" lon="11.211252091588316"><ele>332.0</ele><time>2026-04-09T12:46:22Z</time></trkpt><trkpt lat="43.972742952879265" lon="11.211258376542148"><ele>332.0</ele><time>2026-04-09T12:46:23Z</time></trkpt><trkpt lat="43.972476500361864" lon="11.21126432089865"><ele>330.5</ele><time>2026-04-09T12:46:24Z</time></trkpt><trkpt lat="43.972204326982016" lon="11.211267791217153"><ele>329.0</ele><time>2026-04-09T12:46:25Z</time></trkpt><trkpt lat="43.97193242174081" lon="11.211270434081444"><ele>329.0</ele><time>2026-04-09T12:46:26Z</time></trkpt><trkpt lat="43.97166018992925" lon="11.21127384228199"><ele>329.0</ele><time>2026-04-09T12:46:27Z</time></trkpt><trkpt lat="43.97138917824407" lon="11.211276715582278"><ele>329.0</ele><time>2026-04-09T12:46:28Z</time></trkpt><trkpt lat="43.97111785561827" lon="11.211281106701161"><ele>329.0</ele><time>2026-04-09T12:46:29Z</time></trkpt><trkpt lat="43.970847172657955" lon="11.211286504938334"><ele>329.0</ele><time>2026-04-09T12:46:30Z</time></trkpt><trkpt lat="43.970580943317806" lon="11.211289162776394"><ele>329.0</ele><time>2026-04-09T12:46:31Z</time></trkpt><trkpt lat="43.970313465175664" lon="11.211293319036013"><ele>329.0</ele><time>2026-04-09T12:46:32Z</time></trkpt><trkpt lat="43.97004543882875" lon="11.211295853536187"><ele>329.0</ele><time>2026-04-09T12:46:33Z</time></trkpt><trkpt lat="43.96978049215833" lon="11.211299852137198"><ele>328.0</ele><time>2026-04-09T12:46:34Z</time></trkpt><trkpt lat="43.969515556154896" lon="11.211307587811207"><ele>327.0</ele><time>2026-04-09T12:46:35Z</time></trkpt><trkpt lat="43.969249942642364" lon="11.211313543759681"><ele>329.0</ele><time>2026-04-09T12:46:36Z</time></trkpt><trkpt lat="43.96898630234964" lon="11.211317428918377"><ele>331.0</ele><time>2026-04-09T12:46:37Z</time></trkpt><trkpt lat="43.96871870872058" lon="11.211323062904583"><ele>331.0</ele><time>2026-04-09T12:46:38Z</time></trkpt><trkpt lat="43.96845446042906" lon="11.21132843534549"><ele>331.0</ele><time>2026-04-09T12:46:39Z</time></trkpt><trkpt lat="43.9681883279514" lon="11.211334642088024"><ele>333.5</ele><time>2026-04-09T12:46:40Z</time></trkpt><trkpt lat="43.96792002549593" lon="11.211341031249825"><ele>336.0</ele><time>2026-04-09T12:46:41Z</time></trkpt><trkpt lat="43.96765430802723" lon="11.211343690355035"><ele>337.5</ele><time>2026-04-09T12:46:42Z</time></trkpt><trkpt lat="43.96738509984338" lon="11.211343285398915"><ele>339.0</ele><time>2026-04-09T12:46:42.999Z</time></trkpt><trkpt lat="43.96711778399475" lon="11.211340287382567"><ele>339.0</ele><time>2026-04-09T12:46:43.999Z</time></trkpt><trkpt lat="43.96684969555215" lon="11.211330600269738"><ele>339.0</ele><time>2026-04-09T12:46:44.999Z</time></trkpt><trkpt lat="43.96658286008547" lon="11.211313191666354"><ele>337.0</ele><time>2026-04-09T12:46:45.999Z</time></trkpt><trkpt lat="43.96631460584265" lon="11.211283213285322"><ele>335.0</ele><time>2026-04-09T12:46:46.999Z</time></trkpt><trkpt lat="43.96604461318955" lon="11.21124566513587"><ele>335.0</ele><time>2026-04-09T12:46:47.999Z</time></trkpt><trkpt lat="43.96577343568466" lon="11.211205714756463"><ele>335.0</ele><time>2026-04-09T12:46:48.999Z</time></trkpt><trkpt lat="43.965503408818456" lon="11.211155978092634"><ele>335.0</ele><time>2026-04-09T12:46:49.999Z</time></trkpt><trkpt lat="43.965229006705336" lon="11.211100507235432"><ele>335.0</ele><time>2026-04-09T12:46:50.999Z</time></trkpt><trkpt lat="43.964955332785095" lon="11.211036791142364"><ele>341.0</ele><time>2026-04-09T12:46:51.999Z</time></trkpt><trkpt lat="43.964681929540184" lon="11.2109649553375"><ele>347.0</ele><time>2026-04-09T12:46:52.999Z</time></trkpt><trkpt lat="43.9644090111751" lon="11.210884391197792"><ele>348.0</ele><time>2026-04-09T12:46:53.999Z</time></trkpt><trkpt lat="43.96413881235635" lon="11.210795182361514"><ele>349.0</ele><time>2026-04-09T12:46:54.999Z</time></trkpt><trkpt lat="43.96388041967883" lon="11.210708237911945"><ele>352.0</ele><time>2026-04-09T12:46:55.999Z</time></trkpt><trkpt lat="43.96363118688626" lon="11.210611850036962"><ele>355.0</ele><time>2026-04-09T12:46:56.999Z</time></trkpt><trkpt lat="43.963382488078366" lon="11.21050983974742"><ele>351.0</ele><time>2026-04-09T12:46:57.999Z</time></trkpt><trkpt lat="43.963136002213425" lon="11.210400546491366"><ele>347.0</ele><time>2026-04-09T12:46:58.999Z</time></trkpt><trkpt lat="43.96288794594426" lon="11.2102828805083"><ele>347.0</ele><time>2026-04-09T12:46:59.999Z</time></trkpt><trkpt lat="43.96264441791922" lon="11.210163033022855"><ele>347.0</ele><time>2026-04-09T12:47:00.999Z</time></trkpt><trkpt lat="43.96240092684743" lon="11.210038191343017"><ele>347.0</ele><time>2026-04-09T12:47:01.999Z</time></trkpt><trkpt lat="43.962157443015066" lon="11.209909805661631"><ele>347.0</ele><time>2026-04-09T12:47:02.999Z</time></trkpt><trkpt lat="43.96192603718885" lon="11.209783600245832"><ele>347.0</ele><time>2026-04-09T12:47:03.999Z</time></trkpt><trkpt lat="43.96170104135221" lon="11.20966222172003"><ele>347.0</ele><time>2026-04-09T12:47:04.999Z</time></trkpt><trkpt lat="43.96147002269523" lon="11.209536323951951"><ele>349.0</ele><time>2026-04-09T12:47:05.999Z</time></trkpt><trkpt lat="43.961231849371224" lon="11.20940739911851"><ele>351.0</ele><time>2026-04-09T12:47:06.999Z</time></trkpt><trkpt lat="43.96100061541345" lon="11.20928169020902"><ele>355.5</ele><time>2026-04-09T12:47:07.999Z</time></trkpt><trkpt lat="43.96078172689102" lon="11.20916185292047"><ele>360.0</ele><time>2026-04-09T12:47:08.999Z</time></trkpt><trkpt lat="43.96056114767331" lon="11.209046248177579"><ele>364.5</ele><time>2026-04-09T12:47:10.02Z</time></trkpt><trkpt lat="43.96033249564242" lon="11.208930967011424"><ele>369.0</ele><time>2026-04-09T12:47:11.021Z</time></trkpt><trkpt lat="43.96009605396655" lon="11.208820168301747"><ele>365.0</ele><time>2026-04-09T12:47:12.015Z</time></trkpt><trkpt lat="43.959848281575766" lon="11.20871356158479"><ele>361.0</ele><time>2026-04-09T12:47:13.019Z</time></trkpt><trkpt lat="43.9595991809352" lon="11.208615510460064"><ele>361.0</ele><time>2026-04-09T12:47:14.018Z</time></trkpt><trkpt lat="43.95935960188053" lon="11.208542367512008"><ele>361.0</ele><time>2026-04-09T12:47:14.999Z</time></trkpt><trkpt lat="43.95911810367343" lon="11.208445780327"><ele>354.5</ele><time>2026-04-09T12:47:15.999Z</time></trkpt><trkpt lat="43.95887936935244" lon="11.208380469849988"><ele>348.0</ele><time>2026-04-09T12:47:16.999Z</time></trkpt><trkpt lat="43.95863936504733" lon="11.208325515962017"><ele>348.0</ele><time>2026-04-09T12:47:17.999Z</time></trkpt><trkpt lat="43.95840090977338" lon="11.208273328846087"><ele>348.0</ele><time>2026-04-09T12:47:18.999Z</time></trkpt><trkpt lat="43.958158778147165" lon="11.20823264213349"><ele>347.0</ele><time>2026-04-09T12:47:19.999Z</time></trkpt><trkpt lat="43.957911890404176" lon="11.208204140470526"><ele>346.0</ele><time>2026-04-09T12:47:20.999Z</time></trkpt><trkpt lat="43.95766639477331" lon="11.20818253737017"><ele>349.5</ele><time>2026-04-09T12:47:21.999Z</time></trkpt><trkpt lat="43.95741863984694" lon="11.208169584665571"><ele>353.0</ele><time>2026-04-09T12:47:22.999Z</time></trkpt><trkpt lat="43.95717006985816" lon="11.208164080127197"><ele>353.0</ele><time>2026-04-09T12:47:23.999Z</time></trkpt><trkpt lat="43.95692029854394" lon="11.208170775484414"><ele>353.0</ele><time>2026-04-09T12:47:24.999Z</time></trkpt><trkpt lat="43.95666761181387" lon="11.208191424480434"><ele>357.5</ele><time>2026-04-09T12:47:25.999Z</time></trkpt><trkpt lat="43.95641611567027" lon="11.208222406178056"><ele>362.0</ele><time>2026-04-09T12:47:26.999Z</time></trkpt><trkpt lat="43.956164488671796" lon="11.208261341033289"><ele>362.0</ele><time>2026-04-09T12:47:27.999Z</time></trkpt><trkpt lat="43.95591339552032" lon="11.208308280223415"><ele>362.0</ele><time>2026-04-09T12:47:28.999Z</time></trkpt><trkpt lat="43.95566410573384" lon="11.208367758478877"><ele>358.0</ele><time>2026-04-09T12:47:29.999Z</time></trkpt><trkpt lat="43.955412754446044" lon="11.208436667915345"><ele>354.0</ele><time>2026-04-09T12:47:30.999Z</time></trkpt><trkpt lat="43.95516250807694" lon="11.208520856131189"><ele>351.0</ele><time>2026-04-09T12:47:31.999Z</time></trkpt><trkpt lat="43.95491442693578" lon="11.208617889457484"><ele>348.0</ele><time>2026-04-09T12:47:32.999Z</time></trkpt><trkpt lat="43.954673880062856" lon="11.208721274911792"><ele>348.0</ele><time>2026-04-09T12:47:33.999Z</time></trkpt><trkpt lat="43.95444656443235" lon="11.20881669116879"><ele>348.0</ele><time>2026-04-09T12:47:34.999Z</time></trkpt><trkpt lat="43.95423416042484" lon="11.208913601805268"><ele>347.6666666666667</ele><time>2026-04-09T12:47:35.999Z</time></trkpt><trkpt lat="43.954028604047316" lon="11.209016598916218"><ele>347.33333333333337</ele><time>2026-04-09T12:47:36.999Z</time></trkpt><trkpt lat="43.95383048508796" lon="11.209119329082391"><ele>347.0</ele><time>2026-04-09T12:47:37.999Z</time></trkpt><trkpt lat="43.95364562083641" lon="11.209219949412667"><ele>347.0</ele><time>2026-04-09T12:47:38.999Z</time></trkpt><trkpt lat="43.953461513666305" lon="11.209325869733675"><ele>347.0</ele><time>2026-04-09T12:47:40Z</time></trkpt><trkpt lat="43.953266293112705" lon="11.20944323978047"><ele>347.0</ele><time>2026-04-09T12:47:41Z</time></trkpt><trkpt lat="43.953061443174725" lon="11.209572024025418"><ele>356.0</ele><time>2026-04-09T12:47:42Z</time></trkpt><trkpt lat="43.9528389226469" lon="11.209718261841386"><ele>365.0</ele><time>2026-04-09T12:47:43.017Z</time></trkpt><trkpt lat="43.9526122769773" lon="11.209871396038949"><ele>388.0</ele><time>2026-04-09T12:47:44.02Z</time></trkpt><trkpt lat="43.952399123831526" lon="11.210022835746686"><ele>411.0</ele><time>2026-04-09T12:47:45.019Z</time></trkpt><trkpt lat="43.95218454509658" lon="11.210179370601237"><ele>411.0</ele><time>2026-04-09T12:47:46.02Z</time></trkpt><trkpt lat="43.951976237585946" lon="11.210349381615819"><ele>411.0</ele><time>2026-04-09T12:47:47.015Z</time></trkpt><trkpt lat="43.894489794079114" lon="11.18942759000807"><ele>331.3333333333333</ele><time>2026-04-09T12:52:03.998Z</time></trkpt><trkpt lat="43.89433427185514" lon="11.189209870031823"><ele>251.66666666666669</ele><time>2026-04-09T12:52:04.998Z</time></trkpt><trkpt lat="43.89416195924673" lon="11.189042354137"><ele>172.0</ele><time>2026-04-09T12:52:05.998Z</time></trkpt><trkpt lat="43.89398804699659" lon="11.188814533679787"><ele>167.0</ele><time>2026-04-09T12:52:06.998Z</time></trkpt><trkpt lat="43.89381844646506" lon="11.188575909320086"><ele>162.0</ele><time>2026-04-09T12:52:07.998Z</time></trkpt><trkpt lat="43.89364234481969" lon="11.188328796446891"><ele>159.0</ele><time>2026-04-09T12:52:08.998Z</time></trkpt><trkpt lat="43.893461972635194" lon="11.188080111707212"><ele>156.0</ele><time>2026-04-09T12:52:10Z</time></trkpt><trkpt lat="43.893288932871904" lon="11.187836686658978"><ele>156.0</ele><time>2026-04-09T12:52:11Z</time></trkpt><trkpt lat="43.893121043350924" lon="11.187590895183318"><ele>156.0</ele><time>2026-04-09T12:52:12Z</time></trkpt><trkpt lat="43.892932598035316" lon="11.187366353643132"><ele>157.0</ele><time>2026-04-09T12:52:13Z</time></trkpt><trkpt lat="43.89273740627884" lon="11.187141625034474"><ele>158.0</ele><time>2026-04-09T12:52:14Z</time></trkpt><trkpt lat="43.89253529380603" lon="11.186926051669287"><ele>158.0</ele><time>2026-04-09T12:52:15Z</time></trkpt><trkpt lat="43.89233238382095" lon="11.186710638121728"><ele>158.0</ele><time>2026-04-09T12:52:16Z</time></trkpt><trkpt lat="43.89212463837982" lon="11.186501715472614"><ele>154.0</ele><time>2026-04-09T12:52:17Z</time></trkpt><trkpt lat="43.89191373011067" lon="11.186300321899646"><ele>150.0</ele><time>2026-04-09T12:52:18Z</time></trkpt><trkpt lat="43.89169727706222" lon="11.186106518235073"><ele>150.0</ele><time>2026-04-09T12:52:19Z</time></trkpt><trkpt lat="43.891476881811684" lon="11.18592376088272"><ele>150.0</ele><time>2026-04-09T12:52:20Z</time></trkpt><trkpt lat="43.891250518734005" lon="11.185751988778122"><ele>146.5</ele><time>2026-04-09T12:52:21Z</time></trkpt><trkpt lat="43.891025426564" lon="11.185600532235377"><ele>143.0</ele><time>2026-04-09T12:52:22Z</time></trkpt><trkpt lat="43.89079999585015" lon="11.185460357650525"><ele>143.0</ele><time>2026-04-09T12:52:23Z</time></trkpt><trkpt lat="43.89056482517667" lon="11.185329841983807"><ele>143.0</ele><time>2026-04-09T12:52:24Z</time></trkpt><trkpt lat="43.89032205707703" lon="11.185209840883152"><ele>140.5</ele><time>2026-04-09T12:52:25Z</time></trkpt><trkpt lat="43.89007220289202" lon="11.185103585816522"><ele>138.0</ele><time>2026-04-09T12:52:26Z</time></trkpt><trkpt lat="43.88981750813242" lon="11.18500642865534"><ele>138.0</ele><time>2026-04-09T12:52:27Z</time></trkpt><trkpt lat="43.88956376261704" lon="11.184926158376168"><ele>138.0</ele><time>2026-04-09T12:52:28Z</time></trkpt><trkpt lat="43.88931771683595" lon="11.184865072659367"><ele>135.5</ele><time>2026-04-09T12:52:29Z</time></trkpt><trkpt lat="43.88907983782303" lon="11.184815764135026"><ele>133.0</ele><time>2026-04-09T12:52:30Z</time></trkpt><trkpt lat="43.888847105046835" lon="11.184777468038199"><ele>133.0</ele><time>2026-04-09T12:52:31Z</time></trkpt><trkpt lat="43.888608819476744" lon="11.184757290847434"><ele>133.0</ele><time>2026-04-09T12:52:32Z</time></trkpt><trkpt lat="43.88837049928027" lon="11.18475353511155"><ele>132.5</ele><time>2026-04-09T12:52:33Z</time></trkpt><trkpt lat="43.88813028108605" lon="11.184756310738267"><ele>132.0</ele><time>2026-04-09T12:52:34Z</time></trkpt><trkpt lat="43.88788628189357" lon="11.184771676752213"><ele>132.0</ele><time>2026-04-09T12:52:35Z</time></trkpt><trkpt lat="43.88764161600539" lon="11.184800707424731"><ele>132.0</ele><time>2026-04-09T12:52:36Z</time></trkpt><trkpt lat="43.88739196738967" lon="11.184841695637314"><ele>130.5</ele><time>2026-04-09T12:52:37Z</time></trkpt><trkpt lat="43.88714291669177" lon="11.18489124939227"><ele>129.0</ele><time>2026-04-09T12:52:38Z</time></trkpt><trkpt lat="43.88690789594409" lon="11.184948183522684"><ele>121.5</ele><time>2026-04-09T12:52:39Z</time></trkpt><trkpt lat="43.88667322932237" lon="11.185005641751488"><ele>114.0</ele><time>2026-04-09T12:52:40Z</time></trkpt><trkpt lat="43.88643069007651" lon="11.185065337536866"><ele>114.0</ele><time>2026-04-09T12:52:41Z</time></trkpt><trkpt lat="43.88618281842527" lon="11.185123476598923"><ele>114.0</ele><time>2026-04-09T12:52:42Z</time></trkpt><trkpt lat="43.88593087883733" lon="11.185177592740796"><ele>106.5</ele><time>2026-04-09T12:52:43Z</time></trkpt><trkpt lat="43.88567464317906" lon="11.185224913458757"><ele>99.0</ele><time>2026-04-09T12:52:44Z</time></trkpt><trkpt lat="43.88542317290459" lon="11.185260649023082"><ele>99.0</ele><time>2026-04-09T12:52:45Z</time></trkpt><trkpt lat="43.88518416872699" lon="11.185287998502302"><ele>99.0</ele><time>2026-04-09T12:52:46Z</time></trkpt><trkpt lat="43.88494613703624" lon="11.185305311939118"><ele>98.0</ele><time>2026-04-09T12:52:47Z</time></trkpt><trkpt lat="43.88470557697731" lon="11.185312790048043"><ele>97.0</ele><time>2026-04-09T12:52:48Z</time></trkpt><trkpt lat="43.88446035024945" lon="11.185312104783202"><ele>99.5</ele><time>2026-04-09T12:52:49Z</time></trkpt><trkpt lat="43.88421455739732" lon="11.185302919964478"><ele>102.0</ele><time>2026-04-09T12:52:50Z</time></trkpt><trkpt lat="43.8839697045136" lon="11.185279005934238"><ele>102.0</ele><time>2026-04-09T12:52:51Z</time></trkpt><trkpt lat="43.88371919766842" lon="11.185244256515857"><ele>102.0</ele><time>2026-04-09T12:52:52Z</time></trkpt><trkpt lat="43.88348840615089" lon="11.185199558190233"><ele>105.5</ele><time>2026-04-09T12:52:53Z</time></trkpt><trkpt lat="43.8832539552478" lon="11.18514557351293"><ele>109.0</ele><time>2026-04-09T12:52:54Z</time></trkpt><trkpt lat="43.88302443524193" lon="11.185080729481683"><ele>109.0</ele><time>2026-04-09T12:52:55Z</time></trkpt><trkpt lat="43.88280591594617" lon="11.185009571331832"><ele>109.0</ele><time>2026-04-09T12:52:56Z</time></trkpt><trkpt lat="43.882588909794826" lon="11.184929698293466"><ele>109.0</ele><time>2026-04-09T12:52:57Z</time></trkpt><trkpt lat="43.88236981773815" lon="11.184839435833176"><ele>111.33333333333334</ele><time>2026-04-09T12:52:58Z</time></trkpt><trkpt lat="43.882162325927276" lon="11.184747115378945"><ele>113.66666666666666</ele><time>2026-04-09T12:52:59Z</time></trkpt><trkpt lat="43.881963148547236" lon="11.184645062665027"><ele>116.0</ele><time>2026-04-09T12:53:00Z</time></trkpt><trkpt lat="43.88176124687799" lon="11.184533513550129"><ele>122.5</ele><time>2026-04-09T12:53:01Z</time></trkpt><trkpt lat="43.88154186960775" lon="11.184403719127351"><ele>129.0</ele><time>2026-04-09T12:53:02Z</time></trkpt><trkpt lat="43.88133091007694" lon="11.18427153246725"><ele>129.0</ele><time>2026-04-09T12:53:03Z</time></trkpt><trkpt lat="43.881124649333124" lon="11.184133281519994"><ele>129.0</ele><time>2026-04-09T12:53:04.02Z</time></trkpt><trkpt lat="43.88091876389854" lon="11.18398442879445"><ele>134.5</ele><time>2026-04-09T12:53:05.018Z</time></trkpt><trkpt lat="43.88070767814084" lon="11.183825600234076"><ele>140.0</ele><time>2026-04-09T12:53:06.02Z</time></trkpt><trkpt lat="43.880508396807535" lon="11.183654981259686"><ele>182.0</ele><time>2026-04-09T12:53:07.022Z</time></trkpt><trkpt lat="43.878184739376884" lon="11.181243639297787"><ele>190.0</ele><time>2026-04-09T12:53:11.127Z</time></trkpt><trkpt lat="43.87759304700256" lon="11.180304854100946"><ele>168.0</ele><time>2026-04-09T12:53:12.128Z</time></trkpt><trkpt lat="43.87703131408611" lon="11.17933250605394"><ele>160.0</ele><time>2026-04-09T12:53:13.128Z</time></trkpt><trkpt lat="43.876476078437946" lon="11.178354839028358"><ele>162.0</ele><time>2026-04-09T12:53:14.127Z</time></trkpt><trkpt lat="43.875926686866556" lon="11.177369320797725"><ele>120.0</ele><time>2026-04-09T12:53:15.127Z</time></trkpt><trkpt lat="43.87539121314335" lon="11.176369294567014"><ele>117.0</ele><time>2026-04-09T12:53:16.127Z</time></trkpt><trkpt lat="43.87483323786487" lon="11.175393493008613"><ele>113.0</ele><time>2026-04-09T12:53:17.127Z</time></trkpt><trkpt lat="43.874151784381425" lon="11.174589540869103"><ele>105.0</ele><time>2026-04-09T12:53:18.127Z</time></trkpt><trkpt lat="43.87338029432941" lon="11.17394887637566"><ele>112.0</ele><time>2026-04-09T12:53:19.127Z</time></trkpt><trkpt lat="43.87259210085218" lon="11.173346861021415"><ele>91.0</ele><time>2026-04-09T12:53:20.127Z</time></trkpt><trkpt lat="43.87173197570167" lon="11.173026161364614"><ele>97.0</ele><time>2026-04-09T12:53:21.127Z</time></trkpt><trkpt lat="43.870848488104286" lon="11.17324561914131"><ele>98.0</ele><time>2026-04-09T12:53:22.128Z</time></trkpt><trkpt lat="43.869978613846094" lon="11.173558761558581"><ele>125.0</ele><time>2026-04-09T12:53:23.127Z</time></trkpt><trkpt lat="43.869110363477546" lon="11.173887769806223"><ele>122.0</ele><time>2026-04-09T12:53:24.127Z</time></trkpt><trkpt lat="43.86824707901601" lon="11.17423719778083"><ele>114.0</ele><time>2026-04-09T12:53:25.127Z</time></trkpt><trkpt lat="43.86738171468726" lon="11.174579087120193"><ele>114.0</ele><time>2026-04-09T12:53:26.127Z</time></trkpt><trkpt lat="43.86699840896192" lon="11.174807203944004"><ele>114.0</ele><time>2026-04-09T12:54:35.999Z</time></trkpt><trkpt lat="43.86686513629452" lon="11.174870576762975"><ele>114.0</ele><time>2026-04-09T12:54:36.999Z</time></trkpt><trkpt lat="43.86679906684537" lon="11.174652051738228"><ele>114.0</ele><time>2026-04-09T12:54:37.999Z</time></trkpt><trkpt lat="43.86655862424334" lon="11.174955576466493"><ele>106.33333333333333</ele><time>2026-04-09T12:54:38.999Z</time></trkpt><trkpt lat="43.86638442980688" lon="11.175065516049411"><ele>98.66666666666666</ele><time>2026-04-09T12:54:39.999Z</time></trkpt><trkpt lat="43.86622048619842" lon="11.175157016688983"><ele>91.0</ele><time>2026-04-09T12:54:40.999Z</time></trkpt><trkpt lat="43.86605142750145" lon="11.175241815668759"><ele>88.66666666666666</ele><time>2026-04-09T12:54:41.999Z</time></trkpt><trkpt lat="43.865877557815594" lon="11.175332654507375"><ele>86.33333333333333</ele><time>2026-04-09T12:54:42.999Z</time></trkpt><trkpt lat="43.86570694244414" lon="11.17542129790694"><ele>84.0</ele><time>2026-04-09T12:54:43.999Z</time></trkpt><trkpt lat="43.86552812754701" lon="11.17550749554975"><ele>84.0</ele><time>2026-04-09T12:54:44.999Z</time></trkpt><trkpt lat="43.865346052286526" lon="11.175597454214456"><ele>84.0</ele><time>2026-04-09T12:54:46Z</time></trkpt><trkpt lat="43.865170297247744" lon="11.17568420747136"><ele>84.0</ele><time>2026-04-09T12:54:47Z</time></trkpt><trkpt lat="43.86499373629757" lon="11.175771418662135"><ele>84.33333333333333</ele><time>2026-04-09T12:54:48Z</time></trkpt><trkpt lat="43.864801144706895" lon="11.175863481283793"><ele>84.66666666666666</ele><time>2026-04-09T12:54:49Z</time></trkpt><trkpt lat="43.86460288017599" lon="11.175958123487812"><ele>85.0</ele><time>2026-04-09T12:54:50Z</time></trkpt><trkpt lat="43.864394193606834" lon="11.176058166323584"><ele>83.5</ele><time>2026-04-09T12:54:51Z</time></trkpt><trkpt lat="43.8641779733552" lon="11.176153221727512"><ele>82.0</ele><time>2026-04-09T12:54:52Z</time></trkpt><trkpt lat="43.863949768732" lon="11.176249750732126"><ele>82.0</ele><time>2026-04-09T12:54:53Z</time></trkpt><trkpt lat="43.86371910305681" lon="11.176342463912711"><ele>82.0</ele><time>2026-04-09T12:54:54Z</time></trkpt><trkpt lat="43.86348164077101" lon="11.176436185034605"><ele>80.5</ele><time>2026-04-09T12:54:55Z</time></trkpt><trkpt lat="43.863251339705926" lon="11.17653301580486"><ele>79.0</ele><time>2026-04-09T12:54:56Z</time></trkpt><trkpt lat="43.863034190206804" lon="11.176620183405161"><ele>79.0</ele><time>2026-04-09T12:54:57Z</time></trkpt><trkpt lat="43.86282449191245" lon="11.176702325471439"><ele>79.0</ele><time>2026-04-09T12:54:58Z</time></trkpt><trkpt lat="43.862606800589084" lon="11.17678441164196"><ele>79.0</ele><time>2026-04-09T12:54:59Z</time></trkpt><trkpt lat="43.86238277364144" lon="11.176866982562991"><ele>78.5</ele><time>2026-04-09T12:55:00Z</time></trkpt><trkpt lat="43.86215745362671" lon="11.176946250033332"><ele>78.0</ele><time>2026-04-09T12:55:01Z</time></trkpt><trkpt lat="43.86192950261072" lon="11.177023645566184"><ele>78.5</ele><time>2026-04-09T12:55:02Z</time></trkpt><trkpt lat="43.86169702617391" lon="11.177101050525305"><ele>79.0</ele><time>2026-04-09T12:55:03Z</time></trkpt><trkpt lat="43.86146359433281" lon="11.177177612226423"><ele>79.0</ele><time>2026-04-09T12:55:04Z</time></trkpt><trkpt lat="43.86122693871151" lon="11.177248921407983"><ele>79.0</ele><time>2026-04-09T12:55:05Z</time></trkpt><trkpt lat="43.861002296677306" lon="11.177309595311211"><ele>79.5</ele><time>2026-04-09T12:55:06Z</time></trkpt><trkpt lat="43.86077706001981" lon="11.177367041467605"><ele>80.0</ele><time>2026-04-09T12:55:07Z</time></trkpt><trkpt lat="43.86054635622253" lon="11.17742159221611"><ele>80.0</ele><time>2026-04-09T12:55:08Z</time></trkpt><trkpt lat="43.86031336021584" lon="11.17746888249903"><ele>80.0</ele><time>2026-04-09T12:55:09Z</time></trkpt><trkpt lat="43.86007936381727" lon="11.177505626850479"><ele>79.0</ele><time>2026-04-09T12:55:10Z</time></trkpt><trkpt lat="43.85983396357399" lon="11.17753372029925"><ele>78.0</ele><time>2026-04-09T12:55:11Z</time></trkpt><trkpt lat="43.85958425406345" lon="11.177548682752557"><ele>78.0</ele><time>2026-04-09T12:55:12Z</time></trkpt><trkpt lat="43.85932865696228" lon="11.177555087295639"><ele>78.0</ele><time>2026-04-09T12:55:13Z</time></trkpt><trkpt lat="43.85906686856788" lon="11.177549244586489"><ele>77.5</ele><time>2026-04-09T12:55:14Z</time></trkpt><trkpt lat="43.85879791203809" lon="11.177534032472245"><ele>77.0</ele><time>2026-04-09T12:55:15Z</time></trkpt><trkpt lat="43.85854059743126" lon="11.177509603082111"><ele>77.0</ele><time>2026-04-09T12:55:16Z</time></trkpt><trkpt lat="43.85829180203426" lon="11.177472945427883"><ele>77.0</ele><time>2026-04-09T12:55:17Z</time></trkpt><trkpt lat="43.85804218971356" lon="11.17742512762029"><ele>77.0</ele><time>2026-04-09T12:55:18Z</time></trkpt><trkpt lat="43.85778886270181" lon="11.17736473982653"><ele>77.0</ele><time>2026-04-09T12:55:19Z</time></trkpt><trkpt lat="43.85754637246572" lon="11.177284843026143"><ele>75.5</ele><time>2026-04-09T12:55:20Z</time></trkpt><trkpt lat="43.857290552830044" lon="11.177200133281742"><ele>74.0</ele><time>2026-04-09T12:55:21Z</time></trkpt><trkpt lat="43.85703420754545" lon="11.177101498294448"><ele>73.0</ele><time>2026-04-09T12:55:22Z</time></trkpt><trkpt lat="43.856775263516276" lon="11.176995454041144"><ele>72.0</ele><time>2026-04-09T12:55:23Z</time></trkpt><trkpt lat="43.856524118759026" lon="11.176879960233517"><ele>72.0</ele><time>2026-04-09T12:55:24Z</time></trkpt><trkpt lat="43.85628795777956" lon="11.176758619388245"><ele>72.0</ele><time>2026-04-09T12:55:25Z</time></trkpt><trkpt lat="43.856063408243635" lon="11.176631609276901"><ele>71.0</ele><time>2026-04-09T12:55:26Z</time></trkpt><trkpt lat="43.85585000478405" lon="11.176494809677312"><ele>70.0</ele><time>2026-04-09T12:55:27Z</time></trkpt><trkpt lat="43.85563718084351" lon="11.176346651094972"><ele>70.0</ele><time>2026-04-09T12:55:28Z</time></trkpt><trkpt lat="43.855422904144405" lon="11.176190291491434"><ele>70.0</ele><time>2026-04-09T12:55:29Z</time></trkpt><trkpt lat="43.855206858879264" lon="11.176023885674217"><ele>69.5</ele><time>2026-04-09T12:55:30Z</time></trkpt><trkpt lat="43.85498849103656" lon="11.17584974189295"><ele>69.0</ele><time>2026-04-09T12:55:31Z</time></trkpt><trkpt lat="43.854768916633596" lon="11.175671686764275"><ele>67.0</ele><time>2026-04-09T12:55:32Z</time></trkpt><trkpt lat="43.85454846852572" lon="11.175486670952719"><ele>65.0</ele><time>2026-04-09T12:55:33Z</time></trkpt><trkpt lat="43.85432308039394" lon="11.175301297410886"><ele>65.5</ele><time>2026-04-09T12:55:34Z</time></trkpt><trkpt lat="43.854096679397784" lon="11.175113697837384"><ele>66.0</ele><time>2026-04-09T12:55:35Z</time></trkpt><trkpt lat="43.85387080482526" lon="11.174924662374014"><ele>65.0</ele><time>2026-04-09T12:55:36Z</time></trkpt><trkpt lat="43.85364545568679" lon="11.174733524959192"><ele>64.0</ele><time>2026-04-09T12:55:37Z</time></trkpt><trkpt lat="43.8534198376429" lon="11.174537333343904"><ele>63.5</ele><time>2026-04-09T12:55:38Z</time></trkpt><trkpt lat="43.85318909576281" lon="11.174344651382311"><ele>63.0</ele><time>2026-04-09T12:55:39Z</time></trkpt><trkpt lat="43.852958136386846" lon="11.174145520525768"><ele>63.5</ele><time>2026-04-09T12:55:40Z</time></trkpt><trkpt lat="43.85272553388936" lon="11.173943729557603"><ele>64.0</ele><time>2026-04-09T12:55:41Z</time></trkpt><trkpt lat="43.852491846851024" lon="11.173739980262878"><ele>64.0</ele><time>2026-04-09T12:55:42Z</time></trkpt><trkpt lat="43.85225485141015" lon="11.173535913516991"><ele>64.0</ele><time>2026-04-09T12:55:43Z</time></trkpt><trkpt lat="43.85201697274171" lon="11.173333872500612"><ele>62.0</ele><time>2026-04-09T12:55:44Z</time></trkpt><trkpt lat="43.85178045588209" lon="11.173134735126974"><ele>60.0</ele><time>2026-04-09T12:55:45Z</time></trkpt><trkpt lat="43.85155268050357" lon="11.172943898435955"><ele>60.0</ele><time>2026-04-09T12:55:46Z</time></trkpt><trkpt lat="43.851325150683294" lon="11.172750201097072"><ele>60.0</ele><time>2026-04-09T12:55:47Z</time></trkpt><trkpt lat="43.851096947677725" lon="11.17255500186166"><ele>59.0</ele><time>2026-04-09T12:55:48Z</time></trkpt><trkpt lat="43.850869676481096" lon="11.172358889722126"><ele>58.0</ele><time>2026-04-09T12:55:49Z</time></trkpt><trkpt lat="43.850638989170044" lon="11.172163251557807"><ele>58.0</ele><time>2026-04-09T12:55:50Z</time></trkpt><trkpt lat="43.85040851506614" lon="11.171967025189987"><ele>58.0</ele><time>2026-04-09T12:55:51Z</time></trkpt><trkpt lat="43.85019049344057" lon="11.171777495563727"><ele>57.5</ele><time>2026-04-09T12:55:52Z</time></trkpt><trkpt lat="43.84998451530136" lon="11.171596243182593"><ele>57.0</ele><time>2026-04-09T12:55:53Z</time></trkpt><trkpt lat="43.84979157943143" lon="11.171423048486648"><ele>57.0</ele><time>2026-04-09T12:55:54Z</time></trkpt><trkpt lat="43.84961225140626" lon="11.17126077253119"><ele>57.0</ele><time>2026-04-09T12:55:55Z</time></trkpt><trkpt lat="43.84943616803751" lon="11.171107266723258"><ele>57.0</ele><time>2026-04-09T12:55:56Z</time></trkpt><trkpt lat="43.84925390546354" lon="11.17095702284724"><ele>57.0</ele><time>2026-04-09T12:55:57Z</time></trkpt><trkpt lat="43.84906654442252" lon="11.17079722894798"><ele>57.0</ele><time>2026-04-09T12:55:58Z</time></trkpt><trkpt lat="43.848876208398764" lon="11.170632020961673"><ele>57.0</ele><time>2026-04-09T12:55:59Z</time></trkpt><trkpt lat="43.848696766515346" lon="11.170475704189862"><ele>57.33333333333333</ele><time>2026-04-09T12:56:00Z</time></trkpt><trkpt lat="43.84851955146461" lon="11.170323330692472"><ele>57.666666666666664</ele><time>2026-04-09T12:56:01Z</time></trkpt><trkpt lat="43.84835139115094" lon="11.170179612454879"><ele>58.0</ele><time>2026-04-09T12:56:02Z</time></trkpt><trkpt lat="43.84819052667991" lon="11.17003997946387"><ele>58.0</ele><time>2026-04-09T12:56:03Z</time></trkpt><trkpt lat="43.8480187361031" lon="11.169895934766515"><ele>58.0</ele><time>2026-04-09T12:56:04Z</time></trkpt><trkpt lat="43.84783039234412" lon="11.169737678999715"><ele>58.0</ele><time>2026-04-09T12:56:05Z</time></trkpt><trkpt lat="43.847627439451735" lon="11.169567683495643"><ele>56.0</ele><time>2026-04-09T12:56:06Z</time></trkpt><trkpt lat="43.847417532614045" lon="11.169385933441655"><ele>54.0</ele><time>2026-04-09T12:56:07Z</time></trkpt><trkpt lat="43.847223885785006" lon="11.169218003022998"><ele>54.0</ele><time>2026-04-09T12:56:08Z</time></trkpt><trkpt lat="43.847036545332266" lon="11.169055440441511"><ele>54.0</ele><time>2026-04-09T12:56:09Z</time></trkpt><trkpt lat="43.84684966550353" lon="11.168893979535602"><ele>54.0</ele><time>2026-04-09T12:56:10Z</time></trkpt><trkpt lat="43.84667288581952" lon="11.16873683180035"><ele>53.33333333333333</ele><time>2026-04-09T12:56:11Z</time></trkpt><trkpt lat="43.8464969284859" lon="11.16858097245419"><ele>52.666666666666664</ele><time>2026-04-09T12:56:12Z</time></trkpt><trkpt lat="43.84631938680841" lon="11.168425864616298"><ele>52.0</ele><time>2026-04-09T12:56:13Z</time></trkpt><trkpt lat="43.84614902567339" lon="11.168279938138447"><ele>51.666666666666664</ele><time>2026-04-09T12:56:14Z</time></trkpt><trkpt lat="43.84597306357733" lon="11.168127079370421"><ele>51.33333333333333</ele><time>2026-04-09T12:56:14.999Z</time></trkpt><trkpt lat="43.845787907542515" lon="11.16796304316087"><ele>51.0</ele><time>2026-04-09T12:56:15.999Z</time></trkpt><trkpt lat="43.84561173050261" lon="11.167807952985799"><ele>51.0</ele><time>2026-04-09T12:56:16.999Z</time></trkpt><trkpt lat="43.84543469813848" lon="11.167653066556555"><ele>51.0</ele><time>2026-04-09T12:56:17.999Z</time></trkpt><trkpt lat="43.845262282828365" lon="11.167501801491136"><ele>51.0</ele><time>2026-04-09T12:56:18.999Z</time></trkpt><trkpt lat="43.84509866989932" lon="11.167354570111428"><ele>50.66666666666667</ele><time>2026-04-09T12:56:19.999Z</time></trkpt><trkpt lat="43.844938703931106" lon="11.16721222404299"><ele>50.333333333333336</ele><time>2026-04-09T12:56:20.999Z</time></trkpt><trkpt lat="43.84478607979537" lon="11.167077324934631"><ele>50.0</ele><time>2026-04-09T12:56:21.999Z</time></trkpt><trkpt lat="43.84463851136392" lon="11.166945382399984"><ele>50.0</ele><time>2026-04-09T12:56:22.999Z</time></trkpt><trkpt lat="43.84449472802521" lon="11.166810079320035"><ele>50.0</ele><time>2026-04-09T12:56:23.999Z</time></trkpt><trkpt lat="43.84435694599412" lon="11.1666790608729"><ele>50.0</ele><time>2026-04-09T12:56:24.999Z</time></trkpt><trkpt lat="43.84422111528364" lon="11.166552065196385"><ele>49.333333333333336</ele><time>2026-04-09T12:56:25.999Z</time></trkpt><trkpt lat="43.8440764766866" lon="11.166418706747718"><ele>48.66666666666667</ele><time>2026-04-09T12:56:26.999Z</time></trkpt><trkpt lat="43.84391815734683" lon="11.166275543579884"><ele>48.0</ele><time>2026-04-09T12:56:27.999Z</time></trkpt><trkpt lat="43.84375197935195" lon="11.166123104129941"><ele>48.0</ele><time>2026-04-09T12:56:28.999Z</time></trkpt><trkpt lat="43.84359810747537" lon="11.165971459820442"><ele>48.0</ele><time>2026-04-09T12:56:29.999Z</time></trkpt><trkpt lat="43.84345388094263" lon="11.16582311215677"><ele>48.0</ele><time>2026-04-09T12:56:30.999Z</time></trkpt><trkpt lat="43.8433154684151" lon="11.16568159488553"><ele>47.333333333333336</ele><time>2026-04-09T12:56:31.999Z</time></trkpt><trkpt lat="43.84317981452547" lon="11.165548642605158"><ele>46.66666666666667</ele><time>2026-04-09T12:56:32.999Z</time></trkpt><trkpt lat="43.84304869019997" lon="11.165423852487946"><ele>46.0</ele><time>2026-04-09T12:56:33.999Z</time></trkpt><trkpt lat="43.842920039512144" lon="11.165308190060921"><ele>46.0</ele><time>2026-04-09T12:56:34.999Z</time></trkpt><trkpt lat="43.842784394818196" lon="11.165190634707244"><ele>46.0</ele><time>2026-04-09T12:56:35.999Z</time></trkpt><trkpt lat="43.8426422235622" lon="11.165064847751884"><ele>46.0</ele><time>2026-04-09T12:56:36.999Z</time></trkpt><trkpt lat="43.842495361604406" lon="11.164930146835696"><ele>46.333333333333336</ele><time>2026-04-09T12:56:37.999Z</time></trkpt><trkpt lat="43.8423429800159" lon="11.164785334314233"><ele>46.666666666666664</ele><time>2026-04-09T12:56:38.999Z</time></trkpt><trkpt lat="43.84218132365755" lon="11.164635235540983"><ele>47.0</ele><time>2026-04-09T12:56:39.999Z</time></trkpt><trkpt lat="43.8420288366528" lon="11.164501068698108"><ele>47.0</ele><time>2026-04-09T12:56:40.999Z</time></trkpt><trkpt lat="43.841885602005334" lon="11.164373452438156"><ele>47.0</ele><time>2026-04-09T12:56:41.999Z</time></trkpt><trkpt lat="43.84175279311776" lon="11.164247868832003"><ele>47.0</ele><time>2026-04-09T12:56:42.999Z</time></trkpt><trkpt lat="43.84162451278597" lon="11.164119088470809"><ele>46.0</ele><time>2026-04-09T12:56:43.999Z</time></trkpt><trkpt lat="43.84149232825594" lon="11.163976342358069"><ele>45.0</ele><time>2026-04-09T12:56:44.999Z</time></trkpt><trkpt lat="43.84137993878584" lon="11.163838145825888"><ele>44.0</ele><time>2026-04-09T12:56:45.999Z</time></trkpt><trkpt lat="43.84127618163386" lon="11.163700099956838"><ele>44.0</ele><time>2026-04-09T12:56:46.999Z</time></trkpt><trkpt lat="43.84116404988543" lon="11.163574890409171"><ele>44.0</ele><time>2026-04-09T12:56:47.999Z</time></trkpt><trkpt lat="43.84103733112937" lon="11.163458350619203"><ele>44.0</ele><time>2026-04-09T12:56:48.999Z</time></trkpt><trkpt lat="43.84089566377676" lon="11.16334950786779"><ele>43.25</ele><time>2026-04-09T12:56:49.999Z</time></trkpt><trkpt lat="43.84076845153169" lon="11.163252549901049"><ele>42.5</ele><time>2026-04-09T12:56:50.999Z</time></trkpt><trkpt lat="43.840658128468505" lon="11.163161793371579"><ele>41.75</ele><time>2026-04-09T12:56:52Z</time></trkpt><trkpt lat="43.84056175406429" lon="11.163075950857074"><ele>41.0</ele><time>2026-04-09T12:56:53Z</time></trkpt><trkpt lat="43.840479734692835" lon="11.16299921908373"><ele>41.0</ele><time>2026-04-09T12:56:54Z</time></trkpt><trkpt lat="43.84039936782448" lon="11.162914567702671"><ele>41.0</ele><time>2026-04-09T12:56:55Z</time></trkpt><trkpt lat="43.84032240740062" lon="11.162843325336246"><ele>41.0</ele><time>2026-04-09T12:56:56Z</time></trkpt><trkpt lat="43.840240712039815" lon="11.162773694854623"><ele>41.0</ele><time>2026-04-09T12:56:57Z</time></trkpt><trkpt lat="43.84015352961165" lon="11.162702228975887"><ele>41.0</ele><time>2026-04-09T12:56:58Z</time></trkpt><trkpt lat="43.84006534942413" lon="11.162620578848191"><ele>41.0</ele><time>2026-04-09T12:56:59Z</time></trkpt><trkpt lat="43.83998660650787" lon="11.162547885911208"><ele>41.0</ele><time>2026-04-09T12:57:00Z</time></trkpt><trkpt lat="43.839915931550394" lon="11.162483750475598"><ele>41.0</ele><time>2026-04-09T12:57:01Z</time></trkpt><trkpt lat="43.83985662761084" lon="11.162434053140414"><ele>41.0</ele><time>2026-04-09T12:57:02Z</time></trkpt><trkpt lat="43.83976789152675" lon="11.16236195686367"><ele>41.0</ele><time>2026-04-09T12:57:04Z</time></trkpt><trkpt lat="43.83972360056418" lon="11.162299393402852"><ele>41.0</ele><time>2026-04-09T12:57:06Z</time></trkpt><trkpt lat="43.83974738037643" lon="11.162198151495302"><ele>41.166666666666664</ele><time>2026-04-09T12:57:09Z</time></trkpt><trkpt lat="43.83978250838338" lon="11.162110805385565"><ele>41.33333333333333</ele><time>2026-04-09T12:57:12Z</time></trkpt><trkpt lat="43.83971924377913" lon="11.16217410389784"><ele>41.5</ele><time>2026-04-09T12:57:55Z</time></trkpt><trkpt lat="43.839653614186695" lon="11.162128090411002"><ele>41.666666666666664</ele><time>2026-04-09T12:59:47Z</time></trkpt><trkpt lat="43.839615275923926" lon="11.162243175931126"><ele>41.833333333333336</ele><time>2026-04-09T13:02:27.999Z</time></trkpt><trkpt lat="43.839546422554946" lon="11.162184058961767"><ele>42.0</ele><time>2026-04-09T13:03:10Z</time></trkpt><trkpt lat="43.83948339575113" lon="11.162157021015936"><ele>42.0</ele><time>2026-04-09T13:03:11Z</time></trkpt><trkpt lat="43.83940800085584" lon="11.16212173141755"><ele>42.0</ele><time>2026-04-09T13:03:12Z</time></trkpt><trkpt lat="43.83933805435208" lon="11.162067230322103"><ele>42.0</ele><time>2026-04-09T13:03:13Z</time></trkpt><trkpt lat="43.839257576605554" lon="11.161999844148614"><ele>42.0</ele><time>2026-04-09T13:03:14Z</time></trkpt><trkpt lat="43.839168888660105" lon="11.161927491625958"><ele>42.0</ele><time>2026-04-09T13:03:15Z</time></trkpt><trkpt lat="43.839080702164985" lon="11.16186714216966"><ele>42.0</ele><time>2026-04-09T13:03:16Z</time></trkpt><trkpt lat="43.83898068192613" lon="11.161812098432542"><ele>42.0</ele><time>2026-04-09T13:03:17Z</time></trkpt><trkpt lat="43.838871090519554" lon="11.161758202699124"><ele>42.0</ele><time>2026-04-09T13:03:18Z</time></trkpt><trkpt lat="43.83877679113688" lon="11.161701261180427"><ele>42.0</ele><time>2026-04-09T13:03:19Z</time></trkpt><trkpt lat="43.83869921278709" lon="11.161647464854267"><ele>42.0</ele><time>2026-04-09T13:03:20Z</time></trkpt><trkpt lat="43.83862018935459" lon="11.161593463026726"><ele>42.0</ele><time>2026-04-09T13:03:21Z</time></trkpt><trkpt lat="43.83851382809088" lon="11.161521686677533"><ele>42.0</ele><time>2026-04-09T13:03:22Z</time></trkpt><trkpt lat="43.838403256452935" lon="11.161439572206069"><ele>42.0</ele><time>2026-04-09T13:03:23Z</time></trkpt><trkpt lat="43.83827683747715" lon="11.16133896427723"><ele>42.0</ele><time>2026-04-09T13:03:24Z</time></trkpt><trkpt lat="43.838150160747205" lon="11.161233028129947"><ele>42.666666666666664</ele><time>2026-04-09T13:03:25Z</time></trkpt><trkpt lat="43.83801847353211" lon="11.161113403260032"><ele>43.33333333333333</ele><time>2026-04-09T13:03:26Z</time></trkpt><trkpt lat="43.83787906045073" lon="11.160985570958353"><ele>44.0</ele><time>2026-04-09T13:03:27Z</time></trkpt><trkpt lat="43.83773266049313" lon="11.160849331955044"><ele>43.33333333333333</ele><time>2026-04-09T13:03:28Z</time></trkpt><trkpt lat="43.83758387570393" lon="11.160711482388184"><ele>42.666666666666664</ele><time>2026-04-09T13:03:29Z</time></trkpt><trkpt lat="43.83744100614292" lon="11.160573081636919"><ele>42.0</ele><time>2026-04-09T13:03:30Z</time></trkpt><trkpt lat="43.83729644641969" lon="11.160432922274426"><ele>41.666666666666664</ele><time>2026-04-09T13:03:31Z</time></trkpt><trkpt lat="43.837144801632654" lon="11.160293154754923"><ele>41.33333333333333</ele><time>2026-04-09T13:03:32Z</time></trkpt><trkpt lat="43.83697735109479" lon="11.16014493989972"><ele>41.0</ele><time>2026-04-09T13:03:33Z</time></trkpt><trkpt lat="43.83680419482174" lon="11.159997478543014"><ele>40.666666666666664</ele><time>2026-04-09T13:03:34Z</time></trkpt><trkpt lat="43.836642621616654" lon="11.159865102422263"><ele>40.333333333333336</ele><time>2026-04-09T13:03:35Z</time></trkpt><trkpt lat="43.836483797435456" lon="11.159738265291674"><ele>40.0</ele><time>2026-04-09T13:03:36Z</time></trkpt><trkpt lat="43.83632579658266" lon="11.159614484935464"><ele>40.0</ele><time>2026-04-09T13:03:37Z</time></trkpt><trkpt lat="43.83616688354443" lon="11.159494422079558"><ele>40.0</ele><time>2026-04-09T13:03:38Z</time></trkpt><trkpt lat="43.836007288480545" lon="11.159368913532047"><ele>40.0</ele><time>2026-04-09T13:03:39Z</time></trkpt><trkpt lat="43.835855399883386" lon="11.159246877056034"><ele>39.0</ele><time>2026-04-09T13:03:40Z</time></trkpt><trkpt lat="43.83570351212148" lon="11.159125978697977"><ele>38.0</ele><time>2026-04-09T13:03:41Z</time></trkpt><trkpt lat="43.83555328830581" lon="11.158999914217103"><ele>37.0</ele><time>2026-04-09T13:03:42Z</time></trkpt><trkpt lat="43.83540031884592" lon="11.158871923952141"><ele>37.0</ele><time>2026-04-09T13:03:43Z</time></trkpt><trkpt lat="43.83524552119225" lon="11.158737209783371"><ele>37.0</ele><time>2026-04-09T13:03:44Z</time></trkpt><trkpt lat="43.83509022206258" lon="11.158594987559564"><ele>37.0</ele><time>2026-04-09T13:03:45Z</time></trkpt><trkpt lat="43.83493427709199" lon="11.15844436575638"><ele>37.0</ele><time>2026-04-09T13:03:46Z</time></trkpt><trkpt lat="43.83477269987664" lon="11.158299710875092"><ele>37.0</ele><time>2026-04-09T13:03:47Z</time></trkpt><trkpt lat="43.83460885665231" lon="11.158151661945704"><ele>37.0</ele><time>2026-04-09T13:03:48Z</time></trkpt><trkpt lat="43.8344490901696" lon="11.158013766099655"><ele>37.66666666666667</ele><time>2026-04-09T13:03:49Z</time></trkpt><trkpt lat="43.834296861615535" lon="11.15788790633947"><ele>38.333333333333336</ele><time>2026-04-09T13:03:50Z</time></trkpt><trkpt lat="43.834138182858325" lon="11.157762664827269"><ele>39.0</ele><time>2026-04-09T13:03:51Z</time></trkpt><trkpt lat="43.833975150516075" lon="11.157634212317713"><ele>39.0</ele><time>2026-04-09T13:03:52Z</time></trkpt><trkpt lat="43.833804770494964" lon="11.157503429363638"><ele>39.0</ele><time>2026-04-09T13:03:53Z</time></trkpt><trkpt lat="43.833633089199" lon="11.157374629360728"><ele>39.0</ele><time>2026-04-09T13:03:54Z</time></trkpt><trkpt lat="43.83346614279484" lon="11.15724803714394"><ele>38.333333333333336</ele><time>2026-04-09T13:03:55Z</time></trkpt><trkpt lat="43.83331271187753" lon="11.157124994355287"><ele>37.66666666666667</ele><time>2026-04-09T13:03:56Z</time></trkpt><trkpt lat="43.83316503208009" lon="11.157003427987055"><ele>37.0</ele><time>2026-04-09T13:03:57Z</time></trkpt><trkpt lat="43.83301603133321" lon="11.156877779004137"><ele>37.0</ele><time>2026-04-09T13:03:58Z</time></trkpt><trkpt lat="43.83287602108544" lon="11.156752504019947"><ele>37.0</ele><time>2026-04-09T13:03:59Z</time></trkpt><trkpt lat="43.8327422240473" lon="11.156628222161654"><ele>37.0</ele><time>2026-04-09T13:04:00Z</time></trkpt><trkpt lat="43.83261239105503" lon="11.156490219905711"><ele>38.0</ele><time>2026-04-09T13:04:01Z</time></trkpt><trkpt lat="43.83248189722651" lon="11.156339534389426"><ele>39.0</ele><time>2026-04-09T13:04:02Z</time></trkpt><trkpt lat="43.83235767790691" lon="11.156169425704496"><ele>40.0</ele><time>2026-04-09T13:04:03Z</time></trkpt><trkpt lat="43.83224079646722" lon="11.155975287542145"><ele>40.0</ele><time>2026-04-09T13:04:04Z</time></trkpt><trkpt lat="43.832133255527424" lon="11.155766486997832"><ele>40.0</ele><time>2026-04-09T13:04:05Z</time></trkpt><trkpt lat="43.83204777585684" lon="11.155556745683608"><ele>40.0</ele><time>2026-04-09T13:04:06Z</time></trkpt><trkpt lat="43.8319791286263" lon="11.155338979730853"><ele>40.0</ele><time>2026-04-09T13:04:07Z</time></trkpt><trkpt lat="43.831927116364405" lon="11.15510934578692"><ele>40.0</ele><time>2026-04-09T13:04:08Z</time></trkpt><trkpt lat="43.83188757412042" lon="11.154871790299119"><ele>40.0</ele><time>2026-04-09T13:04:09Z</time></trkpt><trkpt lat="43.83186699253924" lon="11.154641267862463"><ele>39.333333333333336</ele><time>2026-04-09T13:04:10Z</time></trkpt><trkpt lat="43.831864636964355" lon="11.154419293526347"><ele>38.666666666666664</ele><time>2026-04-09T13:04:11Z</time></trkpt><trkpt lat="43.831874334302675" lon="11.154190140558049"><ele>38.0</ele><time>2026-04-09T13:04:12Z</time></trkpt><trkpt lat="43.83189961486397" lon="11.153956513212838"><ele>37.666666666666664</ele><time>2026-04-09T13:04:13Z</time></trkpt><trkpt lat="43.831942741284465" lon="11.153720412103297"><ele>37.333333333333336</ele><time>2026-04-09T13:04:14Z</time></trkpt><trkpt lat="43.83200172555157" lon="11.153486145096856"><ele>37.0</ele><time>2026-04-09T13:04:15Z</time></trkpt><trkpt lat="43.832076768101636" lon="11.153257666715213"><ele>38.0</ele><time>2026-04-09T13:04:16Z</time></trkpt><trkpt lat="43.83216583009732" lon="11.153035922542589"><ele>39.0</ele><time>2026-04-09T13:04:17Z</time></trkpt><trkpt lat="43.83226559062172" lon="11.152822431146308"><ele>40.0</ele><time>2026-04-09T13:04:18Z</time></trkpt><trkpt lat="43.832374237260716" lon="11.152613119243489"><ele>40.0</ele><time>2026-04-09T13:04:19Z</time></trkpt><trkpt lat="43.832488166323884" lon="11.152408999776934"><ele>40.0</ele><time>2026-04-09T13:04:20Z</time></trkpt><trkpt lat="43.832612633157254" lon="11.152207729911549"><ele>40.0</ele><time>2026-04-09T13:04:21Z</time></trkpt><trkpt lat="43.832736442215875" lon="11.152007666354868"><ele>40.0</ele><time>2026-04-09T13:04:22Z</time></trkpt><trkpt lat="43.832869623299956" lon="11.151806675873612"><ele>40.0</ele><time>2026-04-09T13:04:23Z</time></trkpt><trkpt lat="43.8330030679706" lon="11.151595073514772"><ele>40.0</ele><time>2026-04-09T13:04:24Z</time></trkpt><trkpt lat="43.83313714484192" lon="11.15137656565863"><ele>40.0</ele><time>2026-04-09T13:04:25Z</time></trkpt><trkpt lat="43.83327734871897" lon="11.151153808056197"><ele>40.0</ele><time>2026-04-09T13:04:26Z</time></trkpt><trkpt lat="43.83341991267852" lon="11.150925655470463"><ele>40.0</ele><time>2026-04-09T13:04:27Z</time></trkpt><trkpt lat="43.83356202371707" lon="11.150689642248095"><ele>40.0</ele><time>2026-04-09T13:04:28Z</time></trkpt><trkpt lat="43.83371048924423" lon="11.150454596853592"><ele>40.0</ele><time>2026-04-09T13:04:29Z</time></trkpt><trkpt lat="43.83385116691143" lon="11.150230194915073"><ele>40.0</ele><time>2026-04-09T13:04:30Z</time></trkpt><trkpt lat="43.83397777609615" lon="11.150018922073583"><ele>40.0</ele><time>2026-04-09T13:04:31Z</time></trkpt><trkpt lat="43.834102081136464" lon="11.149818094343404"><ele>40.0</ele><time>2026-04-09T13:04:32Z</time></trkpt><trkpt lat="43.83422640109095" lon="11.149618635003751"><ele>40.0</ele><time>2026-04-09T13:04:33Z</time></trkpt><trkpt lat="43.83435390729498" lon="11.149412636171398"><ele>40.0</ele><time>2026-04-09T13:04:34Z</time></trkpt><trkpt lat="43.834486141294924" lon="11.149201604877794"><ele>40.0</ele><time>2026-04-09T13:04:35Z</time></trkpt><trkpt lat="43.83461894300751" lon="11.148987282988848"><ele>40.0</ele><time>2026-04-09T13:04:36Z</time></trkpt><trkpt lat="43.83474459773173" lon="11.148777220144101"><ele>40.333333333333336</ele><time>2026-04-09T13:04:37Z</time></trkpt><trkpt lat="43.83487026022957" lon="11.148571123336728"><ele>40.666666666666664</ele><time>2026-04-09T13:04:38Z</time></trkpt><trkpt lat="43.835000925637665" lon="11.14836595771682"><ele>41.0</ele><time>2026-04-09T13:04:39Z</time></trkpt><trkpt lat="43.8351357521121" lon="11.148154738796514"><ele>41.0</ele><time>2026-04-09T13:04:40Z</time></trkpt><trkpt lat="43.835274069513034" lon="11.147936082467574"><ele>41.0</ele><time>2026-04-09T13:04:41Z</time></trkpt><trkpt lat="43.835416905106975" lon="11.147712940879858"><ele>41.0</ele><time>2026-04-09T13:04:42Z</time></trkpt><trkpt lat="43.83556353328686" lon="11.147488062987758"><ele>41.5</ele><time>2026-04-09T13:04:43Z</time></trkpt><trkpt lat="43.83571211948002" lon="11.147255684786492"><ele>42.0</ele><time>2026-04-09T13:04:44Z</time></trkpt><trkpt lat="43.83586422886537" lon="11.147019475896052"><ele>42.0</ele><time>2026-04-09T13:04:45Z</time></trkpt><trkpt lat="43.83601730273012" lon="11.14677807334662"><ele>42.0</ele><time>2026-04-09T13:04:45.999Z</time></trkpt><trkpt lat="43.836158642297" lon="11.146548648290684"><ele>42.0</ele><time>2026-04-09T13:04:46.999Z</time></trkpt><trkpt lat="43.83630802608219" lon="11.146303943027183"><ele>42.5</ele><time>2026-04-09T13:04:47.999Z</time></trkpt><trkpt lat="43.83646623343428" lon="11.146053270131222"><ele>43.0</ele><time>2026-04-09T13:04:48.999Z</time></trkpt><trkpt lat="43.836630856876745" lon="11.145796191092156"><ele>43.0</ele><time>2026-04-09T13:04:49.999Z</time></trkpt><trkpt lat="43.83680057931392" lon="11.145531861868418"><ele>43.0</ele><time>2026-04-09T13:04:50.999Z</time></trkpt><trkpt lat="43.83696929887556" lon="11.14526421847476"><ele>42.0</ele><time>2026-04-09T13:04:51.999Z</time></trkpt><trkpt lat="43.83713297713506" lon="11.145000121690565"><ele>41.0</ele><time>2026-04-09T13:04:52.999Z</time></trkpt><trkpt lat="43.83730244870013" lon="11.144734490667062"><ele>41.0</ele><time>2026-04-09T13:04:53.999Z</time></trkpt><trkpt lat="43.83747786909339" lon="11.14446775478661"><ele>41.0</ele><time>2026-04-09T13:04:54.999Z</time></trkpt><trkpt lat="43.83765319144348" lon="11.14419171092559"><ele>41.5</ele><time>2026-04-09T13:04:55.999Z</time></trkpt><trkpt lat="43.83783167627607" lon="11.143912594418309"><ele>42.0</ele><time>2026-04-09T13:04:56.999Z</time></trkpt><trkpt lat="43.83801556528419" lon="11.143633298997107"><ele>42.0</ele><time>2026-04-09T13:04:57.999Z</time></trkpt><trkpt lat="43.83819977115458" lon="11.143345447658408"><ele>42.0</ele><time>2026-04-09T13:04:58.999Z</time></trkpt><trkpt lat="43.83837841941649" lon="11.143062399119371"><ele>42.5</ele><time>2026-04-09T13:04:59.999Z</time></trkpt><trkpt lat="43.838551760556456" lon="11.142795558016466"><ele>43.0</ele><time>2026-04-09T13:05:00.999Z</time></trkpt><trkpt lat="43.83872049099745" lon="11.142529698183484"><ele>42.0</ele><time>2026-04-09T13:05:01.999Z</time></trkpt><trkpt lat="43.83889183643086" lon="11.14226272280033"><ele>41.0</ele><time>2026-04-09T13:05:02.999Z</time></trkpt><trkpt lat="43.83906539518775" lon="11.141996503015763"><ele>41.0</ele><time>2026-04-09T13:05:03.999Z</time></trkpt><trkpt lat="43.83923935784405" lon="11.141729568517192"><ele>41.0</ele><time>2026-04-09T13:05:04.999Z</time></trkpt><trkpt lat="43.83941441845674" lon="11.141459969997708"><ele>41.0</ele><time>2026-04-09T13:05:05.999Z</time></trkpt><trkpt lat="43.839589509665736" lon="11.141187151428245"><ele>41.0</ele><time>2026-04-09T13:05:06.999Z</time></trkpt><trkpt lat="43.83976696615225" lon="11.140909589218786"><ele>40.5</ele><time>2026-04-09T13:05:07.999Z</time></trkpt><trkpt lat="43.839948210119694" lon="11.140629800975223"><ele>40.0</ele><time>2026-04-09T13:05:08.999Z</time></trkpt><trkpt lat="43.840121430147256" lon="11.140359420605753"><ele>41.0</ele><time>2026-04-09T13:05:09.999Z</time></trkpt><trkpt lat="43.840289539546255" lon="11.140104139557524"><ele>42.0</ele><time>2026-04-09T13:05:10.999Z</time></trkpt><trkpt lat="43.840451116111794" lon="11.139852933454993"><ele>42.0</ele><time>2026-04-09T13:05:11.999Z</time></trkpt><trkpt lat="43.84061125067103" lon="11.139600807401525"><ele>42.0</ele><time>2026-04-09T13:05:12.999Z</time></trkpt><trkpt lat="43.840764887204145" lon="11.139359707357853"><ele>42.0</ele><time>2026-04-09T13:05:13.999Z</time></trkpt><trkpt lat="43.84091265811503" lon="11.139126956295327"><ele>42.0</ele><time>2026-04-09T13:05:14.999Z</time></trkpt><trkpt lat="43.84106437047113" lon="11.138891529404054"><ele>43.5</ele><time>2026-04-09T13:05:16Z</time></trkpt><trkpt lat="43.841220920832185" lon="11.13865036182063"><ele>45.0</ele><time>2026-04-09T13:05:17Z</time></trkpt><trkpt lat="43.841380590761275" lon="11.138387499739702"><ele>45.0</ele><time>2026-04-09T13:05:18Z</time></trkpt><trkpt lat="43.84153923893316" lon="11.13814385280629"><ele>45.0</ele><time>2026-04-09T13:05:19Z</time></trkpt><trkpt lat="43.84169366683543" lon="11.137910475311552"><ele>44.0</ele><time>2026-04-09T13:05:20Z</time></trkpt><trkpt lat="43.841851106495994" lon="11.137669849035555"><ele>43.0</ele><time>2026-04-09T13:05:21Z</time></trkpt><trkpt lat="43.842007562319665" lon="11.137422668368428"><ele>43.0</ele><time>2026-04-09T13:05:22Z</time></trkpt><trkpt lat="43.84216701295546" lon="11.137173473786502"><ele>43.0</ele><time>2026-04-09T13:05:23Z</time></trkpt><trkpt lat="43.842333440928506" lon="11.136921187021922"><ele>43.0</ele><time>2026-04-09T13:05:24Z</time></trkpt><trkpt lat="43.84249754735558" lon="11.136668983526175"><ele>43.0</ele><time>2026-04-09T13:05:25Z</time></trkpt><trkpt lat="43.84266224771145" lon="11.136409718081026"><ele>43.5</ele><time>2026-04-09T13:05:26Z</time></trkpt><trkpt lat="43.842825614336626" lon="11.13615347859662"><ele>44.0</ele><time>2026-04-09T13:05:27Z</time></trkpt><trkpt lat="43.84298353125349" lon="11.135906620790214"><ele>44.5</ele><time>2026-04-09T13:05:28Z</time></trkpt><trkpt lat="43.84314411092263" lon="11.13565755778489"><ele>45.0</ele><time>2026-04-09T13:05:29Z</time></trkpt><trkpt lat="43.84330932468548" lon="11.135405309331361"><ele>45.0</ele><time>2026-04-09T13:05:30Z</time></trkpt><trkpt lat="43.84347669248235" lon="11.135151299080874"><ele>45.0</ele><time>2026-04-09T13:05:31Z</time></trkpt><trkpt lat="43.843646499851424" lon="11.134893819949017"><ele>45.5</ele><time>2026-04-09T13:05:32Z</time></trkpt><trkpt lat="43.84381635691398" lon="11.134634179308861"><ele>46.0</ele><time>2026-04-09T13:05:33Z</time></trkpt><trkpt lat="43.84398542908871" lon="11.134369870977949"><ele>46.0</ele><time>2026-04-09T13:05:34Z</time></trkpt><trkpt lat="43.844155661804656" lon="11.134100888083482"><ele>46.0</ele><time>2026-04-09T13:05:35Z</time></trkpt><trkpt lat="43.84432848948667" lon="11.133829220993617"><ele>46.0</ele><time>2026-04-09T13:05:36Z</time></trkpt><trkpt lat="43.84450306234977" lon="11.133556972594796"><ele>46.0</ele><time>2026-04-09T13:05:37Z</time></trkpt><trkpt lat="43.84467395962778" lon="11.133287857414256"><ele>45.5</ele><time>2026-04-09T13:05:38Z</time></trkpt><trkpt lat="43.84483893677367" lon="11.133029989828671"><ele>45.0</ele><time>2026-04-09T13:05:39Z</time></trkpt><trkpt lat="43.845006597949045" lon="11.132769061271194"><ele>46.0</ele><time>2026-04-09T13:05:40Z</time></trkpt><trkpt lat="43.84517683526314" lon="11.13250916677657"><ele>47.0</ele><time>2026-04-09T13:05:41Z</time></trkpt><trkpt lat="43.84534938267293" lon="11.132243207133849"><ele>47.0</ele><time>2026-04-09T13:05:42Z</time></trkpt><trkpt lat="43.84552454089391" lon="11.13197494179137"><ele>47.0</ele><time>2026-04-09T13:05:43Z</time></trkpt><trkpt lat="43.84570086703858" lon="11.131700931113977"><ele>46.5</ele><time>2026-04-09T13:05:44Z</time></trkpt><trkpt lat="43.845879477483166" lon="11.131424227186782"><ele>46.0</ele><time>2026-04-09T13:05:45Z</time></trkpt><trkpt lat="43.84605957587331" lon="11.13114529218014"><ele>46.0</ele><time>2026-04-09T13:05:46Z</time></trkpt><trkpt lat="43.846239344833194" lon="11.130865173464489"><ele>46.0</ele><time>2026-04-09T13:05:47Z</time></trkpt><trkpt lat="43.84641770930039" lon="11.130584973788377"><ele>44.5</ele><time>2026-04-09T13:05:48Z</time></trkpt><trkpt lat="43.84659025196672" lon="11.130318219758466"><ele>43.0</ele><time>2026-04-09T13:05:49Z</time></trkpt><trkpt lat="43.846763435411766" lon="11.130050709894206"><ele>44.5</ele><time>2026-04-09T13:05:50Z</time></trkpt><trkpt lat="43.84693844087799" lon="11.12978280128652"><ele>46.0</ele><time>2026-04-09T13:05:51Z</time></trkpt><trkpt lat="43.84711063869736" lon="11.129514149995611"><ele>46.0</ele><time>2026-04-09T13:05:52Z</time></trkpt><trkpt lat="43.84728442069069" lon="11.12923938030982"><ele>46.0</ele><time>2026-04-09T13:05:53Z</time></trkpt><trkpt lat="43.84745800516655" lon="11.1289666869218"><ele>46.5</ele><time>2026-04-09T13:05:54Z</time></trkpt><trkpt lat="43.84763444164601" lon="11.128694582650777"><ele>47.0</ele><time>2026-04-09T13:05:55Z</time></trkpt><trkpt lat="43.847809092445914" lon="11.128421290840157"><ele>47.0</ele><time>2026-04-09T13:05:56Z</time></trkpt><trkpt lat="43.84798414050055" lon="11.128145399252462"><ele>47.0</ele><time>2026-04-09T13:05:57Z</time></trkpt><trkpt lat="43.848159485006995" lon="11.127874457293945"><ele>47.0</ele><time>2026-04-09T13:05:58Z</time></trkpt><trkpt lat="43.84833903140613" lon="11.127599063596076"><ele>47.0</ele><time>2026-04-09T13:05:59Z</time></trkpt><trkpt lat="43.84851738447798" lon="11.127324140882358"><ele>47.0</ele><time>2026-04-09T13:06:00Z</time></trkpt><trkpt lat="43.84869671987292" lon="11.127046354525751"><ele>47.0</ele><time>2026-04-09T13:06:01Z</time></trkpt><trkpt lat="43.84887764012323" lon="11.126766713768983"><ele>46.0</ele><time>2026-04-09T13:06:02Z</time></trkpt><trkpt lat="43.84906019290978" lon="11.126486010194752"><ele>45.0</ele><time>2026-04-09T13:06:03Z</time></trkpt><trkpt lat="43.849243884862744" lon="11.126204004026064"><ele>45.5</ele><time>2026-04-09T13:06:04Z</time></trkpt><trkpt lat="43.84942872548149" lon="11.125921375024486"><ele>46.0</ele><time>2026-04-09T13:06:05Z</time></trkpt><trkpt lat="43.84961491655011" lon="11.125635770503129"><ele>46.0</ele><time>2026-04-09T13:06:06Z</time></trkpt><trkpt lat="43.84979675185422" lon="11.125349097228767"><ele>46.0</ele><time>2026-04-09T13:06:07Z</time></trkpt><trkpt lat="43.849982656198506" lon="11.125062135083452"><ele>46.0</ele><time>2026-04-09T13:06:08Z</time></trkpt><trkpt lat="43.85016967649395" lon="11.124776871745691"><ele>46.0</ele><time>2026-04-09T13:06:09Z</time></trkpt><trkpt lat="43.85035501196634" lon="11.124492343736861"><ele>46.0</ele><time>2026-04-09T13:06:10Z</time></trkpt><trkpt lat="43.850540015011816" lon="11.124205779668289"><ele>46.0</ele><time>2026-04-09T13:06:11Z</time></trkpt><trkpt lat="43.850723720366815" lon="11.123917575485399"><ele>45.5</ele><time>2026-04-09T13:06:12Z</time></trkpt><trkpt lat="43.85090694365977" lon="11.123629633988765"><ele>45.0</ele><time>2026-04-09T13:06:13Z</time></trkpt><trkpt lat="43.85108916748358" lon="11.123343847169085"><ele>45.5</ele><time>2026-04-09T13:06:14Z</time></trkpt><trkpt lat="43.851272702292114" lon="11.123060565523074"><ele>46.0</ele><time>2026-04-09T13:06:15Z</time></trkpt><trkpt lat="43.85145053030356" lon="11.1227825544961"><ele>46.0</ele><time>2026-04-09T13:06:16Z</time></trkpt><trkpt lat="43.8516182559364" lon="11.122519977646167"><ele>46.0</ele><time>2026-04-09T13:06:17Z</time></trkpt><trkpt lat="43.85178517027366" lon="11.122259403898747"><ele>46.0</ele><time>2026-04-09T13:06:18Z</time></trkpt><trkpt lat="43.85195465867612" lon="11.121996972008944"><ele>46.0</ele><time>2026-04-09T13:06:19Z</time></trkpt><trkpt lat="43.85211714088815" lon="11.12172440521721"><ele>45.5</ele><time>2026-04-09T13:06:20Z</time></trkpt><trkpt lat="43.85226935192377" lon="11.121438781413334"><ele>45.0</ele><time>2026-04-09T13:06:21Z</time></trkpt><trkpt lat="43.85241393428524" lon="11.121145028701125"><ele>45.0</ele><time>2026-04-09T13:06:22Z</time></trkpt><trkpt lat="43.8525527426734" lon="11.120841063105802"><ele>45.0</ele><time>2026-04-09T13:06:23Z</time></trkpt><trkpt lat="43.852682263537915" lon="11.120528040558687"><ele>46.0</ele><time>2026-04-09T13:06:24Z</time></trkpt><trkpt lat="43.85280203362894" lon="11.120209733999525"><ele>47.0</ele><time>2026-04-09T13:06:25Z</time></trkpt><trkpt lat="43.85291139140742" lon="11.119883422230766"><ele>47.0</ele><time>2026-04-09T13:06:26Z</time></trkpt><trkpt lat="43.85301511216621" lon="11.119549700688626"><ele>47.0</ele><time>2026-04-09T13:06:27Z</time></trkpt><trkpt lat="43.853114574215304" lon="11.119215670781816"><ele>47.0</ele><time>2026-04-09T13:06:28Z</time></trkpt><trkpt lat="43.853213469142695" lon="11.118879599260042"><ele>47.0</ele><time>2026-04-09T13:06:29Z</time></trkpt><trkpt lat="43.8533114461578" lon="11.118540526562152"><ele>47.5</ele><time>2026-04-09T13:06:30Z</time></trkpt><trkpt lat="43.85340959895899" lon="11.118201228097305"><ele>48.0</ele><time>2026-04-09T13:06:31Z</time></trkpt><trkpt lat="43.85350820970145" lon="11.117861477151957"><ele>48.0</ele><time>2026-04-09T13:06:32Z</time></trkpt><trkpt lat="43.85360742969208" lon="11.11752119649277"><ele>48.0</ele><time>2026-04-09T13:06:33Z</time></trkpt><trkpt lat="43.85370661627085" lon="11.117175478727834"><ele>47.5</ele><time>2026-04-09T13:06:34Z</time></trkpt><trkpt lat="43.8538072547652" lon="11.116825854188502"><ele>47.0</ele><time>2026-04-09T13:06:35Z</time></trkpt><trkpt lat="43.85391164125932" lon="11.116474478773902"><ele>47.0</ele><time>2026-04-09T13:06:36Z</time></trkpt><trkpt lat="43.85401561427882" lon="11.116121832256695"><ele>47.0</ele><time>2026-04-09T13:06:37Z</time></trkpt><trkpt lat="43.854116894010886" lon="11.115777326167763"><ele>46.5</ele><time>2026-04-09T13:06:38Z</time></trkpt><trkpt lat="43.85421390755706" lon="11.115450926763488"><ele>46.0</ele><time>2026-04-09T13:06:39Z</time></trkpt><trkpt lat="43.85430531288379" lon="11.115139586975584"><ele>45.0</ele><time>2026-04-09T13:06:40Z</time></trkpt><trkpt lat="43.85439327693832" lon="11.114834706926137"><ele>44.0</ele><time>2026-04-09T13:06:41Z</time></trkpt><trkpt lat="43.8544803201932" lon="11.11453154386187"><ele>44.0</ele><time>2026-04-09T13:06:42Z</time></trkpt><trkpt lat="43.854563648565275" lon="11.114226646225775"><ele>44.0</ele><time>2026-04-09T13:06:43Z</time></trkpt><trkpt lat="43.85464145387706" lon="11.113922600415123"><ele>44.0</ele><time>2026-04-09T13:06:44Z</time></trkpt><trkpt lat="43.85471443750517" lon="11.11361373368185"><ele>44.0</ele><time>2026-04-09T13:06:45Z</time></trkpt><trkpt lat="43.85478106032509" lon="11.113300508340041"><ele>44.0</ele><time>2026-04-09T13:06:45.999Z</time></trkpt><trkpt lat="43.854837984837964" lon="11.112999951016153"><ele>44.0</ele><time>2026-04-09T13:06:46.999Z</time></trkpt><trkpt lat="43.85488901861231" lon="11.112706526867798"><ele>44.0</ele><time>2026-04-09T13:06:47.999Z</time></trkpt><trkpt lat="43.854936395528384" lon="11.112403331640062"><ele>44.0</ele><time>2026-04-09T13:06:48.999Z</time></trkpt><trkpt lat="43.85498022314961" lon="11.112088605622153"><ele>44.0</ele><time>2026-04-09T13:06:49.999Z</time></trkpt><trkpt lat="43.855018070969344" lon="11.111761812140053"><ele>43.5</ele><time>2026-04-09T13:06:50.999Z</time></trkpt><trkpt lat="43.85505116401225" lon="11.111426214444919"><ele>43.0</ele><time>2026-04-09T13:06:51.999Z</time></trkpt><trkpt lat="43.855079660966126" lon="11.111083008876665"><ele>43.0</ele><time>2026-04-09T13:06:52.999Z</time></trkpt><trkpt lat="43.85509855599243" lon="11.11073278080902"><ele>43.0</ele><time>2026-04-09T13:06:53.999Z</time></trkpt><trkpt lat="43.85511225618796" lon="11.110377456080997"><ele>43.0</ele><time>2026-04-09T13:06:54.999Z</time></trkpt><trkpt lat="43.85512098644351" lon="11.110041596916592"><ele>43.0</ele><time>2026-04-09T13:06:55.999Z</time></trkpt><trkpt lat="43.85512812706621" lon="11.109707461693473"><ele>44.0</ele><time>2026-04-09T13:06:56.999Z</time></trkpt><trkpt lat="43.85513041695133" lon="11.10936346420229"><ele>45.0</ele><time>2026-04-09T13:06:57.999Z</time></trkpt><trkpt lat="43.85513125348533" lon="11.109021900021382"><ele>45.0</ele><time>2026-04-09T13:06:58.999Z</time></trkpt><trkpt lat="43.85513484805298" lon="11.108671859761978"><ele>45.0</ele><time>2026-04-09T13:06:59.999Z</time></trkpt><trkpt lat="43.855135519909496" lon="11.108318652135505"><ele>45.0</ele><time>2026-04-09T13:07:00.999Z</time></trkpt><trkpt lat="43.85513662288471" lon="11.107961468525923"><ele>45.0</ele><time>2026-04-09T13:07:01.999Z</time></trkpt><trkpt lat="43.85514030359194" lon="11.107602592012947"><ele>44.5</ele><time>2026-04-09T13:07:02.999Z</time></trkpt><trkpt lat="43.85514266921012" lon="11.107249726285941"><ele>44.0</ele><time>2026-04-09T13:07:03.999Z</time></trkpt><trkpt lat="43.855141986239296" lon="11.106914033572211"><ele>44.0</ele><time>2026-04-09T13:07:04.999Z</time></trkpt><trkpt lat="43.85514222868609" lon="11.106595343892923"><ele>44.0</ele><time>2026-04-09T13:07:05.999Z</time></trkpt><trkpt lat="43.8551424750549" lon="11.106277598122777"><ele>44.0</ele><time>2026-04-09T13:07:06.999Z</time></trkpt><trkpt lat="43.85514627144258" lon="11.10595764816238"><ele>44.0</ele><time>2026-04-09T13:07:07.999Z</time></trkpt><trkpt lat="43.85515094832704" lon="11.105632559690113"><ele>44.0</ele><time>2026-04-09T13:07:08.999Z</time></trkpt><trkpt lat="43.85515100653395" lon="11.105307820455966"><ele>44.0</ele><time>2026-04-09T13:07:09.999Z</time></trkpt><trkpt lat="43.855150401190244" lon="11.10497845543409"><ele>44.0</ele><time>2026-04-09T13:07:10.999Z</time></trkpt><trkpt lat="43.85515151774191" lon="11.104661108099528"><ele>44.0</ele><time>2026-04-09T13:07:11.999Z</time></trkpt><trkpt lat="43.85515534395619" lon="11.104344609767308"><ele>45.0</ele><time>2026-04-09T13:07:12.999Z</time></trkpt><trkpt lat="43.855155220484804" lon="11.104025278870257"><ele>46.0</ele><time>2026-04-09T13:07:13.999Z</time></trkpt><trkpt lat="43.855155568443585" lon="11.103701675803228"><ele>46.0</ele><time>2026-04-09T13:07:14.999Z</time></trkpt><trkpt lat="43.85515702654238" lon="11.103373835278783"><ele>46.0</ele><time>2026-04-09T13:07:15.999Z</time></trkpt><trkpt lat="43.85515719893571" lon="11.103040966425468"><ele>46.0</ele><time>2026-04-09T13:07:16.999Z</time></trkpt><trkpt lat="43.85515622092726" lon="11.10270478038497"><ele>46.0</ele><time>2026-04-09T13:07:17.999Z</time></trkpt><trkpt lat="43.855157606291556" lon="11.102362665103072"><ele>46.0</ele><time>2026-04-09T13:07:18.999Z</time></trkpt><trkpt lat="43.855160149891816" lon="11.10203913713787"><ele>46.0</ele><time>2026-04-09T13:07:19.999Z</time></trkpt><trkpt lat="43.855161207439366" lon="11.101720988775678"><ele>46.0</ele><time>2026-04-09T13:07:20.999Z</time></trkpt><trkpt lat="43.85516289917329" lon="11.101394638073613"><ele>46.0</ele><time>2026-04-09T13:07:22Z</time></trkpt><trkpt lat="43.8551672158165" lon="11.101075346968623"><ele>45.5</ele><time>2026-04-09T13:07:23Z</time></trkpt><trkpt lat="43.855168037778256" lon="11.100744913672198"><ele>45.0</ele><time>2026-04-09T13:07:24Z</time></trkpt><trkpt lat="43.855168521667366" lon="11.100415315884158"><ele>45.0</ele><time>2026-04-09T13:07:25Z</time></trkpt><trkpt lat="43.85517013265312" lon="11.100078641429297"><ele>45.0</ele><time>2026-04-09T13:07:26Z</time></trkpt><trkpt lat="43.85517201804553" lon="11.099739147876639"><ele>45.0</ele><time>2026-04-09T13:07:27Z</time></trkpt><trkpt lat="43.85517316193231" lon="11.099400103036974"><ele>45.0</ele><time>2026-04-09T13:07:28Z</time></trkpt><trkpt lat="43.85517523635982" lon="11.099058525245223"><ele>45.5</ele><time>2026-04-09T13:07:29Z</time></trkpt><trkpt lat="43.85517453954267" lon="11.098717515676167"><ele>46.0</ele><time>2026-04-09T13:07:30Z</time></trkpt><trkpt lat="43.855175453971675" lon="11.098378223039504"><ele>45.0</ele><time>2026-04-09T13:07:31Z</time></trkpt><trkpt lat="43.855177523794644" lon="11.09805833387964"><ele>44.0</ele><time>2026-04-09T13:07:32Z</time></trkpt><trkpt lat="43.85518055228258" lon="11.097740033454102"><ele>44.0</ele><time>2026-04-09T13:07:33Z</time></trkpt><trkpt lat="43.85518690347535" lon="11.097419934631596"><ele>44.0</ele><time>2026-04-09T13:07:34Z</time></trkpt><trkpt lat="43.85518993799727" lon="11.097092352904696"><ele>44.0</ele><time>2026-04-09T13:07:35Z</time></trkpt><trkpt lat="43.85519114786292" lon="11.0967641220164"><ele>44.0</ele><time>2026-04-09T13:07:36Z</time></trkpt><trkpt lat="43.85519407388816" lon="11.096444990341206"><ele>45.0</ele><time>2026-04-09T13:07:37Z</time></trkpt><trkpt lat="43.855194965803825" lon="11.096132001220838"><ele>46.0</ele><time>2026-04-09T13:07:38Z</time></trkpt><trkpt lat="43.855194338616464" lon="11.09581533209206"><ele>45.5</ele><time>2026-04-09T13:07:39Z</time></trkpt><trkpt lat="43.85519483610204" lon="11.095493329521464"><ele>45.0</ele><time>2026-04-09T13:07:40Z</time></trkpt><trkpt lat="43.85519296446428" lon="11.095168911867948"><ele>45.0</ele><time>2026-04-09T13:07:41Z</time></trkpt><trkpt lat="43.855193746261726" lon="11.094839566907268"><ele>45.0</ele><time>2026-04-09T13:07:42Z</time></trkpt><trkpt lat="43.85519486827216" lon="11.094506450084156"><ele>45.0</ele><time>2026-04-09T13:07:43Z</time></trkpt><trkpt lat="43.85519681576799" lon="11.094171892700581"><ele>45.0</ele><time>2026-04-09T13:07:44Z</time></trkpt><trkpt lat="43.85519975518328" lon="11.093835940124855"><ele>45.0</ele><time>2026-04-09T13:07:45Z</time></trkpt><trkpt lat="43.85520002386935" lon="11.093496321245617"><ele>45.0</ele><time>2026-04-09T13:07:46Z</time></trkpt><trkpt lat="43.85519875251212" lon="11.093155212682207"><ele>45.0</ele><time>2026-04-09T13:07:47Z</time></trkpt><trkpt lat="43.85519799161909" lon="11.092836297285361"><ele>45.0</ele><time>2026-04-09T13:07:48Z</time></trkpt><trkpt lat="43.855198166550615" lon="11.092518495424807"><ele>45.0</ele><time>2026-04-09T13:07:49Z</time></trkpt><trkpt lat="43.85520154785015" lon="11.092198490993292"><ele>45.0</ele><time>2026-04-09T13:07:50Z</time></trkpt><trkpt lat="43.8552049814328" lon="11.09187336771414"><ele>43.5</ele><time>2026-04-09T13:07:51Z</time></trkpt><trkpt lat="43.855205224087996" lon="11.091548092791442"><ele>42.0</ele><time>2026-04-09T13:07:52Z</time></trkpt><trkpt lat="43.85520702956137" lon="11.09121527651776"><ele>42.0</ele><time>2026-04-09T13:07:53Z</time></trkpt><trkpt lat="43.85520680255022" lon="11.090885113787431"><ele>42.0</ele><time>2026-04-09T13:07:54Z</time></trkpt><trkpt lat="43.85521009475903" lon="11.090552921185722"><ele>42.5</ele><time>2026-04-09T13:07:55Z</time></trkpt><trkpt lat="43.8552124735395" lon="11.09022135153293"><ele>43.0</ele><time>2026-04-09T13:07:56Z</time></trkpt><trkpt lat="43.85521442163807" lon="11.089887281610117"><ele>44.0</ele><time>2026-04-09T13:07:57Z</time></trkpt><trkpt lat="43.85521416885053" lon="11.089551354142397"><ele>45.0</ele><time>2026-04-09T13:07:58Z</time></trkpt><trkpt lat="43.85521419605101" lon="11.089210314715489"><ele>44.0</ele><time>2026-04-09T13:07:59Z</time></trkpt><trkpt lat="43.85521626403245" lon="11.088866050076557"><ele>43.0</ele><time>2026-04-09T13:08:00Z</time></trkpt><trkpt lat="43.8552189695919" lon="11.088517608894094"><ele>42.5</ele><time>2026-04-09T13:08:01Z</time></trkpt><trkpt lat="43.855221897714074" lon="11.088166515336747"><ele>42.0</ele><time>2026-04-09T13:08:02Z</time></trkpt><trkpt lat="43.85522098728807" lon="11.087810657878853"><ele>42.0</ele><time>2026-04-09T13:08:03Z</time></trkpt><trkpt lat="43.85522091625447" lon="11.087450509445175"><ele>42.0</ele><time>2026-04-09T13:08:04Z</time></trkpt><trkpt lat="43.85522341146879" lon="11.087087242084037"><ele>42.0</ele><time>2026-04-09T13:08:05Z</time></trkpt><trkpt lat="43.85522617509883" lon="11.086721781037998"><ele>42.0</ele><time>2026-04-09T13:08:06Z</time></trkpt><trkpt lat="43.85523017497792" lon="11.086352742529124"><ele>43.5</ele><time>2026-04-09T13:08:07Z</time></trkpt><trkpt lat="43.85523116186859" lon="11.085981690076414"><ele>45.0</ele><time>2026-04-09T13:08:08Z</time></trkpt><trkpt lat="43.855238215625505" lon="11.08560997897726"><ele>45.0</ele><time>2026-04-09T13:08:09Z</time></trkpt><trkpt lat="43.85524706897787" lon="11.085256113295372"><ele>45.0</ele><time>2026-04-09T13:08:10Z</time></trkpt><trkpt lat="43.855258485294065" lon="11.084907106723623"><ele>46.5</ele><time>2026-04-09T13:08:11Z</time></trkpt><trkpt lat="43.85527424121853" lon="11.084555113258997"><ele>48.0</ele><time>2026-04-09T13:08:12Z</time></trkpt><trkpt lat="43.855293885306885" lon="11.084205181496234"><ele>47.5</ele><time>2026-04-09T13:08:13Z</time></trkpt><trkpt lat="43.85531575619307" lon="11.083853411135983"><ele>47.0</ele><time>2026-04-09T13:08:14Z</time></trkpt><trkpt lat="43.85534002760701" lon="11.08350463165549"><ele>45.5</ele><time>2026-04-09T13:08:15Z</time></trkpt><trkpt lat="43.855370482121884" lon="11.0831531462571"><ele>44.0</ele><time>2026-04-09T13:08:16Z</time></trkpt><trkpt lat="43.855401372692235" lon="11.08280054168922"><ele>44.0</ele><time>2026-04-09T13:08:17Z</time></trkpt><trkpt lat="43.855433870307444" lon="11.082446108689199"><ele>44.0</ele><time>2026-04-09T13:08:18Z</time></trkpt><trkpt lat="43.85547249307784" lon="11.08209313494297"><ele>43.5</ele><time>2026-04-09T13:08:19Z</time></trkpt><trkpt lat="43.8555116867746" lon="11.081737345236421"><ele>43.0</ele><time>2026-04-09T13:08:20Z</time></trkpt><trkpt lat="43.85555399200916" lon="11.081380142704978"><ele>43.0</ele><time>2026-04-09T13:08:21Z</time></trkpt><trkpt lat="43.85559777606738" lon="11.081023439395933"><ele>43.0</ele><time>2026-04-09T13:08:22Z</time></trkpt><trkpt lat="43.85564817196752" lon="11.080664488640444"><ele>42.5</ele><time>2026-04-09T13:08:23Z</time></trkpt><trkpt lat="43.855701042964405" lon="11.080301148722727"><ele>42.0</ele><time>2026-04-09T13:08:24Z</time></trkpt><trkpt lat="43.85575883301392" lon="11.079944292162008"><ele>42.5</ele><time>2026-04-09T13:08:25Z</time></trkpt><trkpt lat="43.85581732545696" lon="11.079586569275214"><ele>43.0</ele><time>2026-04-09T13:08:26Z</time></trkpt><trkpt lat="43.85587777709504" lon="11.079224247491583"><ele>43.5</ele><time>2026-04-09T13:08:27Z</time></trkpt><trkpt lat="43.855944593842224" lon="11.078864838435901"><ele>44.0</ele><time>2026-04-09T13:08:28Z</time></trkpt><trkpt lat="43.85601274255054" lon="11.078507848052293"><ele>42.5</ele><time>2026-04-09T13:08:29Z</time></trkpt><trkpt lat="43.85608519144947" lon="11.078149568285392"><ele>41.0</ele><time>2026-04-09T13:08:30Z</time></trkpt><trkpt lat="43.85616075023368" lon="11.07779301332922"><ele>41.0</ele><time>2026-04-09T13:08:31Z</time></trkpt><trkpt lat="43.85624093158332" lon="11.077439538014096"><ele>41.0</ele><time>2026-04-09T13:08:32Z</time></trkpt><trkpt lat="43.85632472120873" lon="11.077087503692754"><ele>40.5</ele><time>2026-04-09T13:08:33Z</time></trkpt><trkpt lat="43.85640769061715" lon="11.076736059462853"><ele>40.0</ele><time>2026-04-09T13:08:34Z</time></trkpt><trkpt lat="43.85649365951493" lon="11.076391805693298"><ele>41.0</ele><time>2026-04-09T13:08:35Z</time></trkpt><trkpt lat="43.8565829949223" lon="11.07605121447541"><ele>42.0</ele><time>2026-04-09T13:08:36Z</time></trkpt><trkpt lat="43.85667784941222" lon="11.075711834774449"><ele>42.0</ele><time>2026-04-09T13:08:37Z</time></trkpt><trkpt lat="43.856774398776935" lon="11.075370405514677"><ele>42.0</ele><time>2026-04-09T13:08:38Z</time></trkpt><trkpt lat="43.856871182619386" lon="11.075027137945414"><ele>42.5</ele><time>2026-04-09T13:08:39Z</time></trkpt><trkpt lat="43.85697193676479" lon="11.074683937171079"><ele>43.0</ele><time>2026-04-09T13:08:40Z</time></trkpt><trkpt lat="43.8570827449829" lon="11.07434171908397"><ele>43.5</ele><time>2026-04-09T13:08:41Z</time></trkpt><trkpt lat="43.85719311380294" lon="11.073994964716462"><ele>44.0</ele><time>2026-04-09T13:08:42Z</time></trkpt><trkpt lat="43.8573100824104" lon="11.073651954796675"><ele>44.0</ele><time>2026-04-09T13:08:43Z</time></trkpt><trkpt lat="43.857420574413986" lon="11.07332424485375"><ele>44.0</ele><time>2026-04-09T13:08:44Z</time></trkpt><trkpt lat="43.857534785958606" lon="11.073001379251595"><ele>43.0</ele><time>2026-04-09T13:08:45Z</time></trkpt><trkpt lat="43.85765444842975" lon="11.072683072078739"><ele>42.0</ele><time>2026-04-09T13:08:46Z</time></trkpt><trkpt lat="43.85777630301596" lon="11.072365034076073"><ele>41.5</ele><time>2026-04-09T13:08:47Z</time></trkpt><trkpt lat="43.85789843324414" lon="11.07204496740477"><ele>41.0</ele><time>2026-04-09T13:08:48Z</time></trkpt><trkpt lat="43.85802486445163" lon="11.071725494992478"><ele>41.0</ele><time>2026-04-09T13:08:49Z</time></trkpt><trkpt lat="43.85815639782134" lon="11.07140011798899"><ele>41.0</ele><time>2026-04-09T13:08:50Z</time></trkpt><trkpt lat="43.85829337437865" lon="11.071070163214216"><ele>41.5</ele><time>2026-04-09T13:08:51Z</time></trkpt><trkpt lat="43.85843494268707" lon="11.070733218621866"><ele>42.0</ele><time>2026-04-09T13:08:51.999Z</time></trkpt><trkpt lat="43.85858333750673" lon="11.070396872105928"><ele>43.0</ele><time>2026-04-09T13:08:52.999Z</time></trkpt><trkpt lat="43.85872361385074" lon="11.07007079296002"><ele>44.0</ele><time>2026-04-09T13:08:53.999Z</time></trkpt><trkpt lat="43.85886616175972" lon="11.069746551335047"><ele>44.0</ele><time>2026-04-09T13:08:54.999Z</time></trkpt><trkpt lat="43.8590109857169" lon="11.069417952516988"><ele>44.0</ele><time>2026-04-09T13:08:55.999Z</time></trkpt><trkpt lat="43.85915522297105" lon="11.0690856397112"><ele>44.0</ele><time>2026-04-09T13:08:56.999Z</time></trkpt><trkpt lat="43.85930347527038" lon="11.06875257581213"><ele>44.0</ele><time>2026-04-09T13:08:57.999Z</time></trkpt><trkpt lat="43.859453423418906" lon="11.068420796781059"><ele>45.0</ele><time>2026-04-09T13:08:58.999Z</time></trkpt><trkpt lat="43.85960180595617" lon="11.068096209164693"><ele>46.0</ele><time>2026-04-09T13:08:59.999Z</time></trkpt><trkpt lat="43.859744107309055" lon="11.067776700190093"><ele>46.0</ele><time>2026-04-09T13:09:00.999Z</time></trkpt><trkpt lat="43.85988410205926" lon="11.067459720262569"><ele>46.0</ele><time>2026-04-09T13:09:01.999Z</time></trkpt><trkpt lat="43.86002330957581" lon="11.06714203318216"><ele>46.0</ele><time>2026-04-09T13:09:02.999Z</time></trkpt><trkpt lat="43.86016198715616" lon="11.06682757027891"><ele>46.0</ele><time>2026-04-09T13:09:03.999Z</time></trkpt><trkpt lat="43.860297170459" lon="11.066512244352596"><ele>46.0</ele><time>2026-04-09T13:09:04.999Z</time></trkpt><trkpt lat="43.860434915456736" lon="11.06619540274893"><ele>46.0</ele><time>2026-04-09T13:09:05.999Z</time></trkpt><trkpt lat="43.860573051756866" lon="11.065877249589223"><ele>44.5</ele><time>2026-04-09T13:09:06.999Z</time></trkpt><trkpt lat="43.860711906423475" lon="11.065564570754166"><ele>43.0</ele><time>2026-04-09T13:09:07.999Z</time></trkpt><trkpt lat="43.860850569691" lon="11.065247426139853"><ele>41.5</ele><time>2026-04-09T13:09:08.999Z</time></trkpt><trkpt lat="43.86098965817137" lon="11.064929698568172"><ele>40.0</ele><time>2026-04-09T13:09:09.999Z</time></trkpt><trkpt lat="43.86113015075819" lon="11.06461159782623"><ele>40.0</ele><time>2026-04-09T13:09:10.999Z</time></trkpt><trkpt lat="43.861271385007086" lon="11.064293467859045"><ele>40.0</ele><time>2026-04-09T13:09:11.999Z</time></trkpt><trkpt lat="43.86141176623594" lon="11.063976702268707"><ele>41.0</ele><time>2026-04-09T13:09:12.999Z</time></trkpt><trkpt lat="43.861553655907535" lon="11.063653836737457"><ele>42.0</ele><time>2026-04-09T13:09:13.999Z</time></trkpt><trkpt lat="43.861693231591794" lon="11.063333875462696"><ele>42.0</ele><time>2026-04-09T13:09:14.999Z</time></trkpt><trkpt lat="43.86183400733905" lon="11.06301351470838"><ele>42.0</ele><time>2026-04-09T13:09:15.999Z</time></trkpt><trkpt lat="43.86197892344416" lon="11.062688595856745"><ele>41.5</ele><time>2026-04-09T13:09:16.999Z</time></trkpt><trkpt lat="43.862121454500446" lon="11.062362584997565"><ele>41.0</ele><time>2026-04-09T13:09:17.999Z</time></trkpt><trkpt lat="43.86226664254508" lon="11.062030217304315"><ele>41.0</ele><time>2026-04-09T13:09:18.999Z</time></trkpt><trkpt lat="43.86241183146272" lon="11.061700256972623"><ele>41.0</ele><time>2026-04-09T13:09:19.999Z</time></trkpt><trkpt lat="43.86255385371966" lon="11.061368460247563"><ele>40.0</ele><time>2026-04-09T13:09:20.999Z</time></trkpt><trkpt lat="43.86269872784706" lon="11.061038691635625"><ele>39.0</ele><time>2026-04-09T13:09:21.999Z</time></trkpt><trkpt lat="43.86284350814235" lon="11.060707824515811"><ele>39.0</ele><time>2026-04-09T13:09:22.999Z</time></trkpt><trkpt lat="43.86298757259245" lon="11.060376058237381"><ele>39.0</ele><time>2026-04-09T13:09:23.999Z</time></trkpt><trkpt lat="43.86313356171885" lon="11.060044151896717"><ele>40.5</ele><time>2026-04-09T13:09:24.999Z</time></trkpt><trkpt lat="43.86327866694821" lon="11.059714737193232"><ele>42.0</ele><time>2026-04-09T13:09:25.999Z</time></trkpt><trkpt lat="43.86342317420477" lon="11.059383977433408"><ele>43.0</ele><time>2026-04-09T13:09:26.999Z</time></trkpt><trkpt lat="43.86356959961632" lon="11.05905367447022"><ele>44.0</ele><time>2026-04-09T13:09:28Z</time></trkpt><trkpt lat="43.86371186896926" lon="11.058722635596471"><ele>44.0</ele><time>2026-04-09T13:09:29Z</time></trkpt><trkpt lat="43.863855802630006" lon="11.058395564218138"><ele>44.0</ele><time>2026-04-09T13:09:30Z</time></trkpt><trkpt lat="43.86399941252064" lon="11.058068761807144"><ele>43.0</ele><time>2026-04-09T13:09:31Z</time></trkpt><trkpt lat="43.86414690897694" lon="11.057739882375472"><ele>42.0</ele><time>2026-04-09T13:09:32Z</time></trkpt><trkpt lat="43.864307418717154" lon="11.05738306880729"><ele>42.0</ele><time>2026-04-09T13:09:33Z</time></trkpt><trkpt lat="43.86446828728974" lon="11.05701378040691"><ele>42.0</ele><time>2026-04-09T13:09:34Z</time></trkpt><trkpt lat="43.864635549595725" lon="11.056632713490785"><ele>43.0</ele><time>2026-04-09T13:09:35Z</time></trkpt><trkpt lat="43.864808187164506" lon="11.056240380347997"><ele>44.0</ele><time>2026-04-09T13:09:36Z</time></trkpt><trkpt lat="43.864977314320726" lon="11.055846015614206"><ele>44.0</ele><time>2026-04-09T13:09:37Z</time></trkpt><trkpt lat="43.86513603137386" lon="11.055483933286371"><ele>44.0</ele><time>2026-04-09T13:09:38Z</time></trkpt><trkpt lat="43.86529021343799" lon="11.055140688667723"><ele>44.5</ele><time>2026-04-09T13:09:39Z</time></trkpt><trkpt lat="43.86543518899955" lon="11.05480703151377"><ele>45.0</ele><time>2026-04-09T13:09:40Z</time></trkpt><trkpt lat="43.86558024080577" lon="11.054477042053753"><ele>45.0</ele><time>2026-04-09T13:09:41Z</time></trkpt><trkpt lat="43.86572341782854" lon="11.054142565440932"><ele>45.0</ele><time>2026-04-09T13:09:42Z</time></trkpt><trkpt lat="43.865869464849034" lon="11.053811592053787"><ele>44.0</ele><time>2026-04-09T13:09:43Z</time></trkpt><trkpt lat="43.86601442781541" lon="11.05347662991265"><ele>43.0</ele><time>2026-04-09T13:09:44Z</time></trkpt><trkpt lat="43.866161919859394" lon="11.05314366422748"><ele>43.0</ele><time>2026-04-09T13:09:45Z</time></trkpt><trkpt lat="43.86630631842806" lon="11.05280726179643"><ele>43.0</ele><time>2026-04-09T13:09:46Z</time></trkpt><trkpt lat="43.86645264851533" lon="11.05247189748408"><ele>43.0</ele><time>2026-04-09T13:09:47Z</time></trkpt><trkpt lat="43.86660280942484" lon="11.05213447997614"><ele>43.0</ele><time>2026-04-09T13:09:48Z</time></trkpt><trkpt lat="43.86675163591018" lon="11.051795172300894"><ele>43.0</ele><time>2026-04-09T13:09:49Z</time></trkpt><trkpt lat="43.866900287437744" lon="11.05145649950475"><ele>43.0</ele><time>2026-04-09T13:09:50Z</time></trkpt><trkpt lat="43.86705102269207" lon="11.051119096866962"><ele>43.0</ele><time>2026-04-09T13:09:51Z</time></trkpt><trkpt lat="43.867195915381195" lon="11.050776494221108"><ele>43.0</ele><time>2026-04-09T13:09:52Z</time></trkpt><trkpt lat="43.86734787565876" lon="11.05043334002084"><ele>43.0</ele><time>2026-04-09T13:09:53Z</time></trkpt><trkpt lat="43.8674974981818" lon="11.050085951327173"><ele>43.0</ele><time>2026-04-09T13:09:54Z</time></trkpt><trkpt lat="43.86764698859729" lon="11.0497400303492"><ele>42.5</ele><time>2026-04-09T13:09:55Z</time></trkpt><trkpt lat="43.86779799087462" lon="11.049390773934949"><ele>42.0</ele><time>2026-04-09T13:09:56Z</time></trkpt><trkpt lat="43.86795114164832" lon="11.04904133317956"><ele>41.5</ele><time>2026-04-09T13:09:57Z</time></trkpt><trkpt lat="43.8681045867516" lon="11.048691391315291"><ele>41.0</ele><time>2026-04-09T13:09:58Z</time></trkpt><trkpt lat="43.86825860003051" lon="11.048339069344646"><ele>41.0</ele><time>2026-04-09T13:09:59Z</time></trkpt><trkpt lat="43.868411868774416" lon="11.047985526708521"><ele>41.0</ele><time>2026-04-09T13:10:00Z</time></trkpt><trkpt lat="43.868569009486016" lon="11.047625883412705"><ele>41.5</ele><time>2026-04-09T13:10:01Z</time></trkpt><trkpt lat="43.86872448359451" lon="11.047270738111996"><ele>42.0</ele><time>2026-04-09T13:10:02Z</time></trkpt><trkpt lat="43.86887995778758" lon="11.046912556029211"><ele>42.5</ele><time>2026-04-09T13:10:03Z</time></trkpt><trkpt lat="43.86903433922839" lon="11.046551156361115"><ele>43.0</ele><time>2026-04-09T13:10:04Z</time></trkpt><trkpt lat="43.86919037506795" lon="11.046194999275196"><ele>43.0</ele><time>2026-04-09T13:10:05Z</time></trkpt><trkpt lat="43.8693467482113" lon="11.045841093589548"><ele>43.0</ele><time>2026-04-09T13:10:06Z</time></trkpt><trkpt lat="43.86950031974819" lon="11.045489176516886"><ele>42.5</ele><time>2026-04-09T13:10:07Z</time></trkpt><trkpt lat="43.86965199035377" lon="11.04514109667714"><ele>42.0</ele><time>2026-04-09T13:10:08Z</time></trkpt><trkpt lat="43.869807899503115" lon="11.044791764547732"><ele>41.5</ele><time>2026-04-09T13:10:09Z</time></trkpt><trkpt lat="43.869962854288346" lon="11.04444556279707"><ele>41.0</ele><time>2026-04-09T13:10:10Z</time></trkpt><trkpt lat="43.870117889051876" lon="11.044101879361802"><ele>40.5</ele><time>2026-04-09T13:10:11Z</time></trkpt><trkpt lat="43.87027370566422" lon="11.043756835017602"><ele>40.0</ele><time>2026-04-09T13:10:12Z</time></trkpt><trkpt lat="43.870430613841435" lon="11.043412593392222"><ele>40.5</ele><time>2026-04-09T13:10:13Z</time></trkpt><trkpt lat="43.870585615838316" lon="11.043069239290993"><ele>41.0</ele><time>2026-04-09T13:10:14Z</time></trkpt><trkpt lat="43.87073753599724" lon="11.042727774284327"><ele>41.0</ele><time>2026-04-09T13:10:15Z</time></trkpt><trkpt lat="43.8708851126142" lon="11.042412756608476"><ele>41.0</ele><time>2026-04-09T13:10:16Z</time></trkpt><trkpt lat="43.87103296067567" lon="11.042107860312498"><ele>42.5</ele><time>2026-04-09T13:10:17Z</time></trkpt><trkpt lat="43.871182488469266" lon="11.041804153097226"><ele>44.0</ele><time>2026-04-09T13:10:18Z</time></trkpt><trkpt lat="43.87133552049109" lon="11.041503825074088"><ele>44.0</ele><time>2026-04-09T13:10:19Z</time></trkpt><trkpt lat="43.87149046967803" lon="11.04120498319039"><ele>44.0</ele><time>2026-04-09T13:10:20Z</time></trkpt><trkpt lat="43.87165037465985" lon="11.040911719696837"><ele>41.5</ele><time>2026-04-09T13:10:21Z</time></trkpt><trkpt lat="43.87181537046162" lon="11.040619412166489"><ele>39.0</ele><time>2026-04-09T13:10:22Z</time></trkpt><trkpt lat="43.87198453361929" lon="11.040325212581479"><ele>39.0</ele><time>2026-04-09T13:10:23Z</time></trkpt><trkpt lat="43.87215482032665" lon="11.040034034699419"><ele>39.0</ele><time>2026-04-09T13:10:24Z</time></trkpt><trkpt lat="43.87233029182455" lon="11.039742879502036"><ele>39.0</ele><time>2026-04-09T13:10:25Z</time></trkpt><trkpt lat="43.872507005614175" lon="11.039451782694519"><ele>39.0</ele><time>2026-04-09T13:10:26Z</time></trkpt><trkpt lat="43.87268671867101" lon="11.039166237439392"><ele>40.0</ele><time>2026-04-09T13:10:27Z</time></trkpt><trkpt lat="43.87287244016286" lon="11.038884354794815"><ele>41.0</ele><time>2026-04-09T13:10:28Z</time></trkpt><trkpt lat="43.873063777396325" lon="11.038608304584386"><ele>41.0</ele><time>2026-04-09T13:10:29Z</time></trkpt><trkpt lat="43.8732601049799" lon="11.038335934645136"><ele>41.0</ele><time>2026-04-09T13:10:30Z</time></trkpt><trkpt lat="43.873458810392165" lon="11.038068032776943"><ele>39.5</ele><time>2026-04-09T13:10:31Z</time></trkpt><trkpt lat="43.87366374256625" lon="11.037800261183369"><ele>38.0</ele><time>2026-04-09T13:10:32Z</time></trkpt><trkpt lat="43.87386751281146" lon="11.037537851992854"><ele>38.0</ele><time>2026-04-09T13:10:33Z</time></trkpt><trkpt lat="43.87407472487635" lon="11.037280413190132"><ele>38.0</ele><time>2026-04-09T13:10:34Z</time></trkpt><trkpt lat="43.874285022764724" lon="11.03702778361276"><ele>37.5</ele><time>2026-04-09T13:10:35Z</time></trkpt><trkpt lat="43.874498107680814" lon="11.03678024371703"><ele>37.0</ele><time>2026-04-09T13:10:36Z</time></trkpt><trkpt lat="43.87471482174068" lon="11.036537108915704"><ele>36.5</ele><time>2026-04-09T13:10:37Z</time></trkpt><trkpt lat="43.87493336973634" lon="11.03630017347745"><ele>36.0</ele><time>2026-04-09T13:10:38Z</time></trkpt><trkpt lat="43.87515397493468" lon="11.036065312194031"><ele>38.0</ele><time>2026-04-09T13:10:39Z</time></trkpt><trkpt lat="43.875376574864625" lon="11.035833860792764"><ele>40.0</ele><time>2026-04-09T13:10:40Z</time></trkpt><trkpt lat="43.8756030477569" lon="11.035607847481382"><ele>40.0</ele><time>2026-04-09T13:10:41Z</time></trkpt><trkpt lat="43.87583099553409" lon="11.035385923091175"><ele>40.0</ele><time>2026-04-09T13:10:42Z</time></trkpt><trkpt lat="43.87606078252808" lon="11.035168139568372"><ele>39.5</ele><time>2026-04-09T13:10:43Z</time></trkpt><trkpt lat="43.87629307292686" lon="11.034954178260916"><ele>39.0</ele><time>2026-04-09T13:10:44Z</time></trkpt><trkpt lat="43.87652739257231" lon="11.0347455431984"><ele>39.0</ele><time>2026-04-09T13:10:45Z</time></trkpt><trkpt lat="43.876763080672895" lon="11.03453958156422"><ele>39.0</ele><time>2026-04-09T13:10:46Z</time></trkpt><trkpt lat="43.876999376373625" lon="11.03433058489505"><ele>39.5</ele><time>2026-04-09T13:10:47Z</time></trkpt><trkpt lat="43.877233642954195" lon="11.034124268453741"><ele>40.0</ele><time>2026-04-09T13:10:48Z</time></trkpt><trkpt lat="43.87746872317494" lon="11.033917999508652"><ele>39.5</ele><time>2026-04-09T13:10:49Z</time></trkpt><trkpt lat="43.87770177912665" lon="11.03371543510904"><ele>39.0</ele><time>2026-04-09T13:10:50Z</time></trkpt><trkpt lat="43.87793495159056" lon="11.033511946511085"><ele>39.0</ele><time>2026-04-09T13:10:51Z</time></trkpt><trkpt lat="43.87816924733906" lon="11.033307573309685"><ele>39.0</ele><time>2026-04-09T13:10:52Z</time></trkpt><trkpt lat="43.87840217573047" lon="11.033105240461808"><ele>38.5</ele><time>2026-04-09T13:10:53Z</time></trkpt><trkpt lat="43.878635540286496" lon="11.03290072529979"><ele>38.0</ele><time>2026-04-09T13:10:54Z</time></trkpt><trkpt lat="43.8788670648725" lon="11.032697046381857"><ele>38.0</ele><time>2026-04-09T13:10:55Z</time></trkpt><trkpt lat="43.879097052648326" lon="11.032492130928542"><ele>38.0</ele><time>2026-04-09T13:10:56Z</time></trkpt><trkpt lat="43.87933049270748" lon="11.032288623569775"><ele>38.5</ele><time>2026-04-09T13:10:57Z</time></trkpt><trkpt lat="43.879562642152436" lon="11.032089049382249"><ele>39.0</ele><time>2026-04-09T13:10:58Z</time></trkpt><trkpt lat="43.87979397892507" lon="11.031887506927983"><ele>39.0</ele><time>2026-04-09T13:10:58.999Z</time></trkpt><trkpt lat="43.88002682812215" lon="11.031684743050844"><ele>39.0</ele><time>2026-04-09T13:10:59.999Z</time></trkpt><trkpt lat="43.88025775192466" lon="11.031482365776222"><ele>38.5</ele><time>2026-04-09T13:11:00.999Z</time></trkpt><trkpt lat="43.88048821682744" lon="11.031281045881327"><ele>38.0</ele><time>2026-04-09T13:11:01.999Z</time></trkpt><trkpt lat="43.88072096023631" lon="11.031078050669965"><ele>38.0</ele><time>2026-04-09T13:11:02.999Z</time></trkpt><trkpt lat="43.8809522161261" lon="11.030873898749052"><ele>38.0</ele><time>2026-04-09T13:11:03.999Z</time></trkpt><trkpt lat="43.881180031107554" lon="11.030671357129108"><ele>38.0</ele><time>2026-04-09T13:11:04.999Z</time></trkpt><trkpt lat="43.88141100925642" lon="11.030468652728507"><ele>38.0</ele><time>2026-04-09T13:11:05.999Z</time></trkpt><trkpt lat="43.88164022196368" lon="11.03026865981401"><ele>38.5</ele><time>2026-04-09T13:11:06.999Z</time></trkpt><trkpt lat="43.88187014131477" lon="11.030065718087657"><ele>39.0</ele><time>2026-04-09T13:11:07.999Z</time></trkpt><trkpt lat="43.88209987456004" lon="11.029866330368783"><ele>39.0</ele><time>2026-04-09T13:11:08.999Z</time></trkpt><trkpt lat="43.88232713143794" lon="11.029664249384469"><ele>39.0</ele><time>2026-04-09T13:11:09.999Z</time></trkpt><trkpt lat="43.88255581667773" lon="11.029457026400955"><ele>39.0</ele><time>2026-04-09T13:11:10.999Z</time></trkpt><trkpt lat="43.8827829800023" lon="11.029250457712472"><ele>39.0</ele><time>2026-04-09T13:11:11.999Z</time></trkpt><trkpt lat="43.88301155968578" lon="11.029041007174762"><ele>39.0</ele><time>2026-04-09T13:11:12.999Z</time></trkpt><trkpt lat="43.883242247988846" lon="11.028830092852607"><ele>39.0</ele><time>2026-04-09T13:11:13.999Z</time></trkpt><trkpt lat="43.88347837952976" lon="11.028621885984798"><ele>38.5</ele><time>2026-04-09T13:11:14.999Z</time></trkpt><trkpt lat="43.883712551950765" lon="11.028415865198582"><ele>38.0</ele><time>2026-04-09T13:11:15.999Z</time></trkpt><trkpt lat="43.88394763564276" lon="11.028205796021142"><ele>38.0</ele><time>2026-04-09T13:11:16.999Z</time></trkpt><trkpt lat="43.88418337175206" lon="11.027998390596894"><ele>38.0</ele><time>2026-04-09T13:11:17.999Z</time></trkpt><trkpt lat="43.884416908427724" lon="11.02778419706285"><ele>39.0</ele><time>2026-04-09T13:11:18.999Z</time></trkpt><trkpt lat="43.88464005621586" lon="11.027548139324413"><ele>40.0</ele><time>2026-04-09T13:11:19.999Z</time></trkpt><trkpt lat="43.88485960650189" lon="11.027309800576788"><ele>40.0</ele><time>2026-04-09T13:11:20.999Z</time></trkpt><trkpt lat="43.885074434591964" lon="11.027065895306855"><ele>40.0</ele><time>2026-04-09T13:11:21.999Z</time></trkpt><trkpt lat="43.885283311533584" lon="11.026814536513335"><ele>39.5</ele><time>2026-04-09T13:11:22.999Z</time></trkpt><trkpt lat="43.8854872521905" lon="11.026559266623769"><ele>39.0</ele><time>2026-04-09T13:11:23.999Z</time></trkpt><trkpt lat="43.88568623869895" lon="11.026298165096039"><ele>39.0</ele><time>2026-04-09T13:11:24.999Z</time></trkpt><trkpt lat="43.885877426747044" lon="11.02603107528486"><ele>39.0</ele><time>2026-04-09T13:11:25.999Z</time></trkpt><trkpt lat="43.88606271553344" lon="11.025758463932947"><ele>40.0</ele><time>2026-04-09T13:11:26.999Z</time></trkpt><trkpt lat="43.8862327963689" lon="11.025493499175568"><ele>41.0</ele><time>2026-04-09T13:11:27.999Z</time></trkpt><trkpt lat="43.88639484375744" lon="11.025220724585768"><ele>40.5</ele><time>2026-04-09T13:11:28.999Z</time></trkpt><trkpt lat="43.88655319480416" lon="11.024932322184247"><ele>40.0</ele><time>2026-04-09T13:11:29.999Z</time></trkpt><trkpt lat="43.88671068892004" lon="11.024635913692721"><ele>40.0</ele><time>2026-04-09T13:11:30.999Z</time></trkpt><trkpt lat="43.886868807070556" lon="11.02433585264487"><ele>40.0</ele><time>2026-04-09T13:11:31.999Z</time></trkpt><trkpt lat="43.88702468816214" lon="11.024029492223749"><ele>40.0</ele><time>2026-04-09T13:11:32.999Z</time></trkpt><trkpt lat="43.88717537670642" lon="11.023716000169175"><ele>40.0</ele><time>2026-04-09T13:11:34Z</time></trkpt><trkpt lat="43.88732083104641" lon="11.023394672418261"><ele>40.5</ele><time>2026-04-09T13:11:35Z</time></trkpt><trkpt lat="43.88746372061759" lon="11.023064162948563"><ele>41.0</ele><time>2026-04-09T13:11:36Z</time></trkpt><trkpt lat="43.887599924844125" lon="11.022722504245339"><ele>42.0</ele><time>2026-04-09T13:11:37Z</time></trkpt><trkpt lat="43.88773143935734" lon="11.02237627012131"><ele>43.0</ele><time>2026-04-09T13:11:38Z</time></trkpt><trkpt lat="43.88785712816911" lon="11.02202379950845"><ele>43.0</ele><time>2026-04-09T13:11:39Z</time></trkpt><trkpt lat="43.88797753140655" lon="11.021663113404962"><ele>43.0</ele><time>2026-04-09T13:11:40Z</time></trkpt><trkpt lat="43.88809058433814" lon="11.021293709335872"><ele>43.0</ele><time>2026-04-09T13:11:41Z</time></trkpt><trkpt lat="43.888194853537314" lon="11.0209188878374"><ele>43.0</ele><time>2026-04-09T13:11:42Z</time></trkpt><trkpt lat="43.88829224559619" lon="11.020540782726874"><ele>42.5</ele><time>2026-04-09T13:11:43Z</time></trkpt><trkpt lat="43.88838318481254" lon="11.020156691791497"><ele>42.0</ele><time>2026-04-09T13:11:44Z</time></trkpt><trkpt lat="43.88846821736235" lon="11.019772980738113"><ele>42.0</ele><time>2026-04-09T13:11:45Z</time></trkpt><trkpt lat="43.888552160800494" lon="11.019387925348246"><ele>42.0</ele><time>2026-04-09T13:11:46Z</time></trkpt><trkpt lat="43.88863559093337" lon="11.019002321477766"><ele>41.5</ele><time>2026-04-09T13:11:47Z</time></trkpt><trkpt lat="43.888720213106225" lon="11.018614145807913"><ele>41.0</ele><time>2026-04-09T13:11:48Z</time></trkpt><trkpt lat="43.888805357746314" lon="11.01822298764992"><ele>40.5</ele><time>2026-04-09T13:11:49Z</time></trkpt><trkpt lat="43.888891256126044" lon="11.017824772472133"><ele>40.0</ele><time>2026-04-09T13:11:50Z</time></trkpt><trkpt lat="43.88897677289136" lon="11.017425904275363"><ele>39.5</ele><time>2026-04-09T13:11:51Z</time></trkpt><trkpt lat="43.88906343998021" lon="11.017025669513748"><ele>39.0</ele><time>2026-04-09T13:11:52Z</time></trkpt><trkpt lat="43.889151323207614" lon="11.016621201926817"><ele>39.0</ele><time>2026-04-09T13:11:53Z</time></trkpt><trkpt lat="43.889240513215995" lon="11.016213169736785"><ele>39.0</ele><time>2026-04-09T13:11:54Z</time></trkpt><trkpt lat="43.889330534295965" lon="11.015804451028563"><ele>39.0</ele><time>2026-04-09T13:11:55Z</time></trkpt><trkpt lat="43.88942133120607" lon="11.0153942427124"><ele>39.0</ele><time>2026-04-09T13:11:56Z</time></trkpt><trkpt lat="43.88951303023981" lon="11.01498624201142"><ele>38.5</ele><time>2026-04-09T13:11:57Z</time></trkpt><trkpt lat="43.889602102214106" lon="11.014578247105826"><ele>38.0</ele><time>2026-04-09T13:11:58Z</time></trkpt><trkpt lat="43.889689312803625" lon="11.014173237244918"><ele>39.5</ele><time>2026-04-09T13:11:59Z</time></trkpt><trkpt lat="43.88977555237397" lon="11.013769334320957"><ele>41.0</ele><time>2026-04-09T13:12:00Z</time></trkpt><trkpt lat="43.88986214458653" lon="11.013367606962666"><ele>41.0</ele><time>2026-04-09T13:12:01Z</time></trkpt><trkpt lat="43.88995078562537" lon="11.012964299481007"><ele>41.0</ele><time>2026-04-09T13:12:02Z</time></trkpt><trkpt lat="43.89003619845568" lon="11.012571176482327"><ele>40.5</ele><time>2026-04-09T13:12:03Z</time></trkpt><trkpt lat="43.890118972040526" lon="11.01218804845789"><ele>40.0</ele><time>2026-04-09T13:12:04Z</time></trkpt><trkpt lat="43.89019897526356" lon="11.011801064643555"><ele>39.5</ele><time>2026-04-09T13:12:05Z</time></trkpt><trkpt lat="43.89028069736922" lon="11.011414774718434"><ele>39.0</ele><time>2026-04-09T13:12:06Z</time></trkpt><trkpt lat="43.89036423214722" lon="11.011026322272404"><ele>39.5</ele><time>2026-04-09T13:12:07Z</time></trkpt><trkpt lat="43.89044894508889" lon="11.01063790721748"><ele>40.0</ele><time>2026-04-09T13:12:08Z</time></trkpt><trkpt lat="43.890534147913954" lon="11.010254377082479"><ele>39.5</ele><time>2026-04-09T13:12:09Z</time></trkpt><trkpt lat="43.89062237191264" lon="11.009872875266296"><ele>39.0</ele><time>2026-04-09T13:12:10Z</time></trkpt><trkpt lat="43.89071221375269" lon="11.009491805611926"><ele>40.5</ele><time>2026-04-09T13:12:11Z</time></trkpt><trkpt lat="43.89080367649003" lon="11.009112978757743"><ele>42.0</ele><time>2026-04-09T13:12:12Z</time></trkpt><trkpt lat="43.89089847222381" lon="11.008734553018828"><ele>42.5</ele><time>2026-04-09T13:12:13Z</time></trkpt><trkpt lat="43.89099973263823" lon="11.008358866207498"><ele>43.0</ele><time>2026-04-09T13:12:14Z</time></trkpt><trkpt lat="43.89111043125555" lon="11.00798446942216"><ele>43.5</ele><time>2026-04-09T13:12:15Z</time></trkpt><trkpt lat="43.891224822941005" lon="11.007613511915732"><ele>44.0</ele><time>2026-04-09T13:12:16Z</time></trkpt><trkpt lat="43.89133840303838" lon="11.007245706725035"><ele>41.5</ele><time>2026-04-09T13:12:17Z</time></trkpt><trkpt lat="43.891450264061014" lon="11.006871428620586"><ele>39.0</ele><time>2026-04-09T13:12:18Z</time></trkpt><trkpt lat="43.89156120365553" lon="11.006501012725039"><ele>39.0</ele><time>2026-04-09T13:12:19Z</time></trkpt><trkpt lat="43.891673999224984" lon="11.006128990575737"><ele>39.0</ele><time>2026-04-09T13:12:20Z</time></trkpt><trkpt lat="43.891787853156224" lon="11.005757545370356"><ele>39.0</ele><time>2026-04-09T13:12:21Z</time></trkpt><trkpt lat="43.8918999535428" lon="11.005382154934928"><ele>39.0</ele><time>2026-04-09T13:12:22Z</time></trkpt><trkpt lat="43.89201450593049" lon="11.005009875498997"><ele>39.5</ele><time>2026-04-09T13:12:23Z</time></trkpt><trkpt lat="43.89213180174586" lon="11.004634032266159"><ele>40.0</ele><time>2026-04-09T13:12:24Z</time></trkpt><trkpt lat="43.892247232530636" lon="11.004260030263763"><ele>39.5</ele><time>2026-04-09T13:12:25Z</time></trkpt><trkpt lat="43.89236191696203" lon="11.003877335107376"><ele>39.0</ele><time>2026-04-09T13:12:26Z</time></trkpt><trkpt lat="43.89247817247001" lon="11.003490158891623"><ele>38.0</ele><time>2026-04-09T13:12:27Z</time></trkpt><trkpt lat="43.89259560470545" lon="11.003100655090913"><ele>37.0</ele><time>2026-04-09T13:12:28Z</time></trkpt><trkpt lat="43.89271484009469" lon="11.002705980612847"><ele>37.5</ele><time>2026-04-09T13:12:29Z</time></trkpt><trkpt lat="43.89283531806186" lon="11.002309508702782"><ele>38.0</ele><time>2026-04-09T13:12:30Z</time></trkpt><trkpt lat="43.892953903083686" lon="11.001912003746627"><ele>39.0</ele><time>2026-04-09T13:12:31Z</time></trkpt><trkpt lat="43.89307415382745" lon="11.001512859193406"><ele>40.0</ele><time>2026-04-09T13:12:32Z</time></trkpt><trkpt lat="43.8931970608174" lon="11.001118627501773"><ele>39.5</ele><time>2026-04-09T13:12:33Z</time></trkpt><trkpt lat="43.89331885683092" lon="11.000722344149791"><ele>39.0</ele><time>2026-04-09T13:12:34Z</time></trkpt><trkpt lat="43.893442941340126" lon="11.000324046988261"><ele>39.0</ele><time>2026-04-09T13:12:35Z</time></trkpt><trkpt lat="43.89356502368619" lon="10.999926387795346"><ele>39.0</ele><time>2026-04-09T13:12:36Z</time></trkpt><trkpt lat="43.89368630142943" lon="10.999523602102043"><ele>39.5</ele><time>2026-04-09T13:12:37Z</time></trkpt><trkpt lat="43.89380570685039" lon="10.999120029994458"><ele>40.0</ele><time>2026-04-09T13:12:38Z</time></trkpt><trkpt lat="43.89391725287806" lon="10.99873978093479"><ele>40.0</ele><time>2026-04-09T13:12:39Z</time></trkpt><trkpt lat="43.89403096425558" lon="10.998367182588257"><ele>40.0</ele><time>2026-04-09T13:12:40Z</time></trkpt><trkpt lat="43.89414467653429" lon="10.997992827677292"><ele>40.0</ele><time>2026-04-09T13:12:41Z</time></trkpt><trkpt lat="43.89426005917501" lon="10.997618416003712"><ele>40.0</ele><time>2026-04-09T13:12:42Z</time></trkpt><trkpt lat="43.89437168268529" lon="10.997244626082106"><ele>40.0</ele><time>2026-04-09T13:12:43Z</time></trkpt><trkpt lat="43.894485012503914" lon="10.996872453288933"><ele>40.0</ele><time>2026-04-09T13:12:44Z</time></trkpt><trkpt lat="43.894600782851136" lon="10.996498370402138"><ele>40.0</ele><time>2026-04-09T13:12:45Z</time></trkpt><trkpt lat="43.89471605050515" lon="10.996120426551721"><ele>40.0</ele><time>2026-04-09T13:12:46Z</time></trkpt><trkpt lat="43.894827903936104" lon="10.995753646650337"><ele>40.5</ele><time>2026-04-09T13:12:47Z</time></trkpt><trkpt lat="43.894935676752624" lon="10.995400075003154"><ele>41.0</ele><time>2026-04-09T13:12:48Z</time></trkpt><trkpt lat="43.89504216906999" lon="10.995047599629867"><ele>41.0</ele><time>2026-04-09T13:12:49Z</time></trkpt><trkpt lat="43.895150454644416" lon="10.994693712873678"><ele>41.0</ele><time>2026-04-09T13:12:50Z</time></trkpt><trkpt lat="43.89525988103066" lon="10.994344624146173"><ele>41.5</ele><time>2026-04-09T13:12:51Z</time></trkpt><trkpt lat="43.89536892082272" lon="10.993990932635793"><ele>42.0</ele><time>2026-04-09T13:12:52Z</time></trkpt><trkpt lat="43.89547982294991" lon="10.993630114492438"><ele>42.0</ele><time>2026-04-09T13:12:53Z</time></trkpt><trkpt lat="43.89559174731539" lon="10.993255476163284"><ele>42.0</ele><time>2026-04-09T13:12:54Z</time></trkpt><trkpt lat="43.89569824068388" lon="10.992890071448903"><ele>42.0</ele><time>2026-04-09T13:12:55Z</time></trkpt><trkpt lat="43.895806029641264" lon="10.992524877115997"><ele>42.0</ele><time>2026-04-09T13:12:56Z</time></trkpt><trkpt lat="43.89591797146446" lon="10.992152997495396"><ele>41.5</ele><time>2026-04-09T13:12:57Z</time></trkpt><trkpt lat="43.896033224120885" lon="10.99177673768104"><ele>41.0</ele><time>2026-04-09T13:12:58Z</time></trkpt><trkpt lat="43.89614846114916" lon="10.991401231019076"><ele>41.0</ele><time>2026-04-09T13:12:59Z</time></trkpt><trkpt lat="43.896264565832304" lon="10.991025208734952"><ele>41.0</ele><time>2026-04-09T13:13:00Z</time></trkpt><trkpt lat="43.896382064470636" lon="10.99065036669355"><ele>41.0</ele><time>2026-04-09T13:13:01Z</time></trkpt><trkpt lat="43.89649314330258" lon="10.990303282939626"><ele>41.0</ele><time>2026-04-09T13:13:02Z</time></trkpt><trkpt lat="43.896599708478796" lon="10.98996460366388"><ele>41.0</ele><time>2026-04-09T13:13:03Z</time></trkpt><trkpt lat="43.896701164699316" lon="10.989636307241037"><ele>41.0</ele><time>2026-04-09T13:13:03.999Z</time></trkpt><trkpt lat="43.89679555608719" lon="10.989322262669589"><ele>41.0</ele><time>2026-04-09T13:13:04.999Z</time></trkpt><trkpt lat="43.896884721082046" lon="10.989025893635183"><ele>41.0</ele><time>2026-04-09T13:13:05.999Z</time></trkpt><trkpt lat="43.89697115918296" lon="10.988747713465397"><ele>41.0</ele><time>2026-04-09T13:13:06.999Z</time></trkpt><trkpt lat="43.89706236565862" lon="10.988462517473263"><ele>41.0</ele><time>2026-04-09T13:13:07.999Z</time></trkpt><trkpt lat="43.897150342333916" lon="10.988179285422905"><ele>41.0</ele><time>2026-04-09T13:13:08.999Z</time></trkpt><trkpt lat="43.897238202642185" lon="10.987899423778106"><ele>40.5</ele><time>2026-04-09T13:13:09.999Z</time></trkpt><trkpt lat="43.897325119514704" lon="10.98760564725496"><ele>40.0</ele><time>2026-04-09T13:13:10.999Z</time></trkpt><trkpt lat="43.89741357155346" lon="10.987295123564392"><ele>40.0</ele><time>2026-04-09T13:13:11.999Z</time></trkpt><trkpt lat="43.89750509919273" lon="10.986969768376571"><ele>40.0</ele><time>2026-04-09T13:13:12.999Z</time></trkpt><trkpt lat="43.89760221858791" lon="10.986636336631069"><ele>40.5</ele><time>2026-04-09T13:13:13.999Z</time></trkpt><trkpt lat="43.897705444180104" lon="10.986293859979357"><ele>41.0</ele><time>2026-04-09T13:13:14.999Z</time></trkpt><trkpt lat="43.8978116055102" lon="10.985943601224669"><ele>40.5</ele><time>2026-04-09T13:13:15.999Z</time></trkpt><trkpt lat="43.89790795467958" lon="10.985604268701884"><ele>40.0</ele><time>2026-04-09T13:13:16.999Z</time></trkpt><trkpt lat="43.89801290614667" lon="10.985262698438298"><ele>41.0</ele><time>2026-04-09T13:13:17.999Z</time></trkpt><trkpt lat="43.8981193255667" lon="10.984917203968633"><ele>42.0</ele><time>2026-04-09T13:13:18.999Z</time></trkpt><trkpt lat="43.89822205545405" lon="10.984574184384645"><ele>42.0</ele><time>2026-04-09T13:13:19.999Z</time></trkpt><trkpt lat="43.89832175395395" lon="10.984241014005457"><ele>42.0</ele><time>2026-04-09T13:13:20.999Z</time></trkpt><trkpt lat="43.898422460658026" lon="10.98390027666444"><ele>41.5</ele><time>2026-04-09T13:13:21.999Z</time></trkpt><trkpt lat="43.89852610482666" lon="10.98356144825683"><ele>41.0</ele><time>2026-04-09T13:13:22.999Z</time></trkpt><trkpt lat="43.89863218696495" lon="10.983219137750211"><ele>42.0</ele><time>2026-04-09T13:13:23.999Z</time></trkpt><trkpt lat="43.898738793676266" lon="10.982870793856991"><ele>43.0</ele><time>2026-04-09T13:13:24.999Z</time></trkpt><trkpt lat="43.89884434198031" lon="10.982524707773749"><ele>42.0</ele><time>2026-04-09T13:13:25.999Z</time></trkpt><trkpt lat="43.89894995444337" lon="10.982174717145"><ele>41.0</ele><time>2026-04-09T13:13:26.999Z</time></trkpt><trkpt lat="43.899057452337196" lon="10.981823858045596"><ele>41.0</ele><time>2026-04-09T13:13:27.999Z</time></trkpt><trkpt lat="43.899166009355085" lon="10.98146749018186"><ele>41.0</ele><time>2026-04-09T13:13:28.999Z</time></trkpt><trkpt lat="43.899274508727586" lon="10.98111470982378"><ele>41.0</ele><time>2026-04-09T13:13:29.999Z</time></trkpt><trkpt lat="43.89938202902709" lon="10.980760504507897"><ele>41.0</ele><time>2026-04-09T13:13:30.999Z</time></trkpt><trkpt lat="43.89948788648858" lon="10.980399567978568"><ele>41.0</ele><time>2026-04-09T13:13:31.999Z</time></trkpt><trkpt lat="43.89959529087014" lon="10.980039591655284"><ele>41.0</ele><time>2026-04-09T13:13:32.999Z</time></trkpt><trkpt lat="43.899702959306445" lon="10.97968170469942"><ele>41.0</ele><time>2026-04-09T13:13:33.999Z</time></trkpt><trkpt lat="43.899811061783694" lon="10.979323565011004"><ele>41.0</ele><time>2026-04-09T13:13:34.999Z</time></trkpt><trkpt lat="43.89992086981303" lon="10.97896551023455"><ele>41.0</ele><time>2026-04-09T13:13:35.999Z</time></trkpt><trkpt lat="43.90002959039936" lon="10.978609556501297"><ele>41.0</ele><time>2026-04-09T13:13:36.999Z</time></trkpt><trkpt lat="43.90013700478386" lon="10.978262704986154"><ele>41.0</ele><time>2026-04-09T13:13:37.999Z</time></trkpt><trkpt lat="43.90023972064914" lon="10.977930425699684"><ele>41.0</ele><time>2026-04-09T13:13:38.999Z</time></trkpt><trkpt lat="43.90034213459068" lon="10.977592450745929"><ele>41.0</ele><time>2026-04-09T13:13:40Z</time></trkpt><trkpt lat="43.90044531133724" lon="10.97725385856029"><ele>41.0</ele><time>2026-04-09T13:13:41Z</time></trkpt><trkpt lat="43.90054970009924" lon="10.976909122276098"><ele>41.0</ele><time>2026-04-09T13:13:42Z</time></trkpt><trkpt lat="43.900650697941515" lon="10.976578058566853"><ele>41.0</ele><time>2026-04-09T13:13:43Z</time></trkpt><trkpt lat="43.90074685766775" lon="10.976265065573925"><ele>41.0</ele><time>2026-04-09T13:13:44Z</time></trkpt><trkpt lat="43.90084412700085" lon="10.975949597409066"><ele>41.0</ele><time>2026-04-09T13:13:45Z</time></trkpt><trkpt lat="43.90093903298724" lon="10.975632523880224"><ele>41.0</ele><time>2026-04-09T13:13:46Z</time></trkpt><trkpt lat="43.90103706549949" lon="10.975317121676797"><ele>41.0</ele><time>2026-04-09T13:13:47Z</time></trkpt><trkpt lat="43.90113609455965" lon="10.97500283189788"><ele>41.0</ele><time>2026-04-09T13:13:48Z</time></trkpt><trkpt lat="43.90123264579174" lon="10.974684278433733"><ele>41.0</ele><time>2026-04-09T13:13:49Z</time></trkpt><trkpt lat="43.90132846365971" lon="10.974367018002466"><ele>41.0</ele><time>2026-04-09T13:13:50Z</time></trkpt><trkpt lat="43.9014240569815" lon="10.974047783208945"><ele>41.0</ele><time>2026-04-09T13:13:51Z</time></trkpt><trkpt lat="43.901521417109905" lon="10.97372492673247"><ele>41.0</ele><time>2026-04-09T13:13:52Z</time></trkpt><trkpt lat="43.90161828871112" lon="10.97340338199899"><ele>41.0</ele><time>2026-04-09T13:13:53Z</time></trkpt><trkpt lat="43.90171649689589" lon="10.973080187156016"><ele>41.0</ele><time>2026-04-09T13:13:54Z</time></trkpt><trkpt lat="43.90181586930511" lon="10.9727554241512"><ele>41.0</ele><time>2026-04-09T13:13:55Z</time></trkpt><trkpt lat="43.901912502706786" lon="10.972430069534866"><ele>41.0</ele><time>2026-04-09T13:13:56Z</time></trkpt><trkpt lat="43.90200890793899" lon="10.972103881952409"><ele>41.0</ele><time>2026-04-09T13:13:57Z</time></trkpt><trkpt lat="43.902108359608214" lon="10.971779762035082"><ele>41.5</ele><time>2026-04-09T13:13:58Z</time></trkpt><trkpt lat="43.90221007356991" lon="10.971454702327888"><ele>42.0</ele><time>2026-04-09T13:13:59Z</time></trkpt><trkpt lat="43.90231121395973" lon="10.971126087087894"><ele>42.5</ele><time>2026-04-09T13:14:00Z</time></trkpt><trkpt lat="43.90241101653633" lon="10.970792520423036"><ele>43.0</ele><time>2026-04-09T13:14:01Z</time></trkpt><trkpt lat="43.90250978990973" lon="10.970460294617714"><ele>43.0</ele><time>2026-04-09T13:14:02Z</time></trkpt><trkpt lat="43.90261007584216" lon="10.970123618660857"><ele>43.0</ele><time>2026-04-09T13:14:03Z</time></trkpt><trkpt lat="43.90271166459042" lon="10.969787768277577"><ele>43.0</ele><time>2026-04-09T13:14:04Z</time></trkpt><trkpt lat="43.902815306412435" lon="10.969451619302005"><ele>43.0</ele><time>2026-04-09T13:14:05Z</time></trkpt><trkpt lat="43.90291543654373" lon="10.969116379826724"><ele>42.5</ele><time>2026-04-09T13:14:06Z</time></trkpt><trkpt lat="43.90301360933457" lon="10.968795047782043"><ele>42.0</ele><time>2026-04-09T13:14:07Z</time></trkpt><trkpt lat="43.90311274803361" lon="10.968469131224218"><ele>42.0</ele><time>2026-04-09T13:14:08Z</time></trkpt><trkpt lat="43.90320948723899" lon="10.968136494758374"><ele>42.0</ele><time>2026-04-09T13:14:09Z</time></trkpt><trkpt lat="43.90330745803945" lon="10.967811010241425"><ele>42.0</ele><time>2026-04-09T13:14:10Z</time></trkpt><trkpt lat="43.90340942609366" lon="10.9674845376178"><ele>42.0</ele><time>2026-04-09T13:14:11Z</time></trkpt><trkpt lat="43.90350783907091" lon="10.96715162112628"><ele>42.0</ele><time>2026-04-09T13:14:12Z</time></trkpt><trkpt lat="43.90361082718519" lon="10.966817478698148"><ele>42.0</ele><time>2026-04-09T13:14:13Z</time></trkpt><trkpt lat="43.903714859711506" lon="10.966486053173865"><ele>42.0</ele><time>2026-04-09T13:14:14Z</time></trkpt><trkpt lat="43.90381837549085" lon="10.966148550067883"><ele>42.0</ele><time>2026-04-09T13:14:15Z</time></trkpt><trkpt lat="43.903921442014486" lon="10.96580967918921"><ele>42.5</ele><time>2026-04-09T13:14:16Z</time></trkpt><trkpt lat="43.90402572161974" lon="10.965468600444352"><ele>43.0</ele><time>2026-04-09T13:14:17Z</time></trkpt><trkpt lat="43.90412554549835" lon="10.965130487600153"><ele>43.0</ele><time>2026-04-09T13:14:18Z</time></trkpt><trkpt lat="43.90422740834527" lon="10.964804099650927"><ele>43.0</ele><time>2026-04-09T13:14:19Z</time></trkpt><trkpt lat="43.9043274935134" lon="10.964465283531736"><ele>42.5</ele><time>2026-04-09T13:14:20Z</time></trkpt><trkpt lat="43.904436380592784" lon="10.964119047173403"><ele>42.0</ele><time>2026-04-09T13:14:21Z</time></trkpt><trkpt lat="43.9045444612266" lon="10.963753485404578"><ele>42.0</ele><time>2026-04-09T13:14:22Z</time></trkpt><trkpt lat="43.904648216358666" lon="10.963390787224862"><ele>42.0</ele><time>2026-04-09T13:14:23Z</time></trkpt><trkpt lat="43.90475259247665" lon="10.963045802707732"><ele>42.5</ele><time>2026-04-09T13:14:24Z</time></trkpt><trkpt lat="43.90486105504483" lon="10.962697007765813"><ele>43.0</ele><time>2026-04-09T13:14:25Z</time></trkpt><trkpt lat="43.90496927639137" lon="10.962341590191564"><ele>43.0</ele><time>2026-04-09T13:14:26Z</time></trkpt><trkpt lat="43.90508200857062" lon="10.961985121996566"><ele>43.0</ele><time>2026-04-09T13:14:27Z</time></trkpt><trkpt lat="43.905192376323456" lon="10.961628768329879"><ele>42.5</ele><time>2026-04-09T13:14:28Z</time></trkpt><trkpt lat="43.905301183832655" lon="10.961263820400061"><ele>42.0</ele><time>2026-04-09T13:14:29Z</time></trkpt><trkpt lat="43.90541521750083" lon="10.96090090188092"><ele>43.5</ele><time>2026-04-09T13:14:30Z</time></trkpt><trkpt lat="43.90552765975952" lon="10.960535056798015"><ele>45.0</ele><time>2026-04-09T13:14:31Z</time></trkpt><trkpt lat="43.90563247538391" lon="10.960173735328002"><ele>45.0</ele><time>2026-04-09T13:14:32Z</time></trkpt><trkpt lat="43.9057341153888" lon="10.959835551932851"><ele>45.0</ele><time>2026-04-09T13:14:33Z</time></trkpt><trkpt lat="43.90584026969332" lon="10.95949470169728"><ele>45.0</ele><time>2026-04-09T13:14:34Z</time></trkpt><trkpt lat="43.905945661575785" lon="10.95914704090786"><ele>45.0</ele><time>2026-04-09T13:14:35Z</time></trkpt><trkpt lat="43.906053648892744" lon="10.958798570080756"><ele>45.0</ele><time>2026-04-09T13:14:36Z</time></trkpt><trkpt lat="43.90615856761179" lon="10.958444952730948"><ele>45.0</ele><time>2026-04-09T13:14:37Z</time></trkpt><trkpt lat="43.90626465873071" lon="10.958087016861725"><ele>45.0</ele><time>2026-04-09T13:14:38Z</time></trkpt><trkpt lat="43.90637123688932" lon="10.957724955861996"><ele>45.0</ele><time>2026-04-09T13:14:39Z</time></trkpt><trkpt lat="43.90648083944304" lon="10.95736465658536"><ele>45.0</ele><time>2026-04-09T13:14:40Z</time></trkpt><trkpt lat="43.90658829439124" lon="10.95700803174137"><ele>45.0</ele><time>2026-04-09T13:14:41Z</time></trkpt><trkpt lat="43.90669256060043" lon="10.956665339849252"><ele>45.0</ele><time>2026-04-09T13:14:42Z</time></trkpt><trkpt lat="43.90679338811088" lon="10.956326212602706"><ele>45.0</ele><time>2026-04-09T13:14:43Z</time></trkpt><trkpt lat="43.90689625686443" lon="10.955986186067621"><ele>45.5</ele><time>2026-04-09T13:14:44Z</time></trkpt><trkpt lat="43.906998291062884" lon="10.95564800233173"><ele>46.0</ele><time>2026-04-09T13:14:45Z</time></trkpt><trkpt lat="43.90709923401852" lon="10.955308396690985"><ele>45.5</ele><time>2026-04-09T13:14:46Z</time></trkpt><trkpt lat="43.907202750207276" lon="10.954968858802385"><ele>45.0</ele><time>2026-04-09T13:14:47Z</time></trkpt><trkpt lat="43.90730550558374" lon="10.954627968613224"><ele>45.0</ele><time>2026-04-09T13:14:48Z</time></trkpt><trkpt lat="43.90740521629671" lon="10.95428537767116"><ele>45.0</ele><time>2026-04-09T13:14:49Z</time></trkpt><trkpt lat="43.90750841995156" lon="10.953943060298128"><ele>45.5</ele><time>2026-04-09T13:14:50Z</time></trkpt><trkpt lat="43.9076112574363" lon="10.953601142921878"><ele>46.0</ele><time>2026-04-09T13:14:51Z</time></trkpt><trkpt lat="43.907715467035594" lon="10.953257764206965"><ele>46.0</ele><time>2026-04-09T13:14:52Z</time></trkpt><trkpt lat="43.90782060738391" lon="10.952911820954046"><ele>46.0</ele><time>2026-04-09T13:14:53Z</time></trkpt><trkpt lat="43.90792588519063" lon="10.952564660840368"><ele>46.0</ele><time>2026-04-09T13:14:54Z</time></trkpt><trkpt lat="43.90803088419189" lon="10.952220486854426"><ele>46.0</ele><time>2026-04-09T13:14:55Z</time></trkpt><trkpt lat="43.9081365458523" lon="10.951869108142871"><ele>45.5</ele><time>2026-04-09T13:14:56Z</time></trkpt><trkpt lat="43.90824458062795" lon="10.951516153891056"><ele>45.0</ele><time>2026-04-09T13:14:57Z</time></trkpt><trkpt lat="43.908353998498285" lon="10.951157867860259"><ele>44.0</ele><time>2026-04-09T13:14:58Z</time></trkpt><trkpt lat="43.908466129021484" lon="10.950782472389712"><ele>43.0</ele><time>2026-04-09T13:14:59Z</time></trkpt><trkpt lat="43.9085811554251" lon="10.950394416390816"><ele>44.0</ele><time>2026-04-09T13:15:00Z</time></trkpt><trkpt lat="43.908702722896834" lon="10.949999834422016"><ele>45.0</ele><time>2026-04-09T13:15:01Z</time></trkpt><trkpt lat="43.90882404191785" lon="10.949595302246193"><ele>45.5</ele><time>2026-04-09T13:15:02Z</time></trkpt><trkpt lat="43.908948924023306" lon="10.949186082874691"><ele>46.0</ele><time>2026-04-09T13:15:03Z</time></trkpt><trkpt lat="43.9090753239838" lon="10.94877448541007"><ele>46.0</ele><time>2026-04-09T13:15:04Z</time></trkpt><trkpt lat="43.909189900601255" lon="10.948376207762635"><ele>46.0</ele><time>2026-04-09T13:15:05Z</time></trkpt><trkpt lat="43.9093065882559" lon="10.947987460421903"><ele>46.0</ele><time>2026-04-09T13:15:06Z</time></trkpt><trkpt lat="43.90942246697334" lon="10.947597344195954"><ele>46.0</ele><time>2026-04-09T13:15:07Z</time></trkpt><trkpt lat="43.90954120742414" lon="10.947209070722572"><ele>46.0</ele><time>2026-04-09T13:15:08Z</time></trkpt><trkpt lat="43.90966048229961" lon="10.946820345758697"><ele>46.0</ele><time>2026-04-09T13:15:09Z</time></trkpt><trkpt lat="43.90978036672021" lon="10.94643007214027"><ele>46.0</ele><time>2026-04-09T13:15:10Z</time></trkpt><trkpt lat="43.909899321184874" lon="10.946036163512433"><ele>46.0</ele><time>2026-04-09T13:15:11Z</time></trkpt><trkpt lat="43.910019329838455" lon="10.945638698871411"><ele>46.5</ele><time>2026-04-09T13:15:12Z</time></trkpt><trkpt lat="43.910140308833746" lon="10.945239337464676"><ele>47.0</ele><time>2026-04-09T13:15:13Z</time></trkpt><trkpt lat="43.910253797234624" lon="10.944861873789474"><ele>47.5</ele><time>2026-04-09T13:15:13.999Z</time></trkpt><trkpt lat="43.91036628871035" lon="10.944485759400557"><ele>48.0</ele><time>2026-04-09T13:15:14.999Z</time></trkpt><trkpt lat="43.91047696471668" lon="10.94412238069124"><ele>48.0</ele><time>2026-04-09T13:15:15.999Z</time></trkpt><trkpt lat="43.910573129009606" lon="10.943746920841772"><ele>48.0</ele><time>2026-04-09T13:15:16.999Z</time></trkpt><trkpt lat="43.91066304854976" lon="10.943364130484513"><ele>48.0</ele><time>2026-04-09T13:15:17.999Z</time></trkpt><trkpt lat="43.91074504595004" lon="10.942976580763087"><ele>48.0</ele><time>2026-04-09T13:15:18.999Z</time></trkpt><trkpt lat="43.91082378768782" lon="10.94258098228264"><ele>48.0</ele><time>2026-04-09T13:15:19.999Z</time></trkpt><trkpt lat="43.91089595060491" lon="10.942179159975632"><ele>48.0</ele><time>2026-04-09T13:15:20.999Z</time></trkpt><trkpt lat="43.9109615402873" lon="10.941769676093914"><ele>48.0</ele><time>2026-04-09T13:15:21.999Z</time></trkpt><trkpt lat="43.91101829111807" lon="10.941354077440755"><ele>48.0</ele><time>2026-04-09T13:15:22.999Z</time></trkpt><trkpt lat="43.911072782252866" lon="10.940939132475654"><ele>49.0</ele><time>2026-04-09T13:15:23.999Z</time></trkpt><trkpt lat="43.91112733339058" lon="10.940524177177883"><ele>50.0</ele><time>2026-04-09T13:15:24.999Z</time></trkpt><trkpt lat="43.9111826670703" lon="10.940107995124187"><ele>50.0</ele><time>2026-04-09T13:15:25.999Z</time></trkpt><trkpt lat="43.911234304662955" lon="10.939694756868901"><ele>50.0</ele><time>2026-04-09T13:15:26.999Z</time></trkpt><trkpt lat="43.91128448437814" lon="10.93930284552249"><ele>50.5</ele><time>2026-04-09T13:15:27.999Z</time></trkpt><trkpt lat="43.911333966601454" lon="10.938910638205652"><ele>51.0</ele><time>2026-04-09T13:15:28.999Z</time></trkpt><trkpt lat="43.91138277280367" lon="10.938519960205982"><ele>50.5</ele><time>2026-04-09T13:15:29.999Z</time></trkpt><trkpt lat="43.9114322260229" lon="10.938131618422497"><ele>50.0</ele><time>2026-04-09T13:15:30.999Z</time></trkpt><trkpt lat="43.911481810550725" lon="10.937742997292286"><ele>50.0</ele><time>2026-04-09T13:15:31.999Z</time></trkpt><trkpt lat="43.91153002731146" lon="10.937354956470461"><ele>50.0</ele><time>2026-04-09T13:15:32.999Z</time></trkpt><trkpt lat="43.91157721888408" lon="10.936965036138313"><ele>49.0</ele><time>2026-04-09T13:15:33.999Z</time></trkpt><trkpt lat="43.91162469498169" lon="10.936573453908984"><ele>48.0</ele><time>2026-04-09T13:15:34.999Z</time></trkpt><trkpt lat="43.91167443777385" lon="10.936177210102693"><ele>48.0</ele><time>2026-04-09T13:15:35.999Z</time></trkpt><trkpt lat="43.911725997534354" lon="10.935779411043171"><ele>48.0</ele><time>2026-04-09T13:15:36.999Z</time></trkpt><trkpt lat="43.91177891843947" lon="10.935378993696737"><ele>49.0</ele><time>2026-04-09T13:15:37.999Z</time></trkpt><trkpt lat="43.911831049304276" lon="10.934975459672819"><ele>50.0</ele><time>2026-04-09T13:15:38.999Z</time></trkpt><trkpt lat="43.91188218112456" lon="10.934585065451836"><ele>50.0</ele><time>2026-04-09T13:15:39.999Z</time></trkpt><trkpt lat="43.91193122219762" lon="10.93422182564935"><ele>50.0</ele><time>2026-04-09T13:15:40.999Z</time></trkpt><trkpt lat="43.91197798839603" lon="10.933857713703697"><ele>49.5</ele><time>2026-04-09T13:15:41.999Z</time></trkpt><trkpt lat="43.91202230389493" lon="10.933514529034687"><ele>49.0</ele><time>2026-04-09T13:15:42.999Z</time></trkpt><trkpt lat="43.91206309891005" lon="10.933190658921545"><ele>49.0</ele><time>2026-04-09T13:15:43.999Z</time></trkpt><trkpt lat="43.91210228259023" lon="10.932873555498482"><ele>49.0</ele><time>2026-04-09T13:15:44.999Z</time></trkpt><trkpt lat="43.91214555462358" lon="10.932545853750948"><ele>49.5</ele><time>2026-04-09T13:15:46Z</time></trkpt><trkpt lat="43.91218839977933" lon="10.932212645870294"><ele>50.0</ele><time>2026-04-09T13:15:47Z</time></trkpt><trkpt lat="43.91223259414961" lon="10.931874228598513"><ele>49.5</ele><time>2026-04-09T13:15:48Z</time></trkpt><trkpt lat="43.912277650614335" lon="10.931520904718717"><ele>49.0</ele><time>2026-04-09T13:15:49Z</time></trkpt><trkpt lat="43.91232562714871" lon="10.931148611366181"><ele>49.5</ele><time>2026-04-09T13:15:50Z</time></trkpt><trkpt lat="43.91237542123634" lon="10.930763080727829"><ele>50.0</ele><time>2026-04-09T13:15:51Z</time></trkpt><trkpt lat="43.91242016200273" lon="10.930373347404718"><ele>50.0</ele><time>2026-04-09T13:15:52Z</time></trkpt><trkpt lat="43.912465324165005" lon="10.930009505736685"><ele>50.0</ele><time>2026-04-09T13:15:53Z</time></trkpt><trkpt lat="43.91251079302668" lon="10.929646525615697"><ele>50.0</ele><time>2026-04-09T13:15:54Z</time></trkpt><trkpt lat="43.91255558789909" lon="10.929283911670622"><ele>50.0</ele><time>2026-04-09T13:15:55Z</time></trkpt><trkpt lat="43.91260197464579" lon="10.92891893251892"><ele>49.5</ele><time>2026-04-09T13:15:56Z</time></trkpt><trkpt lat="43.91264906844198" lon="10.928557146355868"><ele>49.0</ele><time>2026-04-09T13:15:57Z</time></trkpt><trkpt lat="43.91269633621978" lon="10.928196144929123"><ele>49.5</ele><time>2026-04-09T13:15:58Z</time></trkpt><trkpt lat="43.91274265049995" lon="10.927836756678664"><ele>50.0</ele><time>2026-04-09T13:15:59Z</time></trkpt><trkpt lat="43.91278753497532" lon="10.92748057659231"><ele>50.0</ele><time>2026-04-09T13:16:00Z</time></trkpt><trkpt lat="43.91283089836199" lon="10.92714488064063"><ele>50.0</ele><time>2026-04-09T13:16:01Z</time></trkpt><trkpt lat="43.91287310176199" lon="10.92682662807493"><ele>51.0</ele><time>2026-04-09T13:16:02Z</time></trkpt><trkpt lat="43.91291420155026" lon="10.926509257132537"><ele>52.0</ele><time>2026-04-09T13:16:03Z</time></trkpt><trkpt lat="43.91295542982605" lon="10.926192043414181"><ele>52.0</ele><time>2026-04-09T13:16:04Z</time></trkpt><trkpt lat="43.913169908881876" lon="10.925911371354866"><ele>52.0</ele><time>2026-04-09T13:16:05Z</time></trkpt><trkpt lat="43.91320501412802" lon="10.92559239782787"><ele>51.5</ele><time>2026-04-09T13:16:06Z</time></trkpt><trkpt lat="43.91324328680841" lon="10.92527647692574"><ele>51.0</ele><time>2026-04-09T13:16:07Z</time></trkpt><trkpt lat="43.9132842484005" lon="10.924954091663777"><ele>50.5</ele><time>2026-04-09T13:16:08Z</time></trkpt><trkpt lat="43.91332741176733" lon="10.92462250385097"><ele>50.0</ele><time>2026-04-09T13:16:09Z</time></trkpt><trkpt lat="43.91337206516085" lon="10.924286376402732"><ele>50.0</ele><time>2026-04-09T13:16:10Z</time></trkpt><trkpt lat="43.913417341855315" lon="10.92394508462823"><ele>50.0</ele><time>2026-04-09T13:16:11Z</time></trkpt><trkpt lat="43.913462611420606" lon="10.923600466110358"><ele>50.5</ele><time>2026-04-09T13:16:12Z</time></trkpt><trkpt lat="43.913507961048396" lon="10.923252802275893"><ele>51.0</ele><time>2026-04-09T13:16:13Z</time></trkpt><trkpt lat="43.91355367778897" lon="10.922903432186033"><ele>51.0</ele><time>2026-04-09T13:16:14Z</time></trkpt><trkpt lat="43.91359979365489" lon="10.92255181574518"><ele>51.0</ele><time>2026-04-09T13:16:15Z</time></trkpt><trkpt lat="43.913647581517885" lon="10.9221952440368"><ele>51.0</ele><time>2026-04-09T13:16:16Z</time></trkpt><trkpt lat="43.91369775127559" lon="10.921833281009146"><ele>51.0</ele><time>2026-04-09T13:16:17Z</time></trkpt><trkpt lat="43.913748538874536" lon="10.921464750394273"><ele>52.0</ele><time>2026-04-09T13:16:18Z</time></trkpt><trkpt lat="43.91379792872883" lon="10.921092438962694"><ele>53.0</ele><time>2026-04-09T13:16:19Z</time></trkpt><trkpt lat="43.91384504476574" lon="10.920741184709483"><ele>53.0</ele><time>2026-04-09T13:16:20Z</time></trkpt><trkpt lat="43.913890088623354" lon="10.920416176991196"><ele>53.0</ele><time>2026-04-09T13:16:21Z</time></trkpt><trkpt lat="43.91395170016703" lon="10.920097642759078"><ele>52.5</ele><time>2026-04-09T13:16:22Z</time></trkpt><trkpt lat="43.91404029826662" lon="10.919778674434516"><ele>52.0</ele><time>2026-04-09T13:16:23Z</time></trkpt><trkpt lat="43.9140909410473" lon="10.91933374670946"><ele>52.0</ele><time>2026-04-09T13:16:24Z</time></trkpt><trkpt lat="43.91414631449591" lon="10.919087637403804"><ele>52.0</ele><time>2026-04-09T13:16:25Z</time></trkpt><trkpt lat="43.91422108233298" lon="10.91873310864121"><ele>52.5</ele><time>2026-04-09T13:16:26Z</time></trkpt><trkpt lat="43.91429124560432" lon="10.918389187668414"><ele>53.0</ele><time>2026-04-09T13:16:27Z</time></trkpt><trkpt lat="43.91435965043867" lon="10.918053886068938"><ele>54.0</ele><time>2026-04-09T13:16:28Z</time></trkpt><trkpt lat="43.91392546476639" lon="10.91767694144935"><ele>54.5</ele><time>2026-04-09T13:16:29Z</time></trkpt><trkpt lat="43.91409709877019" lon="10.91726978074158"><ele>55.0</ele><time>2026-04-09T13:16:30Z</time></trkpt><trkpt lat="43.91413953952535" lon="10.916941582781666"><ele>55.0</ele><time>2026-04-09T13:16:31Z</time></trkpt><trkpt lat="43.91418396502036" lon="10.916606642761089"><ele>55.0</ele><time>2026-04-09T13:16:32Z</time></trkpt><trkpt lat="43.914228244500435" lon="10.916266265272451"><ele>54.5</ele><time>2026-04-09T13:16:33Z</time></trkpt><trkpt lat="43.914272630375024" lon="10.915921350415964"><ele>54.0</ele><time>2026-04-09T13:16:34Z</time></trkpt><trkpt lat="43.91431641579355" lon="10.915571040537076"><ele>54.0</ele><time>2026-04-09T13:16:35Z</time></trkpt><trkpt lat="43.91436058373978" lon="10.915218253490027"><ele>54.0</ele><time>2026-04-09T13:16:36Z</time></trkpt><trkpt lat="43.91440528206897" lon="10.914863650935686"><ele>53.5</ele><time>2026-04-09T13:16:37Z</time></trkpt><trkpt lat="43.914449216428665" lon="10.914506818978415"><ele>53.0</ele><time>2026-04-09T13:16:38Z</time></trkpt><trkpt lat="43.9144955876194" lon="10.914149665707896"><ele>53.0</ele><time>2026-04-09T13:16:39Z</time></trkpt><trkpt lat="43.91454278027448" lon="10.913791310513663"><ele>53.0</ele><time>2026-04-09T13:16:40Z</time></trkpt><trkpt lat="43.91459083685872" lon="10.913432432146605"><ele>54.5</ele><time>2026-04-09T13:16:41Z</time></trkpt><trkpt lat="43.91463647572334" lon="10.913071818479898"><ele>56.0</ele><time>2026-04-09T13:16:42Z</time></trkpt><trkpt lat="43.91468033825406" lon="10.912710387981226"><ele>56.0</ele><time>2026-04-09T13:16:43Z</time></trkpt><trkpt lat="43.91472347360954" lon="10.912346922417537"><ele>56.0</ele><time>2026-04-09T13:16:44Z</time></trkpt><trkpt lat="43.91476740982689" lon="10.911981392849961"><ele>57.5</ele><time>2026-04-09T13:16:45Z</time></trkpt><trkpt lat="43.91480992463744" lon="10.911611637153868"><ele>59.0</ele><time>2026-04-09T13:16:46Z</time></trkpt><trkpt lat="43.914848881145836" lon="10.911241421923984"><ele>58.0</ele><time>2026-04-09T13:16:47Z</time></trkpt><trkpt lat="43.914879946860566" lon="10.910866844391027"><ele>57.0</ele><time>2026-04-09T13:16:48Z</time></trkpt><trkpt lat="43.91490268534788" lon="10.910495242702558"><ele>57.0</ele><time>2026-04-09T13:16:49Z</time></trkpt><trkpt lat="43.914922199548904" lon="10.910119816009345"><ele>57.0</ele><time>2026-04-09T13:16:50Z</time></trkpt><trkpt lat="43.914935851055326" lon="10.909743177969066"><ele>56.0</ele><time>2026-04-09T13:16:51Z</time></trkpt><trkpt lat="43.91494714856734" lon="10.909366612163153"><ele>55.0</ele><time>2026-04-09T13:16:52Z</time></trkpt><trkpt lat="43.91495271546112" lon="10.908990842497504"><ele>55.0</ele><time>2026-04-09T13:16:53Z</time></trkpt><trkpt lat="43.914953564021566" lon="10.908615648930018"><ele>55.0</ele><time>2026-04-09T13:16:54Z</time></trkpt><trkpt lat="43.91494452486181" lon="10.908240569205779"><ele>56.0</ele><time>2026-04-09T13:16:55Z</time></trkpt><trkpt lat="43.914932214598" lon="10.907863085662264"><ele>57.0</ele><time>2026-04-09T13:16:56Z</time></trkpt><trkpt lat="43.914912739575136" lon="10.90748686184842"><ele>57.5</ele><time>2026-04-09T13:16:57Z</time></trkpt><trkpt lat="43.91488795888455" lon="10.907110037638578"><ele>58.0</ele><time>2026-04-09T13:16:58Z</time></trkpt><trkpt lat="43.91485742170913" lon="10.906744998492728"><ele>59.0</ele><time>2026-04-09T13:16:59Z</time></trkpt><trkpt lat="43.91482905981239" lon="10.906398444865555"><ele>60.0</ele><time>2026-04-09T13:17:00Z</time></trkpt><trkpt lat="43.91479871523011" lon="10.906046455542047"><ele>59.5</ele><time>2026-04-09T13:17:01Z</time></trkpt><trkpt lat="43.91477139976156" lon="10.90569472978498"><ele>59.0</ele><time>2026-04-09T13:17:02Z</time></trkpt><trkpt lat="43.9147417989227" lon="10.905341984737573"><ele>59.0</ele><time>2026-04-09T13:17:03Z</time></trkpt><trkpt lat="43.91471086312602" lon="10.9049851674729"><ele>59.0</ele><time>2026-04-09T13:17:04Z</time></trkpt><trkpt lat="43.91468262602096" lon="10.904626165056337"><ele>59.0</ele><time>2026-04-09T13:17:05Z</time></trkpt><trkpt lat="43.914655401196285" lon="10.904264712704268"><ele>59.0</ele><time>2026-04-09T13:17:06Z</time></trkpt><trkpt lat="43.91462772640448" lon="10.903925927343602"><ele>59.0</ele><time>2026-04-09T13:17:07Z</time></trkpt><trkpt lat="43.91460188629276" lon="10.903584731683962"><ele>59.0</ele><time>2026-04-09T13:17:08Z</time></trkpt><trkpt lat="43.914573613284304" lon="10.903233456121068"><ele>59.0</ele><time>2026-04-09T13:17:09Z</time></trkpt><trkpt lat="43.91454209631762" lon="10.902878201953936"><ele>59.0</ele><time>2026-04-09T13:17:10Z</time></trkpt><trkpt lat="43.91451249085291" lon="10.90251474416909"><ele>58.5</ele><time>2026-04-09T13:17:11Z</time></trkpt><trkpt lat="43.91448428001618" lon="10.902143486903348"><ele>58.0</ele><time>2026-04-09T13:17:12Z</time></trkpt><trkpt lat="43.91445342853788" lon="10.901772004021906"><ele>59.5</ele><time>2026-04-09T13:17:13Z</time></trkpt><trkpt lat="43.91442487654204" lon="10.901412962959716"><ele>61.0</ele><time>2026-04-09T13:17:14Z</time></trkpt><trkpt lat="43.91439562486502" lon="10.90105348945483"><ele>61.5</ele><time>2026-04-09T13:17:15Z</time></trkpt><trkpt lat="43.914366565050564" lon="10.90068540647452"><ele>62.0</ele><time>2026-04-09T13:17:16Z</time></trkpt><trkpt lat="43.914335958109305" lon="10.900311626912853"><ele>60.5</ele><time>2026-04-09T13:17:17Z</time></trkpt><trkpt lat="43.91430495771176" lon="10.899932775089994"><ele>59.0</ele><time>2026-04-09T13:17:18Z</time></trkpt><trkpt lat="43.91427089892095" lon="10.899550015201779"><ele>59.0</ele><time>2026-04-09T13:17:19Z</time></trkpt><trkpt lat="43.91424149754194" lon="10.899165281642043"><ele>59.0</ele><time>2026-04-09T13:17:19.999Z</time></trkpt><trkpt lat="43.91421198745639" lon="10.898778375409266"><ele>58.5</ele><time>2026-04-09T13:17:20.999Z</time></trkpt><trkpt lat="43.91418098454033" lon="10.898386198298587"><ele>58.0</ele><time>2026-04-09T13:17:21.999Z</time></trkpt><trkpt lat="43.91414960626503" lon="10.897988739851172"><ele>58.0</ele><time>2026-04-09T13:17:22.999Z</time></trkpt><trkpt lat="43.914118774631184" lon="10.897584900495422"><ele>58.0</ele><time>2026-04-09T13:17:23.999Z</time></trkpt><trkpt lat="43.91408551712238" lon="10.897177955596026"><ele>58.0</ele><time>2026-04-09T13:17:24.999Z</time></trkpt><trkpt lat="43.9140530550421" lon="10.896769475926025"><ele>58.0</ele><time>2026-04-09T13:17:25.999Z</time></trkpt><trkpt lat="43.9140195124768" lon="10.896359800649051"><ele>58.0</ele><time>2026-04-09T13:17:26.999Z</time></trkpt><trkpt lat="43.913987721739225" lon="10.895948646601976"><ele>58.0</ele><time>2026-04-09T13:17:27.999Z</time></trkpt><trkpt lat="43.91395254110399" lon="10.895534392910848"><ele>58.0</ele><time>2026-04-09T13:17:28.999Z</time></trkpt><trkpt lat="43.91391628088671" lon="10.895117596040313"><ele>58.0</ele><time>2026-04-09T13:17:29.999Z</time></trkpt><trkpt lat="43.91388017928521" lon="10.894699318477544"><ele>58.0</ele><time>2026-04-09T13:17:30.999Z</time></trkpt><trkpt lat="43.91384532190468" lon="10.894280965641299"><ele>58.0</ele><time>2026-04-09T13:17:31.999Z</time></trkpt><trkpt lat="43.91381038588657" lon="10.893882052620969"><ele>58.0</ele><time>2026-04-09T13:17:32.999Z</time></trkpt><trkpt lat="43.91377790931359" lon="10.8934817570038"><ele>58.0</ele><time>2026-04-09T13:17:33.999Z</time></trkpt><trkpt lat="43.91374567951223" lon="10.89308247263683"><ele>58.0</ele><time>2026-04-09T13:17:34.999Z</time></trkpt><trkpt lat="43.91371441323318" lon="10.892686262659867"><ele>58.0</ele><time>2026-04-09T13:17:35.999Z</time></trkpt><trkpt lat="43.913681760894804" lon="10.892291362550717"><ele>58.5</ele><time>2026-04-09T13:17:36.999Z</time></trkpt><trkpt lat="43.913647608349855" lon="10.891894219794494"><ele>59.0</ele><time>2026-04-09T13:17:37.999Z</time></trkpt><trkpt lat="43.913615329662925" lon="10.891497641598237"><ele>59.0</ele><time>2026-04-09T13:17:38.999Z</time></trkpt><trkpt lat="43.91358521838644" lon="10.891098266258169"><ele>59.0</ele><time>2026-04-09T13:17:39.999Z</time></trkpt><trkpt lat="43.91355219947861" lon="10.89069898523975"><ele>59.0</ele><time>2026-04-09T13:17:40.999Z</time></trkpt><trkpt lat="43.91351968939763" lon="10.890296123030375"><ele>59.0</ele><time>2026-04-09T13:17:41.999Z</time></trkpt><trkpt lat="43.91348750058242" lon="10.889892221805555"><ele>59.5</ele><time>2026-04-09T13:17:42.999Z</time></trkpt><trkpt lat="43.91345698355343" lon="10.88948644443668"><ele>60.0</ele><time>2026-04-09T13:17:43.999Z</time></trkpt><trkpt lat="43.91342572210532" lon="10.889081051285793"><ele>59.5</ele><time>2026-04-09T13:17:44.999Z</time></trkpt><trkpt lat="43.913394628766866" lon="10.88867372013314"><ele>59.0</ele><time>2026-04-09T13:17:45.999Z</time></trkpt><trkpt lat="43.91336023137939" lon="10.888264493181612"><ele>58.5</ele><time>2026-04-09T13:17:46.999Z</time></trkpt><trkpt lat="43.91332669496205" lon="10.887849139409234"><ele>58.0</ele><time>2026-04-09T13:17:47.999Z</time></trkpt><trkpt lat="43.9132932490638" lon="10.887433525682148"><ele>58.0</ele><time>2026-04-09T13:17:48.999Z</time></trkpt><trkpt lat="43.91325833505811" lon="10.887013950486157"><ele>58.0</ele><time>2026-04-09T13:17:49.999Z</time></trkpt><trkpt lat="43.913220826651184" lon="10.886595073023637"><ele>58.0</ele><time>2026-04-09T13:17:50.999Z</time></trkpt><trkpt lat="43.913190560326235" lon="10.886172891322879"><ele>58.0</ele><time>2026-04-09T13:17:52Z</time></trkpt><trkpt lat="43.91316019775399" lon="10.885748023873418"><ele>58.0</ele><time>2026-04-09T13:17:53Z</time></trkpt><trkpt lat="43.91312986659209" lon="10.885347954660398"><ele>58.0</ele><time>2026-04-09T13:17:54Z</time></trkpt><trkpt lat="43.91309713573793" lon="10.88494805537683"><ele>58.0</ele><time>2026-04-09T13:17:55Z</time></trkpt><trkpt lat="43.91306672640358" lon="10.884554977145077"><ele>58.0</ele><time>2026-04-09T13:17:56Z</time></trkpt><trkpt lat="43.913040152058734" lon="10.884164690454991"><ele>58.0</ele><time>2026-04-09T13:17:57Z</time></trkpt><trkpt lat="43.913012135141365" lon="10.883777645743827"><ele>58.0</ele><time>2026-04-09T13:17:58Z</time></trkpt><trkpt lat="43.91298416328689" lon="10.8833909099692"><ele>58.0</ele><time>2026-04-09T13:17:59Z</time></trkpt><trkpt lat="43.91295476769267" lon="10.883005875568722"><ele>58.0</ele><time>2026-04-09T13:18:00Z</time></trkpt><trkpt lat="43.91292301324393" lon="10.882620751128272"><ele>58.0</ele><time>2026-04-09T13:18:01Z</time></trkpt><trkpt lat="43.91289112345346" lon="10.882237480648099"><ele>58.0</ele><time>2026-04-09T13:18:02Z</time></trkpt><trkpt lat="43.91285856351856" lon="10.881849856921399"><ele>59.0</ele><time>2026-04-09T13:18:03Z</time></trkpt><trkpt lat="43.91282654786571" lon="10.881463203483198"><ele>60.0</ele><time>2026-04-09T13:18:04Z</time></trkpt><trkpt lat="43.91279552595279" lon="10.881071375894338"><ele>61.0</ele><time>2026-04-09T13:18:05Z</time></trkpt><trkpt lat="43.912764812398855" lon="10.880680253801987"><ele>62.0</ele><time>2026-04-09T13:18:06Z</time></trkpt><trkpt lat="43.91273007726809" lon="10.880292025971242"><ele>62.0</ele><time>2026-04-09T13:18:07Z</time></trkpt><trkpt lat="43.912691983075966" lon="10.879899162134787"><ele>62.0</ele><time>2026-04-09T13:18:08Z</time></trkpt><trkpt lat="43.91265831952608" lon="10.879499988797564"><ele>61.5</ele><time>2026-04-09T13:18:09Z</time></trkpt><trkpt lat="43.9126200341319" lon="10.879101186224474"><ele>61.0</ele><time>2026-04-09T13:18:10Z</time></trkpt><trkpt lat="43.91258391865865" lon="10.878701960303221"><ele>60.5</ele><time>2026-04-09T13:18:11Z</time></trkpt><trkpt lat="43.91255082491963" lon="10.878300173397621"><ele>60.0</ele><time>2026-04-09T13:18:12Z</time></trkpt><trkpt lat="43.91251554344843" lon="10.877895468975286"><ele>60.5</ele><time>2026-04-09T13:18:13Z</time></trkpt><trkpt lat="43.912484586410834" lon="10.877489100924164"><ele>61.0</ele><time>2026-04-09T13:18:14Z</time></trkpt><trkpt lat="43.91245078891611" lon="10.87708095260838"><ele>60.5</ele><time>2026-04-09T13:18:15Z</time></trkpt><trkpt lat="43.912413222358296" lon="10.876674405840996"><ele>60.0</ele><time>2026-04-09T13:18:16Z</time></trkpt><trkpt lat="43.91238087168047" lon="10.876264795401571"><ele>60.5</ele><time>2026-04-09T13:18:17Z</time></trkpt><trkpt lat="43.91234634669656" lon="10.87585435248958"><ele>61.0</ele><time>2026-04-09T13:18:18Z</time></trkpt><trkpt lat="43.91231400798219" lon="10.875436835009044"><ele>61.0</ele><time>2026-04-09T13:18:19Z</time></trkpt><trkpt lat="43.912285186354204" lon="10.875011352343932"><ele>61.0</ele><time>2026-04-09T13:18:20Z</time></trkpt><trkpt lat="43.91225196189187" lon="10.874582748200378"><ele>61.5</ele><time>2026-04-09T13:18:21Z</time></trkpt><trkpt lat="43.91221783372561" lon="10.874151384410647"><ele>62.0</ele><time>2026-04-09T13:18:22Z</time></trkpt><trkpt lat="43.912183563250345" lon="10.873719315818168"><ele>63.0</ele><time>2026-04-09T13:18:23Z</time></trkpt><trkpt lat="43.91214779841728" lon="10.87328398252285"><ele>64.0</ele><time>2026-04-09T13:18:24Z</time></trkpt><trkpt lat="43.9121065272074" lon="10.872852116597993"><ele>63.5</ele><time>2026-04-09T13:18:25Z</time></trkpt><trkpt lat="43.912069190298624" lon="10.872419356794646"><ele>63.0</ele><time>2026-04-09T13:18:26Z</time></trkpt><trkpt lat="43.91203480178028" lon="10.871985014215328"><ele>63.0</ele><time>2026-04-09T13:18:27Z</time></trkpt><trkpt lat="43.911996250405856" lon="10.871551131528177"><ele>63.0</ele><time>2026-04-09T13:18:28Z</time></trkpt><trkpt lat="43.91196002748894" lon="10.87111711953429"><ele>62.0</ele><time>2026-04-09T13:18:29Z</time></trkpt><trkpt lat="43.91191944300843" lon="10.87069935012264"><ele>61.0</ele><time>2026-04-09T13:18:30Z</time></trkpt><trkpt lat="43.91188239163467" lon="10.870303889376098"><ele>61.0</ele><time>2026-04-09T13:18:31Z</time></trkpt><trkpt lat="43.91184516032806" lon="10.869913772184095"><ele>61.0</ele><time>2026-04-09T13:18:32Z</time></trkpt><trkpt lat="43.9118145649871" lon="10.869521953006213"><ele>61.5</ele><time>2026-04-09T13:18:33Z</time></trkpt><trkpt lat="43.911785246555574" lon="10.86913229612728"><ele>62.0</ele><time>2026-04-09T13:18:34Z</time></trkpt><trkpt lat="43.911754205907286" lon="10.868743192827282"><ele>63.0</ele><time>2026-04-09T13:18:35Z</time></trkpt><trkpt lat="43.911722972792525" lon="10.868363222972276"><ele>64.0</ele><time>2026-04-09T13:18:36Z</time></trkpt><trkpt lat="43.911691927361005" lon="10.868007221735063"><ele>64.0</ele><time>2026-04-09T13:18:37Z</time></trkpt><trkpt lat="43.911662796226786" lon="10.867673022313891"><ele>64.0</ele><time>2026-04-09T13:18:38Z</time></trkpt><trkpt lat="43.91163405047196" lon="10.867351556266453"><ele>64.0</ele><time>2026-04-09T13:18:39Z</time></trkpt><trkpt lat="43.91160655650805" lon="10.867024962267335"><ele>64.0</ele><time>2026-04-09T13:18:40Z</time></trkpt><trkpt lat="43.91157827473891" lon="10.866687863153558"><ele>64.0</ele><time>2026-04-09T13:18:41Z</time></trkpt><trkpt lat="43.911548601157556" lon="10.866342736803908"><ele>64.0</ele><time>2026-04-09T13:18:42Z</time></trkpt><trkpt lat="43.91152184242561" lon="10.865989623162376"><ele>63.5</ele><time>2026-04-09T13:18:43Z</time></trkpt><trkpt lat="43.91149444243237" lon="10.865631798740335"><ele>63.0</ele><time>2026-04-09T13:18:44Z</time></trkpt><trkpt lat="43.911464383474105" lon="10.865270130215178"><ele>63.5</ele><time>2026-04-09T13:18:45Z</time></trkpt><trkpt lat="43.91143143639279" lon="10.864912019218565"><ele>64.0</ele><time>2026-04-09T13:18:46Z</time></trkpt><trkpt lat="43.911404185652124" lon="10.864575511595596"><ele>66.0</ele><time>2026-04-09T13:18:47Z</time></trkpt><trkpt lat="43.911376474523" lon="10.864244397466457"><ele>68.0</ele><time>2026-04-09T13:18:48Z</time></trkpt><trkpt lat="43.91135047503812" lon="10.863903333619067"><ele>68.0</ele><time>2026-04-09T13:18:49Z</time></trkpt><trkpt lat="43.911320802040876" lon="10.863554828359211"><ele>68.0</ele><time>2026-04-09T13:18:50Z</time></trkpt><trkpt lat="43.9112928718761" lon="10.863225855399607"><ele>68.0</ele><time>2026-04-09T13:18:51Z</time></trkpt><trkpt lat="43.91126011236377" lon="10.862915115724324"><ele>68.0</ele><time>2026-04-09T13:18:52Z</time></trkpt><trkpt lat="43.911220673144584" lon="10.862603983440385"><ele>68.5</ele><time>2026-04-09T13:18:53Z</time></trkpt><trkpt lat="43.91117767042937" lon="10.862301341939302"><ele>69.0</ele><time>2026-04-09T13:18:54Z</time></trkpt><trkpt lat="43.911113676871295" lon="10.861983477690185"><ele>69.5</ele><time>2026-04-09T13:18:55Z</time></trkpt><trkpt lat="43.9110423989621" lon="10.861660820941257"><ele>70.0</ele><time>2026-04-09T13:18:56Z</time></trkpt><trkpt lat="43.910958982753854" lon="10.861336108028741"><ele>70.0</ele><time>2026-04-09T13:18:57Z</time></trkpt><trkpt lat="43.910864989455355" lon="10.861013860988287"><ele>70.0</ele><time>2026-04-09T13:18:58Z</time></trkpt><trkpt lat="43.91075916561532" lon="10.860695975381045"><ele>70.0</ele><time>2026-04-09T13:18:59Z</time></trkpt><trkpt lat="43.91064394599403" lon="10.860382295622902"><ele>70.0</ele><time>2026-04-09T13:19:00Z</time></trkpt><trkpt lat="43.910524393265064" lon="10.860086180272193"><ele>70.0</ele><time>2026-04-09T13:19:01Z</time></trkpt><trkpt lat="43.91039877311291" lon="10.859799259342768"><ele>70.0</ele><time>2026-04-09T13:19:02Z</time></trkpt><trkpt lat="43.91026266049583" lon="10.859516561671883"><ele>70.0</ele><time>2026-04-09T13:19:03Z</time></trkpt><trkpt lat="43.91011865848076" lon="10.859237913669247"><ele>70.0</ele><time>2026-04-09T13:19:04Z</time></trkpt><trkpt lat="43.90997182911326" lon="10.858956437290853"><ele>73.0</ele><time>2026-04-09T13:19:05Z</time></trkpt><trkpt lat="43.90982428640351" lon="10.858674032866045"><ele>76.0</ele><time>2026-04-09T13:19:06Z</time></trkpt><trkpt lat="43.9096769168741" lon="10.858386906371184"><ele>76.0</ele><time>2026-04-09T13:19:07Z</time></trkpt><trkpt lat="43.90953050113745" lon="10.85809807311892"><ele>76.0</ele><time>2026-04-09T13:19:08Z</time></trkpt><trkpt lat="43.90938601066095" lon="10.857806571596088"><ele>74.5</ele><time>2026-04-09T13:19:09Z</time></trkpt><trkpt lat="43.90923988274474" lon="10.85751685154213"><ele>73.0</ele><time>2026-04-09T13:19:10Z</time></trkpt><trkpt lat="43.9090903253481" lon="10.857226606346135"><ele>73.0</ele><time>2026-04-09T13:19:11Z</time></trkpt><trkpt lat="43.90893837452414" lon="10.856936849873232"><ele>73.0</ele><time>2026-04-09T13:19:12Z</time></trkpt><trkpt lat="43.908785967792035" lon="10.856641758857227"><ele>73.0</ele><time>2026-04-09T13:19:13Z</time></trkpt><trkpt lat="43.908633106385444" lon="10.856343804983297"><ele>73.0</ele><time>2026-04-09T13:19:14Z</time></trkpt><trkpt lat="43.90847813314027" lon="10.856042631670034"><ele>76.5</ele><time>2026-04-09T13:19:15Z</time></trkpt><trkpt lat="43.90831778855587" lon="10.855733367657523"><ele>80.0</ele><time>2026-04-09T13:19:16Z</time></trkpt><trkpt lat="43.90816486630313" lon="10.855434024800585"><ele>80.0</ele><time>2026-04-09T13:19:17Z</time></trkpt><trkpt lat="43.908022323088005" lon="10.855142477579765"><ele>80.0</ele><time>2026-04-09T13:19:18Z</time></trkpt><trkpt lat="43.90788669108621" lon="10.854838421492698"><ele>83.0</ele><time>2026-04-09T13:19:19Z</time></trkpt><trkpt lat="43.90776275338901" lon="10.85452099233805"><ele>86.0</ele><time>2026-04-09T13:19:20Z</time></trkpt><trkpt lat="43.907648945935584" lon="10.854191693494348"><ele>92.0</ele><time>2026-04-09T13:19:21Z</time></trkpt><trkpt lat="43.90754317717319" lon="10.8538555234507"><ele>98.0</ele><time>2026-04-09T13:19:22Z</time></trkpt><trkpt lat="43.90745184731449" lon="10.853510824176421"><ele>93.0</ele><time>2026-04-09T13:19:23Z</time></trkpt><trkpt lat="43.90736373474891" lon="10.853159206232872"><ele>88.0</ele><time>2026-04-09T13:19:24Z</time></trkpt><trkpt lat="43.90729033239861" lon="10.852794572765788"><ele>84.0</ele><time>2026-04-09T13:19:25Z</time></trkpt><trkpt lat="43.90722352275191" lon="10.852425748750505"><ele>80.0</ele><time>2026-04-09T13:19:26Z</time></trkpt><trkpt lat="43.907163798208266" lon="10.852062425057042"><ele>80.0</ele><time>2026-04-09T13:19:27Z</time></trkpt><trkpt lat="43.907114927798396" lon="10.85170078895778"><ele>80.0</ele><time>2026-04-09T13:19:28Z</time></trkpt><trkpt lat="43.90707222258735" lon="10.85133387341846"><ele>80.0</ele><time>2026-04-09T13:19:28.999Z</time></trkpt><trkpt lat="43.90703374852289" lon="10.850963136237546"><ele>80.0</ele><time>2026-04-09T13:19:29.999Z</time></trkpt><trkpt lat="43.90700486149199" lon="10.850596953816755"><ele>79.5</ele><time>2026-04-09T13:19:30.999Z</time></trkpt><trkpt lat="43.90698714028261" lon="10.85024282386033"><ele>79.0</ele><time>2026-04-09T13:19:31.999Z</time></trkpt><trkpt lat="43.90698155086723" lon="10.849890662607018"><ele>80.0</ele><time>2026-04-09T13:19:32.999Z</time></trkpt><trkpt lat="43.90698297375701" lon="10.84953806390578"><ele>81.0</ele><time>2026-04-09T13:19:33.999Z</time></trkpt><trkpt lat="43.906992456329185" lon="10.849190025294606"><ele>84.0</ele><time>2026-04-09T13:19:34.999Z</time></trkpt><trkpt lat="43.907008623801055" lon="10.848843980552905"><ele>87.0</ele><time>2026-04-09T13:19:35.999Z</time></trkpt><trkpt lat="43.907025456461604" lon="10.84849893970578"><ele>87.0</ele><time>2026-04-09T13:19:36.999Z</time></trkpt><trkpt lat="43.90704194774025" lon="10.848151710396262"><ele>87.0</ele><time>2026-04-09T13:19:37.999Z</time></trkpt><trkpt lat="43.90705928427114" lon="10.847802362690164"><ele>86.5</ele><time>2026-04-09T13:19:38.999Z</time></trkpt><trkpt lat="43.907076040021295" lon="10.847450565145827"><ele>86.0</ele><time>2026-04-09T13:19:39.999Z</time></trkpt><trkpt lat="43.907092890720136" lon="10.84709934270719"><ele>86.5</ele><time>2026-04-09T13:19:40.999Z</time></trkpt><trkpt lat="43.9071082214649" lon="10.846747783842694"><ele>87.0</ele><time>2026-04-09T13:19:41.999Z</time></trkpt><trkpt lat="43.90712521682908" lon="10.846395755811438"><ele>87.0</ele><time>2026-04-09T13:19:42.999Z</time></trkpt><trkpt lat="43.907143334883884" lon="10.846043530127902"><ele>87.0</ele><time>2026-04-09T13:19:43.999Z</time></trkpt><trkpt lat="43.90716130334603" lon="10.84569265193585"><ele>85.5</ele><time>2026-04-09T13:19:44.999Z</time></trkpt><trkpt lat="43.90717790292375" lon="10.845341793681833"><ele>84.0</ele><time>2026-04-09T13:19:45.999Z</time></trkpt><trkpt lat="43.90719315642406" lon="10.844992241950013"><ele>83.5</ele><time>2026-04-09T13:19:46.999Z</time></trkpt><trkpt lat="43.907208489415844" lon="10.84464299727874"><ele>83.0</ele><time>2026-04-09T13:19:47.999Z</time></trkpt><trkpt lat="43.907223165577584" lon="10.84429641486159"><ele>83.0</ele><time>2026-04-09T13:19:48.999Z</time></trkpt><trkpt lat="43.9072361974748" lon="10.843953153458324"><ele>83.0</ele><time>2026-04-09T13:19:49.999Z</time></trkpt><trkpt lat="43.90723809232629" lon="10.843610222246635"><ele>83.0</ele><time>2026-04-09T13:19:50.999Z</time></trkpt><trkpt lat="43.90723182400342" lon="10.84326958172011"><ele>83.0</ele><time>2026-04-09T13:19:51.999Z</time></trkpt><trkpt lat="43.907215397060156" lon="10.842928849253768"><ele>83.5</ele><time>2026-04-09T13:19:52.999Z</time></trkpt><trkpt lat="43.90718678573926" lon="10.842588795661188"><ele>84.0</ele><time>2026-04-09T13:19:53.999Z</time></trkpt><trkpt lat="43.90715225800467" lon="10.84224817806645"><ele>84.0</ele><time>2026-04-09T13:19:54.999Z</time></trkpt><trkpt lat="43.907107674538054" lon="10.841910585771997"><ele>84.0</ele><time>2026-04-09T13:19:55.999Z</time></trkpt><trkpt lat="43.90705552498391" lon="10.84157473936172"><ele>85.0</ele><time>2026-04-09T13:19:56.999Z</time></trkpt><trkpt lat="43.90699184519573" lon="10.841245226503618"><ele>86.0</ele><time>2026-04-09T13:19:58Z</time></trkpt><trkpt lat="43.90691744036204" lon="10.840918955360463"><ele>86.5</ele><time>2026-04-09T13:19:59Z</time></trkpt><trkpt lat="43.90683229581779" lon="10.840599003420149"><ele>87.0</ele><time>2026-04-09T13:20:00Z</time></trkpt><trkpt lat="43.90673691170645" lon="10.840282105726917"><ele>92.5</ele><time>2026-04-09T13:20:01Z</time></trkpt><trkpt lat="43.90663214752537" lon="10.839968091276297"><ele>98.0</ele><time>2026-04-09T13:20:02Z</time></trkpt><trkpt lat="43.90651720165365" lon="10.839657287127014"><ele>98.0</ele><time>2026-04-09T13:20:03Z</time></trkpt><trkpt lat="43.90639374321803" lon="10.839348366840353"><ele>98.0</ele><time>2026-04-09T13:20:04Z</time></trkpt><trkpt lat="43.90626578886383" lon="10.839044360395823"><ele>97.0</ele><time>2026-04-09T13:20:05Z</time></trkpt><trkpt lat="43.90613639745445" lon="10.838739743954756"><ele>96.0</ele><time>2026-04-09T13:20:06Z</time></trkpt><trkpt lat="43.90600765627062" lon="10.838434816491539"><ele>101.0</ele><time>2026-04-09T13:20:07Z</time></trkpt><trkpt lat="43.90587998335841" lon="10.83812834993996"><ele>106.0</ele><time>2026-04-09T13:20:08Z</time></trkpt><trkpt lat="43.9057528046491" lon="10.837820348857045"><ele>112.0</ele><time>2026-04-09T13:20:09Z</time></trkpt><trkpt lat="43.905623395013464" lon="10.837510136535348"><ele>118.0</ele><time>2026-04-09T13:20:10Z</time></trkpt><trkpt lat="43.90549268527861" lon="10.837198926203172"><ele>118.0</ele><time>2026-04-09T13:20:11Z</time></trkpt><trkpt lat="43.90536056243872" lon="10.836884415039206"><ele>118.0</ele><time>2026-04-09T13:20:12Z</time></trkpt><trkpt lat="43.90522630090042" lon="10.836561931684717"><ele>126.5</ele><time>2026-04-09T13:20:13Z</time></trkpt><trkpt lat="43.905090641070025" lon="10.83623264749048"><ele>135.0</ele><time>2026-04-09T13:20:14Z</time></trkpt><trkpt lat="43.90494967723766" lon="10.835890815305708"><ele>136.0</ele><time>2026-04-09T13:20:15.019Z</time></trkpt><trkpt lat="43.90481524266962" lon="10.835569515601977"><ele>137.0</ele><time>2026-04-09T13:20:16.02Z</time></trkpt><trkpt lat="43.90468736806504" lon="10.835265704994319"><ele>144.5</ele><time>2026-04-09T13:20:17.02Z</time></trkpt><trkpt lat="43.90456556554041" lon="10.834972123190424"><ele>152.0</ele><time>2026-04-09T13:20:18.018Z</time></trkpt><trkpt lat="43.90444893490523" lon="10.834673339485954"><ele>152.0</ele><time>2026-04-09T13:20:19.021Z</time></trkpt><trkpt lat="43.90432708630276" lon="10.834369257835034"><ele>152.0</ele><time>2026-04-09T13:20:20.021Z</time></trkpt><trkpt lat="43.90420443577072" lon="10.83406322841234"><ele>131.0</ele><time>2026-04-09T13:20:21.021Z</time></trkpt><trkpt lat="43.903566347476" lon="10.832533109943226"><ele>131.0</ele><time>2026-04-09T13:20:26Z</time></trkpt><trkpt lat="43.903442183286" lon="10.832229969453044"><ele>131.0</ele><time>2026-04-09T13:20:27Z</time></trkpt><trkpt lat="43.90331913558407" lon="10.83193372350832"><ele>124.0</ele><time>2026-04-09T13:20:28Z</time></trkpt><trkpt lat="43.90319467922445" lon="10.831636233906815"><ele>117.0</ele><time>2026-04-09T13:20:29Z</time></trkpt><trkpt lat="43.90307695869326" lon="10.831334091141164"><ele>117.0</ele><time>2026-04-09T13:20:30Z</time></trkpt><trkpt lat="43.90295098635292" lon="10.831030431169003"><ele>117.0</ele><time>2026-04-09T13:20:31Z</time></trkpt><trkpt lat="43.902807604626304" lon="10.830708270746536"><ele>116.0</ele><time>2026-04-09T13:20:32Z</time></trkpt><trkpt lat="43.902671086218675" lon="10.830412438626242"><ele>115.0</ele><time>2026-04-09T13:20:33Z</time></trkpt><trkpt lat="43.90252390021444" lon="10.830123230599398"><ele>112.0</ele><time>2026-04-09T13:20:34Z</time></trkpt><trkpt lat="43.902366228112385" lon="10.829850128819132"><ele>109.0</ele><time>2026-04-09T13:20:35Z</time></trkpt><trkpt lat="43.90219967938632" lon="10.829582084188486"><ele>109.0</ele><time>2026-04-09T13:20:36Z</time></trkpt><trkpt lat="43.902022973523906" lon="10.829326367524054"><ele>109.0</ele><time>2026-04-09T13:20:37Z</time></trkpt><trkpt lat="43.90183448051889" lon="10.82908470409004"><ele>112.0</ele><time>2026-04-09T13:20:38Z</time></trkpt><trkpt lat="43.90163968552095" lon="10.828854521995657"><ele>115.0</ele><time>2026-04-09T13:20:39Z</time></trkpt><trkpt lat="43.901433124499995" lon="10.82864236748325"><ele>111.0</ele><time>2026-04-09T13:20:40Z</time></trkpt><trkpt lat="43.90121954138793" lon="10.828446068733644"><ele>107.0</ele><time>2026-04-09T13:20:41Z</time></trkpt><trkpt lat="43.90099941049139" lon="10.828265122186577"><ele>112.0</ele><time>2026-04-09T13:20:42Z</time></trkpt><trkpt lat="43.900771451281976" lon="10.82810021121046"><ele>117.0</ele><time>2026-04-09T13:20:43Z</time></trkpt><trkpt lat="43.900532449580865" lon="10.8279617547668"><ele>117.0</ele><time>2026-04-09T13:20:44Z</time></trkpt><trkpt lat="43.90028603556634" lon="10.827839720731856"><ele>117.0</ele><time>2026-04-09T13:20:45Z</time></trkpt><trkpt lat="43.9000447430228" lon="10.827735709929037"><ele>118.0</ele><time>2026-04-09T13:20:46Z</time></trkpt><trkpt lat="43.89981156032559" lon="10.82765192299927"><ele>119.0</ele><time>2026-04-09T13:20:47Z</time></trkpt><trkpt lat="43.899581090161924" lon="10.827583499316873"><ele>115.0</ele><time>2026-04-09T13:20:48Z</time></trkpt><trkpt lat="43.89934683165062" lon="10.827525947184986"><ele>111.0</ele><time>2026-04-09T13:20:49Z</time></trkpt><trkpt lat="43.89910729514286" lon="10.827477335241683"><ele>106.5</ele><time>2026-04-09T13:20:50Z</time></trkpt><trkpt lat="43.89886598973576" lon="10.827423527670145"><ele>102.0</ele><time>2026-04-09T13:20:51Z</time></trkpt><trkpt lat="43.89862051769131" lon="10.827363089199732"><ele>100.0</ele><time>2026-04-09T13:20:52Z</time></trkpt><trkpt lat="43.898369959688054" lon="10.8273045894418"><ele>98.0</ele><time>2026-04-09T13:20:53Z</time></trkpt><trkpt lat="43.898114633524784" lon="10.82724659611375"><ele>98.0</ele><time>2026-04-09T13:20:54Z</time></trkpt><trkpt lat="43.897854046318855" lon="10.827187247365519"><ele>98.0</ele><time>2026-04-09T13:20:55Z</time></trkpt><trkpt lat="43.89759124593685" lon="10.827126247159603"><ele>101.0</ele><time>2026-04-09T13:20:56Z</time></trkpt><trkpt lat="43.897325934656116" lon="10.82706518717092"><ele>104.0</ele><time>2026-04-09T13:20:57Z</time></trkpt><trkpt lat="43.897057958873894" lon="10.827003006812443"><ele>104.0</ele><time>2026-04-09T13:20:58Z</time></trkpt><trkpt lat="43.89679046831077" lon="10.826939229034249"><ele>104.0</ele><time>2026-04-09T13:20:59Z</time></trkpt><trkpt lat="43.89653529288446" lon="10.826878890941941"><ele>99.5</ele><time>2026-04-09T13:21:00Z</time></trkpt><trkpt lat="43.896291044469315" lon="10.82682292734585"><ele>95.0</ele><time>2026-04-09T13:21:01Z</time></trkpt><trkpt lat="43.89605343972363" lon="10.826770353318887"><ele>88.5</ele><time>2026-04-09T13:21:02Z</time></trkpt><trkpt lat="43.895815192391176" lon="10.826716569541187"><ele>82.0</ele><time>2026-04-09T13:21:03Z</time></trkpt><trkpt lat="43.89557042983508" lon="10.826662611643403"><ele>82.0</ele><time>2026-04-09T13:21:04Z</time></trkpt><trkpt lat="43.89532076217527" lon="10.826612113060818"><ele>82.0</ele><time>2026-04-09T13:21:05Z</time></trkpt><trkpt lat="43.89506629432814" lon="10.82657330689958"><ele>78.5</ele><time>2026-04-09T13:21:06Z</time></trkpt><trkpt lat="43.89480810820072" lon="10.826544942379076"><ele>75.0</ele><time>2026-04-09T13:21:07Z</time></trkpt><trkpt lat="43.89455998986856" lon="10.826525250458737"><ele>75.0</ele><time>2026-04-09T13:21:08Z</time></trkpt><trkpt lat="43.89432219885425" lon="10.82651169658308"><ele>75.0</ele><time>2026-04-09T13:21:09Z</time></trkpt><trkpt lat="43.89409250985278" lon="10.826498212005491"><ele>73.5</ele><time>2026-04-09T13:21:10Z</time></trkpt><trkpt lat="43.89386943725787" lon="10.826479949211107"><ele>72.0</ele><time>2026-04-09T13:21:11Z</time></trkpt><trkpt lat="43.893635129969695" lon="10.82646173628826"><ele>70.0</ele><time>2026-04-09T13:21:12Z</time></trkpt><trkpt lat="43.89339175581502" lon="10.82644065998327"><ele>68.0</ele><time>2026-04-09T13:21:13Z</time></trkpt><trkpt lat="43.89315405224278" lon="10.826408596062313"><ele>68.0</ele><time>2026-04-09T13:21:14Z</time></trkpt><trkpt lat="43.89293129419625" lon="10.826350092703217"><ele>68.0</ele><time>2026-04-09T13:21:15Z</time></trkpt><trkpt lat="43.89271811560038" lon="10.826268002150103"><ele>68.0</ele><time>2026-04-09T13:21:16Z</time></trkpt><trkpt lat="43.8925038755497" lon="10.826162494306846"><ele>64.5</ele><time>2026-04-09T13:21:17Z</time></trkpt><trkpt lat="43.89229162393955" lon="10.826036594598682"><ele>61.0</ele><time>2026-04-09T13:21:18Z</time></trkpt><trkpt lat="43.892096285274846" lon="10.82588827949447"><ele>58.5</ele><time>2026-04-09T13:21:19Z</time></trkpt><trkpt lat="43.89190101261683" lon="10.825717601934189"><ele>56.0</ele><time>2026-04-09T13:21:20Z</time></trkpt><trkpt lat="43.89170927944696" lon="10.8255219989148"><ele>55.5</ele><time>2026-04-09T13:21:21Z</time></trkpt><trkpt lat="43.89152486983874" lon="10.825304355049362"><ele>55.0</ele><time>2026-04-09T13:21:22Z</time></trkpt><trkpt lat="43.89134388811999" lon="10.825065203144309"><ele>54.5</ele><time>2026-04-09T13:21:23Z</time></trkpt><trkpt lat="43.891168590359634" lon="10.824811396032668"><ele>54.0</ele><time>2026-04-09T13:21:24Z</time></trkpt><trkpt lat="43.89100502306282" lon="10.824563986329279"><ele>54.0</ele><time>2026-04-09T13:21:25Z</time></trkpt><trkpt lat="43.89084905952499" lon="10.824321390663659"><ele>54.0</ele><time>2026-04-09T13:21:26Z</time></trkpt><trkpt lat="43.890698193961306" lon="10.82408820125181"><ele>54.0</ele><time>2026-04-09T13:21:27Z</time></trkpt><trkpt lat="43.89054903117973" lon="10.823862890709975"><ele>54.0</ele><time>2026-04-09T13:21:28Z</time></trkpt><trkpt lat="43.890399350181674" lon="10.823639561048338"><ele>54.0</ele><time>2026-04-09T13:21:29Z</time></trkpt><trkpt lat="43.89024062969122" lon="10.823411567262474"><ele>50.5</ele><time>2026-04-09T13:21:30Z</time></trkpt><trkpt lat="43.89007834739821" lon="10.82318521330721"><ele>47.0</ele><time>2026-04-09T13:21:31Z</time></trkpt><trkpt lat="43.8899195116051" lon="10.822967311305186"><ele>47.0</ele><time>2026-04-09T13:21:32Z</time></trkpt><trkpt lat="43.889745947693754" lon="10.822742646990303"><ele>47.0</ele><time>2026-04-09T13:21:33Z</time></trkpt><trkpt lat="43.889560909882235" lon="10.8225156849118"><ele>46.0</ele><time>2026-04-09T13:21:34Z</time></trkpt><trkpt lat="43.88936278942684" lon="10.822292802822304"><ele>45.0</ele><time>2026-04-09T13:21:35Z</time></trkpt><trkpt lat="43.889166907797325" lon="10.822083499813864"><ele>45.0</ele><time>2026-04-09T13:21:35.999Z</time></trkpt><trkpt lat="43.888977585547956" lon="10.82188717035074"><ele>45.0</ele><time>2026-04-09T13:21:36.999Z</time></trkpt><trkpt lat="43.888783153122965" lon="10.821687641158126"><ele>41.5</ele><time>2026-04-09T13:21:37.999Z</time></trkpt><trkpt lat="43.888585336251296" lon="10.821487470889089"><ele>38.0</ele><time>2026-04-09T13:21:38.999Z</time></trkpt><trkpt lat="43.88838766732559" lon="10.82128527040275"><ele>38.0</ele><time>2026-04-09T13:21:39.999Z</time></trkpt><trkpt lat="43.88818570000437" lon="10.821079101069962"><ele>38.0</ele><time>2026-04-09T13:21:40.999Z</time></trkpt><trkpt lat="43.88798092044089" lon="10.820868436500396"><ele>37.5</ele><time>2026-04-09T13:21:41.999Z</time></trkpt><trkpt lat="43.88777438314281" lon="10.820654439042357"><ele>37.0</ele><time>2026-04-09T13:21:42.999Z</time></trkpt><trkpt lat="43.88756599951159" lon="10.820436398580075"><ele>36.5</ele><time>2026-04-09T13:21:43.999Z</time></trkpt><trkpt lat="43.88735200216249" lon="10.820215775623497"><ele>36.0</ele><time>2026-04-09T13:21:44.999Z</time></trkpt><trkpt lat="43.887137450798456" lon="10.819992928583467"><ele>36.0</ele><time>2026-04-09T13:21:45.999Z</time></trkpt><trkpt lat="43.88692109849989" lon="10.819767050313322"><ele>36.0</ele><time>2026-04-09T13:21:46.999Z</time></trkpt><trkpt lat="43.88670051304337" lon="10.819539593619355"><ele>36.5</ele><time>2026-04-09T13:21:47.999Z</time></trkpt><trkpt lat="43.88647795706092" lon="10.819308525634735"><ele>37.0</ele><time>2026-04-09T13:21:48.999Z</time></trkpt><trkpt lat="43.88625436771418" lon="10.819074595158163"><ele>37.0</ele><time>2026-04-09T13:21:49.999Z</time></trkpt><trkpt lat="43.88602697012698" lon="10.818837705647224"><ele>37.0</ele><time>2026-04-09T13:21:50.999Z</time></trkpt><trkpt lat="43.88581062575578" lon="10.818612572194121"><ele>38.5</ele><time>2026-04-09T13:21:51.999Z</time></trkpt><trkpt lat="43.885591338929345" lon="10.818386048408577"><ele>40.0</ele><time>2026-04-09T13:21:52.999Z</time></trkpt><trkpt lat="43.88537191906973" lon="10.81815829119877"><ele>40.0</ele><time>2026-04-09T13:21:53.999Z</time></trkpt><trkpt lat="43.88515373646018" lon="10.81793010245329"><ele>40.0</ele><time>2026-04-09T13:21:54.999Z</time></trkpt><trkpt lat="43.88493339686602" lon="10.817701195636339"><ele>40.0</ele><time>2026-04-09T13:21:55.999Z</time></trkpt><trkpt lat="43.88471390882402" lon="10.817472631297866"><ele>40.0</ele><time>2026-04-09T13:21:56.999Z</time></trkpt><trkpt lat="43.884490434437566" lon="10.817242801497766"><ele>40.0</ele><time>2026-04-09T13:21:57.999Z</time></trkpt><trkpt lat="43.884268629352796" lon="10.817012160824506"><ele>40.0</ele><time>2026-04-09T13:21:58.999Z</time></trkpt><trkpt lat="43.88404491832345" lon="10.816779982022755"><ele>37.0</ele><time>2026-04-09T13:21:59.999Z</time></trkpt><trkpt lat="43.88382079308023" lon="10.816546289297438"><ele>34.0</ele><time>2026-04-09T13:22:00.999Z</time></trkpt><trkpt lat="43.88359472363056" lon="10.816310551644744"><ele>32.0</ele><time>2026-04-09T13:22:01.999Z</time></trkpt><trkpt lat="43.88336689614714" lon="10.816072724563446"><ele>30.0</ele><time>2026-04-09T13:22:02.999Z</time></trkpt><trkpt lat="43.8831372358576" lon="10.815834649884073"><ele>28.5</ele><time>2026-04-09T13:22:04Z</time></trkpt><trkpt lat="43.882904957349226" lon="10.81559829552648"><ele>27.0</ele><time>2026-04-09T13:22:05Z</time></trkpt><trkpt lat="43.88267319364027" lon="10.815358958453997"><ele>25.5</ele><time>2026-04-09T13:22:06Z</time></trkpt><trkpt lat="43.88244080425677" lon="10.815116234256218"><ele>24.0</ele><time>2026-04-09T13:22:07Z</time></trkpt><trkpt lat="43.8822081006597" lon="10.814872554320354"><ele>24.0</ele><time>2026-04-09T13:22:08Z</time></trkpt><trkpt lat="43.88197660457848" lon="10.814629583524638"><ele>24.0</ele><time>2026-04-09T13:22:09Z</time></trkpt><trkpt lat="43.88174358002411" lon="10.814388811850462"><ele>24.5</ele><time>2026-04-09T13:22:10Z</time></trkpt><trkpt lat="43.88151238587243" lon="10.81414958282597"><ele>25.0</ele><time>2026-04-09T13:22:11Z</time></trkpt><trkpt lat="43.88128047841701" lon="10.81390921981855"><ele>25.0</ele><time>2026-04-09T13:22:12Z</time></trkpt><trkpt lat="43.88104988943855" lon="10.813671507316066"><ele>25.0</ele><time>2026-04-09T13:22:13Z</time></trkpt><trkpt lat="43.8808191445538" lon="10.813433956465088"><ele>25.5</ele><time>2026-04-09T13:22:14Z</time></trkpt><trkpt lat="43.88058900615928" lon="10.813196366767302"><ele>26.0</ele><time>2026-04-09T13:22:15Z</time></trkpt><trkpt lat="43.88035902471362" lon="10.812958407794586"><ele>26.0</ele><time>2026-04-09T13:22:16Z</time></trkpt><trkpt lat="43.880128523558135" lon="10.812720110365415"><ele>26.0</ele><time>2026-04-09T13:22:17Z</time></trkpt><trkpt lat="43.87989648975697" lon="10.812480828784194"><ele>26.5</ele><time>2026-04-09T13:22:18Z</time></trkpt><trkpt lat="43.87966298939917" lon="10.812240656925201"><ele>27.0</ele><time>2026-04-09T13:22:19Z</time></trkpt><trkpt lat="43.87942817261987" lon="10.81199693939558"><ele>26.0</ele><time>2026-04-09T13:22:20Z</time></trkpt><trkpt lat="43.879191825306634" lon="10.811750250655864"><ele>25.0</ele><time>2026-04-09T13:22:21Z</time></trkpt><trkpt lat="43.87895402777442" lon="10.81150231183713"><ele>25.0</ele><time>2026-04-09T13:22:22Z</time></trkpt><trkpt lat="43.878713664293464" lon="10.811251575507109"><ele>25.0</ele><time>2026-04-09T13:22:23Z</time></trkpt><trkpt lat="43.87848052474299" lon="10.811008709572805"><ele>24.0</ele><time>2026-04-09T13:22:24Z</time></trkpt><trkpt lat="43.87825328623907" lon="10.810772982402337"><ele>23.0</ele><time>2026-04-09T13:22:25Z</time></trkpt><trkpt lat="43.87802883356488" lon="10.810536725021874"><ele>23.0</ele><time>2026-04-09T13:22:26Z</time></trkpt><trkpt lat="43.87781781929192" lon="10.810315682677139"><ele>23.0</ele><time>2026-04-09T13:22:27Z</time></trkpt><trkpt lat="43.8776182454144" lon="10.81010231683814"><ele>22.0</ele><time>2026-04-09T13:22:28Z</time></trkpt><trkpt lat="43.877431700517846" lon="10.80989515006778"><ele>21.0</ele><time>2026-04-09T13:22:29Z</time></trkpt><trkpt lat="43.8772616312253" lon="10.809685054704934"><ele>21.0</ele><time>2026-04-09T13:22:30Z</time></trkpt><trkpt lat="43.87711238750908" lon="10.809459525072933"><ele>21.0</ele><time>2026-04-09T13:22:31Z</time></trkpt><trkpt lat="43.876967512235" lon="10.809216926502604"><ele>21.0</ele><time>2026-04-09T13:22:32Z</time></trkpt><trkpt lat="43.87683476172759" lon="10.80897270597275"><ele>22.0</ele><time>2026-04-09T13:22:33Z</time></trkpt><trkpt lat="43.876706396812814" lon="10.808705533111821"><ele>23.0</ele><time>2026-04-09T13:22:34Z</time></trkpt><trkpt lat="43.87658738713164" lon="10.808414457760051"><ele>23.0</ele><time>2026-04-09T13:22:35Z</time></trkpt><trkpt lat="43.87647978864136" lon="10.80810793797436"><ele>23.0</ele><time>2026-04-09T13:22:36Z</time></trkpt><trkpt lat="43.876382413818966" lon="10.807786015776426"><ele>22.5</ele><time>2026-04-09T13:22:37Z</time></trkpt><trkpt lat="43.8763095027591" lon="10.80747054403481"><ele>22.0</ele><time>2026-04-09T13:22:38Z</time></trkpt><trkpt lat="43.87625618842379" lon="10.80714120251233"><ele>21.5</ele><time>2026-04-09T13:22:39Z</time></trkpt><trkpt lat="43.876213507490846" lon="10.806801133090099"><ele>21.0</ele><time>2026-04-09T13:22:40Z</time></trkpt><trkpt lat="43.876186686581526" lon="10.806450287203942"><ele>21.0</ele><time>2026-04-09T13:22:41Z</time></trkpt><trkpt lat="43.87617845292571" lon="10.806093282344776"><ele>21.0</ele><time>2026-04-09T13:22:42Z</time></trkpt><trkpt lat="43.876183416856634" lon="10.805730222784428"><ele>21.0</ele><time>2026-04-09T13:22:43Z</time></trkpt><trkpt lat="43.876199316689636" lon="10.805363364787164"><ele>21.0</ele><time>2026-04-09T13:22:44Z</time></trkpt><trkpt lat="43.8762163912449" lon="10.80499176144141"><ele>21.0</ele><time>2026-04-09T13:22:45Z</time></trkpt><trkpt lat="43.87623054170101" lon="10.80461901709497"><ele>21.0</ele><time>2026-04-09T13:22:46Z</time></trkpt><trkpt lat="43.87624513490401" lon="10.804242767908587"><ele>22.0</ele><time>2026-04-09T13:22:47Z</time></trkpt><trkpt lat="43.87625934346354" lon="10.803862310825156"><ele>23.0</ele><time>2026-04-09T13:22:48Z</time></trkpt><trkpt lat="43.8762750210984" lon="10.8034820452949"><ele>23.0</ele><time>2026-04-09T13:22:49Z</time></trkpt><trkpt lat="43.876291350534736" lon="10.803100267104131"><ele>23.0</ele><time>2026-04-09T13:22:50Z</time></trkpt><trkpt lat="43.87630882975515" lon="10.802718394736058"><ele>23.0</ele><time>2026-04-09T13:22:51Z</time></trkpt><trkpt lat="43.87632566473156" lon="10.802337430731253"><ele>23.0</ele><time>2026-04-09T13:22:52Z</time></trkpt><trkpt lat="43.876341846855546" lon="10.801955004333452"><ele>22.5</ele><time>2026-04-09T13:22:53Z</time></trkpt><trkpt lat="43.876358593172924" lon="10.801568548899587"><ele>22.0</ele><time>2026-04-09T13:22:54Z</time></trkpt><trkpt lat="43.87637583422364" lon="10.801178957619904"><ele>21.5</ele><time>2026-04-09T13:22:55Z</time></trkpt><trkpt lat="43.876391426881995" lon="10.800788043007262"><ele>21.0</ele><time>2026-04-09T13:22:56Z</time></trkpt><trkpt lat="43.87640702078953" lon="10.80039632987173"><ele>21.5</ele><time>2026-04-09T13:22:57Z</time></trkpt><trkpt lat="43.876421594139515" lon="10.80002530165677"><ele>22.0</ele><time>2026-04-09T13:22:58Z</time></trkpt><trkpt lat="43.876436655592414" lon="10.79966231454812"><ele>22.0</ele><time>2026-04-09T13:22:59Z</time></trkpt><trkpt lat="43.87645192876837" lon="10.799290093953"><ele>22.0</ele><time>2026-04-09T13:23:00Z</time></trkpt><trkpt lat="43.87646640336133" lon="10.798912596653444"><ele>22.0</ele><time>2026-04-09T13:23:01Z</time></trkpt><trkpt lat="43.87648184274558" lon="10.798532974221517"><ele>22.0</ele><time>2026-04-09T13:23:02Z</time></trkpt><trkpt lat="43.87649706202948" lon="10.798166601052383"><ele>22.0</ele><time>2026-04-09T13:23:03Z</time></trkpt><trkpt lat="43.87651309106495" lon="10.797820022906642"><ele>22.0</ele><time>2026-04-09T13:23:04Z</time></trkpt><trkpt lat="43.87652761271772" lon="10.79747428495726"><ele>22.5</ele><time>2026-04-09T13:23:05Z</time></trkpt><trkpt lat="43.87654155328606" lon="10.79712511721955"><ele>23.0</ele><time>2026-04-09T13:23:06Z</time></trkpt><trkpt lat="43.87655786157743" lon="10.796770326218851"><ele>23.0</ele><time>2026-04-09T13:23:07Z</time></trkpt><trkpt lat="43.87657494569656" lon="10.796411126474455"><ele>23.0</ele><time>2026-04-09T13:23:08Z</time></trkpt><trkpt lat="43.87659082900663" lon="10.796046571192925"><ele>23.5</ele><time>2026-04-09T13:23:09Z</time></trkpt><trkpt lat="43.876606708110266" lon="10.795678583081518"><ele>24.0</ele><time>2026-04-09T13:23:10Z</time></trkpt><trkpt lat="43.87662301710417" lon="10.795304363993239"><ele>24.0</ele><time>2026-04-09T13:23:11Z</time></trkpt><trkpt lat="43.87664043439141" lon="10.794925779308253"><ele>24.0</ele><time>2026-04-09T13:23:12Z</time></trkpt><trkpt lat="43.876655988448725" lon="10.794563632617685"><ele>23.0</ele><time>2026-04-09T13:23:13Z</time></trkpt><trkpt lat="43.876674039324755" lon="10.79420659866015"><ele>22.0</ele><time>2026-04-09T13:23:14Z</time></trkpt><trkpt lat="43.87668977548143" lon="10.793843520611277"><ele>21.5</ele><time>2026-04-09T13:23:15Z</time></trkpt><trkpt lat="43.87670484812184" lon="10.793479311751986"><ele>21.0</ele><time>2026-04-09T13:23:16Z</time></trkpt><trkpt lat="43.87671944879775" lon="10.793116420810332"><ele>21.0</ele><time>2026-04-09T13:23:17Z</time></trkpt><trkpt lat="43.87673482587203" lon="10.792748527367356"><ele>21.0</ele><time>2026-04-09T13:23:18Z</time></trkpt><trkpt lat="43.87675079030698" lon="10.792378534973533"><ele>21.0</ele><time>2026-04-09T13:23:19Z</time></trkpt><trkpt lat="43.87676688024607" lon="10.792014942313244"><ele>21.0</ele><time>2026-04-09T13:23:20Z</time></trkpt><trkpt lat="43.876784185566414" lon="10.791670167295353"><ele>21.5</ele><time>2026-04-09T13:23:21Z</time></trkpt><trkpt lat="43.876798665986314" lon="10.791316379192875"><ele>22.0</ele><time>2026-04-09T13:23:22Z</time></trkpt><trkpt lat="43.876813821872375" lon="10.79095212980224"><ele>22.5</ele><time>2026-04-09T13:23:23Z</time></trkpt><trkpt lat="43.876828064094624" lon="10.790561077072889"><ele>23.0</ele><time>2026-04-09T13:23:24Z</time></trkpt><trkpt lat="43.87684319889825" lon="10.790150570142009"><ele>23.0</ele><time>2026-04-09T13:23:25Z</time></trkpt><trkpt lat="43.87686794482815" lon="10.789723621416208"><ele>23.0</ele><time>2026-04-09T13:23:26Z</time></trkpt><trkpt lat="43.876883360848716" lon="10.789282803529701"><ele>23.0</ele><time>2026-04-09T13:23:27Z</time></trkpt><trkpt lat="43.876894944126555" lon="10.78885190894479"><ele>23.0</ele><time>2026-04-09T13:23:28Z</time></trkpt><trkpt lat="43.87691288574544" lon="10.788446625477834"><ele>23.0</ele><time>2026-04-09T13:23:29Z</time></trkpt><trkpt lat="43.87692776787876" lon="10.788042009812912"><ele>23.0</ele><time>2026-04-09T13:23:30Z</time></trkpt><trkpt lat="43.87694549517159" lon="10.787639298012344"><ele>23.0</ele><time>2026-04-09T13:23:31Z</time></trkpt><trkpt lat="43.876962617802036" lon="10.787247089035663"><ele>23.0</ele><time>2026-04-09T13:23:32Z</time></trkpt><trkpt lat="43.876975251054105" lon="10.786873089459972"><ele>22.0</ele><time>2026-04-09T13:23:33Z</time></trkpt><trkpt lat="43.87698320728442" lon="10.786496998880608"><ele>21.0</ele><time>2026-04-09T13:23:34Z</time></trkpt><trkpt lat="43.876978917720336" lon="10.786123754063713"><ele>20.5</ele><time>2026-04-09T13:23:35Z</time></trkpt><trkpt lat="43.87695724003052" lon="10.785774029393446"><ele>20.0</ele><time>2026-04-09T13:23:36Z</time></trkpt><trkpt lat="43.876922617479124" lon="10.785430561886985"><ele>21.0</ele><time>2026-04-09T13:23:37Z</time></trkpt><trkpt lat="43.8768765222458" lon="10.785079517128269"><ele>22.0</ele><time>2026-04-09T13:23:38Z</time></trkpt><trkpt lat="43.87681806540509" lon="10.784733696468823"><ele>22.0</ele><time>2026-04-09T13:23:39Z</time></trkpt><trkpt lat="43.87674444474691" lon="10.784386977486509"><ele>22.0</ele><time>2026-04-09T13:23:40Z</time></trkpt><trkpt lat="43.87666144649211" lon="10.784030782305456"><ele>22.0</ele><time>2026-04-09T13:23:41Z</time></trkpt><trkpt lat="43.87656188367935" lon="10.783665216608092"><ele>22.0</ele><time>2026-04-09T13:23:42Z</time></trkpt><trkpt lat="43.8764489542819" lon="10.783294975735867"><ele>22.5</ele><time>2026-04-09T13:23:43Z</time></trkpt><trkpt lat="43.87632936740081" lon="10.782918900132756"><ele>23.0</ele><time>2026-04-09T13:23:44Z</time></trkpt><trkpt lat="43.87620676812671" lon="10.782533639088665"><ele>22.0</ele><time>2026-04-09T13:23:44.999Z</time></trkpt><trkpt lat="43.876080072272885" lon="10.782134393613662"><ele>21.0</ele><time>2026-04-09T13:23:45.999Z</time></trkpt><trkpt lat="43.87595192866378" lon="10.781719512338002"><ele>21.0</ele><time>2026-04-09T13:23:46.999Z</time></trkpt><trkpt lat="43.87582212786305" lon="10.781298198527711"><ele>21.0</ele><time>2026-04-09T13:23:47.999Z</time></trkpt><trkpt lat="43.87568771478068" lon="10.780865488292052"><ele>21.0</ele><time>2026-04-09T13:23:48.999Z</time></trkpt><trkpt lat="43.875548522984744" lon="10.78042610661654"><ele>21.0</ele><time>2026-04-09T13:23:49.999Z</time></trkpt><trkpt lat="43.875407705644065" lon="10.779978296771066"><ele>20.5</ele><time>2026-04-09T13:23:50.999Z</time></trkpt><trkpt lat="43.87526811684746" lon="10.779535893192804"><ele>20.0</ele><time>2026-04-09T13:23:51.999Z</time></trkpt><trkpt lat="43.87514015268791" lon="10.779120669352476"><ele>19.5</ele><time>2026-04-09T13:23:52.999Z</time></trkpt><trkpt lat="43.87502199952209" lon="10.778707406141695"><ele>19.0</ele><time>2026-04-09T13:23:53.999Z</time></trkpt><trkpt lat="43.87490233386602" lon="10.778299777121678"><ele>19.0</ele><time>2026-04-09T13:23:54.999Z</time></trkpt><trkpt lat="43.87478448017124" lon="10.777904780901508"><ele>19.0</ele><time>2026-04-09T13:23:55.999Z</time></trkpt><trkpt lat="43.8746668447621" lon="10.777514788813086"><ele>19.0</ele><time>2026-04-09T13:23:56.999Z</time></trkpt><trkpt lat="43.874547984168714" lon="10.777129034916198"><ele>19.0</ele><time>2026-04-09T13:23:57.999Z</time></trkpt><trkpt lat="43.87443663037948" lon="10.776770465051271"><ele>19.0</ele><time>2026-04-09T13:23:58.999Z</time></trkpt><trkpt lat="43.8743280386668" lon="10.776413638239141"><ele>19.0</ele><time>2026-04-09T13:23:59.999Z</time></trkpt><trkpt lat="43.8742209044504" lon="10.776059899660833"><ele>19.5</ele><time>2026-04-09T13:24:00.999Z</time></trkpt><trkpt lat="43.87411207238898" lon="10.77570834760424"><ele>20.0</ele><time>2026-04-09T13:24:01.999Z</time></trkpt><trkpt lat="43.87400271079106" lon="10.775358364336048"><ele>19.5</ele><time>2026-04-09T13:24:02.999Z</time></trkpt><trkpt lat="43.8738951226984" lon="10.77501228740297"><ele>19.0</ele><time>2026-04-09T13:24:03.999Z</time></trkpt><trkpt lat="43.87378736349741" lon="10.774668214819448"><ele>18.5</ele><time>2026-04-09T13:24:04.999Z</time></trkpt><trkpt lat="43.87368031633943" lon="10.774323390037916"><ele>18.0</ele><time>2026-04-09T13:24:05.999Z</time></trkpt><trkpt lat="43.87357255016327" lon="10.773978682369027"><ele>18.0</ele><time>2026-04-09T13:24:06.999Z</time></trkpt><trkpt lat="43.87346241044113" lon="10.773636994513426"><ele>18.0</ele><time>2026-04-09T13:24:07.999Z</time></trkpt><trkpt lat="43.873354421882624" lon="10.773297289148577"><ele>19.0</ele><time>2026-04-09T13:24:08.999Z</time></trkpt><trkpt lat="43.87324751156534" lon="10.772956822065469"><ele>20.0</ele><time>2026-04-09T13:24:10Z</time></trkpt><trkpt lat="43.8731448812314" lon="10.77261690906811"><ele>20.0</ele><time>2026-04-09T13:24:11Z</time></trkpt><trkpt lat="43.87303948010211" lon="10.772278118239308"><ele>20.0</ele><time>2026-04-09T13:24:12Z</time></trkpt><trkpt lat="43.87293044458364" lon="10.771941473099222"><ele>19.5</ele><time>2026-04-09T13:24:13Z</time></trkpt><trkpt lat="43.872821689854874" lon="10.771603154893077"><ele>19.0</ele><time>2026-04-09T13:24:14Z</time></trkpt><trkpt lat="43.87271687985195" lon="10.771264262997132"><ele>19.0</ele><time>2026-04-09T13:24:15Z</time></trkpt><trkpt lat="43.872612763937035" lon="10.770925088491223"><ele>19.0</ele><time>2026-04-09T13:24:16Z</time></trkpt><trkpt lat="43.87250967808431" lon="10.770581956401514"><ele>19.0</ele><time>2026-04-09T13:24:17Z</time></trkpt><trkpt lat="43.872405296786226" lon="10.770237509810057"><ele>19.0</ele><time>2026-04-09T13:24:18Z</time></trkpt><trkpt lat="43.8722982033444" lon="10.769892027781776"><ele>19.0</ele><time>2026-04-09T13:24:19Z</time></trkpt><trkpt lat="43.87219094800634" lon="10.769544051845282"><ele>19.0</ele><time>2026-04-09T13:24:20Z</time></trkpt><trkpt lat="43.87208352529231" lon="10.769194831827406"><ele>19.5</ele><time>2026-04-09T13:24:21Z</time></trkpt><trkpt lat="43.87197379348622" lon="10.768846011275109"><ele>20.0</ele><time>2026-04-09T13:24:22Z</time></trkpt><trkpt lat="43.87186370707555" lon="10.768494746348622"><ele>19.0</ele><time>2026-04-09T13:24:23Z</time></trkpt><trkpt lat="43.871755181591105" lon="10.768142961006436"><ele>18.0</ele><time>2026-04-09T13:24:24Z</time></trkpt><trkpt lat="43.87164729855574" lon="10.767790104943774"><ele>19.0</ele><time>2026-04-09T13:24:25Z</time></trkpt><trkpt lat="43.87153797748056" lon="10.76743867355635"><ele>20.0</ele><time>2026-04-09T13:24:26Z</time></trkpt><trkpt lat="43.87142860925846" lon="10.76708665582723"><ele>20.0</ele><time>2026-04-09T13:24:27Z</time></trkpt><trkpt lat="43.87132156383817" lon="10.766749140550013"><ele>20.0</ele><time>2026-04-09T13:24:28Z</time></trkpt><trkpt lat="43.87122210997463" lon="10.766431080596828"><ele>20.0</ele><time>2026-04-09T13:24:29Z</time></trkpt><trkpt lat="43.87112068442045" lon="10.766110021903822"><ele>20.0</ele><time>2026-04-09T13:24:30Z</time></trkpt><trkpt lat="43.87101953984936" lon="10.765783133291208"><ele>19.5</ele><time>2026-04-09T13:24:31Z</time></trkpt><trkpt lat="43.8709158495719" lon="10.765451341812296"><ele>19.0</ele><time>2026-04-09T13:24:32Z</time></trkpt><trkpt lat="43.87081869445483" lon="10.765138492241238"><ele>19.0</ele><time>2026-04-09T13:24:33Z</time></trkpt><trkpt lat="43.87072400529607" lon="10.764838253645573"><ele>19.0</ele><time>2026-04-09T13:24:34Z</time></trkpt><trkpt lat="43.87063470504122" lon="10.764551212652398"><ele>18.0</ele><time>2026-04-09T13:24:35Z</time></trkpt><trkpt lat="43.87054691824197" lon="10.764274279160574"><ele>17.0</ele><time>2026-04-09T13:24:36Z</time></trkpt><trkpt lat="43.870456548070266" lon="10.763991284946721"><ele>16.0</ele><time>2026-04-09T13:24:37Z</time></trkpt><trkpt lat="43.87036274539325" lon="10.763689198814276"><ele>16.0</ele><time>2026-04-09T13:24:38Z</time></trkpt><trkpt lat="43.870262961416714" lon="10.763375622954364"><ele>16.0</ele><time>2026-04-09T13:24:39Z</time></trkpt><trkpt lat="43.870159702867" lon="10.763086626915458"><ele>16.5</ele><time>2026-04-09T13:24:40Z</time></trkpt><trkpt lat="43.87005581303218" lon="10.762808103935535"><ele>17.0</ele><time>2026-04-09T13:24:41Z</time></trkpt><trkpt lat="43.86994131150007" lon="10.762531572727163"><ele>17.0</ele><time>2026-04-09T13:24:42Z</time></trkpt><trkpt lat="43.86982810442642" lon="10.762275839331199"><ele>17.0</ele><time>2026-04-09T13:24:43Z</time></trkpt><trkpt lat="43.86971470710611" lon="10.762024839413904"><ele>17.0</ele><time>2026-04-09T13:24:44Z</time></trkpt><trkpt lat="43.86959273039696" lon="10.76177007145432"><ele>17.0</ele><time>2026-04-09T13:24:45Z</time></trkpt><trkpt lat="43.86946590430321" lon="10.761517987868674"><ele>17.0</ele><time>2026-04-09T13:24:46Z</time></trkpt><trkpt lat="43.869335007989044" lon="10.761266418762487"><ele>17.0</ele><time>2026-04-09T13:24:47Z</time></trkpt><trkpt lat="43.869197628679544" lon="10.761018869670371"><ele>17.666666666666668</ele><time>2026-04-09T13:24:48Z</time></trkpt><trkpt lat="43.869059989614726" lon="10.760782730924237"><ele>18.333333333333332</ele><time>2026-04-09T13:24:49Z</time></trkpt><trkpt lat="43.868922715689386" lon="10.760560462561786"><ele>19.0</ele><time>2026-04-09T13:24:50Z</time></trkpt><trkpt lat="43.86878446990978" lon="10.760343646987529"><ele>18.333333333333332</ele><time>2026-04-09T13:24:51Z</time></trkpt><trkpt lat="43.868644825411" lon="10.760133988614603"><ele>17.666666666666668</ele><time>2026-04-09T13:24:52Z</time></trkpt><trkpt lat="43.86850686400964" lon="10.759920045681646"><ele>17.0</ele><time>2026-04-09T13:24:53Z</time></trkpt><trkpt lat="43.86836945081429" lon="10.75969507701383"><ele>17.0</ele><time>2026-04-09T13:24:54Z</time></trkpt><trkpt lat="43.86822707903518" lon="10.759466582117883"><ele>17.0</ele><time>2026-04-09T13:24:55Z</time></trkpt><trkpt lat="43.868082374302055" lon="10.759237479738111"><ele>17.0</ele><time>2026-04-09T13:24:56Z</time></trkpt><trkpt lat="43.86793356454774" lon="10.759006404071664"><ele>17.0</ele><time>2026-04-09T13:24:57Z</time></trkpt><trkpt lat="43.867784369255475" lon="10.758771455139629"><ele>17.0</ele><time>2026-04-09T13:24:58Z</time></trkpt><trkpt lat="43.867632633848025" lon="10.758534408483632"><ele>17.5</ele><time>2026-04-09T13:24:59Z</time></trkpt><trkpt lat="43.86747776527683" lon="10.75829560076062"><ele>18.0</ele><time>2026-04-09T13:25:00Z</time></trkpt><trkpt lat="43.86732065105417" lon="10.758051855591228"><ele>18.0</ele><time>2026-04-09T13:25:01Z</time></trkpt><trkpt lat="43.86716198802097" lon="10.75780477826074"><ele>18.0</ele><time>2026-04-09T13:25:02Z</time></trkpt><trkpt lat="43.86700257333647" lon="10.757553206067763"><ele>18.5</ele><time>2026-04-09T13:25:03Z</time></trkpt><trkpt lat="43.866843377580096" lon="10.75729960476008"><ele>19.0</ele><time>2026-04-09T13:25:04Z</time></trkpt><trkpt lat="43.86668231232462" lon="10.757042092473231"><ele>17.5</ele><time>2026-04-09T13:25:05Z</time></trkpt><trkpt lat="43.86651923913081" lon="10.756783487051193"><ele>16.0</ele><time>2026-04-09T13:25:06Z</time></trkpt><trkpt lat="43.86635574094797" lon="10.756526574729271"><ele>16.0</ele><time>2026-04-09T13:25:07Z</time></trkpt><trkpt lat="43.86620036822662" lon="10.75628387816476"><ele>16.0</ele><time>2026-04-09T13:25:08Z</time></trkpt><trkpt lat="43.86604679585935" lon="10.756042899156597"><ele>15.5</ele><time>2026-04-09T13:25:09Z</time></trkpt><trkpt lat="43.8658897851459" lon="10.755801788433482"><ele>15.0</ele><time>2026-04-09T13:25:10Z</time></trkpt><trkpt lat="43.865733733605545" lon="10.75555784352272"><ele>15.0</ele><time>2026-04-09T13:25:11Z</time></trkpt><trkpt lat="43.86557827105542" lon="10.755310773167874"><ele>15.0</ele><time>2026-04-09T13:25:12Z</time></trkpt><trkpt lat="43.8654212118785" lon="10.755065299973587"><ele>15.5</ele><time>2026-04-09T13:25:13Z</time></trkpt><trkpt lat="43.86526461287707" lon="10.75481812124134"><ele>16.0</ele><time>2026-04-09T13:25:14Z</time></trkpt><trkpt lat="43.86510722189073" lon="10.754568672601895"><ele>16.0</ele><time>2026-04-09T13:25:15Z</time></trkpt><trkpt lat="43.86494844910088" lon="10.754319554117313"><ele>16.0</ele><time>2026-04-09T13:25:16Z</time></trkpt><trkpt lat="43.864788967183486" lon="10.754069041067646"><ele>16.0</ele><time>2026-04-09T13:25:17Z</time></trkpt><trkpt lat="43.86462919222426" lon="10.753814246358802"><ele>16.0</ele><time>2026-04-09T13:25:18Z</time></trkpt><trkpt lat="43.86446876420677" lon="10.75355715738748"><ele>16.5</ele><time>2026-04-09T13:25:19Z</time></trkpt><trkpt lat="43.864304006716196" lon="10.75329918211932"><ele>17.0</ele><time>2026-04-09T13:25:20Z</time></trkpt><trkpt lat="43.86413770354099" lon="10.753038819565388"><ele>17.5</ele><time>2026-04-09T13:25:21Z</time></trkpt><trkpt lat="43.863968071771076" lon="10.752775863636616"><ele>18.0</ele><time>2026-04-09T13:25:22Z</time></trkpt><trkpt lat="43.86379902333278" lon="10.75251134111224"><ele>17.0</ele><time>2026-04-09T13:25:23Z</time></trkpt><trkpt lat="43.86362908766503" lon="10.752243917391457"><ele>16.0</ele><time>2026-04-09T13:25:24Z</time></trkpt><trkpt lat="43.86346230116428" lon="10.751975054109714"><ele>16.5</ele><time>2026-04-09T13:25:25Z</time></trkpt><trkpt lat="43.863291639152635" lon="10.751704538960258"><ele>17.0</ele><time>2026-04-09T13:25:26Z</time></trkpt><trkpt lat="43.86311752578995" lon="10.75143427494835"><ele>17.0</ele><time>2026-04-09T13:25:27Z</time></trkpt><trkpt lat="43.862945174320394" lon="10.751166923289832"><ele>17.0</ele><time>2026-04-09T13:25:28Z</time></trkpt><trkpt lat="43.86278549014555" lon="10.750916904707363"><ele>17.0</ele><time>2026-04-09T13:25:29Z</time></trkpt><trkpt lat="43.86263464206488" lon="10.75067734312017"><ele>17.0</ele><time>2026-04-09T13:25:30Z</time></trkpt><trkpt lat="43.86248759848854" lon="10.750443956524345"><ele>17.0</ele><time>2026-04-09T13:25:31Z</time></trkpt><trkpt lat="43.86233921583338" lon="10.75020968009757"><ele>17.0</ele><time>2026-04-09T13:25:32Z</time></trkpt><trkpt lat="43.86218928097612" lon="10.749974906409637"><ele>18.0</ele><time>2026-04-09T13:25:33Z</time></trkpt><trkpt lat="43.862038242060436" lon="10.74973826019481"><ele>19.0</ele><time>2026-04-09T13:25:34Z</time></trkpt><trkpt lat="43.86188535356705" lon="10.749502526157281"><ele>19.0</ele><time>2026-04-09T13:25:35Z</time></trkpt><trkpt lat="43.861732816980265" lon="10.74926433783984"><ele>19.0</ele><time>2026-04-09T13:25:36Z</time></trkpt><trkpt lat="43.86158130289673" lon="10.749026120882393"><ele>19.0</ele><time>2026-04-09T13:25:37Z</time></trkpt><trkpt lat="43.86143289693408" lon="10.748787964463972"><ele>19.0</ele><time>2026-04-09T13:25:38Z</time></trkpt><trkpt lat="43.86128438155272" lon="10.748550890675324"><ele>18.0</ele><time>2026-04-09T13:25:39Z</time></trkpt><trkpt lat="43.86113621937329" lon="10.74831557895853"><ele>17.0</ele><time>2026-04-09T13:25:40Z</time></trkpt><trkpt lat="43.86098709080098" lon="10.7480799944836"><ele>17.0</ele><time>2026-04-09T13:25:41Z</time></trkpt><trkpt lat="43.860840093514526" lon="10.747846005992011"><ele>17.0</ele><time>2026-04-09T13:25:42Z</time></trkpt><trkpt lat="43.86069379395737" lon="10.747614597871626"><ele>17.0</ele><time>2026-04-09T13:25:43Z</time></trkpt><trkpt lat="43.86054777330939" lon="10.747386512163503"><ele>17.0</ele><time>2026-04-09T13:25:44Z</time></trkpt><trkpt lat="43.86040235596096" lon="10.747160636453788"><ele>17.0</ele><time>2026-04-09T13:25:45Z</time></trkpt><trkpt lat="43.86026168386423" lon="10.746935446232252"><ele>17.0</ele><time>2026-04-09T13:25:46Z</time></trkpt><trkpt lat="43.86012591687599" lon="10.746722305378672"><ele>18.0</ele><time>2026-04-09T13:25:47Z</time></trkpt><trkpt lat="43.85999395676095" lon="10.746513540685182"><ele>19.0</ele><time>2026-04-09T13:25:48Z</time></trkpt><trkpt lat="43.859860322179976" lon="10.746300845037885"><ele>20.0</ele><time>2026-04-09T13:25:49Z</time></trkpt><trkpt lat="43.859724281944736" lon="10.746084485942127"><ele>19.666666666666668</ele><time>2026-04-09T13:25:50Z</time></trkpt><trkpt lat="43.8595835229504" lon="10.745864198344723"><ele>19.333333333333332</ele><time>2026-04-09T13:25:51Z</time></trkpt><trkpt lat="43.859441551438955" lon="10.745640030006731"><ele>19.0</ele><time>2026-04-09T13:25:52Z</time></trkpt><trkpt lat="43.85929694436387" lon="10.74541132971542"><ele>18.666666666666664</ele><time>2026-04-09T13:25:53Z</time></trkpt><trkpt lat="43.85915031678182" lon="10.745181291087395"><ele>18.333333333333332</ele><time>2026-04-09T13:25:53.999Z</time></trkpt><trkpt lat="43.85900867232271" lon="10.744963551189663"><ele>18.0</ele><time>2026-04-09T13:25:54.999Z</time></trkpt><trkpt lat="43.85887027546241" lon="10.744750930390618"><ele>18.0</ele><time>2026-04-09T13:25:55.999Z</time></trkpt><trkpt lat="43.85872996986873" lon="10.744533041450005"><ele>18.0</ele><time>2026-04-09T13:25:56.999Z</time></trkpt><trkpt lat="43.85858826875947" lon="10.744310441507503"><ele>18.0</ele><time>2026-04-09T13:25:57.999Z</time></trkpt><trkpt lat="43.85845244202418" lon="10.744096113015702"><ele>18.0</ele><time>2026-04-09T13:25:58.999Z</time></trkpt><trkpt lat="43.85831790336445" lon="10.743882837922277"><ele>18.0</ele><time>2026-04-09T13:25:59.999Z</time></trkpt><trkpt lat="43.85818029966536" lon="10.743663123347464"><ele>18.0</ele><time>2026-04-09T13:26:00.999Z</time></trkpt><trkpt lat="43.858036247486964" lon="10.743435943116632"><ele>18.0</ele><time>2026-04-09T13:26:01.999Z</time></trkpt><trkpt lat="43.85789170264049" lon="10.743208287775476"><ele>18.0</ele><time>2026-04-09T13:26:02.999Z</time></trkpt><trkpt lat="43.85774852406219" lon="10.742982985840161"><ele>18.0</ele><time>2026-04-09T13:26:03.999Z</time></trkpt><trkpt lat="43.85761151850753" lon="10.74277076936467"><ele>18.0</ele><time>2026-04-09T13:26:04.999Z</time></trkpt><trkpt lat="43.85747963378282" lon="10.742567916454377"><ele>18.0</ele><time>2026-04-09T13:26:05.999Z</time></trkpt><trkpt lat="43.85735127227783" lon="10.742366823509771"><ele>18.0</ele><time>2026-04-09T13:26:06.999Z</time></trkpt><trkpt lat="43.857224472650515" lon="10.742166534723841"><ele>18.0</ele><time>2026-04-09T13:26:07.999Z</time></trkpt><trkpt lat="43.85709778459518" lon="10.741965334701131"><ele>18.0</ele><time>2026-04-09T13:26:08.999Z</time></trkpt><trkpt lat="43.8569688682934" lon="10.741761031356178"><ele>18.0</ele><time>2026-04-09T13:26:09.999Z</time></trkpt><trkpt lat="43.856839613695" lon="10.741555502996048"><ele>17.666666666666668</ele><time>2026-04-09T13:26:10.999Z</time></trkpt><trkpt lat="43.85670739062336" lon="10.74134708158339"><ele>17.333333333333336</ele><time>2026-04-09T13:26:11.999Z</time></trkpt><trkpt lat="43.85657436944543" lon="10.741134457171425"><ele>17.0</ele><time>2026-04-09T13:26:12.999Z</time></trkpt><trkpt lat="43.85643884718298" lon="10.740920526332653"><ele>17.0</ele><time>2026-04-09T13:26:13.999Z</time></trkpt><trkpt lat="43.856301398346965" lon="10.740705507990043"><ele>17.0</ele><time>2026-04-09T13:26:14.999Z</time></trkpt><trkpt lat="43.85616138278112" lon="10.740489627811714"><ele>17.0</ele><time>2026-04-09T13:26:16Z</time></trkpt><trkpt lat="43.85602133051761" lon="10.74027021669631"><ele>17.0</ele><time>2026-04-09T13:26:17Z</time></trkpt><trkpt lat="43.85587948682059" lon="10.740049049667396"><ele>17.0</ele><time>2026-04-09T13:26:18Z</time></trkpt><trkpt lat="43.85573832547861" lon="10.73982427841566"><ele>17.0</ele><time>2026-04-09T13:26:19Z</time></trkpt><trkpt lat="43.85559577756531" lon="10.73959801891504"><ele>16.666666666666668</ele><time>2026-04-09T13:26:20Z</time></trkpt><trkpt lat="43.85545180111052" lon="10.739369474980315"><ele>16.333333333333332</ele><time>2026-04-09T13:26:21Z</time></trkpt><trkpt lat="43.85530507274113" lon="10.739139408464826"><ele>16.0</ele><time>2026-04-09T13:26:22Z</time></trkpt><trkpt lat="43.85515798616178" lon="10.738907732905346"><ele>16.5</ele><time>2026-04-09T13:26:23Z</time></trkpt><trkpt lat="43.85500721292123" lon="10.738676226372633"><ele>17.0</ele><time>2026-04-09T13:26:24Z</time></trkpt><trkpt lat="43.85485659648638" lon="10.738441461891938"><ele>17.0</ele><time>2026-04-09T13:26:25Z</time></trkpt><trkpt lat="43.85470514545329" lon="10.738205192632117"><ele>17.0</ele><time>2026-04-09T13:26:26Z</time></trkpt><trkpt lat="43.854553978727154" lon="10.73796521592961"><ele>17.0</ele><time>2026-04-09T13:26:27Z</time></trkpt><trkpt lat="43.854402037867814" lon="10.737723180997374"><ele>17.0</ele><time>2026-04-09T13:26:28Z</time></trkpt><trkpt lat="43.85424902596917" lon="10.73747807298905"><ele>18.5</ele><time>2026-04-09T13:26:29Z</time></trkpt><trkpt lat="43.85409246399866" lon="10.73723230146513"><ele>20.0</ele><time>2026-04-09T13:26:30Z</time></trkpt><trkpt lat="43.853936492628556" lon="10.736990126221096"><ele>19.0</ele><time>2026-04-09T13:26:31Z</time></trkpt><trkpt lat="43.85379078180728" lon="10.736759264076806"><ele>18.0</ele><time>2026-04-09T13:26:32Z</time></trkpt><trkpt lat="43.8536471278887" lon="10.7365340409541"><ele>17.0</ele><time>2026-04-09T13:26:33Z</time></trkpt><trkpt lat="43.85349952561371" lon="10.736309106030285"><ele>17.666666666666668</ele><time>2026-04-09T13:26:34Z</time></trkpt><trkpt lat="43.85335210717805" lon="10.736077221389028"><ele>18.333333333333332</ele><time>2026-04-09T13:26:35Z</time></trkpt><trkpt lat="43.85320277628961" lon="10.735842585688554"><ele>19.0</ele><time>2026-04-09T13:26:36Z</time></trkpt><trkpt lat="43.85305214493517" lon="10.735605307861496"><ele>17.0</ele><time>2026-04-09T13:26:37Z</time></trkpt><trkpt lat="43.85289934435659" lon="10.735366394364164"><ele>15.0</ele><time>2026-04-09T13:26:38Z</time></trkpt><trkpt lat="43.85274713712924" lon="10.73512615650531"><ele>15.5</ele><time>2026-04-09T13:26:39Z</time></trkpt><trkpt lat="43.852592172546615" lon="10.734887751896784"><ele>16.0</ele><time>2026-04-09T13:26:40Z</time></trkpt><trkpt lat="43.85243911836257" lon="10.734647212365969"><ele>16.0</ele><time>2026-04-09T13:26:41Z</time></trkpt><trkpt lat="43.85228411664023" lon="10.73440933716008"><ele>16.0</ele><time>2026-04-09T13:26:42Z</time></trkpt><trkpt lat="43.85213329708511" lon="10.734169271954743"><ele>16.5</ele><time>2026-04-09T13:26:43Z</time></trkpt><trkpt lat="43.851981675013135" lon="10.733927610953684"><ele>17.0</ele><time>2026-04-09T13:26:44Z</time></trkpt><trkpt lat="43.851829249776564" lon="10.733689211293164"><ele>17.0</ele><time>2026-04-09T13:26:45Z</time></trkpt><trkpt lat="43.85167790624222" lon="10.73345364885725"><ele>17.0</ele><time>2026-04-09T13:26:46Z</time></trkpt><trkpt lat="43.85152781080165" lon="10.7332211167648"><ele>17.0</ele><time>2026-04-09T13:26:47Z</time></trkpt><trkpt lat="43.85137930701042" lon="10.732989898086478"><ele>17.0</ele><time>2026-04-09T13:26:48Z</time></trkpt><trkpt lat="43.8512329566791" lon="10.732759860446043"><ele>17.0</ele><time>2026-04-09T13:26:49Z</time></trkpt><trkpt lat="43.851086192389126" lon="10.732528090745005"><ele>17.333333333333336</ele><time>2026-04-09T13:26:50Z</time></trkpt><trkpt lat="43.85093971543554" lon="10.732295402412733"><ele>17.666666666666668</ele><time>2026-04-09T13:26:51Z</time></trkpt><trkpt lat="43.85079178120857" lon="10.732062129824389"><ele>18.0</ele><time>2026-04-09T13:26:52Z</time></trkpt><trkpt lat="43.850645448253914" lon="10.731829600834164"><ele>18.0</ele><time>2026-04-09T13:26:53Z</time></trkpt><trkpt lat="43.850499709643344" lon="10.731594974299927"><ele>18.0</ele><time>2026-04-09T13:26:54Z</time></trkpt><trkpt lat="43.850353259607154" lon="10.731363093874604"><ele>18.0</ele><time>2026-04-09T13:26:55Z</time></trkpt><trkpt lat="43.85020373454664" lon="10.731133451057612"><ele>18.0</ele><time>2026-04-09T13:26:56Z</time></trkpt><trkpt lat="43.850053822339305" lon="10.730905717498501"><ele>18.0</ele><time>2026-04-09T13:26:57Z</time></trkpt><trkpt lat="43.84990532472986" lon="10.73067483168259"><ele>18.0</ele><time>2026-04-09T13:26:58Z</time></trkpt><trkpt lat="43.84975880033476" lon="10.730444914404167"><ele>18.666666666666668</ele><time>2026-04-09T13:26:59Z</time></trkpt><trkpt lat="43.849615553270475" lon="10.730214247779461"><ele>19.333333333333336</ele><time>2026-04-09T13:27:00Z</time></trkpt><trkpt lat="43.849472967911254" lon="10.729984802181777"><ele>20.0</ele><time>2026-04-09T13:27:01Z</time></trkpt><trkpt lat="43.84933181173571" lon="10.729760403641434"><ele>20.333333333333336</ele><time>2026-04-09T13:27:02Z</time></trkpt><trkpt lat="43.849190902816275" lon="10.729542909705318"><ele>20.666666666666668</ele><time>2026-04-09T13:27:03Z</time></trkpt><trkpt lat="43.849053669331624" lon="10.72932375160954"><ele>21.0</ele><time>2026-04-09T13:27:04Z</time></trkpt><trkpt lat="43.848912421693164" lon="10.729105952760298"><ele>21.0</ele><time>2026-04-09T13:27:05Z</time></trkpt><trkpt lat="43.848771380624555" lon="10.728880340429743"><ele>21.0</ele><time>2026-04-09T13:27:06Z</time></trkpt><trkpt lat="43.84862707086206" lon="10.728655854175356"><ele>21.0</ele><time>2026-04-09T13:27:07Z</time></trkpt><trkpt lat="43.84848300368969" lon="10.728426743880963"><ele>21.0</ele><time>2026-04-09T13:27:08Z</time></trkpt><trkpt lat="43.84833713771689" lon="10.728195893970845"><ele>21.0</ele><time>2026-04-09T13:27:09Z</time></trkpt><trkpt lat="43.84819189440159" lon="10.72795346292692"><ele>21.0</ele><time>2026-04-09T13:27:10Z</time></trkpt><trkpt lat="43.84804761359893" lon="10.727723588150873"><ele>21.0</ele><time>2026-04-09T13:27:11Z</time></trkpt><trkpt lat="43.84791032263292" lon="10.727502246010786"><ele>21.0</ele><time>2026-04-09T13:27:12Z</time></trkpt><trkpt lat="43.847771998463635" lon="10.72728381032934"><ele>21.0</ele><time>2026-04-09T13:27:13Z</time></trkpt><trkpt lat="43.847629793605094" lon="10.727066342177345"><ele>20.666666666666668</ele><time>2026-04-09T13:27:14Z</time></trkpt><trkpt lat="43.84748229441802" lon="10.7268445004773"><ele>20.333333333333336</ele><time>2026-04-09T13:27:15Z</time></trkpt><trkpt lat="43.84732645302126" lon="10.726608699753937"><ele>20.0</ele><time>2026-04-09T13:27:16Z</time></trkpt><trkpt lat="43.847165371228044" lon="10.726361870779783"><ele>20.0</ele><time>2026-04-09T13:27:17Z</time></trkpt><trkpt lat="43.84700167669226" lon="10.72610376151897"><ele>20.0</ele><time>2026-04-09T13:27:18Z</time></trkpt><trkpt lat="43.84683471072279" lon="10.725836838609244"><ele>19.5</ele><time>2026-04-09T13:27:19Z</time></trkpt><trkpt lat="43.846664547732715" lon="10.725563921137688"><ele>19.0</ele><time>2026-04-09T13:27:20Z</time></trkpt><trkpt lat="43.84648973156731" lon="10.72528739603561"><ele>20.0</ele><time>2026-04-09T13:27:21Z</time></trkpt><trkpt lat="43.84630784517988" lon="10.725009774570022"><ele>21.0</ele><time>2026-04-09T13:27:22Z</time></trkpt><trkpt lat="43.84612594913939" lon="10.724727798204581"><ele>21.0</ele><time>2026-04-09T13:27:23Z</time></trkpt><trkpt lat="43.8459437343462" lon="10.724441858557704"><ele>21.0</ele><time>2026-04-09T13:27:24Z</time></trkpt><trkpt lat="43.84576069175061" lon="10.724151799626279"><ele>21.0</ele><time>2026-04-09T13:27:25Z</time></trkpt><trkpt lat="43.845574413281916" lon="10.723860317342982"><ele>21.0</ele><time>2026-04-09T13:27:26Z</time></trkpt><trkpt lat="43.845385010275834" lon="10.723569666738257"><ele>20.5</ele><time>2026-04-09T13:27:27Z</time></trkpt><trkpt lat="43.84520092117969" lon="10.72328420744522"><ele>20.0</ele><time>2026-04-09T13:27:28Z</time></trkpt><trkpt lat="43.84502414229247" lon="10.723009780004714"><ele>20.0</ele><time>2026-04-09T13:27:29Z</time></trkpt><trkpt lat="43.844848172981685" lon="10.722732874085038"><ele>20.0</ele><time>2026-04-09T13:27:30Z</time></trkpt><trkpt lat="43.84467138936709" lon="10.722456865487796"><ele>20.0</ele><time>2026-04-09T13:27:31Z</time></trkpt><trkpt lat="43.844494308975655" lon="10.722175391732678"><ele>20.0</ele><time>2026-04-09T13:27:32Z</time></trkpt><trkpt lat="43.844315102262776" lon="10.72189449665053"><ele>20.0</ele><time>2026-04-09T13:27:33Z</time></trkpt><trkpt lat="43.8441339379722" lon="10.721613269346532"><ele>20.0</ele><time>2026-04-09T13:27:34Z</time></trkpt><trkpt lat="43.84395142481288" lon="10.721330861335394"><ele>20.0</ele><time>2026-04-09T13:27:35Z</time></trkpt><trkpt lat="43.84376780885697" lon="10.721043194863555"><ele>20.0</ele><time>2026-04-09T13:27:36Z</time></trkpt><trkpt lat="43.84358310519931" lon="10.720757676468617"><ele>21.0</ele><time>2026-04-09T13:27:37Z</time></trkpt><trkpt lat="43.84340117837854" lon="10.720467328040556"><ele>22.0</ele><time>2026-04-09T13:27:38Z</time></trkpt><trkpt lat="43.84322531571753" lon="10.720191930542205"><ele>22.5</ele><time>2026-04-09T13:27:39Z</time></trkpt><trkpt lat="43.84305886169698" lon="10.719920723271102"><ele>23.0</ele><time>2026-04-09T13:27:40Z</time></trkpt><trkpt lat="43.842894020405986" lon="10.719648522793621"><ele>22.5</ele><time>2026-04-09T13:27:41Z</time></trkpt><trkpt lat="43.842728839454374" lon="10.719376037094058"><ele>22.0</ele><time>2026-04-09T13:27:42Z</time></trkpt><trkpt lat="43.84256263480765" lon="10.71910332865654"><ele>21.5</ele><time>2026-04-09T13:27:43Z</time></trkpt><trkpt lat="43.84239489968118" lon="10.718832242541765"><ele>21.0</ele><time>2026-04-09T13:27:44Z</time></trkpt><trkpt lat="43.84222530276081" lon="10.718560815093038"><ele>20.5</ele><time>2026-04-09T13:27:45Z</time></trkpt><trkpt lat="43.84205456050575" lon="10.718288588530928"><ele>20.0</ele><time>2026-04-09T13:27:46Z</time></trkpt><trkpt lat="43.84188086910849" lon="10.718013872578696"><ele>20.5</ele><time>2026-04-09T13:27:47Z</time></trkpt><trkpt lat="43.841706414221335" lon="10.71773731962918"><ele>21.0</ele><time>2026-04-09T13:27:48Z</time></trkpt><trkpt lat="43.841530535808346" lon="10.71745958378378"><ele>21.0</ele><time>2026-04-09T13:27:49Z</time></trkpt><trkpt lat="43.841353928745846" lon="10.717179839693781"><ele>21.0</ele><time>2026-04-09T13:27:50Z</time></trkpt><trkpt lat="43.84117625517187" lon="10.716902271099993"><ele>21.5</ele><time>2026-04-09T13:27:51Z</time></trkpt><trkpt lat="43.841002842354555" lon="10.71662095839671"><ele>22.0</ele><time>2026-04-09T13:27:52Z</time></trkpt><trkpt lat="43.84082665015245" lon="10.716342004273057"><ele>22.0</ele><time>2026-04-09T13:27:53Z</time></trkpt><trkpt lat="43.840650867260415" lon="10.716066894378262"><ele>22.0</ele><time>2026-04-09T13:27:54Z</time></trkpt><trkpt lat="43.84047383084507" lon="10.715790764561554"><ele>22.0</ele><time>2026-04-09T13:27:55Z</time></trkpt><trkpt lat="43.84030088015155" lon="10.715511904722662"><ele>22.0</ele><time>2026-04-09T13:27:56Z</time></trkpt><trkpt lat="43.840128562697" lon="10.715235533261307"><ele>20.5</ele><time>2026-04-09T13:27:57Z</time></trkpt><trkpt lat="43.839956039887895" lon="10.714960594827073"><ele>19.0</ele><time>2026-04-09T13:27:58Z</time></trkpt><trkpt lat="43.83978209771411" lon="10.714683411666272"><ele>19.0</ele><time>2026-04-09T13:27:59Z</time></trkpt><trkpt lat="43.83960632408037" lon="10.714407541065594"><ele>19.0</ele><time>2026-04-09T13:28:00Z</time></trkpt><trkpt lat="43.83942921360341" lon="10.71413409323194"><ele>18.5</ele><time>2026-04-09T13:28:01Z</time></trkpt><trkpt lat="43.83925390128218" lon="10.713854929192413"><ele>18.0</ele><time>2026-04-09T13:28:01.999Z</time></trkpt><trkpt lat="43.839076311687585" lon="10.713572546370631"><ele>18.0</ele><time>2026-04-09T13:28:02.999Z</time></trkpt><trkpt lat="43.838897109856205" lon="10.713287669446283"><ele>18.0</ele><time>2026-04-09T13:28:03.999Z</time></trkpt><trkpt lat="43.838716113373266" lon="10.713004193268533"><ele>17.5</ele><time>2026-04-09T13:28:04.999Z</time></trkpt><trkpt lat="43.83853433835226" lon="10.712718293977572"><ele>17.0</ele><time>2026-04-09T13:28:05.999Z</time></trkpt><trkpt lat="43.83835190547037" lon="10.712431311540536"><ele>18.0</ele><time>2026-04-09T13:28:06.999Z</time></trkpt><trkpt lat="43.83816951763146" lon="10.712142309260637"><ele>19.0</ele><time>2026-04-09T13:28:07.999Z</time></trkpt><trkpt lat="43.83798276025126" lon="10.711856535741244"><ele>19.0</ele><time>2026-04-09T13:28:08.999Z</time></trkpt><trkpt lat="43.83780159975365" lon="10.711569055391303"><ele>19.0</ele><time>2026-04-09T13:28:09.999Z</time></trkpt><trkpt lat="43.83761976073677" lon="10.71128082364443"><ele>19.0</ele><time>2026-04-09T13:28:10.999Z</time></trkpt><trkpt lat="43.83743700320516" lon="10.71099397210282"><ele>19.0</ele><time>2026-04-09T13:28:11.999Z</time></trkpt><trkpt lat="43.837257119517524" lon="10.710703371723794"><ele>19.0</ele><time>2026-04-09T13:28:12.999Z</time></trkpt><trkpt lat="43.83707306358489" lon="10.710417246728298"><ele>19.0</ele><time>2026-04-09T13:28:13.999Z</time></trkpt><trkpt lat="43.83688874368068" lon="10.71012852575415"><ele>19.5</ele><time>2026-04-09T13:28:14.999Z</time></trkpt><trkpt lat="43.83670622700303" lon="10.7098429111202"><ele>20.0</ele><time>2026-04-09T13:28:15.999Z</time></trkpt><trkpt lat="43.83652214708017" lon="10.709554392171333"><ele>19.0</ele><time>2026-04-09T13:28:16.999Z</time></trkpt><trkpt lat="43.83633992927512" lon="10.709266609852476"><ele>18.0</ele><time>2026-04-09T13:28:17.999Z</time></trkpt><trkpt lat="43.836154182333225" lon="10.7089805252853"><ele>18.5</ele><time>2026-04-09T13:28:18.999Z</time></trkpt><trkpt lat="43.83596774131746" lon="10.708693342713865"><ele>19.0</ele><time>2026-04-09T13:28:19.999Z</time></trkpt><trkpt lat="43.83577973938075" lon="10.708407742107688"><ele>19.0</ele><time>2026-04-09T13:28:20.999Z</time></trkpt><trkpt lat="43.83559496738369" lon="10.708123154955064"><ele>19.0</ele><time>2026-04-09T13:28:22Z</time></trkpt><trkpt lat="43.835410330266924" lon="10.707837661879173"><ele>19.0</ele><time>2026-04-09T13:28:23Z</time></trkpt><trkpt lat="43.83522902023443" lon="10.70755259205805"><ele>19.0</ele><time>2026-04-09T13:28:24Z</time></trkpt><trkpt lat="43.83504955359085" lon="10.707265726660928"><ele>19.0</ele><time>2026-04-09T13:28:25Z</time></trkpt><trkpt lat="43.83486794558848" lon="10.706979880868126"><ele>19.0</ele><time>2026-04-09T13:28:26Z</time></trkpt><trkpt lat="43.83468800149806" lon="10.706695317608308"><ele>19.0</ele><time>2026-04-09T13:28:27Z</time></trkpt><trkpt lat="43.83450770992687" lon="10.706413550642669"><ele>19.0</ele><time>2026-04-09T13:28:28Z</time></trkpt><trkpt lat="43.83432723174247" lon="10.706135663069805"><ele>18.5</ele><time>2026-04-09T13:28:29Z</time></trkpt><trkpt lat="43.834147902870164" lon="10.705860655642244"><ele>18.0</ele><time>2026-04-09T13:28:30Z</time></trkpt><trkpt lat="43.83397046117512" lon="10.705586511314182"><ele>18.0</ele><time>2026-04-09T13:28:31Z</time></trkpt><trkpt lat="43.83379485829309" lon="10.7053173258674"><ele>18.0</ele><time>2026-04-09T13:28:32Z</time></trkpt><trkpt lat="43.833629576624645" lon="10.7050627084958"><ele>18.5</ele><time>2026-04-09T13:28:33Z</time></trkpt><trkpt lat="43.83347231440929" lon="10.704819200779617"><ele>19.0</ele><time>2026-04-09T13:28:34Z</time></trkpt><trkpt lat="43.833317739664885" lon="10.704576283663291"><ele>20.0</ele><time>2026-04-09T13:28:35Z</time></trkpt><trkpt lat="43.83315953587686" lon="10.704323831954904"><ele>21.0</ele><time>2026-04-09T13:28:36Z</time></trkpt><trkpt lat="43.83299727748586" lon="10.704066825783581"><ele>21.0</ele><time>2026-04-09T13:28:37Z</time></trkpt><trkpt lat="43.832829863496364" lon="10.70380996444411"><ele>21.0</ele><time>2026-04-09T13:28:38Z</time></trkpt><trkpt lat="43.83266445967598" lon="10.703553507829271"><ele>20.0</ele><time>2026-04-09T13:28:39Z</time></trkpt><trkpt lat="43.832508908239305" lon="10.703306533859074"><ele>19.0</ele><time>2026-04-09T13:28:40Z</time></trkpt><trkpt lat="43.832359980252235" lon="10.703071152517898"><ele>19.0</ele><time>2026-04-09T13:28:41Z</time></trkpt><trkpt lat="43.832215686063904" lon="10.702845386267283"><ele>19.0</ele><time>2026-04-09T13:28:42Z</time></trkpt><trkpt lat="43.83207679191757" lon="10.70262925427754"><ele>19.0</ele><time>2026-04-09T13:28:43Z</time></trkpt><trkpt lat="43.831937204985515" lon="10.702408732006383"><ele>20.333333333333332</ele><time>2026-04-09T13:28:44Z</time></trkpt><trkpt lat="43.831790519826036" lon="10.70217938162503"><ele>21.666666666666668</ele><time>2026-04-09T13:28:45Z</time></trkpt><trkpt lat="43.83164322475898" lon="10.70194206734273"><ele>23.0</ele><time>2026-04-09T13:28:46Z</time></trkpt><trkpt lat="43.83148567633532" lon="10.701693568576754"><ele>24.0</ele><time>2026-04-09T13:28:47Z</time></trkpt><trkpt lat="43.83131546305218" lon="10.701437739935502"><ele>25.0</ele><time>2026-04-09T13:28:48Z</time></trkpt><trkpt lat="43.83115790278729" lon="10.701194023040172"><ele>24.5</ele><time>2026-04-09T13:28:49Z</time></trkpt><trkpt lat="43.83099893618751" lon="10.700949044107507"><ele>24.0</ele><time>2026-04-09T13:28:50Z</time></trkpt><trkpt lat="43.83083786753484" lon="10.700692972510424"><ele>23.5</ele><time>2026-04-09T13:28:51Z</time></trkpt><trkpt lat="43.830677462300216" lon="10.70042816832207"><ele>23.0</ele><time>2026-04-09T13:28:52Z</time></trkpt><trkpt lat="43.83051845588807" lon="10.70017593760098"><ele>22.0</ele><time>2026-04-09T13:28:53Z</time></trkpt><trkpt lat="43.83036723193207" lon="10.699934922021729"><ele>21.0</ele><time>2026-04-09T13:28:54Z</time></trkpt><trkpt lat="43.83021934731123" lon="10.699703354357695"><ele>21.0</ele><time>2026-04-09T13:28:55Z</time></trkpt><trkpt lat="43.8300706330154" lon="10.699470382422506"><ele>21.0</ele><time>2026-04-09T13:28:56Z</time></trkpt><trkpt lat="43.82991926453378" lon="10.699236706650842"><ele>21.0</ele><time>2026-04-09T13:28:57Z</time></trkpt><trkpt lat="43.82976891212177" lon="10.699004871435706"><ele>21.0</ele><time>2026-04-09T13:28:58Z</time></trkpt><trkpt lat="43.82963007475996" lon="10.698779551307393"><ele>21.0</ele><time>2026-04-09T13:28:59Z</time></trkpt><trkpt lat="43.829494650248066" lon="10.698564587857309"><ele>20.0</ele><time>2026-04-09T13:29:00Z</time></trkpt><trkpt lat="43.829360795019994" lon="10.698351371364845"><ele>19.0</ele><time>2026-04-09T13:29:01Z</time></trkpt><trkpt lat="43.82922302941692" lon="10.698135401180203"><ele>18.0</ele><time>2026-04-09T13:29:02Z</time></trkpt><trkpt lat="43.829080828052255" lon="10.697915321141783"><ele>17.666666666666668</ele><time>2026-04-09T13:29:03Z</time></trkpt><trkpt lat="43.82893545711862" lon="10.69769121646051"><ele>17.333333333333336</ele><time>2026-04-09T13:29:04Z</time></trkpt><trkpt lat="43.828788043192034" lon="10.697461915541629"><ele>17.0</ele><time>2026-04-09T13:29:05Z</time></trkpt><trkpt lat="43.82863854031752" lon="10.697226525479692"><ele>17.0</ele><time>2026-04-09T13:29:06Z</time></trkpt><trkpt lat="43.82848755261412" lon="10.696988889605786"><ele>17.0</ele><time>2026-04-09T13:29:07Z</time></trkpt><trkpt lat="43.82833584507898" lon="10.696742844484776"><ele>16.5</ele><time>2026-04-09T13:29:08Z</time></trkpt><trkpt lat="43.82818127115056" lon="10.696496172330018"><ele>16.0</ele><time>2026-04-09T13:29:09Z</time></trkpt><trkpt lat="43.828023154506255" lon="10.69624749231315"><ele>16.333333333333332</ele><time>2026-04-09T13:29:10Z</time></trkpt><trkpt lat="43.827871948658654" lon="10.69601425434936"><ele>16.666666666666668</ele><time>2026-04-09T13:29:11Z</time></trkpt><trkpt lat="43.82772450159705" lon="10.695784597380642"><ele>17.0</ele><time>2026-04-09T13:29:12Z</time></trkpt><trkpt lat="43.827573621309796" lon="10.695550255306664"><ele>17.0</ele><time>2026-04-09T13:29:13Z</time></trkpt><trkpt lat="43.82742132928243" lon="10.695312980282159"><ele>17.0</ele><time>2026-04-09T13:29:14Z</time></trkpt><trkpt lat="43.82726817381367" lon="10.695070625202046"><ele>17.0</ele><time>2026-04-09T13:29:15Z</time></trkpt><trkpt lat="43.82711221050461" lon="10.69482618849592"><ele>17.0</ele><time>2026-04-09T13:29:16Z</time></trkpt><trkpt lat="43.82695270618155" lon="10.69457877322416"><ele>18.5</ele><time>2026-04-09T13:29:17Z</time></trkpt><trkpt lat="43.826793194338265" lon="10.69432767737308"><ele>20.0</ele><time>2026-04-09T13:29:18Z</time></trkpt><trkpt lat="43.82664296758617" lon="10.694090667478317"><ele>20.0</ele><time>2026-04-09T13:29:19Z</time></trkpt><trkpt lat="43.82649868315673" lon="10.693863485668299"><ele>20.0</ele><time>2026-04-09T13:29:20Z</time></trkpt><trkpt lat="43.82635236713389" lon="10.693636366637737"><ele>20.0</ele><time>2026-04-09T13:29:21Z</time></trkpt><trkpt lat="43.826205136520365" lon="10.693404549212707"><ele>20.0</ele><time>2026-04-09T13:29:22Z</time></trkpt><trkpt lat="43.82605552689017" lon="10.69317169596632"><ele>20.0</ele><time>2026-04-09T13:29:23Z</time></trkpt><trkpt lat="43.82590531334318" lon="10.69293347333425"><ele>20.5</ele><time>2026-04-09T13:29:24Z</time></trkpt><trkpt lat="43.82575430360972" lon="10.692694438958618"><ele>21.0</ele><time>2026-04-09T13:29:25Z</time></trkpt><trkpt lat="43.82560354632937" lon="10.692451646032712"><ele>21.0</ele><time>2026-04-09T13:29:26Z</time></trkpt><trkpt lat="43.825448229128945" lon="10.692205731662499"><ele>21.0</ele><time>2026-04-09T13:29:27Z</time></trkpt><trkpt lat="43.825290075890464" lon="10.691959244319987"><ele>22.0</ele><time>2026-04-09T13:29:28Z</time></trkpt><trkpt lat="43.82513094950637" lon="10.691709559061943"><ele>23.0</ele><time>2026-04-09T13:29:29Z</time></trkpt><trkpt lat="43.82496835149121" lon="10.691457060657127"><ele>23.0</ele><time>2026-04-09T13:29:30Z</time></trkpt><trkpt lat="43.82480358077102" lon="10.691203403755367"><ele>23.0</ele><time>2026-04-09T13:29:31Z</time></trkpt><trkpt lat="43.82463857189658" lon="10.690945396310692"><ele>22.0</ele><time>2026-04-09T13:29:32Z</time></trkpt><trkpt lat="43.82447940166999" lon="10.690704614239879"><ele>21.0</ele><time>2026-04-09T13:29:33Z</time></trkpt><trkpt lat="43.824325796469" lon="10.690460195610715"><ele>21.5</ele><time>2026-04-09T13:29:34Z</time></trkpt><trkpt lat="43.824172033188695" lon="10.690214196747702"><ele>22.0</ele><time>2026-04-09T13:29:35Z</time></trkpt><trkpt lat="43.8240157659724" lon="10.689963574517506"><ele>22.0</ele><time>2026-04-09T13:29:36Z</time></trkpt><trkpt lat="43.82385883333867" lon="10.689716752250108"><ele>22.0</ele><time>2026-04-09T13:29:37Z</time></trkpt><trkpt lat="43.82370042950574" lon="10.689470375178143"><ele>21.0</ele><time>2026-04-09T13:29:38Z</time></trkpt><trkpt lat="43.823542045290736" lon="10.689222456108256"><ele>20.0</ele><time>2026-04-09T13:29:39Z</time></trkpt><trkpt lat="43.823383565908436" lon="10.688974120347327"><ele>20.0</ele><time>2026-04-09T13:29:40Z</time></trkpt><trkpt lat="43.823224403091906" lon="10.688723179819563"><ele>20.0</ele><time>2026-04-09T13:29:41Z</time></trkpt><trkpt lat="43.82306412057409" lon="10.688474034387916"><ele>22.0</ele><time>2026-04-09T13:29:42Z</time></trkpt><trkpt lat="43.82290349999328" lon="10.688227724894556"><ele>24.0</ele><time>2026-04-09T13:29:43Z</time></trkpt><trkpt lat="43.82275119903457" lon="10.687991001741816"><ele>23.5</ele><time>2026-04-09T13:29:44Z</time></trkpt><trkpt lat="43.82259732918524" lon="10.687745923265553"><ele>23.0</ele><time>2026-04-09T13:29:45Z</time></trkpt><trkpt lat="43.82244086550695" lon="10.687495262996823"><ele>23.0</ele><time>2026-04-09T13:29:46Z</time></trkpt><trkpt lat="43.82228096408088" lon="10.687244159925626"><ele>23.0</ele><time>2026-04-09T13:29:47Z</time></trkpt><trkpt lat="43.82212268077872" lon="10.686990450413907"><ele>23.0</ele><time>2026-04-09T13:29:48Z</time></trkpt><trkpt lat="43.82197057942574" lon="10.686750504554523"><ele>23.0</ele><time>2026-04-09T13:29:49Z</time></trkpt><trkpt lat="43.82182436446835" lon="10.686523094973408"><ele>21.666666666666668</ele><time>2026-04-09T13:29:50Z</time></trkpt><trkpt lat="43.821680568720566" lon="10.686304734508385"><ele>20.333333333333332</ele><time>2026-04-09T13:29:51Z</time></trkpt><trkpt lat="43.82154243614507" lon="10.686088701154082"><ele>19.0</ele><time>2026-04-09T13:29:52Z</time></trkpt><trkpt lat="43.82139647796349" lon="10.685867706535868"><ele>19.0</ele><time>2026-04-09T13:29:53Z</time></trkpt><trkpt lat="43.82125186299127" lon="10.685636527738748"><ele>19.0</ele><time>2026-04-09T13:29:54Z</time></trkpt><trkpt lat="43.821103162672145" lon="10.685402796237415"><ele>19.0</ele><time>2026-04-09T13:29:55Z</time></trkpt><trkpt lat="43.820962004152264" lon="10.685155361062328"><ele>19.5</ele><time>2026-04-09T13:29:56Z</time></trkpt><trkpt lat="43.82081807335166" lon="10.684903138271295"><ele>20.0</ele><time>2026-04-09T13:29:57Z</time></trkpt><trkpt lat="43.820676511134266" lon="10.684650469802497"><ele>20.666666666666668</ele><time>2026-04-09T13:29:58Z</time></trkpt><trkpt lat="43.82054203744914" lon="10.684403918062436"><ele>21.333333333333332</ele><time>2026-04-09T13:29:59Z</time></trkpt><trkpt lat="43.82041714793624" lon="10.684158853633253"><ele>22.0</ele><time>2026-04-09T13:30:00Z</time></trkpt><trkpt lat="43.82029174437927" lon="10.68390130082081"><ele>22.0</ele><time>2026-04-09T13:30:01Z</time></trkpt><trkpt lat="43.82016581805326" lon="10.683639901845021"><ele>22.0</ele><time>2026-04-09T13:30:02Z</time></trkpt><trkpt lat="43.82003947957486" lon="10.683375090245748"><ele>21.333333333333332</ele><time>2026-04-09T13:30:03Z</time></trkpt><trkpt lat="43.81991843384508" lon="10.68311665711935"><ele>20.666666666666668</ele><time>2026-04-09T13:30:04Z</time></trkpt><trkpt lat="43.81980579704509" lon="10.682864650609734"><ele>20.0</ele><time>2026-04-09T13:30:05Z</time></trkpt><trkpt lat="43.81969522149427" lon="10.682610947245667"><ele>20.0</ele><time>2026-04-09T13:30:06Z</time></trkpt><trkpt lat="43.819585539074126" lon="10.682347821144925"><ele>20.0</ele><time>2026-04-09T13:30:07Z</time></trkpt><trkpt lat="43.819479899370094" lon="10.682079953936569"><ele>20.0</ele><time>2026-04-09T13:30:08Z</time></trkpt><trkpt lat="43.81938453751141" lon="10.681819874011207"><ele>20.0</ele><time>2026-04-09T13:30:09Z</time></trkpt><trkpt lat="43.819291066403174" lon="10.681556049990718"><ele>20.0</ele><time>2026-04-09T13:30:09.999Z</time></trkpt><trkpt lat="43.81919475992216" lon="10.681289722930352"><ele>20.0</ele><time>2026-04-09T13:30:10.999Z</time></trkpt><trkpt lat="43.81909831189312" lon="10.681013789782494"><ele>19.5</ele><time>2026-04-09T13:30:11.999Z</time></trkpt><trkpt lat="43.81900113382003" lon="10.680733769861218"><ele>19.0</ele><time>2026-04-09T13:30:12.999Z</time></trkpt><trkpt lat="43.81889753228741" lon="10.680451367138748"><ele>18.5</ele><time>2026-04-09T13:30:13.999Z</time></trkpt><trkpt lat="43.81879006726014" lon="10.680166146788828"><ele>18.0</ele><time>2026-04-09T13:30:14.999Z</time></trkpt><trkpt lat="43.81867708397567" lon="10.67987550621951"><ele>18.0</ele><time>2026-04-09T13:30:15.999Z</time></trkpt><trkpt lat="43.8185618631442" lon="10.6795793034912"><ele>18.0</ele><time>2026-04-09T13:30:16.999Z</time></trkpt><trkpt lat="43.818449340614" lon="10.679270377048356"><ele>16.5</ele><time>2026-04-09T13:30:17.999Z</time></trkpt><trkpt lat="43.81833228505896" lon="10.678950217490021"><ele>15.0</ele><time>2026-04-09T13:30:18.999Z</time></trkpt><trkpt lat="43.81821384095724" lon="10.67862026040187"><ele>14.5</ele><time>2026-04-09T13:30:19.999Z</time></trkpt><trkpt lat="43.818086319252735" lon="10.678284270430181"><ele>14.0</ele><time>2026-04-09T13:30:20.999Z</time></trkpt><trkpt lat="43.81796025435459" lon="10.677933483991144"><ele>15.5</ele><time>2026-04-09T13:30:21.999Z</time></trkpt><trkpt lat="43.81783459443432" lon="10.67757908084167"><ele>17.0</ele><time>2026-04-09T13:30:22.999Z</time></trkpt><trkpt lat="43.8177072991965" lon="10.677218869951671"><ele>16.5</ele><time>2026-04-09T13:30:23.999Z</time></trkpt><trkpt lat="43.81757517984358" lon="10.6768562883804"><ele>16.0</ele><time>2026-04-09T13:30:24.999Z</time></trkpt><trkpt lat="43.81744567065275" lon="10.676506712924173"><ele>16.0</ele><time>2026-04-09T13:30:25.999Z</time></trkpt><trkpt lat="43.81732953861438" lon="10.676166451103615"><ele>16.0</ele><time>2026-04-09T13:30:26.999Z</time></trkpt><trkpt lat="43.81721685573016" lon="10.675840143771069"><ele>16.0</ele><time>2026-04-09T13:30:28Z</time></trkpt><trkpt lat="43.81710099563613" lon="10.67551045085834"><ele>16.0</ele><time>2026-04-09T13:30:29Z</time></trkpt><trkpt lat="43.816980539678" lon="10.675180470837875"><ele>15.0</ele><time>2026-04-09T13:30:30Z</time></trkpt><trkpt lat="43.816859228809506" lon="10.674847280221133"><ele>14.0</ele><time>2026-04-09T13:30:31Z</time></trkpt><trkpt lat="43.8167389592133" lon="10.674509556253064"><ele>13.5</ele><time>2026-04-09T13:30:32Z</time></trkpt><trkpt lat="43.81661551217767" lon="10.674175372661514"><ele>13.0</ele><time>2026-04-09T13:30:33Z</time></trkpt><trkpt lat="43.816496123266525" lon="10.67383415067628"><ele>13.0</ele><time>2026-04-09T13:30:34Z</time></trkpt><trkpt lat="43.81637502574002" lon="10.673490344431485"><ele>13.0</ele><time>2026-04-09T13:30:35Z</time></trkpt><trkpt lat="43.816255352896455" lon="10.673143719453646"><ele>13.0</ele><time>2026-04-09T13:30:36Z</time></trkpt><trkpt lat="43.8161286631622" lon="10.672798159798655"><ele>13.0</ele><time>2026-04-09T13:30:37Z</time></trkpt><trkpt lat="43.81600532033118" lon="10.672447994520772"><ele>13.0</ele><time>2026-04-09T13:30:38Z</time></trkpt><trkpt lat="43.81587678821447" lon="10.67210395429199"><ele>13.0</ele><time>2026-04-09T13:30:39Z</time></trkpt><trkpt lat="43.815760817201465" lon="10.671776185081095"><ele>13.0</ele><time>2026-04-09T13:30:40Z</time></trkpt><trkpt lat="43.81564588347726" lon="10.671461698777819"><ele>13.0</ele><time>2026-04-09T13:30:41Z</time></trkpt><trkpt lat="43.81553560956939" lon="10.671145273324909"><ele>12.0</ele><time>2026-04-09T13:30:42Z</time></trkpt><trkpt lat="43.81542439615319" lon="10.670839559424051"><ele>11.0</ele><time>2026-04-09T13:30:43Z</time></trkpt><trkpt lat="43.815324618831355" lon="10.67054262667025"><ele>11.0</ele><time>2026-04-09T13:30:44Z</time></trkpt><trkpt lat="43.815228524470044" lon="10.670261295868329"><ele>11.0</ele><time>2026-04-09T13:30:45Z</time></trkpt><trkpt lat="43.8151417542408" lon="10.6699838072253"><ele>11.0</ele><time>2026-04-09T13:30:46Z</time></trkpt><trkpt lat="43.81506345927245" lon="10.669696882902707"><ele>10.5</ele><time>2026-04-09T13:30:47Z</time></trkpt><trkpt lat="43.81498881584243" lon="10.669395561930202"><ele>10.0</ele><time>2026-04-09T13:30:48Z</time></trkpt><trkpt lat="43.814924898800456" lon="10.669096855909762"><ele>10.0</ele><time>2026-04-09T13:30:49Z</time></trkpt><trkpt lat="43.814863953907555" lon="10.66878941132831"><ele>10.0</ele><time>2026-04-09T13:30:50Z</time></trkpt><trkpt lat="43.81480968329371" lon="10.668478188090887"><ele>10.333333333333334</ele><time>2026-04-09T13:30:51Z</time></trkpt><trkpt lat="43.81476549105424" lon="10.668162751926014"><ele>10.666666666666666</ele><time>2026-04-09T13:30:52Z</time></trkpt><trkpt lat="43.81472863839117" lon="10.667866045584685"><ele>11.0</ele><time>2026-04-09T13:30:53Z</time></trkpt><trkpt lat="43.81470334429235" lon="10.66758520648074"><ele>11.666666666666666</ele><time>2026-04-09T13:30:54Z</time></trkpt><trkpt lat="43.8146816697119" lon="10.667309628700288"><ele>12.333333333333332</ele><time>2026-04-09T13:30:55Z</time></trkpt><trkpt lat="43.81466905949416" lon="10.667023644345381"><ele>13.0</ele><time>2026-04-09T13:30:56Z</time></trkpt><trkpt lat="43.814663452475514" lon="10.66672549756272"><ele>14.0</ele><time>2026-04-09T13:30:57Z</time></trkpt><trkpt lat="43.81466631775571" lon="10.666411043504075"><ele>15.0</ele><time>2026-04-09T13:30:58Z</time></trkpt><trkpt lat="43.81467725017295" lon="10.666082833228568"><ele>16.0</ele><time>2026-04-09T13:30:59Z</time></trkpt><trkpt lat="43.8146993226871" lon="10.665746119138317"><ele>17.0</ele><time>2026-04-09T13:31:00Z</time></trkpt><trkpt lat="43.81473727591608" lon="10.665396210598571"><ele>17.0</ele><time>2026-04-09T13:31:01Z</time></trkpt><trkpt lat="43.81477857725124" lon="10.665056555802966"><ele>17.0</ele><time>2026-04-09T13:31:02Z</time></trkpt><trkpt lat="43.814820440763526" lon="10.664733931350055"><ele>16.0</ele><time>2026-04-09T13:31:03Z</time></trkpt><trkpt lat="43.81486258516047" lon="10.664411388699977"><ele>15.0</ele><time>2026-04-09T13:31:04Z</time></trkpt><trkpt lat="43.81490047201393" lon="10.66409628039856"><ele>15.0</ele><time>2026-04-09T13:31:05Z</time></trkpt><trkpt lat="43.81493652599014" lon="10.6637713152646"><ele>15.0</ele><time>2026-04-09T13:31:06Z</time></trkpt><trkpt lat="43.814969618008284" lon="10.663466917651874"><ele>14.666666666666668</ele><time>2026-04-09T13:31:07Z</time></trkpt><trkpt lat="43.815001139401105" lon="10.663166542776175"><ele>14.333333333333334</ele><time>2026-04-09T13:31:08Z</time></trkpt><trkpt lat="43.81503619548631" lon="10.662862439312384"><ele>14.0</ele><time>2026-04-09T13:31:09Z</time></trkpt><trkpt lat="43.81507032306321" lon="10.662554972802797"><ele>14.0</ele><time>2026-04-09T13:31:10Z</time></trkpt><trkpt lat="43.81510571503502" lon="10.662252997554486"><ele>14.0</ele><time>2026-04-09T13:31:11Z</time></trkpt><trkpt lat="43.815140318359745" lon="10.661951643589562"><ele>14.0</ele><time>2026-04-09T13:31:12Z</time></trkpt><trkpt lat="43.81517524428776" lon="10.661643200708925"><ele>15.0</ele><time>2026-04-09T13:31:13Z</time></trkpt><trkpt lat="43.815211468312036" lon="10.661332190686275"><ele>16.0</ele><time>2026-04-09T13:31:14Z</time></trkpt><trkpt lat="43.81524900827967" lon="10.661018263946094"><ele>16.333333333333332</ele><time>2026-04-09T13:31:15Z</time></trkpt><trkpt lat="43.81528368540135" lon="10.660715470007592"><ele>16.666666666666668</ele><time>2026-04-09T13:31:16Z</time></trkpt><trkpt lat="43.81531940709384" lon="10.660422151358706"><ele>17.0</ele><time>2026-04-09T13:31:17Z</time></trkpt><trkpt lat="43.81535634677248" lon="10.660122210293313"><ele>17.5</ele><time>2026-04-09T13:31:18Z</time></trkpt><trkpt lat="43.81539297542484" lon="10.659813804676466"><ele>18.0</ele><time>2026-04-09T13:31:19Z</time></trkpt><trkpt lat="43.81542560207615" lon="10.659501499231546"><ele>17.666666666666668</ele><time>2026-04-09T13:31:20Z</time></trkpt><trkpt lat="43.81545852484062" lon="10.659200288000433"><ele>17.333333333333336</ele><time>2026-04-09T13:31:21Z</time></trkpt><trkpt lat="43.81549065711107" lon="10.658905558567488"><ele>17.0</ele><time>2026-04-09T13:31:22Z</time></trkpt><trkpt lat="43.8155259513558" lon="10.658604641869037"><ele>17.0</ele><time>2026-04-09T13:31:23Z</time></trkpt><trkpt lat="43.81555872209513" lon="10.658293769941418"><ele>17.0</ele><time>2026-04-09T13:31:24Z</time></trkpt><trkpt lat="43.81559633040874" lon="10.657977868773504"><ele>17.5</ele><time>2026-04-09T13:31:25Z</time></trkpt><trkpt lat="43.81563475358144" lon="10.657664898961098"><ele>18.0</ele><time>2026-04-09T13:31:26Z</time></trkpt><trkpt lat="43.8156689313299" lon="10.657345492468554"><ele>18.0</ele><time>2026-04-09T13:31:27Z</time></trkpt><trkpt lat="43.815705185963694" lon="10.657016417533855"><ele>18.0</ele><time>2026-04-09T13:31:28Z</time></trkpt><trkpt lat="43.81574728781749" lon="10.656683382376723"><ele>17.5</ele><time>2026-04-09T13:31:29Z</time></trkpt><trkpt lat="43.81578454817169" lon="10.656348015660127"><ele>17.0</ele><time>2026-04-09T13:31:30Z</time></trkpt><trkpt lat="43.815819137422004" lon="10.656026212896837"><ele>17.0</ele><time>2026-04-09T13:31:31Z</time></trkpt><trkpt lat="43.81585476861167" lon="10.655702563348381"><ele>17.0</ele><time>2026-04-09T13:31:32Z</time></trkpt><trkpt lat="43.81589183149229" lon="10.65537100420051"><ele>18.0</ele><time>2026-04-09T13:31:33Z</time></trkpt><trkpt lat="43.81593147074968" lon="10.655028985380397"><ele>19.0</ele><time>2026-04-09T13:31:34Z</time></trkpt><trkpt lat="43.8159683317709" lon="10.654681562879407"><ele>17.0</ele><time>2026-04-09T13:31:35Z</time></trkpt><trkpt lat="43.81601133183142" lon="10.654330318695"><ele>15.0</ele><time>2026-04-09T13:31:36Z</time></trkpt><trkpt lat="43.8160521177402" lon="10.653974009379597"><ele>13.5</ele><time>2026-04-09T13:31:37Z</time></trkpt><trkpt lat="43.81609644972444" lon="10.653608537172222"><ele>12.0</ele><time>2026-04-09T13:31:38Z</time></trkpt><trkpt lat="43.816138768971825" lon="10.653243436874664"><ele>12.0</ele><time>2026-04-09T13:31:39Z</time></trkpt><trkpt lat="43.816184544046216" lon="10.652866464780834"><ele>12.0</ele><time>2026-04-09T13:31:40Z</time></trkpt><trkpt lat="43.816225436869104" lon="10.652486802813804"><ele>12.5</ele><time>2026-04-09T13:31:41Z</time></trkpt><trkpt lat="43.816268398428946" lon="10.652103167463858"><ele>13.0</ele><time>2026-04-09T13:31:42Z</time></trkpt><trkpt lat="43.81630697943825" lon="10.65173547084274"><ele>13.0</ele><time>2026-04-09T13:31:43Z</time></trkpt><trkpt lat="43.8163498644891" lon="10.65136855149217"><ele>13.0</ele><time>2026-04-09T13:31:44Z</time></trkpt><trkpt lat="43.81639489618675" lon="10.650998465829435"><ele>13.0</ele><time>2026-04-09T13:31:45Z</time></trkpt><trkpt lat="43.81643941132239" lon="10.650621449347064"><ele>13.0</ele><time>2026-04-09T13:31:46Z</time></trkpt><trkpt lat="43.81648294498678" lon="10.65024173149553"><ele>13.0</ele><time>2026-04-09T13:31:47Z</time></trkpt><trkpt lat="43.81652707767781" lon="10.649861565336032"><ele>13.0</ele><time>2026-04-09T13:31:48Z</time></trkpt><trkpt lat="43.81657222446018" lon="10.649478193500522"><ele>14.0</ele><time>2026-04-09T13:31:49Z</time></trkpt><trkpt lat="43.81661584372063" lon="10.649098876765196"><ele>15.0</ele><time>2026-04-09T13:31:50Z</time></trkpt><trkpt lat="43.81665873622575" lon="10.648738073813934"><ele>13.5</ele><time>2026-04-09T13:31:51Z</time></trkpt><trkpt lat="43.816697328263245" lon="10.648385643880795"><ele>12.0</ele><time>2026-04-09T13:31:52Z</time></trkpt><trkpt lat="43.816735028837286" lon="10.648034101965866"><ele>12.5</ele><time>2026-04-09T13:31:53Z</time></trkpt><trkpt lat="43.816778534386806" lon="10.647681762020047"><ele>13.0</ele><time>2026-04-09T13:31:54Z</time></trkpt><trkpt lat="43.81681948559999" lon="10.647327468551204"><ele>13.0</ele><time>2026-04-09T13:31:55Z</time></trkpt><trkpt lat="43.81686525808389" lon="10.646973071570194"><ele>13.0</ele><time>2026-04-09T13:31:56Z</time></trkpt><trkpt lat="43.81690794444082" lon="10.646622900764132"><ele>12.0</ele><time>2026-04-09T13:31:57Z</time></trkpt><trkpt lat="43.81695140999588" lon="10.646295189965407"><ele>11.0</ele><time>2026-04-09T13:31:58Z</time></trkpt><trkpt lat="43.81698838074469" lon="10.645977733308804"><ele>9.5</ele><time>2026-04-09T13:31:59Z</time></trkpt><trkpt lat="43.81702662888783" lon="10.645656190520253"><ele>8.0</ele><time>2026-04-09T13:32:00Z</time></trkpt><trkpt lat="43.81706796879494" lon="10.645327043216767"><ele>7.5</ele><time>2026-04-09T13:32:01Z</time></trkpt><trkpt lat="43.817104204120014" lon="10.64500288950271"><ele>7.0</ele><time>2026-04-09T13:32:02Z</time></trkpt><trkpt lat="43.817141095175835" lon="10.644699373573507"><ele>6.666666666666667</ele><time>2026-04-09T13:32:03Z</time></trkpt><trkpt lat="43.81717523681886" lon="10.644397978413243"><ele>6.333333333333334</ele><time>2026-04-09T13:32:04Z</time></trkpt><trkpt lat="43.81720870239547" lon="10.644096230714151"><ele>6.0</ele><time>2026-04-09T13:32:05Z</time></trkpt><trkpt lat="43.81724111847526" lon="10.6437950357871"><ele>6.333333333333334</ele><time>2026-04-09T13:32:06Z</time></trkpt><trkpt lat="43.81727267327976" lon="10.643494332354852"><ele>6.666666666666667</ele><time>2026-04-09T13:32:07Z</time></trkpt><trkpt lat="43.81730643784798" lon="10.643183076032809"><ele>7.0</ele><time>2026-04-09T13:32:08Z</time></trkpt><trkpt lat="43.817345755004546" lon="10.64286386623674"><ele>7.0</ele><time>2026-04-09T13:32:09Z</time></trkpt><trkpt lat="43.81738461353402" lon="10.64255250534273"><ele>7.0</ele><time>2026-04-09T13:32:10Z</time></trkpt><trkpt lat="43.817420905562486" lon="10.642247236691285"><ele>7.0</ele><time>2026-04-09T13:32:11Z</time></trkpt><trkpt lat="43.817453024465344" lon="10.641933817048018"><ele>7.0</ele><time>2026-04-09T13:32:12Z</time></trkpt><trkpt lat="43.8174833113098" lon="10.641610624387791"><ele>7.0</ele><time>2026-04-09T13:32:12.999Z</time></trkpt><trkpt lat="43.81751225002777" lon="10.641286581462303"><ele>7.0</ele><time>2026-04-09T13:32:13.999Z</time></trkpt><trkpt lat="43.81754886122214" lon="10.640957273877797"><ele>7.0</ele><time>2026-04-09T13:32:14.999Z</time></trkpt><trkpt lat="43.81758486008481" lon="10.640622692434766"><ele>7.0</ele><time>2026-04-09T13:32:15.999Z</time></trkpt><trkpt lat="43.81762161611101" lon="10.640278880914522"><ele>7.5</ele><time>2026-04-09T13:32:16.999Z</time></trkpt><trkpt lat="43.81765898266855" lon="10.639925680266513"><ele>8.0</ele><time>2026-04-09T13:32:17.999Z</time></trkpt><trkpt lat="43.81769820345045" lon="10.639565275917786"><ele>8.0</ele><time>2026-04-09T13:32:18.999Z</time></trkpt><trkpt lat="43.81774261893545" lon="10.639194061885785"><ele>8.0</ele><time>2026-04-09T13:32:19.999Z</time></trkpt><trkpt lat="43.817785022745916" lon="10.63881563428864"><ele>7.5</ele><time>2026-04-09T13:32:20.999Z</time></trkpt><trkpt lat="43.81783090879461" lon="10.63843104971802"><ele>7.0</ele><time>2026-04-09T13:32:21.999Z</time></trkpt><trkpt lat="43.81787613725657" lon="10.638037489237334"><ele>7.0</ele><time>2026-04-09T13:32:22.999Z</time></trkpt><trkpt lat="43.817920309725" lon="10.637641333452402"><ele>7.0</ele><time>2026-04-09T13:32:23.999Z</time></trkpt><trkpt lat="43.81796545831878" lon="10.637238261888411"><ele>7.5</ele><time>2026-04-09T13:32:24.999Z</time></trkpt><trkpt lat="43.818009656869954" lon="10.636832853116754"><ele>8.0</ele><time>2026-04-09T13:32:25.999Z</time></trkpt><trkpt lat="43.818060648949725" lon="10.636429275057676"><ele>7.5</ele><time>2026-04-09T13:32:26.999Z</time></trkpt><trkpt lat="43.81810914492797" lon="10.63604905343276"><ele>7.0</ele><time>2026-04-09T13:32:27.999Z</time></trkpt><trkpt lat="43.818158714293034" lon="10.635674429978614"><ele>7.0</ele><time>2026-04-09T13:32:28.999Z</time></trkpt><trkpt lat="43.81820855805306" lon="10.63530955084168"><ele>7.0</ele><time>2026-04-09T13:32:29.999Z</time></trkpt><trkpt lat="43.81825438904698" lon="10.634935476290885"><ele>7.0</ele><time>2026-04-09T13:32:30.999Z</time></trkpt><trkpt lat="43.81829428211714" lon="10.634569703242473"><ele>7.0</ele><time>2026-04-09T13:32:31.999Z</time></trkpt><trkpt lat="43.81833357328903" lon="10.63422335034964"><ele>7.0</ele><time>2026-04-09T13:32:32.999Z</time></trkpt><trkpt lat="43.81837381030141" lon="10.633877995651583"><ele>7.0</ele><time>2026-04-09T13:32:34Z</time></trkpt><trkpt lat="43.81841280400077" lon="10.633534884069586"><ele>7.0</ele><time>2026-04-09T13:32:35Z</time></trkpt><trkpt lat="43.81844952472277" lon="10.633190976631543"><ele>7.0</ele><time>2026-04-09T13:32:36Z</time></trkpt><trkpt lat="43.8184887204307" lon="10.632849877777346"><ele>7.0</ele><time>2026-04-09T13:32:37Z</time></trkpt><trkpt lat="43.81853083360559" lon="10.632511613537279"><ele>7.0</ele><time>2026-04-09T13:32:38Z</time></trkpt><trkpt lat="43.81857141154998" lon="10.632174415403103"><ele>7.5</ele><time>2026-04-09T13:32:39Z</time></trkpt><trkpt lat="43.8186121906927" lon="10.631834968128835"><ele>8.0</ele><time>2026-04-09T13:32:40Z</time></trkpt><trkpt lat="43.818652045758355" lon="10.63149748924867"><ele>8.0</ele><time>2026-04-09T13:32:41Z</time></trkpt><trkpt lat="43.8186893514917" lon="10.631158830353012"><ele>8.0</ele><time>2026-04-09T13:32:42Z</time></trkpt><trkpt lat="43.81872602860445" lon="10.630817964461208"><ele>7.5</ele><time>2026-04-09T13:32:43Z</time></trkpt><trkpt lat="43.81876654405392" lon="10.630480902732213"><ele>7.0</ele><time>2026-04-09T13:32:44Z</time></trkpt><trkpt lat="43.81880300549894" lon="10.630144534418099"><ele>8.0</ele><time>2026-04-09T13:32:45Z</time></trkpt><trkpt lat="43.818843198784435" lon="10.629808254324534"><ele>9.0</ele><time>2026-04-09T13:32:46Z</time></trkpt><trkpt lat="43.818880183495715" lon="10.62947191115379"><ele>9.5</ele><time>2026-04-09T13:32:47Z</time></trkpt><trkpt lat="43.81891884996825" lon="10.629150205371337"><ele>10.0</ele><time>2026-04-09T13:32:48Z</time></trkpt><trkpt lat="43.81895185534323" lon="10.62884272432797"><ele>10.0</ele><time>2026-04-09T13:32:49Z</time></trkpt><trkpt lat="43.81898678650671" lon="10.628539414896949"><ele>10.0</ele><time>2026-04-09T13:32:50Z</time></trkpt><trkpt lat="43.819022661942284" lon="10.628233487373164"><ele>10.0</ele><time>2026-04-09T13:32:51Z</time></trkpt><trkpt lat="43.819058959063966" lon="10.627926450737649"><ele>9.0</ele><time>2026-04-09T13:32:52Z</time></trkpt><trkpt lat="43.81909589632336" lon="10.627619474361966"><ele>8.0</ele><time>2026-04-09T13:32:53Z</time></trkpt><trkpt lat="43.819133297757894" lon="10.627307681652564"><ele>8.0</ele><time>2026-04-09T13:32:54Z</time></trkpt><trkpt lat="43.81916756721888" lon="10.626986861038395"><ele>8.0</ele><time>2026-04-09T13:32:55Z</time></trkpt><trkpt lat="43.81919917902547" lon="10.626657347307596"><ele>9.0</ele><time>2026-04-09T13:32:56Z</time></trkpt><trkpt lat="43.81923618304347" lon="10.626323412854566"><ele>10.0</ele><time>2026-04-09T13:32:57Z</time></trkpt><trkpt lat="43.81927245430223" lon="10.625985424653818"><ele>10.0</ele><time>2026-04-09T13:32:58Z</time></trkpt><trkpt lat="43.81931069397004" lon="10.625642456012029"><ele>10.0</ele><time>2026-04-09T13:32:59Z</time></trkpt><trkpt lat="43.8193489748085" lon="10.625295327618842"><ele>10.0</ele><time>2026-04-09T13:33:00Z</time></trkpt><trkpt lat="43.819390098842966" lon="10.624944592310444"><ele>10.0</ele><time>2026-04-09T13:33:01Z</time></trkpt><trkpt lat="43.81943086417207" lon="10.624590686969366"><ele>10.5</ele><time>2026-04-09T13:33:02Z</time></trkpt><trkpt lat="43.819470278107" lon="10.624234517494559"><ele>11.0</ele><time>2026-04-09T13:33:03Z</time></trkpt><trkpt lat="43.81951262978616" lon="10.623876361353286"><ele>11.0</ele><time>2026-04-09T13:33:04Z</time></trkpt><trkpt lat="43.819554853208274" lon="10.623513702400043"><ele>11.0</ele><time>2026-04-09T13:33:05Z</time></trkpt><trkpt lat="43.819591641411186" lon="10.623155782258504"><ele>11.0</ele><time>2026-04-09T13:33:06Z</time></trkpt><trkpt lat="43.81963204760892" lon="10.62281721369415"><ele>11.0</ele><time>2026-04-09T13:33:07Z</time></trkpt><trkpt lat="43.819673559357945" lon="10.622484185537902"><ele>11.0</ele><time>2026-04-09T13:33:08Z</time></trkpt><trkpt lat="43.819713286204475" lon="10.622152033893455"><ele>11.0</ele><time>2026-04-09T13:33:09Z</time></trkpt><trkpt lat="43.81975310394988" lon="10.62181476127992"><ele>11.0</ele><time>2026-04-09T13:33:10Z</time></trkpt><trkpt lat="43.81979149172293" lon="10.621476702280251"><ele>11.0</ele><time>2026-04-09T13:33:11Z</time></trkpt><trkpt lat="43.81982863148206" lon="10.62113731014667"><ele>11.0</ele><time>2026-04-09T13:33:12Z</time></trkpt><trkpt lat="43.81986695593847" lon="10.620797859829924"><ele>11.0</ele><time>2026-04-09T13:33:13Z</time></trkpt><trkpt lat="43.81990744641474" lon="10.620453396134021"><ele>11.0</ele><time>2026-04-09T13:33:14Z</time></trkpt><trkpt lat="43.819945208803695" lon="10.62010723992075"><ele>11.0</ele><time>2026-04-09T13:33:15Z</time></trkpt><trkpt lat="43.81998347757182" lon="10.619757269766875"><ele>10.5</ele><time>2026-04-09T13:33:16Z</time></trkpt><trkpt lat="43.820024268300266" lon="10.619403438124019"><ele>10.0</ele><time>2026-04-09T13:33:17Z</time></trkpt><trkpt lat="43.820064624111275" lon="10.619049138149762"><ele>10.0</ele><time>2026-04-09T13:33:18Z</time></trkpt><trkpt lat="43.82010516717672" lon="10.618693199488307"><ele>10.0</ele><time>2026-04-09T13:33:19Z</time></trkpt><trkpt lat="43.820148490229236" lon="10.618334665184998"><ele>11.0</ele><time>2026-04-09T13:33:20Z</time></trkpt><trkpt lat="43.82019059632264" lon="10.617975027343407"><ele>12.0</ele><time>2026-04-09T13:33:21Z</time></trkpt><trkpt lat="43.82023144429348" lon="10.617613118551642"><ele>12.0</ele><time>2026-04-09T13:33:22Z</time></trkpt><trkpt lat="43.820271206501516" lon="10.617249510851346"><ele>12.0</ele><time>2026-04-09T13:33:23Z</time></trkpt><trkpt lat="43.82031014239065" lon="10.616885138847941"><ele>12.5</ele><time>2026-04-09T13:33:24Z</time></trkpt><trkpt lat="43.820351590339314" lon="10.616519956665217"><ele>13.0</ele><time>2026-04-09T13:33:25Z</time></trkpt><trkpt lat="43.820393355713286" lon="10.616157571044255"><ele>13.0</ele><time>2026-04-09T13:33:26Z</time></trkpt><trkpt lat="43.82043888693078" lon="10.615790467296911"><ele>13.0</ele><time>2026-04-09T13:33:27Z</time></trkpt><trkpt lat="43.820480473217444" lon="10.615421032644566"><ele>12.0</ele><time>2026-04-09T13:33:28Z</time></trkpt><trkpt lat="43.82052299472174" lon="10.615052046271497"><ele>11.0</ele><time>2026-04-09T13:33:29Z</time></trkpt><trkpt lat="43.82056541411098" lon="10.61468226828136"><ele>11.0</ele><time>2026-04-09T13:33:30Z</time></trkpt><trkpt lat="43.8206045505612" lon="10.614312258580258"><ele>11.0</ele><time>2026-04-09T13:33:31Z</time></trkpt><trkpt lat="43.820645516438155" lon="10.613942228894006"><ele>11.5</ele><time>2026-04-09T13:33:32Z</time></trkpt><trkpt lat="43.820687341831785" lon="10.613572956042287"><ele>12.0</ele><time>2026-04-09T13:33:33Z</time></trkpt><trkpt lat="43.82073079589181" lon="10.613202643424813"><ele>12.0</ele><time>2026-04-09T13:33:34Z</time></trkpt><trkpt lat="43.82077520833013" lon="10.612832102187427"><ele>12.0</ele><time>2026-04-09T13:33:35Z</time></trkpt><trkpt lat="43.82081762827941" lon="10.612461720787469"><ele>12.0</ele><time>2026-04-09T13:33:36Z</time></trkpt><trkpt lat="43.82086048807087" lon="10.61209366732487"><ele>12.0</ele><time>2026-04-09T13:33:37Z</time></trkpt><trkpt lat="43.82090300301732" lon="10.611719802015003"><ele>12.0</ele><time>2026-04-09T13:33:38Z</time></trkpt><trkpt lat="43.820945956543625" lon="10.611348846494222"><ele>12.0</ele><time>2026-04-09T13:33:39Z</time></trkpt><trkpt lat="43.82098865646238" lon="10.610977203969709"><ele>12.0</ele><time>2026-04-09T13:33:40Z</time></trkpt><trkpt lat="43.821031647061105" lon="10.61060363488198"><ele>12.0</ele><time>2026-04-09T13:33:41Z</time></trkpt><trkpt lat="43.82107371526703" lon="10.610230350079851"><ele>11.0</ele><time>2026-04-09T13:33:42Z</time></trkpt><trkpt lat="43.82111899891954" lon="10.609856432326445"><ele>10.0</ele><time>2026-04-09T13:33:43Z</time></trkpt><trkpt lat="43.82115921332161" lon="10.609490393718868"><ele>9.5</ele><time>2026-04-09T13:33:44Z</time></trkpt><trkpt lat="43.8211984997466" lon="10.609132339579348"><ele>9.0</ele><time>2026-04-09T13:33:45Z</time></trkpt><trkpt lat="43.82124089692997" lon="10.60877185938107"><ele>9.0</ele><time>2026-04-09T13:33:46Z</time></trkpt><trkpt lat="43.82127913938715" lon="10.60841114738396"><ele>9.0</ele><time>2026-04-09T13:33:47Z</time></trkpt><trkpt lat="43.82132088757823" lon="10.608048205306725"><ele>9.5</ele><time>2026-04-09T13:33:48Z</time></trkpt><trkpt lat="43.82136144436712" lon="10.60768906409496"><ele>10.0</ele><time>2026-04-09T13:33:49Z</time></trkpt><trkpt lat="43.821405777517214" lon="10.607325361541115"><ele>10.0</ele><time>2026-04-09T13:33:50Z</time></trkpt><trkpt lat="43.82144736448023" lon="10.606960705544632"><ele>10.0</ele><time>2026-04-09T13:33:51Z</time></trkpt><trkpt lat="43.821491970366644" lon="10.606590670811382"><ele>10.0</ele><time>2026-04-09T13:33:52Z</time></trkpt><trkpt lat="43.82153138954018" lon="10.606226987617076"><ele>10.0</ele><time>2026-04-09T13:33:53Z</time></trkpt><trkpt lat="43.821573166374925" lon="10.60586538396099"><ele>10.0</ele><time>2026-04-09T13:33:54Z</time></trkpt><trkpt lat="43.82161272061333" lon="10.605502616938182"><ele>10.0</ele><time>2026-04-09T13:33:55Z</time></trkpt><trkpt lat="43.821655442630096" lon="10.605162510007434"><ele>11.0</ele><time>2026-04-09T13:33:56Z</time></trkpt><trkpt lat="43.82169789392591" lon="10.604816521103803"><ele>12.0</ele><time>2026-04-09T13:33:57Z</time></trkpt><trkpt lat="43.8217412059197" lon="10.604466802828837"><ele>12.0</ele><time>2026-04-09T13:33:58Z</time></trkpt><trkpt lat="43.8217866523655" lon="10.604113463958447"><ele>12.0</ele><time>2026-04-09T13:33:59Z</time></trkpt><trkpt lat="43.82183172640962" lon="10.603759254882181"><ele>10.5</ele><time>2026-04-09T13:34:00Z</time></trkpt><trkpt lat="43.82187656908908" lon="10.603402492817283"><ele>9.0</ele><time>2026-04-09T13:34:01Z</time></trkpt><trkpt lat="43.82192178440598" lon="10.603045599650033"><ele>9.0</ele><time>2026-04-09T13:34:02Z</time></trkpt><trkpt lat="43.821963575190246" lon="10.602687533498095"><ele>9.0</ele><time>2026-04-09T13:34:03Z</time></trkpt><trkpt lat="43.82200526671724" lon="10.602329193454594"><ele>10.0</ele><time>2026-04-09T13:34:04Z</time></trkpt><trkpt lat="43.822047711786475" lon="10.601967704204803"><ele>11.0</ele><time>2026-04-09T13:34:05Z</time></trkpt><trkpt lat="43.822089879184304" lon="10.601609083273337"><ele>11.0</ele><time>2026-04-09T13:34:06Z</time></trkpt><trkpt lat="43.82213264406079" lon="10.601248575511962"><ele>11.0</ele><time>2026-04-09T13:34:07Z</time></trkpt><trkpt lat="43.822179194014524" lon="10.600892698462218"><ele>11.0</ele><time>2026-04-09T13:34:08Z</time></trkpt><trkpt lat="43.8222211316325" lon="10.600535340544273"><ele>11.0</ele><time>2026-04-09T13:34:09Z</time></trkpt><trkpt lat="43.82226237105315" lon="10.600185551242927"><ele>11.0</ele><time>2026-04-09T13:34:10Z</time></trkpt><trkpt lat="43.82230226265043" lon="10.59982578127347"><ele>11.0</ele><time>2026-04-09T13:34:11Z</time></trkpt><trkpt lat="43.822342637736156" lon="10.599470437661896"><ele>11.0</ele><time>2026-04-09T13:34:12Z</time></trkpt><trkpt lat="43.82238084547686" lon="10.599113741888605"><ele>11.0</ele><time>2026-04-09T13:34:13Z</time></trkpt><trkpt lat="43.82242033237266" lon="10.598758309832315"><ele>11.0</ele><time>2026-04-09T13:34:14Z</time></trkpt><trkpt lat="43.8224581896525" lon="10.598402407663972"><ele>11.0</ele><time>2026-04-09T13:34:15Z</time></trkpt><trkpt lat="43.82249636735783" lon="10.598046669996018"><ele>9.5</ele><time>2026-04-09T13:34:16Z</time></trkpt><trkpt lat="43.82253753735994" lon="10.597695568696807"><ele>8.0</ele><time>2026-04-09T13:34:17Z</time></trkpt><trkpt lat="43.82257390947051" lon="10.597339956038438"><ele>8.0</ele><time>2026-04-09T13:34:18Z</time></trkpt><trkpt lat="43.82261471705365" lon="10.596985980035305"><ele>8.0</ele><time>2026-04-09T13:34:19Z</time></trkpt><trkpt lat="43.822656733126074" lon="10.596631505449466"><ele>8.0</ele><time>2026-04-09T13:34:20Z</time></trkpt><trkpt lat="43.82269491971674" lon="10.59627746351521"><ele>8.0</ele><time>2026-04-09T13:34:20.999Z</time></trkpt><trkpt lat="43.82273657405203" lon="10.595923691835237"><ele>8.0</ele><time>2026-04-09T13:34:21.999Z</time></trkpt><trkpt lat="43.82278708341066" lon="10.595566193567523"><ele>8.0</ele><time>2026-04-09T13:34:22.999Z</time></trkpt><trkpt lat="43.82283057610931" lon="10.595210077041223"><ele>8.0</ele><time>2026-04-09T13:34:23.999Z</time></trkpt><trkpt lat="43.82286795076364" lon="10.594854422673297"><ele>8.0</ele><time>2026-04-09T13:34:24.999Z</time></trkpt><trkpt lat="43.822910582976654" lon="10.594498975835805"><ele>9.0</ele><time>2026-04-09T13:34:25.999Z</time></trkpt><trkpt lat="43.822955136643486" lon="10.594140048293804"><ele>10.0</ele><time>2026-04-09T13:34:26.999Z</time></trkpt><trkpt lat="43.82299785863954" lon="10.593781606441587"><ele>9.0</ele><time>2026-04-09T13:34:27.999Z</time></trkpt><trkpt lat="43.82303917864969" lon="10.59342100777725"><ele>8.0</ele><time>2026-04-09T13:34:28.999Z</time></trkpt><trkpt lat="43.82308196467271" lon="10.593059255099218"><ele>8.0</ele><time>2026-04-09T13:34:29.999Z</time></trkpt><trkpt lat="43.823122402091045" lon="10.59269777442492"><ele>8.0</ele><time>2026-04-09T13:34:30.999Z</time></trkpt><trkpt lat="43.82316391528358" lon="10.592332550838321"><ele>9.0</ele><time>2026-04-09T13:34:31.999Z</time></trkpt><trkpt lat="43.82320447565086" lon="10.591967732872105"><ele>10.0</ele><time>2026-04-09T13:34:32.999Z</time></trkpt><trkpt lat="43.823245433663296" lon="10.591601061829552"><ele>10.0</ele><time>2026-04-09T13:34:33.999Z</time></trkpt><trkpt lat="43.82328574412632" lon="10.591233922756501"><ele>10.0</ele><time>2026-04-09T13:34:34.999Z</time></trkpt><trkpt lat="43.8233288104113" lon="10.590864968133248"><ele>9.5</ele><time>2026-04-09T13:34:35.999Z</time></trkpt><trkpt lat="43.82337239454567" lon="10.590497667165748"><ele>9.0</ele><time>2026-04-09T13:34:36.999Z</time></trkpt><trkpt lat="43.82341517594278" lon="10.590129779153758"><ele>9.0</ele><time>2026-04-09T13:34:37.999Z</time></trkpt><trkpt lat="43.82345709692474" lon="10.589763966231747"><ele>9.0</ele><time>2026-04-09T13:34:38.999Z</time></trkpt><trkpt lat="43.82350073691442" lon="10.589396354037016"><ele>9.0</ele><time>2026-04-09T13:34:40Z</time></trkpt><trkpt lat="43.823543021509884" lon="10.589026859805237"><ele>9.0</ele><time>2026-04-09T13:34:41Z</time></trkpt><trkpt lat="43.82358446843395" lon="10.58865640215609"><ele>9.0</ele><time>2026-04-09T13:34:42Z</time></trkpt><trkpt lat="43.82362418325168" lon="10.588286675558075"><ele>9.0</ele><time>2026-04-09T13:34:43Z</time></trkpt><trkpt lat="43.823667110832794" lon="10.58791513352415"><ele>10.0</ele><time>2026-04-09T13:34:44Z</time></trkpt><trkpt lat="43.8237066609052" lon="10.587546758136494"><ele>11.0</ele><time>2026-04-09T13:34:45Z</time></trkpt><trkpt lat="43.82374822978691" lon="10.587180578230207"><ele>12.5</ele><time>2026-04-09T13:34:46Z</time></trkpt><trkpt lat="43.823790037258384" lon="10.586815330514034"><ele>14.0</ele><time>2026-04-09T13:34:47Z</time></trkpt><trkpt lat="43.82383224289463" lon="10.586453507594793"><ele>14.0</ele><time>2026-04-09T13:34:48Z</time></trkpt><trkpt lat="43.82387152124258" lon="10.58609032454725"><ele>14.0</ele><time>2026-04-09T13:34:49Z</time></trkpt><trkpt lat="43.823911598753426" lon="10.58572973802226"><ele>14.0</ele><time>2026-04-09T13:34:50Z</time></trkpt><trkpt lat="43.82395022129981" lon="10.585368808270431"><ele>14.0</ele><time>2026-04-09T13:34:51Z</time></trkpt><trkpt lat="43.82399245617249" lon="10.585010635803487"><ele>13.0</ele><time>2026-04-09T13:34:52Z</time></trkpt><trkpt lat="43.824033093623086" lon="10.58466478655338"><ele>12.0</ele><time>2026-04-09T13:34:53Z</time></trkpt><trkpt lat="43.82407251348095" lon="10.58432096636299"><ele>11.5</ele><time>2026-04-09T13:34:54Z</time></trkpt><trkpt lat="43.824111239221466" lon="10.583979186293176"><ele>11.0</ele><time>2026-04-09T13:34:55Z</time></trkpt><trkpt lat="43.824156443695784" lon="10.583634893484957"><ele>11.0</ele><time>2026-04-09T13:34:56Z</time></trkpt><trkpt lat="43.824199222774986" lon="10.583288260845096"><ele>11.0</ele><time>2026-04-09T13:34:57Z</time></trkpt><trkpt lat="43.824236660225395" lon="10.582942404107007"><ele>10.5</ele><time>2026-04-09T13:34:58Z</time></trkpt><trkpt lat="43.82427545985181" lon="10.582592509062268"><ele>10.0</ele><time>2026-04-09T13:34:59Z</time></trkpt><trkpt lat="43.82431949280688" lon="10.58224154846235"><ele>12.0</ele><time>2026-04-09T13:35:00Z</time></trkpt><trkpt lat="43.82436029216771" lon="10.58188972782326"><ele>14.0</ele><time>2026-04-09T13:35:01Z</time></trkpt><trkpt lat="43.82440197981152" lon="10.581536071352291"><ele>12.5</ele><time>2026-04-09T13:35:02Z</time></trkpt><trkpt lat="43.82444007280833" lon="10.58117703343805"><ele>11.0</ele><time>2026-04-09T13:35:03Z</time></trkpt><trkpt lat="43.824478612520856" lon="10.580819693300347"><ele>11.0</ele><time>2026-04-09T13:35:04Z</time></trkpt><trkpt lat="43.82452121258162" lon="10.58046128854381"><ele>11.0</ele><time>2026-04-09T13:35:05Z</time></trkpt><trkpt lat="43.824563167664586" lon="10.580103167940335"><ele>10.0</ele><time>2026-04-09T13:35:06Z</time></trkpt><trkpt lat="43.824606448300194" lon="10.579744241734366"><ele>9.0</ele><time>2026-04-09T13:35:07Z</time></trkpt><trkpt lat="43.82464697375809" lon="10.57938137507823"><ele>8.5</ele><time>2026-04-09T13:35:08Z</time></trkpt><trkpt lat="43.824686542179805" lon="10.57902230881325"><ele>8.0</ele><time>2026-04-09T13:35:09Z</time></trkpt><trkpt lat="43.82472793008881" lon="10.578665797383941"><ele>9.0</ele><time>2026-04-09T13:35:10Z</time></trkpt><trkpt lat="43.82476803627422" lon="10.578309849388974"><ele>10.0</ele><time>2026-04-09T13:35:11Z</time></trkpt><trkpt lat="43.82480693131953" lon="10.577953251205003"><ele>11.0</ele><time>2026-04-09T13:35:12Z</time></trkpt><trkpt lat="43.82484565630076" lon="10.577600847511826"><ele>12.0</ele><time>2026-04-09T13:35:13Z</time></trkpt><trkpt lat="43.82488454164731" lon="10.577262877236436"><ele>12.0</ele><time>2026-04-09T13:35:14Z</time></trkpt><trkpt lat="43.824924019369284" lon="10.576928303641596"><ele>12.0</ele><time>2026-04-09T13:35:15Z</time></trkpt><trkpt lat="43.82496276938073" lon="10.576593121887344"><ele>12.0</ele><time>2026-04-09T13:35:16Z</time></trkpt><trkpt lat="43.8250033019007" lon="10.576264482594157"><ele>12.0</ele><time>2026-04-09T13:35:17Z</time></trkpt><trkpt lat="43.82504488693134" lon="10.57593596488803"><ele>11.5</ele><time>2026-04-09T13:35:18Z</time></trkpt><trkpt lat="43.82508256630358" lon="10.575610739124553"><ele>11.0</ele><time>2026-04-09T13:35:19Z</time></trkpt><trkpt lat="43.82512125284708" lon="10.575286750042165"><ele>9.5</ele><time>2026-04-09T13:35:20Z</time></trkpt><trkpt lat="43.82516028619958" lon="10.57496311153743"><ele>8.0</ele><time>2026-04-09T13:35:21Z</time></trkpt><trkpt lat="43.82519615670692" lon="10.574639864241714"><ele>9.0</ele><time>2026-04-09T13:35:22Z</time></trkpt><trkpt lat="43.82523083973494" lon="10.574318302039499"><ele>10.0</ele><time>2026-04-09T13:35:23Z</time></trkpt><trkpt lat="43.825266263120525" lon="10.573998248250863"><ele>10.5</ele><time>2026-04-09T13:35:24Z</time></trkpt><trkpt lat="43.8253015565987" lon="10.573675439088694"><ele>11.0</ele><time>2026-04-09T13:35:25Z</time></trkpt><trkpt lat="43.82533991407096" lon="10.573347091513192"><ele>11.0</ele><time>2026-04-09T13:35:26Z</time></trkpt><trkpt lat="43.825378798576004" lon="10.573014709333709"><ele>11.0</ele><time>2026-04-09T13:35:27Z</time></trkpt><trkpt lat="43.8254207230033" lon="10.572678138902939"><ele>11.0</ele><time>2026-04-09T13:35:28Z</time></trkpt><trkpt lat="43.82546191494232" lon="10.572337240837184"><ele>11.0</ele><time>2026-04-09T13:35:29Z</time></trkpt><trkpt lat="43.82550368825568" lon="10.571991118815648"><ele>11.5</ele><time>2026-04-09T13:35:30Z</time></trkpt><trkpt lat="43.82554477180172" lon="10.571639334708365"><ele>12.0</ele><time>2026-04-09T13:35:31Z</time></trkpt><trkpt lat="43.82558523188122" lon="10.571282934746769"><ele>11.5</ele><time>2026-04-09T13:35:32Z</time></trkpt><trkpt lat="43.82562510945467" lon="10.570922700883"><ele>11.0</ele><time>2026-04-09T13:35:33Z</time></trkpt><trkpt lat="43.825668491650646" lon="10.570560091075896"><ele>11.0</ele><time>2026-04-09T13:35:34Z</time></trkpt><trkpt lat="43.82571316645905" lon="10.570200851712976"><ele>11.0</ele><time>2026-04-09T13:35:35Z</time></trkpt><trkpt lat="43.82575931127569" lon="10.569836675999419"><ele>11.5</ele><time>2026-04-09T13:35:36Z</time></trkpt><trkpt lat="43.825800074817806" lon="10.569465518623534"><ele>12.0</ele><time>2026-04-09T13:35:37Z</time></trkpt><trkpt lat="43.825840542139176" lon="10.569094338808481"><ele>12.0</ele><time>2026-04-09T13:35:38Z</time></trkpt><trkpt lat="43.825881599722656" lon="10.568726114950355"><ele>12.0</ele><time>2026-04-09T13:35:39Z</time></trkpt><trkpt lat="43.825931091464724" lon="10.568364246371049"><ele>12.0</ele><time>2026-04-09T13:35:40Z</time></trkpt><trkpt lat="43.82597532347931" lon="10.567999665234957"><ele>12.0</ele><time>2026-04-09T13:35:41Z</time></trkpt><trkpt lat="43.82601069331374" lon="10.567642683074787"><ele>12.0</ele><time>2026-04-09T13:35:42Z</time></trkpt><trkpt lat="43.8260488177639" lon="10.567289924733672"><ele>12.0</ele><time>2026-04-09T13:35:43Z</time></trkpt><trkpt lat="43.82608899252732" lon="10.566940338848605"><ele>11.5</ele><time>2026-04-09T13:35:44Z</time></trkpt><trkpt lat="43.82612444392455" lon="10.566593607914923"><ele>11.0</ele><time>2026-04-09T13:35:45Z</time></trkpt><trkpt lat="43.82616141103467" lon="10.566248305266212"><ele>11.0</ele><time>2026-04-09T13:35:46Z</time></trkpt><trkpt lat="43.82620060282012" lon="10.565903659590342"><ele>11.0</ele><time>2026-04-09T13:35:47Z</time></trkpt><trkpt lat="43.82624119580708" lon="10.565559924074659"><ele>11.5</ele><time>2026-04-09T13:35:48Z</time></trkpt><trkpt lat="43.826281518814646" lon="10.56521552215657"><ele>12.0</ele><time>2026-04-09T13:35:49Z</time></trkpt><trkpt lat="43.82632163197722" lon="10.564871718643456"><ele>12.0</ele><time>2026-04-09T13:35:50Z</time></trkpt><trkpt lat="43.82636134579567" lon="10.5645284563592"><ele>12.0</ele><time>2026-04-09T13:35:51Z</time></trkpt><trkpt lat="43.82640098789295" lon="10.564184893889312"><ele>12.0</ele><time>2026-04-09T13:35:52Z</time></trkpt><trkpt lat="43.82643917458218" lon="10.563841945560629"><ele>12.0</ele><time>2026-04-09T13:35:53Z</time></trkpt><trkpt lat="43.82647862716919" lon="10.563497237545514"><ele>12.0</ele><time>2026-04-09T13:35:54Z</time></trkpt><trkpt lat="43.82651587055277" lon="10.563151843001295"><ele>12.0</ele><time>2026-04-09T13:35:55Z</time></trkpt><trkpt lat="43.826554121894745" lon="10.562805791833261"><ele>12.0</ele><time>2026-04-09T13:35:56Z</time></trkpt><trkpt lat="43.82659112618999" lon="10.562458662825593"><ele>12.0</ele><time>2026-04-09T13:35:57Z</time></trkpt><trkpt lat="43.826629179298834" lon="10.5621111047211"><ele>12.0</ele><time>2026-04-09T13:35:58Z</time></trkpt><trkpt lat="43.826668525843445" lon="10.561764812038849"><ele>12.0</ele><time>2026-04-09T13:35:59Z</time></trkpt><trkpt lat="43.82670801184392" lon="10.561418662465652"><ele>12.0</ele><time>2026-04-09T13:36:00Z</time></trkpt><trkpt lat="43.82674774907079" lon="10.56107123386751"><ele>12.0</ele><time>2026-04-09T13:36:01Z</time></trkpt><trkpt lat="43.82678633609785" lon="10.560723562497948"><ele>11.5</ele><time>2026-04-09T13:36:02Z</time></trkpt><trkpt lat="43.82682603946611" lon="10.560373572771061"><ele>11.0</ele><time>2026-04-09T13:36:03Z</time></trkpt><trkpt lat="43.82686665400423" lon="10.560024324048948"><ele>11.0</ele><time>2026-04-09T13:36:04Z</time></trkpt><trkpt lat="43.826907249668686" lon="10.559676135841526"><ele>11.0</ele><time>2026-04-09T13:36:05Z</time></trkpt><trkpt lat="43.826949548224235" lon="10.559327048357895"><ele>10.5</ele><time>2026-04-09T13:36:06Z</time></trkpt><trkpt lat="43.82698987729899" lon="10.558977669919132"><ele>10.0</ele><time>2026-04-09T13:36:07Z</time></trkpt><trkpt lat="43.827030187028306" lon="10.558628763880728"><ele>11.5</ele><time>2026-04-09T13:36:08Z</time></trkpt><trkpt lat="43.82706752584235" lon="10.558280192509619"><ele>13.0</ele><time>2026-04-09T13:36:09Z</time></trkpt><trkpt lat="43.827105545422015" lon="10.557930476243829"><ele>14.0</ele><time>2026-04-09T13:36:10Z</time></trkpt><trkpt lat="43.8271411764134" lon="10.557580785171014"><ele>15.0</ele><time>2026-04-09T13:36:11Z</time></trkpt><trkpt lat="43.82717725752658" lon="10.55723118866264"><ele>14.5</ele><time>2026-04-09T13:36:12Z</time></trkpt><trkpt lat="43.827216741542635" lon="10.556881665339391"><ele>14.0</ele><time>2026-04-09T13:36:13Z</time></trkpt><trkpt lat="43.827260542101875" lon="10.55653511449293"><ele>14.0</ele><time>2026-04-09T13:36:14Z</time></trkpt><trkpt lat="43.827300799548055" lon="10.55618553086982"><ele>14.0</ele><time>2026-04-09T13:36:15Z</time></trkpt><trkpt lat="43.827342572094935" lon="10.555835653205172"><ele>14.0</ele><time>2026-04-09T13:36:16Z</time></trkpt><trkpt lat="43.827384386737506" lon="10.555484312547568"><ele>14.0</ele><time>2026-04-09T13:36:17Z</time></trkpt><trkpt lat="43.82742601901636" lon="10.555131417191621"><ele>13.5</ele><time>2026-04-09T13:36:18Z</time></trkpt><trkpt lat="43.82746442366625" lon="10.554778845203028"><ele>13.0</ele><time>2026-04-09T13:36:19Z</time></trkpt><trkpt lat="43.82749879063851" lon="10.554423270833716"><ele>12.5</ele><time>2026-04-09T13:36:20Z</time></trkpt><trkpt lat="43.8275227169498" lon="10.554071001091968"><ele>12.0</ele><time>2026-04-09T13:36:21Z</time></trkpt><trkpt lat="43.8275501566097" lon="10.553715843918036"><ele>11.5</ele><time>2026-04-09T13:36:22Z</time></trkpt><trkpt lat="43.8275792358703" lon="10.55335878546659"><ele>11.0</ele><time>2026-04-09T13:36:23Z</time></trkpt><trkpt lat="43.827605158788884" lon="10.553001258974355"><ele>11.5</ele><time>2026-04-09T13:36:24Z</time></trkpt><trkpt lat="43.82762777237001" lon="10.552641217925347"><ele>12.0</ele><time>2026-04-09T13:36:25Z</time></trkpt><trkpt lat="43.82764826869395" lon="10.552280392617535"><ele>12.5</ele><time>2026-04-09T13:36:26Z</time></trkpt><trkpt lat="43.82766832146009" lon="10.551920328998659"><ele>13.0</ele><time>2026-04-09T13:36:26.999Z</time></trkpt><trkpt lat="43.82768410354614" lon="10.551559628246437"><ele>12.5</ele><time>2026-04-09T13:36:27.999Z</time></trkpt><trkpt lat="43.82769659645522" lon="10.551198340725493"><ele>12.0</ele><time>2026-04-09T13:36:28.999Z</time></trkpt><trkpt lat="43.82770801808668" lon="10.550838250901705"><ele>12.0</ele><time>2026-04-09T13:36:29.999Z</time></trkpt><trkpt lat="43.82771902586046" lon="10.550479774168851"><ele>12.0</ele><time>2026-04-09T13:36:30.999Z</time></trkpt><trkpt lat="43.82772816090814" lon="10.55012065825607"><ele>12.0</ele><time>2026-04-09T13:36:31.999Z</time></trkpt><trkpt lat="43.827733877975334" lon="10.549756150852632"><ele>12.0</ele><time>2026-04-09T13:36:32.999Z</time></trkpt><trkpt lat="43.82774074165411" lon="10.54939585235773"><ele>11.5</ele><time>2026-04-09T13:36:33.999Z</time></trkpt><trkpt lat="43.827747227056264" lon="10.549033589481915"><ele>11.0</ele><time>2026-04-09T13:36:34.999Z</time></trkpt><trkpt lat="43.82775546014025" lon="10.548672431097637"><ele>11.0</ele><time>2026-04-09T13:36:35.999Z</time></trkpt><trkpt lat="43.8277638137204" lon="10.548312205766148"><ele>11.0</ele><time>2026-04-09T13:36:36.999Z</time></trkpt><trkpt lat="43.8277735226839" lon="10.547975288162775"><ele>12.0</ele><time>2026-04-09T13:36:37.999Z</time></trkpt><trkpt lat="43.82778582719484" lon="10.547646822244992"><ele>13.0</ele><time>2026-04-09T13:36:38.999Z</time></trkpt><trkpt lat="43.82779202446072" lon="10.54731588164589"><ele>13.5</ele><time>2026-04-09T13:36:39.999Z</time></trkpt><trkpt lat="43.82780226840886" lon="10.546985670496294"><ele>14.0</ele><time>2026-04-09T13:36:40.999Z</time></trkpt><trkpt lat="43.82780839607335" lon="10.546652793322087"><ele>14.0</ele><time>2026-04-09T13:36:41.999Z</time></trkpt><trkpt lat="43.827819903398684" lon="10.546317567752535"><ele>14.0</ele><time>2026-04-09T13:36:42.999Z</time></trkpt><trkpt lat="43.827825349888194" lon="10.545978424204387"><ele>13.5</ele><time>2026-04-09T13:36:43.999Z</time></trkpt><trkpt lat="43.82783516505516" lon="10.545648075105696"><ele>13.0</ele><time>2026-04-09T13:36:44.999Z</time></trkpt><trkpt lat="43.82783532787288" lon="10.545326578954896"><ele>13.0</ele><time>2026-04-09T13:36:46Z</time></trkpt><trkpt lat="43.82784139304187" lon="10.54499939904503"><ele>13.0</ele><time>2026-04-09T13:36:47Z</time></trkpt><trkpt lat="43.82784924828447" lon="10.544671050191626"><ele>13.5</ele><time>2026-04-09T13:36:48Z</time></trkpt><trkpt lat="43.82785501932299" lon="10.544339485025516"><ele>14.0</ele><time>2026-04-09T13:36:49Z</time></trkpt><trkpt lat="43.827862208900385" lon="10.544020951905082"><ele>15.5</ele><time>2026-04-09T13:36:50Z</time></trkpt><trkpt lat="43.82786867681426" lon="10.543710547412392"><ele>17.0</ele><time>2026-04-09T13:36:51Z</time></trkpt><trkpt lat="43.8278742695274" lon="10.543396049029655"><ele>17.0</ele><time>2026-04-09T13:36:52Z</time></trkpt><trkpt lat="43.82787931925797" lon="10.543076647512313"><ele>17.0</ele><time>2026-04-09T13:36:53Z</time></trkpt><trkpt lat="43.827882708881425" lon="10.54275344119225"><ele>16.0</ele><time>2026-04-09T13:36:54Z</time></trkpt><trkpt lat="43.827890019557096" lon="10.54242356102519"><ele>15.0</ele><time>2026-04-09T13:36:55Z</time></trkpt><trkpt lat="43.827892915364075" lon="10.542095566684578"><ele>15.0</ele><time>2026-04-09T13:36:56Z</time></trkpt><trkpt lat="43.82790331014027" lon="10.541763958630264"><ele>15.0</ele><time>2026-04-09T13:36:57Z</time></trkpt><trkpt lat="43.82790952044044" lon="10.541429569285791"><ele>15.0</ele><time>2026-04-09T13:36:58Z</time></trkpt><trkpt lat="43.827918003338894" lon="10.54109346022258"><ele>15.0</ele><time>2026-04-09T13:36:59Z</time></trkpt><trkpt lat="43.82792080173911" lon="10.54076531154303"><ele>15.0</ele><time>2026-04-09T13:37:00Z</time></trkpt><trkpt lat="43.82792664739301" lon="10.54045554824031"><ele>15.0</ele><time>2026-04-09T13:37:01Z</time></trkpt><trkpt lat="43.82793171405157" lon="10.540152007140188"><ele>15.0</ele><time>2026-04-09T13:37:02Z</time></trkpt><trkpt lat="43.82793878632194" lon="10.539845060489927"><ele>14.0</ele><time>2026-04-09T13:37:03Z</time></trkpt><trkpt lat="43.82794629196112" lon="10.53953420640421"><ele>13.0</ele><time>2026-04-09T13:37:04Z</time></trkpt><trkpt lat="43.827951879080885" lon="10.539220719125382"><ele>13.0</ele><time>2026-04-09T13:37:05Z</time></trkpt><trkpt lat="43.82795913880005" lon="10.538905117536117"><ele>13.0</ele><time>2026-04-09T13:37:06Z</time></trkpt><trkpt lat="43.827963366117466" lon="10.538584620966827"><ele>13.0</ele><time>2026-04-09T13:37:07Z</time></trkpt><trkpt lat="43.82797219588503" lon="10.538263971452873"><ele>13.0</ele><time>2026-04-09T13:37:08Z</time></trkpt><trkpt lat="43.82798158995116" lon="10.53794327072708"><ele>13.0</ele><time>2026-04-09T13:37:09Z</time></trkpt><trkpt lat="43.82798579272317" lon="10.537634590966727"><ele>13.0</ele><time>2026-04-09T13:37:10Z</time></trkpt><trkpt lat="43.82799481288261" lon="10.537343566505767"><ele>13.0</ele><time>2026-04-09T13:37:11Z</time></trkpt><trkpt lat="43.82800121468243" lon="10.537043732137974"><ele>13.666666666666666</ele><time>2026-04-09T13:37:12Z</time></trkpt><trkpt lat="43.82800216388858" lon="10.536741443572453"><ele>14.333333333333332</ele><time>2026-04-09T13:37:13Z</time></trkpt><trkpt lat="43.82801032495618" lon="10.5364324295236"><ele>15.0</ele><time>2026-04-09T13:37:14Z</time></trkpt><trkpt lat="43.82802081847238" lon="10.536123274068029"><ele>15.0</ele><time>2026-04-09T13:37:15Z</time></trkpt><trkpt lat="43.828027223760756" lon="10.535812619394132"><ele>15.0</ele><time>2026-04-09T13:37:16Z</time></trkpt><trkpt lat="43.828031496612695" lon="10.535496507881932"><ele>15.5</ele><time>2026-04-09T13:37:17Z</time></trkpt><trkpt lat="43.82804002613022" lon="10.535179319858178"><ele>16.0</ele><time>2026-04-09T13:37:18Z</time></trkpt><trkpt lat="43.82804908239394" lon="10.534856979910462"><ele>16.0</ele><time>2026-04-09T13:37:19Z</time></trkpt><trkpt lat="43.82805355540575" lon="10.534557191915418"><ele>16.0</ele><time>2026-04-09T13:37:20Z</time></trkpt><trkpt lat="43.82806125934427" lon="10.534257409814106"><ele>16.0</ele><time>2026-04-09T13:37:21Z</time></trkpt><trkpt lat="43.82806766005381" lon="10.533951916634283"><ele>15.666666666666666</ele><time>2026-04-09T13:37:22Z</time></trkpt><trkpt lat="43.828076421953995" lon="10.53364440434398"><ele>15.333333333333332</ele><time>2026-04-09T13:37:23Z</time></trkpt><trkpt lat="43.82808569764406" lon="10.533332515683394"><ele>15.0</ele><time>2026-04-09T13:37:24Z</time></trkpt><trkpt lat="43.82809424408019" lon="10.533014248734409"><ele>14.5</ele><time>2026-04-09T13:37:25Z</time></trkpt><trkpt lat="43.82809720824436" lon="10.532697771197522"><ele>14.0</ele><time>2026-04-09T13:37:26Z</time></trkpt><trkpt lat="43.82810451933468" lon="10.532381889144457"><ele>14.0</ele><time>2026-04-09T13:37:27Z</time></trkpt><trkpt lat="43.828111116358166" lon="10.532066345997375"><ele>14.0</ele><time>2026-04-09T13:37:28Z</time></trkpt><trkpt lat="43.82811627776484" lon="10.531752918695672"><ele>14.0</ele><time>2026-04-09T13:37:29Z</time></trkpt><trkpt lat="43.82812304452099" lon="10.531450112763276"><ele>14.0</ele><time>2026-04-09T13:37:30Z</time></trkpt><trkpt lat="43.82813041602825" lon="10.53114197647757"><ele>14.0</ele><time>2026-04-09T13:37:31Z</time></trkpt><trkpt lat="43.82813782543385" lon="10.530827006441525"><ele>14.0</ele><time>2026-04-09T13:37:32Z</time></trkpt><trkpt lat="43.82814569370921" lon="10.530504087175988"><ele>14.0</ele><time>2026-04-09T13:37:33Z</time></trkpt><trkpt lat="43.82815307799756" lon="10.530179930053357"><ele>14.0</ele><time>2026-04-09T13:37:34Z</time></trkpt><trkpt lat="43.8281583435963" lon="10.529867747835596"><ele>14.0</ele><time>2026-04-09T13:37:35Z</time></trkpt><trkpt lat="43.82816441511784" lon="10.529552406750556"><ele>14.0</ele><time>2026-04-09T13:37:36Z</time></trkpt><trkpt lat="43.828170754253534" lon="10.529231658872503"><ele>14.0</ele><time>2026-04-09T13:37:37Z</time></trkpt><trkpt lat="43.82817572456058" lon="10.528914528396232"><ele>13.333333333333334</ele><time>2026-04-09T13:37:38Z</time></trkpt><trkpt lat="43.828180942712926" lon="10.528611683229439"><ele>12.666666666666668</ele><time>2026-04-09T13:37:39Z</time></trkpt><trkpt lat="43.82818794018092" lon="10.528310631840897"><ele>12.0</ele><time>2026-04-09T13:37:40Z</time></trkpt><trkpt lat="43.828195968388044" lon="10.528009197920374"><ele>11.666666666666666</ele><time>2026-04-09T13:37:41Z</time></trkpt><trkpt lat="43.82820279311375" lon="10.527704540240354"><ele>11.333333333333332</ele><time>2026-04-09T13:37:42Z</time></trkpt><trkpt lat="43.828210259582214" lon="10.52739644206692"><ele>11.0</ele><time>2026-04-09T13:37:43Z</time></trkpt><trkpt lat="43.82821901799675" lon="10.527085084068586"><ele>11.5</ele><time>2026-04-09T13:37:44Z</time></trkpt><trkpt lat="43.828227828892096" lon="10.526771681402371"><ele>12.0</ele><time>2026-04-09T13:37:45Z</time></trkpt><trkpt lat="43.828237698110094" lon="10.526456658788025"><ele>10.5</ele><time>2026-04-09T13:37:46Z</time></trkpt><trkpt lat="43.82824507635171" lon="10.526139948416635"><ele>9.0</ele><time>2026-04-09T13:37:47Z</time></trkpt><trkpt lat="43.82825016190327" lon="10.525823011066725"><ele>9.0</ele><time>2026-04-09T13:37:48Z</time></trkpt><trkpt lat="43.82825402251011" lon="10.525524629867983"><ele>9.0</ele><time>2026-04-09T13:37:49Z</time></trkpt><trkpt lat="43.828255529598685" lon="10.525226591340731"><ele>9.0</ele><time>2026-04-09T13:37:50Z</time></trkpt><trkpt lat="43.828256198495836" lon="10.524930183751955"><ele>9.333333333333334</ele><time>2026-04-09T13:37:51Z</time></trkpt><trkpt lat="43.828256303562185" lon="10.52463193849188"><ele>9.666666666666668</ele><time>2026-04-09T13:37:52Z</time></trkpt><trkpt lat="43.828266596711195" lon="10.524331966310012"><ele>10.0</ele><time>2026-04-09T13:37:53Z</time></trkpt><trkpt lat="43.828276051471335" lon="10.524030408528656"><ele>11.0</ele><time>2026-04-09T13:37:54Z</time></trkpt><trkpt lat="43.828283063537704" lon="10.523725124841292"><ele>12.0</ele><time>2026-04-09T13:37:55Z</time></trkpt><trkpt lat="43.82829109161431" lon="10.523419185403421"><ele>13.0</ele><time>2026-04-09T13:37:56Z</time></trkpt><trkpt lat="43.82830165153025" lon="10.523112956604788"><ele>12.333333333333332</ele><time>2026-04-09T13:37:57Z</time></trkpt><trkpt lat="43.828310683802584" lon="10.522803896366721"><ele>11.666666666666666</ele><time>2026-04-09T13:37:58Z</time></trkpt><trkpt lat="43.82832013594663" lon="10.522493894318004"><ele>11.0</ele><time>2026-04-09T13:37:59Z</time></trkpt><trkpt lat="43.828327889199436" lon="10.52218032428173"><ele>11.5</ele><time>2026-04-09T13:38:00Z</time></trkpt><trkpt lat="43.828334213196584" lon="10.52186571580918"><ele>12.0</ele><time>2026-04-09T13:38:01Z</time></trkpt><trkpt lat="43.82833911982624" lon="10.52154887397366"><ele>12.5</ele><time>2026-04-09T13:38:02Z</time></trkpt><trkpt lat="43.82834365843765" lon="10.521229749061472"><ele>13.0</ele><time>2026-04-09T13:38:03Z</time></trkpt><trkpt lat="43.82835009121253" lon="10.520909607774959"><ele>13.0</ele><time>2026-04-09T13:38:04Z</time></trkpt><trkpt lat="43.82835758590469" lon="10.520586696673847"><ele>13.0</ele><time>2026-04-09T13:38:05Z</time></trkpt><trkpt lat="43.82836384421359" lon="10.520262390808245"><ele>12.666666666666666</ele><time>2026-04-09T13:38:06Z</time></trkpt><trkpt lat="43.8283681580853" lon="10.519942877136032"><ele>12.333333333333332</ele><time>2026-04-09T13:38:07Z</time></trkpt><trkpt lat="43.82837484474989" lon="10.519640783435282"><ele>12.0</ele><time>2026-04-09T13:38:08Z</time></trkpt><trkpt lat="43.8283814302122" lon="10.519340657432494"><ele>12.0</ele><time>2026-04-09T13:38:09Z</time></trkpt><trkpt lat="43.82838911816921" lon="10.519039807029214"><ele>12.0</ele><time>2026-04-09T13:38:10Z</time></trkpt><trkpt lat="43.82839638999634" lon="10.518730488682484"><ele>12.0</ele><time>2026-04-09T13:38:11Z</time></trkpt><trkpt lat="43.8284035284302" lon="10.518417850307289"><ele>12.5</ele><time>2026-04-09T13:38:12Z</time></trkpt><trkpt lat="43.8284071230927" lon="10.518096427072305"><ele>13.0</ele><time>2026-04-09T13:38:13Z</time></trkpt><trkpt lat="43.8284117535518" lon="10.517775855776943"><ele>13.0</ele><time>2026-04-09T13:38:14Z</time></trkpt><trkpt lat="43.82841606534165" lon="10.517451868724974"><ele>13.0</ele><time>2026-04-09T13:38:15Z</time></trkpt><trkpt lat="43.82842055474438" lon="10.517124540316482"><ele>12.5</ele><time>2026-04-09T13:38:16Z</time></trkpt><trkpt lat="43.82842696625037" lon="10.516794346704705"><ele>12.0</ele><time>2026-04-09T13:38:17Z</time></trkpt><trkpt lat="43.828432642751025" lon="10.516477882908317"><ele>12.0</ele><time>2026-04-09T13:38:18Z</time></trkpt><trkpt lat="43.82843953057724" lon="10.516162663883653"><ele>12.0</ele><time>2026-04-09T13:38:19Z</time></trkpt><trkpt lat="43.828446608143246" lon="10.515845429176169"><ele>12.0</ele><time>2026-04-09T13:38:20Z</time></trkpt><trkpt lat="43.8284551423608" lon="10.515526523957352"><ele>12.0</ele><time>2026-04-09T13:38:21Z</time></trkpt><trkpt lat="43.82845875919311" lon="10.515202179674851"><ele>12.0</ele><time>2026-04-09T13:38:22Z</time></trkpt><trkpt lat="43.82846756715905" lon="10.514883648518834"><ele>12.0</ele><time>2026-04-09T13:38:23Z</time></trkpt><trkpt lat="43.82847598031773" lon="10.514565116708827"><ele>12.0</ele><time>2026-04-09T13:38:24Z</time></trkpt><trkpt lat="43.828483102329486" lon="10.514247030937268"><ele>12.0</ele><time>2026-04-09T13:38:25Z</time></trkpt><trkpt lat="43.828488835799476" lon="10.513940667997966"><ele>11.666666666666666</ele><time>2026-04-09T13:38:26Z</time></trkpt><trkpt lat="43.828494183591175" lon="10.513645049487502"><ele>11.333333333333332</ele><time>2026-04-09T13:38:27Z</time></trkpt><trkpt lat="43.82850019826945" lon="10.513346659349828"><ele>11.0</ele><time>2026-04-09T13:38:28Z</time></trkpt><trkpt lat="43.828505169081744" lon="10.513042864773936"><ele>11.666666666666666</ele><time>2026-04-09T13:38:29Z</time></trkpt><trkpt lat="43.82851099119079" lon="10.512735360427278"><ele>12.333333333333332</ele><time>2026-04-09T13:38:30Z</time></trkpt><trkpt lat="43.828516814243116" lon="10.512425236619574"><ele>13.0</ele><time>2026-04-09T13:38:31Z</time></trkpt><trkpt lat="43.82852064043002" lon="10.512123225482442"><ele>12.666666666666666</ele><time>2026-04-09T13:38:32Z</time></trkpt><trkpt lat="43.82852802165095" lon="10.5118230831484"><ele>12.333333333333332</ele><time>2026-04-09T13:38:33Z</time></trkpt><trkpt lat="43.82853490453552" lon="10.511514872132068"><ele>12.0</ele><time>2026-04-09T13:38:34Z</time></trkpt><trkpt lat="43.82854283939239" lon="10.511198710360508"><ele>13.0</ele><time>2026-04-09T13:38:35Z</time></trkpt><trkpt lat="43.828551924031544" lon="10.51087875762887"><ele>14.0</ele><time>2026-04-09T13:38:36Z</time></trkpt><trkpt lat="43.82855646041137" lon="10.51055301446849"><ele>13.0</ele><time>2026-04-09T13:38:37Z</time></trkpt><trkpt lat="43.82856130448541" lon="10.510239012504236"><ele>12.0</ele><time>2026-04-09T13:38:38Z</time></trkpt><trkpt lat="43.828567216016154" lon="10.509928736243726"><ele>12.0</ele><time>2026-04-09T13:38:38.999Z</time></trkpt><trkpt lat="43.828573655267576" lon="10.5096158554093"><ele>12.0</ele><time>2026-04-09T13:38:39.999Z</time></trkpt><trkpt lat="43.828579897073936" lon="10.509301689797955"><ele>11.5</ele><time>2026-04-09T13:38:40.999Z</time></trkpt><trkpt lat="43.82858688060698" lon="10.508986763913644"><ele>11.0</ele><time>2026-04-09T13:38:41.999Z</time></trkpt><trkpt lat="43.82859457083176" lon="10.508670566938276"><ele>10.0</ele><time>2026-04-09T13:38:42.999Z</time></trkpt><trkpt lat="43.82860175655354" lon="10.508352683434342"><ele>9.0</ele><time>2026-04-09T13:38:43.999Z</time></trkpt><trkpt lat="43.82860762513243" lon="10.508034762186087"><ele>9.333333333333334</ele><time>2026-04-09T13:38:44.999Z</time></trkpt><trkpt lat="43.82861277860053" lon="10.50773100964533"><ele>9.666666666666668</ele><time>2026-04-09T13:38:45.999Z</time></trkpt><trkpt lat="43.82861926357353" lon="10.507440508955955"><ele>10.0</ele><time>2026-04-09T13:38:46.999Z</time></trkpt><trkpt lat="43.828625956195076" lon="10.507147588719556"><ele>10.666666666666668</ele><time>2026-04-09T13:38:47.999Z</time></trkpt><trkpt lat="43.82863297698609" lon="10.506844097141029"><ele>11.333333333333334</ele><time>2026-04-09T13:38:48.999Z</time></trkpt><trkpt lat="43.82864068554737" lon="10.506532111753046"><ele>12.0</ele><time>2026-04-09T13:38:49.999Z</time></trkpt><trkpt lat="43.82864849686502" lon="10.506213789736444"><ele>12.0</ele><time>2026-04-09T13:38:50.999Z</time></trkpt><trkpt lat="43.82865508263308" lon="10.505889477335126"><ele>12.0</ele><time>2026-04-09T13:38:52Z</time></trkpt><trkpt lat="43.82866133639766" lon="10.505561228591755"><ele>12.0</ele><time>2026-04-09T13:38:53Z</time></trkpt><trkpt lat="43.8286677945991" lon="10.50524939569252"><ele>12.0</ele><time>2026-04-09T13:38:54Z</time></trkpt><trkpt lat="43.82867841534514" lon="10.504947066774115"><ele>12.0</ele><time>2026-04-09T13:38:55Z</time></trkpt><trkpt lat="43.82869007826453" lon="10.50464127269888"><ele>12.5</ele><time>2026-04-09T13:38:56Z</time></trkpt><trkpt lat="43.828703691401294" lon="10.504332208006435"><ele>13.0</ele><time>2026-04-09T13:38:57Z</time></trkpt><trkpt lat="43.828722835546664" lon="10.504019166546572"><ele>13.0</ele><time>2026-04-09T13:38:58Z</time></trkpt><trkpt lat="43.8287446466904" lon="10.503702834571264"><ele>13.0</ele><time>2026-04-09T13:38:59Z</time></trkpt><trkpt lat="43.82876853593135" lon="10.503384369826112"><ele>13.0</ele><time>2026-04-09T13:39:00Z</time></trkpt><trkpt lat="43.82879433148299" lon="10.50306223757911"><ele>13.0</ele><time>2026-04-09T13:39:01Z</time></trkpt><trkpt lat="43.828822521168064" lon="10.502738266565935"><ele>12.5</ele><time>2026-04-09T13:39:02Z</time></trkpt><trkpt lat="43.82885070116325" lon="10.502418119420927"><ele>12.0</ele><time>2026-04-09T13:39:03Z</time></trkpt><trkpt lat="43.82888275401525" lon="10.502110057384293"><ele>11.5</ele><time>2026-04-09T13:39:04Z</time></trkpt><trkpt lat="43.82892252314435" lon="10.501804332070416"><ele>11.0</ele><time>2026-04-09T13:39:05Z</time></trkpt><trkpt lat="43.82896332960875" lon="10.501495878583011"><ele>11.5</ele><time>2026-04-09T13:39:06Z</time></trkpt><trkpt lat="43.829009856883324" lon="10.50118818287504"><ele>12.0</ele><time>2026-04-09T13:39:07Z</time></trkpt><trkpt lat="43.82905814192464" lon="10.500886766943879"><ele>12.0</ele><time>2026-04-09T13:39:08Z</time></trkpt><trkpt lat="43.829104878465444" lon="10.50059957711362"><ele>12.0</ele><time>2026-04-09T13:39:09Z</time></trkpt><trkpt lat="43.829150244134034" lon="10.500318103392097"><ele>12.0</ele><time>2026-04-09T13:39:10Z</time></trkpt><trkpt lat="43.82919346859118" lon="10.500039369244845"><ele>12.0</ele><time>2026-04-09T13:39:11Z</time></trkpt><trkpt lat="43.82923765968469" lon="10.499755217697507"><ele>12.0</ele><time>2026-04-09T13:39:12Z</time></trkpt><trkpt lat="43.82928043934444" lon="10.499467888110836"><ele>12.0</ele><time>2026-04-09T13:39:13Z</time></trkpt><trkpt lat="43.829324009739516" lon="10.499176058790733"><ele>12.0</ele><time>2026-04-09T13:39:14Z</time></trkpt><trkpt lat="43.82936918974081" lon="10.498880100796544"><ele>12.0</ele><time>2026-04-09T13:39:15Z</time></trkpt><trkpt lat="43.82941416819841" lon="10.498581193291956"><ele>12.0</ele><time>2026-04-09T13:39:16Z</time></trkpt><trkpt lat="43.82945914583391" lon="10.498294750259161"><ele>12.0</ele><time>2026-04-09T13:39:17Z</time></trkpt><trkpt lat="43.82950339182722" lon="10.498013639481696"><ele>12.0</ele><time>2026-04-09T13:39:18Z</time></trkpt><trkpt lat="43.82954771738764" lon="10.497733808781327"><ele>12.0</ele><time>2026-04-09T13:39:19Z</time></trkpt><trkpt lat="43.829590614496254" lon="10.49745181313111"><ele>12.333333333333332</ele><time>2026-04-09T13:39:20Z</time></trkpt><trkpt lat="43.829633038551826" lon="10.497165376133434"><ele>12.666666666666666</ele><time>2026-04-09T13:39:21Z</time></trkpt><trkpt lat="43.829674753463365" lon="10.496894675875078"><ele>13.0</ele><time>2026-04-09T13:39:22Z</time></trkpt><trkpt lat="43.829714307221515" lon="10.496622301046582"><ele>13.0</ele><time>2026-04-09T13:39:23Z</time></trkpt><trkpt lat="43.82975387600426" lon="10.496341834299633"><ele>13.0</ele><time>2026-04-09T13:39:24Z</time></trkpt><trkpt lat="43.82979364049765" lon="10.496055048239109"><ele>13.0</ele><time>2026-04-09T13:39:25Z</time></trkpt><trkpt lat="43.82984071696661" lon="10.49576666447509"><ele>13.0</ele><time>2026-04-09T13:39:26Z</time></trkpt><trkpt lat="43.82988897401309" lon="10.495474194449832"><ele>13.0</ele><time>2026-04-09T13:39:27Z</time></trkpt><trkpt lat="43.8299389629533" lon="10.495176629128942"><ele>13.0</ele><time>2026-04-09T13:39:28Z</time></trkpt><trkpt lat="43.82998285016585" lon="10.494874438336144"><ele>12.666666666666666</ele><time>2026-04-09T13:39:29Z</time></trkpt><trkpt lat="43.830026211903565" lon="10.494576447383732"><ele>12.333333333333332</ele><time>2026-04-09T13:39:30Z</time></trkpt><trkpt lat="43.83006976987632" lon="10.494295461210887"><ele>12.0</ele><time>2026-04-09T13:39:31Z</time></trkpt><trkpt lat="43.830112507324536" lon="10.494026239941261"><ele>12.0</ele><time>2026-04-09T13:39:32Z</time></trkpt><trkpt lat="43.830152615624016" lon="10.493762303548186"><ele>12.0</ele><time>2026-04-09T13:39:33Z</time></trkpt><trkpt lat="43.83019695150233" lon="10.49348536639816"><ele>12.0</ele><time>2026-04-09T13:39:34Z</time></trkpt><trkpt lat="43.83024241682126" lon="10.493195228255729"><ele>12.0</ele><time>2026-04-09T13:39:35Z</time></trkpt><trkpt lat="43.83028833853596" lon="10.492897282441954"><ele>12.0</ele><time>2026-04-09T13:39:36Z</time></trkpt><trkpt lat="43.8303370872693" lon="10.49259245274848"><ele>12.0</ele><time>2026-04-09T13:39:37Z</time></trkpt><trkpt lat="43.83038225698045" lon="10.492286594186492"><ele>13.0</ele><time>2026-04-09T13:39:38Z</time></trkpt><trkpt lat="43.830431390466686" lon="10.491974682214707"><ele>14.0</ele><time>2026-04-09T13:39:39Z</time></trkpt><trkpt lat="43.830480351580825" lon="10.491656917315758"><ele>14.0</ele><time>2026-04-09T13:39:40Z</time></trkpt><trkpt lat="43.8305289041319" lon="10.491335843984873"><ele>14.0</ele><time>2026-04-09T13:39:41Z</time></trkpt><trkpt lat="43.83057478837501" lon="10.491022883181289"><ele>13.5</ele><time>2026-04-09T13:39:42Z</time></trkpt><trkpt lat="43.83062159192779" lon="10.490721981639886"><ele>13.0</ele><time>2026-04-09T13:39:43Z</time></trkpt><trkpt lat="43.83066860695447" lon="10.49041209271168"><ele>13.0</ele><time>2026-04-09T13:39:44Z</time></trkpt><trkpt lat="43.830717983841865" lon="10.490094916445011"><ele>13.0</ele><time>2026-04-09T13:39:45Z</time></trkpt><trkpt lat="43.830769409562734" lon="10.48977422670995"><ele>12.0</ele><time>2026-04-09T13:39:46Z</time></trkpt><trkpt lat="43.830820490487966" lon="10.489448178895504"><ele>11.0</ele><time>2026-04-09T13:39:47Z</time></trkpt><trkpt lat="43.83087459644762" lon="10.4891200319784"><ele>11.0</ele><time>2026-04-09T13:39:48Z</time></trkpt><trkpt lat="43.83092616193432" lon="10.488788392830818"><ele>11.0</ele><time>2026-04-09T13:39:49Z</time></trkpt><trkpt lat="43.83097563814722" lon="10.488453587461118"><ele>11.5</ele><time>2026-04-09T13:39:50Z</time></trkpt><trkpt lat="43.83102636207568" lon="10.48811565450852"><ele>12.0</ele><time>2026-04-09T13:39:51Z</time></trkpt><trkpt lat="43.83107855552706" lon="10.48777505482086"><ele>12.0</ele><time>2026-04-09T13:39:52Z</time></trkpt><trkpt lat="43.831127247942916" lon="10.487431679429388"><ele>12.0</ele><time>2026-04-09T13:39:53Z</time></trkpt><trkpt lat="43.83118070191268" lon="10.487085176537436"><ele>11.5</ele><time>2026-04-09T13:39:54Z</time></trkpt><trkpt lat="43.83123121321523" lon="10.486750535601516"><ele>11.0</ele><time>2026-04-09T13:39:55Z</time></trkpt><trkpt lat="43.83128048536152" lon="10.486421261660878"><ele>11.0</ele><time>2026-04-09T13:39:56Z</time></trkpt><trkpt lat="43.83133262606504" lon="10.486091380233475"><ele>11.0</ele><time>2026-04-09T13:39:57Z</time></trkpt><trkpt lat="43.8313869520245" lon="10.485760296946603"><ele>11.0</ele><time>2026-04-09T13:39:58Z</time></trkpt><trkpt lat="43.8314437971164" lon="10.485426243238429"><ele>11.0</ele><time>2026-04-09T13:39:59Z</time></trkpt><trkpt lat="43.831496102228115" lon="10.48509047528146"><ele>11.0</ele><time>2026-04-09T13:40:00Z</time></trkpt><trkpt lat="43.831553697732645" lon="10.484753289108843"><ele>11.0</ele><time>2026-04-09T13:40:01Z</time></trkpt><trkpt lat="43.83160897325161" lon="10.484416073751884"><ele>11.0</ele><time>2026-04-09T13:40:02Z</time></trkpt><trkpt lat="43.83166064252786" lon="10.484076650784326"><ele>11.0</ele><time>2026-04-09T13:40:03Z</time></trkpt><trkpt lat="43.831712854479555" lon="10.483737392705676"><ele>11.0</ele><time>2026-04-09T13:40:04Z</time></trkpt><trkpt lat="43.83176594460501" lon="10.483396511242688"><ele>11.0</ele><time>2026-04-09T13:40:05Z</time></trkpt><trkpt lat="43.83181812168257" lon="10.483058454473717"><ele>10.5</ele><time>2026-04-09T13:40:06Z</time></trkpt><trkpt lat="43.83186806318877" lon="10.482722078746159"><ele>10.0</ele><time>2026-04-09T13:40:07Z</time></trkpt><trkpt lat="43.83192050003833" lon="10.48238765550152"><ele>10.5</ele><time>2026-04-09T13:40:08Z</time></trkpt><trkpt lat="43.831972865165106" lon="10.482054344611898"><ele>11.0</ele><time>2026-04-09T13:40:09Z</time></trkpt><trkpt lat="43.832026595824416" lon="10.481720173194713"><ele>11.0</ele><time>2026-04-09T13:40:10Z</time></trkpt><trkpt lat="43.832082157407555" lon="10.4813853681054"><ele>11.0</ele><time>2026-04-09T13:40:11Z</time></trkpt><trkpt lat="43.83213363181548" lon="10.481049264201884"><ele>11.0</ele><time>2026-04-09T13:40:12Z</time></trkpt><trkpt lat="43.83219210387253" lon="10.480713606466102"><ele>11.0</ele><time>2026-04-09T13:40:13Z</time></trkpt><trkpt lat="43.83225219831233" lon="10.480375383390186"><ele>11.5</ele><time>2026-04-09T13:40:14Z</time></trkpt><trkpt lat="43.83231604788138" lon="10.480037030785475"><ele>12.0</ele><time>2026-04-09T13:40:15Z</time></trkpt><trkpt lat="43.83237816558493" lon="10.479697444832038"><ele>12.0</ele><time>2026-04-09T13:40:16Z</time></trkpt><trkpt lat="43.832437391799814" lon="10.479352978790006"><ele>12.0</ele><time>2026-04-09T13:40:17Z</time></trkpt><trkpt lat="43.83248969057901" lon="10.479031433521069"><ele>13.0</ele><time>2026-04-09T13:40:18Z</time></trkpt><trkpt lat="43.832541146009" lon="10.478721761126257"><ele>14.0</ele><time>2026-04-09T13:40:19Z</time></trkpt><trkpt lat="43.83259107851425" lon="10.478412031563286"><ele>12.5</ele><time>2026-04-09T13:40:20Z</time></trkpt><trkpt lat="43.83264285160444" lon="10.478099554785485"><ele>11.0</ele><time>2026-04-09T13:40:21Z</time></trkpt><trkpt lat="43.832690114971754" lon="10.477794861915786"><ele>11.0</ele><time>2026-04-09T13:40:22Z</time></trkpt><trkpt lat="43.832733744130266" lon="10.477509558942042"><ele>11.0</ele><time>2026-04-09T13:40:23Z</time></trkpt><trkpt lat="43.832775177706885" lon="10.47723773945696"><ele>11.0</ele><time>2026-04-09T13:40:24Z</time></trkpt><trkpt lat="43.83281599976245" lon="10.476985784733895"><ele>11.333333333333332</ele><time>2026-04-09T13:40:25Z</time></trkpt><trkpt lat="43.83285542235043" lon="10.476747806013188"><ele>11.666666666666666</ele><time>2026-04-09T13:40:26Z</time></trkpt><trkpt lat="43.83289288755073" lon="10.476525169332088"><ele>12.0</ele><time>2026-04-09T13:40:27Z</time></trkpt><trkpt lat="43.83293736404518" lon="10.476299488100654"><ele>12.666666666666668</ele><time>2026-04-09T13:40:28Z</time></trkpt><trkpt lat="43.83299261517202" lon="10.476064248776346"><ele>13.333333333333334</ele><time>2026-04-09T13:40:29Z</time></trkpt><trkpt lat="43.833060875650055" lon="10.475826732859229"><ele>14.0</ele><time>2026-04-09T13:40:30Z</time></trkpt><trkpt lat="43.83313660600665" lon="10.475604019899118"><ele>14.0</ele><time>2026-04-09T13:40:31Z</time></trkpt><trkpt lat="43.83321963598102" lon="10.475405646257583"><ele>14.0</ele><time>2026-04-09T13:40:32Z</time></trkpt><trkpt lat="43.8333155829356" lon="10.475212453414853"><ele>14.0</ele><time>2026-04-09T13:40:33Z</time></trkpt><trkpt lat="43.83342143951799" lon="10.475020205367766"><ele>14.0</ele><time>2026-04-09T13:40:34Z</time></trkpt><trkpt lat="43.833541531616675" lon="10.474837770593371"><ele>14.0</ele><time>2026-04-09T13:40:35Z</time></trkpt><trkpt lat="43.833669563235176" lon="10.474671795721596"><ele>14.0</ele><time>2026-04-09T13:40:36Z</time></trkpt><trkpt lat="43.833800930624754" lon="10.474530391658185"><ele>14.0</ele><time>2026-04-09T13:40:37Z</time></trkpt><trkpt lat="43.83394205093089" lon="10.474399811301877"><ele>14.0</ele><time>2026-04-09T13:40:38Z</time></trkpt><trkpt lat="43.83409246298958" lon="10.474278585834421"><ele>14.0</ele><time>2026-04-09T13:40:39Z</time></trkpt><trkpt lat="43.8342512566899" lon="10.474176732265583"><ele>13.333333333333334</ele><time>2026-04-09T13:40:40Z</time></trkpt><trkpt lat="43.834415591012714" lon="10.474089527511792"><ele>12.666666666666668</ele><time>2026-04-09T13:40:41Z</time></trkpt><trkpt lat="43.83458431430036" lon="10.474012462808687"><ele>12.0</ele><time>2026-04-09T13:40:41.999Z</time></trkpt><trkpt lat="43.834745787490775" lon="10.473927313018235"><ele>12.0</ele><time>2026-04-09T13:40:42.999Z</time></trkpt><trkpt lat="43.834901569511764" lon="10.473843274982636"><ele>12.0</ele><time>2026-04-09T13:40:43.999Z</time></trkpt><trkpt lat="43.83506244948382" lon="10.473732581739114"><ele>12.0</ele><time>2026-04-09T13:40:44.999Z</time></trkpt><trkpt lat="43.835223948480575" lon="10.473598263841957"><ele>12.0</ele><time>2026-04-09T13:40:45.999Z</time></trkpt><trkpt lat="43.83536409905464" lon="10.473451029421895"><ele>12.0</ele><time>2026-04-09T13:40:46.999Z</time></trkpt><trkpt lat="43.83548709517726" lon="10.473290889881984"><ele>12.0</ele><time>2026-04-09T13:40:47.999Z</time></trkpt><trkpt lat="43.835608181868565" lon="10.473103838959519"><ele>11.333333333333334</ele><time>2026-04-09T13:40:48.999Z</time></trkpt><trkpt lat="43.83572275862932" lon="10.47290146618361"><ele>10.666666666666668</ele><time>2026-04-09T13:40:49.999Z</time></trkpt><trkpt lat="43.835821277741665" lon="10.47269575432582"><ele>10.0</ele><time>2026-04-09T13:40:50.999Z</time></trkpt><trkpt lat="43.83591189249217" lon="10.472467284816801"><ele>10.333333333333334</ele><time>2026-04-09T13:40:51.999Z</time></trkpt><trkpt lat="43.83599099306172" lon="10.47221575321286"><ele>10.666666666666666</ele><time>2026-04-09T13:40:52.999Z</time></trkpt><trkpt lat="43.836063630075905" lon="10.471949947133103"><ele>11.0</ele><time>2026-04-09T13:40:53.999Z</time></trkpt><trkpt lat="43.83613450671058" lon="10.471671624686689"><ele>11.0</ele><time>2026-04-09T13:40:54.999Z</time></trkpt><trkpt lat="43.836203549973874" lon="10.471384072801214"><ele>11.0</ele><time>2026-04-09T13:40:55.999Z</time></trkpt><trkpt lat="43.83626723899768" lon="10.471118312104919"><ele>11.0</ele><time>2026-04-09T13:40:56.999Z</time></trkpt><trkpt lat="43.836328211589546" lon="10.470857551325063"><ele>11.666666666666666</ele><time>2026-04-09T13:40:58Z</time></trkpt><trkpt lat="43.83639286463134" lon="10.470597895485593"><ele>12.333333333333332</ele><time>2026-04-09T13:40:59Z</time></trkpt><trkpt lat="43.83645896920669" lon="10.470338236688779"><ele>13.0</ele><time>2026-04-09T13:41:00Z</time></trkpt><trkpt lat="43.83652553655249" lon="10.470077469349214"><ele>13.0</ele><time>2026-04-09T13:41:01Z</time></trkpt><trkpt lat="43.83658990976263" lon="10.469818544932204"><ele>13.0</ele><time>2026-04-09T13:41:02Z</time></trkpt><trkpt lat="43.83665057464221" lon="10.469561348523165"><ele>13.0</ele><time>2026-04-09T13:41:03Z</time></trkpt><trkpt lat="43.83671183769939" lon="10.469302830557126"><ele>13.0</ele><time>2026-04-09T13:41:04Z</time></trkpt><trkpt lat="43.836774332966485" lon="10.469046627519448"><ele>13.0</ele><time>2026-04-09T13:41:05Z</time></trkpt><trkpt lat="43.836840135630624" lon="10.468787798425101"><ele>13.0</ele><time>2026-04-09T13:41:06Z</time></trkpt><trkpt lat="43.83690617550839" lon="10.468525264754916"><ele>13.0</ele><time>2026-04-09T13:41:07Z</time></trkpt><trkpt lat="43.83697321817573" lon="10.468261465580154"><ele>13.0</ele><time>2026-04-09T13:41:08Z</time></trkpt><trkpt lat="43.837034576997304" lon="10.468015217280422"><ele>13.0</ele><time>2026-04-09T13:41:09Z</time></trkpt><trkpt lat="43.83709253282471" lon="10.46777838915814"><ele>13.0</ele><time>2026-04-09T13:41:10Z</time></trkpt><trkpt lat="43.837151223444955" lon="10.467539019057684"><ele>13.0</ele><time>2026-04-09T13:41:11Z</time></trkpt><trkpt lat="43.837214905549914" lon="10.467293904132289"><ele>13.0</ele><time>2026-04-09T13:41:12Z</time></trkpt><trkpt lat="43.837285488914254" lon="10.467040928716417"><ele>13.333333333333332</ele><time>2026-04-09T13:41:13Z</time></trkpt><trkpt lat="43.83736069912735" lon="10.466784852049537"><ele>13.666666666666668</ele><time>2026-04-09T13:41:14Z</time></trkpt><trkpt lat="43.837441954622676" lon="10.466524128915061"><ele>14.0</ele><time>2026-04-09T13:41:15Z</time></trkpt><trkpt lat="43.8375296664669" lon="10.466262277344825"><ele>14.0</ele><time>2026-04-09T13:41:16Z</time></trkpt><trkpt lat="43.83762221724991" lon="10.4659987751162"><ele>14.0</ele><time>2026-04-09T13:41:17Z</time></trkpt><trkpt lat="43.83771866529732" lon="10.465732284234154"><ele>14.0</ele><time>2026-04-09T13:41:18Z</time></trkpt><trkpt lat="43.837821843600565" lon="10.465462403095211"><ele>13.666666666666668</ele><time>2026-04-09T13:41:19Z</time></trkpt><trkpt lat="43.837930543486586" lon="10.465194703125249"><ele>13.333333333333332</ele><time>2026-04-09T13:41:20Z</time></trkpt><trkpt lat="43.838045689477056" lon="10.464929958290048"><ele>13.0</ele><time>2026-04-09T13:41:21Z</time></trkpt><trkpt lat="43.83816852906995" lon="10.464668319506647"><ele>13.5</ele><time>2026-04-09T13:41:22Z</time></trkpt><trkpt lat="43.83829766736546" lon="10.46441009021455"><ele>14.0</ele><time>2026-04-09T13:41:23Z</time></trkpt><trkpt lat="43.838429662056676" lon="10.46415221429211"><ele>13.5</ele><time>2026-04-09T13:41:24Z</time></trkpt><trkpt lat="43.83856335490755" lon="10.463894623962581"><ele>13.0</ele><time>2026-04-09T13:41:25Z</time></trkpt><trkpt lat="43.83869209183136" lon="10.46362976866049"><ele>13.0</ele><time>2026-04-09T13:41:26Z</time></trkpt><trkpt lat="43.83882605253368" lon="10.463368276998676"><ele>13.0</ele><time>2026-04-09T13:41:27Z</time></trkpt><trkpt lat="43.83896047148005" lon="10.463104544213204"><ele>13.5</ele><time>2026-04-09T13:41:28Z</time></trkpt><trkpt lat="43.8390964805543" lon="10.462839574274021"><ele>14.0</ele><time>2026-04-09T13:41:29Z</time></trkpt><trkpt lat="43.83923336947394" lon="10.46257486396054"><ele>13.0</ele><time>2026-04-09T13:41:30Z</time></trkpt><trkpt lat="43.839372107774" lon="10.462308971774961"><ele>12.0</ele><time>2026-04-09T13:41:31Z</time></trkpt><trkpt lat="43.83951257020585" lon="10.462041231803859"><ele>12.0</ele><time>2026-04-09T13:41:32Z</time></trkpt><trkpt lat="43.83965277807424" lon="10.461772157348944"><ele>12.0</ele><time>2026-04-09T13:41:33Z</time></trkpt><trkpt lat="43.83979502002893" lon="10.461503518335796"><ele>12.5</ele><time>2026-04-09T13:41:34Z</time></trkpt><trkpt lat="43.83993732127023" lon="10.461231303601851"><ele>13.0</ele><time>2026-04-09T13:41:35Z</time></trkpt><trkpt lat="43.84008064994017" lon="10.460957287503525"><ele>13.0</ele><time>2026-04-09T13:41:36Z</time></trkpt><trkpt lat="43.840223102014676" lon="10.460680965057383"><ele>13.0</ele><time>2026-04-09T13:41:37Z</time></trkpt><trkpt lat="43.84036840806688" lon="10.460403929871168"><ele>13.0</ele><time>2026-04-09T13:41:38Z</time></trkpt><trkpt lat="43.84050783256149" lon="10.460129301170358"><ele>13.0</ele><time>2026-04-09T13:41:39Z</time></trkpt><trkpt lat="43.840644091016735" lon="10.45986740479485"><ele>12.0</ele><time>2026-04-09T13:41:40Z</time></trkpt><trkpt lat="43.840780110869474" lon="10.459603556496548"><ele>11.0</ele><time>2026-04-09T13:41:41Z</time></trkpt><trkpt lat="43.84091855911775" lon="10.459340293236217"><ele>10.5</ele><time>2026-04-09T13:41:42Z</time></trkpt><trkpt lat="43.841055449271956" lon="10.459077868094573"><ele>10.0</ele><time>2026-04-09T13:41:43Z</time></trkpt><trkpt lat="43.84119259856204" lon="10.458814355719035"><ele>10.5</ele><time>2026-04-09T13:41:44Z</time></trkpt><trkpt lat="43.84132979860339" lon="10.458549212560952"><ele>11.0</ele><time>2026-04-09T13:41:45Z</time></trkpt><trkpt lat="43.841468042504914" lon="10.458285050388907"><ele>11.0</ele><time>2026-04-09T13:41:46Z</time></trkpt><trkpt lat="43.84160499535837" lon="10.458016648701063"><ele>11.0</ele><time>2026-04-09T13:41:47Z</time></trkpt><trkpt lat="43.84174194747691" lon="10.45774432581623"><ele>11.5</ele><time>2026-04-09T13:41:48Z</time></trkpt><trkpt lat="43.841881729407234" lon="10.457471756080306"><ele>12.0</ele><time>2026-04-09T13:41:49Z</time></trkpt><trkpt lat="43.84202401718485" lon="10.45720014879002"><ele>11.0</ele><time>2026-04-09T13:41:50Z</time></trkpt><trkpt lat="43.84216834307156" lon="10.456926479100984"><ele>10.0</ele><time>2026-04-09T13:41:51Z</time></trkpt><trkpt lat="43.842312976306665" lon="10.456648619239603"><ele>10.0</ele><time>2026-04-09T13:41:52Z</time></trkpt><trkpt lat="43.84245731532902" lon="10.456368328916716"><ele>10.0</ele><time>2026-04-09T13:41:53Z</time></trkpt><trkpt lat="43.8426054324333" lon="10.456087527029757"><ele>10.5</ele><time>2026-04-09T13:41:54Z</time></trkpt><trkpt lat="43.84275401194229" lon="10.455804433774777"><ele>11.0</ele><time>2026-04-09T13:41:55Z</time></trkpt><trkpt lat="43.84290270262144" lon="10.455518230431943"><ele>11.5</ele><time>2026-04-09T13:41:56Z</time></trkpt><trkpt lat="43.84305123594236" lon="10.455229338640349"><ele>12.0</ele><time>2026-04-09T13:41:57Z</time></trkpt><trkpt lat="43.84319981003677" lon="10.454941142284888"><ele>12.0</ele><time>2026-04-09T13:41:58Z</time></trkpt><trkpt lat="43.84334870477456" lon="10.454650621886413"><ele>12.0</ele><time>2026-04-09T13:41:59Z</time></trkpt><trkpt lat="43.843500186724604" lon="10.454361660547017"><ele>12.0</ele><time>2026-04-09T13:42:00Z</time></trkpt><trkpt lat="43.84364982066866" lon="10.454072328322995"><ele>12.0</ele><time>2026-04-09T13:42:01Z</time></trkpt><trkpt lat="43.843800031002964" lon="10.45378403253595"><ele>12.0</ele><time>2026-04-09T13:42:02Z</time></trkpt><trkpt lat="43.843949456769906" lon="10.453496758137236"><ele>12.0</ele><time>2026-04-09T13:42:03Z</time></trkpt><trkpt lat="43.84409809861841" lon="10.45320983235054"><ele>12.0</ele><time>2026-04-09T13:42:04Z</time></trkpt><trkpt lat="43.844246424114424" lon="10.452924664500221"><ele>12.0</ele><time>2026-04-09T13:42:05Z</time></trkpt><trkpt lat="43.84439437887039" lon="10.452640314649326"><ele>12.0</ele><time>2026-04-09T13:42:06Z</time></trkpt><trkpt lat="43.84454199347512" lon="10.452355587228665"><ele>12.0</ele><time>2026-04-09T13:42:07Z</time></trkpt><trkpt lat="43.84468687556355" lon="10.45207385762261"><ele>13.0</ele><time>2026-04-09T13:42:08Z</time></trkpt><trkpt lat="43.84483383286247" lon="10.451792893923352"><ele>14.0</ele><time>2026-04-09T13:42:09Z</time></trkpt><trkpt lat="43.844979732227834" lon="10.451513651878141"><ele>13.5</ele><time>2026-04-09T13:42:10Z</time></trkpt><trkpt lat="43.845125296290796" lon="10.451237424462095"><ele>13.0</ele><time>2026-04-09T13:42:11Z</time></trkpt><trkpt lat="43.84526913375391" lon="10.450960939817902"><ele>14.0</ele><time>2026-04-09T13:42:12Z</time></trkpt><trkpt lat="43.84541330679693" lon="10.450682548624316"><ele>15.0</ele><time>2026-04-09T13:42:13Z</time></trkpt><trkpt lat="43.845560876867985" lon="10.450405602625048"><ele>15.0</ele><time>2026-04-09T13:42:14Z</time></trkpt><trkpt lat="43.845708585207255" lon="10.450126025208512"><ele>15.0</ele><time>2026-04-09T13:42:15Z</time></trkpt><trkpt lat="43.84585567050493" lon="10.449843087519767"><ele>15.5</ele><time>2026-04-09T13:42:16Z</time></trkpt><trkpt lat="43.846002971030586" lon="10.449559657313094"><ele>16.0</ele><time>2026-04-09T13:42:17Z</time></trkpt><trkpt lat="43.84614918782211" lon="10.449274032330804"><ele>16.0</ele><time>2026-04-09T13:42:18Z</time></trkpt><trkpt lat="43.84629734586316" lon="10.448988994168719"><ele>16.0</ele><time>2026-04-09T13:42:19Z</time></trkpt><trkpt lat="43.84644518291395" lon="10.448703395683514"><ele>17.5</ele><time>2026-04-09T13:42:20Z</time></trkpt><trkpt lat="43.84659157468759" lon="10.448415851868491"><ele>19.0</ele><time>2026-04-09T13:42:21Z</time></trkpt><trkpt lat="43.846737793906954" lon="10.448128842760298"><ele>17.0</ele><time>2026-04-09T13:42:22Z</time></trkpt><trkpt lat="43.846876361821806" lon="10.447861056127337"><ele>15.0</ele><time>2026-04-09T13:42:23Z</time></trkpt><trkpt lat="43.847009101195034" lon="10.447601219857773"><ele>15.0</ele><time>2026-04-09T13:42:24Z</time></trkpt><trkpt lat="43.847145469422614" lon="10.447339779894758"><ele>15.0</ele><time>2026-04-09T13:42:25Z</time></trkpt><trkpt lat="43.84728160625426" lon="10.447076133457726"><ele>14.5</ele><time>2026-04-09T13:42:26Z</time></trkpt><trkpt lat="43.847418263063" lon="10.446807510914164"><ele>14.0</ele><time>2026-04-09T13:42:27Z</time></trkpt><trkpt lat="43.8475588932379" lon="10.446538918441794"><ele>15.0</ele><time>2026-04-09T13:42:28Z</time></trkpt><trkpt lat="43.84769927498481" lon="10.446267177004351"><ele>16.0</ele><time>2026-04-09T13:42:29Z</time></trkpt><trkpt lat="43.847841157925224" lon="10.44599516190932"><ele>16.0</ele><time>2026-04-09T13:42:30Z</time></trkpt><trkpt lat="43.847982365694925" lon="10.445721748167019"><ele>16.0</ele><time>2026-04-09T13:42:31Z</time></trkpt><trkpt lat="43.848126483198754" lon="10.445445632355307"><ele>15.5</ele><time>2026-04-09T13:42:32Z</time></trkpt><trkpt lat="43.84826884835145" lon="10.44516810118083"><ele>15.0</ele><time>2026-04-09T13:42:33Z</time></trkpt><trkpt lat="43.84841380389406" lon="10.44488971511859"><ele>14.5</ele><time>2026-04-09T13:42:34Z</time></trkpt><trkpt lat="43.84856005222559" lon="10.44461023093983"><ele>14.0</ele><time>2026-04-09T13:42:35Z</time></trkpt><trkpt lat="43.84870867422303" lon="10.444327556744641"><ele>14.0</ele><time>2026-04-09T13:42:36Z</time></trkpt><trkpt lat="43.848849454347906" lon="10.444058958797177"><ele>14.0</ele><time>2026-04-09T13:42:37Z</time></trkpt><trkpt lat="43.84898485110121" lon="10.443796038216735"><ele>13.5</ele><time>2026-04-09T13:42:38Z</time></trkpt><trkpt lat="43.849124317036605" lon="10.443528154560493"><ele>13.0</ele><time>2026-04-09T13:42:39Z</time></trkpt><trkpt lat="43.849266407470964" lon="10.443254281115621"><ele>12.5</ele><time>2026-04-09T13:42:40Z</time></trkpt><trkpt lat="43.84940936229494" lon="10.442977089756987"><ele>12.0</ele><time>2026-04-09T13:42:41Z</time></trkpt><trkpt lat="43.849553225133555" lon="10.442694573194972"><ele>12.0</ele><time>2026-04-09T13:42:42Z</time></trkpt><trkpt lat="43.849698762244415" lon="10.442410601976437"><ele>12.0</ele><time>2026-04-09T13:42:43Z</time></trkpt><trkpt lat="43.849842701420414" lon="10.442125573996433"><ele>12.5</ele><time>2026-04-09T13:42:44Z</time></trkpt><trkpt lat="43.84998160650765" lon="10.441842308252765"><ele>13.0</ele><time>2026-04-09T13:42:45Z</time></trkpt><trkpt lat="43.85011468459116" lon="10.44156101281183"><ele>13.5</ele><time>2026-04-09T13:42:46Z</time></trkpt><trkpt lat="43.85024284824983" lon="10.441279305783688"><ele>14.0</ele><time>2026-04-09T13:42:46.999Z</time></trkpt><trkpt lat="43.850366266149464" lon="10.441001568683928"><ele>14.0</ele><time>2026-04-09T13:42:47.999Z</time></trkpt><trkpt lat="43.85049047086067" lon="10.440721263628179"><ele>14.0</ele><time>2026-04-09T13:42:48.999Z</time></trkpt><trkpt lat="43.85061270710877" lon="10.440436335356539"><ele>14.0</ele><time>2026-04-09T13:42:49.999Z</time></trkpt><trkpt lat="43.850733968857284" lon="10.440143096499298"><ele>14.0</ele><time>2026-04-09T13:42:50.999Z</time></trkpt><trkpt lat="43.8508513105091" lon="10.439847674954619"><ele>13.5</ele><time>2026-04-09T13:42:51.999Z</time></trkpt><trkpt lat="43.85096672000817" lon="10.439548982827603"><ele>13.0</ele><time>2026-04-09T13:42:52.999Z</time></trkpt><trkpt lat="43.85108103993699" lon="10.439245840886786"><ele>13.0</ele><time>2026-04-09T13:42:53.999Z</time></trkpt><trkpt lat="43.85119427074816" lon="10.438937578044804"><ele>13.0</ele><time>2026-04-09T13:42:54.999Z</time></trkpt><trkpt lat="43.85130595744138" lon="10.438626564188276"><ele>14.0</ele><time>2026-04-09T13:42:55.999Z</time></trkpt><trkpt lat="43.85141361225713" lon="10.438306539956837"><ele>15.0</ele><time>2026-04-09T13:42:56.999Z</time></trkpt><trkpt lat="43.85151719706761" lon="10.437982918701332"><ele>15.5</ele><time>2026-04-09T13:42:57.999Z</time></trkpt><trkpt lat="43.85161948264483" lon="10.437653036958242"><ele>16.0</ele><time>2026-04-09T13:42:58.999Z</time></trkpt><trkpt lat="43.851716273708895" lon="10.437318654611834"><ele>15.0</ele><time>2026-04-09T13:42:59.999Z</time></trkpt><trkpt lat="43.85181155457023" lon="10.436976970982263"><ele>14.0</ele><time>2026-04-09T13:43:00.999Z</time></trkpt><trkpt lat="43.85190361952166" lon="10.436628905572169"><ele>14.0</ele><time>2026-04-09T13:43:01.999Z</time></trkpt><trkpt lat="43.851995733241985" lon="10.436278986241414"><ele>14.0</ele><time>2026-04-09T13:43:02.999Z</time></trkpt><trkpt lat="43.85207958893809" lon="10.435943515913062"><ele>14.0</ele><time>2026-04-09T13:43:04Z</time></trkpt><trkpt lat="43.8521571863056" lon="10.435615841883783"><ele>14.0</ele><time>2026-04-09T13:43:05Z</time></trkpt><trkpt lat="43.8522331646787" lon="10.43528488665188"><ele>13.5</ele><time>2026-04-09T13:43:06Z</time></trkpt><trkpt lat="43.85230617956022" lon="10.4349513636029"><ele>13.0</ele><time>2026-04-09T13:43:07Z</time></trkpt><trkpt lat="43.852377291402696" lon="10.43461455456864"><ele>13.0</ele><time>2026-04-09T13:43:08Z</time></trkpt><trkpt lat="43.852445057226554" lon="10.434275616356654"><ele>13.0</ele><time>2026-04-09T13:43:09Z</time></trkpt><trkpt lat="43.852508470918195" lon="10.433930615073123"><ele>13.0</ele><time>2026-04-09T13:43:10Z</time></trkpt><trkpt lat="43.85256804486508" lon="10.433581740554763"><ele>13.0</ele><time>2026-04-09T13:43:11Z</time></trkpt><trkpt lat="43.852624104491206" lon="10.433231455359826"><ele>13.5</ele><time>2026-04-09T13:43:12Z</time></trkpt><trkpt lat="43.852674213631886" lon="10.432881310033588"><ele>14.0</ele><time>2026-04-09T13:43:13Z</time></trkpt><trkpt lat="43.852723884887666" lon="10.432528537485403"><ele>14.0</ele><time>2026-04-09T13:43:14Z</time></trkpt><trkpt lat="43.85277013561702" lon="10.4321750056084"><ele>14.0</ele><time>2026-04-09T13:43:15Z</time></trkpt><trkpt lat="43.85281405454665" lon="10.431821127902575"><ele>15.0</ele><time>2026-04-09T13:43:16Z</time></trkpt><trkpt lat="43.85285224917866" lon="10.431465133393685"><ele>16.0</ele><time>2026-04-09T13:43:17Z</time></trkpt><trkpt lat="43.852886751189395" lon="10.431109270745928"><ele>16.0</ele><time>2026-04-09T13:43:18Z</time></trkpt><trkpt lat="43.852916599608584" lon="10.430752064814342"><ele>16.0</ele><time>2026-04-09T13:43:19Z</time></trkpt><trkpt lat="43.85294574448858" lon="10.430395149466612"><ele>16.5</ele><time>2026-04-09T13:43:20Z</time></trkpt><trkpt lat="43.852969813496586" lon="10.430038281997062"><ele>17.0</ele><time>2026-04-09T13:43:21Z</time></trkpt><trkpt lat="43.852989335206615" lon="10.429679420963417"><ele>17.0</ele><time>2026-04-09T13:43:22Z</time></trkpt><trkpt lat="43.853005426057585" lon="10.429319866048164"><ele>17.0</ele><time>2026-04-09T13:43:23Z</time></trkpt><trkpt lat="43.85301691031112" lon="10.428960839366196"><ele>17.0</ele><time>2026-04-09T13:43:24Z</time></trkpt><trkpt lat="43.85302384023239" lon="10.428600691677042"><ele>17.0</ele><time>2026-04-09T13:43:25Z</time></trkpt><trkpt lat="43.853033399866916" lon="10.428238366790868"><ele>16.5</ele><time>2026-04-09T13:43:26Z</time></trkpt><trkpt lat="43.85304599209841" lon="10.427875962212177"><ele>16.0</ele><time>2026-04-09T13:43:27Z</time></trkpt><trkpt lat="43.85305731575765" lon="10.427513971312965"><ele>16.0</ele><time>2026-04-09T13:43:28Z</time></trkpt><trkpt lat="43.85306876580541" lon="10.4271519730604"><ele>16.0</ele><time>2026-04-09T13:43:29Z</time></trkpt><trkpt lat="43.85307826759248" lon="10.42678939055687"><ele>16.0</ele><time>2026-04-09T13:43:30Z</time></trkpt><trkpt lat="43.853086476296525" lon="10.426425276011393"><ele>16.0</ele><time>2026-04-09T13:43:31Z</time></trkpt><trkpt lat="43.85308955411101" lon="10.42606963477992"><ele>16.5</ele><time>2026-04-09T13:43:32Z</time></trkpt><trkpt lat="43.853098185604665" lon="10.425736974939891"><ele>17.0</ele><time>2026-04-09T13:43:33Z</time></trkpt><trkpt lat="43.853105760458504" lon="10.425410638428831"><ele>17.5</ele><time>2026-04-09T13:43:34Z</time></trkpt><trkpt lat="43.85311330811014" lon="10.425085219153528"><ele>18.0</ele><time>2026-04-09T13:43:35Z</time></trkpt><trkpt lat="43.853121259729285" lon="10.424764658106751"><ele>18.0</ele><time>2026-04-09T13:43:36Z</time></trkpt><trkpt lat="43.8531303932524" lon="10.424447157335907"><ele>18.0</ele><time>2026-04-09T13:43:37Z</time></trkpt><trkpt lat="43.85314006948378" lon="10.424128113425049"><ele>18.0</ele><time>2026-04-09T13:43:38Z</time></trkpt><trkpt lat="43.853148278728504" lon="10.423801721811985"><ele>18.0</ele><time>2026-04-09T13:43:39Z</time></trkpt><trkpt lat="43.8531550996738" lon="10.423473737648665"><ele>18.0</ele><time>2026-04-09T13:43:40Z</time></trkpt><trkpt lat="43.85316282577937" lon="10.423141379053874"><ele>18.0</ele><time>2026-04-09T13:43:41Z</time></trkpt><trkpt lat="43.853171054797684" lon="10.422804372412156"><ele>19.0</ele><time>2026-04-09T13:43:42Z</time></trkpt><trkpt lat="43.85318188438477" lon="10.422463561652986"><ele>20.0</ele><time>2026-04-09T13:43:43Z</time></trkpt><trkpt lat="43.853191273961805" lon="10.422117716075322"><ele>20.0</ele><time>2026-04-09T13:43:44Z</time></trkpt><trkpt lat="43.853198490398846" lon="10.421770747791975"><ele>20.0</ele><time>2026-04-09T13:43:45Z</time></trkpt><trkpt lat="43.85320910853039" lon="10.421419898047192"><ele>20.5</ele><time>2026-04-09T13:43:46Z</time></trkpt><trkpt lat="43.8532175835377" lon="10.421068433981791"><ele>21.0</ele><time>2026-04-09T13:43:47Z</time></trkpt><trkpt lat="43.85322779276311" lon="10.420717437756938"><ele>22.0</ele><time>2026-04-09T13:43:48Z</time></trkpt><trkpt lat="43.853236437116216" lon="10.420365338926521"><ele>23.0</ele><time>2026-04-09T13:43:49Z</time></trkpt><trkpt lat="43.85324582361829" lon="10.420013130833098"><ele>23.0</ele><time>2026-04-09T13:43:50Z</time></trkpt><trkpt lat="43.853253505856614" lon="10.419664006223421"><ele>23.0</ele><time>2026-04-09T13:43:51Z</time></trkpt><trkpt lat="43.85326138818653" lon="10.419314820676052"><ele>23.0</ele><time>2026-04-09T13:43:52Z</time></trkpt><trkpt lat="43.8532714471413" lon="10.418966864799518"><ele>23.0</ele><time>2026-04-09T13:43:53Z</time></trkpt><trkpt lat="43.853280267988694" lon="10.41862147344168"><ele>24.0</ele><time>2026-04-09T13:43:54Z</time></trkpt><trkpt lat="43.853291680939755" lon="10.418275328095817"><ele>25.0</ele><time>2026-04-09T13:43:55Z</time></trkpt><trkpt lat="43.853300338741604" lon="10.417930334643886"><ele>26.5</ele><time>2026-04-09T13:43:56Z</time></trkpt><trkpt lat="43.85330942459335" lon="10.417587852641953"><ele>28.0</ele><time>2026-04-09T13:43:57Z</time></trkpt><trkpt lat="43.85331648403118" lon="10.417245926529393"><ele>29.0</ele><time>2026-04-09T13:43:58Z</time></trkpt><trkpt lat="43.85332481648835" lon="10.416904816677052"><ele>30.0</ele><time>2026-04-09T13:43:59Z</time></trkpt><trkpt lat="43.853333049890445" lon="10.416564145216604"><ele>30.5</ele><time>2026-04-09T13:44:00Z</time></trkpt><trkpt lat="43.8533416941821" lon="10.416226610479917"><ele>31.0</ele><time>2026-04-09T13:44:01Z</time></trkpt><trkpt lat="43.853350461889804" lon="10.41589067216435"><ele>31.0</ele><time>2026-04-09T13:44:02Z</time></trkpt><trkpt lat="43.85335682090717" lon="10.415558414158447"><ele>31.0</ele><time>2026-04-09T13:44:03Z</time></trkpt><trkpt lat="43.85336570562679" lon="10.415250519513979"><ele>31.666666666666668</ele><time>2026-04-09T13:44:04Z</time></trkpt><trkpt lat="43.85337434755223" lon="10.414959012990229"><ele>32.333333333333336</ele><time>2026-04-09T13:44:05Z</time></trkpt><trkpt lat="43.85338319605448" lon="10.414672115155245"><ele>33.0</ele><time>2026-04-09T13:44:06Z</time></trkpt><trkpt lat="43.853390780173314" lon="10.414382381622223"><ele>34.333333333333336</ele><time>2026-04-09T13:44:07Z</time></trkpt><trkpt lat="43.85339925892234" lon="10.414086806199645"><ele>35.66666666666667</ele><time>2026-04-09T13:44:08Z</time></trkpt><trkpt lat="43.85340808050116" lon="10.41377931799505"><ele>37.0</ele><time>2026-04-09T13:44:09Z</time></trkpt><trkpt lat="43.853415452418105" lon="10.413472337388653"><ele>37.66666666666667</ele><time>2026-04-09T13:44:10Z</time></trkpt><trkpt lat="43.85342051133537" lon="10.413187701741515"><ele>38.333333333333336</ele><time>2026-04-09T13:44:11Z</time></trkpt><trkpt lat="43.85342856748904" lon="10.412921464609791"><ele>39.0</ele><time>2026-04-09T13:44:12Z</time></trkpt><trkpt lat="43.853440054564224" lon="10.41267553810848"><ele>39.666666666666664</ele><time>2026-04-09T13:44:13Z</time></trkpt><trkpt lat="43.85344800277518" lon="10.412434506404338"><ele>40.33333333333333</ele><time>2026-04-09T13:44:14Z</time></trkpt><trkpt lat="43.85345710269907" lon="10.412181109274075"><ele>41.0</ele><time>2026-04-09T13:44:15Z</time></trkpt><trkpt lat="43.85346541471584" lon="10.4119151773401"><ele>42.0</ele><time>2026-04-09T13:44:16Z</time></trkpt><trkpt lat="43.85347696221782" lon="10.411637056119588"><ele>43.0</ele><time>2026-04-09T13:44:17Z</time></trkpt><trkpt lat="43.85349015357495" lon="10.411383899696022"><ele>44.0</ele><time>2026-04-09T13:44:18Z</time></trkpt><trkpt lat="43.85350664889146" lon="10.411152902317923"><ele>44.33333333333333</ele><time>2026-04-09T13:44:19Z</time></trkpt><trkpt lat="43.8535246889521" lon="10.410925651985842"><ele>44.666666666666664</ele><time>2026-04-09T13:44:20Z</time></trkpt><trkpt lat="43.853550378118726" lon="10.410707553603352"><ele>45.0</ele><time>2026-04-09T13:44:21Z</time></trkpt><trkpt lat="43.853581914343636" lon="10.41048596801445"><ele>47.33333333333333</ele><time>2026-04-09T13:44:22Z</time></trkpt><trkpt lat="43.853620643657045" lon="10.410263919709118"><ele>49.666666666666664</ele><time>2026-04-09T13:44:23Z</time></trkpt><trkpt lat="43.85365789112837" lon="10.410043201810645"><ele>52.0</ele><time>2026-04-09T13:44:24Z</time></trkpt><trkpt lat="43.853689768096174" lon="10.40984507343299"><ele>52.0</ele><time>2026-04-09T13:44:25Z</time></trkpt><trkpt lat="43.85371556681353" lon="10.409665387457855"><ele>52.0</ele><time>2026-04-09T13:44:26Z</time></trkpt><trkpt lat="43.853737237554114" lon="10.409501884765108"><ele>52.0</ele><time>2026-04-09T13:44:27Z</time></trkpt><trkpt lat="43.853756330185156" lon="10.409340177914252"><ele>52.0</ele><time>2026-04-09T13:44:28Z</time></trkpt><trkpt lat="43.85377078823731" lon="10.409198964054296"><ele>52.83333333333333</ele><time>2026-04-09T13:44:29Z</time></trkpt><trkpt lat="43.85378306960133" lon="10.40905301480688"><ele>53.666666666666664</ele><time>2026-04-09T13:44:30Z</time></trkpt><trkpt lat="43.85380525329415" lon="10.408916959134112"><ele>54.5</ele><time>2026-04-09T13:44:31Z</time></trkpt><trkpt lat="43.853838864722384" lon="10.408809534105073"><ele>55.33333333333333</ele><time>2026-04-09T13:44:32Z</time></trkpt><trkpt lat="43.8538815044591" lon="10.408738134934044"><ele>56.166666666666664</ele><time>2026-04-09T13:44:33Z</time></trkpt><trkpt lat="43.85392326101648" lon="10.408670833760404"><ele>57.0</ele><time>2026-04-09T13:44:34Z</time></trkpt><trkpt lat="43.853971968470205" lon="10.408581218637604"><ele>57.285714285714285</ele><time>2026-04-09T13:44:36Z</time></trkpt><trkpt lat="43.85404534426316" lon="10.408573222739813"><ele>57.57142857142857</ele><time>2026-04-09T13:44:41Z</time></trkpt><trkpt lat="43.85410847476735" lon="10.408555231043412"><ele>57.857142857142854</ele><time>2026-04-09T13:50:26Z</time></trkpt><trkpt lat="43.854127484913725" lon="10.408467632312366"><ele>58.14285714285714</ele><time>2026-04-09T13:50:40Z</time></trkpt><trkpt lat="43.85413449459142" lon="10.408375032916858"><ele>58.42857142857143</ele><time>2026-04-09T13:50:57Z</time></trkpt><trkpt lat="43.854183840819296" lon="10.408305217256997"><ele>58.71428571428571</ele><time>2026-04-09T13:51:22Z</time></trkpt><trkpt lat="43.85413264034087" lon="10.408377467401099"><ele>59.0</ele><time>2026-04-09T13:52:06Z</time></trkpt><trkpt lat="43.85410107934128" lon="10.408505320155392"><ele>59.0</ele><time>2026-04-09T13:52:26Z</time></trkpt><trkpt lat="43.854083785098155" lon="10.408603605291596"><ele>59.0</ele><time>2026-04-09T13:52:36Z</time></trkpt><trkpt lat="43.85402646531868" lon="10.408561760410326"><ele>59.0</ele><time>2026-04-09T14:05:21Z</time></trkpt><trkpt lat="43.854003026506014" lon="10.408466735003618"><ele>59.0</ele><time>2026-04-09T14:07:52Z</time></trkpt><trkpt lat="43.85397560863793" lon="10.408337933992259"><ele>59.0</ele><time>2026-04-09T14:07:53Z</time></trkpt><trkpt lat="43.85396636927164" lon="10.408232360622275"><ele>59.0</ele><time>2026-04-09T14:07:56Z</time></trkpt><trkpt lat="43.85397271239159" lon="10.408143979812934"><ele>59.0</ele><time>2026-04-09T14:07:58Z</time></trkpt><trkpt lat="43.85396086230041" lon="10.408038430085087"><ele>58.833333333333336</ele><time>2026-04-09T14:08:00Z</time></trkpt><trkpt lat="43.853939846369876" lon="10.407927209722779"><ele>58.66666666666667</ele><time>2026-04-09T14:08:02Z</time></trkpt><trkpt lat="43.853966251484515" lon="10.407844281182136"><ele>58.5</ele><time>2026-04-09T14:17:02Z</time></trkpt><trkpt lat="43.8540124950855" lon="10.407777151740598"><ele>58.33333333333333</ele><time>2026-04-09T14:17:06Z</time></trkpt><trkpt lat="43.85403768476345" lon="10.407680275967827"><ele>58.166666666666664</ele><time>2026-04-09T14:17:11Z</time></trkpt><trkpt lat="43.85398382753296" lon="10.407805305253625"><ele>58.0</ele><time>2026-04-09T14:18:16Z</time></trkpt><trkpt lat="43.85394728993021" lon="10.407887517033954"><ele>57.99999999999999</ele><time>2026-04-09T14:18:24Z</time></trkpt><trkpt lat="43.85391015442869" lon="10.407816105923878"><ele>58.0</ele><time>2026-04-09T14:19:19Z</time></trkpt><trkpt lat="43.85391154933004" lon="10.407722767485621"><ele>58.0</ele><time>2026-04-09T14:19:20Z</time></trkpt><trkpt lat="43.853887437276974" lon="10.407596673501606"><ele>58.0</ele><time>2026-04-09T14:19:21Z</time></trkpt><trkpt lat="43.853890500445054" lon="10.407480529320848"><ele>57.99999999999999</ele><time>2026-04-09T14:19:22Z</time></trkpt><trkpt lat="43.853896232417966" lon="10.407381499075981"><ele>58.0</ele><time>2026-04-09T14:19:23Z</time></trkpt><trkpt lat="43.85390585480894" lon="10.407274054778098"><ele>58.0</ele><time>2026-04-09T14:19:24Z</time></trkpt><trkpt lat="43.85391430045913" lon="10.407164795746326"><ele>58.0</ele><time>2026-04-09T14:19:25Z</time></trkpt><trkpt lat="43.85392508889427" lon="10.407039858004659"><ele>58.0</ele><time>2026-04-09T14:19:26Z</time></trkpt><trkpt lat="43.85393709762166" lon="10.406899874635965"><ele>58.0</ele><time>2026-04-09T14:19:27Z</time></trkpt><trkpt lat="43.85394440503076" lon="10.406746521941045"><ele>58.0</ele><time>2026-04-09T14:19:28Z</time></trkpt><trkpt lat="43.853955061327675" lon="10.406617037900252"><ele>58.4</ele><time>2026-04-09T14:19:29Z</time></trkpt><trkpt lat="43.85395064691169" lon="10.406499599080824"><ele>58.8</ele><time>2026-04-09T14:19:30Z</time></trkpt><trkpt lat="43.85386336396344" lon="10.40638283337075"><ele>59.2</ele><time>2026-04-09T14:19:31Z</time></trkpt><trkpt lat="43.85380658092067" lon="10.406248824329701"><ele>59.6</ele><time>2026-04-09T14:19:32Z</time></trkpt><trkpt lat="43.853759146904665" lon="10.406112777490295"><ele>60.0</ele><time>2026-04-09T14:19:33Z</time></trkpt><trkpt lat="43.85372371719456" lon="10.405955831726331"><ele>60.25</ele><time>2026-04-09T14:19:34Z</time></trkpt><trkpt lat="43.853700038867224" lon="10.405781460191587"><ele>60.5</ele><time>2026-04-09T14:19:35Z</time></trkpt><trkpt lat="43.8536848864433" lon="10.405593550353146"><ele>60.75</ele><time>2026-04-09T14:19:36Z</time></trkpt><trkpt lat="43.85367585627472" lon="10.405411235518768"><ele>61.0</ele><time>2026-04-09T14:19:37Z</time></trkpt><trkpt lat="43.85367523722456" lon="10.40522130816342"><ele>62.666666666666664</ele><time>2026-04-09T14:19:38Z</time></trkpt><trkpt lat="43.85367836765308" lon="10.405007225803269"><ele>64.33333333333333</ele><time>2026-04-09T14:19:39Z</time></trkpt><trkpt lat="43.853682067032025" lon="10.404764069002207"><ele>66.0</ele><time>2026-04-09T14:19:40Z</time></trkpt><trkpt lat="43.85368445046382" lon="10.40449663731303"><ele>67.0</ele><time>2026-04-09T14:19:41Z</time></trkpt><trkpt lat="43.853686671749124" lon="10.40420037364951"><ele>68.0</ele><time>2026-04-09T14:19:42Z</time></trkpt><trkpt lat="43.8536873081277" lon="10.403884315116585"><ele>69.0</ele><time>2026-04-09T14:19:43Z</time></trkpt><trkpt lat="43.853690909940326" lon="10.403576062613078"><ele>69.0</ele><time>2026-04-09T14:19:44Z</time></trkpt><trkpt lat="43.85369623121952" lon="10.403270747151838"><ele>69.0</ele><time>2026-04-09T14:19:45Z</time></trkpt><trkpt lat="43.853700013424124" lon="10.402964642866905"><ele>69.0</ele><time>2026-04-09T14:19:46Z</time></trkpt><trkpt lat="43.85370093831491" lon="10.40265231775101"><ele>68.33333333333333</ele><time>2026-04-09T14:19:47Z</time></trkpt><trkpt lat="43.85370426413799" lon="10.40233736460345"><ele>67.66666666666666</ele><time>2026-04-09T14:19:48Z</time></trkpt><trkpt lat="43.85370714845102" lon="10.402029450771456"><ele>67.0</ele><time>2026-04-09T14:19:49Z</time></trkpt><trkpt lat="43.85371007981086" lon="10.401732849677698"><ele>68.33333333333333</ele><time>2026-04-09T14:19:50Z</time></trkpt><trkpt lat="43.85371437983798" lon="10.401436150485257"><ele>69.66666666666667</ele><time>2026-04-09T14:19:51Z</time></trkpt><trkpt lat="43.85371885198267" lon="10.401140581450624"><ele>71.0</ele><time>2026-04-09T14:19:52Z</time></trkpt><trkpt lat="43.8537218354059" lon="10.400842194712295"><ele>72.0</ele><time>2026-04-09T14:19:53Z</time></trkpt><trkpt lat="43.85372373173146" lon="10.400533730758903"><ele>73.0</ele><time>2026-04-09T14:19:54Z</time></trkpt><trkpt lat="43.85372916012178" lon="10.400213223266197"><ele>74.5</ele><time>2026-04-09T14:19:55Z</time></trkpt><trkpt lat="43.85373559597825" lon="10.399881441053319"><ele>76.0</ele><time>2026-04-09T14:19:56Z</time></trkpt><trkpt lat="43.853739979484025" lon="10.399540118732292"><ele>78.5</ele><time>2026-04-09T14:19:57Z</time></trkpt><trkpt lat="43.85374453876372" lon="10.399185081067259"><ele>81.0</ele><time>2026-04-09T14:19:58Z</time></trkpt><trkpt lat="43.853749676463046" lon="10.398818877323778"><ele>82.5</ele><time>2026-04-09T14:19:59Z</time></trkpt><trkpt lat="43.853756068962646" lon="10.398455274040744"><ele>84.0</ele><time>2026-04-09T14:20:00Z</time></trkpt><trkpt lat="43.85376119601815" lon="10.39811569463691"><ele>85.5</ele><time>2026-04-09T14:20:01Z</time></trkpt><trkpt lat="43.85376663899988" lon="10.397771197316358"><ele>87.0</ele><time>2026-04-09T14:20:02Z</time></trkpt><trkpt lat="43.85377133156424" lon="10.397425248306295"><ele>90.0</ele><time>2026-04-09T14:20:03Z</time></trkpt><trkpt lat="43.85377306935609" lon="10.397077058769693"><ele>93.0</ele><time>2026-04-09T14:20:04Z</time></trkpt><trkpt lat="43.85377757293054" lon="10.396725688169825"><ele>93.0</ele><time>2026-04-09T14:20:05Z</time></trkpt><trkpt lat="43.85378319600866" lon="10.396374864439503"><ele>93.0</ele><time>2026-04-09T14:20:06Z</time></trkpt><trkpt lat="43.85378834561859" lon="10.396025516430614"><ele>94.5</ele><time>2026-04-09T14:20:07Z</time></trkpt><trkpt lat="43.85379182969801" lon="10.395704414584005"><ele>96.0</ele><time>2026-04-09T14:20:08Z</time></trkpt><trkpt lat="43.85379516184531" lon="10.395398654403623"><ele>96.0</ele><time>2026-04-09T14:20:09Z</time></trkpt><trkpt lat="43.85379750791987" lon="10.39508838046796"><ele>96.0</ele><time>2026-04-09T14:20:10Z</time></trkpt><trkpt lat="43.85379543120617" lon="10.394779417978004"><ele>96.0</ele><time>2026-04-09T14:20:11Z</time></trkpt><trkpt lat="43.85378501650923" lon="10.394471212575759"><ele>97.0</ele><time>2026-04-09T14:20:12Z</time></trkpt><trkpt lat="43.85376857182705" lon="10.394164608317203"><ele>98.0</ele><time>2026-04-09T14:20:13Z</time></trkpt><trkpt lat="43.8537457115655" lon="10.39385941942705"><ele>99.0</ele><time>2026-04-09T14:20:14Z</time></trkpt><trkpt lat="43.853719423244605" lon="10.393557645407586"><ele>101.0</ele><time>2026-04-09T14:20:15Z</time></trkpt><trkpt lat="43.85368534362826" lon="10.393254008912868"><ele>103.0</ele><time>2026-04-09T14:20:16Z</time></trkpt><trkpt lat="43.85364183380583" lon="10.392953765620144"><ele>105.0</ele><time>2026-04-09T14:20:17Z</time></trkpt><trkpt lat="43.85359041386771" lon="10.392654804599617"><ele>109.5</ele><time>2026-04-09T14:20:18Z</time></trkpt><trkpt lat="43.85354025390562" lon="10.39234042294637"><ele>114.0</ele><time>2026-04-09T14:20:19Z</time></trkpt><trkpt lat="43.85348921356752" lon="10.392013844682774"><ele>119.0</ele><time>2026-04-09T14:20:20Z</time></trkpt><trkpt lat="43.85343760269796" lon="10.391677426293107"><ele>124.0</ele><time>2026-04-09T14:20:21Z</time></trkpt><trkpt lat="43.85338408451492" lon="10.391335031611497"><ele>124.5</ele><time>2026-04-09T14:20:22Z</time></trkpt><trkpt lat="43.85333081627353" lon="10.390981817999128"><ele>125.0</ele><time>2026-04-09T14:20:23Z</time></trkpt><trkpt lat="43.85327435281863" lon="10.390625072890938"><ele>131.0</ele><time>2026-04-09T14:20:24Z</time></trkpt><trkpt lat="43.85321830509126" lon="10.390259144461794"><ele>137.0</ele><time>2026-04-09T14:20:25Z</time></trkpt><trkpt lat="43.85316626625152" lon="10.389923775894232"><ele>145.0</ele><time>2026-04-09T14:20:26Z</time></trkpt><trkpt lat="43.853116075447865" lon="10.389613191640107"><ele>153.0</ele><time>2026-04-09T14:20:27Z</time></trkpt><trkpt lat="43.85307286494628" lon="10.389299856761125"><ele>153.0</ele><time>2026-04-09T14:20:28Z</time></trkpt><trkpt lat="43.853031907955774" lon="10.388977253340041"><ele>153.0</ele><time>2026-04-09T14:20:29Z</time></trkpt><trkpt lat="43.852997119223566" lon="10.388653110495273"><ele>162.5</ele><time>2026-04-09T14:20:30Z</time></trkpt><trkpt lat="43.8529603335791" lon="10.3883170410097"><ele>172.0</ele><time>2026-04-09T14:20:31Z</time></trkpt><trkpt lat="43.85292609083332" lon="10.38797645095254"><ele>179.0</ele><time>2026-04-09T14:20:32Z</time></trkpt><trkpt lat="43.85289519720822" lon="10.387620932061767"><ele>186.0</ele><time>2026-04-09T14:20:33.019Z</time></trkpt><trkpt lat="43.852867554102964" lon="10.387264847730858"><ele>194.0</ele><time>2026-04-09T14:20:34.019Z</time></trkpt><trkpt lat="43.85284106963874" lon="10.386905338050013"><ele>202.0</ele><time>2026-04-09T14:20:35.019Z</time></trkpt><trkpt lat="43.85281811659727" lon="10.386545307661086"><ele>207.0</ele><time>2026-04-09T14:20:36.016Z</time></trkpt><trkpt lat="43.8527345215754" lon="10.382864972012868"><ele>145.0</ele><time>2026-04-09T14:20:47.218Z</time></trkpt><trkpt lat="43.854104736860705" lon="10.373506229380492"><ele>151.5</ele><time>2026-04-09T14:21:13.999Z</time></trkpt><trkpt lat="43.854300464734976" lon="10.373233166196655"><ele>158.0</ele><time>2026-04-09T14:21:14.999Z</time></trkpt><trkpt lat="43.85447467472919" lon="10.372998191646186"><ele>158.0</ele><time>2026-04-09T14:21:15.999Z</time></trkpt><trkpt lat="43.85466553389493" lon="10.372764036961165"><ele>158.0</ele><time>2026-04-09T14:21:16.999Z</time></trkpt><trkpt lat="43.854869724015025" lon="10.372536926807026"><ele>158.0</ele><time>2026-04-09T14:21:17.999Z</time></trkpt><trkpt lat="43.85508653679788" lon="10.37231382219778"><ele>158.0</ele><time>2026-04-09T14:21:18.999Z</time></trkpt><trkpt lat="43.85530597964971" lon="10.372086632240126"><ele>155.5</ele><time>2026-04-09T14:21:19.999Z</time></trkpt><trkpt lat="43.85553753561137" lon="10.371858444117976"><ele>153.0</ele><time>2026-04-09T14:21:20.999Z</time></trkpt><trkpt lat="43.855773979087544" lon="10.371629778787167"><ele>155.0</ele><time>2026-04-09T14:21:22Z</time></trkpt><trkpt lat="43.85601141644946" lon="10.371398059185061"><ele>157.0</ele><time>2026-04-09T14:21:23Z</time></trkpt><trkpt lat="43.8562321366743" lon="10.37118511629319"><ele>147.5</ele><time>2026-04-09T14:21:24Z</time></trkpt><trkpt lat="43.85644553220153" lon="10.370974187463553"><ele>138.0</ele><time>2026-04-09T14:21:25Z</time></trkpt><trkpt lat="43.85666036554255" lon="10.37076290243087"><ele>138.0</ele><time>2026-04-09T14:21:26Z</time></trkpt><trkpt lat="43.85687916040516" lon="10.370551913499707"><ele>138.0</ele><time>2026-04-09T14:21:27Z</time></trkpt><trkpt lat="43.85709793661863" lon="10.370336213210201"><ele>127.5</ele><time>2026-04-09T14:21:28Z</time></trkpt><trkpt lat="43.857319478703324" lon="10.370118374400954"><ele>117.0</ele><time>2026-04-09T14:21:29Z</time></trkpt><trkpt lat="43.85754641088115" lon="10.369897981088066"><ele>123.5</ele><time>2026-04-09T14:21:30Z</time></trkpt><trkpt lat="43.85777524897231" lon="10.369671589926082"><ele>130.0</ele><time>2026-04-09T14:21:31Z</time></trkpt><trkpt lat="43.85800829429922" lon="10.369439119870485"><ele>130.0</ele><time>2026-04-09T14:21:32Z</time></trkpt><trkpt lat="43.858245963706196" lon="10.369207294175743"><ele>130.0</ele><time>2026-04-09T14:21:33Z</time></trkpt><trkpt lat="43.85848472494054" lon="10.368979939406712"><ele>140.0</ele><time>2026-04-09T14:21:34Z</time></trkpt><trkpt lat="43.85870803667568" lon="10.368763972277456"><ele>150.0</ele><time>2026-04-09T14:21:35Z</time></trkpt><trkpt lat="43.85892243687235" lon="10.368562301649384"><ele>150.0</ele><time>2026-04-09T14:21:36Z</time></trkpt><trkpt lat="43.859144092720314" lon="10.36836468059481"><ele>150.0</ele><time>2026-04-09T14:21:37Z</time></trkpt><trkpt lat="43.85937462708015" lon="10.368181722888774"><ele>140.0</ele><time>2026-04-09T14:21:38Z</time></trkpt><trkpt lat="43.85960973285286" lon="10.368011688224028"><ele>130.0</ele><time>2026-04-09T14:21:39Z</time></trkpt><trkpt lat="43.85984715770099" lon="10.367866414782213"><ele>130.0</ele><time>2026-04-09T14:21:40Z</time></trkpt><trkpt lat="43.86007924184233" lon="10.367737954671753"><ele>130.0</ele><time>2026-04-09T14:21:41Z</time></trkpt><trkpt lat="43.86031667600034" lon="10.367621383532992"><ele>134.5</ele><time>2026-04-09T14:21:42Z</time></trkpt><trkpt lat="43.86056571888678" lon="10.367521905194367"><ele>139.0</ele><time>2026-04-09T14:21:43Z</time></trkpt><trkpt lat="43.86081505986313" lon="10.367450821845967"><ele>147.5</ele><time>2026-04-09T14:21:44Z</time></trkpt><trkpt lat="43.86106779900575" lon="10.3673883393177"><ele>156.0</ele><time>2026-04-09T14:21:45Z</time></trkpt><trkpt lat="43.86132949941218" lon="10.367322953781782"><ele>156.0</ele><time>2026-04-09T14:21:46Z</time></trkpt><trkpt lat="43.86159515950206" lon="10.367253685185775"><ele>156.0</ele><time>2026-04-09T14:21:47Z</time></trkpt><trkpt lat="43.86186890103952" lon="10.367189650510698"><ele>141.5</ele><time>2026-04-09T14:21:48Z</time></trkpt><trkpt lat="43.862147794287544" lon="10.367125048106479"><ele>127.0</ele><time>2026-04-09T14:21:49Z</time></trkpt><trkpt lat="43.86243487504811" lon="10.367059027628294"><ele>125.5</ele><time>2026-04-09T14:21:50Z</time></trkpt><trkpt lat="43.86271880746702" lon="10.366991410074501"><ele>124.0</ele><time>2026-04-09T14:21:51Z</time></trkpt><trkpt lat="43.86298238848589" lon="10.366926426935297"><ele>124.0</ele><time>2026-04-09T14:21:52Z</time></trkpt><trkpt lat="43.86323778515565" lon="10.366860990834342"><ele>124.0</ele><time>2026-04-09T14:21:53Z</time></trkpt><trkpt lat="43.86349688600521" lon="10.36680022799735"><ele>124.0</ele><time>2026-04-09T14:21:54Z</time></trkpt><trkpt lat="43.86374478331802" lon="10.366752967282343"><ele>124.0</ele><time>2026-04-09T14:21:55Z</time></trkpt><trkpt lat="43.86397484602838" lon="10.366712901489326"><ele>124.0</ele><time>2026-04-09T14:21:56Z</time></trkpt><trkpt lat="43.864214052601966" lon="10.366656587982046"><ele>124.0</ele><time>2026-04-09T14:21:57Z</time></trkpt><trkpt lat="43.86445854825153" lon="10.36660257672991"><ele>110.0</ele><time>2026-04-09T14:21:58Z</time></trkpt><trkpt lat="43.8647093201721" lon="10.366544493961644"><ele>96.0</ele><time>2026-04-09T14:21:59Z</time></trkpt><trkpt lat="43.86495970953647" lon="10.366486225781564"><ele>86.0</ele><time>2026-04-09T14:22:00Z</time></trkpt><trkpt lat="43.86521186231921" lon="10.366423119870785"><ele>76.0</ele><time>2026-04-09T14:22:01Z</time></trkpt><trkpt lat="43.86546368478588" lon="10.366365615326155"><ele>76.0</ele><time>2026-04-09T14:22:02Z</time></trkpt><trkpt lat="43.8657175275409" lon="10.366306727018953"><ele>76.0</ele><time>2026-04-09T14:22:03Z</time></trkpt><trkpt lat="43.86596940667008" lon="10.366245121599164"><ele>76.0</ele><time>2026-04-09T14:22:04Z</time></trkpt><trkpt lat="43.8662145775477" lon="10.366181729455297"><ele>76.0</ele><time>2026-04-09T14:22:05Z</time></trkpt><trkpt lat="43.86644912090959" lon="10.366115955230313"><ele>76.0</ele><time>2026-04-09T14:22:06Z</time></trkpt><trkpt lat="43.86668233625588" lon="10.366042684669509"><ele>76.0</ele><time>2026-04-09T14:22:07Z</time></trkpt><trkpt lat="43.866916256995744" lon="10.365952750070532"><ele>76.0</ele><time>2026-04-09T14:22:08Z</time></trkpt><trkpt lat="43.86715096922547" lon="10.36585332037413"><ele>76.0</ele><time>2026-04-09T14:22:09Z</time></trkpt><trkpt lat="43.867389391908375" lon="10.365735943939278"><ele>76.0</ele><time>2026-04-09T14:22:10Z</time></trkpt><trkpt lat="43.86762601715931" lon="10.365593399117456"><ele>76.0</ele><time>2026-04-09T14:22:11Z</time></trkpt><trkpt lat="43.86786364204491" lon="10.36542938637749"><ele>83.5</ele><time>2026-04-09T14:22:12Z</time></trkpt><trkpt lat="43.868101895647335" lon="10.365251919048792"><ele>91.0</ele><time>2026-04-09T14:22:13Z</time></trkpt><trkpt lat="43.8683354231399" lon="10.365053591535139"><ele>102.5</ele><time>2026-04-09T14:22:14Z</time></trkpt><trkpt lat="43.86856203767505" lon="10.364840350328247"><ele>114.0</ele><time>2026-04-09T14:22:15Z</time></trkpt><trkpt lat="43.86876088537486" lon="10.364629967076912"><ele>114.0</ele><time>2026-04-09T14:22:16Z</time></trkpt><trkpt lat="43.86895082605993" lon="10.36440717640176"><ele>114.0</ele><time>2026-04-09T14:22:17Z</time></trkpt><trkpt lat="43.869135813457305" lon="10.364172577020572"><ele>112.0</ele><time>2026-04-09T14:22:18Z</time></trkpt><trkpt lat="43.86931471666551" lon="10.363922785873514"><ele>110.0</ele><time>2026-04-09T14:22:19Z</time></trkpt><trkpt lat="43.8694835678878" lon="10.363658525622077"><ele>101.0</ele><time>2026-04-09T14:22:20Z</time></trkpt><trkpt lat="43.86964620056092" lon="10.363383114589583"><ele>92.0</ele><time>2026-04-09T14:22:21Z</time></trkpt><trkpt lat="43.8698019698654" lon="10.363097555230723"><ele>83.0</ele><time>2026-04-09T14:22:22Z</time></trkpt><trkpt lat="43.86994981256353" lon="10.362801266370484"><ele>74.0</ele><time>2026-04-09T14:22:23Z</time></trkpt><trkpt lat="43.87008727421621" lon="10.362492786247525"><ele>62.5</ele><time>2026-04-09T14:22:24Z</time></trkpt><trkpt lat="43.87021120846261" lon="10.362174388337442"><ele>51.0</ele><time>2026-04-09T14:22:25Z</time></trkpt><trkpt lat="43.870326267308606" lon="10.361849219966938"><ele>51.0</ele><time>2026-04-09T14:22:26Z</time></trkpt><trkpt lat="43.870430564334555" lon="10.361515644423275"><ele>51.0</ele><time>2026-04-09T14:22:27Z</time></trkpt><trkpt lat="43.87052159821482" lon="10.361173161746876"><ele>53.0</ele><time>2026-04-09T14:22:28Z</time></trkpt><trkpt lat="43.87059861750988" lon="10.360820061047407"><ele>55.0</ele><time>2026-04-09T14:22:29Z</time></trkpt><trkpt lat="43.870663646553766" lon="10.360460674678446"><ele>61.5</ele><time>2026-04-09T14:22:30Z</time></trkpt><trkpt lat="43.87071807611363" lon="10.360091856631582"><ele>68.0</ele><time>2026-04-09T14:22:31Z</time></trkpt><trkpt lat="43.87076182581812" lon="10.359718929026482"><ele>74.5</ele><time>2026-04-09T14:22:32Z</time></trkpt><trkpt lat="43.87079189737395" lon="10.359361942026364"><ele>81.0</ele><time>2026-04-09T14:22:33Z</time></trkpt><trkpt lat="43.87081286856881" lon="10.359006598292723"><ele>83.5</ele><time>2026-04-09T14:22:34Z</time></trkpt><trkpt lat="43.87082658419437" lon="10.35864841841986"><ele>86.0</ele><time>2026-04-09T14:22:35Z</time></trkpt><trkpt lat="43.87083916611564" lon="10.358286406699737"><ele>84.0</ele><time>2026-04-09T14:22:36Z</time></trkpt><trkpt lat="43.87084894101766" lon="10.357921137178085"><ele>82.0</ele><time>2026-04-09T14:22:37Z</time></trkpt><trkpt lat="43.870860448698096" lon="10.357553020066149"><ele>89.0</ele><time>2026-04-09T14:22:38Z</time></trkpt><trkpt lat="43.87087247147481" lon="10.357181830018316"><ele>96.0</ele><time>2026-04-09T14:22:39Z</time></trkpt><trkpt lat="43.870882471150686" lon="10.356806065331606"><ele>96.0</ele><time>2026-04-09T14:22:40Z</time></trkpt><trkpt lat="43.87089263414557" lon="10.356441504638042"><ele>96.0</ele><time>2026-04-09T14:22:41Z</time></trkpt><trkpt lat="43.870902416233186" lon="10.356089687255071"><ele>100.5</ele><time>2026-04-09T14:22:42Z</time></trkpt><trkpt lat="43.87091372361715" lon="10.355731498555011"><ele>105.0</ele><time>2026-04-09T14:22:43Z</time></trkpt><trkpt lat="43.87092099453385" lon="10.355366096148531"><ele>111.0</ele><time>2026-04-09T14:22:44Z</time></trkpt><trkpt lat="43.87093106670956" lon="10.354998114000969"><ele>117.0</ele><time>2026-04-09T14:22:45Z</time></trkpt><trkpt lat="43.8709406480295" lon="10.354629907726718"><ele>136.0</ele><time>2026-04-09T14:22:46.021Z</time></trkpt><trkpt lat="43.870947541519854" lon="10.354285861743909"><ele>155.0</ele><time>2026-04-09T14:22:47.019Z</time></trkpt><trkpt lat="43.870953666995966" lon="10.353954820996224"><ele>147.0</ele><time>2026-04-09T14:22:48.017Z</time></trkpt><trkpt lat="43.87096301841234" lon="10.353621875242423"><ele>139.0</ele><time>2026-04-09T14:22:49.017Z</time></trkpt><trkpt lat="43.871340529790565" lon="10.351584193626794"><ele>115.0</ele><time>2026-04-09T14:22:55Z</time></trkpt><trkpt lat="43.87145724272466" lon="10.351249257975347"><ele>91.0</ele><time>2026-04-09T14:22:56Z</time></trkpt><trkpt lat="43.871598161864995" lon="10.350966820744315"><ele>91.0</ele><time>2026-04-09T14:22:57Z</time></trkpt><trkpt lat="43.87172061765895" lon="10.350694741267304"><ele>91.0</ele><time>2026-04-09T14:22:58Z</time></trkpt><trkpt lat="43.871848828688584" lon="10.350440928559848"><ele>94.0</ele><time>2026-04-09T14:22:59Z</time></trkpt><trkpt lat="43.87198923325301" lon="10.350201811882076"><ele>97.0</ele><time>2026-04-09T14:23:00Z</time></trkpt><trkpt lat="43.87214579715058" lon="10.349960857575837"><ele>97.0</ele><time>2026-04-09T14:23:01Z</time></trkpt><trkpt lat="43.87231649622044" lon="10.349721186232717"><ele>97.0</ele><time>2026-04-09T14:23:02Z</time></trkpt><trkpt lat="43.8724991710087" lon="10.349479260879246"><ele>104.5</ele><time>2026-04-09T14:23:03Z</time></trkpt><trkpt lat="43.87268647827935" lon="10.349242441146353"><ele>112.0</ele><time>2026-04-09T14:23:04Z</time></trkpt><trkpt lat="43.87288764345301" lon="10.34900088451924"><ele>109.5</ele><time>2026-04-09T14:23:05Z</time></trkpt><trkpt lat="43.873106316435745" lon="10.348740363257535"><ele>107.0</ele><time>2026-04-09T14:23:06Z</time></trkpt><trkpt lat="43.87334385944321" lon="10.348459252758387"><ele>99.0</ele><time>2026-04-09T14:23:07.02Z</time></trkpt><trkpt lat="43.87359024008271" lon="10.348169686514861"><ele>91.0</ele><time>2026-04-09T14:23:08.019Z</time></trkpt><trkpt lat="43.87382774159069" lon="10.347889192250245"><ele>84.5</ele><time>2026-04-09T14:23:09.02Z</time></trkpt><trkpt lat="43.87405725564686" lon="10.347623711750067"><ele>78.0</ele><time>2026-04-09T14:23:10.02Z</time></trkpt><trkpt lat="43.87449178328547" lon="10.34713584407038"><ele>68.0</ele><time>2026-04-09T14:23:11.999Z</time></trkpt><trkpt lat="43.87469721314022" lon="10.346871043368036"><ele>58.0</ele><time>2026-04-09T14:23:12.999Z</time></trkpt><trkpt lat="43.8748916506244" lon="10.346648360053617"><ele>58.0</ele><time>2026-04-09T14:23:13.999Z</time></trkpt><trkpt lat="43.875087158497266" lon="10.34641934911379"><ele>58.0</ele><time>2026-04-09T14:23:14.999Z</time></trkpt><trkpt lat="43.875280108619705" lon="10.346187917845148"><ele>50.5</ele><time>2026-04-09T14:23:15.999Z</time></trkpt><trkpt lat="43.87547827905255" lon="10.345957023882374"><ele>43.0</ele><time>2026-04-09T14:23:16.999Z</time></trkpt><trkpt lat="43.875673914984446" lon="10.345727212929253"><ele>41.5</ele><time>2026-04-09T14:23:17.999Z</time></trkpt><trkpt lat="43.87586935740857" lon="10.34549401061702"><ele>40.0</ele><time>2026-04-09T14:23:18.999Z</time></trkpt><trkpt lat="43.87606452631589" lon="10.345259446247507"><ele>44.0</ele><time>2026-04-09T14:23:19.999Z</time></trkpt><trkpt lat="43.87626087132642" lon="10.345027657042735"><ele>48.0</ele><time>2026-04-09T14:23:20.999Z</time></trkpt><trkpt lat="43.876457680766286" lon="10.34479650831372"><ele>46.5</ele><time>2026-04-09T14:23:21.999Z</time></trkpt><trkpt lat="43.87665499710953" lon="10.344567291150254"><ele>45.0</ele><time>2026-04-09T14:23:22.999Z</time></trkpt><trkpt lat="43.87685171870642" lon="10.34433728839743"><ele>45.0</ele><time>2026-04-09T14:23:23.999Z</time></trkpt><trkpt lat="43.87704765744695" lon="10.344105041487916"><ele>45.0</ele><time>2026-04-09T14:23:24.999Z</time></trkpt><trkpt lat="43.87724247162641" lon="10.34387677275104"><ele>42.0</ele><time>2026-04-09T14:23:25.999Z</time></trkpt><trkpt lat="43.87743807478921" lon="10.343649690076074"><ele>39.0</ele><time>2026-04-09T14:23:26.999Z</time></trkpt><trkpt lat="43.87763251924818" lon="10.343421270555318"><ele>38.0</ele><time>2026-04-09T14:23:28Z</time></trkpt><trkpt lat="43.877824415833906" lon="10.343194631486956"><ele>37.0</ele><time>2026-04-09T14:23:29Z</time></trkpt><trkpt lat="43.87801451277771" lon="10.342969658596942"><ele>40.5</ele><time>2026-04-09T14:23:30Z</time></trkpt><trkpt lat="43.87820025255624" lon="10.342742340696894"><ele>44.0</ele><time>2026-04-09T14:23:31Z</time></trkpt><trkpt lat="43.87838063367513" lon="10.342506550505092"><ele>41.5</ele><time>2026-04-09T14:23:32Z</time></trkpt><trkpt lat="43.87854853965234" lon="10.342258294166996"><ele>39.0</ele><time>2026-04-09T14:23:33Z</time></trkpt><trkpt lat="43.878709012450805" lon="10.342003045433227"><ele>45.0</ele><time>2026-04-09T14:23:34Z</time></trkpt><trkpt lat="43.87885868271436" lon="10.341741323483928"><ele>51.0</ele><time>2026-04-09T14:23:35Z</time></trkpt><trkpt lat="43.87899830949222" lon="10.341470852966037"><ele>55.0</ele><time>2026-04-09T14:23:36Z</time></trkpt><trkpt lat="43.87912799097099" lon="10.341193790532094"><ele>59.0</ele><time>2026-04-09T14:23:37Z</time></trkpt><trkpt lat="43.879253247252294" lon="10.340901760292466"><ele>67.0</ele><time>2026-04-09T14:23:38Z</time></trkpt><trkpt lat="43.87937839370018" lon="10.340584760269076"><ele>75.0</ele><time>2026-04-09T14:23:39Z</time></trkpt><trkpt lat="43.879494441222555" lon="10.340263320517705"><ele>75.5</ele><time>2026-04-09T14:23:40Z</time></trkpt><trkpt lat="43.879584772719355" lon="10.339959661563245"><ele>76.0</ele><time>2026-04-09T14:23:41Z</time></trkpt><trkpt lat="43.87966374965399" lon="10.339653626010096"><ele>71.5</ele><time>2026-04-09T14:23:42Z</time></trkpt><trkpt lat="43.87973660551034" lon="10.339334264302197"><ele>67.0</ele><time>2026-04-09T14:23:43Z</time></trkpt><trkpt lat="43.87979905603085" lon="10.339001687068688"><ele>64.5</ele><time>2026-04-09T14:23:44Z</time></trkpt><trkpt lat="43.87985088859033" lon="10.338664472057845"><ele>62.0</ele><time>2026-04-09T14:23:45Z</time></trkpt><trkpt lat="43.87989837482764" lon="10.338320139997952"><ele>63.0</ele><time>2026-04-09T14:23:46Z</time></trkpt><trkpt lat="43.87994678016162" lon="10.3379702417442"><ele>64.0</ele><time>2026-04-09T14:23:47Z</time></trkpt><trkpt lat="43.87999064993284" lon="10.337615807094505"><ele>64.0</ele><time>2026-04-09T14:23:48Z</time></trkpt><trkpt lat="43.88003571439808" lon="10.337262062537743"><ele>64.0</ele><time>2026-04-09T14:23:49Z</time></trkpt><trkpt lat="43.88008182113757" lon="10.336904756263465"><ele>65.5</ele><time>2026-04-09T14:23:50Z</time></trkpt><trkpt lat="43.880127125017545" lon="10.336547159260993"><ele>67.0</ele><time>2026-04-09T14:23:51Z</time></trkpt><trkpt lat="43.88017380777861" lon="10.336187876568104"><ele>67.0</ele><time>2026-04-09T14:23:52Z</time></trkpt><trkpt lat="43.880222210365794" lon="10.335828412746837"><ele>67.0</ele><time>2026-04-09T14:23:53Z</time></trkpt><trkpt lat="43.88026938230837" lon="10.335465737986093"><ele>64.0</ele><time>2026-04-09T14:23:54Z</time></trkpt><trkpt lat="43.88031526818145" lon="10.335101043302169"><ele>61.0</ele><time>2026-04-09T14:23:55Z</time></trkpt><trkpt lat="43.8803599165516" lon="10.334734410900651"><ele>59.0</ele><time>2026-04-09T14:23:56Z</time></trkpt><trkpt lat="43.88040797533695" lon="10.334367201738583"><ele>57.0</ele><time>2026-04-09T14:23:57Z</time></trkpt><trkpt lat="43.880457104588054" lon="10.334000112952419"><ele>59.5</ele><time>2026-04-09T14:23:58Z</time></trkpt><trkpt lat="43.88050519482581" lon="10.333633091223456"><ele>62.0</ele><time>2026-04-09T14:23:59Z</time></trkpt><trkpt lat="43.88054937311681" lon="10.33329129148169"><ele>63.5</ele><time>2026-04-09T14:24:00Z</time></trkpt><trkpt lat="43.88059240926037" lon="10.33296394481017"><ele>65.0</ele><time>2026-04-09T14:24:01Z</time></trkpt><trkpt lat="43.88063737017715" lon="10.332627540825987"><ele>65.0</ele><time>2026-04-09T14:24:02Z</time></trkpt><trkpt lat="43.88069001385457" lon="10.332284273724875"><ele>65.0</ele><time>2026-04-09T14:24:03Z</time></trkpt><trkpt lat="43.88075061507242" lon="10.331937494632168"><ele>59.5</ele><time>2026-04-09T14:24:04Z</time></trkpt><trkpt lat="43.88081889466138" lon="10.331589823426215"><ele>54.0</ele><time>2026-04-09T14:24:05Z</time></trkpt><trkpt lat="43.88089660138007" lon="10.33124207075195"><ele>51.0</ele><time>2026-04-09T14:24:06Z</time></trkpt><trkpt lat="43.880979264973725" lon="10.330902609141564"><ele>48.0</ele><time>2026-04-09T14:24:07Z</time></trkpt><trkpt lat="43.88106564190392" lon="10.330590779234655"><ele>40.5</ele><time>2026-04-09T14:24:08Z</time></trkpt><trkpt lat="43.881158131504975" lon="10.330276841679426"><ele>33.0</ele><time>2026-04-09T14:24:09Z</time></trkpt><trkpt lat="43.881251617287084" lon="10.329956625390702"><ele>28.5</ele><time>2026-04-09T14:24:10Z</time></trkpt><trkpt lat="43.88134781981026" lon="10.329634402261545"><ele>24.0</ele><time>2026-04-09T14:24:11Z</time></trkpt><trkpt lat="43.881442390188774" lon="10.329310559040549"><ele>24.0</ele><time>2026-04-09T14:24:12Z</time></trkpt><trkpt lat="43.88153770351265" lon="10.328986464953212"><ele>24.0</ele><time>2026-04-09T14:24:13Z</time></trkpt><trkpt lat="43.88163353998711" lon="10.328660642867765"><ele>24.0</ele><time>2026-04-09T14:24:14Z</time></trkpt><trkpt lat="43.8817307432671" lon="10.32833269240797"><ele>24.0</ele><time>2026-04-09T14:24:15Z</time></trkpt><trkpt lat="43.88182863390983" lon="10.328003258002312"><ele>33.5</ele><time>2026-04-09T14:24:16Z</time></trkpt><trkpt lat="43.88192752626648" lon="10.327671560837578"><ele>43.0</ele><time>2026-04-09T14:24:17Z</time></trkpt><trkpt lat="43.88202708308549" lon="10.32733827966975"><ele>52.0</ele><time>2026-04-09T14:24:18Z</time></trkpt><trkpt lat="43.88212653046083" lon="10.327003481891838"><ele>61.0</ele><time>2026-04-09T14:24:19Z</time></trkpt><trkpt lat="43.88222617750292" lon="10.326669143808983"><ele>59.5</ele><time>2026-04-09T14:24:20Z</time></trkpt><trkpt lat="43.88231891189194" lon="10.326353993847643"><ele>58.0</ele><time>2026-04-09T14:24:21Z</time></trkpt><trkpt lat="43.8824106101573" lon="10.326044929794941"><ele>58.0</ele><time>2026-04-09T14:24:22Z</time></trkpt><trkpt lat="43.88250337705053" lon="10.325730134966719"><ele>58.0</ele><time>2026-04-09T14:24:23Z</time></trkpt><trkpt lat="43.882595326691266" lon="10.325412980306131"><ele>53.0</ele><time>2026-04-09T14:24:24Z</time></trkpt><trkpt lat="43.88269022810262" lon="10.325093028587926"><ele>48.0</ele><time>2026-04-09T14:24:25Z</time></trkpt><trkpt lat="43.88278528969547" lon="10.324768228023249"><ele>46.0</ele><time>2026-04-09T14:24:26Z</time></trkpt><trkpt lat="43.882882063397936" lon="10.324440562955038"><ele>44.0</ele><time>2026-04-09T14:24:27Z</time></trkpt><trkpt lat="43.882979361165845" lon="10.324111634838056"><ele>44.0</ele><time>2026-04-09T14:24:28Z</time></trkpt><trkpt lat="43.883077859547534" lon="10.323781353261198"><ele>44.0</ele><time>2026-04-09T14:24:29Z</time></trkpt><trkpt lat="43.883177136968676" lon="10.323448781069404"><ele>44.0</ele><time>2026-04-09T14:24:30Z</time></trkpt><trkpt lat="43.883275899405064" lon="10.323114502595672"><ele>44.0</ele><time>2026-04-09T14:24:31Z</time></trkpt><trkpt lat="43.883376652203914" lon="10.322776355854314"><ele>48.5</ele><time>2026-04-09T14:24:32Z</time></trkpt><trkpt lat="43.88347677252817" lon="10.322437834246307"><ele>53.0</ele><time>2026-04-09T14:24:33Z</time></trkpt><trkpt lat="43.88357046725696" lon="10.322094133408735"><ele>53.0</ele><time>2026-04-09T14:24:34Z</time></trkpt><trkpt lat="43.88365209903096" lon="10.321755455984553"><ele>53.0</ele><time>2026-04-09T14:24:35Z</time></trkpt><trkpt lat="43.8837237437191" lon="10.321422693070373"><ele>54.0</ele><time>2026-04-09T14:24:36Z</time></trkpt><trkpt lat="43.88378267558761" lon="10.321081991250718"><ele>55.0</ele><time>2026-04-09T14:24:37Z</time></trkpt><trkpt lat="43.88382848734102" lon="10.320736238027369"><ele>50.5</ele><time>2026-04-09T14:24:38Z</time></trkpt><trkpt lat="43.88386438945039" lon="10.320384484900652"><ele>46.0</ele><time>2026-04-09T14:24:39Z</time></trkpt><trkpt lat="43.88390011847099" lon="10.320030458617207"><ele>39.0</ele><time>2026-04-09T14:24:40Z</time></trkpt><trkpt lat="43.88393046190158" lon="10.3196693338564"><ele>32.0</ele><time>2026-04-09T14:24:41Z</time></trkpt><trkpt lat="43.88396068089826" lon="10.319308435801933"><ele>32.0</ele><time>2026-04-09T14:24:42Z</time></trkpt><trkpt lat="43.88399379358482" lon="10.318946641944484"><ele>32.0</ele><time>2026-04-09T14:24:43Z</time></trkpt><trkpt lat="43.88402672328053" lon="10.318581471165322"><ele>35.5</ele><time>2026-04-09T14:24:44Z</time></trkpt><trkpt lat="43.88405858723412" lon="10.318214738192188"><ele>39.0</ele><time>2026-04-09T14:24:45Z</time></trkpt><trkpt lat="43.88408960313533" lon="10.317846999746173"><ele>40.5</ele><time>2026-04-09T14:24:46Z</time></trkpt><trkpt lat="43.88412133544608" lon="10.317479291414921"><ele>42.0</ele><time>2026-04-09T14:24:47Z</time></trkpt><trkpt lat="43.884153137017144" lon="10.3171084992068"><ele>42.0</ele><time>2026-04-09T14:24:48Z</time></trkpt><trkpt lat="43.88418757464121" lon="10.316737276201204"><ele>42.0</ele><time>2026-04-09T14:24:49Z</time></trkpt><trkpt lat="43.88422034037099" lon="10.316366834228004"><ele>40.0</ele><time>2026-04-09T14:24:50Z</time></trkpt><trkpt lat="43.88424892857495" lon="10.315994211292033"><ele>38.0</ele><time>2026-04-09T14:24:51Z</time></trkpt><trkpt lat="43.88426834378384" lon="10.315632038678498"><ele>31.5</ele><time>2026-04-09T14:24:52Z</time></trkpt><trkpt lat="43.88427777745152" lon="10.31528031835713"><ele>25.0</ele><time>2026-04-09T14:24:53Z</time></trkpt><trkpt lat="43.884275765295584" lon="10.314924128466782"><ele>17.5</ele><time>2026-04-09T14:24:54Z</time></trkpt><trkpt lat="43.88425992737621" lon="10.314569412414727"><ele>10.0</ele><time>2026-04-09T14:24:55Z</time></trkpt><trkpt lat="43.88423164868681" lon="10.314217125159404"><ele>8.5</ele><time>2026-04-09T14:24:56Z</time></trkpt><trkpt lat="43.88419476482013" lon="10.313868152472656"><ele>7.0</ele><time>2026-04-09T14:24:57Z</time></trkpt><trkpt lat="43.884158191215164" lon="10.313522398051981"><ele>7.0</ele><time>2026-04-09T14:24:58Z</time></trkpt><trkpt lat="43.88412492263633" lon="10.313174580053781"><ele>7.0</ele><time>2026-04-09T14:24:59Z</time></trkpt><trkpt lat="43.88409043001678" lon="10.31282264267972"><ele>6.5</ele><time>2026-04-09T14:25:00Z</time></trkpt><trkpt lat="43.884055152393984" lon="10.312467903818707"><ele>6.0</ele><time>2026-04-09T14:25:01Z</time></trkpt><trkpt lat="43.88401886612699" lon="10.312107895795076"><ele>5.5</ele><time>2026-04-09T14:25:02Z</time></trkpt><trkpt lat="43.88398134805767" lon="10.311735496833895"><ele>5.0</ele><time>2026-04-09T14:25:03Z</time></trkpt><trkpt lat="43.88393932654235" lon="10.311347289442613"><ele>5.0</ele><time>2026-04-09T14:25:04Z</time></trkpt><trkpt lat="43.8838974265102" lon="10.310948780688424"><ele>5.0</ele><time>2026-04-09T14:25:04.999Z</time></trkpt><trkpt lat="43.88386229252004" lon="10.310553230872596"><ele>11.5</ele><time>2026-04-09T14:25:05.999Z</time></trkpt><trkpt lat="43.883836222588606" lon="10.310186585121784"><ele>18.0</ele><time>2026-04-09T14:25:06.999Z</time></trkpt><trkpt lat="43.88382192551396" lon="10.309832347459857"><ele>27.0</ele><time>2026-04-09T14:25:07.999Z</time></trkpt><trkpt lat="43.883822458500774" lon="10.30947958004274"><ele>36.0</ele><time>2026-04-09T14:25:08.999Z</time></trkpt><trkpt lat="43.88383702009469" lon="10.309121789159763"><ele>38.5</ele><time>2026-04-09T14:25:09.999Z</time></trkpt><trkpt lat="43.88386278704323" lon="10.308762389307907"><ele>41.0</ele><time>2026-04-09T14:25:10.999Z</time></trkpt><trkpt lat="43.883902394238355" lon="10.308404387098621"><ele>34.5</ele><time>2026-04-09T14:25:11.999Z</time></trkpt><trkpt lat="43.88395527967827" lon="10.308046974402188"><ele>28.0</ele><time>2026-04-09T14:25:12.999Z</time></trkpt><trkpt lat="43.88401980220833" lon="10.307686819103976"><ele>28.0</ele><time>2026-04-09T14:25:13.999Z</time></trkpt><trkpt lat="43.88409029013773" lon="10.307347074464014"><ele>28.0</ele><time>2026-04-09T14:25:14.999Z</time></trkpt><trkpt lat="43.884159598704805" lon="10.3070258610143"><ele>24.5</ele><time>2026-04-09T14:25:15.999Z</time></trkpt><trkpt lat="43.88423449036559" lon="10.306701631879982"><ele>21.0</ele><time>2026-04-09T14:25:16.999Z</time></trkpt><trkpt lat="43.88430830433149" lon="10.306369220077345"><ele>28.5</ele><time>2026-04-09T14:25:17.999Z</time></trkpt><trkpt lat="43.88438259986312" lon="10.306030852064282"><ele>36.0</ele><time>2026-04-09T14:25:18.999Z</time></trkpt><trkpt lat="43.88445962502355" lon="10.305686513364948"><ele>32.0</ele><time>2026-04-09T14:25:19.999Z</time></trkpt><trkpt lat="43.884537842224184" lon="10.305335560553075"><ele>28.0</ele><time>2026-04-09T14:25:20.999Z</time></trkpt><trkpt lat="43.8846176945766" lon="10.304977975480423"><ele>27.0</ele><time>2026-04-09T14:25:21.999Z</time></trkpt><trkpt lat="43.8846990355013" lon="10.304616522671079"><ele>26.0</ele><time>2026-04-09T14:25:22.999Z</time></trkpt><trkpt lat="43.88477851332854" lon="10.304246818138875"><ele>22.5</ele><time>2026-04-09T14:25:23.999Z</time></trkpt><trkpt lat="43.8848564212549" lon="10.303895062224607"><ele>19.0</ele><time>2026-04-09T14:25:24.999Z</time></trkpt><trkpt lat="43.88493143919014" lon="10.303558088526673"><ele>19.0</ele><time>2026-04-09T14:25:25.999Z</time></trkpt><trkpt lat="43.88500935973003" lon="10.303224670691307"><ele>19.0</ele><time>2026-04-09T14:25:26.999Z</time></trkpt><trkpt lat="43.88508503294114" lon="10.302889359215934"><ele>18.5</ele><time>2026-04-09T14:25:27.999Z</time></trkpt><trkpt lat="43.885162699952055" lon="10.302550519774949"><ele>18.0</ele><time>2026-04-09T14:25:28.999Z</time></trkpt><trkpt lat="43.88523900873348" lon="10.302208088943656"><ele>18.0</ele><time>2026-04-09T14:25:29.999Z</time></trkpt><trkpt lat="43.88531591703488" lon="10.301864092484138"><ele>18.0</ele><time>2026-04-09T14:25:30.999Z</time></trkpt><trkpt lat="43.88539286496163" lon="10.301519456143836"><ele>14.0</ele><time>2026-04-09T14:25:31.999Z</time></trkpt><trkpt lat="43.885470921875566" lon="10.301172189804555"><ele>10.0</ele><time>2026-04-09T14:25:32.999Z</time></trkpt><trkpt lat="43.8855505551558" lon="10.300821955964802"><ele>7.0</ele><time>2026-04-09T14:25:34Z</time></trkpt><trkpt lat="43.88563180257923" lon="10.300469786561873"><ele>4.0</ele><time>2026-04-09T14:25:35Z</time></trkpt><trkpt lat="43.88571046422105" lon="10.30011502055958"><ele>4.0</ele><time>2026-04-09T14:25:36Z</time></trkpt><trkpt lat="43.88579459242799" lon="10.29976109022677"><ele>4.0</ele><time>2026-04-09T14:25:37Z</time></trkpt><trkpt lat="43.885884820826575" lon="10.299409139545526"><ele>1.5</ele><time>2026-04-09T14:25:38Z</time></trkpt><trkpt lat="43.8859836594301" lon="10.2990603356947"><ele>-1.0</ele><time>2026-04-09T14:25:39Z</time></trkpt><trkpt lat="43.886091052494365" lon="10.29872408162705"><ele>-0.5</ele><time>2026-04-09T14:25:40Z</time></trkpt><trkpt lat="43.886201902738705" lon="10.298402485348454"><ele>0.0</ele><time>2026-04-09T14:25:41Z</time></trkpt><trkpt lat="43.88631056746858" lon="10.298077835541584"><ele>0.0</ele><time>2026-04-09T14:25:42Z</time></trkpt><trkpt lat="43.88641731212584" lon="10.297759654458353"><ele>0.0</ele><time>2026-04-09T14:25:43Z</time></trkpt><trkpt lat="43.88652177138218" lon="10.297441426402719"><ele>-0.5</ele><time>2026-04-09T14:25:44Z</time></trkpt><trkpt lat="43.88662786927231" lon="10.297129346140213"><ele>-1.0</ele><time>2026-04-09T14:25:45Z</time></trkpt><trkpt lat="43.88673574224446" lon="10.296808452117068"><ele>-1.0</ele><time>2026-04-09T14:25:46Z</time></trkpt><trkpt lat="43.886842644515944" lon="10.296483907788755"><ele>-1.0</ele><time>2026-04-09T14:25:47Z</time></trkpt><trkpt lat="43.88695018721793" lon="10.296161004667438"><ele>0.0</ele><time>2026-04-09T14:25:48Z</time></trkpt><trkpt lat="43.887057465226526" lon="10.295831721729549"><ele>1.0</ele><time>2026-04-09T14:25:49Z</time></trkpt><trkpt lat="43.887170089400584" lon="10.29550506096944"><ele>1.0</ele><time>2026-04-09T14:25:50Z</time></trkpt><trkpt lat="43.88727927333957" lon="10.295179947224542"><ele>1.0</ele><time>2026-04-09T14:25:51Z</time></trkpt><trkpt lat="43.887391694274854" lon="10.294856987323167"><ele>1.0</ele><time>2026-04-09T14:25:52Z</time></trkpt><trkpt lat="43.88750934241986" lon="10.29452708849998"><ele>1.0</ele><time>2026-04-09T14:25:53Z</time></trkpt><trkpt lat="43.88761905203463" lon="10.294198025317739"><ele>0.0</ele><time>2026-04-09T14:25:54Z</time></trkpt><trkpt lat="43.88773424852497" lon="10.293863545188865"><ele>-1.0</ele><time>2026-04-09T14:25:55Z</time></trkpt><trkpt lat="43.88784975305559" lon="10.293524635744847"><ele>-1.0</ele><time>2026-04-09T14:25:56Z</time></trkpt><trkpt lat="43.887957671604134" lon="10.293193925951654"><ele>-1.0</ele><time>2026-04-09T14:25:57Z</time></trkpt><trkpt lat="43.88806696926704" lon="10.292866544770595"><ele>0.0</ele><time>2026-04-09T14:25:58Z</time></trkpt><trkpt lat="43.88817744605071" lon="10.292539702046254"><ele>1.0</ele><time>2026-04-09T14:25:59Z</time></trkpt><trkpt lat="43.88828730219194" lon="10.292213734319926"><ele>1.0</ele><time>2026-04-09T14:26:00Z</time></trkpt><trkpt lat="43.88839730106197" lon="10.29188873717011"><ele>1.0</ele><time>2026-04-09T14:26:01Z</time></trkpt><trkpt lat="43.88850499372028" lon="10.291567519169108"><ele>0.0</ele><time>2026-04-09T14:26:02Z</time></trkpt><trkpt lat="43.88861243631809" lon="10.29124394855934"><ele>-1.0</ele><time>2026-04-09T14:26:03Z</time></trkpt><trkpt lat="43.88872253866591" lon="10.290921342075919"><ele>-1.0</ele><time>2026-04-09T14:26:04Z</time></trkpt><trkpt lat="43.8888278687934" lon="10.290600593103818"><ele>-1.0</ele><time>2026-04-09T14:26:05Z</time></trkpt><trkpt lat="43.8889327592088" lon="10.290282426785113"><ele>-1.0</ele><time>2026-04-09T14:26:06Z</time></trkpt><trkpt lat="43.88903816476146" lon="10.289969026477863"><ele>-1.0</ele><time>2026-04-09T14:26:07Z</time></trkpt><trkpt lat="43.889141274592085" lon="10.289655788317601"><ele>-1.5</ele><time>2026-04-09T14:26:08Z</time></trkpt><trkpt lat="43.88924505359892" lon="10.289348767612552"><ele>-2.0</ele><time>2026-04-09T14:26:09Z</time></trkpt><trkpt lat="43.88934950481777" lon="10.289035483123497"><ele>-1.0</ele><time>2026-04-09T14:26:10Z</time></trkpt><trkpt lat="43.88945448926494" lon="10.28871884064579"><ele>0.0</ele><time>2026-04-09T14:26:11Z</time></trkpt><trkpt lat="43.889561455070634" lon="10.288408118777399"><ele>0.0</ele><time>2026-04-09T14:26:12Z</time></trkpt><trkpt lat="43.88966583058189" lon="10.288090783106401"><ele>0.0</ele><time>2026-04-09T14:26:13Z</time></trkpt><trkpt lat="43.889770720686506" lon="10.287772038520536"><ele>0.0</ele><time>2026-04-09T14:26:14Z</time></trkpt><trkpt lat="43.88987796125346" lon="10.287451587738385"><ele>0.0</ele><time>2026-04-09T14:26:15Z</time></trkpt><trkpt lat="43.889987927667434" lon="10.287127908192863"><ele>-0.5</ele><time>2026-04-09T14:26:16Z</time></trkpt><trkpt lat="43.89009954875191" lon="10.2868024482236"><ele>-1.0</ele><time>2026-04-09T14:26:17Z</time></trkpt><trkpt lat="43.89021134384236" lon="10.286471869555472"><ele>-1.5</ele><time>2026-04-09T14:26:18Z</time></trkpt><trkpt lat="43.89032330385462" lon="10.286138580590642"><ele>-2.0</ele><time>2026-04-09T14:26:19Z</time></trkpt><trkpt lat="43.890433937334286" lon="10.285798850588288"><ele>-1.5</ele><time>2026-04-09T14:26:20Z</time></trkpt><trkpt lat="43.890545483730016" lon="10.285458678312375"><ele>-1.0</ele><time>2026-04-09T14:26:21Z</time></trkpt><trkpt lat="43.890661516987684" lon="10.2851138115588"><ele>-1.0</ele><time>2026-04-09T14:26:22Z</time></trkpt><trkpt lat="43.89077293424993" lon="10.28476684499837"><ele>-1.0</ele><time>2026-04-09T14:26:23Z</time></trkpt><trkpt lat="43.89089352247989" lon="10.284423765584624"><ele>-1.0</ele><time>2026-04-09T14:26:24Z</time></trkpt><trkpt lat="43.89100467133093" lon="10.284078645641086"><ele>-1.0</ele><time>2026-04-09T14:26:25Z</time></trkpt><trkpt lat="43.89112035139582" lon="10.283732302837194"><ele>-1.0</ele><time>2026-04-09T14:26:26Z</time></trkpt><trkpt lat="43.89123628752122" lon="10.283377377155928"><ele>-1.0</ele><time>2026-04-09T14:26:27Z</time></trkpt><trkpt lat="43.891349829949874" lon="10.283028415356261"><ele>-1.0</ele><time>2026-04-09T14:26:28Z</time></trkpt><trkpt lat="43.891462873494994" lon="10.282687925632715"><ele>-1.0</ele><time>2026-04-09T14:26:29Z</time></trkpt><trkpt lat="43.8915689582902" lon="10.2823670122679"><ele>-1.5</ele><time>2026-04-09T14:26:30Z</time></trkpt><trkpt lat="43.891675499803604" lon="10.282050724679348"><ele>-2.0</ele><time>2026-04-09T14:26:31Z</time></trkpt><trkpt lat="43.89178219315112" lon="10.28173908969099"><ele>-1.0</ele><time>2026-04-09T14:26:32Z</time></trkpt><trkpt lat="43.891888106872" lon="10.281421043244864"><ele>0.0</ele><time>2026-04-09T14:26:33Z</time></trkpt><trkpt lat="43.89199301444172" lon="10.281099368163739"><ele>0.0</ele><time>2026-04-09T14:26:34Z</time></trkpt><trkpt lat="43.89209643804337" lon="10.280772878783095"><ele>0.0</ele><time>2026-04-09T14:26:35Z</time></trkpt><trkpt lat="43.89219064791363" lon="10.280439476351273"><ele>0.5</ele><time>2026-04-09T14:26:36Z</time></trkpt><trkpt lat="43.89227786743397" lon="10.280098751640272"><ele>1.0</ele><time>2026-04-09T14:26:37Z</time></trkpt><trkpt lat="43.89235347812696" lon="10.27975336602824"><ele>1.0</ele><time>2026-04-09T14:26:38Z</time></trkpt><trkpt lat="43.89241760510909" lon="10.279404763941084"><ele>1.0</ele><time>2026-04-09T14:26:39Z</time></trkpt><trkpt lat="43.892473094013795" lon="10.279053037244898"><ele>0.0</ele><time>2026-04-09T14:26:40Z</time></trkpt><trkpt lat="43.892521202155486" lon="10.278696688087566"><ele>-1.0</ele><time>2026-04-09T14:26:41Z</time></trkpt><trkpt lat="43.89256160868046" lon="10.278343136536764"><ele>-2.0</ele><time>2026-04-09T14:26:42Z</time></trkpt><trkpt lat="43.89259175908766" lon="10.27798405644193"><ele>-3.0</ele><time>2026-04-09T14:26:43Z</time></trkpt><trkpt lat="43.892613760675644" lon="10.277622195736694"><ele>-3.0</ele><time>2026-04-09T14:26:44Z</time></trkpt><trkpt lat="43.892624190901614" lon="10.27725670606458"><ele>-3.0</ele><time>2026-04-09T14:26:45Z</time></trkpt><trkpt lat="43.89262663747126" lon="10.276890955431975"><ele>-3.0</ele><time>2026-04-09T14:26:46Z</time></trkpt><trkpt lat="43.89261772160254" lon="10.276525428539554"><ele>-3.0</ele><time>2026-04-09T14:26:47Z</time></trkpt><trkpt lat="43.89259750052884" lon="10.276158142276529"><ele>-2.5</ele><time>2026-04-09T14:26:48Z</time></trkpt><trkpt lat="43.89256966371325" lon="10.275796431194545"><ele>-2.0</ele><time>2026-04-09T14:26:49Z</time></trkpt><trkpt lat="43.89253213189306" lon="10.275433239112042"><ele>-2.0</ele><time>2026-04-09T14:26:50Z</time></trkpt><trkpt lat="43.89248597939092" lon="10.275072403964076"><ele>-2.0</ele><time>2026-04-09T14:26:51Z</time></trkpt><trkpt lat="43.89243107366175" lon="10.27471426113436"><ele>-2.0</ele><time>2026-04-09T14:26:52Z</time></trkpt><trkpt lat="43.89236341180769" lon="10.274358993926596"><ele>-2.0</ele><time>2026-04-09T14:26:53Z</time></trkpt><trkpt lat="43.89228725691405" lon="10.27400809071233"><ele>-2.0</ele><time>2026-04-09T14:26:54Z</time></trkpt><trkpt lat="43.892203598156016" lon="10.273661059047566"><ele>-2.0</ele><time>2026-04-09T14:26:55Z</time></trkpt><trkpt lat="43.89210964303871" lon="10.273320528070917"><ele>-2.5</ele><time>2026-04-09T14:26:56Z</time></trkpt><trkpt lat="43.892009390174245" lon="10.272983529041538"><ele>-3.0</ele><time>2026-04-09T14:26:57Z</time></trkpt><trkpt lat="43.89190227752224" lon="10.272653899374276"><ele>-3.0</ele><time>2026-04-09T14:26:58Z</time></trkpt><trkpt lat="43.89178667815064" lon="10.272328551875196"><ele>-3.0</ele><time>2026-04-09T14:26:59Z</time></trkpt><trkpt lat="43.89166878010898" lon="10.272005336437884"><ele>-3.0</ele><time>2026-04-09T14:27:00Z</time></trkpt><trkpt lat="43.89155015503803" lon="10.271684335518318"><ele>-3.0</ele><time>2026-04-09T14:27:01Z</time></trkpt><trkpt lat="43.8914345186047" lon="10.271369974567246"><ele>-3.0</ele><time>2026-04-09T14:27:02Z</time></trkpt><trkpt lat="43.89131647099203" lon="10.271053183605233"><ele>-3.0</ele><time>2026-04-09T14:27:03Z</time></trkpt><trkpt lat="43.89119428123412" lon="10.270728911527108"><ele>-3.0</ele><time>2026-04-09T14:27:04Z</time></trkpt><trkpt lat="43.8910757515749" lon="10.270409420946748"><ele>-3.0</ele><time>2026-04-09T14:27:05Z</time></trkpt><trkpt lat="43.89095692656077" lon="10.270092628612954"><ele>-3.5</ele><time>2026-04-09T14:27:06Z</time></trkpt><trkpt lat="43.890839582530056" lon="10.269779841863079"><ele>-4.0</ele><time>2026-04-09T14:27:06.999Z</time></trkpt><trkpt lat="43.89072971279626" lon="10.2694841090964"><ele>-3.333333333333333</ele><time>2026-04-09T14:27:07.999Z</time></trkpt><trkpt lat="43.89062585152553" lon="10.269204148528937"><ele>-2.6666666666666665</ele><time>2026-04-09T14:27:08.999Z</time></trkpt><trkpt lat="43.89052715887132" lon="10.268938074126305"><ele>-2.0</ele><time>2026-04-09T14:27:09.999Z</time></trkpt><trkpt lat="43.89043686288323" lon="10.26868962534047"><ele>-2.0</ele><time>2026-04-09T14:27:10.999Z</time></trkpt><trkpt lat="43.89035578438319" lon="10.268452294740987"><ele>-2.0</ele><time>2026-04-09T14:27:11.999Z</time></trkpt><trkpt lat="43.89029060201148" lon="10.268226220518898"><ele>-2.0</ele><time>2026-04-09T14:27:12.999Z</time></trkpt><trkpt lat="43.890241956922026" lon="10.268007457303193"><ele>-2.6666666666666665</ele><time>2026-04-09T14:27:13.999Z</time></trkpt><trkpt lat="43.89020590827131" lon="10.26778373319958"><ele>-3.333333333333333</ele><time>2026-04-09T14:27:14.999Z</time></trkpt><trkpt lat="43.89018452359419" lon="10.267555121523385"><ele>-4.0</ele><time>2026-04-09T14:27:15.999Z</time></trkpt><trkpt lat="43.89017937014644" lon="10.267338740136962"><ele>-4.0</ele><time>2026-04-09T14:27:16.999Z</time></trkpt><trkpt lat="43.890190905073496" lon="10.26711266418723"><ele>-4.0</ele><time>2026-04-09T14:27:17.999Z</time></trkpt><trkpt lat="43.89022789963188" lon="10.266879752550409"><ele>-4.0</ele><time>2026-04-09T14:27:18.999Z</time></trkpt><trkpt lat="43.890280824437255" lon="10.2666486594872"><ele>-3.333333333333333</ele><time>2026-04-09T14:27:19.999Z</time></trkpt><trkpt lat="43.89034852487286" lon="10.266408577899535"><ele>-2.6666666666666665</ele><time>2026-04-09T14:27:20.999Z</time></trkpt><trkpt lat="43.890425610738966" lon="10.266150467682495"><ele>-2.0</ele><time>2026-04-09T14:27:21.999Z</time></trkpt><trkpt lat="43.890487386374495" lon="10.265913969092624"><ele>-2.0</ele><time>2026-04-09T14:27:22.999Z</time></trkpt><trkpt lat="43.89054347517226" lon="10.265671050173356"><ele>-2.0</ele><time>2026-04-09T14:27:23.999Z</time></trkpt><trkpt lat="43.8905869179017" lon="10.265423887896542"><ele>-2.0</ele><time>2026-04-09T14:27:24.999Z</time></trkpt><trkpt lat="43.89060353109952" lon="10.265168901079129"><ele>-2.333333333333333</ele><time>2026-04-09T14:27:25.999Z</time></trkpt><trkpt lat="43.89059810408397" lon="10.264909778991864"><ele>-2.6666666666666665</ele><time>2026-04-09T14:27:26.999Z</time></trkpt><trkpt lat="43.890581315098444" lon="10.264634214327614"><ele>-3.0</ele><time>2026-04-09T14:27:27.999Z</time></trkpt><trkpt lat="43.89056867696673" lon="10.26438804373443"><ele>-3.0</ele><time>2026-04-09T14:27:28.999Z</time></trkpt><trkpt lat="43.89056425465875" lon="10.2641562804129"><ele>-3.0</ele><time>2026-04-09T14:27:29.999Z</time></trkpt><trkpt lat="43.89056483258857" lon="10.263917765599517"><ele>-3.0</ele><time>2026-04-09T14:27:30.999Z</time></trkpt><trkpt lat="43.89057430504001" lon="10.263664315393793"><ele>-3.0</ele><time>2026-04-09T14:27:31.999Z</time></trkpt><trkpt lat="43.89059552121255" lon="10.263404226906024"><ele>-3.0</ele><time>2026-04-09T14:27:32.999Z</time></trkpt><trkpt lat="43.89063269121752" lon="10.263136471421367"><ele>-3.0</ele><time>2026-04-09T14:27:33.999Z</time></trkpt><trkpt lat="43.89068519077404" lon="10.262891331020205"><ele>-2.3333333333333335</ele><time>2026-04-09T14:27:34.999Z</time></trkpt><trkpt lat="43.89075412990062" lon="10.262651792430203"><ele>-1.6666666666666665</ele><time>2026-04-09T14:27:35.999Z</time></trkpt><trkpt lat="43.89084286857392" lon="10.262410757128016"><ele>-1.0</ele><time>2026-04-09T14:27:36.999Z</time></trkpt><trkpt lat="43.89094697054397" lon="10.262168473444422"><ele>-1.0</ele><time>2026-04-09T14:27:37.999Z</time></trkpt><trkpt lat="43.891056813019105" lon="10.26191889768665"><ele>-1.0</ele><time>2026-04-09T14:27:38.999Z</time></trkpt><trkpt lat="43.89117640965055" lon="10.261650144953789"><ele>-1.0</ele><time>2026-04-09T14:27:40Z</time></trkpt><trkpt lat="43.891293342769465" lon="10.26138636942998"><ele>-0.6666666666666666</ele><time>2026-04-09T14:27:41Z</time></trkpt><trkpt lat="43.89140036526768" lon="10.261151296080955"><ele>-0.3333333333333333</ele><time>2026-04-09T14:27:42Z</time></trkpt><trkpt lat="43.89150681021268" lon="10.260929472675196"><ele>0.0</ele><time>2026-04-09T14:27:43Z</time></trkpt><trkpt lat="43.89161877614555" lon="10.260724212517639"><ele>0.0</ele><time>2026-04-09T14:27:44Z</time></trkpt><trkpt lat="43.891740351936754" lon="10.260522096843948"><ele>0.0</ele><time>2026-04-09T14:27:45Z</time></trkpt><trkpt lat="43.8918789624787" lon="10.260318189758362"><ele>0.0</ele><time>2026-04-09T14:27:46Z</time></trkpt><trkpt lat="43.892031147260404" lon="10.260117566477568"><ele>0.0</ele><time>2026-04-09T14:27:47Z</time></trkpt><trkpt lat="43.89218477653519" lon="10.259937553386973"><ele>0.0</ele><time>2026-04-09T14:27:48Z</time></trkpt><trkpt lat="43.89233472182695" lon="10.25977679188683"><ele>0.0</ele><time>2026-04-09T14:27:49Z</time></trkpt><trkpt lat="43.89248726265169" lon="10.259627732477325"><ele>0.3333333333333333</ele><time>2026-04-09T14:27:50Z</time></trkpt><trkpt lat="43.8926535777132" lon="10.259484431346515"><ele>0.6666666666666666</ele><time>2026-04-09T14:27:51Z</time></trkpt><trkpt lat="43.89282037618697" lon="10.259356803980873"><ele>1.0</ele><time>2026-04-09T14:27:52Z</time></trkpt><trkpt lat="43.89299558261163" lon="10.259226481464193"><ele>1.0</ele><time>2026-04-09T14:27:53Z</time></trkpt><trkpt lat="43.89318081504664" lon="10.259087638876256"><ele>1.0</ele><time>2026-04-09T14:27:54Z</time></trkpt><trkpt lat="43.893370965406575" lon="10.258941346250728"><ele>1.0</ele><time>2026-04-09T14:27:55Z</time></trkpt><trkpt lat="43.893565856501475" lon="10.258784996173176"><ele>0.5</ele><time>2026-04-09T14:27:56Z</time></trkpt><trkpt lat="43.89376712001987" lon="10.258621820941826"><ele>0.0</ele><time>2026-04-09T14:27:57Z</time></trkpt><trkpt lat="43.893975240394944" lon="10.258447089494311"><ele>0.0</ele><time>2026-04-09T14:27:58Z</time></trkpt><trkpt lat="43.89418761325299" lon="10.2582541127429"><ele>0.0</ele><time>2026-04-09T14:27:59Z</time></trkpt><trkpt lat="43.8944040051736" lon="10.258048213653156"><ele>0.0</ele><time>2026-04-09T14:28:00Z</time></trkpt><trkpt lat="43.89463561063969" lon="10.257829286576767"><ele>0.0</ele><time>2026-04-09T14:28:01Z</time></trkpt><trkpt lat="43.894870865691736" lon="10.257605229513628"><ele>0.0</ele><time>2026-04-09T14:28:02Z</time></trkpt><trkpt lat="43.895093416027144" lon="10.257381466403507"><ele>0.0</ele><time>2026-04-09T14:28:03Z</time></trkpt><trkpt lat="43.895321970526545" lon="10.257147547336952"><ele>-0.5</ele><time>2026-04-09T14:28:04Z</time></trkpt><trkpt lat="43.89555330981403" lon="10.256911517080978"><ele>-1.0</ele><time>2026-04-09T14:28:05Z</time></trkpt><trkpt lat="43.895786555429126" lon="10.25666750776172"><ele>0.5</ele><time>2026-04-09T14:28:06Z</time></trkpt><trkpt lat="43.896019496173366" lon="10.256412405597596"><ele>2.0</ele><time>2026-04-09T14:28:07Z</time></trkpt><trkpt lat="43.896254008757474" lon="10.256148911989369"><ele>2.0</ele><time>2026-04-09T14:28:08Z</time></trkpt><trkpt lat="43.89649478337371" lon="10.255872929281061"><ele>2.0</ele><time>2026-04-09T14:28:09Z</time></trkpt><trkpt lat="43.89673188094209" lon="10.255607274156233"><ele>1.0</ele><time>2026-04-09T14:28:10Z</time></trkpt><trkpt lat="43.89694830518912" lon="10.255360780940766"><ele>0.0</ele><time>2026-04-09T14:28:11Z</time></trkpt><trkpt lat="43.897154673212725" lon="10.255128626089101"><ele>0.0</ele><time>2026-04-09T14:28:12Z</time></trkpt><trkpt lat="43.89736290141584" lon="10.254895795050405"><ele>0.0</ele><time>2026-04-09T14:28:13Z</time></trkpt><trkpt lat="43.89757299725259" lon="10.254660445333515"><ele>-0.5</ele><time>2026-04-09T14:28:14Z</time></trkpt><trkpt lat="43.89778203372137" lon="10.254424546667517"><ele>-1.0</ele><time>2026-04-09T14:28:15Z</time></trkpt><trkpt lat="43.89799063187293" lon="10.254188306358946"><ele>0.0</ele><time>2026-04-09T14:28:16Z</time></trkpt><trkpt lat="43.898198419426315" lon="10.253952900983442"><ele>1.0</ele><time>2026-04-09T14:28:17Z</time></trkpt><trkpt lat="43.898405332035196" lon="10.253717491798827"><ele>2.0</ele><time>2026-04-09T14:28:18Z</time></trkpt><trkpt lat="43.89861310147427" lon="10.253478390664167"><ele>3.0</ele><time>2026-04-09T14:28:19Z</time></trkpt><trkpt lat="43.89882297971824" lon="10.253239202985958"><ele>3.0</ele><time>2026-04-09T14:28:20Z</time></trkpt><trkpt lat="43.899034669909746" lon="10.252998263536211"><ele>3.0</ele><time>2026-04-09T14:28:21Z</time></trkpt><trkpt lat="43.89924716283185" lon="10.25275453259026"><ele>3.0</ele><time>2026-04-09T14:28:22Z</time></trkpt><trkpt lat="43.89946133340583" lon="10.252500434748224"><ele>3.0</ele><time>2026-04-09T14:28:23Z</time></trkpt><trkpt lat="43.899679759086965" lon="10.252243940913877"><ele>3.0</ele><time>2026-04-09T14:28:24Z</time></trkpt><trkpt lat="43.899904663923465" lon="10.251983599478855"><ele>3.0</ele><time>2026-04-09T14:28:25Z</time></trkpt><trkpt lat="43.900131089739446" lon="10.251724692873962"><ele>2.5</ele><time>2026-04-09T14:28:26Z</time></trkpt><trkpt lat="43.900360678424576" lon="10.251462839888939"><ele>2.0</ele><time>2026-04-09T14:28:27Z</time></trkpt><trkpt lat="43.900587765206495" lon="10.251200144928951"><ele>2.5</ele><time>2026-04-09T14:28:28Z</time></trkpt><trkpt lat="43.90081753773463" lon="10.250936076222995"><ele>3.0</ele><time>2026-04-09T14:28:29Z</time></trkpt><trkpt lat="43.901049939737796" lon="10.250674545225111"><ele>3.0</ele><time>2026-04-09T14:28:30Z</time></trkpt><trkpt lat="43.90128301815017" lon="10.25041303010147"><ele>3.0</ele><time>2026-04-09T14:28:31Z</time></trkpt><trkpt lat="43.90151524069134" lon="10.25015056674032"><ele>3.0</ele><time>2026-04-09T14:28:32Z</time></trkpt><trkpt lat="43.901749289390594" lon="10.249885538976592"><ele>3.0</ele><time>2026-04-09T14:28:33Z</time></trkpt><trkpt lat="43.90198587981684" lon="10.249615556413058"><ele>3.0</ele><time>2026-04-09T14:28:34Z</time></trkpt><trkpt lat="43.902223563101295" lon="10.249343140699056"><ele>3.0</ele><time>2026-04-09T14:28:35Z</time></trkpt><trkpt lat="43.902464201055295" lon="10.249070108231987"><ele>3.0</ele><time>2026-04-09T14:28:36Z</time></trkpt><trkpt lat="43.90270530988777" lon="10.248797127471397"><ele>3.0</ele><time>2026-04-09T14:28:37Z</time></trkpt><trkpt lat="43.90294763302712" lon="10.248522445314698"><ele>3.0</ele><time>2026-04-09T14:28:38Z</time></trkpt><trkpt lat="43.90319181262325" lon="10.24824873937332"><ele>3.0</ele><time>2026-04-09T14:28:39Z</time></trkpt><trkpt lat="43.903437374693986" lon="10.247971006339515"><ele>2.0</ele><time>2026-04-09T14:28:40Z</time></trkpt><trkpt lat="43.90367222060056" lon="10.247704878825305"><ele>1.0</ele><time>2026-04-09T14:28:41Z</time></trkpt><trkpt lat="43.90389627149229" lon="10.247449379214768"><ele>1.0</ele><time>2026-04-09T14:28:42Z</time></trkpt><trkpt lat="43.904122067947974" lon="10.24719625482855"><ele>1.0</ele><time>2026-04-09T14:28:43Z</time></trkpt><trkpt lat="43.90435045078089" lon="10.246941408147894"><ele>1.0</ele><time>2026-04-09T14:28:44Z</time></trkpt><trkpt lat="43.904578630658925" lon="10.246683236433045"><ele>1.0</ele><time>2026-04-09T14:28:45Z</time></trkpt><trkpt lat="43.90480709533306" lon="10.246421339456575"><ele>1.0</ele><time>2026-04-09T14:28:46Z</time></trkpt><trkpt lat="43.905036131339976" lon="10.246159568826043"><ele>1.0</ele><time>2026-04-09T14:28:47Z</time></trkpt><trkpt lat="43.9052664832226" lon="10.245898818545816"><ele>1.0</ele><time>2026-04-09T14:28:48Z</time></trkpt><trkpt lat="43.905496805518304" lon="10.24563936256708"><ele>1.0</ele><time>2026-04-09T14:28:49Z</time></trkpt><trkpt lat="43.90571291799056" lon="10.245397546999806"><ele>0.5</ele><time>2026-04-09T14:28:50Z</time></trkpt><trkpt lat="43.90592005841368" lon="10.2451631059"><ele>0.0</ele><time>2026-04-09T14:28:51Z</time></trkpt><trkpt lat="43.90612688419521" lon="10.244928105846"><ele>0.5</ele><time>2026-04-09T14:28:52Z</time></trkpt><trkpt lat="43.90633287995886" lon="10.24469413198331"><ele>1.0</ele><time>2026-04-09T14:28:53Z</time></trkpt><trkpt lat="43.90652559790609" lon="10.244475452319778"><ele>1.0</ele><time>2026-04-09T14:28:54Z</time></trkpt><trkpt lat="43.90671619704167" lon="10.244260069630023"><ele>1.0</ele><time>2026-04-09T14:28:55Z</time></trkpt><trkpt lat="43.906912519424424" lon="10.24403564996948"><ele>1.5</ele><time>2026-04-09T14:28:56Z</time></trkpt><trkpt lat="43.90711726471652" lon="10.243801085827261"><ele>2.0</ele><time>2026-04-09T14:28:57Z</time></trkpt><trkpt lat="43.90732027837722" lon="10.24356756602978"><ele>2.0</ele><time>2026-04-09T14:28:58Z</time></trkpt><trkpt lat="43.90750730747854" lon="10.243357351638522"><ele>2.0</ele><time>2026-04-09T14:28:59Z</time></trkpt><trkpt lat="43.90767129605067" lon="10.243173782761897"><ele>2.0</ele><time>2026-04-09T14:29:00Z</time></trkpt><trkpt lat="43.90782973211355" lon="10.242996243970836"><ele>2.0</ele><time>2026-04-09T14:29:01Z</time></trkpt><trkpt lat="43.90798851686135" lon="10.242818208291563"><ele>2.0</ele><time>2026-04-09T14:29:02Z</time></trkpt><trkpt lat="43.90815172035135" lon="10.242637767864917"><ele>2.0</ele><time>2026-04-09T14:29:03Z</time></trkpt><trkpt lat="43.908319790993815" lon="10.242456014934454"><ele>2.0</ele><time>2026-04-09T14:29:04Z</time></trkpt><trkpt lat="43.90849275719223" lon="10.242272592639432"><ele>2.0</ele><time>2026-04-09T14:29:05Z</time></trkpt><trkpt lat="43.908669857687094" lon="10.242084844816544"><ele>2.0</ele><time>2026-04-09T14:29:06Z</time></trkpt><trkpt lat="43.9088512480123" lon="10.241897911753439"><ele>2.0</ele><time>2026-04-09T14:29:07Z</time></trkpt><trkpt lat="43.90903983445752" lon="10.241711179754523"><ele>2.0</ele><time>2026-04-09T14:29:08Z</time></trkpt><trkpt lat="43.90923212802982" lon="10.241521056691214"><ele>2.0</ele><time>2026-04-09T14:29:08.999Z</time></trkpt><trkpt lat="43.90942984973174" lon="10.241327847303346"><ele>1.0</ele><time>2026-04-09T14:29:09.999Z</time></trkpt><trkpt lat="43.90963345761282" lon="10.241130918390349"><ele>0.0</ele><time>2026-04-09T14:29:10.999Z</time></trkpt><trkpt lat="43.90984065317013" lon="10.240927530682463"><ele>0.0</ele><time>2026-04-09T14:29:11.999Z</time></trkpt><trkpt lat="43.91005229074119" lon="10.240718385370817"><ele>0.0</ele><time>2026-04-09T14:29:12.999Z</time></trkpt><trkpt lat="43.91025562531168" lon="10.240515552276278"><ele>0.5</ele><time>2026-04-09T14:29:13.999Z</time></trkpt><trkpt lat="43.91045739183941" lon="10.240314367397014"><ele>1.0</ele><time>2026-04-09T14:29:14.999Z</time></trkpt><trkpt lat="43.910663173999936" lon="10.24011338892889"><ele>1.0</ele><time>2026-04-09T14:29:15.999Z</time></trkpt><trkpt lat="43.910872084863605" lon="10.23991189448879"><ele>1.0</ele><time>2026-04-09T14:29:16.999Z</time></trkpt><trkpt lat="43.911071523463235" lon="10.23971975642396"><ele>1.5</ele><time>2026-04-09T14:29:17.999Z</time></trkpt><trkpt lat="43.91126090735459" lon="10.2395346534608"><ele>2.0</ele><time>2026-04-09T14:29:18.999Z</time></trkpt><trkpt lat="43.911448688740414" lon="10.239350905428486"><ele>2.0</ele><time>2026-04-09T14:29:19.999Z</time></trkpt><trkpt lat="43.911639909346704" lon="10.239166937893595"><ele>2.0</ele><time>2026-04-09T14:29:20.999Z</time></trkpt><trkpt lat="43.91183407014848" lon="10.238979100066464"><ele>1.0</ele><time>2026-04-09T14:29:21.999Z</time></trkpt><trkpt lat="43.91203263526927" lon="10.238790044105647"><ele>0.0</ele><time>2026-04-09T14:29:22.999Z</time></trkpt><trkpt lat="43.91223409781892" lon="10.238596954886592"><ele>0.0</ele><time>2026-04-09T14:29:23.999Z</time></trkpt><trkpt lat="43.91243609994726" lon="10.23840007630769"><ele>0.0</ele><time>2026-04-09T14:29:24.999Z</time></trkpt><trkpt lat="43.91263012874583" lon="10.238209517799"><ele>1.0</ele><time>2026-04-09T14:29:25.999Z</time></trkpt><trkpt lat="43.912818556654884" lon="10.238025474610486"><ele>2.0</ele><time>2026-04-09T14:29:26.999Z</time></trkpt><trkpt lat="43.9130119392195" lon="10.237837684352522"><ele>2.0</ele><time>2026-04-09T14:29:27.999Z</time></trkpt><trkpt lat="43.91320891441952" lon="10.237648053223673"><ele>2.0</ele><time>2026-04-09T14:29:28.999Z</time></trkpt><trkpt lat="43.91340718748614" lon="10.237455921016599"><ele>1.5</ele><time>2026-04-09T14:29:29.999Z</time></trkpt><trkpt lat="43.91360786342717" lon="10.237260972660179"><ele>1.0</ele><time>2026-04-09T14:29:30.999Z</time></trkpt><trkpt lat="43.91380710357852" lon="10.237067253740568"><ele>1.0</ele><time>2026-04-09T14:29:31.999Z</time></trkpt><trkpt lat="43.91399571915967" lon="10.236884106824688"><ele>1.0</ele><time>2026-04-09T14:29:32.999Z</time></trkpt><trkpt lat="43.91418719428396" lon="10.23669620337824"><ele>1.0</ele><time>2026-04-09T14:29:33.999Z</time></trkpt><trkpt lat="43.91438397757471" lon="10.23650337230469"><ele>1.0</ele><time>2026-04-09T14:29:34.999Z</time></trkpt><trkpt lat="43.91458463936229" lon="10.236308032357996"><ele>1.0</ele><time>2026-04-09T14:29:35.999Z</time></trkpt><trkpt lat="43.91478990755541" lon="10.236108720367405"><ele>1.0</ele><time>2026-04-09T14:29:36.999Z</time></trkpt><trkpt lat="43.915002456007144" lon="10.235900698237597"><ele>0.5</ele><time>2026-04-09T14:29:37.999Z</time></trkpt><trkpt lat="43.91522989657362" lon="10.235677899881228"><ele>0.0</ele><time>2026-04-09T14:29:38.999Z</time></trkpt><trkpt lat="43.915474664037255" lon="10.235445699352306"><ele>0.0</ele><time>2026-04-09T14:29:39.999Z</time></trkpt><trkpt lat="43.91572794301848" lon="10.235199107335005"><ele>0.0</ele><time>2026-04-09T14:29:40.999Z</time></trkpt><trkpt lat="43.91598929347275" lon="10.234942364134188"><ele>-0.5</ele><time>2026-04-09T14:29:41.999Z</time></trkpt><trkpt lat="43.91624071207432" lon="10.234695431153838"><ele>-1.0</ele><time>2026-04-09T14:29:42.999Z</time></trkpt><trkpt lat="43.91647660251213" lon="10.23446258637647"><ele>-1.0</ele><time>2026-04-09T14:29:43.999Z</time></trkpt><trkpt lat="43.91670483434059" lon="10.23424073110653"><ele>-1.0</ele><time>2026-04-09T14:29:44.999Z</time></trkpt><trkpt lat="43.91693622328859" lon="10.234014578780373"><ele>-1.0</ele><time>2026-04-09T14:29:46Z</time></trkpt><trkpt lat="43.917171635748055" lon="10.23378657896558"><ele>-1.0</ele><time>2026-04-09T14:29:47Z</time></trkpt><trkpt lat="43.91741094969391" lon="10.233555829961091"><ele>-1.5</ele><time>2026-04-09T14:29:48Z</time></trkpt><trkpt lat="43.91765398343993" lon="10.233321583353636"><ele>-2.0</ele><time>2026-04-09T14:29:49Z</time></trkpt><trkpt lat="43.91789809926912" lon="10.233081719559056"><ele>-1.0</ele><time>2026-04-09T14:29:50Z</time></trkpt><trkpt lat="43.918146678839" lon="10.232839712491154"><ele>0.0</ele><time>2026-04-09T14:29:51Z</time></trkpt><trkpt lat="43.918396287266006" lon="10.232595523240812"><ele>0.5</ele><time>2026-04-09T14:29:52Z</time></trkpt><trkpt lat="43.91865607571063" lon="10.232344235164515"><ele>1.0</ele><time>2026-04-09T14:29:53Z</time></trkpt><trkpt lat="43.91892225744693" lon="10.232085672629998"><ele>1.0</ele><time>2026-04-09T14:29:54Z</time></trkpt><trkpt lat="43.91919393218648" lon="10.231822553925142"><ele>1.0</ele><time>2026-04-09T14:29:55Z</time></trkpt><trkpt lat="43.9194683909447" lon="10.231556208041992"><ele>0.5</ele><time>2026-04-09T14:29:56Z</time></trkpt><trkpt lat="43.91974524284792" lon="10.231287616175925"><ele>0.0</ele><time>2026-04-09T14:29:57Z</time></trkpt><trkpt lat="43.92002409296419" lon="10.23101781566227"><ele>0.0</ele><time>2026-04-09T14:29:58Z</time></trkpt><trkpt lat="43.92030445293556" lon="10.230746000531367"><ele>0.0</ele><time>2026-04-09T14:29:59Z</time></trkpt><trkpt lat="43.92058458598715" lon="10.230471258925181"><ele>0.5</ele><time>2026-04-09T14:30:00Z</time></trkpt><trkpt lat="43.92086177504705" lon="10.230201036336304"><ele>1.0</ele><time>2026-04-09T14:30:01Z</time></trkpt><trkpt lat="43.92111881252061" lon="10.229949681938152"><ele>0.5</ele><time>2026-04-09T14:30:02Z</time></trkpt><trkpt lat="43.92135444817773" lon="10.229717682243962"><ele>0.0</ele><time>2026-04-09T14:30:03Z</time></trkpt><trkpt lat="43.92157363884321" lon="10.229502726010692"><ele>-0.5</ele><time>2026-04-09T14:30:04Z</time></trkpt><trkpt lat="43.92178583298019" lon="10.229297585758832"><ele>-1.0</ele><time>2026-04-09T14:30:05Z</time></trkpt><trkpt lat="43.921998982702696" lon="10.229090666994752"><ele>0.0</ele><time>2026-04-09T14:30:06Z</time></trkpt><trkpt lat="43.92221318612705" lon="10.228883196962643"><ele>1.0</ele><time>2026-04-09T14:30:07Z</time></trkpt><trkpt lat="43.92243053705538" lon="10.22867404198584"><ele>0.5</ele><time>2026-04-09T14:30:08Z</time></trkpt><trkpt lat="43.92264815683578" lon="10.228465715584566"><ele>0.0</ele><time>2026-04-09T14:30:09Z</time></trkpt><trkpt lat="43.9228674895648" lon="10.228258421799508"><ele>0.0</ele><time>2026-04-09T14:30:10Z</time></trkpt><trkpt lat="43.923088939176715" lon="10.228050251228101"><ele>0.0</ele><time>2026-04-09T14:30:11Z</time></trkpt><trkpt lat="43.92331234831601" lon="10.227839618394825"><ele>0.5</ele><time>2026-04-09T14:30:12Z</time></trkpt><trkpt lat="43.923536858437785" lon="10.227632174189862"><ele>1.0</ele><time>2026-04-09T14:30:13Z</time></trkpt><trkpt lat="43.92374873595986" lon="10.227439264700422"><ele>2.5</ele><time>2026-04-09T14:30:14Z</time></trkpt><trkpt lat="43.92396174998389" lon="10.227246909819991"><ele>4.0</ele><time>2026-04-09T14:30:15Z</time></trkpt><trkpt lat="43.92418062372906" lon="10.227054059928708"><ele>3.5</ele><time>2026-04-09T14:30:16Z</time></trkpt><trkpt lat="43.92440378902938" lon="10.226859942195142"><ele>3.0</ele><time>2026-04-09T14:30:17Z</time></trkpt><trkpt lat="43.9246315942443" lon="10.226664873634782"><ele>2.5</ele><time>2026-04-09T14:30:18Z</time></trkpt><trkpt lat="43.92486244813856" lon="10.226467744088064"><ele>2.0</ele><time>2026-04-09T14:30:19Z</time></trkpt><trkpt lat="43.925097327707256" lon="10.226271266802298"><ele>2.0</ele><time>2026-04-09T14:30:20Z</time></trkpt><trkpt lat="43.92533678333715" lon="10.226076957994758"><ele>2.0</ele><time>2026-04-09T14:30:21Z</time></trkpt><trkpt lat="43.925578610172586" lon="10.225879785894513"><ele>2.0</ele><time>2026-04-09T14:30:22Z</time></trkpt><trkpt lat="43.925822137601735" lon="10.225681029606143"><ele>2.0</ele><time>2026-04-09T14:30:23Z</time></trkpt><trkpt lat="43.92606968282061" lon="10.225485874305809"><ele>2.5</ele><time>2026-04-09T14:30:24Z</time></trkpt><trkpt lat="43.9263192347519" lon="10.225292257836054"><ele>3.0</ele><time>2026-04-09T14:30:25Z</time></trkpt><trkpt lat="43.92656927200621" lon="10.225102402165428"><ele>2.0</ele><time>2026-04-09T14:30:26Z</time></trkpt><trkpt lat="43.92682160388887" lon="10.224912919587874"><ele>1.0</ele><time>2026-04-09T14:30:27Z</time></trkpt><trkpt lat="43.927058618518885" lon="10.224735800967375"><ele>1.0</ele><time>2026-04-09T14:30:28Z</time></trkpt><trkpt lat="43.927302328824744" lon="10.224555344274881"><ele>1.0</ele><time>2026-04-09T14:30:29Z</time></trkpt><trkpt lat="43.9275548833298" lon="10.224371174078074"><ele>1.5</ele><time>2026-04-09T14:30:30Z</time></trkpt><trkpt lat="43.92781367511438" lon="10.22418550954662"><ele>2.0</ele><time>2026-04-09T14:30:31Z</time></trkpt><trkpt lat="43.92807802659406" lon="10.223999602648908"><ele>2.0</ele><time>2026-04-09T14:30:32Z</time></trkpt><trkpt lat="43.92834611065245" lon="10.223809841165107"><ele>2.0</ele><time>2026-04-09T14:30:33Z</time></trkpt><trkpt lat="43.928620008452555" lon="10.223618463603547"><ele>2.0</ele><time>2026-04-09T14:30:34Z</time></trkpt><trkpt lat="43.92889593227652" lon="10.223423521696791"><ele>2.0</ele><time>2026-04-09T14:30:35Z</time></trkpt><trkpt lat="43.9291750817676" lon="10.223226480390805"><ele>2.0</ele><time>2026-04-09T14:30:36Z</time></trkpt><trkpt lat="43.92945308564708" lon="10.223031981958203"><ele>2.0</ele><time>2026-04-09T14:30:37Z</time></trkpt><trkpt lat="43.92971518744547" lon="10.22284864700903"><ele>2.0</ele><time>2026-04-09T14:30:38Z</time></trkpt><trkpt lat="43.92996319178085" lon="10.222673815250026"><ele>2.0</ele><time>2026-04-09T14:30:39Z</time></trkpt><trkpt lat="43.930177392876566" lon="10.222524087761371"><ele>2.0</ele><time>2026-04-09T14:30:40Z</time></trkpt><trkpt lat="43.93038098830959" lon="10.222382582217758"><ele>2.0</ele><time>2026-04-09T14:30:41Z</time></trkpt><trkpt lat="43.93057727698667" lon="10.222244923673975"><ele>2.0</ele><time>2026-04-09T14:30:42Z</time></trkpt><trkpt lat="43.93077573434827" lon="10.222106733352188"><ele>2.0</ele><time>2026-04-09T14:30:43Z</time></trkpt><trkpt lat="43.930985236040556" lon="10.221962241537247"><ele>2.0</ele><time>2026-04-09T14:30:44Z</time></trkpt><trkpt lat="43.93120884989213" lon="10.221814676862863"><ele>2.0</ele><time>2026-04-09T14:30:45Z</time></trkpt><trkpt lat="43.93144266603389" lon="10.221650763026258"><ele>2.0</ele><time>2026-04-09T14:30:46Z</time></trkpt><trkpt lat="43.93168847067555" lon="10.221487426756896"><ele>1.5</ele><time>2026-04-09T14:30:47Z</time></trkpt><trkpt lat="43.931925339545856" lon="10.221315299953913"><ele>1.0</ele><time>2026-04-09T14:30:48Z</time></trkpt><trkpt lat="43.9321358402435" lon="10.221163672055996"><ele>1.0</ele><time>2026-04-09T14:30:49Z</time></trkpt><trkpt lat="43.93233378103563" lon="10.22101947706167"><ele>1.0</ele><time>2026-04-09T14:30:50Z</time></trkpt><trkpt lat="43.93254655796541" lon="10.220873050735541"><ele>1.0</ele><time>2026-04-09T14:30:51Z</time></trkpt><trkpt lat="43.932770266885456" lon="10.220715670017299"><ele>1.0</ele><time>2026-04-09T14:30:52Z</time></trkpt><trkpt lat="43.93298701456297" lon="10.220563989364786"><ele>1.0</ele><time>2026-04-09T14:30:53Z</time></trkpt><trkpt lat="43.93319359827662" lon="10.220417132783819"><ele>1.0</ele><time>2026-04-09T14:30:54Z</time></trkpt><trkpt lat="43.93340669811084" lon="10.220268933135307"><ele>1.0</ele><time>2026-04-09T14:30:55Z</time></trkpt><trkpt lat="43.933629874051945" lon="10.220114834129413"><ele>1.0</ele><time>2026-04-09T14:30:56Z</time></trkpt><trkpt lat="43.93385850399546" lon="10.219955008735138"><ele>0.0</ele><time>2026-04-09T14:30:57Z</time></trkpt><trkpt lat="43.934098535138915" lon="10.219786109443929"><ele>-1.0</ele><time>2026-04-09T14:30:58Z</time></trkpt><trkpt lat="43.9343478210641" lon="10.219610882009803"><ele>-1.0</ele><time>2026-04-09T14:30:59Z</time></trkpt><trkpt lat="43.934605144699745" lon="10.21943173754279"><ele>-1.0</ele><time>2026-04-09T14:31:00Z</time></trkpt><trkpt lat="43.93486650986914" lon="10.219249000443694"><ele>0.0</ele><time>2026-04-09T14:31:01Z</time></trkpt><trkpt lat="43.93513330617068" lon="10.219059933622438"><ele>1.0</ele><time>2026-04-09T14:31:02Z</time></trkpt><trkpt lat="43.93540988643555" lon="10.218866487821913"><ele>1.0</ele><time>2026-04-09T14:31:03Z</time></trkpt><trkpt lat="43.93569648771256" lon="10.21866608376765"><ele>1.0</ele><time>2026-04-09T14:31:04Z</time></trkpt><trkpt lat="43.93598843280644" lon="10.218460755817079"><ele>0.5</ele><time>2026-04-09T14:31:05Z</time></trkpt><trkpt lat="43.93627652616584" lon="10.21825794381345"><ele>0.0</ele><time>2026-04-09T14:31:06Z</time></trkpt><trkpt lat="43.93654967619619" lon="10.218065086734299"><ele>0.0</ele><time>2026-04-09T14:31:06.999Z</time></trkpt><trkpt lat="43.936831701531055" lon="10.21787144879559"><ele>0.0</ele><time>2026-04-09T14:31:07.999Z</time></trkpt><trkpt lat="43.937113209092125" lon="10.217675998495613"><ele>0.0</ele><time>2026-04-09T14:31:08.999Z</time></trkpt><trkpt lat="43.93739317986902" lon="10.217480357777502"><ele>0.0</ele><time>2026-04-09T14:31:09.999Z</time></trkpt><trkpt lat="43.93767325639094" lon="10.217285605748268"><ele>0.5</ele><time>2026-04-09T14:31:10.999Z</time></trkpt><trkpt lat="43.93795183726294" lon="10.217089796937964"><ele>1.0</ele><time>2026-04-09T14:31:11.999Z</time></trkpt><trkpt lat="43.938232677622715" lon="10.216895272740432"><ele>0.5</ele><time>2026-04-09T14:31:12.999Z</time></trkpt><trkpt lat="43.93851662754882" lon="10.21669662078312"><ele>0.0</ele><time>2026-04-09T14:31:13.999Z</time></trkpt><trkpt lat="43.938801772374546" lon="10.216496040829085"><ele>1.0</ele><time>2026-04-09T14:31:14.999Z</time></trkpt><trkpt lat="43.93908836868689" lon="10.216294205418091"><ele>2.0</ele><time>2026-04-09T14:31:15.999Z</time></trkpt><trkpt lat="43.93937679858837" lon="10.216092122390993"><ele>2.0</ele><time>2026-04-09T14:31:16.999Z</time></trkpt><trkpt lat="43.939664477466785" lon="10.215889863190533"><ele>2.0</ele><time>2026-04-09T14:31:17.999Z</time></trkpt><trkpt lat="43.939955110839534" lon="10.215687961766843"><ele>1.5</ele><time>2026-04-09T14:31:18.999Z</time></trkpt><trkpt lat="43.940246959210775" lon="10.215484309429483"><ele>1.0</ele><time>2026-04-09T14:31:19.999Z</time></trkpt><trkpt lat="43.94054088092534" lon="10.215278219072735"><ele>1.0</ele><time>2026-04-09T14:31:20.999Z</time></trkpt><trkpt lat="43.94083853305509" lon="10.215070332260384"><ele>1.0</ele><time>2026-04-09T14:31:21.999Z</time></trkpt><trkpt lat="43.94113707217856" lon="10.214858343378406"><ele>2.0</ele><time>2026-04-09T14:31:22.999Z</time></trkpt><trkpt lat="43.94143733996482" lon="10.214647797038793"><ele>3.0</ele><time>2026-04-09T14:31:23.999Z</time></trkpt><trkpt lat="43.94173773270765" lon="10.214436296723552"><ele>3.5</ele><time>2026-04-09T14:31:24.999Z</time></trkpt><trkpt lat="43.942037108391986" lon="10.214227473355091"><ele>4.0</ele><time>2026-04-09T14:31:25.999Z</time></trkpt><trkpt lat="43.94233617841098" lon="10.214020389914593"><ele>4.5</ele><time>2026-04-09T14:31:26.999Z</time></trkpt><trkpt lat="43.94263737395528" lon="10.213815510672967"><ele>5.0</ele><time>2026-04-09T14:31:27.999Z</time></trkpt><trkpt lat="43.942936033126195" lon="10.213606079835769"><ele>5.0</ele><time>2026-04-09T14:31:28.999Z</time></trkpt><trkpt lat="43.943232321562945" lon="10.213396677588333"><ele>5.0</ele><time>2026-04-09T14:31:29.999Z</time></trkpt><trkpt lat="43.94352683441117" lon="10.213187230011059"><ele>3.0</ele><time>2026-04-09T14:31:30.999Z</time></trkpt><trkpt lat="43.94380600775297" lon="10.212990404286852"><ele>1.0</ele><time>2026-04-09T14:31:31.999Z</time></trkpt><trkpt lat="43.94408637002791" lon="10.21279297816711"><ele>2.0</ele><time>2026-04-09T14:31:32.999Z</time></trkpt><trkpt lat="43.944365524960226" lon="10.21258984952798"><ele>3.0</ele><time>2026-04-09T14:31:33.999Z</time></trkpt><trkpt lat="43.944643581782465" lon="10.212379674200836"><ele>3.0</ele><time>2026-04-09T14:31:34.999Z</time></trkpt><trkpt lat="43.9449178859729" lon="10.212159937805884"><ele>3.0</ele><time>2026-04-09T14:31:35.999Z</time></trkpt><trkpt lat="43.94519518332455" lon="10.21193486327521"><ele>4.0</ele><time>2026-04-09T14:31:36.999Z</time></trkpt><trkpt lat="43.94547131870427" lon="10.211699103843372"><ele>5.0</ele><time>2026-04-09T14:31:37.999Z</time></trkpt><trkpt lat="43.94574552799929" lon="10.211455024897546"><ele>5.0</ele><time>2026-04-09T14:31:38.999Z</time></trkpt><trkpt lat="43.94601973290184" lon="10.21120395076025"><ele>5.0</ele><time>2026-04-09T14:31:39.999Z</time></trkpt><trkpt lat="43.94629085142588" lon="10.21094536013778"><ele>5.0</ele><time>2026-04-09T14:31:40.999Z</time></trkpt><trkpt lat="43.9465565084048" lon="10.210679030552841"><ele>5.0</ele><time>2026-04-09T14:31:41.999Z</time></trkpt><trkpt lat="43.946817993448846" lon="10.210406639923875"><ele>5.0</ele><time>2026-04-09T14:31:42.999Z</time></trkpt><trkpt lat="43.94707580446728" lon="10.210126029628377"><ele>5.0</ele><time>2026-04-09T14:31:43.999Z</time></trkpt><trkpt lat="43.94732974488488" lon="10.209838632651588"><ele>4.5</ele><time>2026-04-09T14:31:44.999Z</time></trkpt><trkpt lat="43.94758186335511" lon="10.20955446121727"><ele>4.0</ele><time>2026-04-09T14:31:45.999Z</time></trkpt><trkpt lat="43.947833345917644" lon="10.20927543245244"><ele>4.0</ele><time>2026-04-09T14:31:46.999Z</time></trkpt><trkpt lat="43.94806929564213" lon="10.209014586261107"><ele>4.0</ele><time>2026-04-09T14:31:47.999Z</time></trkpt><trkpt lat="43.94829697733524" lon="10.2087617610828"><ele>3.0</ele><time>2026-04-09T14:31:48.999Z</time></trkpt><trkpt lat="43.94852537005628" lon="10.208505109742271"><ele>2.0</ele><time>2026-04-09T14:31:49.999Z</time></trkpt><trkpt lat="43.94875349630209" lon="10.208249309507622"><ele>2.5</ele><time>2026-04-09T14:31:50.999Z</time></trkpt><trkpt lat="43.94897203107211" lon="10.208005887496709"><ele>3.0</ele><time>2026-04-09T14:31:52Z</time></trkpt><trkpt lat="43.94918862775672" lon="10.207765200642958"><ele>3.0</ele><time>2026-04-09T14:31:53Z</time></trkpt><trkpt lat="43.949408346757075" lon="10.20751737693127"><ele>3.0</ele><time>2026-04-09T14:31:54Z</time></trkpt><trkpt lat="43.949615871922596" lon="10.207283285748176"><ele>2.5</ele><time>2026-04-09T14:31:55Z</time></trkpt><trkpt lat="43.94981779425897" lon="10.20705429520683"><ele>2.0</ele><time>2026-04-09T14:31:56Z</time></trkpt><trkpt lat="43.95002591310242" lon="10.206822116665778"><ele>2.0</ele><time>2026-04-09T14:31:57Z</time></trkpt><trkpt lat="43.950236841096505" lon="10.206586411566803"><ele>2.0</ele><time>2026-04-09T14:31:58Z</time></trkpt><trkpt lat="43.95045283533546" lon="10.206346514753262"><ele>2.0</ele><time>2026-04-09T14:31:59Z</time></trkpt><trkpt lat="43.950672294455565" lon="10.206100990976495"><ele>2.0</ele><time>2026-04-09T14:32:00Z</time></trkpt><trkpt lat="43.95089458527621" lon="10.205851223874166"><ele>2.0</ele><time>2026-04-09T14:32:01Z</time></trkpt><trkpt lat="43.951119153421395" lon="10.205598840058109"><ele>2.0</ele><time>2026-04-09T14:32:02Z</time></trkpt><trkpt lat="43.95134668687951" lon="10.205342386294218"><ele>2.0</ele><time>2026-04-09T14:32:03Z</time></trkpt><trkpt lat="43.95157761712835" lon="10.205082744997002"><ele>2.0</ele><time>2026-04-09T14:32:04Z</time></trkpt><trkpt lat="43.951811404269385" lon="10.204821008953257"><ele>3.0</ele><time>2026-04-09T14:32:05Z</time></trkpt><trkpt lat="43.952048774768194" lon="10.204555843350084"><ele>4.0</ele><time>2026-04-09T14:32:06Z</time></trkpt><trkpt lat="43.95228832968314" lon="10.20428950586411"><ele>4.0</ele><time>2026-04-09T14:32:07Z</time></trkpt><trkpt lat="43.95253022849119" lon="10.204021088869172"><ele>4.0</ele><time>2026-04-09T14:32:08Z</time></trkpt><trkpt lat="43.95277240785255" lon="10.203751199012382"><ele>3.0</ele><time>2026-04-09T14:32:09Z</time></trkpt><trkpt lat="43.95301512403449" lon="10.203481591428702"><ele>2.0</ele><time>2026-04-09T14:32:10Z</time></trkpt><trkpt lat="43.953238574253994" lon="10.203232987092361"><ele>2.5</ele><time>2026-04-09T14:32:11Z</time></trkpt><trkpt lat="43.95345318535709" lon="10.202995688672972"><ele>3.0</ele><time>2026-04-09T14:32:12Z</time></trkpt><trkpt lat="43.95365712885703" lon="10.202769905079261"><ele>3.0</ele><time>2026-04-09T14:32:13Z</time></trkpt><trkpt lat="43.953851721466755" lon="10.20255134263712"><ele>3.0</ele><time>2026-04-09T14:32:14Z</time></trkpt><trkpt lat="43.9540478605099" lon="10.20233203213967"><ele>2.0</ele><time>2026-04-09T14:32:15Z</time></trkpt><trkpt lat="43.95424786929937" lon="10.202107755387528"><ele>1.0</ele><time>2026-04-09T14:32:16Z</time></trkpt><trkpt lat="43.95444982117998" lon="10.201873109170151"><ele>1.0</ele><time>2026-04-09T14:32:17Z</time></trkpt><trkpt lat="43.95465979111163" lon="10.2016400425782"><ele>1.0</ele><time>2026-04-09T14:32:18Z</time></trkpt><trkpt lat="43.95487269260244" lon="10.201402756285354"><ele>2.0</ele><time>2026-04-09T14:32:19Z</time></trkpt><trkpt lat="43.95509015877034" lon="10.201158971782538"><ele>3.0</ele><time>2026-04-09T14:32:20Z</time></trkpt><trkpt lat="43.95530812857367" lon="10.200913455682391"><ele>3.5</ele><time>2026-04-09T14:32:21Z</time></trkpt><trkpt lat="43.95553243695164" lon="10.200664851418644"><ele>4.0</ele><time>2026-04-09T14:32:22Z</time></trkpt><trkpt lat="43.95575991945151" lon="10.200413608290715"><ele>3.0</ele><time>2026-04-09T14:32:23Z</time></trkpt><trkpt lat="43.95599150330664" lon="10.200158294481238"><ele>2.0</ele><time>2026-04-09T14:32:24Z</time></trkpt><trkpt lat="43.95622542958751" lon="10.199897739278503"><ele>2.5</ele><time>2026-04-09T14:32:25Z</time></trkpt><trkpt lat="43.956460365182714" lon="10.1996338484529"><ele>3.0</ele><time>2026-04-09T14:32:26Z</time></trkpt><trkpt lat="43.956698698987466" lon="10.199365916477753"><ele>2.5</ele><time>2026-04-09T14:32:27Z</time></trkpt><trkpt lat="43.956938992628466" lon="10.19909777098901"><ele>2.0</ele><time>2026-04-09T14:32:28Z</time></trkpt><trkpt lat="43.95718036398951" lon="10.198830017182685"><ele>2.5</ele><time>2026-04-09T14:32:29Z</time></trkpt><trkpt lat="43.957420745976705" lon="10.198557945036306"><ele>3.0</ele><time>2026-04-09T14:32:30Z</time></trkpt><trkpt lat="43.95766358536153" lon="10.198286444334762"><ele>3.0</ele><time>2026-04-09T14:32:31Z</time></trkpt><trkpt lat="43.957906541808015" lon="10.19801735420628"><ele>3.0</ele><time>2026-04-09T14:32:32Z</time></trkpt><trkpt lat="43.9581503289894" lon="10.197748636980076"><ele>3.0</ele><time>2026-04-09T14:32:33Z</time></trkpt><trkpt lat="43.958393906026984" lon="10.197478919410287"><ele>3.0</ele><time>2026-04-09T14:32:34Z</time></trkpt><trkpt lat="43.958635882002596" lon="10.197210266008916"><ele>3.5</ele><time>2026-04-09T14:32:35Z</time></trkpt><trkpt lat="43.95887719068084" lon="10.196940679487701"><ele>4.0</ele><time>2026-04-09T14:32:36Z</time></trkpt><trkpt lat="43.95911686314727" lon="10.196671560872911"><ele>3.5</ele><time>2026-04-09T14:32:37Z</time></trkpt><trkpt lat="43.95934341953179" lon="10.196418490178639"><ele>3.0</ele><time>2026-04-09T14:32:38Z</time></trkpt><trkpt lat="43.95956203122377" lon="10.196171026304613"><ele>3.0</ele><time>2026-04-09T14:32:39Z</time></trkpt><trkpt lat="43.95978333360874" lon="10.19592356508551"><ele>3.0</ele><time>2026-04-09T14:32:40Z</time></trkpt><trkpt lat="43.960002224871275" lon="10.195673641130591"><ele>2.5</ele><time>2026-04-09T14:32:41Z</time></trkpt><trkpt lat="43.96021962118149" lon="10.195426706693993"><ele>2.0</ele><time>2026-04-09T14:32:42Z</time></trkpt><trkpt lat="43.96043643941105" lon="10.195183102086386"><ele>2.0</ele><time>2026-04-09T14:32:43Z</time></trkpt><trkpt lat="43.96065703328925" lon="10.194938825486942"><ele>2.0</ele><time>2026-04-09T14:32:44Z</time></trkpt><trkpt lat="43.960879405272074" lon="10.1946927200307"><ele>2.0</ele><time>2026-04-09T14:32:45Z</time></trkpt><trkpt lat="43.96110343435195" lon="10.194442913267093"><ele>2.0</ele><time>2026-04-09T14:32:46Z</time></trkpt><trkpt lat="43.961327891295454" lon="10.19419353612943"><ele>2.0</ele><time>2026-04-09T14:32:47Z</time></trkpt><trkpt lat="43.961555285414875" lon="10.19394179587479"><ele>2.0</ele><time>2026-04-09T14:32:48Z</time></trkpt><trkpt lat="43.961781003789035" lon="10.193690366955606"><ele>2.0</ele><time>2026-04-09T14:32:49Z</time></trkpt><trkpt lat="43.96199778336735" lon="10.1934510988311"><ele>2.0</ele><time>2026-04-09T14:32:50Z</time></trkpt><trkpt lat="43.96220995264852" lon="10.1932152930976"><ele>2.0</ele><time>2026-04-09T14:32:51Z</time></trkpt><trkpt lat="43.96242456141574" lon="10.192974896829213"><ele>2.0</ele><time>2026-04-09T14:32:52Z</time></trkpt><trkpt lat="43.96264162923846" lon="10.192731029858859"><ele>2.0</ele><time>2026-04-09T14:32:53Z</time></trkpt><trkpt lat="43.962862580446476" lon="10.19248314472286"><ele>2.0</ele><time>2026-04-09T14:32:54Z</time></trkpt><trkpt lat="43.96308607304944" lon="10.192231409885109"><ele>2.5</ele><time>2026-04-09T14:32:55Z</time></trkpt><trkpt lat="43.96331207444306" lon="10.191975931147297"><ele>3.0</ele><time>2026-04-09T14:32:56Z</time></trkpt><trkpt lat="43.963540787285815" lon="10.191719884906771"><ele>2.5</ele><time>2026-04-09T14:32:57Z</time></trkpt><trkpt lat="43.96377159888925" lon="10.191461993385381"><ele>2.0</ele><time>2026-04-09T14:32:58Z</time></trkpt><trkpt lat="43.964004196824575" lon="10.191206478170324"><ele>2.0</ele><time>2026-04-09T14:32:59Z</time></trkpt><trkpt lat="43.964236250609765" lon="10.190948927959075"><ele>2.0</ele><time>2026-04-09T14:33:00Z</time></trkpt><trkpt lat="43.96446858714529" lon="10.190690937075637"><ele>1.0</ele><time>2026-04-09T14:33:01Z</time></trkpt><trkpt lat="43.96469360191919" lon="10.190441068899894"><ele>0.0</ele><time>2026-04-09T14:33:02Z</time></trkpt><trkpt lat="43.9649091077426" lon="10.190202642800658"><ele>0.5</ele><time>2026-04-09T14:33:03Z</time></trkpt><trkpt lat="43.965126409300105" lon="10.189961321165004"><ele>1.0</ele><time>2026-04-09T14:33:04Z</time></trkpt><trkpt lat="43.9653458791429" lon="10.18971673613503"><ele>1.0</ele><time>2026-04-09T14:33:05Z</time></trkpt><trkpt lat="43.96556496297191" lon="10.189466826462409"><ele>1.0</ele><time>2026-04-09T14:33:06Z</time></trkpt><trkpt lat="43.965790875857614" lon="10.189217452967494"><ele>2.0</ele><time>2026-04-09T14:33:07Z</time></trkpt><trkpt lat="43.96601684991923" lon="10.188967248893595"><ele>3.0</ele><time>2026-04-09T14:33:08Z</time></trkpt><trkpt lat="43.96624358472165" lon="10.188715776463555"><ele>3.0</ele><time>2026-04-09T14:33:09Z</time></trkpt><trkpt lat="43.9664730601101" lon="10.188465796980754"><ele>3.0</ele><time>2026-04-09T14:33:10Z</time></trkpt><trkpt lat="43.966702889536435" lon="10.18821187218595"><ele>3.5</ele><time>2026-04-09T14:33:10.999Z</time></trkpt><trkpt lat="43.966932366259755" lon="10.187954874309282"><ele>4.0</ele><time>2026-04-09T14:33:11.999Z</time></trkpt><trkpt lat="43.967163030065535" lon="10.187697499312794"><ele>4.0</ele><time>2026-04-09T14:33:12.999Z</time></trkpt><trkpt lat="43.96739433532345" lon="10.187437163851687"><ele>4.0</ele><time>2026-04-09T14:33:13.999Z</time></trkpt><trkpt lat="43.9676244341971" lon="10.187173193180572"><ele>5.0</ele><time>2026-04-09T14:33:14.999Z</time></trkpt><trkpt lat="43.96785449690608" lon="10.186905866597007"><ele>6.0</ele><time>2026-04-09T14:33:15.999Z</time></trkpt><trkpt lat="43.968072836301154" lon="10.18664459405229"><ele>6.0</ele><time>2026-04-09T14:33:16.999Z</time></trkpt><trkpt lat="43.96827584802966" lon="10.186394524858352"><ele>6.0</ele><time>2026-04-09T14:33:17.999Z</time></trkpt><trkpt lat="43.96847452785747" lon="10.186143286996776"><ele>5.5</ele><time>2026-04-09T14:33:18.999Z</time></trkpt><trkpt lat="43.96867488634301" lon="10.185880802090326"><ele>5.0</ele><time>2026-04-09T14:33:19.999Z</time></trkpt><trkpt lat="43.968875332781664" lon="10.185611289864875"><ele>5.0</ele><time>2026-04-09T14:33:20.999Z</time></trkpt><trkpt lat="43.96907302705302" lon="10.18533248408569"><ele>5.0</ele><time>2026-04-09T14:33:21.999Z</time></trkpt><trkpt lat="43.96927057625148" lon="10.185050535865651"><ele>5.5</ele><time>2026-04-09T14:33:22.999Z</time></trkpt><trkpt lat="43.96946523315396" lon="10.184763843600594"><ele>6.0</ele><time>2026-04-09T14:33:23.999Z</time></trkpt><trkpt lat="43.969657204464035" lon="10.184467305424588"><ele>6.0</ele><time>2026-04-09T14:33:24.999Z</time></trkpt><trkpt lat="43.96984959678248" lon="10.184161333907568"><ele>6.0</ele><time>2026-04-09T14:33:25.999Z</time></trkpt><trkpt lat="43.97004209691205" lon="10.183849365704964"><ele>7.0</ele><time>2026-04-09T14:33:26.999Z</time></trkpt><trkpt lat="43.9702336279771" lon="10.183528874878732"><ele>8.0</ele><time>2026-04-09T14:33:27.999Z</time></trkpt><trkpt lat="43.970423810983746" lon="10.183201853924887"><ele>7.0</ele><time>2026-04-09T14:33:28.999Z</time></trkpt><trkpt lat="43.9706141487917" lon="10.18287066595757"><ele>6.0</ele><time>2026-04-09T14:33:29.999Z</time></trkpt><trkpt lat="43.97080499012193" lon="10.182536425489557"><ele>5.0</ele><time>2026-04-09T14:33:30.999Z</time></trkpt><trkpt lat="43.97099641263719" lon="10.182204275292458"><ele>4.0</ele><time>2026-04-09T14:33:31.999Z</time></trkpt><trkpt lat="43.971185732399874" lon="10.18187661116498"><ele>4.0</ele><time>2026-04-09T14:33:32.999Z</time></trkpt><trkpt lat="43.97137777102129" lon="10.181534935229372"><ele>4.0</ele><time>2026-04-09T14:33:33.999Z</time></trkpt><trkpt lat="43.971568395525914" lon="10.181195423852609"><ele>4.5</ele><time>2026-04-09T14:33:34.999Z</time></trkpt><trkpt lat="43.97175777002648" lon="10.180856572234342"><ele>5.0</ele><time>2026-04-09T14:33:35.999Z</time></trkpt><trkpt lat="43.97194573421784" lon="10.180518508565596"><ele>5.0</ele><time>2026-04-09T14:33:36.999Z</time></trkpt><trkpt lat="43.97213507237001" lon="10.180181926856697"><ele>5.0</ele><time>2026-04-09T14:33:37.999Z</time></trkpt><trkpt lat="43.97232552994533" lon="10.179849878848222"><ele>4.5</ele><time>2026-04-09T14:33:38.999Z</time></trkpt><trkpt lat="43.972515919205605" lon="10.179520774544246"><ele>4.0</ele><time>2026-04-09T14:33:39.999Z</time></trkpt><trkpt lat="43.97270508687378" lon="10.179190890926849"><ele>4.0</ele><time>2026-04-09T14:33:40.999Z</time></trkpt><trkpt lat="43.972893037799764" lon="10.17885870492899"><ele>4.0</ele><time>2026-04-09T14:33:41.999Z</time></trkpt><trkpt lat="43.97308179040371" lon="10.178527994457072"><ele>4.0</ele><time>2026-04-09T14:33:42.999Z</time></trkpt><trkpt lat="43.973268532054234" lon="10.178196499303226"><ele>4.0</ele><time>2026-04-09T14:33:43.999Z</time></trkpt><trkpt lat="43.973454643512135" lon="10.177863084659261"><ele>3.5</ele><time>2026-04-09T14:33:44.999Z</time></trkpt><trkpt lat="43.973643018925365" lon="10.177534899204533"><ele>3.0</ele><time>2026-04-09T14:33:45.999Z</time></trkpt><trkpt lat="43.97383130926531" lon="10.177208026493943"><ele>3.0</ele><time>2026-04-09T14:33:46.999Z</time></trkpt><trkpt lat="43.97401981521988" lon="10.176882540235136"><ele>3.0</ele><time>2026-04-09T14:33:47.999Z</time></trkpt><trkpt lat="43.974210237710686" lon="10.176557997241447"><ele>2.5</ele><time>2026-04-09T14:33:48.999Z</time></trkpt><trkpt lat="43.97440038439144" lon="10.176234375661974"><ele>2.0</ele><time>2026-04-09T14:33:49.999Z</time></trkpt><trkpt lat="43.974581893324576" lon="10.175928692279538"><ele>1.0</ele><time>2026-04-09T14:33:50.999Z</time></trkpt><trkpt lat="43.974753300710844" lon="10.175643064113917"><ele>0.0</ele><time>2026-04-09T14:33:51.999Z</time></trkpt><trkpt lat="43.97491647192146" lon="10.175375702054032"><ele>1.0</ele><time>2026-04-09T14:33:52.999Z</time></trkpt><trkpt lat="43.975073050302235" lon="10.17512299814322"><ele>2.0</ele><time>2026-04-09T14:33:53.999Z</time></trkpt><trkpt lat="43.97522536503201" lon="10.174879286741032"><ele>2.5</ele><time>2026-04-09T14:33:54.999Z</time></trkpt><trkpt lat="43.9753802684952" lon="10.174636871111108"><ele>3.0</ele><time>2026-04-09T14:33:55.999Z</time></trkpt><trkpt lat="43.97554070603548" lon="10.17439360956907"><ele>3.0</ele><time>2026-04-09T14:33:56.999Z</time></trkpt><trkpt lat="43.975706708528186" lon="10.174139596084212"><ele>3.0</ele><time>2026-04-09T14:33:58Z</time></trkpt><trkpt lat="43.97587889834222" lon="10.17387889527498"><ele>2.0</ele><time>2026-04-09T14:33:59Z</time></trkpt><trkpt lat="43.976049669238655" lon="10.173617912788139"><ele>1.0</ele><time>2026-04-09T14:34:00Z</time></trkpt><trkpt lat="43.976211443663686" lon="10.173371873347621"><ele>2.0</ele><time>2026-04-09T14:34:01Z</time></trkpt><trkpt lat="43.97637597813434" lon="10.173129104995045"><ele>3.0</ele><time>2026-04-09T14:34:02Z</time></trkpt><trkpt lat="43.976546650059966" lon="10.172881878137302"><ele>2.0</ele><time>2026-04-09T14:34:03Z</time></trkpt><trkpt lat="43.97672109006544" lon="10.1726323213924"><ele>1.0</ele><time>2026-04-09T14:34:04Z</time></trkpt><trkpt lat="43.976875917839514" lon="10.172406791084711"><ele>1.3333333333333333</ele><time>2026-04-09T14:34:05Z</time></trkpt><trkpt lat="43.97701604636339" lon="10.172203564393511"><ele>1.6666666666666665</ele><time>2026-04-09T14:34:06Z</time></trkpt><trkpt lat="43.97715423291446" lon="10.172003245563987"><ele>2.0</ele><time>2026-04-09T14:34:07Z</time></trkpt><trkpt lat="43.97729507524894" lon="10.171798482502913"><ele>2.0</ele><time>2026-04-09T14:34:08Z</time></trkpt><trkpt lat="43.977441357447205" lon="10.171590319717827"><ele>2.0</ele><time>2026-04-09T14:34:09Z</time></trkpt><trkpt lat="43.97759383437577" lon="10.17137272132493"><ele>2.0</ele><time>2026-04-09T14:34:10Z</time></trkpt><trkpt lat="43.97774051361793" lon="10.171160520587495"><ele>2.0</ele><time>2026-04-09T14:34:11Z</time></trkpt><trkpt lat="43.97788059559148" lon="10.170953851805047"><ele>2.0</ele><time>2026-04-09T14:34:12Z</time></trkpt><trkpt lat="43.978025122706384" lon="10.170745043053437"><ele>2.0</ele><time>2026-04-09T14:34:13Z</time></trkpt><trkpt lat="43.978172258543445" lon="10.170532688981153"><ele>2.6666666666666665</ele><time>2026-04-09T14:34:14Z</time></trkpt><trkpt lat="43.97832255609757" lon="10.170318342428653"><ele>3.333333333333333</ele><time>2026-04-09T14:34:15Z</time></trkpt><trkpt lat="43.978471726025596" lon="10.170093501858808"><ele>4.0</ele><time>2026-04-09T14:34:16Z</time></trkpt><trkpt lat="43.97862672002992" lon="10.169870058166403"><ele>3.5</ele><time>2026-04-09T14:34:17Z</time></trkpt><trkpt lat="43.97878335964519" lon="10.169649736002494"><ele>3.0</ele><time>2026-04-09T14:34:18Z</time></trkpt><trkpt lat="43.97894340166348" lon="10.169421681051583"><ele>3.0</ele><time>2026-04-09T14:34:19Z</time></trkpt><trkpt lat="43.979113682777424" lon="10.169179129174033"><ele>3.0</ele><time>2026-04-09T14:34:20Z</time></trkpt><trkpt lat="43.97929561088236" lon="10.168919545179305"><ele>2.5</ele><time>2026-04-09T14:34:21Z</time></trkpt><trkpt lat="43.979467884465954" lon="10.16867314654521"><ele>2.0</ele><time>2026-04-09T14:34:22Z</time></trkpt><trkpt lat="43.97963294525365" lon="10.168435117352539"><ele>2.0</ele><time>2026-04-09T14:34:23Z</time></trkpt><trkpt lat="43.97980193595355" lon="10.16819699531829"><ele>2.0</ele><time>2026-04-09T14:34:24Z</time></trkpt><trkpt lat="43.97997239027339" lon="10.167951565771663"><ele>3.5</ele><time>2026-04-09T14:34:25Z</time></trkpt><trkpt lat="43.980146526491176" lon="10.167701211702976"><ele>5.0</ele><time>2026-04-09T14:34:26Z</time></trkpt><trkpt lat="43.98031925584995" lon="10.167449178515536"><ele>4.0</ele><time>2026-04-09T14:34:27Z</time></trkpt><trkpt lat="43.98049283481061" lon="10.167195045217957"><ele>3.0</ele><time>2026-04-09T14:34:28Z</time></trkpt><trkpt lat="43.98066321030569" lon="10.166946320387403"><ele>3.0</ele><time>2026-04-09T14:34:29Z</time></trkpt><trkpt lat="43.98082255272748" lon="10.166712951073198"><ele>3.0</ele><time>2026-04-09T14:34:30Z</time></trkpt><trkpt lat="43.98097767490169" lon="10.166490245219917"><ele>3.333333333333333</ele><time>2026-04-09T14:34:31Z</time></trkpt><trkpt lat="43.98112470757911" lon="10.166281635448255"><ele>3.6666666666666665</ele><time>2026-04-09T14:34:32Z</time></trkpt><trkpt lat="43.9812718019029" lon="10.16607116852648"><ele>4.0</ele><time>2026-04-09T14:34:33Z</time></trkpt><trkpt lat="43.98142186547361" lon="10.165853319410516"><ele>4.0</ele><time>2026-04-09T14:34:34Z</time></trkpt><trkpt lat="43.98157637475932" lon="10.165629960161574"><ele>4.0</ele><time>2026-04-09T14:34:35Z</time></trkpt><trkpt lat="43.98172085774649" lon="10.16541896221477"><ele>4.0</ele><time>2026-04-09T14:34:36Z</time></trkpt><trkpt lat="43.981859261659515" lon="10.165216344282385"><ele>3.6666666666666665</ele><time>2026-04-09T14:34:37Z</time></trkpt><trkpt lat="43.98199950274424" lon="10.165015091449147"><ele>3.333333333333333</ele><time>2026-04-09T14:34:38Z</time></trkpt><trkpt lat="43.98214365445913" lon="10.164807316908444"><ele>3.0</ele><time>2026-04-09T14:34:39Z</time></trkpt><trkpt lat="43.982292198787434" lon="10.164594338218462"><ele>2.6666666666666665</ele><time>2026-04-09T14:34:40Z</time></trkpt><trkpt lat="43.98244311057442" lon="10.164378518455218"><ele>2.333333333333333</ele><time>2026-04-09T14:34:41Z</time></trkpt><trkpt lat="43.9825989235991" lon="10.164155145719919"><ele>2.0</ele><time>2026-04-09T14:34:42Z</time></trkpt><trkpt lat="43.98275931693157" lon="10.163924293464355"><ele>2.0</ele><time>2026-04-09T14:34:43Z</time></trkpt><trkpt lat="43.98291110122831" lon="10.163704701743615"><ele>2.0</ele><time>2026-04-09T14:34:44Z</time></trkpt><trkpt lat="43.98306445440093" lon="10.16348473084797"><ele>2.0</ele><time>2026-04-09T14:34:45Z</time></trkpt><trkpt lat="43.98322305975253" lon="10.163256748739908"><ele>2.0</ele><time>2026-04-09T14:34:46Z</time></trkpt><trkpt lat="43.983388624234856" lon="10.163020073762693"><ele>2.0</ele><time>2026-04-09T14:34:47Z</time></trkpt><trkpt lat="43.98356192641915" lon="10.162773596378628"><ele>2.0</ele><time>2026-04-09T14:34:48Z</time></trkpt><trkpt lat="43.98373887425043" lon="10.162517643475256"><ele>2.0</ele><time>2026-04-09T14:34:49Z</time></trkpt><trkpt lat="43.98392161120848" lon="10.162254691143092"><ele>2.0</ele><time>2026-04-09T14:34:50Z</time></trkpt><trkpt lat="43.984106596630824" lon="10.161985761480523"><ele>2.0</ele><time>2026-04-09T14:34:51Z</time></trkpt><trkpt lat="43.984281783601766" lon="10.16173256246345"><ele>1.0</ele><time>2026-04-09T14:34:52Z</time></trkpt><trkpt lat="43.98445439690024" lon="10.161482500110575"><ele>0.0</ele><time>2026-04-09T14:34:53Z</time></trkpt><trkpt lat="43.98463223011583" lon="10.161226498965645"><ele>0.0</ele><time>2026-04-09T14:34:54Z</time></trkpt><trkpt lat="43.98481407849198" lon="10.160969080771626"><ele>0.0</ele><time>2026-04-09T14:34:55Z</time></trkpt><trkpt lat="43.98499830970373" lon="10.160705695165882"><ele>0.0</ele><time>2026-04-09T14:34:56Z</time></trkpt><trkpt lat="43.98518024859754" lon="10.16044612505683"><ele>0.0</ele><time>2026-04-09T14:34:57Z</time></trkpt><trkpt lat="43.985351112033996" lon="10.160199031419133"><ele>0.0</ele><time>2026-04-09T14:34:58Z</time></trkpt><trkpt lat="43.985517271501834" lon="10.159956865466466"><ele>0.0</ele><time>2026-04-09T14:34:59Z</time></trkpt><trkpt lat="43.9856880397168" lon="10.159708664847257"><ele>0.5</ele><time>2026-04-09T14:35:00Z</time></trkpt><trkpt lat="43.98585961236764" lon="10.159458691756836"><ele>1.0</ele><time>2026-04-09T14:35:01Z</time></trkpt><trkpt lat="43.98602206205032" lon="10.159221426460997"><ele>1.0</ele><time>2026-04-09T14:35:02Z</time></trkpt><trkpt lat="43.986178366998544" lon="10.158993714129487"><ele>1.0</ele><time>2026-04-09T14:35:03Z</time></trkpt><trkpt lat="43.98633461867524" lon="10.158766099650045"><ele>1.0</ele><time>2026-04-09T14:35:04Z</time></trkpt><trkpt lat="43.98649458503518" lon="10.158534061964534"><ele>1.0</ele><time>2026-04-09T14:35:05Z</time></trkpt><trkpt lat="43.98666217664854" lon="10.158302079377046"><ele>0.5</ele><time>2026-04-09T14:35:06Z</time></trkpt><trkpt lat="43.986830078516796" lon="10.15806120333436"><ele>0.0</ele><time>2026-04-09T14:35:07Z</time></trkpt><trkpt lat="43.98699795989944" lon="10.157816606423935"><ele>0.0</ele><time>2026-04-09T14:35:08Z</time></trkpt><trkpt lat="43.98716945005535" lon="10.157569647750798"><ele>0.0</ele><time>2026-04-09T14:35:09Z</time></trkpt><trkpt lat="43.98734120615914" lon="10.157318961871729"><ele>0.5</ele><time>2026-04-09T14:35:10Z</time></trkpt><trkpt lat="43.98750569780074" lon="10.157078061340357"><ele>1.0</ele><time>2026-04-09T14:35:11Z</time></trkpt><trkpt lat="43.987665158363704" lon="10.156842846449628"><ele>1.0</ele><time>2026-04-09T14:35:12Z</time></trkpt><trkpt lat="43.98782665795548" lon="10.156607114476591"><ele>1.0</ele><time>2026-04-09T14:35:13Z</time></trkpt><trkpt lat="43.987991045847394" lon="10.156370536480972"><ele>1.0</ele><time>2026-04-09T14:35:13.999Z</time></trkpt><trkpt lat="43.98815658425444" lon="10.156132032721171"><ele>1.0</ele><time>2026-04-09T14:35:14.999Z</time></trkpt><trkpt lat="43.98832333989894" lon="10.155892044407963"><ele>1.0</ele><time>2026-04-09T14:35:15.999Z</time></trkpt><trkpt lat="43.98848904597956" lon="10.155653837377969"><ele>1.0</ele><time>2026-04-09T14:35:16.999Z</time></trkpt><trkpt lat="43.98864565981652" lon="10.155426912961358"><ele>1.0</ele><time>2026-04-09T14:35:17.999Z</time></trkpt><trkpt lat="43.98879710291423" lon="10.155208306101867"><ele>1.0</ele><time>2026-04-09T14:35:18.999Z</time></trkpt><trkpt lat="43.988949653916315" lon="10.154990707540106"><ele>1.0</ele><time>2026-04-09T14:35:19.999Z</time></trkpt><trkpt lat="43.98910354401335" lon="10.154767865946456"><ele>1.3333333333333333</ele><time>2026-04-09T14:35:20.999Z</time></trkpt><trkpt lat="43.98925730910068" lon="10.154542794297926"><ele>1.6666666666666665</ele><time>2026-04-09T14:35:21.999Z</time></trkpt><trkpt lat="43.989404236947486" lon="10.154328526894618"><ele>2.0</ele><time>2026-04-09T14:35:22.999Z</time></trkpt><trkpt lat="43.989553131647554" lon="10.154111650126056"><ele>2.0</ele><time>2026-04-09T14:35:23.999Z</time></trkpt><trkpt lat="43.989707818198426" lon="10.15388836589068"><ele>2.0</ele><time>2026-04-09T14:35:24.999Z</time></trkpt><trkpt lat="43.9898672164927" lon="10.15366086715484"><ele>2.333333333333333</ele><time>2026-04-09T14:35:25.999Z</time></trkpt><trkpt lat="43.99002454360142" lon="10.153430888950608"><ele>2.6666666666666665</ele><time>2026-04-09T14:35:26.999Z</time></trkpt><trkpt lat="43.99017256212439" lon="10.153210923230104"><ele>3.0</ele><time>2026-04-09T14:35:27.999Z</time></trkpt><trkpt lat="43.99032651458693" lon="10.152989396043894"><ele>3.0</ele><time>2026-04-09T14:35:28.999Z</time></trkpt><trkpt lat="43.99047953711199" lon="10.152773863875352"><ele>3.0</ele><time>2026-04-09T14:35:29.999Z</time></trkpt><trkpt lat="43.99063601217992" lon="10.152560380092874"><ele>3.0</ele><time>2026-04-09T14:35:30.999Z</time></trkpt><trkpt lat="43.990802382256035" lon="10.15235052114966"><ele>3.5</ele><time>2026-04-09T14:35:31.999Z</time></trkpt><trkpt lat="43.99097274448442" lon="10.152138840302246"><ele>4.0</ele><time>2026-04-09T14:35:32.999Z</time></trkpt><trkpt lat="43.99114531505125" lon="10.151926468413759"><ele>4.0</ele><time>2026-04-09T14:35:33.999Z</time></trkpt><trkpt lat="43.99132339609577" lon="10.151721868754608"><ele>4.0</ele><time>2026-04-09T14:35:34.999Z</time></trkpt><trkpt lat="43.99150770001926" lon="10.151516135102883"><ele>4.0</ele><time>2026-04-09T14:35:35.999Z</time></trkpt><trkpt lat="43.991693538597524" lon="10.1513125122614"><ele>4.0</ele><time>2026-04-09T14:35:36.999Z</time></trkpt><trkpt lat="43.991884804953195" lon="10.151109838143654"><ele>4.0</ele><time>2026-04-09T14:35:37.999Z</time></trkpt><trkpt lat="43.99208297115254" lon="10.150910020620072"><ele>4.0</ele><time>2026-04-09T14:35:38.999Z</time></trkpt><trkpt lat="43.992286466109114" lon="10.150711172733494"><ele>4.0</ele><time>2026-04-09T14:35:39.999Z</time></trkpt><trkpt lat="43.99249449341152" lon="10.150518149060154"><ele>4.0</ele><time>2026-04-09T14:35:40.999Z</time></trkpt><trkpt lat="43.992706905197274" lon="10.150326328806758"><ele>4.0</ele><time>2026-04-09T14:35:41.999Z</time></trkpt><trkpt lat="43.992920770368684" lon="10.150141455987495"><ele>4.0</ele><time>2026-04-09T14:35:42.999Z</time></trkpt><trkpt lat="43.993124272518266" lon="10.149969718740257"><ele>4.5</ele><time>2026-04-09T14:35:43.999Z</time></trkpt><trkpt lat="43.99332030644488" lon="10.149811519067056"><ele>5.0</ele><time>2026-04-09T14:35:44.999Z</time></trkpt><trkpt lat="43.99351757550953" lon="10.149659617981028"><ele>5.0</ele><time>2026-04-09T14:35:45.999Z</time></trkpt><trkpt lat="43.99372182033814" lon="10.149511578413575"><ele>5.0</ele><time>2026-04-09T14:35:46.999Z</time></trkpt><trkpt lat="43.9939304054226" lon="10.149367721509034"><ele>5.0</ele><time>2026-04-09T14:35:47.999Z</time></trkpt><trkpt lat="43.994142862319826" lon="10.149224907399491"><ele>5.0</ele><time>2026-04-09T14:35:48.999Z</time></trkpt><trkpt lat="43.994358462461406" lon="10.14908386924525"><ele>4.5</ele><time>2026-04-09T14:35:49.999Z</time></trkpt><trkpt lat="43.99457246480974" lon="10.14894460283697"><ele>4.0</ele><time>2026-04-09T14:35:50.999Z</time></trkpt><trkpt lat="43.994774908235854" lon="10.148812350776938"><ele>4.0</ele><time>2026-04-09T14:35:51.999Z</time></trkpt><trkpt lat="43.994968513964274" lon="10.148686703375075"><ele>4.0</ele><time>2026-04-09T14:35:52.999Z</time></trkpt><trkpt lat="43.99516168987039" lon="10.148560069771941"><ele>4.0</ele><time>2026-04-09T14:35:53.999Z</time></trkpt><trkpt lat="43.99535749243485" lon="10.148432180731293"><ele>4.0</ele><time>2026-04-09T14:35:54.999Z</time></trkpt><trkpt lat="43.995543840073445" lon="10.148310094783088"><ele>4.0</ele><time>2026-04-09T14:35:55.999Z</time></trkpt><trkpt lat="43.99572515637746" lon="10.148191862293174"><ele>4.0</ele><time>2026-04-09T14:35:56.999Z</time></trkpt><trkpt lat="43.995911149114576" lon="10.148072647042454"><ele>3.6666666666666665</ele><time>2026-04-09T14:35:57.999Z</time></trkpt><trkpt lat="43.996104289209214" lon="10.147948323636788"><ele>3.333333333333333</ele><time>2026-04-09T14:35:58.999Z</time></trkpt><trkpt lat="43.99630451739214" lon="10.147821057593308"><ele>3.0</ele><time>2026-04-09T14:35:59.999Z</time></trkpt><trkpt lat="43.99650923471489" lon="10.147688335200682"><ele>4.5</ele><time>2026-04-09T14:36:00.999Z</time></trkpt><trkpt lat="43.9967184687211" lon="10.147552331263432"><ele>6.0</ele><time>2026-04-09T14:36:01.999Z</time></trkpt><trkpt lat="43.996927662547364" lon="10.147415506707985"><ele>5.333333333333333</ele><time>2026-04-09T14:36:02.999Z</time></trkpt><trkpt lat="43.99712731363218" lon="10.147286908676097"><ele>4.666666666666666</ele><time>2026-04-09T14:36:04Z</time></trkpt><trkpt lat="43.99733070457341" lon="10.147158779203776"><ele>4.0</ele><time>2026-04-09T14:36:05Z</time></trkpt><trkpt lat="43.997540770528694" lon="10.147025393216277"><ele>3.5</ele><time>2026-04-09T14:36:06Z</time></trkpt><trkpt lat="43.99775331613115" lon="10.146886806439747"><ele>3.0</ele><time>2026-04-09T14:36:07Z</time></trkpt><trkpt lat="43.997967939401306" lon="10.146742463005321"><ele>3.0</ele><time>2026-04-09T14:36:08Z</time></trkpt><trkpt lat="43.99818673741457" lon="10.146594457603939"><ele>3.0</ele><time>2026-04-09T14:36:09Z</time></trkpt><trkpt lat="43.99840249611142" lon="10.146453830822296"><ele>3.0</ele><time>2026-04-09T14:36:10Z</time></trkpt><trkpt lat="43.998611579800176" lon="10.14631518068879"><ele>3.0</ele><time>2026-04-09T14:36:11Z</time></trkpt><trkpt lat="43.99882349371329" lon="10.146168589035142"><ele>3.0</ele><time>2026-04-09T14:36:12Z</time></trkpt><trkpt lat="43.99903833014784" lon="10.146012902280274"><ele>3.0</ele><time>2026-04-09T14:36:13Z</time></trkpt><trkpt lat="43.99925680813097" lon="10.145846130230533"><ele>3.0</ele><time>2026-04-09T14:36:14Z</time></trkpt><trkpt lat="43.999478843962905" lon="10.145669981653057"><ele>3.0</ele><time>2026-04-09T14:36:15Z</time></trkpt><trkpt lat="43.99969985974745" lon="10.145487222984327"><ele>3.0</ele><time>2026-04-09T14:36:16Z</time></trkpt><trkpt lat="43.99990510958832" lon="10.145304914465923"><ele>3.0</ele><time>2026-04-09T14:36:17Z</time></trkpt><trkpt lat="44.00010418805709" lon="10.145122469360782"><ele>3.0</ele><time>2026-04-09T14:36:18Z</time></trkpt><trkpt lat="44.000304567817835" lon="10.144935389938993"><ele>3.0</ele><time>2026-04-09T14:36:19Z</time></trkpt><trkpt lat="44.000503284557944" lon="10.14473998089382"><ele>3.0</ele><time>2026-04-09T14:36:20Z</time></trkpt><trkpt lat="44.00069896989908" lon="10.144536738641186"><ele>3.0</ele><time>2026-04-09T14:36:21Z</time></trkpt><trkpt lat="44.00089689480404" lon="10.144329572117288"><ele>3.0</ele><time>2026-04-09T14:36:22Z</time></trkpt><trkpt lat="44.00109383695102" lon="10.144117353285564"><ele>3.0</ele><time>2026-04-09T14:36:23Z</time></trkpt><trkpt lat="44.00128981021408" lon="10.143893014930512"><ele>3.0</ele><time>2026-04-09T14:36:24Z</time></trkpt><trkpt lat="44.00148417398062" lon="10.143662096000773"><ele>3.0</ele><time>2026-04-09T14:36:25Z</time></trkpt><trkpt lat="44.00167604890245" lon="10.143424095169312"><ele>2.0</ele><time>2026-04-09T14:36:26Z</time></trkpt><trkpt lat="44.00186623445787" lon="10.143179879914744"><ele>1.0</ele><time>2026-04-09T14:36:27Z</time></trkpt><trkpt lat="44.00205565528387" lon="10.142928736224675"><ele>1.0</ele><time>2026-04-09T14:36:28Z</time></trkpt><trkpt lat="44.00224243317041" lon="10.142671909995066"><ele>1.0</ele><time>2026-04-09T14:36:29Z</time></trkpt><trkpt lat="44.0024220751301" lon="10.142414862795924"><ele>1.5</ele><time>2026-04-09T14:36:30Z</time></trkpt><trkpt lat="44.002593644188146" lon="10.142164277054631"><ele>2.0</ele><time>2026-04-09T14:36:31Z</time></trkpt><trkpt lat="44.00276955909425" lon="10.14191142794689"><ele>2.0</ele><time>2026-04-09T14:36:32Z</time></trkpt><trkpt lat="44.002949476495324" lon="10.141655582262024"><ele>2.0</ele><time>2026-04-09T14:36:33Z</time></trkpt><trkpt lat="44.0031312462207" lon="10.141396114968703"><ele>2.0</ele><time>2026-04-09T14:36:34Z</time></trkpt><trkpt lat="44.00330571645007" lon="10.141145214255113"><ele>2.0</ele><time>2026-04-09T14:36:35Z</time></trkpt><trkpt lat="44.00347386742929" lon="10.140905831346037"><ele>2.5</ele><time>2026-04-09T14:36:36Z</time></trkpt><trkpt lat="44.00364173345196" lon="10.140665591533462"><ele>3.0</ele><time>2026-04-09T14:36:37Z</time></trkpt><trkpt lat="44.00380760835686" lon="10.140426234220135"><ele>3.0</ele><time>2026-04-09T14:36:38Z</time></trkpt><trkpt lat="44.00397433502461" lon="10.140185836291998"><ele>3.0</ele><time>2026-04-09T14:36:39Z</time></trkpt><trkpt lat="44.00414042548074" lon="10.13994495404573"><ele>1.5</ele><time>2026-04-09T14:36:40Z</time></trkpt><trkpt lat="44.00430508786176" lon="10.139704858796982"><ele>0.0</ele><time>2026-04-09T14:36:41Z</time></trkpt><trkpt lat="44.00446680325349" lon="10.139467887429001"><ele>0.0</ele><time>2026-04-09T14:36:42Z</time></trkpt><trkpt lat="44.00462103664185" lon="10.139241618376587"><ele>0.0</ele><time>2026-04-09T14:36:43Z</time></trkpt><trkpt lat="44.00476929670215" lon="10.13902459782287"><ele>0.0</ele><time>2026-04-09T14:36:44Z</time></trkpt><trkpt lat="44.00491815543557" lon="10.138807398019637"><ele>1.0</ele><time>2026-04-09T14:36:45Z</time></trkpt><trkpt lat="44.00505912283242" lon="10.13860116090094"><ele>2.0</ele><time>2026-04-09T14:36:46Z</time></trkpt><trkpt lat="44.005198604571845" lon="10.138397413781513"><ele>3.0</ele><time>2026-04-09T14:36:47Z</time></trkpt><trkpt lat="44.00534525338019" lon="10.138186634886956"><ele>3.0</ele><time>2026-04-09T14:36:48Z</time></trkpt><trkpt lat="44.00549724662436" lon="10.137966443474971"><ele>3.0</ele><time>2026-04-09T14:36:49Z</time></trkpt><trkpt lat="44.005655482022576" lon="10.137742209189899"><ele>3.0</ele><time>2026-04-09T14:36:50Z</time></trkpt><trkpt lat="44.005818236585824" lon="10.137509814478479"><ele>3.0</ele><time>2026-04-09T14:36:51Z</time></trkpt><trkpt lat="44.005982361322225" lon="10.13727616095495"><ele>3.0</ele><time>2026-04-09T14:36:52Z</time></trkpt><trkpt lat="44.006136329270205" lon="10.137053974031259"><ele>3.0</ele><time>2026-04-09T14:36:53Z</time></trkpt><trkpt lat="44.00628579931805" lon="10.136836039700142"><ele>3.0</ele><time>2026-04-09T14:36:54Z</time></trkpt><trkpt lat="44.0064393195286" lon="10.13661276761442"><ele>3.0</ele><time>2026-04-09T14:36:55Z</time></trkpt><trkpt lat="44.00659555482149" lon="10.136386775023496"><ele>2.5</ele><time>2026-04-09T14:36:56Z</time></trkpt><trkpt lat="44.00675493535843" lon="10.13615668515188"><ele>2.0</ele><time>2026-04-09T14:36:57Z</time></trkpt><trkpt lat="44.00691637347368" lon="10.135922877059139"><ele>2.0</ele><time>2026-04-09T14:36:58Z</time></trkpt><trkpt lat="44.00707584860564" lon="10.135681536896708"><ele>2.0</ele><time>2026-04-09T14:36:59Z</time></trkpt><trkpt lat="44.00724294590783" lon="10.13544039785452"><ele>2.0</ele><time>2026-04-09T14:37:00Z</time></trkpt><trkpt lat="44.00741330854605" lon="10.135196591147615"><ele>2.0</ele><time>2026-04-09T14:37:01Z</time></trkpt><trkpt lat="44.00757464748425" lon="10.134963607572042"><ele>2.5</ele><time>2026-04-09T14:37:02Z</time></trkpt><trkpt lat="44.00773601832287" lon="10.134729859053687"><ele>3.0</ele><time>2026-04-09T14:37:03Z</time></trkpt><trkpt lat="44.00790131345705" lon="10.134492300744888"><ele>3.0</ele><time>2026-04-09T14:37:04Z</time></trkpt><trkpt lat="44.008069944782456" lon="10.134252176847891"><ele>3.0</ele><time>2026-04-09T14:37:05Z</time></trkpt><trkpt lat="44.008241280967056" lon="10.134008085864643"><ele>2.5</ele><time>2026-04-09T14:37:06Z</time></trkpt><trkpt lat="44.00841081513848" lon="10.133765632796923"><ele>2.0</ele><time>2026-04-09T14:37:07Z</time></trkpt><trkpt lat="44.00856812785807" lon="10.133537001834688"><ele>2.0</ele><time>2026-04-09T14:37:08Z</time></trkpt><trkpt lat="44.00872291712964" lon="10.133313690292596"><ele>2.0</ele><time>2026-04-09T14:37:09Z</time></trkpt><trkpt lat="44.00888331655269" lon="10.133084048070781"><ele>2.0</ele><time>2026-04-09T14:37:10Z</time></trkpt><trkpt lat="44.00904542231813" lon="10.13285011435805"><ele>2.0</ele><time>2026-04-09T14:37:11Z</time></trkpt><trkpt lat="44.009210050939764" lon="10.132611778579292"><ele>2.0</ele><time>2026-04-09T14:37:12Z</time></trkpt><trkpt lat="44.00937873745146" lon="10.132368740890628"><ele>2.0</ele><time>2026-04-09T14:37:13Z</time></trkpt><trkpt lat="44.00954589396466" lon="10.132125974361907"><ele>2.0</ele><time>2026-04-09T14:37:14Z</time></trkpt><trkpt lat="44.009704465491666" lon="10.13189608920663"><ele>2.0</ele><time>2026-04-09T14:37:15Z</time></trkpt><trkpt lat="44.009864304375014" lon="10.131664960655794"><ele>3.0</ele><time>2026-04-09T14:37:16Z</time></trkpt><trkpt lat="44.010028446887404" lon="10.131428119703862"><ele>4.0</ele><time>2026-04-09T14:37:17Z</time></trkpt><trkpt lat="44.01019709605078" lon="10.131186704726307"><ele>4.0</ele><time>2026-04-09T14:37:18Z</time></trkpt><trkpt lat="44.01036830390029" lon="10.13094107229031"><ele>4.0</ele><time>2026-04-09T14:37:19Z</time></trkpt><trkpt lat="44.010542067017504" lon="10.130690567947678"><ele>3.5</ele><time>2026-04-09T14:37:20Z</time></trkpt><trkpt lat="44.01071838990978" lon="10.13043446782755"><ele>3.0</ele><time>2026-04-09T14:37:20.999Z</time></trkpt><trkpt lat="44.01089801979799" lon="10.130175016369943"><ele>3.5</ele><time>2026-04-09T14:37:21.999Z</time></trkpt><trkpt lat="44.01107955022535" lon="10.129911294878838"><ele>4.0</ele><time>2026-04-09T14:37:22.999Z</time></trkpt><trkpt lat="44.011262321449394" lon="10.129641807994515"><ele>4.0</ele><time>2026-04-09T14:37:23.999Z</time></trkpt><trkpt lat="44.011448713011546" lon="10.129366398840117"><ele>4.0</ele><time>2026-04-09T14:37:24.999Z</time></trkpt><trkpt lat="44.0116336214578" lon="10.129084215486971"><ele>3.5</ele><time>2026-04-09T14:37:25.999Z</time></trkpt><trkpt lat="44.011818085822625" lon="10.128794940095037"><ele>3.0</ele><time>2026-04-09T14:37:26.999Z</time></trkpt><trkpt lat="44.01200315062315" lon="10.128499442586305"><ele>2.0</ele><time>2026-04-09T14:37:27.999Z</time></trkpt><trkpt lat="44.01218606625068" lon="10.128196040145943"><ele>1.0</ele><time>2026-04-09T14:37:28.999Z</time></trkpt><trkpt lat="44.01236988049313" lon="10.127881538692051"><ele>2.0</ele><time>2026-04-09T14:37:29.999Z</time></trkpt><trkpt lat="44.01255291880242" lon="10.127556333001579"><ele>3.0</ele><time>2026-04-09T14:37:30.999Z</time></trkpt><trkpt lat="44.0127356352207" lon="10.127221114529059"><ele>3.0</ele><time>2026-04-09T14:37:31.999Z</time></trkpt><trkpt lat="44.01291510952279" lon="10.126874724973478"><ele>3.0</ele><time>2026-04-09T14:37:32.999Z</time></trkpt><trkpt lat="44.0130936015922" lon="10.126519748998623"><ele>3.0</ele><time>2026-04-09T14:37:33.999Z</time></trkpt><trkpt lat="44.01327215910596" lon="10.126162124041588"><ele>3.0</ele><time>2026-04-09T14:37:34.999Z</time></trkpt><trkpt lat="44.01343877126827" lon="10.125823898282139"><ele>2.5</ele><time>2026-04-09T14:37:35.999Z</time></trkpt><trkpt lat="44.013606414090056" lon="10.125490548620352"><ele>2.0</ele><time>2026-04-09T14:37:36.999Z</time></trkpt><trkpt lat="44.0137749461746" lon="10.125153666300392"><ele>2.0</ele><time>2026-04-09T14:37:37.999Z</time></trkpt><trkpt lat="44.01394326820715" lon="10.124814588115646"><ele>2.0</ele><time>2026-04-09T14:37:38.999Z</time></trkpt><trkpt lat="44.01411374198436" lon="10.12447613938105"><ele>2.5</ele><time>2026-04-09T14:37:39.999Z</time></trkpt><trkpt lat="44.014285282727116" lon="10.12413675462446"><ele>3.0</ele><time>2026-04-09T14:37:40.999Z</time></trkpt><trkpt lat="44.014456843922" lon="10.123799172979329"><ele>3.0</ele><time>2026-04-09T14:37:41.999Z</time></trkpt><trkpt lat="44.01462675222309" lon="10.123463009082053"><ele>3.0</ele><time>2026-04-09T14:37:42.999Z</time></trkpt><trkpt lat="44.014795031463066" lon="10.1231268870804"><ele>2.5</ele><time>2026-04-09T14:37:43.999Z</time></trkpt><trkpt lat="44.01496363343686" lon="10.122795130688624"><ele>2.0</ele><time>2026-04-09T14:37:44.999Z</time></trkpt><trkpt lat="44.01513276167604" lon="10.122462108887488"><ele>2.5</ele><time>2026-04-09T14:37:45.999Z</time></trkpt><trkpt lat="44.015301131390856" lon="10.122130526148915"><ele>3.0</ele><time>2026-04-09T14:37:46.999Z</time></trkpt><trkpt lat="44.01546815294185" lon="10.121798202383015"><ele>3.0</ele><time>2026-04-09T14:37:47.999Z</time></trkpt><trkpt lat="44.01563187364883" lon="10.121464495757554"><ele>3.0</ele><time>2026-04-09T14:37:48.999Z</time></trkpt><trkpt lat="44.01579416440851" lon="10.1211343489991"><ele>5.0</ele><time>2026-04-09T14:37:49.999Z</time></trkpt><trkpt lat="44.01595929883244" lon="10.120801167043236"><ele>7.0</ele><time>2026-04-09T14:37:50.999Z</time></trkpt><trkpt lat="44.016129094240384" lon="10.120464926375572"><ele>7.0</ele><time>2026-04-09T14:37:51.999Z</time></trkpt><trkpt lat="44.01630168604059" lon="10.120128034564377"><ele>7.0</ele><time>2026-04-09T14:37:52.999Z</time></trkpt><trkpt lat="44.01647783558829" lon="10.119789187922635"><ele>7.5</ele><time>2026-04-09T14:37:53.999Z</time></trkpt><trkpt lat="44.01665252393285" lon="10.119445622349879"><ele>8.0</ele><time>2026-04-09T14:37:54.999Z</time></trkpt><trkpt lat="44.01682735182577" lon="10.119099336157245"><ele>7.0</ele><time>2026-04-09T14:37:55.999Z</time></trkpt><trkpt lat="44.01699941413296" lon="10.118751164526378"><ele>6.0</ele><time>2026-04-09T14:37:56.999Z</time></trkpt><trkpt lat="44.017174954411885" lon="10.118403274418835"><ele>6.5</ele><time>2026-04-09T14:37:57.999Z</time></trkpt><trkpt lat="44.017348945674435" lon="10.118052879199986"><ele>7.0</ele><time>2026-04-09T14:37:58.999Z</time></trkpt><trkpt lat="44.01752458610348" lon="10.117708788394811"><ele>7.0</ele><time>2026-04-09T14:37:59.999Z</time></trkpt><trkpt lat="44.01770014316644" lon="10.117359677163678"><ele>7.0</ele><time>2026-04-09T14:38:00.999Z</time></trkpt><trkpt lat="44.01787732144471" lon="10.117008983725212"><ele>7.0</ele><time>2026-04-09T14:38:01.999Z</time></trkpt><trkpt lat="44.018053493067654" lon="10.116660459552914"><ele>7.0</ele><time>2026-04-09T14:38:02.999Z</time></trkpt><trkpt lat="44.01822867014326" lon="10.116310353834852"><ele>7.5</ele><time>2026-04-09T14:38:03.999Z</time></trkpt><trkpt lat="44.018404828600765" lon="10.115957566164782"><ele>8.0</ele><time>2026-04-09T14:38:04.999Z</time></trkpt><trkpt lat="44.018575838600356" lon="10.115605657966057"><ele>7.0</ele><time>2026-04-09T14:38:05.999Z</time></trkpt><trkpt lat="44.0187415423705" lon="10.115249489147267"><ele>6.0</ele><time>2026-04-09T14:38:06.999Z</time></trkpt><trkpt lat="44.01890121008848" lon="10.114889440959157"><ele>6.0</ele><time>2026-04-09T14:38:07.999Z</time></trkpt><trkpt lat="44.0190574327643" lon="10.11452653519537"><ele>6.0</ele><time>2026-04-09T14:38:09Z</time></trkpt><trkpt lat="44.01920803466847" lon="10.114157703250775"><ele>6.0</ele><time>2026-04-09T14:38:10Z</time></trkpt><trkpt lat="44.01935238044715" lon="10.11378005748198"><ele>6.0</ele><time>2026-04-09T14:38:11Z</time></trkpt><trkpt lat="44.01949213386408" lon="10.113398767172987"><ele>5.5</ele><time>2026-04-09T14:38:12Z</time></trkpt><trkpt lat="44.01962410249742" lon="10.113010076893147"><ele>5.0</ele><time>2026-04-09T14:38:13Z</time></trkpt><trkpt lat="44.019748236829294" lon="10.112616257583989"><ele>4.0</ele><time>2026-04-09T14:38:14Z</time></trkpt><trkpt lat="44.019865827083706" lon="10.112220034430436"><ele>3.0</ele><time>2026-04-09T14:38:15Z</time></trkpt><trkpt lat="44.019977941313606" lon="10.111820622465158"><ele>3.0</ele><time>2026-04-09T14:38:16Z</time></trkpt><trkpt lat="44.0200860601109" lon="10.111415400174819"><ele>3.0</ele><time>2026-04-09T14:38:17Z</time></trkpt><trkpt lat="44.0201854830331" lon="10.11100545439858"><ele>3.0</ele><time>2026-04-09T14:38:18Z</time></trkpt><trkpt lat="44.020277987370854" lon="10.11059156606533"><ele>3.0</ele><time>2026-04-09T14:38:19Z</time></trkpt><trkpt lat="44.02036697178849" lon="10.110173938432633"><ele>3.5</ele><time>2026-04-09T14:38:20Z</time></trkpt><trkpt lat="44.02045738165636" lon="10.109756403315018"><ele>4.0</ele><time>2026-04-09T14:38:21Z</time></trkpt><trkpt lat="44.020549026421506" lon="10.109331391631963"><ele>4.0</ele><time>2026-04-09T14:38:22Z</time></trkpt><trkpt lat="44.02064261029397" lon="10.108907088293769"><ele>4.0</ele><time>2026-04-09T14:38:23Z</time></trkpt><trkpt lat="44.02073858842854" lon="10.108481401501813"><ele>4.0</ele><time>2026-04-09T14:38:24Z</time></trkpt><trkpt lat="44.02083382361544" lon="10.108047816027975"><ele>4.0</ele><time>2026-04-09T14:38:25Z</time></trkpt><trkpt lat="44.020927901966566" lon="10.107611063823693"><ele>4.0</ele><time>2026-04-09T14:38:26Z</time></trkpt><trkpt lat="44.0210240530605" lon="10.107174362806283"><ele>4.0</ele><time>2026-04-09T14:38:27Z</time></trkpt><trkpt lat="44.021118944214436" lon="10.106731547572705"><ele>4.0</ele><time>2026-04-09T14:38:28Z</time></trkpt><trkpt lat="44.0212172599423" lon="10.106295113981481"><ele>4.0</ele><time>2026-04-09T14:38:29Z</time></trkpt><trkpt lat="44.02131113987849" lon="10.105862993996451"><ele>4.0</ele><time>2026-04-09T14:38:30Z</time></trkpt><trkpt lat="44.02140321350168" lon="10.105460430455876"><ele>4.0</ele><time>2026-04-09T14:38:31Z</time></trkpt><trkpt lat="44.0214904588877" lon="10.105070200847534"><ele>3.5</ele><time>2026-04-09T14:38:32Z</time></trkpt><trkpt lat="44.02158220994147" lon="10.104668183939735"><ele>3.0</ele><time>2026-04-09T14:38:33Z</time></trkpt><trkpt lat="44.021674639848605" lon="10.104257035543613"><ele>3.0</ele><time>2026-04-09T14:38:34Z</time></trkpt><trkpt lat="44.02177722567333" lon="10.10383496236752"><ele>3.0</ele><time>2026-04-09T14:38:35Z</time></trkpt><trkpt lat="44.02189431140438" lon="10.103411613555696"><ele>2.5</ele><time>2026-04-09T14:38:36Z</time></trkpt><trkpt lat="44.0220200942886" lon="10.102987047789954"><ele>2.0</ele><time>2026-04-09T14:38:37Z</time></trkpt><trkpt lat="44.022155285389175" lon="10.102564402194053"><ele>2.5</ele><time>2026-04-09T14:38:38Z</time></trkpt><trkpt lat="44.022296709539596" lon="10.102144338924262"><ele>3.0</ele><time>2026-04-09T14:38:39Z</time></trkpt><trkpt lat="44.02244453628666" lon="10.101726931706079"><ele>2.5</ele><time>2026-04-09T14:38:40Z</time></trkpt><trkpt lat="44.022598872204625" lon="10.101314344904488"><ele>2.0</ele><time>2026-04-09T14:38:41Z</time></trkpt><trkpt lat="44.0227564720094" lon="10.100924972494152"><ele>2.0</ele><time>2026-04-09T14:38:42Z</time></trkpt><trkpt lat="44.022918724747804" lon="10.10055147886851"><ele>2.0</ele><time>2026-04-09T14:38:43Z</time></trkpt><trkpt lat="44.02308414106452" lon="10.100185593915311"><ele>3.0</ele><time>2026-04-09T14:38:44Z</time></trkpt><trkpt lat="44.023250194874386" lon="10.099826502660118"><ele>4.0</ele><time>2026-04-09T14:38:45Z</time></trkpt><trkpt lat="44.023422964275305" lon="10.099474696699783"><ele>4.0</ele><time>2026-04-09T14:38:46Z</time></trkpt><trkpt lat="44.02360396590214" lon="10.099129944800682"><ele>4.0</ele><time>2026-04-09T14:38:47Z</time></trkpt><trkpt lat="44.02379588524582" lon="10.098787520751943"><ele>4.0</ele><time>2026-04-09T14:38:48Z</time></trkpt><trkpt lat="44.0239826982658" lon="10.098444243371205"><ele>4.0</ele><time>2026-04-09T14:38:49Z</time></trkpt><trkpt lat="44.0241825908913" lon="10.098107743478266"><ele>3.0</ele><time>2026-04-09T14:38:50Z</time></trkpt><trkpt lat="44.02438846399237" lon="10.097779731470695"><ele>2.0</ele><time>2026-04-09T14:38:51Z</time></trkpt><trkpt lat="44.024598236941344" lon="10.097455185048279"><ele>2.0</ele><time>2026-04-09T14:38:52Z</time></trkpt><trkpt lat="44.024809588916625" lon="10.097133555042081"><ele>2.0</ele><time>2026-04-09T14:38:53Z</time></trkpt><trkpt lat="44.025021726021706" lon="10.09681130346329"><ele>2.0</ele><time>2026-04-09T14:38:54Z</time></trkpt><trkpt lat="44.02523193971809" lon="10.096490009189797"><ele>2.0</ele><time>2026-04-09T14:38:55Z</time></trkpt><trkpt lat="44.025442663355555" lon="10.096166593228993"><ele>2.0</ele><time>2026-04-09T14:38:56Z</time></trkpt><trkpt lat="44.02565729518105" lon="10.095838643521429"><ele>2.0</ele><time>2026-04-09T14:38:57Z</time></trkpt><trkpt lat="44.02587114521902" lon="10.095508143946555"><ele>2.5</ele><time>2026-04-09T14:38:58Z</time></trkpt><trkpt lat="44.02608560883551" lon="10.095180924047096"><ele>3.0</ele><time>2026-04-09T14:38:59Z</time></trkpt><trkpt lat="44.02629855437155" lon="10.09485653051519"><ele>3.0</ele><time>2026-04-09T14:39:00Z</time></trkpt><trkpt lat="44.02650598597303" lon="10.09453138942503"><ele>3.0</ele><time>2026-04-09T14:39:01Z</time></trkpt><trkpt lat="44.026714519345305" lon="10.094209919719036"><ele>3.0</ele><time>2026-04-09T14:39:02Z</time></trkpt><trkpt lat="44.0269243398674" lon="10.093890839066338"><ele>3.0</ele><time>2026-04-09T14:39:03Z</time></trkpt><trkpt lat="44.027132998387316" lon="10.093571472296977"><ele>3.0</ele><time>2026-04-09T14:39:04Z</time></trkpt><trkpt lat="44.027339479654756" lon="10.093250705847284"><ele>3.0</ele><time>2026-04-09T14:39:05Z</time></trkpt><trkpt lat="44.027546495501454" lon="10.092932538937253"><ele>4.0</ele><time>2026-04-09T14:39:06Z</time></trkpt><trkpt lat="44.02775204667224" lon="10.092615193476203"><ele>5.0</ele><time>2026-04-09T14:39:07Z</time></trkpt><trkpt lat="44.02794288038109" lon="10.09231299378032"><ele>5.0</ele><time>2026-04-09T14:39:08Z</time></trkpt><trkpt lat="44.028125991531375" lon="10.092027017491912"><ele>5.0</ele><time>2026-04-09T14:39:09Z</time></trkpt><trkpt lat="44.02830800870296" lon="10.09174554348176"><ele>5.5</ele><time>2026-04-09T14:39:10Z</time></trkpt><trkpt lat="44.02849293410437" lon="10.09146561876289"><ele>6.0</ele><time>2026-04-09T14:39:11Z</time></trkpt><trkpt lat="44.02868024168243" lon="10.091180340495068"><ele>6.0</ele><time>2026-04-09T14:39:12Z</time></trkpt><trkpt lat="44.028867056455766" lon="10.090889955370807"><ele>6.0</ele><time>2026-04-09T14:39:13Z</time></trkpt><trkpt lat="44.02906230063328" lon="10.090601467313393"><ele>6.0</ele><time>2026-04-09T14:39:14Z</time></trkpt><trkpt lat="44.02924885360233" lon="10.090308289374313"><ele>6.0</ele><time>2026-04-09T14:39:15Z</time></trkpt><trkpt lat="44.02944333263486" lon="10.090014012475978"><ele>5.0</ele><time>2026-04-09T14:39:16Z</time></trkpt><trkpt lat="44.02963759920205" lon="10.089713601471237"><ele>4.0</ele><time>2026-04-09T14:39:17Z</time></trkpt><trkpt lat="44.02983111539174" lon="10.089412590700675"><ele>4.5</ele><time>2026-04-09T14:39:18Z</time></trkpt><trkpt lat="44.03002944434026" lon="10.089104337546646"><ele>5.0</ele><time>2026-04-09T14:39:19Z</time></trkpt><trkpt lat="44.0302284780851" lon="10.088791145269589"><ele>3.5</ele><time>2026-04-09T14:39:20Z</time></trkpt><trkpt lat="44.030421829874186" lon="10.08846950129046"><ele>2.0</ele><time>2026-04-09T14:39:21Z</time></trkpt><trkpt lat="44.03060840277601" lon="10.088136017868178"><ele>1.5</ele><time>2026-04-09T14:39:22Z</time></trkpt><trkpt lat="44.03079079634539" lon="10.087795081948208"><ele>1.0</ele><time>2026-04-09T14:39:23Z</time></trkpt><trkpt lat="44.030966973862036" lon="10.087449132372647"><ele>2.0</ele><time>2026-04-09T14:39:24Z</time></trkpt><trkpt lat="44.03113898661085" lon="10.08709822265619"><ele>3.0</ele><time>2026-04-09T14:39:25Z</time></trkpt><trkpt lat="44.03130784897236" lon="10.086744332926095"><ele>2.5</ele><time>2026-04-09T14:39:26Z</time></trkpt><trkpt lat="44.0314705965846" lon="10.086384777419081"><ele>2.0</ele><time>2026-04-09T14:39:26.999Z</time></trkpt><trkpt lat="44.031626976600705" lon="10.086019582984811"><ele>3.5</ele><time>2026-04-09T14:39:27.999Z</time></trkpt><trkpt lat="44.03177565420611" lon="10.085649254217339"><ele>5.0</ele><time>2026-04-09T14:39:28.999Z</time></trkpt><trkpt lat="44.03191589468568" lon="10.085278421769937"><ele>4.0</ele><time>2026-04-09T14:39:29.999Z</time></trkpt><trkpt lat="44.0320501639013" lon="10.084906390737615"><ele>3.0</ele><time>2026-04-09T14:39:30.999Z</time></trkpt><trkpt lat="44.03217818034428" lon="10.08452841268763"><ele>3.0</ele><time>2026-04-09T14:39:31.999Z</time></trkpt><trkpt lat="44.03230043103928" lon="10.084153291959426"><ele>3.0</ele><time>2026-04-09T14:39:32.999Z</time></trkpt><trkpt lat="44.03241409719798" lon="10.08377584653315"><ele>3.0</ele><time>2026-04-09T14:39:33.999Z</time></trkpt><trkpt lat="44.03252114394587" lon="10.083396127077664"><ele>3.0</ele><time>2026-04-09T14:39:34.999Z</time></trkpt><trkpt lat="44.03262395162366" lon="10.083013121276938"><ele>3.5</ele><time>2026-04-09T14:39:35.999Z</time></trkpt><trkpt lat="44.03272203639534" lon="10.082632886852897"><ele>4.0</ele><time>2026-04-09T14:39:36.999Z</time></trkpt><trkpt lat="44.03281633298711" lon="10.08224961121445"><ele>4.0</ele><time>2026-04-09T14:39:37.999Z</time></trkpt><trkpt lat="44.03290439896335" lon="10.0818655985878"><ele>4.0</ele><time>2026-04-09T14:39:38.999Z</time></trkpt><trkpt lat="44.032979563184874" lon="10.081476205810093"><ele>3.5</ele><time>2026-04-09T14:39:39.999Z</time></trkpt><trkpt lat="44.03304932431043" lon="10.081083393551594"><ele>3.0</ele><time>2026-04-09T14:39:40.999Z</time></trkpt><trkpt lat="44.03311391690372" lon="10.080690182372102"><ele>3.0</ele><time>2026-04-09T14:39:41.999Z</time></trkpt><trkpt lat="44.03317190469309" lon="10.080294462717907"><ele>3.0</ele><time>2026-04-09T14:39:42.999Z</time></trkpt><trkpt lat="44.03322283531151" lon="10.079896802543809"><ele>3.0</ele><time>2026-04-09T14:39:43.999Z</time></trkpt><trkpt lat="44.033273992958875" lon="10.079501454688549"><ele>3.0</ele><time>2026-04-09T14:39:44.999Z</time></trkpt><trkpt lat="44.03332973542811" lon="10.079104358615162"><ele>2.5</ele><time>2026-04-09T14:39:45.999Z</time></trkpt><trkpt lat="44.03338640778915" lon="10.078707327639856"><ele>2.0</ele><time>2026-04-09T14:39:46.999Z</time></trkpt><trkpt lat="44.033444042734274" lon="10.07831217644015"><ele>2.0</ele><time>2026-04-09T14:39:47.999Z</time></trkpt><trkpt lat="44.033501337367746" lon="10.077918190199894"><ele>2.0</ele><time>2026-04-09T14:39:48.999Z</time></trkpt><trkpt lat="44.03355728906881" lon="10.077520488750727"><ele>2.5</ele><time>2026-04-09T14:39:49.999Z</time></trkpt><trkpt lat="44.033612516937275" lon="10.07712049175952"><ele>3.0</ele><time>2026-04-09T14:39:50.999Z</time></trkpt><trkpt lat="44.033666218395965" lon="10.076718230818363"><ele>3.0</ele><time>2026-04-09T14:39:51.999Z</time></trkpt><trkpt lat="44.03372189912161" lon="10.076315127802877"><ele>3.0</ele><time>2026-04-09T14:39:52.999Z</time></trkpt><trkpt lat="44.03378129820941" lon="10.075910737807137"><ele>3.0</ele><time>2026-04-09T14:39:53.999Z</time></trkpt><trkpt lat="44.03384078246145" lon="10.075505636079432"><ele>3.0</ele><time>2026-04-09T14:39:54.999Z</time></trkpt><trkpt lat="44.033902028098986" lon="10.075102132876388"><ele>2.5</ele><time>2026-04-09T14:39:55.999Z</time></trkpt><trkpt lat="44.033967525554466" lon="10.074698991572044"><ele>2.0</ele><time>2026-04-09T14:39:56.999Z</time></trkpt><trkpt lat="44.034042762085235" lon="10.074295301614335"><ele>2.0</ele><time>2026-04-09T14:39:57.999Z</time></trkpt><trkpt lat="44.03412487720703" lon="10.073892166738592"><ele>2.0</ele><time>2026-04-09T14:39:58.999Z</time></trkpt><trkpt lat="44.034213152892235" lon="10.07348910006968"><ele>2.0</ele><time>2026-04-09T14:39:59.999Z</time></trkpt><trkpt lat="44.034307669861626" lon="10.073086959239893"><ele>2.0</ele><time>2026-04-09T14:40:00.999Z</time></trkpt><trkpt lat="44.03440934606273" lon="10.07268802324356"><ele>2.5</ele><time>2026-04-09T14:40:01.999Z</time></trkpt><trkpt lat="44.03451693980753" lon="10.072292278477482"><ele>3.0</ele><time>2026-04-09T14:40:02.999Z</time></trkpt><trkpt lat="44.03463142267915" lon="10.071898745466415"><ele>3.0</ele><time>2026-04-09T14:40:03.999Z</time></trkpt><trkpt lat="44.03475106006948" lon="10.071507622913055"><ele>3.0</ele><time>2026-04-09T14:40:04.999Z</time></trkpt><trkpt lat="44.0348808927022" lon="10.071118679263233"><ele>3.5</ele><time>2026-04-09T14:40:05.999Z</time></trkpt><trkpt lat="44.035016567738396" lon="10.070732834393025"><ele>4.0</ele><time>2026-04-09T14:40:06.999Z</time></trkpt><trkpt lat="44.03515800493422" lon="10.070354384815177"><ele>4.0</ele><time>2026-04-09T14:40:07.999Z</time></trkpt><trkpt lat="44.03530770671313" lon="10.06998103758201"><ele>4.0</ele><time>2026-04-09T14:40:08.999Z</time></trkpt><trkpt lat="44.035462958056286" lon="10.069611200853709"><ele>3.5</ele><time>2026-04-09T14:40:09.999Z</time></trkpt><trkpt lat="44.03561498585907" lon="10.069259433568819"><ele>3.0</ele><time>2026-04-09T14:40:10.999Z</time></trkpt><trkpt lat="44.035763886988065" lon="10.068928566581626"><ele>3.0</ele><time>2026-04-09T14:40:11.999Z</time></trkpt><trkpt lat="44.035916074150634" lon="10.068587860889993"><ele>3.0</ele><time>2026-04-09T14:40:12.999Z</time></trkpt><trkpt lat="44.03606136384008" lon="10.068262135544938"><ele>4.0</ele><time>2026-04-09T14:40:13.999Z</time></trkpt><trkpt lat="44.036210729190984" lon="10.067929189542978"><ele>5.0</ele><time>2026-04-09T14:40:15Z</time></trkpt><trkpt lat="44.03635634600999" lon="10.067595101663507"><ele>5.0</ele><time>2026-04-09T14:40:16Z</time></trkpt><trkpt lat="44.03650489335597" lon="10.067258148784868"><ele>5.0</ele><time>2026-04-09T14:40:17Z</time></trkpt><trkpt lat="44.03665543326846" lon="10.066915070898697"><ele>4.0</ele><time>2026-04-09T14:40:18Z</time></trkpt><trkpt lat="44.03681013878729" lon="10.066567362119116"><ele>3.0</ele><time>2026-04-09T14:40:19Z</time></trkpt><trkpt lat="44.03696644488327" lon="10.066216299159963"><ele>3.0</ele><time>2026-04-09T14:40:20Z</time></trkpt><trkpt lat="44.03712283340891" lon="10.065861279014245"><ele>3.0</ele><time>2026-04-09T14:40:21Z</time></trkpt><trkpt lat="44.03727734885376" lon="10.065506466638132"><ele>3.0</ele><time>2026-04-09T14:40:22Z</time></trkpt><trkpt lat="44.03743377426497" lon="10.065152452947718"><ele>3.0</ele><time>2026-04-09T14:40:23Z</time></trkpt><trkpt lat="44.037590442475" lon="10.06480206057771"><ele>3.0</ele><time>2026-04-09T14:40:24Z</time></trkpt><trkpt lat="44.03774596192833" lon="10.064452703844939"><ele>3.0</ele><time>2026-04-09T14:40:25Z</time></trkpt><trkpt lat="44.03790125276856" lon="10.06410454051415"><ele>3.0</ele><time>2026-04-09T14:40:26Z</time></trkpt><trkpt lat="44.03805665585047" lon="10.063755900835757"><ele>3.0</ele><time>2026-04-09T14:40:27Z</time></trkpt><trkpt lat="44.038211925018274" lon="10.063405293074519"><ele>3.5</ele><time>2026-04-09T14:40:28Z</time></trkpt><trkpt lat="44.0383666029453" lon="10.06305550415509"><ele>4.0</ele><time>2026-04-09T14:40:29Z</time></trkpt><trkpt lat="44.03852115473787" lon="10.062707564701125"><ele>4.0</ele><time>2026-04-09T14:40:30Z</time></trkpt><trkpt lat="44.038674931036766" lon="10.062355291135683"><ele>4.0</ele><time>2026-04-09T14:40:31Z</time></trkpt><trkpt lat="44.038828719379964" lon="10.062002701167263"><ele>4.0</ele><time>2026-04-09T14:40:32Z</time></trkpt><trkpt lat="44.03897668990753" lon="10.061661386930025"><ele>4.0</ele><time>2026-04-09T14:40:33Z</time></trkpt><trkpt lat="44.03911717802729" lon="10.061344454700908"><ele>4.5</ele><time>2026-04-09T14:40:34Z</time></trkpt><trkpt lat="44.0392590687206" lon="10.061027411172928"><ele>5.0</ele><time>2026-04-09T14:40:35Z</time></trkpt><trkpt lat="44.039400701131434" lon="10.06070601867267"><ele>5.0</ele><time>2026-04-09T14:40:36Z</time></trkpt><trkpt lat="44.03953625236324" lon="10.060396706007136"><ele>5.0</ele><time>2026-04-09T14:40:37Z</time></trkpt><trkpt lat="44.03966592066996" lon="10.060108432105787"><ele>4.5</ele><time>2026-04-09T14:40:38Z</time></trkpt><trkpt lat="44.03979700725605" lon="10.059813090598997"><ele>4.0</ele><time>2026-04-09T14:40:39Z</time></trkpt><trkpt lat="44.039931757294255" lon="10.059507609966879"><ele>4.5</ele><time>2026-04-09T14:40:40Z</time></trkpt><trkpt lat="44.04006527280865" lon="10.059205849294164"><ele>5.0</ele><time>2026-04-09T14:40:41Z</time></trkpt><trkpt lat="44.04019443425137" lon="10.058912964113375"><ele>5.0</ele><time>2026-04-09T14:40:42Z</time></trkpt><trkpt lat="44.04032893150101" lon="10.058610926654522"><ele>5.0</ele><time>2026-04-09T14:40:43Z</time></trkpt><trkpt lat="44.040460941023575" lon="10.058304048978764"><ele>4.0</ele><time>2026-04-09T14:40:44Z</time></trkpt><trkpt lat="44.04058392906011" lon="10.058019296719918"><ele>3.0</ele><time>2026-04-09T14:40:45Z</time></trkpt><trkpt lat="44.040703891150095" lon="10.057745019616148"><ele>3.0</ele><time>2026-04-09T14:40:46Z</time></trkpt><trkpt lat="44.040821572075146" lon="10.057478818546459"><ele>3.0</ele><time>2026-04-09T14:40:47Z</time></trkpt><trkpt lat="44.04094399230157" lon="10.05720290130729"><ele>3.0</ele><time>2026-04-09T14:40:48Z</time></trkpt><trkpt lat="44.04107078188434" lon="10.056918443705415"><ele>3.0</ele><time>2026-04-09T14:40:49Z</time></trkpt><trkpt lat="44.041199499491356" lon="10.056627146132104"><ele>3.0</ele><time>2026-04-09T14:40:50Z</time></trkpt><trkpt lat="44.04132127944406" lon="10.056352421925965"><ele>3.0</ele><time>2026-04-09T14:40:51Z</time></trkpt><trkpt lat="44.041439639814634" lon="10.056083785498275"><ele>3.0</ele><time>2026-04-09T14:40:52Z</time></trkpt><trkpt lat="44.04156121466111" lon="10.055809659288066"><ele>3.0</ele><time>2026-04-09T14:40:53Z</time></trkpt><trkpt lat="44.0416786726791" lon="10.05553702272163"><ele>3.0</ele><time>2026-04-09T14:40:54Z</time></trkpt><trkpt lat="44.04179287673515" lon="10.05527845270321"><ele>3.0</ele><time>2026-04-09T14:40:55Z</time></trkpt><trkpt lat="44.04190342494204" lon="10.055023592600863"><ele>3.0</ele><time>2026-04-09T14:40:56Z</time></trkpt><trkpt lat="44.04201982051665" lon="10.054758441284234"><ele>3.0</ele><time>2026-04-09T14:40:57Z</time></trkpt><trkpt lat="44.042141244195626" lon="10.054483715753236"><ele>3.0</ele><time>2026-04-09T14:40:58Z</time></trkpt><trkpt lat="44.04226631900249" lon="10.054200685414836"><ele>2.5</ele><time>2026-04-09T14:40:59Z</time></trkpt><trkpt lat="44.04239933667378" lon="10.053901198916067"><ele>2.0</ele><time>2026-04-09T14:41:00Z</time></trkpt><trkpt lat="44.04252572228931" lon="10.053618360022297"><ele>3.0</ele><time>2026-04-09T14:41:01Z</time></trkpt><trkpt lat="44.04264535188342" lon="10.053347168477895"><ele>4.0</ele><time>2026-04-09T14:41:02Z</time></trkpt><trkpt lat="44.04276973427317" lon="10.053067918931793"><ele>5.0</ele><time>2026-04-09T14:41:03Z</time></trkpt><trkpt lat="44.042897566604694" lon="10.052780441507636"><ele>6.0</ele><time>2026-04-09T14:41:04Z</time></trkpt><trkpt lat="44.0430202223271" lon="10.052510287554181"><ele>6.333333333333334</ele><time>2026-04-09T14:41:05Z</time></trkpt><trkpt lat="44.04313843820539" lon="10.052251698204707"><ele>6.666666666666667</ele><time>2026-04-09T14:41:06Z</time></trkpt><trkpt lat="44.04326148008977" lon="10.051997163168146"><ele>7.0</ele><time>2026-04-09T14:41:07Z</time></trkpt><trkpt lat="44.04339529458802" lon="10.051731121368094"><ele>6.0</ele><time>2026-04-09T14:41:08Z</time></trkpt><trkpt lat="44.04353665974539" lon="10.051453076175775"><ele>5.0</ele><time>2026-04-09T14:41:09Z</time></trkpt><trkpt lat="44.04368247404649" lon="10.051168938911628"><ele>5.0</ele><time>2026-04-09T14:41:10Z</time></trkpt><trkpt lat="44.04383399640932" lon="10.050877310510018"><ele>5.0</ele><time>2026-04-09T14:41:11Z</time></trkpt><trkpt lat="44.04399274068348" lon="10.05057780271865"><ele>5.0</ele><time>2026-04-09T14:41:12Z</time></trkpt><trkpt lat="44.044151531168104" lon="10.050272840376657"><ele>5.0</ele><time>2026-04-09T14:41:13Z</time></trkpt><trkpt lat="44.044319327203375" lon="10.049962606182604"><ele>4.5</ele><time>2026-04-09T14:41:14Z</time></trkpt><trkpt lat="44.04448280267781" lon="10.049657040484467"><ele>4.0</ele><time>2026-04-09T14:41:15Z</time></trkpt><trkpt lat="44.04463883464646" lon="10.049366707558713"><ele>4.0</ele><time>2026-04-09T14:41:16Z</time></trkpt><trkpt lat="44.044796729897286" lon="10.049067954627702"><ele>4.0</ele><time>2026-04-09T14:41:17Z</time></trkpt><trkpt lat="44.044956279510735" lon="10.048765964996848"><ele>4.5</ele><time>2026-04-09T14:41:18Z</time></trkpt><trkpt lat="44.04511953545602" lon="10.048460350446813"><ele>5.0</ele><time>2026-04-09T14:41:19Z</time></trkpt><trkpt lat="44.04528334036241" lon="10.0481533699428"><ele>5.0</ele><time>2026-04-09T14:41:20Z</time></trkpt><trkpt lat="44.04544734324743" lon="10.047843826619756"><ele>5.0</ele><time>2026-04-09T14:41:21Z</time></trkpt><trkpt lat="44.04560575354409" lon="10.047541917092023"><ele>4.5</ele><time>2026-04-09T14:41:22Z</time></trkpt><trkpt lat="44.045760056306186" lon="10.047247152419365"><ele>4.0</ele><time>2026-04-09T14:41:23Z</time></trkpt><trkpt lat="44.04591935113472" lon="10.04694599664363"><ele>4.0</ele><time>2026-04-09T14:41:24Z</time></trkpt><trkpt lat="44.0460820322413" lon="10.046641851838595"><ele>4.0</ele><time>2026-04-09T14:41:25Z</time></trkpt><trkpt lat="44.046247606536625" lon="10.046333851946025"><ele>4.0</ele><time>2026-04-09T14:41:26Z</time></trkpt><trkpt lat="44.04641303521723" lon="10.046020362519432"><ele>4.0</ele><time>2026-04-09T14:41:27Z</time></trkpt><trkpt lat="44.04658027116629" lon="10.045702836646425"><ele>4.5</ele><time>2026-04-09T14:41:28Z</time></trkpt><trkpt lat="44.04674862859893" lon="10.045383732104543"><ele>5.0</ele><time>2026-04-09T14:41:29Z</time></trkpt><trkpt lat="44.04691900101818" lon="10.045063582484431"><ele>4.0</ele><time>2026-04-09T14:41:30Z</time></trkpt><trkpt lat="44.047091117780965" lon="10.044738695710393"><ele>3.0</ele><time>2026-04-09T14:41:31Z</time></trkpt><trkpt lat="44.047265159769765" lon="10.044408942712918"><ele>3.5</ele><time>2026-04-09T14:41:32Z</time></trkpt><trkpt lat="44.047441934999874" lon="10.044076882089744"><ele>4.0</ele><time>2026-04-09T14:41:33Z</time></trkpt><trkpt lat="44.04761994232218" lon="10.043741886174264"><ele>4.5</ele><time>2026-04-09T14:41:33.999Z</time></trkpt><trkpt lat="44.0477991483896" lon="10.043401986399806"><ele>5.0</ele><time>2026-04-09T14:41:34.999Z</time></trkpt><trkpt lat="44.04798101722124" lon="10.043060732723399"><ele>5.5</ele><time>2026-04-09T14:41:35.999Z</time></trkpt><trkpt lat="44.04816384115824" lon="10.04271726807478"><ele>6.0</ele><time>2026-04-09T14:41:36.999Z</time></trkpt><trkpt lat="44.048349278140385" lon="10.042367518594858"><ele>5.0</ele><time>2026-04-09T14:41:37.999Z</time></trkpt><trkpt lat="44.04853591051648" lon="10.042014079183204"><ele>4.0</ele><time>2026-04-09T14:41:38.999Z</time></trkpt><trkpt lat="44.04872848848965" lon="10.041657848538463"><ele>3.5</ele><time>2026-04-09T14:41:39.999Z</time></trkpt><trkpt lat="44.048922234367645" lon="10.04129619108185"><ele>3.0</ele><time>2026-04-09T14:41:40.999Z</time></trkpt><trkpt lat="44.04911809277682" lon="10.04092824023942"><ele>2.0</ele><time>2026-04-09T14:41:41.999Z</time></trkpt><trkpt lat="44.049314830234" lon="10.04055783219826"><ele>1.0</ele><time>2026-04-09T14:41:42.999Z</time></trkpt><trkpt lat="44.049512762885996" lon="10.04018624886881"><ele>1.0</ele><time>2026-04-09T14:41:43.999Z</time></trkpt><trkpt lat="44.04971238943942" lon="10.039814552523268"><ele>1.0</ele><time>2026-04-09T14:41:44.999Z</time></trkpt><trkpt lat="44.04991190518165" lon="10.039444858067183"><ele>1.5</ele><time>2026-04-09T14:41:45.999Z</time></trkpt><trkpt lat="44.05011291205576" lon="10.039077341171103"><ele>2.0</ele><time>2026-04-09T14:41:46.999Z</time></trkpt><trkpt lat="44.050312098672876" lon="10.038708390656305"><ele>2.0</ele><time>2026-04-09T14:41:47.999Z</time></trkpt><trkpt lat="44.05051155341825" lon="10.038341094294159"><ele>2.0</ele><time>2026-04-09T14:41:48.999Z</time></trkpt><trkpt lat="44.050710426472484" lon="10.037974467129951"><ele>2.0</ele><time>2026-04-09T14:41:49.999Z</time></trkpt><trkpt lat="44.050907069903126" lon="10.037609079569577"><ele>2.0</ele><time>2026-04-09T14:41:50.999Z</time></trkpt><trkpt lat="44.05110144509771" lon="10.037243673587492"><ele>2.0</ele><time>2026-04-09T14:41:51.999Z</time></trkpt><trkpt lat="44.05128853277743" lon="10.036873827151963"><ele>2.0</ele><time>2026-04-09T14:41:52.999Z</time></trkpt><trkpt lat="44.05147593472525" lon="10.036505365500389"><ele>1.0</ele><time>2026-04-09T14:41:53.999Z</time></trkpt><trkpt lat="44.05165471803528" lon="10.036134091362266"><ele>0.0</ele><time>2026-04-09T14:41:54.999Z</time></trkpt><trkpt lat="44.05181482660039" lon="10.035789647032901"><ele>0.0</ele><time>2026-04-09T14:41:55.999Z</time></trkpt><trkpt lat="44.05196242374644" lon="10.035458888139036"><ele>0.0</ele><time>2026-04-09T14:41:56.999Z</time></trkpt><trkpt lat="44.05210039801388" lon="10.035138375440777"><ele>0.5</ele><time>2026-04-09T14:41:57.999Z</time></trkpt><trkpt lat="44.052237159046655" lon="10.034799484103848"><ele>1.0</ele><time>2026-04-09T14:41:58.999Z</time></trkpt><trkpt lat="44.05238161692106" lon="10.034440254517156"><ele>1.5</ele><time>2026-04-09T14:41:59.999Z</time></trkpt><trkpt lat="44.05252435336573" lon="10.034063013243626"><ele>2.0</ele><time>2026-04-09T14:42:00.999Z</time></trkpt><trkpt lat="44.05266825576028" lon="10.033672628065997"><ele>3.5</ele><time>2026-04-09T14:42:01.999Z</time></trkpt><trkpt lat="44.052808949144165" lon="10.033270233830207"><ele>5.0</ele><time>2026-04-09T14:42:02.999Z</time></trkpt><trkpt lat="44.05294610436276" lon="10.032856919799457"><ele>4.0</ele><time>2026-04-09T14:42:03.999Z</time></trkpt><trkpt lat="44.05307711705087" lon="10.032431479082575"><ele>3.0</ele><time>2026-04-09T14:42:04.999Z</time></trkpt><trkpt lat="44.053209827870354" lon="10.031997586974319"><ele>3.0</ele><time>2026-04-09T14:42:05.999Z</time></trkpt><trkpt lat="44.053339019399466" lon="10.031562286153807"><ele>3.0</ele><time>2026-04-09T14:42:06.999Z</time></trkpt><trkpt lat="44.05345808660561" lon="10.031148540478803"><ele>3.0</ele><time>2026-04-09T14:42:07.999Z</time></trkpt><trkpt lat="44.053567528727626" lon="10.030751392604795"><ele>3.0</ele><time>2026-04-09T14:42:08.999Z</time></trkpt><trkpt lat="44.053683532984564" lon="10.030361467760592"><ele>3.0</ele><time>2026-04-09T14:42:09.999Z</time></trkpt><trkpt lat="44.053800822067224" lon="10.029972421208539"><ele>3.0</ele><time>2026-04-09T14:42:10.999Z</time></trkpt><trkpt lat="44.0539174926103" lon="10.029584091179647"><ele>3.0</ele><time>2026-04-09T14:42:11.999Z</time></trkpt><trkpt lat="44.05402937345051" lon="10.029198345971569"><ele>3.0</ele><time>2026-04-09T14:42:12.999Z</time></trkpt><trkpt lat="44.05414001778436" lon="10.028811246769244"><ele>2.5</ele><time>2026-04-09T14:42:13.999Z</time></trkpt><trkpt lat="44.054252640946125" lon="10.028423049718707"><ele>2.0</ele><time>2026-04-09T14:42:14.999Z</time></trkpt><trkpt lat="44.05436722987099" lon="10.028030406921719"><ele>2.0</ele><time>2026-04-09T14:42:15.999Z</time></trkpt><trkpt lat="44.05448127150193" lon="10.027636047605714"><ele>2.0</ele><time>2026-04-09T14:42:16.999Z</time></trkpt><trkpt lat="44.054595925750284" lon="10.027239441323328"><ele>1.5</ele><time>2026-04-09T14:42:17.999Z</time></trkpt><trkpt lat="44.05471130557363" lon="10.026840617087238"><ele>1.0</ele><time>2026-04-09T14:42:18.999Z</time></trkpt><trkpt lat="44.05482718552457" lon="10.026442425884232"><ele>2.0</ele><time>2026-04-09T14:42:19.999Z</time></trkpt><trkpt lat="44.05494454201653" lon="10.026040944015076"><ele>3.0</ele><time>2026-04-09T14:42:21Z</time></trkpt><trkpt lat="44.055061065770104" lon="10.025638843544598"><ele>3.0</ele><time>2026-04-09T14:42:22Z</time></trkpt><trkpt lat="44.05517734803024" lon="10.025241490058775"><ele>3.0</ele><time>2026-04-09T14:42:23Z</time></trkpt><trkpt lat="44.05528652897943" lon="10.024872037616253"><ele>3.0</ele><time>2026-04-09T14:42:24Z</time></trkpt><trkpt lat="44.055389927545534" lon="10.024519378142823"><ele>3.0</ele><time>2026-04-09T14:42:25Z</time></trkpt><trkpt lat="44.055494584866736" lon="10.024160858678782"><ele>2.0</ele><time>2026-04-09T14:42:26Z</time></trkpt><trkpt lat="44.05559822866586" lon="10.023802683427759"><ele>1.0</ele><time>2026-04-09T14:42:27Z</time></trkpt><trkpt lat="44.055700587999645" lon="10.023446316563104"><ele>1.5</ele><time>2026-04-09T14:42:28Z</time></trkpt><trkpt lat="44.05580305764915" lon="10.02309005095862"><ele>2.0</ele><time>2026-04-09T14:42:29Z</time></trkpt><trkpt lat="44.055905358265015" lon="10.022737163714282"><ele>1.5</ele><time>2026-04-09T14:42:30Z</time></trkpt><trkpt lat="44.056005577174254" lon="10.022387294253122"><ele>1.0</ele><time>2026-04-09T14:42:31Z</time></trkpt><trkpt lat="44.05610514049285" lon="10.022043974069271"><ele>1.0</ele><time>2026-04-09T14:42:32Z</time></trkpt><trkpt lat="44.05620156892282" lon="10.021719850764978"><ele>1.0</ele><time>2026-04-09T14:42:33Z</time></trkpt><trkpt lat="44.05629824998593" lon="10.02139350781966"><ele>1.0</ele><time>2026-04-09T14:42:34Z</time></trkpt><trkpt lat="44.05639687906669" lon="10.021057434654756"><ele>1.0</ele><time>2026-04-09T14:42:35Z</time></trkpt><trkpt lat="44.05649502837764" lon="10.020716396676034"><ele>1.0</ele><time>2026-04-09T14:42:36Z</time></trkpt><trkpt lat="44.05659463877885" lon="10.020370414335323"><ele>1.0</ele><time>2026-04-09T14:42:37Z</time></trkpt><trkpt lat="44.0566970122014" lon="10.020014375900255"><ele>1.0</ele><time>2026-04-09T14:42:38Z</time></trkpt><trkpt lat="44.05680423703088" lon="10.019642279286224"><ele>1.0</ele><time>2026-04-09T14:42:39Z</time></trkpt><trkpt lat="44.0569082462658" lon="10.019285061333193"><ele>0.5</ele><time>2026-04-09T14:42:40Z</time></trkpt><trkpt lat="44.05700989625246" lon="10.018936093723696"><ele>0.0</ele><time>2026-04-09T14:42:41Z</time></trkpt><trkpt lat="44.057112193232896" lon="10.018583637718255"><ele>0.5</ele><time>2026-04-09T14:42:42Z</time></trkpt><trkpt lat="44.057216399276015" lon="10.018231317569718"><ele>1.0</ele><time>2026-04-09T14:42:43Z</time></trkpt><trkpt lat="44.05731297400305" lon="10.017898610266991"><ele>1.0</ele><time>2026-04-09T14:42:44Z</time></trkpt><trkpt lat="44.05740811553588" lon="10.017570818976147"><ele>1.0</ele><time>2026-04-09T14:42:45Z</time></trkpt><trkpt lat="44.05750504403342" lon="10.017240614027253"><ele>1.0</ele><time>2026-04-09T14:42:46Z</time></trkpt><trkpt lat="44.05760274668393" lon="10.016905025821702"><ele>1.0</ele><time>2026-04-09T14:42:47Z</time></trkpt><trkpt lat="44.05770093184955" lon="10.016562805461254"><ele>1.5</ele><time>2026-04-09T14:42:48Z</time></trkpt><trkpt lat="44.05780241820028" lon="10.016211055091638"><ele>2.0</ele><time>2026-04-09T14:42:49Z</time></trkpt><trkpt lat="44.05790759757666" lon="10.015851290336913"><ele>1.5</ele><time>2026-04-09T14:42:50Z</time></trkpt><trkpt lat="44.058015383714675" lon="10.01548432284197"><ele>1.0</ele><time>2026-04-09T14:42:51Z</time></trkpt><trkpt lat="44.058124323916914" lon="10.015111442436119"><ele>0.5</ele><time>2026-04-09T14:42:52Z</time></trkpt><trkpt lat="44.05823585633754" lon="10.014732131513059"><ele>0.0</ele><time>2026-04-09T14:42:53Z</time></trkpt><trkpt lat="44.05834908252031" lon="10.014345817954506"><ele>1.0</ele><time>2026-04-09T14:42:54Z</time></trkpt><trkpt lat="44.05846276992838" lon="10.013954906429245"><ele>2.0</ele><time>2026-04-09T14:42:55Z</time></trkpt><trkpt lat="44.05857989056093" lon="10.013564100296126"><ele>0.5</ele><time>2026-04-09T14:42:56Z</time></trkpt><trkpt lat="44.05869644890943" lon="10.01317916859791"><ele>-1.0</ele><time>2026-04-09T14:42:57Z</time></trkpt><trkpt lat="44.05880945363957" lon="10.012821314842885"><ele>-0.5</ele><time>2026-04-09T14:42:58Z</time></trkpt><trkpt lat="44.05892894868793" lon="10.012469006940515"><ele>0.0</ele><time>2026-04-09T14:42:59Z</time></trkpt><trkpt lat="44.059053329977125" lon="10.012116793465372"><ele>1.5</ele><time>2026-04-09T14:43:00Z</time></trkpt><trkpt lat="44.05918264502231" lon="10.011763245454325"><ele>3.0</ele><time>2026-04-09T14:43:01Z</time></trkpt><trkpt lat="44.059318295712565" lon="10.01140458790141"><ele>3.5</ele><time>2026-04-09T14:43:02Z</time></trkpt><trkpt lat="44.05945794549987" lon="10.011044497178794"><ele>4.0</ele><time>2026-04-09T14:43:03Z</time></trkpt><trkpt lat="44.059606196900916" lon="10.010683928355688"><ele>4.0</ele><time>2026-04-09T14:43:04Z</time></trkpt><trkpt lat="44.05975981228572" lon="10.010322892641838"><ele>4.0</ele><time>2026-04-09T14:43:05Z</time></trkpt><trkpt lat="44.05992234855567" lon="10.009954920910133"><ele>3.0</ele><time>2026-04-09T14:43:06Z</time></trkpt><trkpt lat="44.06009159461314" lon="10.009590828609348"><ele>2.0</ele><time>2026-04-09T14:43:07Z</time></trkpt><trkpt lat="44.06026666772359" lon="10.009227118622226"><ele>3.0</ele><time>2026-04-09T14:43:08Z</time></trkpt><trkpt lat="44.06044666284058" lon="10.008861316935203"><ele>4.0</ele><time>2026-04-09T14:43:09Z</time></trkpt><trkpt lat="44.06063249941509" lon="10.008498840361927"><ele>4.0</ele><time>2026-04-09T14:43:10Z</time></trkpt><trkpt lat="44.060825165353485" lon="10.0081386525591"><ele>4.0</ele><time>2026-04-09T14:43:11Z</time></trkpt><trkpt lat="44.06102403547169" lon="10.007780917242194"><ele>4.0</ele><time>2026-04-09T14:43:12Z</time></trkpt><trkpt lat="44.06122791180247" lon="10.007427575372814"><ele>4.0</ele><time>2026-04-09T14:43:13Z</time></trkpt><trkpt lat="44.061434505336095" lon="10.007079975000488"><ele>3.5</ele><time>2026-04-09T14:43:14Z</time></trkpt><trkpt lat="44.06164455601472" lon="10.006733276579373"><ele>3.0</ele><time>2026-04-09T14:43:15Z</time></trkpt><trkpt lat="44.06185285544927" lon="10.006382247702744"><ele>3.0</ele><time>2026-04-09T14:43:16Z</time></trkpt><trkpt lat="44.062060374732845" lon="10.00603284831001"><ele>3.0</ele><time>2026-04-09T14:43:17Z</time></trkpt><trkpt lat="44.06227045028078" lon="10.005685619288212"><ele>2.0</ele><time>2026-04-09T14:43:18Z</time></trkpt><trkpt lat="44.06248436173338" lon="10.005345617207825"><ele>1.0</ele><time>2026-04-09T14:43:19Z</time></trkpt><trkpt lat="44.06270100732673" lon="10.005010578942288"><ele>1.0</ele><time>2026-04-09T14:43:20Z</time></trkpt><trkpt lat="44.06291432884486" lon="10.004671648238517"><ele>1.0</ele><time>2026-04-09T14:43:21Z</time></trkpt><trkpt lat="44.063126235873604" lon="10.004331849581462"><ele>0.5</ele><time>2026-04-09T14:43:22Z</time></trkpt><trkpt lat="44.06333602255914" lon="10.003989997695868"><ele>0.0</ele><time>2026-04-09T14:43:23Z</time></trkpt><trkpt lat="44.06354284402042" lon="10.00365077458792"><ele>-0.5</ele><time>2026-04-09T14:43:24Z</time></trkpt><trkpt lat="44.06374927517451" lon="10.003312520853362"><ele>-1.0</ele><time>2026-04-09T14:43:25Z</time></trkpt><trkpt lat="44.06395387049686" lon="10.002974394656873"><ele>0.0</ele><time>2026-04-09T14:43:26Z</time></trkpt><trkpt lat="44.06415927083369" lon="10.002637318209027"><ele>1.0</ele><time>2026-04-09T14:43:27Z</time></trkpt><trkpt lat="44.064363901931706" lon="10.002300152770719"><ele>1.0</ele><time>2026-04-09T14:43:28Z</time></trkpt><trkpt lat="44.064567482974915" lon="10.001961692665535"><ele>1.0</ele><time>2026-04-09T14:43:29Z</time></trkpt><trkpt lat="44.06477115032823" lon="10.001625552008536"><ele>1.0</ele><time>2026-04-09T14:43:30Z</time></trkpt><trkpt lat="44.064974385052345" lon="10.001293280064699"><ele>1.0</ele><time>2026-04-09T14:43:31Z</time></trkpt><trkpt lat="44.06517560586429" lon="10.000959979937837"><ele>0.5</ele><time>2026-04-09T14:43:32Z</time></trkpt><trkpt lat="44.06537663918908" lon="10.000627549639612"><ele>0.0</ele><time>2026-04-09T14:43:33Z</time></trkpt><trkpt lat="44.06557703601202" lon="10.00029781548482"><ele>0.0</ele><time>2026-04-09T14:43:34Z</time></trkpt><trkpt lat="44.065776588397476" lon="9.999966882990565"><ele>0.0</ele><time>2026-04-09T14:43:35Z</time></trkpt><trkpt lat="44.06597277422923" lon="9.999643888973566"><ele>1.0</ele><time>2026-04-09T14:43:35.999Z</time></trkpt><trkpt lat="44.06615946325469" lon="9.999342231228924"><ele>2.0</ele><time>2026-04-09T14:43:36.999Z</time></trkpt><trkpt lat="44.0663347320942" lon="9.999055774170545"><ele>2.0</ele><time>2026-04-09T14:43:37.999Z</time></trkpt><trkpt lat="44.06649861584027" lon="9.998788319957919"><ele>2.0</ele><time>2026-04-09T14:43:38.999Z</time></trkpt><trkpt lat="44.0666543394782" lon="9.99853192097675"><ele>3.0</ele><time>2026-04-09T14:43:39.999Z</time></trkpt><trkpt lat="44.06681247740639" lon="9.99826066489211"><ele>4.0</ele><time>2026-04-09T14:43:40.999Z</time></trkpt><trkpt lat="44.0669772684974" lon="9.997973004182722"><ele>4.0</ele><time>2026-04-09T14:43:41.999Z</time></trkpt><trkpt lat="44.06714957819615" lon="9.997672918491594"><ele>4.0</ele><time>2026-04-09T14:43:42.999Z</time></trkpt><trkpt lat="44.067332530336024" lon="9.997365040506375"><ele>3.0</ele><time>2026-04-09T14:43:43.999Z</time></trkpt><trkpt lat="44.06752753768081" lon="9.997051524690441"><ele>2.0</ele><time>2026-04-09T14:43:44.999Z</time></trkpt><trkpt lat="44.06772101194676" lon="9.996731993143714"><ele>1.5</ele><time>2026-04-09T14:43:45.999Z</time></trkpt><trkpt lat="44.067910002651345" lon="9.996416830699241"><ele>1.0</ele><time>2026-04-09T14:43:46.999Z</time></trkpt><trkpt lat="44.06810255914498" lon="9.996094353615453"><ele>2.0</ele><time>2026-04-09T14:43:47.999Z</time></trkpt><trkpt lat="44.068299147586714" lon="9.99576927741044"><ele>3.0</ele><time>2026-04-09T14:43:48.999Z</time></trkpt><trkpt lat="44.068498709966825" lon="9.995441557100666"><ele>3.0</ele><time>2026-04-09T14:43:49.999Z</time></trkpt><trkpt lat="44.06869953587615" lon="9.995113093565248"><ele>3.0</ele><time>2026-04-09T14:43:50.999Z</time></trkpt><trkpt lat="44.06890030652" lon="9.994780149787946"><ele>2.5</ele><time>2026-04-09T14:43:51.999Z</time></trkpt><trkpt lat="44.069103000390044" lon="9.994445497146978"><ele>2.0</ele><time>2026-04-09T14:43:52.999Z</time></trkpt><trkpt lat="44.06930624197851" lon="9.994109849098649"><ele>2.0</ele><time>2026-04-09T14:43:53.999Z</time></trkpt><trkpt lat="44.06951105026403" lon="9.99377340720677"><ele>2.0</ele><time>2026-04-09T14:43:54.999Z</time></trkpt><trkpt lat="44.069716364201774" lon="9.993438749368497"><ele>2.0</ele><time>2026-04-09T14:43:55.999Z</time></trkpt><trkpt lat="44.069921312585755" lon="9.993102041972538"><ele>2.0</ele><time>2026-04-09T14:43:56.999Z</time></trkpt><trkpt lat="44.07012257505809" lon="9.99276577824657"><ele>2.0</ele><time>2026-04-09T14:43:57.999Z</time></trkpt><trkpt lat="44.07031236210705" lon="9.992451091939468"><ele>2.0</ele><time>2026-04-09T14:43:58.999Z</time></trkpt><trkpt lat="44.070504540544235" lon="9.99213445589136"><ele>2.0</ele><time>2026-04-09T14:43:59.999Z</time></trkpt><trkpt lat="44.07069291320205" lon="9.991826470982133"><ele>2.0</ele><time>2026-04-09T14:44:00.999Z</time></trkpt><trkpt lat="44.07087087977491" lon="9.991532733263224"><ele>2.0</ele><time>2026-04-09T14:44:01.999Z</time></trkpt><trkpt lat="44.07105271499298" lon="9.991235619032938"><ele>2.0</ele><time>2026-04-09T14:44:02.999Z</time></trkpt><trkpt lat="44.07123649310526" lon="9.990938668830774"><ele>2.5</ele><time>2026-04-09T14:44:03.999Z</time></trkpt><trkpt lat="44.071423098759205" lon="9.990638122749777"><ele>3.0</ele><time>2026-04-09T14:44:04.999Z</time></trkpt><trkpt lat="44.07160080213301" lon="9.990360050213798"><ele>2.5</ele><time>2026-04-09T14:44:05.999Z</time></trkpt><trkpt lat="44.07177012308978" lon="9.990098460794291"><ele>2.0</ele><time>2026-04-09T14:44:06.999Z</time></trkpt><trkpt lat="44.071932212391125" lon="9.989841114972522"><ele>1.5</ele><time>2026-04-09T14:44:07.999Z</time></trkpt><trkpt lat="44.07209245505461" lon="9.9895751227633"><ele>1.0</ele><time>2026-04-09T14:44:08.999Z</time></trkpt><trkpt lat="44.072253374366284" lon="9.9893062030277"><ele>1.5</ele><time>2026-04-09T14:44:09.999Z</time></trkpt><trkpt lat="44.07241807142369" lon="9.989029494359615"><ele>2.0</ele><time>2026-04-09T14:44:10.999Z</time></trkpt><trkpt lat="44.07258609383987" lon="9.988746156629363"><ele>2.5</ele><time>2026-04-09T14:44:11.999Z</time></trkpt><trkpt lat="44.072755621248405" lon="9.988455380642645"><ele>3.0</ele><time>2026-04-09T14:44:12.999Z</time></trkpt><trkpt lat="44.07292803419799" lon="9.98815957272941"><ele>3.0</ele><time>2026-04-09T14:44:13.999Z</time></trkpt><trkpt lat="44.073104960292156" lon="9.987862066526867"><ele>3.0</ele><time>2026-04-09T14:44:14.999Z</time></trkpt><trkpt lat="44.07328904744151" lon="9.987557792527207"><ele>2.5</ele><time>2026-04-09T14:44:15.999Z</time></trkpt><trkpt lat="44.07347542994798" lon="9.987247384411328"><ele>2.0</ele><time>2026-04-09T14:44:16.999Z</time></trkpt><trkpt lat="44.07366421419279" lon="9.9869298022424"><ele>2.0</ele><time>2026-04-09T14:44:17.999Z</time></trkpt><trkpt lat="44.07385706333623" lon="9.986609885343835"><ele>2.0</ele><time>2026-04-09T14:44:18.999Z</time></trkpt><trkpt lat="44.074052864680226" lon="9.986287280001322"><ele>1.5</ele><time>2026-04-09T14:44:19.999Z</time></trkpt><trkpt lat="44.07424949861408" lon="9.98596130041682"><ele>1.0</ele><time>2026-04-09T14:44:20.999Z</time></trkpt><trkpt lat="44.074446004777855" lon="9.985633634994072"><ele>2.0</ele><time>2026-04-09T14:44:21.999Z</time></trkpt><trkpt lat="44.07464228343239" lon="9.9853095255852"><ele>3.0</ele><time>2026-04-09T14:44:22.999Z</time></trkpt><trkpt lat="44.07482619171566" lon="9.985005685846362"><ele>2.5</ele><time>2026-04-09T14:44:23.999Z</time></trkpt><trkpt lat="44.07500904696813" lon="9.984711226394158"><ele>2.0</ele><time>2026-04-09T14:44:24.999Z</time></trkpt><trkpt lat="44.07518233139969" lon="9.984427561326665"><ele>2.5</ele><time>2026-04-09T14:44:25.999Z</time></trkpt><trkpt lat="44.075347451751135" lon="9.984156226775111"><ele>3.0</ele><time>2026-04-09T14:44:27Z</time></trkpt><trkpt lat="44.07550896493558" lon="9.983898985083071"><ele>3.0</ele><time>2026-04-09T14:44:28Z</time></trkpt><trkpt lat="44.07567771279576" lon="9.983644519039517"><ele>3.0</ele><time>2026-04-09T14:44:29Z</time></trkpt><trkpt lat="44.075846899203114" lon="9.983403176501783"><ele>3.0</ele><time>2026-04-09T14:44:30Z</time></trkpt><trkpt lat="44.07601901207102" lon="9.983156192736741"><ele>3.0</ele><time>2026-04-09T14:44:31Z</time></trkpt><trkpt lat="44.07619249285603" lon="9.982911387723982"><ele>3.0</ele><time>2026-04-09T14:44:32Z</time></trkpt><trkpt lat="44.07636644529354" lon="9.982664724844314"><ele>3.0</ele><time>2026-04-09T14:44:33Z</time></trkpt><trkpt lat="44.0765444075822" lon="9.982416012823366"><ele>3.0</ele><time>2026-04-09T14:44:34Z</time></trkpt><trkpt lat="44.076727335566424" lon="9.982167655138896"><ele>3.0</ele><time>2026-04-09T14:44:35Z</time></trkpt><trkpt lat="44.07691364173106" lon="9.981921935942294"><ele>3.5</ele><time>2026-04-09T14:44:36Z</time></trkpt><trkpt lat="44.07710591186039" lon="9.981680977304691"><ele>4.0</ele><time>2026-04-09T14:44:37Z</time></trkpt><trkpt lat="44.07729514569586" lon="9.981444725950984"><ele>3.5</ele><time>2026-04-09T14:44:38Z</time></trkpt><trkpt lat="44.07747786748976" lon="9.98122655253305"><ele>3.0</ele><time>2026-04-09T14:44:39Z</time></trkpt><trkpt lat="44.07765975479853" lon="9.981015607138035"><ele>3.0</ele><time>2026-04-09T14:44:40Z</time></trkpt><trkpt lat="44.07784870597969" lon="9.980807600445253"><ele>3.0</ele><time>2026-04-09T14:44:41Z</time></trkpt><trkpt lat="44.07803903884594" lon="9.980592984591386"><ele>3.0</ele><time>2026-04-09T14:44:42Z</time></trkpt><trkpt lat="44.07823480150288" lon="9.980367887749763"><ele>3.0</ele><time>2026-04-09T14:44:43Z</time></trkpt><trkpt lat="44.07843335517826" lon="9.98014432617292"><ele>2.0</ele><time>2026-04-09T14:44:44Z</time></trkpt><trkpt lat="44.07864594999919" lon="9.979920149191532"><ele>1.0</ele><time>2026-04-09T14:44:45Z</time></trkpt><trkpt lat="44.07886539062978" lon="9.979700329486286"><ele>1.0</ele><time>2026-04-09T14:44:46Z</time></trkpt><trkpt lat="44.07909418206129" lon="9.979478170871989"><ele>1.0</ele><time>2026-04-09T14:44:47Z</time></trkpt><trkpt lat="44.07933281899666" lon="9.979259105854968"><ele>1.5</ele><time>2026-04-09T14:44:48Z</time></trkpt><trkpt lat="44.079577321045676" lon="9.979040980908287"><ele>2.0</ele><time>2026-04-09T14:44:49Z</time></trkpt><trkpt lat="44.07983087074456" lon="9.978822799679076"><ele>2.5</ele><time>2026-04-09T14:44:50Z</time></trkpt><trkpt lat="44.08009163116961" lon="9.978608251685221"><ele>3.0</ele><time>2026-04-09T14:44:51Z</time></trkpt><trkpt lat="44.08035632147786" lon="9.978398266627355"><ele>3.0</ele><time>2026-04-09T14:44:52Z</time></trkpt><trkpt lat="44.080625635675034" lon="9.97819172880103"><ele>3.0</ele><time>2026-04-09T14:44:53Z</time></trkpt><trkpt lat="44.0808993024742" lon="9.9779842155992"><ele>3.0</ele><time>2026-04-09T14:44:54Z</time></trkpt><trkpt lat="44.081172811368326" lon="9.977768819424819"><ele>3.0</ele><time>2026-04-09T14:44:55Z</time></trkpt><trkpt lat="44.081447698571765" lon="9.97755238544066"><ele>2.5</ele><time>2026-04-09T14:44:56Z</time></trkpt><trkpt lat="44.08172296202458" lon="9.97733406302334"><ele>2.0</ele><time>2026-04-09T14:44:57Z</time></trkpt><trkpt lat="44.08199996795764" lon="9.977115371359483"><ele>2.0</ele><time>2026-04-09T14:44:58Z</time></trkpt><trkpt lat="44.082278955673665" lon="9.976892658405328"><ele>2.0</ele><time>2026-04-09T14:44:59Z</time></trkpt><trkpt lat="44.082558614172186" lon="9.976669409526984"><ele>2.5</ele><time>2026-04-09T14:45:00Z</time></trkpt><trkpt lat="44.082838831013945" lon="9.976448991119629"><ele>3.0</ele><time>2026-04-09T14:45:01Z</time></trkpt><trkpt lat="44.08311632926229" lon="9.976225279885078"><ele>3.0</ele><time>2026-04-09T14:45:02Z</time></trkpt><trkpt lat="44.083396474720104" lon="9.976005371883545"><ele>3.0</ele><time>2026-04-09T14:45:03Z</time></trkpt><trkpt lat="44.083677769759994" lon="9.975783112867864"><ele>3.5</ele><time>2026-04-09T14:45:04Z</time></trkpt><trkpt lat="44.083961406296915" lon="9.975562778236439"><ele>4.0</ele><time>2026-04-09T14:45:05Z</time></trkpt><trkpt lat="44.084243520879646" lon="9.97534226876682"><ele>3.5</ele><time>2026-04-09T14:45:06Z</time></trkpt><trkpt lat="44.084526502649126" lon="9.975118064169058"><ele>3.0</ele><time>2026-04-09T14:45:07Z</time></trkpt><trkpt lat="44.08480814886873" lon="9.974896019809197"><ele>3.0</ele><time>2026-04-09T14:45:08Z</time></trkpt><trkpt lat="44.08508837089249" lon="9.974675791434095"><ele>3.0</ele><time>2026-04-09T14:45:09Z</time></trkpt><trkpt lat="44.08536865957714" lon="9.974456065608923"><ele>3.0</ele><time>2026-04-09T14:45:10Z</time></trkpt><trkpt lat="44.085653905340315" lon="9.97422855533828"><ele>3.0</ele><time>2026-04-09T14:45:11Z</time></trkpt><trkpt lat="44.085940372144876" lon="9.974001412226738"><ele>2.0</ele><time>2026-04-09T14:45:12Z</time></trkpt><trkpt lat="44.086227033886274" lon="9.97377472279189"><ele>1.0</ele><time>2026-04-09T14:45:13Z</time></trkpt><trkpt lat="44.08651574019626" lon="9.973547947260805"><ele>2.5</ele><time>2026-04-09T14:45:14Z</time></trkpt><trkpt lat="44.086803969522464" lon="9.97332111424204"><ele>4.0</ele><time>2026-04-09T14:45:15Z</time></trkpt><trkpt lat="44.087092099609634" lon="9.973093610107362"><ele>4.0</ele><time>2026-04-09T14:45:16Z</time></trkpt><trkpt lat="44.08738042964795" lon="9.97286548717488"><ele>4.0</ele><time>2026-04-09T14:45:17Z</time></trkpt><trkpt lat="44.087668616655094" lon="9.972636128351565"><ele>4.0</ele><time>2026-04-09T14:45:18Z</time></trkpt><trkpt lat="44.087955031396625" lon="9.97240289949671"><ele>4.0</ele><time>2026-04-09T14:45:19Z</time></trkpt><trkpt lat="44.08824084966758" lon="9.972171478578689"><ele>5.0</ele><time>2026-04-09T14:45:20Z</time></trkpt><trkpt lat="44.088527268592216" lon="9.971941816023767"><ele>6.0</ele><time>2026-04-09T14:45:21Z</time></trkpt><trkpt lat="44.08879285520001" lon="9.971726504660507"><ele>6.0</ele><time>2026-04-09T14:45:22Z</time></trkpt><trkpt lat="44.08904248581538" lon="9.971512333660375"><ele>6.0</ele><time>2026-04-09T14:45:23Z</time></trkpt><trkpt lat="44.08928741749306" lon="9.971300555424405"><ele>6.0</ele><time>2026-04-09T14:45:24Z</time></trkpt><trkpt lat="44.08952080542002" lon="9.971095145474198"><ele>6.0</ele><time>2026-04-09T14:45:25Z</time></trkpt><trkpt lat="44.08973976386256" lon="9.9708965111411"><ele>6.0</ele><time>2026-04-09T14:45:26Z</time></trkpt><trkpt lat="44.08996046050235" lon="9.970692592050383"><ele>6.0</ele><time>2026-04-09T14:45:27Z</time></trkpt><trkpt lat="44.090179989770505" lon="9.970480515814616"><ele>6.0</ele><time>2026-04-09T14:45:28Z</time></trkpt><trkpt lat="44.09040081996492" lon="9.970264263840326"><ele>6.0</ele><time>2026-04-09T14:45:29Z</time></trkpt><trkpt lat="44.09062425653237" lon="9.970040224674703"><ele>5.0</ele><time>2026-04-09T14:45:30Z</time></trkpt><trkpt lat="44.09083612084082" lon="9.96982388197004"><ele>4.0</ele><time>2026-04-09T14:45:31Z</time></trkpt><trkpt lat="44.09103704795824" lon="9.969618250805675"><ele>4.0</ele><time>2026-04-09T14:45:32Z</time></trkpt><trkpt lat="44.091228297026014" lon="9.969420665411917"><ele>4.0</ele><time>2026-04-09T14:45:33Z</time></trkpt><trkpt lat="44.09140629099338" lon="9.969231757707703"><ele>3.6666666666666665</ele><time>2026-04-09T14:45:34Z</time></trkpt><trkpt lat="44.091574982631954" lon="9.969048956936978"><ele>3.333333333333333</ele><time>2026-04-09T14:45:35Z</time></trkpt><trkpt lat="44.091742975930586" lon="9.968862873741388"><ele>3.0</ele><time>2026-04-09T14:45:36Z</time></trkpt><trkpt lat="44.09191045316005" lon="9.968669761163317"><ele>3.0</ele><time>2026-04-09T14:45:37Z</time></trkpt><trkpt lat="44.09207990218414" lon="9.968472872092008"><ele>3.0</ele><time>2026-04-09T14:45:38Z</time></trkpt><trkpt lat="44.09225629957518" lon="9.968266253528279"><ele>3.0</ele><time>2026-04-09T14:45:39Z</time></trkpt><trkpt lat="44.092437528486094" lon="9.968052736606243"><ele>3.0</ele><time>2026-04-09T14:45:40Z</time></trkpt><trkpt lat="44.092622365728396" lon="9.967828373816326"><ele>3.0</ele><time>2026-04-09T14:45:41Z</time></trkpt><trkpt lat="44.092815772163625" lon="9.967591597702857"><ele>3.0</ele><time>2026-04-09T14:45:41.999Z</time></trkpt><trkpt lat="44.09299207222918" lon="9.96737262650483"><ele>3.333333333333333</ele><time>2026-04-09T14:45:42.999Z</time></trkpt><trkpt lat="44.09315895321717" lon="9.967161046701811"><ele>3.6666666666666665</ele><time>2026-04-09T14:45:43.999Z</time></trkpt><trkpt lat="44.09331519953287" lon="9.966957387333366"><ele>4.0</ele><time>2026-04-09T14:45:44.999Z</time></trkpt><trkpt lat="44.093472554437774" lon="9.966755155362256"><ele>4.5</ele><time>2026-04-09T14:45:45.999Z</time></trkpt><trkpt lat="44.0936352628172" lon="9.966537084339654"><ele>5.0</ele><time>2026-04-09T14:45:46.999Z</time></trkpt><trkpt lat="44.09380297391912" lon="9.966304840305519"><ele>5.0</ele><time>2026-04-09T14:45:47.999Z</time></trkpt><trkpt lat="44.09397593499155" lon="9.96606165697652"><ele>5.0</ele><time>2026-04-09T14:45:48.999Z</time></trkpt><trkpt lat="44.09413445140357" lon="9.965837816887987"><ele>5.0</ele><time>2026-04-09T14:45:49.999Z</time></trkpt><trkpt lat="44.09428721874517" lon="9.965619089187026"><ele>5.0</ele><time>2026-04-09T14:45:50.999Z</time></trkpt><trkpt lat="44.09444367339009" lon="9.96539612963529"><ele>5.0</ele><time>2026-04-09T14:45:51.999Z</time></trkpt><trkpt lat="44.09460001916829" lon="9.965167935730003"><ele>5.5</ele><time>2026-04-09T14:45:52.999Z</time></trkpt><trkpt lat="44.09475664166838" lon="9.964930002167721"><ele>6.0</ele><time>2026-04-09T14:45:53.999Z</time></trkpt><trkpt lat="44.094910807121124" lon="9.964690114110295"><ele>5.0</ele><time>2026-04-09T14:45:54.999Z</time></trkpt><trkpt lat="44.09506701969571" lon="9.964452728398376"><ele>4.0</ele><time>2026-04-09T14:45:55.999Z</time></trkpt><trkpt lat="44.095223289605585" lon="9.96420050067516"><ele>4.5</ele><time>2026-04-09T14:45:56.999Z</time></trkpt><trkpt lat="44.095384510976324" lon="9.963936897088672"><ele>5.0</ele><time>2026-04-09T14:45:57.999Z</time></trkpt><trkpt lat="44.09554664038011" lon="9.963666302434584"><ele>5.0</ele><time>2026-04-09T14:45:58.999Z</time></trkpt><trkpt lat="44.095709765138245" lon="9.963387852170268"><ele>5.0</ele><time>2026-04-09T14:45:59.999Z</time></trkpt><trkpt lat="44.09586983000039" lon="9.963109528525226"><ele>5.0</ele><time>2026-04-09T14:46:00.999Z</time></trkpt><trkpt lat="44.09602095421123" lon="9.96284440217982"><ele>5.0</ele><time>2026-04-09T14:46:01.999Z</time></trkpt><trkpt lat="44.09616408105554" lon="9.962596137070166"><ele>5.333333333333334</ele><time>2026-04-09T14:46:02.999Z</time></trkpt><trkpt lat="44.09630092422263" lon="9.962349634172217"><ele>5.666666666666667</ele><time>2026-04-09T14:46:03.999Z</time></trkpt><trkpt lat="44.09643617026025" lon="9.962103065438543"><ele>6.0</ele><time>2026-04-09T14:46:04.999Z</time></trkpt><trkpt lat="44.09657272644966" lon="9.961852164229247"><ele>5.5</ele><time>2026-04-09T14:46:05.999Z</time></trkpt><trkpt lat="44.09670860613972" lon="9.96159182325651"><ele>5.0</ele><time>2026-04-09T14:46:06.999Z</time></trkpt><trkpt lat="44.096847882113494" lon="9.961316442093926"><ele>5.0</ele><time>2026-04-09T14:46:07.999Z</time></trkpt><trkpt lat="44.09699130477529" lon="9.96103346326434"><ele>5.0</ele><time>2026-04-09T14:46:08.999Z</time></trkpt><trkpt lat="44.09713716700957" lon="9.960742635765989"><ele>5.0</ele><time>2026-04-09T14:46:09.999Z</time></trkpt><trkpt lat="44.097282891984186" lon="9.960443070223246"><ele>5.0</ele><time>2026-04-09T14:46:10.999Z</time></trkpt><trkpt lat="44.09743078821975" lon="9.960137550572982"><ele>4.5</ele><time>2026-04-09T14:46:11.999Z</time></trkpt><trkpt lat="44.097583384738165" lon="9.959829210816547"><ele>4.0</ele><time>2026-04-09T14:46:12.999Z</time></trkpt><trkpt lat="44.097738676114034" lon="9.959520370782837"><ele>4.0</ele><time>2026-04-09T14:46:13.999Z</time></trkpt><trkpt lat="44.09789546557829" lon="9.959206830641012"><ele>4.0</ele><time>2026-04-09T14:46:14.999Z</time></trkpt><trkpt lat="44.098052517687364" lon="9.958889187661667"><ele>3.5</ele><time>2026-04-09T14:46:15.999Z</time></trkpt><trkpt lat="44.09820930277047" lon="9.958567318073086"><ele>3.0</ele><time>2026-04-09T14:46:16.999Z</time></trkpt><trkpt lat="44.09836657178526" lon="9.958243223503361"><ele>4.0</ele><time>2026-04-09T14:46:17.999Z</time></trkpt><trkpt lat="44.09852400771506" lon="9.957915147264707"><ele>5.0</ele><time>2026-04-09T14:46:18.999Z</time></trkpt><trkpt lat="44.098683873478116" lon="9.957587041697309"><ele>4.5</ele><time>2026-04-09T14:46:19.999Z</time></trkpt><trkpt lat="44.09884144270969" lon="9.957262742107135"><ele>4.0</ele><time>2026-04-09T14:46:20.999Z</time></trkpt><trkpt lat="44.09899569496345" lon="9.956948542650519"><ele>4.0</ele><time>2026-04-09T14:46:21.999Z</time></trkpt><trkpt lat="44.09914989833733" lon="9.95663580174012"><ele>4.0</ele><time>2026-04-09T14:46:22.999Z</time></trkpt><trkpt lat="44.09930912354631" lon="9.956325213045382"><ele>4.0</ele><time>2026-04-09T14:46:23.999Z</time></trkpt><trkpt lat="44.09946407912882" lon="9.956011775797514"><ele>4.0</ele><time>2026-04-09T14:46:24.999Z</time></trkpt><trkpt lat="44.099620833075335" lon="9.955701341154013"><ele>4.5</ele><time>2026-04-09T14:46:25.999Z</time></trkpt><trkpt lat="44.099777493377665" lon="9.95538438177252"><ele>5.0</ele><time>2026-04-09T14:46:26.999Z</time></trkpt><trkpt lat="44.09993413285218" lon="9.955060438757467"><ele>4.5</ele><time>2026-04-09T14:46:27.999Z</time></trkpt><trkpt lat="44.10008968264114" lon="9.954738674850057"><ele>4.0</ele><time>2026-04-09T14:46:28.999Z</time></trkpt><trkpt lat="44.10024963630591" lon="9.95441509400654"><ele>4.5</ele><time>2026-04-09T14:46:29.999Z</time></trkpt><trkpt lat="44.100409270367905" lon="9.954090085569273"><ele>5.0</ele><time>2026-04-09T14:46:30.999Z</time></trkpt><trkpt lat="44.10056865312927" lon="9.953761499252836"><ele>5.0</ele><time>2026-04-09T14:46:31.999Z</time></trkpt><trkpt lat="44.10073100846721" lon="9.953431887547707"><ele>5.0</ele><time>2026-04-09T14:46:33Z</time></trkpt><trkpt lat="44.10090063954367" lon="9.953106274018095"><ele>6.0</ele><time>2026-04-09T14:46:34Z</time></trkpt><trkpt lat="44.101070043661984" lon="9.952778693340148"><ele>7.0</ele><time>2026-04-09T14:46:35Z</time></trkpt><trkpt lat="44.10123328544673" lon="9.952447307032363"><ele>8.5</ele><time>2026-04-09T14:46:36Z</time></trkpt><trkpt lat="44.10139461705678" lon="9.952104746311232"><ele>10.0</ele><time>2026-04-09T14:46:37Z</time></trkpt><trkpt lat="44.10156037998706" lon="9.951776933944513"><ele>9.5</ele><time>2026-04-09T14:46:38Z</time></trkpt><trkpt lat="44.10173091970547" lon="9.951445713929777"><ele>9.0</ele><time>2026-04-09T14:46:39Z</time></trkpt><trkpt lat="44.101897335912874" lon="9.951111052622275"><ele>9.0</ele><time>2026-04-09T14:46:40Z</time></trkpt><trkpt lat="44.102066738495196" lon="9.950781327613706"><ele>9.0</ele><time>2026-04-09T14:46:41Z</time></trkpt><trkpt lat="44.10224230112362" lon="9.950460212864698"><ele>8.5</ele><time>2026-04-09T14:46:42Z</time></trkpt><trkpt lat="44.10242402181396" lon="9.950149976641466"><ele>8.0</ele><time>2026-04-09T14:46:43Z</time></trkpt><trkpt lat="44.10261056231454" lon="9.949843599046758"><ele>7.0</ele><time>2026-04-09T14:46:44Z</time></trkpt><trkpt lat="44.10279969347703" lon="9.949543304818762"><ele>6.0</ele><time>2026-04-09T14:46:45Z</time></trkpt><trkpt lat="44.10299373896881" lon="9.94925176564775"><ele>6.0</ele><time>2026-04-09T14:46:46Z</time></trkpt><trkpt lat="44.10319100782988" lon="9.948963417540659"><ele>6.0</ele><time>2026-04-09T14:46:47Z</time></trkpt><trkpt lat="44.10338909236696" lon="9.948681789202439"><ele>6.0</ele><time>2026-04-09T14:46:48Z</time></trkpt><trkpt lat="44.103590282445076" lon="9.948404616494772"><ele>6.0</ele><time>2026-04-09T14:46:49Z</time></trkpt><trkpt lat="44.103796827667146" lon="9.948135708669525"><ele>6.0</ele><time>2026-04-09T14:46:50Z</time></trkpt><trkpt lat="44.104007994441126" lon="9.947874011894458"><ele>6.0</ele><time>2026-04-09T14:46:51Z</time></trkpt><trkpt lat="44.104221671069645" lon="9.947619485415002"><ele>8.0</ele><time>2026-04-09T14:46:52Z</time></trkpt><trkpt lat="44.10444447830408" lon="9.94736618531435"><ele>10.0</ele><time>2026-04-09T14:46:53Z</time></trkpt><trkpt lat="44.10466438084245" lon="9.947123594446305"><ele>10.0</ele><time>2026-04-09T14:46:54Z</time></trkpt><trkpt lat="44.10488826544202" lon="9.946887579454565"><ele>10.0</ele><time>2026-04-09T14:46:55Z</time></trkpt><trkpt lat="44.105114905300894" lon="9.946658267769488"><ele>9.5</ele><time>2026-04-09T14:46:56Z</time></trkpt><trkpt lat="44.10534629984577" lon="9.946436709362333"><ele>9.0</ele><time>2026-04-09T14:46:57Z</time></trkpt><trkpt lat="44.10558299975629" lon="9.94622037534255"><ele>8.5</ele><time>2026-04-09T14:46:58Z</time></trkpt><trkpt lat="44.10582370320728" lon="9.946010483720945"><ele>8.0</ele><time>2026-04-09T14:46:59Z</time></trkpt><trkpt lat="44.10606336971654" lon="9.945808543619496"><ele>7.5</ele><time>2026-04-09T14:47:00Z</time></trkpt><trkpt lat="44.106293176621875" lon="9.945626079510198"><ele>7.0</ele><time>2026-04-09T14:47:01Z</time></trkpt><trkpt lat="44.10652435933459" lon="9.945450046734758"><ele>7.0</ele><time>2026-04-09T14:47:02Z</time></trkpt><trkpt lat="44.10676313270404" lon="9.945280220254475"><ele>7.0</ele><time>2026-04-09T14:47:03Z</time></trkpt><trkpt lat="44.10700558730784" lon="9.945111339475966"><ele>7.0</ele><time>2026-04-09T14:47:04Z</time></trkpt><trkpt lat="44.10725313418608" lon="9.944947176851823"><ele>7.0</ele><time>2026-04-09T14:47:05Z</time></trkpt><trkpt lat="44.10750424732473" lon="9.944790807453877"><ele>7.5</ele><time>2026-04-09T14:47:06Z</time></trkpt><trkpt lat="44.10776006096199" lon="9.944639375228038"><ele>8.0</ele><time>2026-04-09T14:47:07Z</time></trkpt><trkpt lat="44.10802144001722" lon="9.94448723890843"><ele>8.5</ele><time>2026-04-09T14:47:08Z</time></trkpt><trkpt lat="44.108281027264084" lon="9.944329745192283"><ele>9.0</ele><time>2026-04-09T14:47:09Z</time></trkpt><trkpt lat="44.10854144186725" lon="9.944175472882705"><ele>9.0</ele><time>2026-04-09T14:47:10Z</time></trkpt><trkpt lat="44.10880445547732" lon="9.94401226932236"><ele>9.0</ele><time>2026-04-09T14:47:11Z</time></trkpt><trkpt lat="44.109067315711506" lon="9.943850581121538"><ele>9.5</ele><time>2026-04-09T14:47:12Z</time></trkpt><trkpt lat="44.109333710943" lon="9.943692334104632"><ele>10.0</ele><time>2026-04-09T14:47:13Z</time></trkpt><trkpt lat="44.10960078919397" lon="9.943537197305819"><ele>10.5</ele><time>2026-04-09T14:47:14Z</time></trkpt><trkpt lat="44.109867238101714" lon="9.94337950479947"><ele>11.0</ele><time>2026-04-09T14:47:15Z</time></trkpt><trkpt lat="44.110137137577865" lon="9.943219516333178"><ele>11.5</ele><time>2026-04-09T14:47:16Z</time></trkpt><trkpt lat="44.11041072500228" lon="9.943058135683811"><ele>12.0</ele><time>2026-04-09T14:47:17Z</time></trkpt><trkpt lat="44.11068564728419" lon="9.942897438778848"><ele>11.0</ele><time>2026-04-09T14:47:18Z</time></trkpt><trkpt lat="44.1109618166943" lon="9.942736920626299"><ele>10.0</ele><time>2026-04-09T14:47:19Z</time></trkpt><trkpt lat="44.11124134988738" lon="9.942572934915935"><ele>10.0</ele><time>2026-04-09T14:47:20Z</time></trkpt><trkpt lat="44.111521304296645" lon="9.942406914125703"><ele>10.0</ele><time>2026-04-09T14:47:21Z</time></trkpt><trkpt lat="44.11180441292572" lon="9.942242901450042"><ele>10.0</ele><time>2026-04-09T14:47:22Z</time></trkpt><trkpt lat="44.11208852926238" lon="9.94207673162555"><ele>10.0</ele><time>2026-04-09T14:47:23Z</time></trkpt><trkpt lat="44.1123735109753" lon="9.941908216425297"><ele>9.0</ele><time>2026-04-09T14:47:24Z</time></trkpt><trkpt lat="44.11265877729053" lon="9.941737652449948"><ele>8.0</ele><time>2026-04-09T14:47:25Z</time></trkpt><trkpt lat="44.11294441361098" lon="9.94156814366307"><ele>8.0</ele><time>2026-04-09T14:47:26Z</time></trkpt><trkpt lat="44.11323359465036" lon="9.941400806728929"><ele>8.0</ele><time>2026-04-09T14:47:27Z</time></trkpt><trkpt lat="44.113525779574836" lon="9.94123358007174"><ele>8.0</ele><time>2026-04-09T14:47:28Z</time></trkpt><trkpt lat="44.11381564007706" lon="9.941065582136758"><ele>8.0</ele><time>2026-04-09T14:47:29Z</time></trkpt><trkpt lat="44.114107303741704" lon="9.940893100126805"><ele>7.0</ele><time>2026-04-09T14:47:30Z</time></trkpt><trkpt lat="44.11440029563422" lon="9.940719685121023"><ele>6.0</ele><time>2026-04-09T14:47:31Z</time></trkpt><trkpt lat="44.11469226033147" lon="9.94054709832764"><ele>6.5</ele><time>2026-04-09T14:47:32Z</time></trkpt><trkpt lat="44.114983905416324" lon="9.940375113495172"><ele>7.0</ele><time>2026-04-09T14:47:33Z</time></trkpt><trkpt lat="44.11527514782217" lon="9.940200875750037"><ele>7.5</ele><time>2026-04-09T14:47:34Z</time></trkpt><trkpt lat="44.115566784074" lon="9.940027839825436"><ele>8.0</ele><time>2026-04-09T14:47:35Z</time></trkpt><trkpt lat="44.11585508094784" lon="9.939858142226019"><ele>8.5</ele><time>2026-04-09T14:47:36Z</time></trkpt><trkpt lat="44.11614613871468" lon="9.939691706216705"><ele>9.0</ele><time>2026-04-09T14:47:37Z</time></trkpt><trkpt lat="44.11643694922088" lon="9.939530635208936"><ele>9.0</ele><time>2026-04-09T14:47:38Z</time></trkpt><trkpt lat="44.11672501638798" lon="9.939368598826608"><ele>9.0</ele><time>2026-04-09T14:47:39Z</time></trkpt><trkpt lat="44.11701094625042" lon="9.939207485894922"><ele>9.0</ele><time>2026-04-09T14:47:40Z</time></trkpt><trkpt lat="44.11729566148752" lon="9.939046811682937"><ele>9.0</ele><time>2026-04-09T14:47:41Z</time></trkpt><trkpt lat="44.11757814375313" lon="9.938887289007768"><ele>9.5</ele><time>2026-04-09T14:47:42Z</time></trkpt><trkpt lat="44.11785869216968" lon="9.93872678381848"><ele>10.0</ele><time>2026-04-09T14:47:43Z</time></trkpt><trkpt lat="44.11814019639476" lon="9.938564049992841"><ele>10.0</ele><time>2026-04-09T14:47:44Z</time></trkpt><trkpt lat="44.11842116016882" lon="9.938401388818363"><ele>10.0</ele><time>2026-04-09T14:47:45Z</time></trkpt><trkpt lat="44.11870293722427" lon="9.938239100170762"><ele>10.0</ele><time>2026-04-09T14:47:46Z</time></trkpt><trkpt lat="44.118985631577246" lon="9.93807568605967"><ele>10.0</ele><time>2026-04-09T14:47:47Z</time></trkpt><trkpt lat="44.11926721552673" lon="9.937909679066271"><ele>10.5</ele><time>2026-04-09T14:47:47.999Z</time></trkpt><trkpt lat="44.119551355820946" lon="9.937737845733853"><ele>11.0</ele><time>2026-04-09T14:47:48.999Z</time></trkpt><trkpt lat="44.11983697869078" lon="9.937555002424798"><ele>10.0</ele><time>2026-04-09T14:47:49.999Z</time></trkpt><trkpt lat="44.12012145430933" lon="9.937377946326636"><ele>9.0</ele><time>2026-04-09T14:47:50.999Z</time></trkpt><trkpt lat="44.12040455075496" lon="9.937190737242513"><ele>9.0</ele><time>2026-04-09T14:47:51.999Z</time></trkpt><trkpt lat="44.12068408778246" lon="9.936995501424287"><ele>9.0</ele><time>2026-04-09T14:47:52.999Z</time></trkpt><trkpt lat="44.12096225327588" lon="9.936792922270616"><ele>8.5</ele><time>2026-04-09T14:47:53.999Z</time></trkpt><trkpt lat="44.121239940484934" lon="9.93658934038908"><ele>8.0</ele><time>2026-04-09T14:47:54.999Z</time></trkpt><trkpt lat="44.12151247967632" lon="9.936376479121195"><ele>8.5</ele><time>2026-04-09T14:47:55.999Z</time></trkpt><trkpt lat="44.121782303487706" lon="9.936156016139542"><ele>9.0</ele><time>2026-04-09T14:47:56.999Z</time></trkpt><trkpt lat="44.122049133011224" lon="9.935929788795676"><ele>9.0</ele><time>2026-04-09T14:47:57.999Z</time></trkpt><trkpt lat="44.12231367845487" lon="9.935696657808965"><ele>9.0</ele><time>2026-04-09T14:47:58.999Z</time></trkpt><trkpt lat="44.12257418177096" lon="9.935458091927845"><ele>9.0</ele><time>2026-04-09T14:47:59.999Z</time></trkpt><trkpt lat="44.12282985885382" lon="9.935213235067234"><ele>9.0</ele><time>2026-04-09T14:48:00.999Z</time></trkpt><trkpt lat="44.12308174577893" lon="9.934960013043066"><ele>9.5</ele><time>2026-04-09T14:48:01.999Z</time></trkpt><trkpt lat="44.12333097556271" lon="9.934702746519033"><ele>10.0</ele><time>2026-04-09T14:48:02.999Z</time></trkpt><trkpt lat="44.123579754557404" lon="9.934441080777988"><ele>10.0</ele><time>2026-04-09T14:48:03.999Z</time></trkpt><trkpt lat="44.12382602529298" lon="9.93417276492629"><ele>10.0</ele><time>2026-04-09T14:48:04.999Z</time></trkpt><trkpt lat="44.12406686509848" lon="9.93389891004001"><ele>10.5</ele><time>2026-04-09T14:48:05.999Z</time></trkpt><trkpt lat="44.124304358906954" lon="9.933616004132118"><ele>11.0</ele><time>2026-04-09T14:48:06.999Z</time></trkpt><trkpt lat="44.12453655059981" lon="9.933326596317336"><ele>11.0</ele><time>2026-04-09T14:48:07.999Z</time></trkpt><trkpt lat="44.124767519611645" lon="9.933035690229975"><ele>11.0</ele><time>2026-04-09T14:48:08.999Z</time></trkpt><trkpt lat="44.12499532248141" lon="9.932744593752936"><ele>10.0</ele><time>2026-04-09T14:48:09.999Z</time></trkpt><trkpt lat="44.12522181713603" lon="9.93245480531662"><ele>9.0</ele><time>2026-04-09T14:48:10.999Z</time></trkpt><trkpt lat="44.12544661525679" lon="9.93216643850079"><ele>9.0</ele><time>2026-04-09T14:48:11.999Z</time></trkpt><trkpt lat="44.12567399524296" lon="9.931874456866876"><ele>9.0</ele><time>2026-04-09T14:48:12.999Z</time></trkpt><trkpt lat="44.1258996969045" lon="9.931584132158932"><ele>10.5</ele><time>2026-04-09T14:48:13.999Z</time></trkpt><trkpt lat="44.126127277125185" lon="9.931292661852444"><ele>12.0</ele><time>2026-04-09T14:48:14.999Z</time></trkpt><trkpt lat="44.126354056139434" lon="9.93099975559546"><ele>12.5</ele><time>2026-04-09T14:48:15.999Z</time></trkpt><trkpt lat="44.12658332126133" lon="9.930702879524123"><ele>13.0</ele><time>2026-04-09T14:48:16.999Z</time></trkpt><trkpt lat="44.126814816378" lon="9.930406280261094"><ele>13.0</ele><time>2026-04-09T14:48:17.999Z</time></trkpt><trkpt lat="44.12704644494395" lon="9.930109137018254"><ele>13.0</ele><time>2026-04-09T14:48:18.999Z</time></trkpt><trkpt lat="44.127278633344844" lon="9.929812112974362"><ele>12.0</ele><time>2026-04-09T14:48:19.999Z</time></trkpt><trkpt lat="44.127511791080245" lon="9.929510009125059"><ele>11.0</ele><time>2026-04-09T14:48:20.999Z</time></trkpt><trkpt lat="44.127744101017306" lon="9.929206999080874"><ele>10.0</ele><time>2026-04-09T14:48:21.999Z</time></trkpt><trkpt lat="44.12797710786702" lon="9.928906169251578"><ele>9.0</ele><time>2026-04-09T14:48:22.999Z</time></trkpt><trkpt lat="44.1282108059328" lon="9.928605535243966"><ele>10.5</ele><time>2026-04-09T14:48:23.999Z</time></trkpt><trkpt lat="44.12844387843758" lon="9.928300594546513"><ele>12.0</ele><time>2026-04-09T14:48:24.999Z</time></trkpt><trkpt lat="44.12867705598948" lon="9.927992414038053"><ele>12.0</ele><time>2026-04-09T14:48:25.999Z</time></trkpt><trkpt lat="44.12890978058197" lon="9.92768374248081"><ele>12.0</ele><time>2026-04-09T14:48:26.999Z</time></trkpt><trkpt lat="44.12914437641654" lon="9.927376803350477"><ele>12.0</ele><time>2026-04-09T14:48:27.999Z</time></trkpt><trkpt lat="44.12937967481139" lon="9.927073092970891"><ele>12.0</ele><time>2026-04-09T14:48:28.999Z</time></trkpt><trkpt lat="44.129615592792" lon="9.926766400368521"><ele>12.0</ele><time>2026-04-09T14:48:29.999Z</time></trkpt><trkpt lat="44.129852524123336" lon="9.92645639313343"><ele>12.0</ele><time>2026-04-09T14:48:30.999Z</time></trkpt><trkpt lat="44.1300904376909" lon="9.926145229630196"><ele>11.5</ele><time>2026-04-09T14:48:31.999Z</time></trkpt><trkpt lat="44.13032809964553" lon="9.925838853998197"><ele>11.0</ele><time>2026-04-09T14:48:32.999Z</time></trkpt><trkpt lat="44.13056873136225" lon="9.925533180821562"><ele>11.0</ele><time>2026-04-09T14:48:33.999Z</time></trkpt><trkpt lat="44.130809241190555" lon="9.925229686771665"><ele>11.0</ele><time>2026-04-09T14:48:34.999Z</time></trkpt><trkpt lat="44.13104726438946" lon="9.924924312439297"><ele>11.5</ele><time>2026-04-09T14:48:35.999Z</time></trkpt><trkpt lat="44.131284017251176" lon="9.92461740222521"><ele>12.0</ele><time>2026-04-09T14:48:36.999Z</time></trkpt><trkpt lat="44.131503629486225" lon="9.924332381941976"><ele>12.5</ele><time>2026-04-09T14:48:37.999Z</time></trkpt><trkpt lat="44.1317063739505" lon="9.92407273927887"><ele>13.0</ele><time>2026-04-09T14:48:39Z</time></trkpt><trkpt lat="44.131893994577275" lon="9.923826769167167"><ele>13.0</ele><time>2026-04-09T14:48:40Z</time></trkpt><trkpt lat="44.13207575424759" lon="9.923591243994217"><ele>13.0</ele><time>2026-04-09T14:48:41Z</time></trkpt><trkpt lat="44.1322492525766" lon="9.923367953041772"><ele>12.5</ele><time>2026-04-09T14:48:42Z</time></trkpt><trkpt lat="44.13241521769751" lon="9.92314997646465"><ele>12.0</ele><time>2026-04-09T14:48:43Z</time></trkpt><trkpt lat="44.13259226351899" lon="9.922921044642152"><ele>12.0</ele><time>2026-04-09T14:48:44Z</time></trkpt><trkpt lat="44.132784509007166" lon="9.922675211385014"><ele>12.0</ele><time>2026-04-09T14:48:45Z</time></trkpt><trkpt lat="44.132978811624426" lon="9.922427782033724"><ele>11.5</ele><time>2026-04-09T14:48:46Z</time></trkpt><trkpt lat="44.13315871320803" lon="9.922199018827667"><ele>11.0</ele><time>2026-04-09T14:48:47Z</time></trkpt><trkpt lat="44.13333179223252" lon="9.921978229861791"><ele>11.0</ele><time>2026-04-09T14:48:48Z</time></trkpt><trkpt lat="44.13350436820959" lon="9.921754753323295"><ele>11.0</ele><time>2026-04-09T14:48:49Z</time></trkpt><trkpt lat="44.13368466057138" lon="9.921527581763884"><ele>10.5</ele><time>2026-04-09T14:48:50Z</time></trkpt><trkpt lat="44.13387011720394" lon="9.921293529561911"><ele>10.0</ele><time>2026-04-09T14:48:51Z</time></trkpt><trkpt lat="44.13405928974122" lon="9.921050475887755"><ele>9.5</ele><time>2026-04-09T14:48:52Z</time></trkpt><trkpt lat="44.1342447078285" lon="9.920809770701872"><ele>9.0</ele><time>2026-04-09T14:48:53Z</time></trkpt><trkpt lat="44.13442796034563" lon="9.920571173457148"><ele>9.0</ele><time>2026-04-09T14:48:54Z</time></trkpt><trkpt lat="44.13461589621726" lon="9.920328064328434"><ele>9.0</ele><time>2026-04-09T14:48:55Z</time></trkpt><trkpt lat="44.13481157765613" lon="9.920076392439993"><ele>11.5</ele><time>2026-04-09T14:48:56Z</time></trkpt><trkpt lat="44.13501272895075" lon="9.919816375919437"><ele>14.0</ele><time>2026-04-09T14:48:57Z</time></trkpt><trkpt lat="44.13521790158958" lon="9.919551291299797"><ele>14.0</ele><time>2026-04-09T14:48:58Z</time></trkpt><trkpt lat="44.13542757252849" lon="9.919280345017285"><ele>14.0</ele><time>2026-04-09T14:48:59Z</time></trkpt><trkpt lat="44.135640836122654" lon="9.91900667196724"><ele>11.5</ele><time>2026-04-09T14:49:00Z</time></trkpt><trkpt lat="44.13584168707952" lon="9.918748534827955"><ele>9.0</ele><time>2026-04-09T14:49:01Z</time></trkpt><trkpt lat="44.13603532678026" lon="9.918501104379606"><ele>10.0</ele><time>2026-04-09T14:49:02Z</time></trkpt><trkpt lat="44.13622843412242" lon="9.918253020419929"><ele>11.0</ele><time>2026-04-09T14:49:03Z</time></trkpt><trkpt lat="44.1364237041356" lon="9.91800212479131"><ele>11.5</ele><time>2026-04-09T14:49:04Z</time></trkpt><trkpt lat="44.13662137624006" lon="9.917747607421122"><ele>12.0</ele><time>2026-04-09T14:49:05Z</time></trkpt><trkpt lat="44.13681944358871" lon="9.917493580771783"><ele>12.5</ele><time>2026-04-09T14:49:06Z</time></trkpt><trkpt lat="44.1370179703331" lon="9.917236380419853"><ele>13.0</ele><time>2026-04-09T14:49:07Z</time></trkpt><trkpt lat="44.13721636137149" lon="9.916979564220457"><ele>14.0</ele><time>2026-04-09T14:49:08Z</time></trkpt><trkpt lat="44.137413548566386" lon="9.916721101130094"><ele>15.0</ele><time>2026-04-09T14:49:09Z</time></trkpt><trkpt lat="44.1376151951999" lon="9.916465294544674"><ele>15.0</ele><time>2026-04-09T14:49:10Z</time></trkpt><trkpt lat="44.13781442054469" lon="9.916210983521877"><ele>15.0</ele><time>2026-04-09T14:49:11Z</time></trkpt><trkpt lat="44.1380156379396" lon="9.915954329423364"><ele>14.5</ele><time>2026-04-09T14:49:12Z</time></trkpt><trkpt lat="44.13821782187688" lon="9.915696712583522"><ele>14.0</ele><time>2026-04-09T14:49:13Z</time></trkpt><trkpt lat="44.13841923791985" lon="9.915437744392339"><ele>14.0</ele><time>2026-04-09T14:49:14Z</time></trkpt><trkpt lat="44.13862163803115" lon="9.915179444736074"><ele>14.0</ele><time>2026-04-09T14:49:15Z</time></trkpt><trkpt lat="44.1388266541074" lon="9.914920812452158"><ele>14.0</ele><time>2026-04-09T14:49:16Z</time></trkpt><trkpt lat="44.13903298002672" lon="9.914667087426437"><ele>14.0</ele><time>2026-04-09T14:49:17Z</time></trkpt><trkpt lat="44.13924304115598" lon="9.914417100432999"><ele>14.0</ele><time>2026-04-09T14:49:18Z</time></trkpt><trkpt lat="44.13945393197864" lon="9.914176052571923"><ele>14.0</ele><time>2026-04-09T14:49:19Z</time></trkpt><trkpt lat="44.13965393063554" lon="9.913954837928577"><ele>14.0</ele><time>2026-04-09T14:49:20Z</time></trkpt><trkpt lat="44.139854320222604" lon="9.913733835812014"><ele>14.0</ele><time>2026-04-09T14:49:21Z</time></trkpt><trkpt lat="44.14005798299162" lon="9.913515194372543"><ele>15.0</ele><time>2026-04-09T14:49:22Z</time></trkpt><trkpt lat="44.140263012575076" lon="9.913301420677387"><ele>16.0</ele><time>2026-04-09T14:49:23Z</time></trkpt><trkpt lat="44.14046947332989" lon="9.91309525957435"><ele>16.0</ele><time>2026-04-09T14:49:24Z</time></trkpt><trkpt lat="44.14067815354655" lon="9.912894539667302"><ele>16.0</ele><time>2026-04-09T14:49:25Z</time></trkpt><trkpt lat="44.14088907977478" lon="9.91269851553857"><ele>15.5</ele><time>2026-04-09T14:49:26Z</time></trkpt><trkpt lat="44.14110245130938" lon="9.912505519388628"><ele>15.0</ele><time>2026-04-09T14:49:27Z</time></trkpt><trkpt lat="44.14131826028797" lon="9.91231552266768"><ele>15.0</ele><time>2026-04-09T14:49:28Z</time></trkpt><trkpt lat="44.14153897391464" lon="9.912130213339877"><ele>15.0</ele><time>2026-04-09T14:49:29Z</time></trkpt><trkpt lat="44.14175529516942" lon="9.91195246805847"><ele>14.5</ele><time>2026-04-09T14:49:30Z</time></trkpt><trkpt lat="44.14197339555741" lon="9.91177720975132"><ele>14.0</ele><time>2026-04-09T14:49:31Z</time></trkpt><trkpt lat="44.14219887090251" lon="9.911598497057788"><ele>16.0</ele><time>2026-04-09T14:49:32Z</time></trkpt><trkpt lat="44.14242928935514" lon="9.911419040803684"><ele>18.0</ele><time>2026-04-09T14:49:33Z</time></trkpt><trkpt lat="44.14266358983027" lon="9.911238420838075"><ele>18.0</ele><time>2026-04-09T14:49:34Z</time></trkpt><trkpt lat="44.14290157066271" lon="9.91105648567798"><ele>18.0</ele><time>2026-04-09T14:49:35Z</time></trkpt><trkpt lat="44.143142552572215" lon="9.91087194425055"><ele>19.0</ele><time>2026-04-09T14:49:36Z</time></trkpt><trkpt lat="44.14337884758746" lon="9.910689094934074"><ele>20.0</ele><time>2026-04-09T14:49:37Z</time></trkpt><trkpt lat="44.1436091999452" lon="9.910509701170216"><ele>20.0</ele><time>2026-04-09T14:49:38Z</time></trkpt><trkpt lat="44.143841208863314" lon="9.91032869942942"><ele>20.0</ele><time>2026-04-09T14:49:39Z</time></trkpt><trkpt lat="44.1440749583492" lon="9.910149041955483"><ele>18.0</ele><time>2026-04-09T14:49:40Z</time></trkpt><trkpt lat="44.144311934239184" lon="9.909966815952519"><ele>16.0</ele><time>2026-04-09T14:49:41Z</time></trkpt><trkpt lat="44.14455172713925" lon="9.909782205917756"><ele>16.0</ele><time>2026-04-09T14:49:42Z</time></trkpt><trkpt lat="44.144792579718434" lon="9.909592556930917"><ele>16.0</ele><time>2026-04-09T14:49:43Z</time></trkpt><trkpt lat="44.14503629037746" lon="9.90939984777145"><ele>15.5</ele><time>2026-04-09T14:49:44Z</time></trkpt><trkpt lat="44.145281143249534" lon="9.909208088442044"><ele>15.0</ele><time>2026-04-09T14:49:45Z</time></trkpt><trkpt lat="44.145528074220664" lon="9.909017924825571"><ele>13.5</ele><time>2026-04-09T14:49:46Z</time></trkpt><trkpt lat="44.14576811544218" lon="9.908828885820958"><ele>12.0</ele><time>2026-04-09T14:49:47Z</time></trkpt><trkpt lat="44.1459938145092" lon="9.908645523825362"><ele>12.0</ele><time>2026-04-09T14:49:48Z</time></trkpt><trkpt lat="44.14621323042495" lon="9.908469867602065"><ele>12.0</ele><time>2026-04-09T14:49:49Z</time></trkpt><trkpt lat="44.146437294082524" lon="9.908294635896597"><ele>13.0</ele><time>2026-04-09T14:49:50Z</time></trkpt><trkpt lat="44.14665870872558" lon="9.908120685123697"><ele>14.0</ele><time>2026-04-09T14:49:51Z</time></trkpt><trkpt lat="44.14687008798524" lon="9.907953680764107"><ele>14.0</ele><time>2026-04-09T14:49:51.999Z</time></trkpt><trkpt lat="44.14708553956664" lon="9.907785558581388"><ele>14.0</ele><time>2026-04-09T14:49:52.999Z</time></trkpt><trkpt lat="44.14730936806269" lon="9.90761442719067"><ele>14.5</ele><time>2026-04-09T14:49:53.999Z</time></trkpt><trkpt lat="44.147542042533395" lon="9.907436267775607"><ele>15.0</ele><time>2026-04-09T14:49:54.999Z</time></trkpt><trkpt lat="44.147778446002974" lon="9.907252174022341"><ele>15.0</ele><time>2026-04-09T14:49:55.999Z</time></trkpt><trkpt lat="44.148021245505795" lon="9.907067060729695"><ele>15.0</ele><time>2026-04-09T14:49:56.999Z</time></trkpt><trkpt lat="44.14826802275867" lon="9.906876557909419"><ele>15.0</ele><time>2026-04-09T14:49:57.999Z</time></trkpt><trkpt lat="44.14851749216915" lon="9.906683519717893"><ele>15.0</ele><time>2026-04-09T14:49:58.999Z</time></trkpt><trkpt lat="44.148770537082164" lon="9.906491227707788"><ele>15.0</ele><time>2026-04-09T14:49:59.999Z</time></trkpt><trkpt lat="44.14902582169611" lon="9.906291891702834"><ele>15.0</ele><time>2026-04-09T14:50:00.999Z</time></trkpt><trkpt lat="44.149272864917464" lon="9.906098772704388"><ele>15.0</ele><time>2026-04-09T14:50:01.999Z</time></trkpt><trkpt lat="44.14951361122136" lon="9.905909224386761"><ele>15.0</ele><time>2026-04-09T14:50:02.999Z</time></trkpt><trkpt lat="44.14975638024391" lon="9.905720611975378"><ele>16.0</ele><time>2026-04-09T14:50:03.999Z</time></trkpt><trkpt lat="44.14998936111202" lon="9.905531464418246"><ele>17.0</ele><time>2026-04-09T14:50:04.999Z</time></trkpt><trkpt lat="44.15022211342108" lon="9.90534806456894"><ele>17.0</ele><time>2026-04-09T14:50:05.999Z</time></trkpt><trkpt lat="44.150458587658285" lon="9.905162558417326"><ele>17.0</ele><time>2026-04-09T14:50:06.999Z</time></trkpt><trkpt lat="44.15070156377838" lon="9.904974343401683"><ele>17.5</ele><time>2026-04-09T14:50:07.999Z</time></trkpt><trkpt lat="44.150940404719236" lon="9.904793867266335"><ele>18.0</ele><time>2026-04-09T14:50:08.999Z</time></trkpt><trkpt lat="44.15117943971728" lon="9.90460505116481"><ele>18.0</ele><time>2026-04-09T14:50:09.999Z</time></trkpt><trkpt lat="44.151416586677755" lon="9.904416779786985"><ele>18.0</ele><time>2026-04-09T14:50:10.999Z</time></trkpt><trkpt lat="44.151643465155125" lon="9.90423916903516"><ele>21.0</ele><time>2026-04-09T14:50:11.999Z</time></trkpt><trkpt lat="44.1518573458171" lon="9.904068447324876"><ele>24.0</ele><time>2026-04-09T14:50:12.999Z</time></trkpt><trkpt lat="44.15206541470931" lon="9.903901748871249"><ele>24.0</ele><time>2026-04-09T14:50:13.999Z</time></trkpt><trkpt lat="44.15227008550303" lon="9.903726850237417"><ele>24.0</ele><time>2026-04-09T14:50:14.999Z</time></trkpt><trkpt lat="44.15247725780418" lon="9.903545564678236"><ele>22.0</ele><time>2026-04-09T14:50:15.999Z</time></trkpt><trkpt lat="44.152684683884814" lon="9.903357409086524"><ele>20.0</ele><time>2026-04-09T14:50:16.999Z</time></trkpt><trkpt lat="44.15289059800461" lon="9.903161603097862"><ele>20.0</ele><time>2026-04-09T14:50:17.999Z</time></trkpt><trkpt lat="44.153098506336" lon="9.902957333998922"><ele>20.0</ele><time>2026-04-09T14:50:18.999Z</time></trkpt><trkpt lat="44.153305128038674" lon="9.90274691105132"><ele>21.0</ele><time>2026-04-09T14:50:19.999Z</time></trkpt><trkpt lat="44.153513698988554" lon="9.902530375942538"><ele>22.0</ele><time>2026-04-09T14:50:20.999Z</time></trkpt><trkpt lat="44.1537209399834" lon="9.902305073029268"><ele>22.0</ele><time>2026-04-09T14:50:21.999Z</time></trkpt><trkpt lat="44.153923175150005" lon="9.902071493953464"><ele>22.0</ele><time>2026-04-09T14:50:22.999Z</time></trkpt><trkpt lat="44.15411978225581" lon="9.90183967239372"><ele>23.0</ele><time>2026-04-09T14:50:23.999Z</time></trkpt><trkpt lat="44.15430071151296" lon="9.901614568448622"><ele>24.0</ele><time>2026-04-09T14:50:24.999Z</time></trkpt><trkpt lat="44.154472530276" lon="9.901393053426643"><ele>24.0</ele><time>2026-04-09T14:50:25.999Z</time></trkpt><trkpt lat="44.15464298131041" lon="9.901168680924492"><ele>24.0</ele><time>2026-04-09T14:50:26.999Z</time></trkpt><trkpt lat="44.154810487467" lon="9.900939780955076"><ele>24.5</ele><time>2026-04-09T14:50:27.999Z</time></trkpt><trkpt lat="44.154977102149815" lon="9.900707872321462"><ele>25.0</ele><time>2026-04-09T14:50:28.999Z</time></trkpt><trkpt lat="44.155139228187004" lon="9.90047222171312"><ele>25.0</ele><time>2026-04-09T14:50:29.999Z</time></trkpt><trkpt lat="44.15529934110679" lon="9.900235930991993"><ele>25.0</ele><time>2026-04-09T14:50:30.999Z</time></trkpt><trkpt lat="44.155454403989864" lon="9.899996821113636"><ele>24.0</ele><time>2026-04-09T14:50:31.999Z</time></trkpt><trkpt lat="44.15560049847474" lon="9.899759462431119"><ele>23.0</ele><time>2026-04-09T14:50:32.999Z</time></trkpt><trkpt lat="44.1557328991587" lon="9.899537257479665"><ele>22.0</ele><time>2026-04-09T14:50:33.999Z</time></trkpt><trkpt lat="44.155860440813704" lon="9.89932269335929"><ele>22.0</ele><time>2026-04-09T14:50:34.999Z</time></trkpt><trkpt lat="44.155986275682814" lon="9.899101667146049"><ele>22.0</ele><time>2026-04-09T14:50:35.999Z</time></trkpt><trkpt lat="44.15611263938676" lon="9.898876397497848"><ele>22.0</ele><time>2026-04-09T14:50:36.999Z</time></trkpt><trkpt lat="44.15623740948299" lon="9.898642929306858"><ele>21.666666666666664</ele><time>2026-04-09T14:50:37.999Z</time></trkpt><trkpt lat="44.15636455085426" lon="9.898401292118399"><ele>21.333333333333332</ele><time>2026-04-09T14:50:38.999Z</time></trkpt><trkpt lat="44.15649398299799" lon="9.89815439788642"><ele>21.0</ele><time>2026-04-09T14:50:39.999Z</time></trkpt><trkpt lat="44.156614485606006" lon="9.89790663681504"><ele>21.666666666666668</ele><time>2026-04-09T14:50:40.999Z</time></trkpt><trkpt lat="44.15672835130906" lon="9.897659464010415"><ele>22.333333333333336</ele><time>2026-04-09T14:50:41.999Z</time></trkpt><trkpt lat="44.156847332863066" lon="9.8974049986202"><ele>23.0</ele><time>2026-04-09T14:50:42.999Z</time></trkpt><trkpt lat="44.15696777639344" lon="9.897139677052015"><ele>23.0</ele><time>2026-04-09T14:50:43.999Z</time></trkpt><trkpt lat="44.15708377939655" lon="9.896876095279092"><ele>23.0</ele><time>2026-04-09T14:50:45Z</time></trkpt><trkpt lat="44.15718949299833" lon="9.896622675468846"><ele>23.0</ele><time>2026-04-09T14:50:46Z</time></trkpt><trkpt lat="44.15729197435683" lon="9.896365335166287"><ele>23.0</ele><time>2026-04-09T14:50:47Z</time></trkpt><trkpt lat="44.15739388189995" lon="9.896108811287911"><ele>23.0</ele><time>2026-04-09T14:50:48Z</time></trkpt><trkpt lat="44.15749165511158" lon="9.895856741223133"><ele>23.0</ele><time>2026-04-09T14:50:49Z</time></trkpt><trkpt lat="44.157588850332274" lon="9.895600803757882"><ele>23.0</ele><time>2026-04-09T14:50:50Z</time></trkpt><trkpt lat="44.15768885136382" lon="9.895340845107706"><ele>23.0</ele><time>2026-04-09T14:50:51Z</time></trkpt><trkpt lat="44.157790451051426" lon="9.89507879891743"><ele>23.0</ele><time>2026-04-09T14:50:52Z</time></trkpt><trkpt lat="44.15789583920461" lon="9.89481112600867"><ele>23.0</ele><time>2026-04-09T14:50:53Z</time></trkpt><trkpt lat="44.15799985313702" lon="9.89453814287944"><ele>23.0</ele><time>2026-04-09T14:50:54Z</time></trkpt><trkpt lat="44.15810501214123" lon="9.894261927549634"><ele>23.0</ele><time>2026-04-09T14:50:55Z</time></trkpt><trkpt lat="44.1582124349225" lon="9.893983772988545"><ele>22.666666666666668</ele><time>2026-04-09T14:50:56Z</time></trkpt><trkpt lat="44.15831700918056" lon="9.893709542191552"><ele>22.333333333333332</ele><time>2026-04-09T14:50:57Z</time></trkpt><trkpt lat="44.158417388067456" lon="9.893454041766562"><ele>22.0</ele><time>2026-04-09T14:50:58Z</time></trkpt><trkpt lat="44.158512210704664" lon="9.89320748434758"><ele>21.666666666666664</ele><time>2026-04-09T14:50:59Z</time></trkpt><trkpt lat="44.15860591064501" lon="9.892962991189558"><ele>21.333333333333332</ele><time>2026-04-09T14:51:00Z</time></trkpt><trkpt lat="44.15870249245906" lon="9.89271017539387"><ele>21.0</ele><time>2026-04-09T14:51:01Z</time></trkpt><trkpt lat="44.15880278103337" lon="9.892450208007045"><ele>20.666666666666668</ele><time>2026-04-09T14:51:02Z</time></trkpt><trkpt lat="44.158904626074644" lon="9.89218515112696"><ele>20.333333333333336</ele><time>2026-04-09T14:51:03Z</time></trkpt><trkpt lat="44.15900579269015" lon="9.891928304415126"><ele>20.0</ele><time>2026-04-09T14:51:04Z</time></trkpt><trkpt lat="44.15910481885557" lon="9.891670019265852"><ele>20.333333333333336</ele><time>2026-04-09T14:51:05Z</time></trkpt><trkpt lat="44.15920660730439" lon="9.891401937077323"><ele>20.666666666666668</ele><time>2026-04-09T14:51:06Z</time></trkpt><trkpt lat="44.15931166177522" lon="9.891131829060331"><ele>21.0</ele><time>2026-04-09T14:51:07Z</time></trkpt><trkpt lat="44.159415103230664" lon="9.890861365194594"><ele>21.0</ele><time>2026-04-09T14:51:08Z</time></trkpt><trkpt lat="44.15951465027845" lon="9.890604332780528"><ele>21.0</ele><time>2026-04-09T14:51:09Z</time></trkpt><trkpt lat="44.15961417251198" lon="9.890344000088337"><ele>21.0</ele><time>2026-04-09T14:51:10Z</time></trkpt><trkpt lat="44.15971545923907" lon="9.890078033925729"><ele>21.333333333333332</ele><time>2026-04-09T14:51:11Z</time></trkpt><trkpt lat="44.159813961442126" lon="9.889820343556975"><ele>21.666666666666664</ele><time>2026-04-09T14:51:12Z</time></trkpt><trkpt lat="44.15990828376549" lon="9.889573482626089"><ele>22.0</ele><time>2026-04-09T14:51:13Z</time></trkpt><trkpt lat="44.16000167753614" lon="9.88933086028705"><ele>22.333333333333332</ele><time>2026-04-09T14:51:14Z</time></trkpt><trkpt lat="44.16009823997143" lon="9.88908728830585"><ele>22.666666666666668</ele><time>2026-04-09T14:51:15Z</time></trkpt><trkpt lat="44.16019958303777" lon="9.888831095988127"><ele>23.0</ele><time>2026-04-09T14:51:16Z</time></trkpt><trkpt lat="44.16030391752892" lon="9.888568363425852"><ele>22.0</ele><time>2026-04-09T14:51:17Z</time></trkpt><trkpt lat="44.16040808974104" lon="9.88829531666547"><ele>21.0</ele><time>2026-04-09T14:51:18Z</time></trkpt><trkpt lat="44.160515678600746" lon="9.8880158080149"><ele>20.0</ele><time>2026-04-09T14:51:19Z</time></trkpt><trkpt lat="44.160626125667996" lon="9.887730803164741"><ele>20.666666666666668</ele><time>2026-04-09T14:51:20Z</time></trkpt><trkpt lat="44.160728993198106" lon="9.887459934871865"><ele>21.333333333333332</ele><time>2026-04-09T14:51:21Z</time></trkpt><trkpt lat="44.160829553117466" lon="9.887199896922974"><ele>22.0</ele><time>2026-04-09T14:51:22Z</time></trkpt><trkpt lat="44.16092939967452" lon="9.886937593614372"><ele>21.666666666666664</ele><time>2026-04-09T14:51:23Z</time></trkpt><trkpt lat="44.16103055807218" lon="9.886676115119371"><ele>21.333333333333332</ele><time>2026-04-09T14:51:24Z</time></trkpt><trkpt lat="44.161131899003905" lon="9.886413667709634"><ele>21.0</ele><time>2026-04-09T14:51:25Z</time></trkpt><trkpt lat="44.16123273189485" lon="9.886148756316315"><ele>21.0</ele><time>2026-04-09T14:51:26Z</time></trkpt><trkpt lat="44.16133521988459" lon="9.885884962822137"><ele>21.0</ele><time>2026-04-09T14:51:27Z</time></trkpt><trkpt lat="44.16144041472018" lon="9.885614550626704"><ele>21.0</ele><time>2026-04-09T14:51:28Z</time></trkpt><trkpt lat="44.16155130443004" lon="9.885337996441239"><ele>21.0</ele><time>2026-04-09T14:51:29Z</time></trkpt><trkpt lat="44.16166531679197" lon="9.885061321834495"><ele>21.0</ele><time>2026-04-09T14:51:30Z</time></trkpt><trkpt lat="44.16177666454417" lon="9.884796977032115"><ele>21.0</ele><time>2026-04-09T14:51:31Z</time></trkpt><trkpt lat="44.1618856873996" lon="9.884538398334342"><ele>21.0</ele><time>2026-04-09T14:51:32Z</time></trkpt><trkpt lat="44.16200079971189" lon="9.884277466471058"><ele>21.0</ele><time>2026-04-09T14:51:33Z</time></trkpt><trkpt lat="44.162121666201756" lon="9.884009223259987"><ele>21.0</ele><time>2026-04-09T14:51:34Z</time></trkpt><trkpt lat="44.16225068006512" lon="9.883732947185473"><ele>21.0</ele><time>2026-04-09T14:51:35Z</time></trkpt><trkpt lat="44.16238238418112" lon="9.883448755511035"><ele>21.0</ele><time>2026-04-09T14:51:36Z</time></trkpt><trkpt lat="44.16252513843527" lon="9.88314933699559"><ele>21.0</ele><time>2026-04-09T14:51:37Z</time></trkpt><trkpt lat="44.16267759577772" lon="9.882835194095144"><ele>21.0</ele><time>2026-04-09T14:51:38Z</time></trkpt><trkpt lat="44.1628267458411" lon="9.882528448174366"><ele>22.0</ele><time>2026-04-09T14:51:39Z</time></trkpt><trkpt lat="44.162977747221156" lon="9.882230974500146"><ele>23.0</ele><time>2026-04-09T14:51:40Z</time></trkpt><trkpt lat="44.16313532748864" lon="9.881929424908838"><ele>23.0</ele><time>2026-04-09T14:51:41Z</time></trkpt><trkpt lat="44.16329889759661" lon="9.881623317116945"><ele>23.0</ele><time>2026-04-09T14:51:42Z</time></trkpt><trkpt lat="44.16346585264328" lon="9.881313862110611"><ele>23.0</ele><time>2026-04-09T14:51:43Z</time></trkpt><trkpt lat="44.1636383892546" lon="9.880999778111583"><ele>23.0</ele><time>2026-04-09T14:51:44Z</time></trkpt><trkpt lat="44.16380659121536" lon="9.880705747610232"><ele>22.5</ele><time>2026-04-09T14:51:45Z</time></trkpt><trkpt lat="44.16397440840261" lon="9.880413548395774"><ele>22.0</ele><time>2026-04-09T14:51:46Z</time></trkpt><trkpt lat="44.164149373314004" lon="9.8801155778567"><ele>22.5</ele><time>2026-04-09T14:51:47Z</time></trkpt><trkpt lat="44.164330050739494" lon="9.879816319740375"><ele>23.0</ele><time>2026-04-09T14:51:48Z</time></trkpt><trkpt lat="44.164516987646486" lon="9.879519956405563"><ele>23.0</ele><time>2026-04-09T14:51:49Z</time></trkpt><trkpt lat="44.16470811539611" lon="9.8792200083192"><ele>23.0</ele><time>2026-04-09T14:51:50Z</time></trkpt><trkpt lat="44.164904157195295" lon="9.878920629342165"><ele>23.0</ele><time>2026-04-09T14:51:51Z</time></trkpt><trkpt lat="44.165102397351454" lon="9.878622988496438"><ele>23.0</ele><time>2026-04-09T14:51:52Z</time></trkpt><trkpt lat="44.165301129888455" lon="9.878326607354394"><ele>23.0</ele><time>2026-04-09T14:51:53Z</time></trkpt><trkpt lat="44.1654924907512" lon="9.878044590827523"><ele>23.0</ele><time>2026-04-09T14:51:54Z</time></trkpt><trkpt lat="44.16568767459119" lon="9.877769688120528"><ele>24.0</ele><time>2026-04-09T14:51:55Z</time></trkpt><trkpt lat="44.16588402237146" lon="9.877496727739238"><ele>25.0</ele><time>2026-04-09T14:51:56Z</time></trkpt><trkpt lat="44.166078518104776" lon="9.877224844637857"><ele>25.0</ele><time>2026-04-09T14:51:57Z</time></trkpt><trkpt lat="44.166276970430026" lon="9.876958046168372"><ele>25.0</ele><time>2026-04-09T14:51:58Z</time></trkpt><trkpt lat="44.16647900712927" lon="9.87669064197529"><ele>25.0</ele><time>2026-04-09T14:51:59Z</time></trkpt><trkpt lat="44.16668268828589" lon="9.876424508461195"><ele>25.0</ele><time>2026-04-09T14:51:59.999Z</time></trkpt><trkpt lat="44.166887396672806" lon="9.876160864706618"><ele>24.0</ele><time>2026-04-09T14:52:00.999Z</time></trkpt><trkpt lat="44.16709571128734" lon="9.875902089792906"><ele>23.0</ele><time>2026-04-09T14:52:01.999Z</time></trkpt><trkpt lat="44.16730570157712" lon="9.875645100831665"><ele>23.5</ele><time>2026-04-09T14:52:02.999Z</time></trkpt><trkpt lat="44.16751817415208" lon="9.875389931825817"><ele>24.0</ele><time>2026-04-09T14:52:03.999Z</time></trkpt><trkpt lat="44.16773291780878" lon="9.875137631890192"><ele>24.0</ele><time>2026-04-09T14:52:04.999Z</time></trkpt><trkpt lat="44.167950541994216" lon="9.874887927806986"><ele>24.0</ele><time>2026-04-09T14:52:05.999Z</time></trkpt><trkpt lat="44.168171945479514" lon="9.874639591204035"><ele>25.0</ele><time>2026-04-09T14:52:06.999Z</time></trkpt><trkpt lat="44.16839550347176" lon="9.874392286082372"><ele>26.0</ele><time>2026-04-09T14:52:07.999Z</time></trkpt><trkpt lat="44.16862623132753" lon="9.874145656922316"><ele>26.0</ele><time>2026-04-09T14:52:08.999Z</time></trkpt><trkpt lat="44.16886141027822" lon="9.873902551997105"><ele>26.0</ele><time>2026-04-09T14:52:09.999Z</time></trkpt><trkpt lat="44.16910081431131" lon="9.87365786832539"><ele>26.0</ele><time>2026-04-09T14:52:10.999Z</time></trkpt><trkpt lat="44.16934234119623" lon="9.87341520843969"><ele>26.0</ele><time>2026-04-09T14:52:11.999Z</time></trkpt><trkpt lat="44.16958562574245" lon="9.873174139981453"><ele>26.0</ele><time>2026-04-09T14:52:12.999Z</time></trkpt><trkpt lat="44.16983404575964" lon="9.87293605057559"><ele>26.0</ele><time>2026-04-09T14:52:13.999Z</time></trkpt><trkpt lat="44.17008567935471" lon="9.872701515028739"><ele>26.0</ele><time>2026-04-09T14:52:14.999Z</time></trkpt><trkpt lat="44.170326327171296" lon="9.87248090550942"><ele>26.0</ele><time>2026-04-09T14:52:15.999Z</time></trkpt><trkpt lat="44.17056008950739" lon="9.87227395733961"><ele>26.0</ele><time>2026-04-09T14:52:16.999Z</time></trkpt><trkpt lat="44.17079033420576" lon="9.872069715737325"><ele>26.0</ele><time>2026-04-09T14:52:17.999Z</time></trkpt><trkpt lat="44.171020605570405" lon="9.871872233076232"><ele>26.0</ele><time>2026-04-09T14:52:18.999Z</time></trkpt><trkpt lat="44.17125290617928" lon="9.871680969318993"><ele>26.0</ele><time>2026-04-09T14:52:19.999Z</time></trkpt><trkpt lat="44.17148606065293" lon="9.871496186267617"><ele>26.0</ele><time>2026-04-09T14:52:20.999Z</time></trkpt><trkpt lat="44.17171837339178" lon="9.871312270249206"><ele>26.0</ele><time>2026-04-09T14:52:21.999Z</time></trkpt><trkpt lat="44.171952024158955" lon="9.871132804767132"><ele>26.0</ele><time>2026-04-09T14:52:22.999Z</time></trkpt><trkpt lat="44.17218820437478" lon="9.870956035248735"><ele>26.0</ele><time>2026-04-09T14:52:23.999Z</time></trkpt><trkpt lat="44.172424715533275" lon="9.870780120979742"><ele>26.0</ele><time>2026-04-09T14:52:24.999Z</time></trkpt><trkpt lat="44.17266215997369" lon="9.870605501746857"><ele>26.0</ele><time>2026-04-09T14:52:25.999Z</time></trkpt><trkpt lat="44.172901514974825" lon="9.870432681105727"><ele>26.0</ele><time>2026-04-09T14:52:26.999Z</time></trkpt><trkpt lat="44.17314364419262" lon="9.870262099097895"><ele>26.0</ele><time>2026-04-09T14:52:27.999Z</time></trkpt><trkpt lat="44.173384597101524" lon="9.87009033160143"><ele>26.0</ele><time>2026-04-09T14:52:28.999Z</time></trkpt><trkpt lat="44.173625246339256" lon="9.869918177544093"><ele>26.0</ele><time>2026-04-09T14:52:29.999Z</time></trkpt><trkpt lat="44.17386802430191" lon="9.869745838065887"><ele>26.5</ele><time>2026-04-09T14:52:30.999Z</time></trkpt><trkpt lat="44.174108981708216" lon="9.869573299533565"><ele>27.0</ele><time>2026-04-09T14:52:31.999Z</time></trkpt><trkpt lat="44.17434893785958" lon="9.869399987177516"><ele>27.0</ele><time>2026-04-09T14:52:32.999Z</time></trkpt><trkpt lat="44.174591035474556" lon="9.869227182474582"><ele>27.0</ele><time>2026-04-09T14:52:33.999Z</time></trkpt><trkpt lat="44.17483261700195" lon="9.869058830536217"><ele>28.0</ele><time>2026-04-09T14:52:34.999Z</time></trkpt><trkpt lat="44.175073785154936" lon="9.868886800053238"><ele>29.0</ele><time>2026-04-09T14:52:35.999Z</time></trkpt><trkpt lat="44.17531368472303" lon="9.86871405839831"><ele>29.0</ele><time>2026-04-09T14:52:36.999Z</time></trkpt><trkpt lat="44.17555286286287" lon="9.868542683537658"><ele>29.0</ele><time>2026-04-09T14:52:37.999Z</time></trkpt><trkpt lat="44.17579333530368" lon="9.868371813367535"><ele>29.0</ele><time>2026-04-09T14:52:38.999Z</time></trkpt><trkpt lat="44.17603149288413" lon="9.86820183875415"><ele>29.0</ele><time>2026-04-09T14:52:39.999Z</time></trkpt><trkpt lat="44.176270780133734" lon="9.868031910479367"><ele>29.0</ele><time>2026-04-09T14:52:40.999Z</time></trkpt><trkpt lat="44.17650982342289" lon="9.867860853158422"><ele>29.0</ele><time>2026-04-09T14:52:41.999Z</time></trkpt><trkpt lat="44.17674797815603" lon="9.867690805916983"><ele>29.0</ele><time>2026-04-09T14:52:42.999Z</time></trkpt><trkpt lat="44.176986543813065" lon="9.867523544400761"><ele>29.0</ele><time>2026-04-09T14:52:43.999Z</time></trkpt><trkpt lat="44.177225077365" lon="9.86735377162478"><ele>29.5</ele><time>2026-04-09T14:52:44.999Z</time></trkpt><trkpt lat="44.17746380407584" lon="9.86718346029586"><ele>30.0</ele><time>2026-04-09T14:52:45.999Z</time></trkpt><trkpt lat="44.177702634585046" lon="9.867010034044332"><ele>30.0</ele><time>2026-04-09T14:52:46.999Z</time></trkpt><trkpt lat="44.17794196740121" lon="9.866834475519516"><ele>30.0</ele><time>2026-04-09T14:52:47.999Z</time></trkpt><trkpt lat="44.17818395638159" lon="9.866661639889854"><ele>30.5</ele><time>2026-04-09T14:52:48.999Z</time></trkpt><trkpt lat="44.178428236386594" lon="9.86648762732273"><ele>31.0</ele><time>2026-04-09T14:52:49.999Z</time></trkpt><trkpt lat="44.17867530108595" lon="9.866313197025557"><ele>31.0</ele><time>2026-04-09T14:52:51Z</time></trkpt><trkpt lat="44.17892397113167" lon="9.866134663576094"><ele>31.0</ele><time>2026-04-09T14:52:52Z</time></trkpt><trkpt lat="44.179176757432494" lon="9.865955982988515"><ele>33.0</ele><time>2026-04-09T14:52:53Z</time></trkpt><trkpt lat="44.17943226549196" lon="9.865776329768982"><ele>35.0</ele><time>2026-04-09T14:52:54Z</time></trkpt><trkpt lat="44.17968902712765" lon="9.865596058758403"><ele>34.0</ele><time>2026-04-09T14:52:55Z</time></trkpt><trkpt lat="44.179946403202024" lon="9.865413396657381"><ele>33.0</ele><time>2026-04-09T14:52:56Z</time></trkpt><trkpt lat="44.18020549770326" lon="9.865229454368183"><ele>33.0</ele><time>2026-04-09T14:52:57Z</time></trkpt><trkpt lat="44.18046763974574" lon="9.865044052714719"><ele>33.0</ele><time>2026-04-09T14:52:58Z</time></trkpt><trkpt lat="44.18072957220339" lon="9.864858762866461"><ele>35.5</ele><time>2026-04-09T14:52:59Z</time></trkpt><trkpt lat="44.18099138820106" lon="9.864671294913434"><ele>38.0</ele><time>2026-04-09T14:53:00Z</time></trkpt><trkpt lat="44.181253970644356" lon="9.864485529791473"><ele>37.0</ele><time>2026-04-09T14:53:01Z</time></trkpt><trkpt lat="44.18152029078986" lon="9.8643011638676"><ele>36.0</ele><time>2026-04-09T14:53:02Z</time></trkpt><trkpt lat="44.181789858140945" lon="9.864118696656922"><ele>36.0</ele><time>2026-04-09T14:53:03Z</time></trkpt><trkpt lat="44.182062355877044" lon="9.863947429783492"><ele>36.0</ele><time>2026-04-09T14:53:04Z</time></trkpt><trkpt lat="44.18233822849607" lon="9.863782591310228"><ele>38.5</ele><time>2026-04-09T14:53:05Z</time></trkpt><trkpt lat="44.18261787344663" lon="9.863622604899275"><ele>41.0</ele><time>2026-04-09T14:53:06Z</time></trkpt><trkpt lat="44.1828986012814" lon="9.863468628880128"><ele>38.5</ele><time>2026-04-09T14:53:07Z</time></trkpt><trkpt lat="44.183180112027785" lon="9.863317486149661"><ele>36.0</ele><time>2026-04-09T14:53:08Z</time></trkpt><trkpt lat="44.183465050276624" lon="9.863172231567525"><ele>41.0</ele><time>2026-04-09T14:53:09Z</time></trkpt><trkpt lat="44.183750575584654" lon="9.863032397613681"><ele>46.0</ele><time>2026-04-09T14:53:10Z</time></trkpt><trkpt lat="44.18403820041283" lon="9.862898167853292"><ele>49.5</ele><time>2026-04-09T14:53:11Z</time></trkpt><trkpt lat="44.18432564017464" lon="9.862764923118698"><ele>53.0</ele><time>2026-04-09T14:53:12Z</time></trkpt><trkpt lat="44.18461005082319" lon="9.862631646996109"><ele>43.5</ele><time>2026-04-09T14:53:13Z</time></trkpt><trkpt lat="44.184897595589185" lon="9.862500218552501"><ele>34.0</ele><time>2026-04-09T14:53:14Z</time></trkpt><trkpt lat="44.18518318292631" lon="9.862367452844277"><ele>34.0</ele><time>2026-04-09T14:53:15Z</time></trkpt><trkpt lat="44.185470995289116" lon="9.86223906035985"><ele>34.0</ele><time>2026-04-09T14:53:16Z</time></trkpt><trkpt lat="44.185756908153685" lon="9.862112748766005"><ele>34.5</ele><time>2026-04-09T14:53:17Z</time></trkpt><trkpt lat="44.186042584823895" lon="9.861985710318612"><ele>35.0</ele><time>2026-04-09T14:53:18Z</time></trkpt><trkpt lat="44.18632989607935" lon="9.86185870829333"><ele>34.5</ele><time>2026-04-09T14:53:19Z</time></trkpt><trkpt lat="44.18661611882584" lon="9.861731115661117"><ele>34.0</ele><time>2026-04-09T14:53:20Z</time></trkpt><trkpt lat="44.18690213706882" lon="9.861604007456165"><ele>34.0</ele><time>2026-04-09T14:53:21Z</time></trkpt><trkpt lat="44.18718670523807" lon="9.861477379718856"><ele>34.0</ele><time>2026-04-09T14:53:22Z</time></trkpt><trkpt lat="44.18747208605838" lon="9.861351819004053"><ele>34.5</ele><time>2026-04-09T14:53:23Z</time></trkpt><trkpt lat="44.18776018347093" lon="9.861222150162716"><ele>35.0</ele><time>2026-04-09T14:53:24Z</time></trkpt><trkpt lat="44.18805393868679" lon="9.861092660622916"><ele>35.0</ele><time>2026-04-09T14:53:25Z</time></trkpt><trkpt lat="44.18835081388333" lon="9.860965589286272"><ele>35.0</ele><time>2026-04-09T14:53:26Z</time></trkpt><trkpt lat="44.18865100539013" lon="9.860832446198737"><ele>35.0</ele><time>2026-04-09T14:53:27Z</time></trkpt><trkpt lat="44.18895306063492" lon="9.860698136334003"><ele>35.0</ele><time>2026-04-09T14:53:28Z</time></trkpt><trkpt lat="44.18925789285587" lon="9.860563762174895"><ele>35.0</ele><time>2026-04-09T14:53:29Z</time></trkpt><trkpt lat="44.18956434965658" lon="9.860428896231115"><ele>35.0</ele><time>2026-04-09T14:53:30Z</time></trkpt><trkpt lat="44.18986753327958" lon="9.860290635568093"><ele>35.5</ele><time>2026-04-09T14:53:31Z</time></trkpt><trkpt lat="44.19017075640138" lon="9.860154596437015"><ele>36.0</ele><time>2026-04-09T14:53:32Z</time></trkpt><trkpt lat="44.190475208981155" lon="9.860017771810384"><ele>37.0</ele><time>2026-04-09T14:53:33Z</time></trkpt><trkpt lat="44.19078044320974" lon="9.859879973649655"><ele>38.0</ele><time>2026-04-09T14:53:34Z</time></trkpt><trkpt lat="44.191086472454515" lon="9.859743059248459"><ele>38.0</ele><time>2026-04-09T14:53:35Z</time></trkpt><trkpt lat="44.19139047141594" lon="9.85960657317965"><ele>38.0</ele><time>2026-04-09T14:53:36Z</time></trkpt><trkpt lat="44.19169284666194" lon="9.859468953310277"><ele>38.0</ele><time>2026-04-09T14:53:37Z</time></trkpt><trkpt lat="44.191996030159025" lon="9.8593339041854"><ele>38.0</ele><time>2026-04-09T14:53:38Z</time></trkpt><trkpt lat="44.19230004308233" lon="9.859200784789401"><ele>38.5</ele><time>2026-04-09T14:53:39Z</time></trkpt><trkpt lat="44.19259355306054" lon="9.859073200503428"><ele>39.0</ele><time>2026-04-09T14:53:40Z</time></trkpt><trkpt lat="44.19286729048278" lon="9.858956646323222"><ele>39.0</ele><time>2026-04-09T14:53:41Z</time></trkpt><trkpt lat="44.193131374278835" lon="9.858850385889944"><ele>39.0</ele><time>2026-04-09T14:53:42Z</time></trkpt><trkpt lat="44.19339241652057" lon="9.858744010873238"><ele>41.0</ele><time>2026-04-09T14:53:43Z</time></trkpt><trkpt lat="44.19365066999598" lon="9.858636712639761"><ele>43.0</ele><time>2026-04-09T14:53:44Z</time></trkpt><trkpt lat="44.19390751741597" lon="9.858522613245146"><ele>43.5</ele><time>2026-04-09T14:53:45Z</time></trkpt><trkpt lat="44.19416478580442" lon="9.858407760037908"><ele>44.0</ele><time>2026-04-09T14:53:46Z</time></trkpt><trkpt lat="44.19442664666195" lon="9.858291109751072"><ele>44.0</ele><time>2026-04-09T14:53:47Z</time></trkpt><trkpt lat="44.19468716882685" lon="9.858172466313606"><ele>44.0</ele><time>2026-04-09T14:53:48Z</time></trkpt><trkpt lat="44.19494820115872" lon="9.858054949877456"><ele>43.0</ele><time>2026-04-09T14:53:49Z</time></trkpt><trkpt lat="44.19519328113794" lon="9.857940382232675"><ele>42.0</ele><time>2026-04-09T14:53:50Z</time></trkpt><trkpt lat="44.19542509146976" lon="9.857824896632183"><ele>42.0</ele><time>2026-04-09T14:53:51Z</time></trkpt><trkpt lat="44.19565555865003" lon="9.857700769013228"><ele>42.0</ele><time>2026-04-09T14:53:52Z</time></trkpt><trkpt lat="44.19588434471203" lon="9.857557601260604"><ele>43.0</ele><time>2026-04-09T14:53:53Z</time></trkpt><trkpt lat="44.19610605714057" lon="9.857394537456104"><ele>44.0</ele><time>2026-04-09T14:53:54Z</time></trkpt><trkpt lat="44.1963226569198" lon="9.857210015344025"><ele>45.0</ele><time>2026-04-09T14:53:55Z</time></trkpt><trkpt lat="44.19653930430783" lon="9.85700818024034"><ele>46.0</ele><time>2026-04-09T14:53:56Z</time></trkpt><trkpt lat="44.19674712370187" lon="9.856791883563773"><ele>44.0</ele><time>2026-04-09T14:53:57Z</time></trkpt><trkpt lat="44.19694487056951" lon="9.856553368178858"><ele>42.0</ele><time>2026-04-09T14:53:58Z</time></trkpt><trkpt lat="44.19713538651133" lon="9.856308572878797"><ele>42.0</ele><time>2026-04-09T14:53:59Z</time></trkpt><trkpt lat="44.19731735909839" lon="9.856047087464662"><ele>42.0</ele><time>2026-04-09T14:54:00Z</time></trkpt><trkpt lat="44.19748932023704" lon="9.855770944427297"><ele>42.5</ele><time>2026-04-09T14:54:01Z</time></trkpt><trkpt lat="44.19765022252864" lon="9.855480765959362"><ele>43.0</ele><time>2026-04-09T14:54:02Z</time></trkpt><trkpt lat="44.19780023219877" lon="9.855178253676257"><ele>43.0</ele><time>2026-04-09T14:54:03Z</time></trkpt><trkpt lat="44.19793632859563" lon="9.854866210305126"><ele>43.0</ele><time>2026-04-09T14:54:04Z</time></trkpt><trkpt lat="44.19806085324367" lon="9.854545776641872"><ele>45.0</ele><time>2026-04-09T14:54:05Z</time></trkpt><trkpt lat="44.19816989596213" lon="9.854217492854655"><ele>47.0</ele><time>2026-04-09T14:54:06Z</time></trkpt><trkpt lat="44.198260318896814" lon="9.85390290174028"><ele>47.0</ele><time>2026-04-09T14:54:06.999Z</time></trkpt><trkpt lat="44.19833300880594" lon="9.85358837153217"><ele>47.0</ele><time>2026-04-09T14:54:07.999Z</time></trkpt><trkpt lat="44.1984012468504" lon="9.853270252994465"><ele>45.0</ele><time>2026-04-09T14:54:08.999Z</time></trkpt><trkpt lat="44.19845864403665" lon="9.85294935230833"><ele>43.0</ele><time>2026-04-09T14:54:09.999Z</time></trkpt><trkpt lat="44.19850553460511" lon="9.852624014078737"><ele>42.5</ele><time>2026-04-09T14:54:10.999Z</time></trkpt><trkpt lat="44.198548095321776" lon="9.852292446063595"><ele>42.0</ele><time>2026-04-09T14:54:11.999Z</time></trkpt><trkpt lat="44.19858296680901" lon="9.851961029090806"><ele>41.0</ele><time>2026-04-09T14:54:12.999Z</time></trkpt><trkpt lat="44.19861671241066" lon="9.851619052458252"><ele>40.0</ele><time>2026-04-09T14:54:13.999Z</time></trkpt><trkpt lat="44.198654171530386" lon="9.851271436537928"><ele>38.5</ele><time>2026-04-09T14:54:14.999Z</time></trkpt><trkpt lat="44.19869266020483" lon="9.85091434563197"><ele>37.0</ele><time>2026-04-09T14:54:15.999Z</time></trkpt><trkpt lat="44.19872964862006" lon="9.850551034806761"><ele>37.0</ele><time>2026-04-09T14:54:16.999Z</time></trkpt><trkpt lat="44.19876736703177" lon="9.850181652045697"><ele>37.0</ele><time>2026-04-09T14:54:17.999Z</time></trkpt><trkpt lat="44.19880963040327" lon="9.84980790658077"><ele>37.5</ele><time>2026-04-09T14:54:18.999Z</time></trkpt><trkpt lat="44.198854965655386" lon="9.849430537231068"><ele>38.0</ele><time>2026-04-09T14:54:19.999Z</time></trkpt><trkpt lat="44.19890111329421" lon="9.849049557634553"><ele>38.0</ele><time>2026-04-09T14:54:20.999Z</time></trkpt><trkpt lat="44.19894895078292" lon="9.848664613046603"><ele>38.0</ele><time>2026-04-09T14:54:21.999Z</time></trkpt><trkpt lat="44.19899575152879" lon="9.848273920714478"><ele>43.5</ele><time>2026-04-09T14:54:22.999Z</time></trkpt><trkpt lat="44.199040322014795" lon="9.847881530567438"><ele>49.0</ele><time>2026-04-09T14:54:23.999Z</time></trkpt><trkpt lat="44.19908525783451" lon="9.847489082494684"><ele>49.0</ele><time>2026-04-09T14:54:24.999Z</time></trkpt><trkpt lat="44.19913002586594" lon="9.847091636013406"><ele>49.0</ele><time>2026-04-09T14:54:25.999Z</time></trkpt><trkpt lat="44.19917615638923" lon="9.846691316966991"><ele>47.5</ele><time>2026-04-09T14:54:26.999Z</time></trkpt><trkpt lat="44.19922360946597" lon="9.846286488065559"><ele>46.0</ele><time>2026-04-09T14:54:27.999Z</time></trkpt><trkpt lat="44.19926798357158" lon="9.845886470060503"><ele>45.5</ele><time>2026-04-09T14:54:28.999Z</time></trkpt><trkpt lat="44.19931518243271" lon="9.845498267673603"><ele>45.0</ele><time>2026-04-09T14:54:29.999Z</time></trkpt><trkpt lat="44.199361526718036" lon="9.845107889241449"><ele>44.5</ele><time>2026-04-09T14:54:30.999Z</time></trkpt><trkpt lat="44.1994060500973" lon="9.844716435530959"><ele>44.0</ele><time>2026-04-09T14:54:31.999Z</time></trkpt><trkpt lat="44.19945527075651" lon="9.844322100593294"><ele>44.5</ele><time>2026-04-09T14:54:32.999Z</time></trkpt><trkpt lat="44.19949846108734" lon="9.843927968023097"><ele>45.0</ele><time>2026-04-09T14:54:33.999Z</time></trkpt><trkpt lat="44.19954578821543" lon="9.843532048794772"><ele>44.0</ele><time>2026-04-09T14:54:34.999Z</time></trkpt><trkpt lat="44.19959131852727" lon="9.843135100721284"><ele>43.0</ele><time>2026-04-09T14:54:35.999Z</time></trkpt><trkpt lat="44.1996347094197" lon="9.842737163330318"><ele>42.5</ele><time>2026-04-09T14:54:36.999Z</time></trkpt><trkpt lat="44.19967170152897" lon="9.84233949771313"><ele>42.0</ele><time>2026-04-09T14:54:37.999Z</time></trkpt><trkpt lat="44.199701300348394" lon="9.84194276380144"><ele>43.0</ele><time>2026-04-09T14:54:38.999Z</time></trkpt><trkpt lat="44.19972374558022" lon="9.841545914871547"><ele>44.0</ele><time>2026-04-09T14:54:39.999Z</time></trkpt><trkpt lat="44.199743057081726" lon="9.84114955292461"><ele>44.0</ele><time>2026-04-09T14:54:40.999Z</time></trkpt><trkpt lat="44.19975654029353" lon="9.840757268621392"><ele>44.0</ele><time>2026-04-09T14:54:41.999Z</time></trkpt><trkpt lat="44.199762553330935" lon="9.840362633519218"><ele>43.5</ele><time>2026-04-09T14:54:42.999Z</time></trkpt><trkpt lat="44.199763895335074" lon="9.839969687615236"><ele>43.0</ele><time>2026-04-09T14:54:43.999Z</time></trkpt><trkpt lat="44.19975817228625" lon="9.839576997667587"><ele>43.5</ele><time>2026-04-09T14:54:44.999Z</time></trkpt><trkpt lat="44.19974539507594" lon="9.839182909526627"><ele>44.0</ele><time>2026-04-09T14:54:45.999Z</time></trkpt><trkpt lat="44.199733498089984" lon="9.838789416541278"><ele>43.5</ele><time>2026-04-09T14:54:46.999Z</time></trkpt><trkpt lat="44.19970576486456" lon="9.838388668455256"><ele>43.0</ele><time>2026-04-09T14:54:47.999Z</time></trkpt><trkpt lat="44.19968393571002" lon="9.837991142259026"><ele>44.0</ele><time>2026-04-09T14:54:48.999Z</time></trkpt><trkpt lat="44.19966174500078" lon="9.837593604525019"><ele>45.0</ele><time>2026-04-09T14:54:49.999Z</time></trkpt><trkpt lat="44.1996345219897" lon="9.83719290914495"><ele>45.0</ele><time>2026-04-09T14:54:50.999Z</time></trkpt><trkpt lat="44.199614131774425" lon="9.836790810365311"><ele>45.0</ele><time>2026-04-09T14:54:51.999Z</time></trkpt><trkpt lat="44.19959575085381" lon="9.836387542046898"><ele>45.0</ele><time>2026-04-09T14:54:52.999Z</time></trkpt><trkpt lat="44.19957868219942" lon="9.835985009737378"><ele>45.0</ele><time>2026-04-09T14:54:53.999Z</time></trkpt><trkpt lat="44.19955889363208" lon="9.835583888780638"><ele>45.0</ele><time>2026-04-09T14:54:54.999Z</time></trkpt><trkpt lat="44.19953726345703" lon="9.8351803386985"><ele>45.0</ele><time>2026-04-09T14:54:55.999Z</time></trkpt><trkpt lat="44.19951310332234" lon="9.834783183956159"><ele>45.0</ele><time>2026-04-09T14:54:57Z</time></trkpt><trkpt lat="44.199488033957664" lon="9.83441032654616"><ele>45.0</ele><time>2026-04-09T14:54:58Z</time></trkpt><trkpt lat="44.19946505261538" lon="9.834042885486085"><ele>45.5</ele><time>2026-04-09T14:54:59Z</time></trkpt><trkpt lat="44.19943899671205" lon="9.833670008433693"><ele>46.0</ele><time>2026-04-09T14:55:00Z</time></trkpt><trkpt lat="44.19941300104187" lon="9.833295129751429"><ele>47.0</ele><time>2026-04-09T14:55:01Z</time></trkpt><trkpt lat="44.199389209277385" lon="9.83291820539481"><ele>48.0</ele><time>2026-04-09T14:55:02Z</time></trkpt><trkpt lat="44.19936557862116" lon="9.832536883150572"><ele>49.0</ele><time>2026-04-09T14:55:03Z</time></trkpt><trkpt lat="44.199344970635934" lon="9.832153014777171"><ele>50.0</ele><time>2026-04-09T14:55:04Z</time></trkpt><trkpt lat="44.1993215119013" lon="9.831769720691714"><ele>51.5</ele><time>2026-04-09T14:55:05Z</time></trkpt><trkpt lat="44.199297262758876" lon="9.831384257485643"><ele>53.0</ele><time>2026-04-09T14:55:06Z</time></trkpt><trkpt lat="44.19927332314798" lon="9.83099608576054"><ele>53.5</ele><time>2026-04-09T14:55:07Z</time></trkpt><trkpt lat="44.199248552857775" lon="9.830604076848028"><ele>54.0</ele><time>2026-04-09T14:55:08Z</time></trkpt><trkpt lat="44.19922404594467" lon="9.830216280626207"><ele>53.5</ele><time>2026-04-09T14:55:09Z</time></trkpt><trkpt lat="44.19919754718079" lon="9.82982633610867"><ele>53.0</ele><time>2026-04-09T14:55:10Z</time></trkpt><trkpt lat="44.19917073835022" lon="9.829436815010258"><ele>53.5</ele><time>2026-04-09T14:55:11Z</time></trkpt><trkpt lat="44.19914584364593" lon="9.829047466540533"><ele>54.0</ele><time>2026-04-09T14:55:12Z</time></trkpt><trkpt lat="44.199121343743165" lon="9.828655382475448"><ele>54.5</ele><time>2026-04-09T14:55:13Z</time></trkpt><trkpt lat="44.19909782908706" lon="9.828265092275878"><ele>55.0</ele><time>2026-04-09T14:55:14Z</time></trkpt><trkpt lat="44.19907685655813" lon="9.827876251385955"><ele>57.0</ele><time>2026-04-09T14:55:15Z</time></trkpt><trkpt lat="44.199054465866354" lon="9.827486229550944"><ele>59.0</ele><time>2026-04-09T14:55:16Z</time></trkpt><trkpt lat="44.199030229924" lon="9.82709831112711"><ele>57.5</ele><time>2026-04-09T14:55:17Z</time></trkpt><trkpt lat="44.1990046674943" lon="9.826707596102482"><ele>56.0</ele><time>2026-04-09T14:55:18Z</time></trkpt><trkpt lat="44.1989795125389" lon="9.826320915589768"><ele>53.5</ele><time>2026-04-09T14:55:19Z</time></trkpt><trkpt lat="44.19895246212168" lon="9.825933658351161"><ele>51.0</ele><time>2026-04-09T14:55:20Z</time></trkpt><trkpt lat="44.19892814710857" lon="9.825549605537722"><ele>51.0</ele><time>2026-04-09T14:55:21Z</time></trkpt><trkpt lat="44.19890302403069" lon="9.825163788779683"><ele>51.0</ele><time>2026-04-09T14:55:22Z</time></trkpt><trkpt lat="44.1988778671406" lon="9.824773689816247"><ele>51.0</ele><time>2026-04-09T14:55:23Z</time></trkpt><trkpt lat="44.19885263338013" lon="9.82438323905058"><ele>51.0</ele><time>2026-04-09T14:55:24Z</time></trkpt><trkpt lat="44.19882871041288" lon="9.823993035005206"><ele>50.5</ele><time>2026-04-09T14:55:25Z</time></trkpt><trkpt lat="44.19880349836689" lon="9.823600711764556"><ele>50.0</ele><time>2026-04-09T14:55:26Z</time></trkpt><trkpt lat="44.198780614467566" lon="9.823211464983707"><ele>50.0</ele><time>2026-04-09T14:55:27Z</time></trkpt><trkpt lat="44.19875402623042" lon="9.822819546343307"><ele>50.0</ele><time>2026-04-09T14:55:28Z</time></trkpt><trkpt lat="44.19872879768717" lon="9.822425476381644"><ele>50.5</ele><time>2026-04-09T14:55:29Z</time></trkpt><trkpt lat="44.19870127557354" lon="9.822033732306142"><ele>51.0</ele><time>2026-04-09T14:55:30Z</time></trkpt><trkpt lat="44.1986769234723" lon="9.82164143386967"><ele>51.0</ele><time>2026-04-09T14:55:31Z</time></trkpt><trkpt lat="44.1986552421262" lon="9.821250467946712"><ele>51.0</ele><time>2026-04-09T14:55:32Z</time></trkpt><trkpt lat="44.19862884506691" lon="9.820858751274882"><ele>51.5</ele><time>2026-04-09T14:55:33Z</time></trkpt><trkpt lat="44.19860581467034" lon="9.820467126820882"><ele>52.0</ele><time>2026-04-09T14:55:34Z</time></trkpt><trkpt lat="44.19858110480794" lon="9.82007227479182"><ele>53.5</ele><time>2026-04-09T14:55:35Z</time></trkpt><trkpt lat="44.19855811091981" lon="9.819679031994392"><ele>55.0</ele><time>2026-04-09T14:55:36Z</time></trkpt><trkpt lat="44.19853266043116" lon="9.819285187165663"><ele>56.5</ele><time>2026-04-09T14:55:37Z</time></trkpt><trkpt lat="44.1985055134955" lon="9.818890848226594"><ele>58.0</ele><time>2026-04-09T14:55:38Z</time></trkpt><trkpt lat="44.19848096362032" lon="9.81849780409853"><ele>56.0</ele><time>2026-04-09T14:55:39Z</time></trkpt><trkpt lat="44.198456885169215" lon="9.818103087947572"><ele>54.0</ele><time>2026-04-09T14:55:40Z</time></trkpt><trkpt lat="44.19843407590487" lon="9.817710250604536"><ele>52.5</ele><time>2026-04-09T14:55:41Z</time></trkpt><trkpt lat="44.19841019617536" lon="9.817316508438287"><ele>51.0</ele><time>2026-04-09T14:55:42Z</time></trkpt><trkpt lat="44.19838437416286" lon="9.816924294353345"><ele>52.0</ele><time>2026-04-09T14:55:43Z</time></trkpt><trkpt lat="44.19835813548253" lon="9.816541715218372"><ele>53.0</ele><time>2026-04-09T14:55:44Z</time></trkpt><trkpt lat="44.1983320238645" lon="9.816157381867487"><ele>52.5</ele><time>2026-04-09T14:55:45Z</time></trkpt><trkpt lat="44.19830768468891" lon="9.81577950717218"><ele>52.0</ele><time>2026-04-09T14:55:46Z</time></trkpt><trkpt lat="44.198278753649205" lon="9.815423318040665"><ele>51.5</ele><time>2026-04-09T14:55:47Z</time></trkpt><trkpt lat="44.19826523823669" lon="9.815077231552895"><ele>51.0</ele><time>2026-04-09T14:55:48Z</time></trkpt><trkpt lat="44.198251147070415" lon="9.814719359702252"><ele>51.0</ele><time>2026-04-09T14:55:49Z</time></trkpt><trkpt lat="44.198241054985594" lon="9.814355223448725"><ele>51.0</ele><time>2026-04-09T14:55:50Z</time></trkpt><trkpt lat="44.19824178977255" lon="9.813985415701238"><ele>51.0</ele><time>2026-04-09T14:55:51Z</time></trkpt><trkpt lat="44.198261220349984" lon="9.813609092628353"><ele>51.0</ele><time>2026-04-09T14:55:52Z</time></trkpt><trkpt lat="44.1982935044948" lon="9.813240274387304"><ele>51.5</ele><time>2026-04-09T14:55:53Z</time></trkpt><trkpt lat="44.19834145112847" lon="9.812884130364624"><ele>52.0</ele><time>2026-04-09T14:55:54Z</time></trkpt><trkpt lat="44.19840941411032" lon="9.812522321422737"><ele>53.0</ele><time>2026-04-09T14:55:55Z</time></trkpt><trkpt lat="44.19849329340672" lon="9.812156557144714"><ele>54.0</ele><time>2026-04-09T14:55:56Z</time></trkpt><trkpt lat="44.198587534162876" lon="9.81182115915805"><ele>54.0</ele><time>2026-04-09T14:55:57Z</time></trkpt><trkpt lat="44.19869370052029" lon="9.811499829320534"><ele>54.0</ele><time>2026-04-09T14:55:58Z</time></trkpt><trkpt lat="44.19882162057885" lon="9.811175397094583"><ele>54.0</ele><time>2026-04-09T14:55:59Z</time></trkpt><trkpt lat="44.198969127661435" lon="9.810851835394109"><ele>54.0</ele><time>2026-04-09T14:56:00Z</time></trkpt><trkpt lat="44.1991282098919" lon="9.81051317417512"><ele>55.5</ele><time>2026-04-09T14:56:01Z</time></trkpt><trkpt lat="44.199305175715686" lon="9.810168496854631"><ele>57.0</ele><time>2026-04-09T14:56:02Z</time></trkpt><trkpt lat="44.199487415459295" lon="9.809799761612386"><ele>57.5</ele><time>2026-04-09T14:56:03Z</time></trkpt><trkpt lat="44.199677306205345" lon="9.80941754447916"><ele>58.0</ele><time>2026-04-09T14:56:04Z</time></trkpt><trkpt lat="44.199860976403876" lon="9.80904550471588"><ele>57.5</ele><time>2026-04-09T14:56:05Z</time></trkpt><trkpt lat="44.20003124814999" lon="9.808702236730204"><ele>57.0</ele><time>2026-04-09T14:56:06Z</time></trkpt><trkpt lat="44.200194630844315" lon="9.808381935225006"><ele>57.0</ele><time>2026-04-09T14:56:07Z</time></trkpt><trkpt lat="44.20035638595496" lon="9.808056731007683"><ele>57.0</ele><time>2026-04-09T14:56:08Z</time></trkpt><trkpt lat="44.20051512511685" lon="9.807738590291775"><ele>61.0</ele><time>2026-04-09T14:56:09Z</time></trkpt><trkpt lat="44.20067073468608" lon="9.80742429369636"><ele>65.0</ele><time>2026-04-09T14:56:10Z</time></trkpt><trkpt lat="44.20082158119917" lon="9.807115577438996"><ele>61.5</ele><time>2026-04-09T14:56:10.999Z</time></trkpt><trkpt lat="44.20096958664531" lon="9.806812819956575"><ele>58.0</ele><time>2026-04-09T14:56:11.999Z</time></trkpt><trkpt lat="44.20111679068826" lon="9.806511332189874"><ele>58.0</ele><time>2026-04-09T14:56:12.999Z</time></trkpt><trkpt lat="44.201265223782336" lon="9.80621442802163"><ele>58.0</ele><time>2026-04-09T14:56:13.999Z</time></trkpt><trkpt lat="44.201412909538085" lon="9.80591677944382"><ele>59.5</ele><time>2026-04-09T14:56:14.999Z</time></trkpt><trkpt lat="44.201562730422395" lon="9.805615653395966"><ele>61.0</ele><time>2026-04-09T14:56:15.999Z</time></trkpt><trkpt lat="44.20171614633222" lon="9.805314481740641"><ele>59.5</ele><time>2026-04-09T14:56:16.999Z</time></trkpt><trkpt lat="44.2018687917309" lon="9.805010662670854"><ele>58.0</ele><time>2026-04-09T14:56:17.999Z</time></trkpt><trkpt lat="44.202019675941216" lon="9.804703983454967"><ele>58.0</ele><time>2026-04-09T14:56:18.999Z</time></trkpt><trkpt lat="44.202170913524235" lon="9.804398872007791"><ele>58.0</ele><time>2026-04-09T14:56:19.999Z</time></trkpt><trkpt lat="44.20232253529143" lon="9.80409388556558"><ele>58.5</ele><time>2026-04-09T14:56:20.999Z</time></trkpt><trkpt lat="44.202475809769595" lon="9.803787549534471"><ele>59.0</ele><time>2026-04-09T14:56:21.999Z</time></trkpt><trkpt lat="44.20262669224418" lon="9.803479831669055"><ele>57.5</ele><time>2026-04-09T14:56:22.999Z</time></trkpt><trkpt lat="44.20277898323023" lon="9.803170711333797"><ele>56.0</ele><time>2026-04-09T14:56:23.999Z</time></trkpt><trkpt lat="44.20293124342542" lon="9.802861845241251"><ele>55.5</ele><time>2026-04-09T14:56:24.999Z</time></trkpt><trkpt lat="44.20308736389445" lon="9.802547329964584"><ele>55.0</ele><time>2026-04-09T14:56:25.999Z</time></trkpt><trkpt lat="44.20324585722435" lon="9.802229688925962"><ele>54.5</ele><time>2026-04-09T14:56:26.999Z</time></trkpt><trkpt lat="44.20340513454374" lon="9.801911614273019"><ele>54.0</ele><time>2026-04-09T14:56:27.999Z</time></trkpt><trkpt lat="44.20356580580749" lon="9.80158831565896"><ele>54.0</ele><time>2026-04-09T14:56:28.999Z</time></trkpt><trkpt lat="44.20372738328488" lon="9.801262706755434"><ele>54.0</ele><time>2026-04-09T14:56:29.999Z</time></trkpt><trkpt lat="44.203889110937396" lon="9.800936035287899"><ele>54.5</ele><time>2026-04-09T14:56:30.999Z</time></trkpt><trkpt lat="44.204052239927044" lon="9.80060693671269"><ele>55.0</ele><time>2026-04-09T14:56:31.999Z</time></trkpt><trkpt lat="44.204214851744425" lon="9.800277909113547"><ele>54.0</ele><time>2026-04-09T14:56:32.999Z</time></trkpt><trkpt lat="44.20438022714395" lon="9.799945871458995"><ele>53.0</ele><time>2026-04-09T14:56:33.999Z</time></trkpt><trkpt lat="44.20453499740339" lon="9.799625839367055"><ele>53.5</ele><time>2026-04-09T14:56:34.999Z</time></trkpt><trkpt lat="44.204676425486184" lon="9.799318152481398"><ele>54.0</ele><time>2026-04-09T14:56:35.999Z</time></trkpt><trkpt lat="44.20480278103137" lon="9.799013162975065"><ele>55.0</ele><time>2026-04-09T14:56:36.999Z</time></trkpt><trkpt lat="44.204916557206474" lon="9.79870566010269"><ele>56.0</ele><time>2026-04-09T14:56:37.999Z</time></trkpt><trkpt lat="44.205020384529696" lon="9.798389532415221"><ele>56.0</ele><time>2026-04-09T14:56:38.999Z</time></trkpt><trkpt lat="44.205115688431455" lon="9.798053193650842"><ele>56.0</ele><time>2026-04-09T14:56:39.999Z</time></trkpt><trkpt lat="44.20520176974445" lon="9.79769278987245"><ele>56.0</ele><time>2026-04-09T14:56:40.999Z</time></trkpt><trkpt lat="44.20527442690353" lon="9.797308341905321"><ele>56.0</ele><time>2026-04-09T14:56:41.999Z</time></trkpt><trkpt lat="44.20532945481755" lon="9.796911812378852"><ele>56.5</ele><time>2026-04-09T14:56:42.999Z</time></trkpt><trkpt lat="44.2053688110835" lon="9.796505121458372"><ele>57.0</ele><time>2026-04-09T14:56:43.999Z</time></trkpt><trkpt lat="44.20539916511379" lon="9.796095296587865"><ele>57.0</ele><time>2026-04-09T14:56:44.999Z</time></trkpt><trkpt lat="44.205412250028225" lon="9.795685284570528"><ele>57.0</ele><time>2026-04-09T14:56:45.999Z</time></trkpt><trkpt lat="44.205425845866344" lon="9.795306776380166"><ele>56.5</ele><time>2026-04-09T14:56:46.999Z</time></trkpt><trkpt lat="44.205435009518034" lon="9.794924944623359"><ele>56.0</ele><time>2026-04-09T14:56:47.999Z</time></trkpt><trkpt lat="44.20544867131549" lon="9.794537412830945"><ele>56.0</ele><time>2026-04-09T14:56:48.999Z</time></trkpt><trkpt lat="44.20546395884613" lon="9.794144534688316"><ele>56.0</ele><time>2026-04-09T14:56:49.999Z</time></trkpt><trkpt lat="44.20547841944713" lon="9.793733031693677"><ele>56.0</ele><time>2026-04-09T14:56:50.999Z</time></trkpt><trkpt lat="44.205494378095736" lon="9.793308222191982"><ele>56.0</ele><time>2026-04-09T14:56:51.999Z</time></trkpt><trkpt lat="44.20550762534372" lon="9.79286856735145"><ele>57.0</ele><time>2026-04-09T14:56:52.999Z</time></trkpt><trkpt lat="44.20552225724119" lon="9.792422807702343"><ele>58.0</ele><time>2026-04-09T14:56:53.999Z</time></trkpt><trkpt lat="44.20553850519929" lon="9.79197362749354"><ele>58.5</ele><time>2026-04-09T14:56:54.999Z</time></trkpt><trkpt lat="44.205554934179204" lon="9.791523410622846"><ele>59.0</ele><time>2026-04-09T14:56:55.999Z</time></trkpt><trkpt lat="44.205573587417405" lon="9.7910816955218"><ele>60.0</ele><time>2026-04-09T14:56:56.999Z</time></trkpt><trkpt lat="44.20559172650583" lon="9.790675329999527"><ele>61.0</ele><time>2026-04-09T14:56:57.999Z</time></trkpt><trkpt lat="44.205610535740604" lon="9.790281208201245"><ele>62.5</ele><time>2026-04-09T14:56:58.999Z</time></trkpt><trkpt lat="44.205628280464204" lon="9.78989034639778"><ele>64.0</ele><time>2026-04-09T14:56:59.999Z</time></trkpt><trkpt lat="44.20564436257992" lon="9.789502615389354"><ele>63.5</ele><time>2026-04-09T14:57:00.999Z</time></trkpt><trkpt lat="44.20565996727756" lon="9.789124716306986"><ele>63.0</ele><time>2026-04-09T14:57:01.999Z</time></trkpt><trkpt lat="44.20567923866187" lon="9.788755053542056"><ele>65.0</ele><time>2026-04-09T14:57:03Z</time></trkpt><trkpt lat="44.20569633392859" lon="9.788390383632585"><ele>67.0</ele><time>2026-04-09T14:57:04Z</time></trkpt><trkpt lat="44.2057092993113" lon="9.788024211976792"><ele>68.0</ele><time>2026-04-09T14:57:05Z</time></trkpt><trkpt lat="44.2057217906158" lon="9.787657557960614"><ele>69.0</ele><time>2026-04-09T14:57:06Z</time></trkpt><trkpt lat="44.205735916186285" lon="9.787296169258349"><ele>69.0</ele><time>2026-04-09T14:57:07Z</time></trkpt><trkpt lat="44.20575289780039" lon="9.786935001545661"><ele>69.0</ele><time>2026-04-09T14:57:08Z</time></trkpt><trkpt lat="44.205767986576255" lon="9.786574671376647"><ele>70.0</ele><time>2026-04-09T14:57:09Z</time></trkpt><trkpt lat="44.205781313300044" lon="9.78621603504354"><ele>71.0</ele><time>2026-04-09T14:57:10Z</time></trkpt><trkpt lat="44.205793057704746" lon="9.785858179556685"><ele>71.5</ele><time>2026-04-09T14:57:11Z</time></trkpt><trkpt lat="44.20580510430361" lon="9.785512775596986"><ele>72.0</ele><time>2026-04-09T14:57:12Z</time></trkpt><trkpt lat="44.20581701781544" lon="9.785189416862789"><ele>73.5</ele><time>2026-04-09T14:57:13Z</time></trkpt><trkpt lat="44.20583122968539" lon="9.784848595095797"><ele>75.0</ele><time>2026-04-09T14:57:14Z</time></trkpt><trkpt lat="44.20585240827262" lon="9.784496690205975"><ele>76.5</ele><time>2026-04-09T14:57:15Z</time></trkpt><trkpt lat="44.20588040013808" lon="9.78413612685768"><ele>78.0</ele><time>2026-04-09T14:57:16Z</time></trkpt><trkpt lat="44.205912850079905" lon="9.783770685710468"><ele>80.0</ele><time>2026-04-09T14:57:17Z</time></trkpt><trkpt lat="44.205948743183036" lon="9.783396124018727"><ele>82.0</ele><time>2026-04-09T14:57:18Z</time></trkpt><trkpt lat="44.20598774962631" lon="9.783020689162605"><ele>84.5</ele><time>2026-04-09T14:57:19Z</time></trkpt><trkpt lat="44.20603247379493" lon="9.782647055104142"><ele>87.0</ele><time>2026-04-09T14:57:20Z</time></trkpt><trkpt lat="44.206081849799716" lon="9.782300662727842"><ele>87.0</ele><time>2026-04-09T14:57:21Z</time></trkpt><trkpt lat="44.20613307494804" lon="9.781972822060613"><ele>87.0</ele><time>2026-04-09T14:57:22Z</time></trkpt><trkpt lat="44.20618482420813" lon="9.78164822097153"><ele>93.0</ele><time>2026-04-09T14:57:23Z</time></trkpt><trkpt lat="44.20624258957303" lon="9.781318853543697"><ele>99.0</ele><time>2026-04-09T14:57:24Z</time></trkpt><trkpt lat="44.20630325571572" lon="9.780989038493397"><ele>108.0</ele><time>2026-04-09T14:57:25Z</time></trkpt><trkpt lat="44.206370407854145" lon="9.780653434179229"><ele>117.0</ele><time>2026-04-09T14:57:26Z</time></trkpt><trkpt lat="44.20644585685934" lon="9.78029952099274"><ele>132.0</ele><time>2026-04-09T14:57:27Z</time></trkpt><trkpt lat="44.20652950488795" lon="9.779930780629307"><ele>147.0</ele><time>2026-04-09T14:57:28.02Z</time></trkpt><trkpt lat="44.20661489741177" lon="9.779596614916972"><ele>162.5</ele><time>2026-04-09T14:57:29.02Z</time></trkpt><trkpt lat="44.20670219452267" lon="9.77927210659034"><ele>178.0</ele><time>2026-04-09T14:57:30.02Z</time></trkpt><trkpt lat="44.206791003902595" lon="9.778947952253874"><ele>116.0</ele><time>2026-04-09T14:57:31.015Z</time></trkpt><trkpt lat="44.215798275586415" lon="9.76321256720439"><ele>116.0</ele><time>2026-04-09T14:58:28.999Z</time></trkpt><trkpt lat="44.21596495788928" lon="9.762956857344616"><ele>116.0</ele><time>2026-04-09T14:58:29.999Z</time></trkpt><trkpt lat="44.216133811302385" lon="9.762699951314435"><ele>118.5</ele><time>2026-04-09T14:58:30.999Z</time></trkpt><trkpt lat="44.216304208518345" lon="9.762439697669304"><ele>121.0</ele><time>2026-04-09T14:58:32.019Z</time></trkpt><trkpt lat="44.21766103085408" lon="9.760350758795779"><ele>214.0</ele><time>2026-04-09T14:58:35.086Z</time></trkpt><trkpt lat="44.218270256194025" lon="9.759430003100134"><ele>163.0</ele><time>2026-04-09T14:58:36.086Z</time></trkpt><trkpt lat="44.218876535270816" lon="9.758505226749886"><ele>105.0</ele><time>2026-04-09T14:58:37.086Z</time></trkpt><trkpt lat="44.21957314949876" lon="9.757499210545568"><ele>105.0</ele><time>2026-04-09T14:58:49.999Z</time></trkpt><trkpt lat="44.21975501173939" lon="9.757223612310627"><ele>105.0</ele><time>2026-04-09T14:58:50.999Z</time></trkpt><trkpt lat="44.21991497140926" lon="9.756954417164444"><ele>99.5</ele><time>2026-04-09T14:58:51.999Z</time></trkpt><trkpt lat="44.22008718029756" lon="9.756700785332205"><ele>94.0</ele><time>2026-04-09T14:58:52.999Z</time></trkpt><trkpt lat="44.22026764268571" lon="9.756456193280089"><ele>94.0</ele><time>2026-04-09T14:58:53.999Z</time></trkpt><trkpt lat="44.22045454103265" lon="9.756217912131113"><ele>94.0</ele><time>2026-04-09T14:58:54.999Z</time></trkpt><trkpt lat="44.22064552092195" lon="9.75598340564105"><ele>91.5</ele><time>2026-04-09T14:58:55.999Z</time></trkpt><trkpt lat="44.22084360510044" lon="9.755754445152432"><ele>89.0</ele><time>2026-04-09T14:58:56.999Z</time></trkpt><trkpt lat="44.221042333188215" lon="9.75552717839195"><ele>89.0</ele><time>2026-04-09T14:58:57.999Z</time></trkpt><trkpt lat="44.22124399851523" lon="9.755303533895246"><ele>89.0</ele><time>2026-04-09T14:58:58.999Z</time></trkpt><trkpt lat="44.22144239532846" lon="9.75507954772942"><ele>86.0</ele><time>2026-04-09T14:58:59.999Z</time></trkpt><trkpt lat="44.221642303569396" lon="9.754854373410192"><ele>83.0</ele><time>2026-04-09T14:59:00.999Z</time></trkpt><trkpt lat="44.22184378573143" lon="9.75462714749548"><ele>83.0</ele><time>2026-04-09T14:59:01.999Z</time></trkpt><trkpt lat="44.22204604697861" lon="9.754400586884955"><ele>83.0</ele><time>2026-04-09T14:59:02.999Z</time></trkpt><trkpt lat="44.222246565505706" lon="9.754170747579094"><ele>86.5</ele><time>2026-04-09T14:59:03.999Z</time></trkpt><trkpt lat="44.22244688434881" lon="9.753935377097777"><ele>90.0</ele><time>2026-04-09T14:59:04.999Z</time></trkpt><trkpt lat="44.22263531936743" lon="9.753702945775798"><ele>97.5</ele><time>2026-04-09T14:59:05.999Z</time></trkpt><trkpt lat="44.22281109320333" lon="9.753470891267542"><ele>105.0</ele><time>2026-04-09T14:59:06.999Z</time></trkpt><trkpt lat="44.222983976529534" lon="9.75322740973342"><ele>98.0</ele><time>2026-04-09T14:59:07.999Z</time></trkpt><trkpt lat="44.22315087353099" lon="9.75297387679192"><ele>91.0</ele><time>2026-04-09T14:59:09Z</time></trkpt><trkpt lat="44.223307962734296" lon="9.752701484834562"><ele>91.0</ele><time>2026-04-09T14:59:10Z</time></trkpt><trkpt lat="44.22345644132284" lon="9.752415802944078"><ele>91.0</ele><time>2026-04-09T14:59:11Z</time></trkpt><trkpt lat="44.22359555533403" lon="9.752119471982374"><ele>98.0</ele><time>2026-04-09T14:59:12Z</time></trkpt><trkpt lat="44.223724869723156" lon="9.751811361464876"><ele>105.0</ele><time>2026-04-09T14:59:13Z</time></trkpt><trkpt lat="44.223848131745285" lon="9.75149644448891"><ele>105.0</ele><time>2026-04-09T14:59:14Z</time></trkpt><trkpt lat="44.223961442335465" lon="9.751172372228492"><ele>105.0</ele><time>2026-04-09T14:59:15Z</time></trkpt><trkpt lat="44.224067438434204" lon="9.750834885908548"><ele>97.5</ele><time>2026-04-09T14:59:16Z</time></trkpt><trkpt lat="44.22416019036873" lon="9.750482632653668"><ele>90.0</ele><time>2026-04-09T14:59:17Z</time></trkpt><trkpt lat="44.22424286262901" lon="9.750117042512233"><ele>90.0</ele><time>2026-04-09T14:59:18Z</time></trkpt><trkpt lat="44.224316128011175" lon="9.749742005935763"><ele>90.0</ele><time>2026-04-09T14:59:19Z</time></trkpt><trkpt lat="44.22438399579683" lon="9.74935769422145"><ele>89.5</ele><time>2026-04-09T14:59:20Z</time></trkpt><trkpt lat="44.2244539205658" lon="9.74897422872273"><ele>89.0</ele><time>2026-04-09T14:59:21Z</time></trkpt><trkpt lat="44.2245231470666" lon="9.748584378460494"><ele>89.0</ele><time>2026-04-09T14:59:22Z</time></trkpt><trkpt lat="44.224595945113236" lon="9.748195048992404"><ele>89.0</ele><time>2026-04-09T14:59:23Z</time></trkpt><trkpt lat="44.224663679927986" lon="9.747829516041799"><ele>89.0</ele><time>2026-04-09T14:59:24Z</time></trkpt><trkpt lat="44.22472711261372" lon="9.747483743446065"><ele>89.0</ele><time>2026-04-09T14:59:25Z</time></trkpt><trkpt lat="44.22478774945249" lon="9.747142600472207"><ele>87.5</ele><time>2026-04-09T14:59:26Z</time></trkpt><trkpt lat="44.224849403414325" lon="9.746798797568138"><ele>86.0</ele><time>2026-04-09T14:59:27Z</time></trkpt><trkpt lat="44.22491190617805" lon="9.746459695815107"><ele>86.0</ele><time>2026-04-09T14:59:28Z</time></trkpt><trkpt lat="44.224969925031566" lon="9.7461248116583"><ele>86.0</ele><time>2026-04-09T14:59:29Z</time></trkpt><trkpt lat="44.225024299592775" lon="9.745811629583123"><ele>87.5</ele><time>2026-04-09T14:59:30Z</time></trkpt><trkpt lat="44.22506892060866" lon="9.745500645364903"><ele>89.0</ele><time>2026-04-09T14:59:31Z</time></trkpt><trkpt lat="44.225096805647404" lon="9.74517896567599"><ele>89.5</ele><time>2026-04-09T14:59:32Z</time></trkpt><trkpt lat="44.225115565462964" lon="9.744852712650287"><ele>90.0</ele><time>2026-04-09T14:59:33Z</time></trkpt><trkpt lat="44.22512382613" lon="9.744524588872583"><ele>89.5</ele><time>2026-04-09T14:59:34Z</time></trkpt><trkpt lat="44.2251199822802" lon="9.744194214755433"><ele>89.0</ele><time>2026-04-09T14:59:35Z</time></trkpt><trkpt lat="44.225105943307554" lon="9.74385887552619"><ele>88.5</ele><time>2026-04-09T14:59:36Z</time></trkpt><trkpt lat="44.22508154436954" lon="9.743517979526993"><ele>88.0</ele><time>2026-04-09T14:59:37Z</time></trkpt><trkpt lat="44.22504099577296" lon="9.743173585012906"><ele>88.0</ele><time>2026-04-09T14:59:38Z</time></trkpt><trkpt lat="44.224987620943175" lon="9.742826212130545"><ele>88.0</ele><time>2026-04-09T14:59:39Z</time></trkpt><trkpt lat="44.22492039848482" lon="9.742476358853681"><ele>88.5</ele><time>2026-04-09T14:59:40Z</time></trkpt><trkpt lat="44.22484014852767" lon="9.74212794192799"><ele>89.0</ele><time>2026-04-09T14:59:41Z</time></trkpt><trkpt lat="44.22475480327726" lon="9.74177751694113"><ele>89.0</ele><time>2026-04-09T14:59:42Z</time></trkpt><trkpt lat="44.224671006992175" lon="9.741421871510505"><ele>89.0</ele><time>2026-04-09T14:59:43Z</time></trkpt><trkpt lat="44.22458676352191" lon="9.7410645130574"><ele>89.5</ele><time>2026-04-09T14:59:44Z</time></trkpt><trkpt lat="44.22449994009948" lon="9.740702829526706"><ele>90.0</ele><time>2026-04-09T14:59:45Z</time></trkpt><trkpt lat="44.22441251294715" lon="9.74033748763584"><ele>90.5</ele><time>2026-04-09T14:59:46Z</time></trkpt><trkpt lat="44.22432726959424" lon="9.739969349161612"><ele>91.0</ele><time>2026-04-09T14:59:47Z</time></trkpt><trkpt lat="44.224242560326935" lon="9.739598593248854"><ele>91.0</ele><time>2026-04-09T14:59:48Z</time></trkpt><trkpt lat="44.2241604877371" lon="9.739226421924654"><ele>91.0</ele><time>2026-04-09T14:59:49Z</time></trkpt><trkpt lat="44.224089515554475" lon="9.738873861142084"><ele>91.5</ele><time>2026-04-09T14:59:50Z</time></trkpt><trkpt lat="44.224031392412144" lon="9.738534907923157"><ele>92.0</ele><time>2026-04-09T14:59:51Z</time></trkpt><trkpt lat="44.223993153638425" lon="9.738206563132062"><ele>91.0</ele><time>2026-04-09T14:59:52Z</time></trkpt><trkpt lat="44.223969688883855" lon="9.737873580106651"><ele>90.0</ele><time>2026-04-09T14:59:53Z</time></trkpt><trkpt lat="44.223956509531845" lon="9.7375337117714"><ele>90.0</ele><time>2026-04-09T14:59:54Z</time></trkpt><trkpt lat="44.2239553900287" lon="9.737193052050236"><ele>90.0</ele><time>2026-04-09T14:59:55Z</time></trkpt><trkpt lat="44.223968439491344" lon="9.736848821457526"><ele>94.0</ele><time>2026-04-09T14:59:56Z</time></trkpt><trkpt lat="44.223989140814766" lon="9.736505165722289"><ele>98.0</ele><time>2026-04-09T14:59:57Z</time></trkpt><trkpt lat="44.22401988509875" lon="9.736159267421277"><ele>99.5</ele><time>2026-04-09T14:59:58Z</time></trkpt><trkpt lat="44.22406856604329" lon="9.735817147695617"><ele>101.0</ele><time>2026-04-09T14:59:59Z</time></trkpt><trkpt lat="44.224133529226414" lon="9.735476348623171"><ele>100.5</ele><time>2026-04-09T15:00:00Z</time></trkpt><trkpt lat="44.224209900895424" lon="9.735135695847498"><ele>100.0</ele><time>2026-04-09T15:00:01Z</time></trkpt><trkpt lat="44.22430161868631" lon="9.734798518556241"><ele>100.0</ele><time>2026-04-09T15:00:02Z</time></trkpt><trkpt lat="44.22440956484133" lon="9.734465434533773"><ele>100.0</ele><time>2026-04-09T15:00:03Z</time></trkpt><trkpt lat="44.22453387970375" lon="9.734138545000615"><ele>99.0</ele><time>2026-04-09T15:00:04Z</time></trkpt><trkpt lat="44.22466949354563" lon="9.73381825851537"><ele>98.0</ele><time>2026-04-09T15:00:05Z</time></trkpt><trkpt lat="44.224819113558134" lon="9.733510178550855"><ele>100.0</ele><time>2026-04-09T15:00:06Z</time></trkpt><trkpt lat="44.22498132252261" lon="9.73321474625592"><ele>102.0</ele><time>2026-04-09T15:00:07Z</time></trkpt><trkpt lat="44.22514861080209" lon="9.732924035435799"><ele>101.0</ele><time>2026-04-09T15:00:08Z</time></trkpt><trkpt lat="44.225320282057005" lon="9.732635213896248"><ele>100.0</ele><time>2026-04-09T15:00:09Z</time></trkpt><trkpt lat="44.22549253930421" lon="9.732344277805707"><ele>101.5</ele><time>2026-04-09T15:00:10Z</time></trkpt><trkpt lat="44.22565949719841" lon="9.732048027768869"><ele>103.0</ele><time>2026-04-09T15:00:11Z</time></trkpt><trkpt lat="44.225825525883046" lon="9.731744715344156"><ele>103.0</ele><time>2026-04-09T15:00:12Z</time></trkpt><trkpt lat="44.22599503667887" lon="9.731439474649896"><ele>103.0</ele><time>2026-04-09T15:00:13Z</time></trkpt><trkpt lat="44.226171402077654" lon="9.731138131721211"><ele>103.5</ele><time>2026-04-09T15:00:14Z</time></trkpt><trkpt lat="44.22634581825716" lon="9.730831351377526"><ele>104.0</ele><time>2026-04-09T15:00:15Z</time></trkpt><trkpt lat="44.22652173521206" lon="9.730521573874167"><ele>105.5</ele><time>2026-04-09T15:00:16Z</time></trkpt><trkpt lat="44.22669871500026" lon="9.73020740121204"><ele>107.0</ele><time>2026-04-09T15:00:17Z</time></trkpt><trkpt lat="44.22687298882194" lon="9.72989311683892"><ele>107.0</ele><time>2026-04-09T15:00:18Z</time></trkpt><trkpt lat="44.22703852020911" lon="9.72960184117575"><ele>107.0</ele><time>2026-04-09T15:00:19Z</time></trkpt><trkpt lat="44.22720418519053" lon="9.729309231946548"><ele>105.0</ele><time>2026-04-09T15:00:20Z</time></trkpt><trkpt lat="44.227371302408955" lon="9.729017248743691"><ele>103.0</ele><time>2026-04-09T15:00:21Z</time></trkpt><trkpt lat="44.227536643739036" lon="9.728728332629583"><ele>102.5</ele><time>2026-04-09T15:00:22Z</time></trkpt><trkpt lat="44.22770226508735" lon="9.72843519046746"><ele>102.0</ele><time>2026-04-09T15:00:22.999Z</time></trkpt><trkpt lat="44.22786729972553" lon="9.72814674974871"><ele>102.0</ele><time>2026-04-09T15:00:23.999Z</time></trkpt><trkpt lat="44.22803281083858" lon="9.727855883092698"><ele>102.0</ele><time>2026-04-09T15:00:24.999Z</time></trkpt><trkpt lat="44.228199745723884" lon="9.727565016580014"><ele>103.0</ele><time>2026-04-09T15:00:25.999Z</time></trkpt><trkpt lat="44.22836714932295" lon="9.727273590150821"><ele>104.0</ele><time>2026-04-09T15:00:26.999Z</time></trkpt><trkpt lat="44.22853381380443" lon="9.726980111257701"><ele>103.5</ele><time>2026-04-09T15:00:27.999Z</time></trkpt><trkpt lat="44.22870087069935" lon="9.726686386205007"><ele>103.0</ele><time>2026-04-09T15:00:28.999Z</time></trkpt><trkpt lat="44.22886895904542" lon="9.726390382456284"><ele>103.0</ele><time>2026-04-09T15:00:29.999Z</time></trkpt><trkpt lat="44.22903752292138" lon="9.726095511375062"><ele>103.0</ele><time>2026-04-09T15:00:30.999Z</time></trkpt><trkpt lat="44.229206877041385" lon="9.72579848273505"><ele>102.5</ele><time>2026-04-09T15:00:31.999Z</time></trkpt><trkpt lat="44.229376196818514" lon="9.725500020145303"><ele>102.0</ele><time>2026-04-09T15:00:32.999Z</time></trkpt><trkpt lat="44.229547181781555" lon="9.725200416575873"><ele>102.0</ele><time>2026-04-09T15:00:33.999Z</time></trkpt><trkpt lat="44.22971868850925" lon="9.724898656670073"><ele>102.0</ele><time>2026-04-09T15:00:34.999Z</time></trkpt><trkpt lat="44.22989058304544" lon="9.724597473786751"><ele>102.0</ele><time>2026-04-09T15:00:35.999Z</time></trkpt><trkpt lat="44.23006345802094" lon="9.72429374075049"><ele>102.0</ele><time>2026-04-09T15:00:36.999Z</time></trkpt><trkpt lat="44.230236679298166" lon="9.723991032852261"><ele>102.0</ele><time>2026-04-09T15:00:37.999Z</time></trkpt><trkpt lat="44.230398976971394" lon="9.723705812974968"><ele>102.0</ele><time>2026-04-09T15:00:38.999Z</time></trkpt><trkpt lat="44.23055377623318" lon="9.723434135315339"><ele>102.0</ele><time>2026-04-09T15:00:39.999Z</time></trkpt><trkpt lat="44.23070499317346" lon="9.72317311971933"><ele>102.0</ele><time>2026-04-09T15:00:40.999Z</time></trkpt><trkpt lat="44.23085916690621" lon="9.722906654789572"><ele>101.5</ele><time>2026-04-09T15:00:41.999Z</time></trkpt><trkpt lat="44.23101752462385" lon="9.722629369577191"><ele>101.0</ele><time>2026-04-09T15:00:42.999Z</time></trkpt><trkpt lat="44.2311797395597" lon="9.722345451359937"><ele>101.0</ele><time>2026-04-09T15:00:43.999Z</time></trkpt><trkpt lat="44.23134462034703" lon="9.722055378334185"><ele>101.0</ele><time>2026-04-09T15:00:44.999Z</time></trkpt><trkpt lat="44.2315108652035" lon="9.721759904917384"><ele>101.5</ele><time>2026-04-09T15:00:45.999Z</time></trkpt><trkpt lat="44.231679834421094" lon="9.72146045871752"><ele>102.0</ele><time>2026-04-09T15:00:46.999Z</time></trkpt><trkpt lat="44.23185177844438" lon="9.721158930219085"><ele>102.0</ele><time>2026-04-09T15:00:47.999Z</time></trkpt><trkpt lat="44.23202418613045" lon="9.720855027358555"><ele>102.0</ele><time>2026-04-09T15:00:48.999Z</time></trkpt><trkpt lat="44.23220040917231" lon="9.720547677256949"><ele>103.0</ele><time>2026-04-09T15:00:49.999Z</time></trkpt><trkpt lat="44.232377662067975" lon="9.720238055574177"><ele>104.0</ele><time>2026-04-09T15:00:50.999Z</time></trkpt><trkpt lat="44.23255652486966" lon="9.719926348063174"><ele>104.0</ele><time>2026-04-09T15:00:51.999Z</time></trkpt><trkpt lat="44.232734610599316" lon="9.719611206718266"><ele>104.0</ele><time>2026-04-09T15:00:52.999Z</time></trkpt><trkpt lat="44.232911628808" lon="9.719299703792789"><ele>104.5</ele><time>2026-04-09T15:00:53.999Z</time></trkpt><trkpt lat="44.23307740708997" lon="9.719006878757442"><ele>105.0</ele><time>2026-04-09T15:00:54.999Z</time></trkpt><trkpt lat="44.23323993482834" lon="9.718721061936312"><ele>106.5</ele><time>2026-04-09T15:00:55.999Z</time></trkpt><trkpt lat="44.233404789829244" lon="9.71843161333195"><ele>108.0</ele><time>2026-04-09T15:00:56.999Z</time></trkpt><trkpt lat="44.23356657726498" lon="9.718145779369753"><ele>108.0</ele><time>2026-04-09T15:00:57.999Z</time></trkpt><trkpt lat="44.23371969635799" lon="9.717880118128262"><ele>108.0</ele><time>2026-04-09T15:00:58.999Z</time></trkpt><trkpt lat="44.23387035069591" lon="9.717618382447151"><ele>108.5</ele><time>2026-04-09T15:00:59.999Z</time></trkpt><trkpt lat="44.2340211310086" lon="9.717353591139988"><ele>109.0</ele><time>2026-04-09T15:01:00.999Z</time></trkpt><trkpt lat="44.234173628726495" lon="9.717086109821865"><ele>109.0</ele><time>2026-04-09T15:01:01.999Z</time></trkpt><trkpt lat="44.23432607352647" lon="9.71682008084393"><ele>109.0</ele><time>2026-04-09T15:01:02.999Z</time></trkpt><trkpt lat="44.23447713060685" lon="9.716550815066888"><ele>109.0</ele><time>2026-04-09T15:01:03.999Z</time></trkpt><trkpt lat="44.23462753096739" lon="9.716278269232006"><ele>109.0</ele><time>2026-04-09T15:01:04.999Z</time></trkpt><trkpt lat="44.234772652457664" lon="9.716010664039562"><ele>111.66666666666667</ele><time>2026-04-09T15:01:05.999Z</time></trkpt><trkpt lat="44.23490347442167" lon="9.715757469916717"><ele>114.33333333333334</ele><time>2026-04-09T15:01:06.999Z</time></trkpt><trkpt lat="44.235029344489696" lon="9.715496535787487"><ele>117.0</ele><time>2026-04-09T15:01:07.999Z</time></trkpt><trkpt lat="44.23515615407445" lon="9.715227920432929"><ele>118.5</ele><time>2026-04-09T15:01:08.999Z</time></trkpt><trkpt lat="44.23528230195023" lon="9.714950100609663"><ele>120.0</ele><time>2026-04-09T15:01:09.999Z</time></trkpt><trkpt lat="44.2354028224463" lon="9.714657452621777"><ele>120.0</ele><time>2026-04-09T15:01:10.999Z</time></trkpt><trkpt lat="44.23551979181571" lon="9.71434961277271"><ele>120.0</ele><time>2026-04-09T15:01:11.999Z</time></trkpt><trkpt lat="44.235635064902404" lon="9.71403073147872"><ele>123.0</ele><time>2026-04-09T15:01:12.999Z</time></trkpt><trkpt lat="44.23574824212937" lon="9.713704335469806"><ele>126.0</ele><time>2026-04-09T15:01:13.999Z</time></trkpt><trkpt lat="44.235860317892374" lon="9.713370704539525"><ele>126.5</ele><time>2026-04-09T15:01:15Z</time></trkpt><trkpt lat="44.23596530296" lon="9.713030780913419"><ele>127.0</ele><time>2026-04-09T15:01:16Z</time></trkpt><trkpt lat="44.23606775155031" lon="9.71268622657628"><ele>121.5</ele><time>2026-04-09T15:01:17Z</time></trkpt><trkpt lat="44.23616368706113" lon="9.712334506257141"><ele>116.0</ele><time>2026-04-09T15:01:18Z</time></trkpt><trkpt lat="44.23625424069012" lon="9.71197725496236"><ele>112.5</ele><time>2026-04-09T15:01:19Z</time></trkpt><trkpt lat="44.23633920765651" lon="9.711615533373742"><ele>109.0</ele><time>2026-04-09T15:01:20Z</time></trkpt><trkpt lat="44.23641527677819" lon="9.711267088135958"><ele>109.0</ele><time>2026-04-09T15:01:21Z</time></trkpt><trkpt lat="44.23648128539667" lon="9.710930118188001"><ele>109.0</ele><time>2026-04-09T15:01:22Z</time></trkpt><trkpt lat="44.236542639950216" lon="9.71059207890908"><ele>109.0</ele><time>2026-04-09T15:01:23Z</time></trkpt><trkpt lat="44.23659615974581" lon="9.71028345051062"><ele>109.0</ele><time>2026-04-09T15:01:24Z</time></trkpt><trkpt lat="44.236646507774395" lon="9.709997744200594"><ele>109.0</ele><time>2026-04-09T15:01:25Z</time></trkpt><trkpt lat="44.23669459259255" lon="9.709737724755664"><ele>109.0</ele><time>2026-04-09T15:01:26Z</time></trkpt><trkpt lat="44.23674134301406" lon="9.70949842497146"><ele>109.0</ele><time>2026-04-09T15:01:27Z</time></trkpt><trkpt lat="44.236789120706426" lon="9.70926353282273"><ele>109.0</ele><time>2026-04-09T15:01:28Z</time></trkpt><trkpt lat="44.236833995508114" lon="9.709027881785023"><ele>113.33333333333334</ele><time>2026-04-09T15:01:29Z</time></trkpt><trkpt lat="44.23687681734584" lon="9.708812218139377"><ele>117.66666666666666</ele><time>2026-04-09T15:01:30Z</time></trkpt><trkpt lat="44.23691943552256" lon="9.708592141515982"><ele>122.0</ele><time>2026-04-09T15:01:31Z</time></trkpt><trkpt lat="44.23696442232681" lon="9.708353662525797"><ele>126.33333333333333</ele><time>2026-04-09T15:01:32Z</time></trkpt><trkpt lat="44.23700547302516" lon="9.708116735017835"><ele>130.66666666666666</ele><time>2026-04-09T15:01:33Z</time></trkpt><trkpt lat="44.23704705740408" lon="9.707881356993587"><ele>135.0</ele><time>2026-04-09T15:01:34Z</time></trkpt><trkpt lat="44.23709048747943" lon="9.707626271524882"><ele>138.0</ele><time>2026-04-09T15:01:35Z</time></trkpt><trkpt lat="44.237134503584755" lon="9.707377802278906"><ele>141.0</ele><time>2026-04-09T15:01:36Z</time></trkpt><trkpt lat="44.23717439947099" lon="9.707144179486875"><ele>144.0</ele><time>2026-04-09T15:01:37Z</time></trkpt><trkpt lat="44.237214944088414" lon="9.706905317213803"><ele>148.66666666666666</ele><time>2026-04-09T15:01:38Z</time></trkpt><trkpt lat="44.237257694665516" lon="9.706659492404542"><ele>153.33333333333331</ele><time>2026-04-09T15:01:39Z</time></trkpt><trkpt lat="44.237300901359895" lon="9.706419020347473"><ele>158.0</ele><time>2026-04-09T15:01:40Z</time></trkpt><trkpt lat="44.23734123227882" lon="9.706188065461925"><ele>169.0</ele><time>2026-04-09T15:01:41Z</time></trkpt><trkpt lat="44.23738335471218" lon="9.705944476454857"><ele>180.0</ele><time>2026-04-09T15:01:42.015Z</time></trkpt><trkpt lat="44.23743058442618" lon="9.705691389554072"><ele>191.0</ele><time>2026-04-09T15:01:43.018Z</time></trkpt><trkpt lat="44.23748053132776" lon="9.705431410025863"><ele>200.33333333333331</ele><time>2026-04-09T15:01:44.018Z</time></trkpt><trkpt lat="44.23752849669606" lon="9.705194331275763"><ele>209.66666666666666</ele><time>2026-04-09T15:01:45.018Z</time></trkpt><trkpt lat="44.23757574889881" lon="9.704964257150156"><ele>219.0</ele><time>2026-04-09T15:01:46.018Z</time></trkpt><trkpt lat="44.237884322662424" lon="9.700936557752621"><ele>186.0</ele><time>2026-04-09T15:01:50.085Z</time></trkpt><trkpt lat="44.23769620716966" lon="9.699294855827185"><ele>186.0</ele><time>2026-04-09T15:02:09Z</time></trkpt><trkpt lat="44.23766689998071" lon="9.699041504406733"><ele>186.0</ele><time>2026-04-09T15:02:10Z</time></trkpt><trkpt lat="44.23766929534521" lon="9.698775224268305"><ele>186.0</ele><time>2026-04-09T15:02:11Z</time></trkpt><trkpt lat="44.23764173856958" lon="9.69852845823303"><ele>180.0</ele><time>2026-04-09T15:02:12Z</time></trkpt><trkpt lat="44.237620595559264" lon="9.698266845733347"><ele>174.0</ele><time>2026-04-09T15:02:13Z</time></trkpt><trkpt lat="44.23760283799816" lon="9.697993942056591"><ele>168.0</ele><time>2026-04-09T15:02:14Z</time></trkpt><trkpt lat="44.23759054343372" lon="9.697711047402898"><ele>165.66666666666666</ele><time>2026-04-09T15:02:15Z</time></trkpt><trkpt lat="44.237589077947305" lon="9.697450488701481"><ele>163.33333333333331</ele><time>2026-04-09T15:02:16Z</time></trkpt><trkpt lat="44.237591813107386" lon="9.69720132355973"><ele>161.0</ele><time>2026-04-09T15:02:17Z</time></trkpt><trkpt lat="44.237607890907704" lon="9.696951891089345"><ele>163.33333333333331</ele><time>2026-04-09T15:02:18Z</time></trkpt><trkpt lat="44.23762822523655" lon="9.69671217588603"><ele>165.66666666666666</ele><time>2026-04-09T15:02:19Z</time></trkpt><trkpt lat="44.23765449455131" lon="9.696464340031042"><ele>168.0</ele><time>2026-04-09T15:02:20Z</time></trkpt><trkpt lat="44.237692347794095" lon="9.69621189131262"><ele>170.66666666666666</ele><time>2026-04-09T15:02:21Z</time></trkpt><trkpt lat="44.23773703077453" lon="9.695952914211926"><ele>173.33333333333331</ele><time>2026-04-09T15:02:22Z</time></trkpt><trkpt lat="44.23778864291216" lon="9.695698766205206"><ele>176.0</ele><time>2026-04-09T15:02:23Z</time></trkpt><trkpt lat="44.23784476548967" lon="9.695465713947444"><ele>177.66666666666666</ele><time>2026-04-09T15:02:24Z</time></trkpt><trkpt lat="44.23790679854161" lon="9.695243886854504"><ele>179.33333333333334</ele><time>2026-04-09T15:02:25Z</time></trkpt><trkpt lat="44.23797702680556" lon="9.69501318068705"><ele>181.0</ele><time>2026-04-09T15:02:26Z</time></trkpt><trkpt lat="44.238057049129736" lon="9.69477741455844"><ele>178.0</ele><time>2026-04-09T15:02:27Z</time></trkpt><trkpt lat="44.23814812936067" lon="9.69453826968317"><ele>175.0</ele><time>2026-04-09T15:02:28Z</time></trkpt><trkpt lat="44.238249295259166" lon="9.694298033343118"><ele>172.0</ele><time>2026-04-09T15:02:29Z</time></trkpt><trkpt lat="44.23835562872446" lon="9.694068802318279"><ele>172.0</ele><time>2026-04-09T15:02:29.999Z</time></trkpt><trkpt lat="44.23846268483981" lon="9.693860290215135"><ele>172.0</ele><time>2026-04-09T15:02:30.999Z</time></trkpt><trkpt lat="44.23857735825303" lon="9.693653003115072"><ele>172.0</ele><time>2026-04-09T15:02:31.999Z</time></trkpt><trkpt lat="44.238703049661936" lon="9.693448217088186"><ele>173.66666666666669</ele><time>2026-04-09T15:02:32.999Z</time></trkpt><trkpt lat="44.23883714492892" lon="9.693245225194811"><ele>175.33333333333334</ele><time>2026-04-09T15:02:33.999Z</time></trkpt><trkpt lat="44.23897705125421" lon="9.693040824357983"><ele>177.0</ele><time>2026-04-09T15:02:34.999Z</time></trkpt><trkpt lat="44.239121254451206" lon="9.6928331785122"><ele>182.0</ele><time>2026-04-09T15:02:35.999Z</time></trkpt><trkpt lat="44.23926291982052" lon="9.692635187834066"><ele>187.0</ele><time>2026-04-09T15:02:36.999Z</time></trkpt><trkpt lat="44.23941028614442" lon="9.692436638130344"><ele>192.0</ele><time>2026-04-09T15:02:37.999Z</time></trkpt><trkpt lat="44.2395717033093" lon="9.69222886217622"><ele>192.0</ele><time>2026-04-09T15:02:38.999Z</time></trkpt><trkpt lat="44.23973789191885" lon="9.692011467864182"><ele>192.0</ele><time>2026-04-09T15:02:39.999Z</time></trkpt><trkpt lat="44.239899863432214" lon="9.69180208681132"><ele>192.0</ele><time>2026-04-09T15:02:41.018Z</time></trkpt><trkpt lat="44.24006098355495" lon="9.69158713574005"><ele>197.0</ele><time>2026-04-09T15:02:42.018Z</time></trkpt><trkpt lat="44.24022451242042" lon="9.691356689014755"><ele>202.0</ele><time>2026-04-09T15:02:43.017Z</time></trkpt><trkpt lat="44.24038290125402" lon="9.691109971619179"><ele>214.0</ele><time>2026-04-09T15:02:44.019Z</time></trkpt><trkpt lat="44.24053072104735" lon="9.690850245142025"><ele>226.0</ele><time>2026-04-09T15:02:45.015Z</time></trkpt><trkpt lat="44.240675795270846" lon="9.690578201487302"><ele>221.0</ele><time>2026-04-09T15:02:46.015Z</time></trkpt><trkpt lat="44.24114116937317" lon="9.685470834383448"><ele>211.5</ele><time>2026-04-09T15:03:00.999Z</time></trkpt><trkpt lat="44.241090062455086" lon="9.685135027324485"><ele>202.0</ele><time>2026-04-09T15:03:01.999Z</time></trkpt><trkpt lat="44.24104371665318" lon="9.684766129882556"><ele>202.0</ele><time>2026-04-09T15:03:02.999Z</time></trkpt><trkpt lat="44.240977383077954" lon="9.684433571316205"><ele>202.0</ele><time>2026-04-09T15:03:03.999Z</time></trkpt><trkpt lat="44.24092069533642" lon="9.684124173866568"><ele>201.33333333333331</ele><time>2026-04-09T15:03:04.999Z</time></trkpt><trkpt lat="44.24086439462353" lon="9.683819538438923"><ele>200.66666666666669</ele><time>2026-04-09T15:03:05.999Z</time></trkpt><trkpt lat="44.24081573606019" lon="9.683528996422762"><ele>200.0</ele><time>2026-04-09T15:03:06.999Z</time></trkpt><trkpt lat="44.24077376606044" lon="9.68325130990317"><ele>199.0</ele><time>2026-04-09T15:03:07.999Z</time></trkpt><trkpt lat="44.24072631152048" lon="9.682971440558116"><ele>198.0</ele><time>2026-04-09T15:03:08.999Z</time></trkpt><trkpt lat="44.24067969922051" lon="9.682689731400409"><ele>197.0</ele><time>2026-04-09T15:03:09.999Z</time></trkpt><trkpt lat="44.2406283056919" lon="9.682410089711547"><ele>203.66666666666669</ele><time>2026-04-09T15:03:10.999Z</time></trkpt><trkpt lat="44.24057530076846" lon="9.682129510153622"><ele>210.33333333333331</ele><time>2026-04-09T15:03:11.999Z</time></trkpt><trkpt lat="44.24052225885396" lon="9.681846724459415"><ele>217.0</ele><time>2026-04-09T15:03:12.999Z</time></trkpt><trkpt lat="44.24047263789121" lon="9.681579984041889"><ele>217.0</ele><time>2026-04-09T15:03:13.999Z</time></trkpt><trkpt lat="44.240423822619775" lon="9.68132559080973"><ele>217.0</ele><time>2026-04-09T15:03:14.999Z</time></trkpt><trkpt lat="44.24037149357648" lon="9.681063733769038"><ele>217.0</ele><time>2026-04-09T15:03:15.999Z</time></trkpt><trkpt lat="44.24031261829215" lon="9.680794280459324"><ele>217.0</ele><time>2026-04-09T15:03:16.999Z</time></trkpt><trkpt lat="44.24024500592665" lon="9.680513123436748"><ele>217.0</ele><time>2026-04-09T15:03:17.999Z</time></trkpt><trkpt lat="44.24017491841814" lon="9.680222690288774"><ele>217.0</ele><time>2026-04-09T15:03:18.999Z</time></trkpt><trkpt lat="44.24010735874604" lon="9.679926432030442"><ele>215.5</ele><time>2026-04-09T15:03:19.999Z</time></trkpt><trkpt lat="44.240032784419704" lon="9.679623138393247"><ele>214.0</ele><time>2026-04-09T15:03:21Z</time></trkpt><trkpt lat="44.23995047873998" lon="9.67931333581867"><ele>205.5</ele><time>2026-04-09T15:03:22Z</time></trkpt><trkpt lat="44.239860943662876" lon="9.678998077562376"><ele>197.0</ele><time>2026-04-09T15:03:23Z</time></trkpt><trkpt lat="44.239766730996145" lon="9.678677532619282"><ele>214.0</ele><time>2026-04-09T15:03:24Z</time></trkpt><trkpt lat="44.23966765914352" lon="9.678353298277331"><ele>231.0</ele><time>2026-04-09T15:03:25Z</time></trkpt><trkpt lat="44.23956327833117" lon="9.678027697057628"><ele>233.0</ele><time>2026-04-09T15:03:26Z</time></trkpt><trkpt lat="44.23945808378258" lon="9.677696241111851"><ele>235.0</ele><time>2026-04-09T15:03:27Z</time></trkpt><trkpt lat="44.23935103507076" lon="9.677361715548123"><ele>235.0</ele><time>2026-04-09T15:03:28Z</time></trkpt><trkpt lat="44.239244706481436" lon="9.677026740570989"><ele>235.0</ele><time>2026-04-09T15:03:29Z</time></trkpt><trkpt lat="44.2391430721814" lon="9.676681483359538"><ele>239.0</ele><time>2026-04-09T15:03:30Z</time></trkpt><trkpt lat="44.239039425831834" lon="9.676315887652027"><ele>243.0</ele><time>2026-04-09T15:03:31.019Z</time></trkpt><trkpt lat="44.23894372386451" lon="9.675945756998626"><ele>262.5</ele><time>2026-04-09T15:03:32.014Z</time></trkpt><trkpt lat="44.23886150288844" lon="9.675586962638194"><ele>282.0</ele><time>2026-04-09T15:03:33.018Z</time></trkpt><trkpt lat="44.238791509032026" lon="9.675235437667638"><ele>283.5</ele><time>2026-04-09T15:03:34.015Z</time></trkpt><trkpt lat="44.238724317986964" lon="9.674878486673405"><ele>285.0</ele><time>2026-04-09T15:03:35.018Z</time></trkpt><trkpt lat="44.23862631087417" lon="9.670819133893998"><ele>307.0</ele><time>2026-04-09T15:03:39.084Z</time></trkpt><trkpt lat="44.23866794128924" lon="9.669569321637844"><ele>239.0</ele><time>2026-04-09T15:03:40.084Z</time></trkpt><trkpt lat="44.238597814722375" lon="9.668322718503264"><ele>220.0</ele><time>2026-04-09T15:03:41.083Z</time></trkpt><trkpt lat="44.23850979660101" lon="9.667500369259777"><ele>220.0</ele><time>2026-04-09T15:03:55Z</time></trkpt><trkpt lat="44.23846205306316" lon="9.66715546004297"><ele>220.0</ele><time>2026-04-09T15:03:56Z</time></trkpt><trkpt lat="44.23838065231552" lon="9.666812012655535"><ele>215.5</ele><time>2026-04-09T15:03:57Z</time></trkpt><trkpt lat="44.238293758709176" lon="9.666485277781629"><ele>211.0</ele><time>2026-04-09T15:03:58Z</time></trkpt><trkpt lat="44.23819794124729" lon="9.666146066126075"><ele>219.0</ele><time>2026-04-09T15:03:59Z</time></trkpt><trkpt lat="44.2380945408539" lon="9.665805557241459"><ele>227.0</ele><time>2026-04-09T15:04:00Z</time></trkpt><trkpt lat="44.237980907379644" lon="9.66546517324005"><ele>220.5</ele><time>2026-04-09T15:04:01Z</time></trkpt><trkpt lat="44.23785582591203" lon="9.665128524002718"><ele>214.0</ele><time>2026-04-09T15:04:02Z</time></trkpt><trkpt lat="44.23772194002369" lon="9.664797095222486"><ele>214.0</ele><time>2026-04-09T15:04:03Z</time></trkpt><trkpt lat="44.237587823626285" lon="9.664462404979759"><ele>214.0</ele><time>2026-04-09T15:04:04Z</time></trkpt><trkpt lat="44.23745070661677" lon="9.664122451301006"><ele>206.5</ele><time>2026-04-09T15:04:05Z</time></trkpt><trkpt lat="44.23731019588999" lon="9.663782951310745"><ele>199.0</ele><time>2026-04-09T15:04:06Z</time></trkpt><trkpt lat="44.23717046011068" lon="9.663442896453878"><ele>199.0</ele><time>2026-04-09T15:04:07Z</time></trkpt><trkpt lat="44.237031034897996" lon="9.663098668007475"><ele>199.0</ele><time>2026-04-09T15:04:08Z</time></trkpt><trkpt lat="44.23689542045502" lon="9.662754378260841"><ele>199.0</ele><time>2026-04-09T15:04:09Z</time></trkpt><trkpt lat="44.23676557572271" lon="9.66241991432975"><ele>199.0</ele><time>2026-04-09T15:04:10Z</time></trkpt><trkpt lat="44.23664972271807" lon="9.662096907480988"><ele>202.5</ele><time>2026-04-09T15:04:11Z</time></trkpt><trkpt lat="44.23653837649786" lon="9.661762543315744"><ele>206.0</ele><time>2026-04-09T15:04:12Z</time></trkpt><trkpt lat="44.2364322089355" lon="9.6614229337106"><ele>216.5</ele><time>2026-04-09T15:04:13Z</time></trkpt><trkpt lat="44.23632965492547" lon="9.661076391334776"><ele>227.0</ele><time>2026-04-09T15:04:14Z</time></trkpt><trkpt lat="44.23623285442592" lon="9.660724757093742"><ele>227.0</ele><time>2026-04-09T15:04:15Z</time></trkpt><trkpt lat="44.23614322953576" lon="9.66036498239308"><ele>227.0</ele><time>2026-04-09T15:04:16Z</time></trkpt><trkpt lat="44.236059688832185" lon="9.659993464603742"><ele>232.5</ele><time>2026-04-09T15:04:17Z</time></trkpt><trkpt lat="44.2359805263909" lon="9.65959846827381"><ele>238.0</ele><time>2026-04-09T15:04:18.019Z</time></trkpt><trkpt lat="44.235907727746415" lon="9.659199558210513"><ele>244.5</ele><time>2026-04-09T15:04:19.02Z</time></trkpt><trkpt lat="44.235837802221006" lon="9.658793236024112"><ele>251.0</ele><time>2026-04-09T15:04:20.018Z</time></trkpt><trkpt lat="44.235770149882384" lon="9.65838464705908"><ele>211.0</ele><time>2026-04-09T15:04:21.019Z</time></trkpt><trkpt lat="44.23572193369664" lon="9.653299916544606"><ele>211.0</ele><time>2026-04-09T15:04:34.999Z</time></trkpt><trkpt lat="44.235737986055575" lon="9.652936480657607"><ele>211.0</ele><time>2026-04-09T15:04:35.999Z</time></trkpt><trkpt lat="44.23580205192437" lon="9.652670530412356"><ele>212.5</ele><time>2026-04-09T15:04:36.999Z</time></trkpt><trkpt lat="44.23584635223819" lon="9.652348550777063"><ele>214.0</ele><time>2026-04-09T15:04:37.999Z</time></trkpt><trkpt lat="44.23589661232153" lon="9.652035023167103"><ele>217.0</ele><time>2026-04-09T15:04:38.999Z</time></trkpt><trkpt lat="44.2359468398326" lon="9.651719859430802"><ele>220.0</ele><time>2026-04-09T15:04:39.999Z</time></trkpt><trkpt lat="44.23599418183672" lon="9.651393867062545"><ele>222.5</ele><time>2026-04-09T15:04:40.999Z</time></trkpt><trkpt lat="44.2360380295677" lon="9.651068579141898"><ele>225.0</ele><time>2026-04-09T15:04:41.999Z</time></trkpt><trkpt lat="44.236074728718535" lon="9.65074056039888"><ele>225.0</ele><time>2026-04-09T15:04:42.999Z</time></trkpt><trkpt lat="44.23610516635993" lon="9.65040241347743"><ele>225.0</ele><time>2026-04-09T15:04:43.999Z</time></trkpt><trkpt lat="44.23612145423702" lon="9.650059137691148"><ele>231.0</ele><time>2026-04-09T15:04:44.999Z</time></trkpt><trkpt lat="44.23612443020564" lon="9.649711827207554"><ele>237.0</ele><time>2026-04-09T15:04:45.999Z</time></trkpt><trkpt lat="44.23611829643726" lon="9.649360633951083"><ele>238.0</ele><time>2026-04-09T15:04:46.999Z</time></trkpt><trkpt lat="44.236102760104345" lon="9.649006938000486"><ele>239.0</ele><time>2026-04-09T15:04:47.999Z</time></trkpt><trkpt lat="44.236077312189764" lon="9.648652682634362"><ele>238.5</ele><time>2026-04-09T15:04:48.999Z</time></trkpt><trkpt lat="44.236037424888046" lon="9.648298621723379"><ele>238.0</ele><time>2026-04-09T15:04:49.999Z</time></trkpt><trkpt lat="44.23599303679136" lon="9.647970944706136"><ele>236.0</ele><time>2026-04-09T15:04:50.999Z</time></trkpt><trkpt lat="44.235943030880534" lon="9.647652417604277"><ele>234.0</ele><time>2026-04-09T15:04:51.999Z</time></trkpt><trkpt lat="44.235882917086116" lon="9.647340406683822"><ele>234.0</ele><time>2026-04-09T15:04:52.999Z</time></trkpt><trkpt lat="44.23581492044507" lon="9.647047627532576"><ele>234.0</ele><time>2026-04-09T15:04:53.999Z</time></trkpt><trkpt lat="44.23573225751991" lon="9.646751092925458"><ele>234.0</ele><time>2026-04-09T15:04:54.999Z</time></trkpt><trkpt lat="44.23564456505389" lon="9.64646116115441"><ele>266.0</ele><time>2026-04-09T15:04:55.999Z</time></trkpt><trkpt lat="44.235545748437566" lon="9.646167380168663"><ele>298.0</ele><time>2026-04-09T15:04:56.999Z</time></trkpt><trkpt lat="44.235434750214345" lon="9.64586282451856"><ele>306.5</ele><time>2026-04-09T15:04:58.018Z</time></trkpt><trkpt lat="44.235318200285334" lon="9.645554515194084"><ele>315.0</ele><time>2026-04-09T15:04:59.018Z</time></trkpt><trkpt lat="44.23519945279812" lon="9.645233487051662"><ele>315.0</ele><time>2026-04-09T15:05:00.018Z</time></trkpt><trkpt lat="44.23508701558005" lon="9.644926414745441"><ele>315.0</ele><time>2026-04-09T15:05:01.018Z</time></trkpt><trkpt lat="44.23497973624185" lon="9.644633186280952"><ele>247.0</ele><time>2026-04-09T15:05:02.015Z</time></trkpt><trkpt lat="44.23430799045063" lon="9.642881462359467"><ele>237.0</ele><time>2026-04-09T15:05:07.999Z</time></trkpt><trkpt lat="44.234200513416454" lon="9.642597617358138"><ele>227.0</ele><time>2026-04-09T15:05:08.999Z</time></trkpt><trkpt lat="44.23410190308403" lon="9.642319904198056"><ele>227.0</ele><time>2026-04-09T15:05:09.999Z</time></trkpt><trkpt lat="44.23400197710665" lon="9.642047886682155"><ele>227.0</ele><time>2026-04-09T15:05:10.999Z</time></trkpt><trkpt lat="44.23390591771903" lon="9.64176580401421"><ele>227.0</ele><time>2026-04-09T15:05:11.999Z</time></trkpt><trkpt lat="44.23381629670082" lon="9.641472618738417"><ele>224.0</ele><time>2026-04-09T15:05:12.999Z</time></trkpt><trkpt lat="44.23373285420057" lon="9.641165272693765"><ele>221.0</ele><time>2026-04-09T15:05:13.999Z</time></trkpt><trkpt lat="44.2336515547048" lon="9.640872656017507"><ele>216.66666666666669</ele><time>2026-04-09T15:05:14.999Z</time></trkpt><trkpt lat="44.23357599900425" lon="9.640579928074159"><ele>212.33333333333331</ele><time>2026-04-09T15:05:15.999Z</time></trkpt><trkpt lat="44.2335020634222" lon="9.640285357273541"><ele>208.0</ele><time>2026-04-09T15:05:16.999Z</time></trkpt><trkpt lat="44.23343084585037" lon="9.639984106829651"><ele>208.0</ele><time>2026-04-09T15:05:17.999Z</time></trkpt><trkpt lat="44.23335987267486" lon="9.639675478652642"><ele>208.0</ele><time>2026-04-09T15:05:18.999Z</time></trkpt><trkpt lat="44.23328939293179" lon="9.639362967850458"><ele>214.0</ele><time>2026-04-09T15:05:19.999Z</time></trkpt><trkpt lat="44.23322368486115" lon="9.639046694759514"><ele>220.0</ele><time>2026-04-09T15:05:20.999Z</time></trkpt><trkpt lat="44.233160510045266" lon="9.638725282918204"><ele>226.66666666666666</ele><time>2026-04-09T15:05:21.999Z</time></trkpt><trkpt lat="44.233102625085905" lon="9.63841926561529"><ele>233.33333333333331</ele><time>2026-04-09T15:05:22.999Z</time></trkpt><trkpt lat="44.23304797369242" lon="9.638129410177406"><ele>240.0</ele><time>2026-04-09T15:05:23.999Z</time></trkpt><trkpt lat="44.23299726070422" lon="9.637854843306636"><ele>246.0</ele><time>2026-04-09T15:05:24.999Z</time></trkpt><trkpt lat="44.23294447786184" lon="9.637581540451812"><ele>252.0</ele><time>2026-04-09T15:05:25.999Z</time></trkpt><trkpt lat="44.23289242833882" lon="9.637309019688383"><ele>258.0</ele><time>2026-04-09T15:05:27Z</time></trkpt><trkpt lat="44.23283926221846" lon="9.63703422447"><ele>260.6666666666667</ele><time>2026-04-09T15:05:28Z</time></trkpt><trkpt lat="44.23278240306083" lon="9.63675342328556"><ele>263.33333333333337</ele><time>2026-04-09T15:05:29Z</time></trkpt><trkpt lat="44.23272172241849" lon="9.63646363392774"><ele>266.0</ele><time>2026-04-09T15:05:30Z</time></trkpt><trkpt lat="44.23265536056221" lon="9.636162739326014"><ele>266.0</ele><time>2026-04-09T15:05:31Z</time></trkpt><trkpt lat="44.23259333995245" lon="9.635869017459358"><ele>266.0</ele><time>2026-04-09T15:05:32Z</time></trkpt><trkpt lat="44.232528300974465" lon="9.635599603062417"><ele>266.0</ele><time>2026-04-09T15:05:33Z</time></trkpt><trkpt lat="44.23246009657999" lon="9.635336168842471"><ele>264.33333333333337</ele><time>2026-04-09T15:05:34Z</time></trkpt><trkpt lat="44.23238822298629" lon="9.635055567728578"><ele>262.6666666666667</ele><time>2026-04-09T15:05:35Z</time></trkpt><trkpt lat="44.23231513429642" lon="9.634784167948865"><ele>261.0</ele><time>2026-04-09T15:05:36Z</time></trkpt><trkpt lat="44.2322438482127" lon="9.634534933241989"><ele>268.6666666666667</ele><time>2026-04-09T15:05:37Z</time></trkpt><trkpt lat="44.23216946157855" lon="9.634278664715266"><ele>276.33333333333337</ele><time>2026-04-09T15:05:38Z</time></trkpt><trkpt lat="44.23209141006888" lon="9.634015627308539"><ele>284.0</ele><time>2026-04-09T15:05:39Z</time></trkpt><trkpt lat="44.23201258852803" lon="9.633750850267948"><ele>281.6666666666667</ele><time>2026-04-09T15:05:40Z</time></trkpt><trkpt lat="44.23192723286814" lon="9.633485922198213"><ele>279.3333333333333</ele><time>2026-04-09T15:05:41Z</time></trkpt><trkpt lat="44.23183983758376" lon="9.633220711980861"><ele>277.0</ele><time>2026-04-09T15:05:42Z</time></trkpt><trkpt lat="44.231749694376006" lon="9.632958194007564"><ele>274.3333333333333</ele><time>2026-04-09T15:05:43Z</time></trkpt><trkpt lat="44.231658455435515" lon="9.632696272097702"><ele>271.6666666666667</ele><time>2026-04-09T15:05:44Z</time></trkpt><trkpt lat="44.23156980973119" lon="9.632454729615676"><ele>269.0</ele><time>2026-04-09T15:05:45Z</time></trkpt><trkpt lat="44.23148589463582" lon="9.632220946713778"><ele>279.6666666666667</ele><time>2026-04-09T15:05:46Z</time></trkpt><trkpt lat="44.23139880143179" lon="9.631980517672767"><ele>290.3333333333333</ele><time>2026-04-09T15:05:47Z</time></trkpt><trkpt lat="44.23130634425243" lon="9.631743963026944"><ele>301.0</ele><time>2026-04-09T15:05:48Z</time></trkpt><trkpt lat="44.231211161271105" lon="9.6315113072897"><ele>301.0</ele><time>2026-04-09T15:05:49Z</time></trkpt><trkpt lat="44.23111843491647" lon="9.631279381374618"><ele>301.0</ele><time>2026-04-09T15:05:50Z</time></trkpt><trkpt lat="44.23103254327795" lon="9.631060026421283"><ele>301.0</ele><time>2026-04-09T15:05:51Z</time></trkpt><trkpt lat="44.230943234716975" lon="9.630843795761782"><ele>294.0</ele><time>2026-04-09T15:05:52Z</time></trkpt><trkpt lat="44.230856895507344" lon="9.630623458335547"><ele>287.0</ele><time>2026-04-09T15:05:53Z</time></trkpt><trkpt lat="44.230768319995754" lon="9.630399390218043"><ele>280.0</ele><time>2026-04-09T15:05:54Z</time></trkpt><trkpt lat="44.2306773294088" lon="9.630170170442717"><ele>283.66666666666663</ele><time>2026-04-09T15:05:55Z</time></trkpt><trkpt lat="44.23058715089475" lon="9.62993979798052"><ele>287.3333333333333</ele><time>2026-04-09T15:05:56Z</time></trkpt><trkpt lat="44.23049602535225" lon="9.629705928447608"><ele>291.0</ele><time>2026-04-09T15:05:57Z</time></trkpt><trkpt lat="44.230405584133294" lon="9.629470391965471"><ele>291.0</ele><time>2026-04-09T15:05:58Z</time></trkpt><trkpt lat="44.230314462488714" lon="9.629231039303688"><ele>291.0</ele><time>2026-04-09T15:05:59Z</time></trkpt><trkpt lat="44.23022426624135" lon="9.628986462401755"><ele>291.0</ele><time>2026-04-09T15:06:00Z</time></trkpt><trkpt lat="44.2301363241078" lon="9.628737096660371"><ele>287.3333333333333</ele><time>2026-04-09T15:06:01Z</time></trkpt><trkpt lat="44.23005235842296" lon="9.62848374509005"><ele>283.66666666666663</ele><time>2026-04-09T15:06:02Z</time></trkpt><trkpt lat="44.22997301064763" lon="9.628224350604786"><ele>280.0</ele><time>2026-04-09T15:06:03Z</time></trkpt><trkpt lat="44.229897141879185" lon="9.627958562798053"><ele>276.66666666666663</ele><time>2026-04-09T15:06:04Z</time></trkpt><trkpt lat="44.229828313349515" lon="9.62768543304263"><ele>273.3333333333333</ele><time>2026-04-09T15:06:05Z</time></trkpt><trkpt lat="44.229764003868176" lon="9.627415175209977"><ele>270.0</ele><time>2026-04-09T15:06:06Z</time></trkpt><trkpt lat="44.22970954399553" lon="9.627159522936875"><ele>286.0</ele><time>2026-04-09T15:06:07Z</time></trkpt><trkpt lat="44.22966472917117" lon="9.62691173353607"><ele>302.0</ele><time>2026-04-09T15:06:08Z</time></trkpt><trkpt lat="44.22962461798032" lon="9.626664118505346"><ele>318.0</ele><time>2026-04-09T15:06:09Z</time></trkpt><trkpt lat="44.229588465884696" lon="9.62641441826649"><ele>318.0</ele><time>2026-04-09T15:06:10Z</time></trkpt><trkpt lat="44.22955845704753" lon="9.626162494175102"><ele>318.0</ele><time>2026-04-09T15:06:11Z</time></trkpt><trkpt lat="44.229531759425" lon="9.62590547073977"><ele>318.0</ele><time>2026-04-09T15:06:12Z</time></trkpt><trkpt lat="44.229513373456896" lon="9.625647274971444"><ele>317.0</ele><time>2026-04-09T15:06:13Z</time></trkpt><trkpt lat="44.22949562539218" lon="9.625388894014947"><ele>316.0</ele><time>2026-04-09T15:06:14Z</time></trkpt><trkpt lat="44.22948152837794" lon="9.625127978182618"><ele>315.0</ele><time>2026-04-09T15:06:15Z</time></trkpt><trkpt lat="44.229473099010804" lon="9.624862299145986"><ele>312.3333333333333</ele><time>2026-04-09T15:06:16Z</time></trkpt><trkpt lat="44.22946833725646" lon="9.624592095297166"><ele>309.66666666666663</ele><time>2026-04-09T15:06:17Z</time></trkpt><trkpt lat="44.229462352758205" lon="9.62432216052037"><ele>307.0</ele><time>2026-04-09T15:06:18Z</time></trkpt><trkpt lat="44.229454097152605" lon="9.624050462751159"><ele>301.3333333333333</ele><time>2026-04-09T15:06:19Z</time></trkpt><trkpt lat="44.22944370928914" lon="9.623781688678886"><ele>295.6666666666667</ele><time>2026-04-09T15:06:20Z</time></trkpt><trkpt lat="44.2294313034425" lon="9.623512566730701"><ele>290.0</ele><time>2026-04-09T15:06:21Z</time></trkpt><trkpt lat="44.22941485216286" lon="9.623245766494716"><ele>290.0</ele><time>2026-04-09T15:06:22Z</time></trkpt><trkpt lat="44.229394286050095" lon="9.622979570479055"><ele>290.0</ele><time>2026-04-09T15:06:23Z</time></trkpt><trkpt lat="44.229365272236954" lon="9.62271219008139"><ele>290.0</ele><time>2026-04-09T15:06:24Z</time></trkpt><trkpt lat="44.22933355718911" lon="9.622445053991562"><ele>292.0</ele><time>2026-04-09T15:06:25Z</time></trkpt><trkpt lat="44.22929670603841" lon="9.62217810531844"><ele>294.0</ele><time>2026-04-09T15:06:26Z</time></trkpt><trkpt lat="44.22925470271871" lon="9.621908992512642"><ele>296.0</ele><time>2026-04-09T15:06:27Z</time></trkpt><trkpt lat="44.22920592794292" lon="9.621641646177197"><ele>296.0</ele><time>2026-04-09T15:06:28Z</time></trkpt><trkpt lat="44.229152043757196" lon="9.621375881742448"><ele>296.0</ele><time>2026-04-09T15:06:29Z</time></trkpt><trkpt lat="44.22909164285924" lon="9.621112435449973"><ele>296.0</ele><time>2026-04-09T15:06:30Z</time></trkpt><trkpt lat="44.22902500656729" lon="9.620851124634916"><ele>304.33333333333337</ele><time>2026-04-09T15:06:31Z</time></trkpt><trkpt lat="44.2289543968819" lon="9.620593033464983"><ele>312.6666666666667</ele><time>2026-04-09T15:06:32Z</time></trkpt><trkpt lat="44.22887993084638" lon="9.620335053331601"><ele>321.0</ele><time>2026-04-09T15:06:33Z</time></trkpt><trkpt lat="44.22880215718944" lon="9.6200784895396"><ele>321.0</ele><time>2026-04-09T15:06:34Z</time></trkpt><trkpt lat="44.228722641971665" lon="9.619823081469947"><ele>321.0</ele><time>2026-04-09T15:06:35Z</time></trkpt><trkpt lat="44.22864777935001" lon="9.619581814439204"><ele>321.0</ele><time>2026-04-09T15:06:36Z</time></trkpt><trkpt lat="44.22857585904921" lon="9.619353487187864"><ele>319.3333333333333</ele><time>2026-04-09T15:06:37Z</time></trkpt><trkpt lat="44.228501702171855" lon="9.619122942616945"><ele>317.66666666666663</ele><time>2026-04-09T15:06:38Z</time></trkpt><trkpt lat="44.22842888150444" lon="9.618888706977382"><ele>316.0</ele><time>2026-04-09T15:06:39Z</time></trkpt><trkpt lat="44.228360600469536" lon="9.618655728402691"><ele>312.0</ele><time>2026-04-09T15:06:39.999Z</time></trkpt><trkpt lat="44.22829536090193" lon="9.61842847032862"><ele>308.0</ele><time>2026-04-09T15:06:40.999Z</time></trkpt><trkpt lat="44.228229715852756" lon="9.618194257099454"><ele>304.0</ele><time>2026-04-09T15:06:41.999Z</time></trkpt><trkpt lat="44.22816423199185" lon="9.617942045938774"><ele>308.0</ele><time>2026-04-09T15:06:42.999Z</time></trkpt><trkpt lat="44.22809881455372" lon="9.61767475084505"><ele>312.0</ele><time>2026-04-09T15:06:43.999Z</time></trkpt><trkpt lat="44.22803676492517" lon="9.617396163052348"><ele>316.0</ele><time>2026-04-09T15:06:44.999Z</time></trkpt><trkpt lat="44.227981664545496" lon="9.617089417462187"><ele>313.0</ele><time>2026-04-09T15:06:45.999Z</time></trkpt><trkpt lat="44.22793421122383" lon="9.616798754741849"><ele>310.0</ele><time>2026-04-09T15:06:46.999Z</time></trkpt><trkpt lat="44.22789365178747" lon="9.616509159027192"><ele>307.0</ele><time>2026-04-09T15:06:47.999Z</time></trkpt><trkpt lat="44.22785804212493" lon="9.616211897722149"><ele>310.66666666666663</ele><time>2026-04-09T15:06:48.999Z</time></trkpt><trkpt lat="44.2278274181092" lon="9.615907161938352"><ele>314.3333333333333</ele><time>2026-04-09T15:06:49.999Z</time></trkpt><trkpt lat="44.22780210168387" lon="9.615591224554326"><ele>318.0</ele><time>2026-04-09T15:06:50.999Z</time></trkpt><trkpt lat="44.22778590994948" lon="9.615269978257935"><ele>330.5</ele><time>2026-04-09T15:06:51.999Z</time></trkpt><trkpt lat="44.227774525590085" lon="9.614957487933323"><ele>343.0</ele><time>2026-04-09T15:06:52.999Z</time></trkpt><trkpt lat="44.22777200904132" lon="9.61464197157748"><ele>351.66666666666663</ele><time>2026-04-09T15:06:53.999Z</time></trkpt><trkpt lat="44.22777397458969" lon="9.61433317992916"><ele>360.3333333333333</ele><time>2026-04-09T15:06:55.018Z</time></trkpt><trkpt lat="44.227775755184574" lon="9.61403219088778"><ele>369.0</ele><time>2026-04-09T15:06:56.018Z</time></trkpt><trkpt lat="44.2277798409564" lon="9.61372331318031"><ele>378.66666666666663</ele><time>2026-04-09T15:06:57.018Z</time></trkpt><trkpt lat="44.22782851949522" lon="9.613418225841299"><ele>388.3333333333333</ele><time>2026-04-09T15:06:58.016Z</time></trkpt><trkpt lat="44.22787027888765" lon="9.613110294228738"><ele>398.0</ele><time>2026-04-09T15:06:59.018Z</time></trkpt><trkpt lat="44.2289180914352" lon="9.609831785792121"><ele>364.0</ele><time>2026-04-09T15:07:10.999Z</time></trkpt><trkpt lat="44.2290509429099" lon="9.609543934963883"><ele>330.0</ele><time>2026-04-09T15:07:11.999Z</time></trkpt><trkpt lat="44.22922351836688" lon="9.609236380995883"><ele>321.5</ele><time>2026-04-09T15:07:12.999Z</time></trkpt><trkpt lat="44.2293771947611" lon="9.608962222382782"><ele>313.0</ele><time>2026-04-09T15:07:13.999Z</time></trkpt><trkpt lat="44.22953278132817" lon="9.608675255148567"><ele>314.5</ele><time>2026-04-09T15:07:14.999Z</time></trkpt><trkpt lat="44.22969282895135" lon="9.608376632609934"><ele>316.0</ele><time>2026-04-09T15:07:15.999Z</time></trkpt><trkpt lat="44.229862237524515" lon="9.608063823945969"><ele>324.0</ele><time>2026-04-09T15:07:16.999Z</time></trkpt><trkpt lat="44.23004191678447" lon="9.607742249919848"><ele>332.0</ele><time>2026-04-09T15:07:17.999Z</time></trkpt><trkpt lat="44.230228448897385" lon="9.60741175014873"><ele>332.0</ele><time>2026-04-09T15:07:18.999Z</time></trkpt><trkpt lat="44.230421249935155" lon="9.607069615292282"><ele>332.0</ele><time>2026-04-09T15:07:19.999Z</time></trkpt><trkpt lat="44.23062209676292" lon="9.606719673660082"><ele>321.5</ele><time>2026-04-09T15:07:20.999Z</time></trkpt><trkpt lat="44.23082403281106" lon="9.606359051299489"><ele>311.0</ele><time>2026-04-09T15:07:21.999Z</time></trkpt><trkpt lat="44.23101888596268" lon="9.606021058426906"><ele>311.0</ele><time>2026-04-09T15:07:22.999Z</time></trkpt><trkpt lat="44.23119698184868" lon="9.60570401123844"><ele>311.0</ele><time>2026-04-09T15:07:23.999Z</time></trkpt><trkpt lat="44.23136522676612" lon="9.605410335509303"><ele>322.0</ele><time>2026-04-09T15:07:24.999Z</time></trkpt><trkpt lat="44.231530473300495" lon="9.605132241940304"><ele>333.0</ele><time>2026-04-09T15:07:25.999Z</time></trkpt><trkpt lat="44.231695681388054" lon="9.604854447907366"><ele>333.0</ele><time>2026-04-09T15:07:26.999Z</time></trkpt><trkpt lat="44.231867243510514" lon="9.60458145277364"><ele>333.0</ele><time>2026-04-09T15:07:27.999Z</time></trkpt><trkpt lat="44.23204656968849" lon="9.604316190641674"><ele>334.5</ele><time>2026-04-09T15:07:28.999Z</time></trkpt><trkpt lat="44.232233088337814" lon="9.604057447492977"><ele>336.0</ele><time>2026-04-09T15:07:29.999Z</time></trkpt><trkpt lat="44.23242861549706" lon="9.603809600048466"><ele>343.0</ele><time>2026-04-09T15:07:30.999Z</time></trkpt><trkpt lat="44.23263116735271" lon="9.603574186037106"><ele>350.0</ele><time>2026-04-09T15:07:31.999Z</time></trkpt><trkpt lat="44.23284121990283" lon="9.603345188154773"><ele>350.0</ele><time>2026-04-09T15:07:33Z</time></trkpt><trkpt lat="44.233059778218895" lon="9.603122394280042"><ele>350.0</ele><time>2026-04-09T15:07:34Z</time></trkpt><trkpt lat="44.2332840923905" lon="9.602902583656947"><ele>355.5</ele><time>2026-04-09T15:07:35Z</time></trkpt><trkpt lat="44.23351579004561" lon="9.602694257916323"><ele>361.0</ele><time>2026-04-09T15:07:36Z</time></trkpt><trkpt lat="44.233753470000615" lon="9.602479842361884"><ele>382.0</ele><time>2026-04-09T15:07:37Z</time></trkpt><trkpt lat="44.23399993634698" lon="9.602260419231646"><ele>403.0</ele><time>2026-04-09T15:07:38.018Z</time></trkpt><trkpt lat="44.234244106184384" lon="9.602041905091085"><ele>401.5</ele><time>2026-04-09T15:07:39.017Z</time></trkpt><trkpt lat="44.23447760204763" lon="9.601837454958918"><ele>400.0</ele><time>2026-04-09T15:07:40.018Z</time></trkpt><trkpt lat="44.23469819264055" lon="9.601647539470376"><ele>405.5</ele><time>2026-04-09T15:07:41.018Z</time></trkpt><trkpt lat="44.23490996884456" lon="9.601466225510565"><ele>411.0</ele><time>2026-04-09T15:07:42.018Z</time></trkpt><trkpt lat="44.23511573049002" lon="9.601293610340274"><ele>351.0</ele><time>2026-04-09T15:07:43.016Z</time></trkpt><trkpt lat="44.23615942713268" lon="9.600252779209614"><ele>351.0</ele><time>2026-04-09T15:07:48Z</time></trkpt><trkpt lat="44.236372318356125" lon="9.600052281958778"><ele>351.0</ele><time>2026-04-09T15:07:49Z</time></trkpt><trkpt lat="44.23655483674135" lon="9.599847345657567"><ele>352.0</ele><time>2026-04-09T15:07:50Z</time></trkpt><trkpt lat="44.23673555881613" lon="9.599634172977622"><ele>353.0</ele><time>2026-04-09T15:07:51Z</time></trkpt><trkpt lat="44.23692579153102" lon="9.59941211487468"><ele>353.0</ele><time>2026-04-09T15:07:52Z</time></trkpt><trkpt lat="44.23709792840287" lon="9.599170463327397"><ele>353.0</ele><time>2026-04-09T15:07:53Z</time></trkpt><trkpt lat="44.23727509537503" lon="9.598922831057385"><ele>346.0</ele><time>2026-04-09T15:07:54Z</time></trkpt><trkpt lat="44.23744853509586" lon="9.598678243567464"><ele>339.0</ele><time>2026-04-09T15:07:55Z</time></trkpt><trkpt lat="44.237612588565014" lon="9.598424326635193"><ele>339.0</ele><time>2026-04-09T15:07:56Z</time></trkpt><trkpt lat="44.23776958802012" lon="9.598163253352016"><ele>339.0</ele><time>2026-04-09T15:07:57Z</time></trkpt><trkpt lat="44.23791958797977" lon="9.597892775473378"><ele>338.5</ele><time>2026-04-09T15:07:58Z</time></trkpt><trkpt lat="44.23806548971133" lon="9.597617419970186"><ele>338.0</ele><time>2026-04-09T15:07:59Z</time></trkpt><trkpt lat="44.23820642291469" lon="9.597332909757379"><ele>337.5</ele><time>2026-04-09T15:08:00Z</time></trkpt><trkpt lat="44.23834002230919" lon="9.59704333612478"><ele>337.0</ele><time>2026-04-09T15:08:01Z</time></trkpt><trkpt lat="44.23846765759683" lon="9.596746828506783"><ele>337.0</ele><time>2026-04-09T15:08:02Z</time></trkpt><trkpt lat="44.238591435839865" lon="9.596443631030454"><ele>337.0</ele><time>2026-04-09T15:08:03Z</time></trkpt><trkpt lat="44.238709377075445" lon="9.59613447696515"><ele>338.5</ele><time>2026-04-09T15:08:04Z</time></trkpt><trkpt lat="44.238820808214186" lon="9.595815358376575"><ele>340.0</ele><time>2026-04-09T15:08:05Z</time></trkpt><trkpt lat="44.23892190291839" lon="9.595490825453796"><ele>343.0</ele><time>2026-04-09T15:08:06Z</time></trkpt><trkpt lat="44.23901742330201" lon="9.595159456274551"><ele>346.0</ele><time>2026-04-09T15:08:07Z</time></trkpt><trkpt lat="44.23910761589542" lon="9.594817545054488"><ele>346.5</ele><time>2026-04-09T15:08:08Z</time></trkpt><trkpt lat="44.23919404540988" lon="9.594458948787658"><ele>347.0</ele><time>2026-04-09T15:08:09Z</time></trkpt><trkpt lat="44.23927462823047" lon="9.594080505446696"><ele>347.0</ele><time>2026-04-09T15:08:10Z</time></trkpt><trkpt lat="44.23934564995921" lon="9.593684782766562"><ele>347.0</ele><time>2026-04-09T15:08:11Z</time></trkpt><trkpt lat="44.23940033608009" lon="9.593310453034874"><ele>350.0</ele><time>2026-04-09T15:08:12Z</time></trkpt><trkpt lat="44.23944720780023" lon="9.592933147662944"><ele>353.0</ele><time>2026-04-09T15:08:13Z</time></trkpt><trkpt lat="44.239484484289804" lon="9.59255264750909"><ele>363.5</ele><time>2026-04-09T15:08:14Z</time></trkpt><trkpt lat="44.2395133176909" lon="9.592167991387008"><ele>374.0</ele><time>2026-04-09T15:08:15Z</time></trkpt><trkpt lat="44.23953286378061" lon="9.591777994579534"><ele>389.5</ele><time>2026-04-09T15:08:16Z</time></trkpt><trkpt lat="44.23954222036681" lon="9.591379649619912"><ele>405.0</ele><time>2026-04-09T15:08:17.016Z</time></trkpt><trkpt lat="44.239540767371786" lon="9.590985983610313"><ele>414.0</ele><time>2026-04-09T15:08:18.017Z</time></trkpt><trkpt lat="44.23952847220258" lon="9.590589664866892"><ele>423.0</ele><time>2026-04-09T15:08:19.018Z</time></trkpt><trkpt lat="44.23950814135063" lon="9.590187979153283"><ele>342.0</ele><time>2026-04-09T15:08:20.019Z</time></trkpt><trkpt lat="44.23964877151347" lon="9.571256926292154"><ele>340.0</ele><time>2026-04-09T15:09:14.999Z</time></trkpt><trkpt lat="44.23974720870725" lon="9.570980691435375"><ele>338.0</ele><time>2026-04-09T15:09:15.999Z</time></trkpt><trkpt lat="44.23985314855141" lon="9.570726436452063"><ele>336.0</ele><time>2026-04-09T15:09:16.999Z</time></trkpt><trkpt lat="44.23996348718553" lon="9.570458344842194"><ele>331.0</ele><time>2026-04-09T15:09:17.999Z</time></trkpt><trkpt lat="44.24008374931968" lon="9.57019716419326"><ele>326.0</ele><time>2026-04-09T15:09:18.999Z</time></trkpt><trkpt lat="44.24019953500544" lon="9.569926650180847"><ele>321.0</ele><time>2026-04-09T15:09:19.999Z</time></trkpt><trkpt lat="44.240324341776244" lon="9.569664158129786"><ele>316.5</ele><time>2026-04-09T15:09:20.999Z</time></trkpt><trkpt lat="44.24045393339437" lon="9.569407795295934"><ele>312.0</ele><time>2026-04-09T15:09:21.999Z</time></trkpt><trkpt lat="44.24059258092964" lon="9.569155400729551"><ele>317.0</ele><time>2026-04-09T15:09:22.999Z</time></trkpt><trkpt lat="44.240732337366374" lon="9.568899236830234"><ele>322.0</ele><time>2026-04-09T15:09:23.999Z</time></trkpt><trkpt lat="44.24087027008141" lon="9.568653491728908"><ele>322.0</ele><time>2026-04-09T15:09:24.999Z</time></trkpt><trkpt lat="44.2409967584813" lon="9.568441105794987"><ele>322.0</ele><time>2026-04-09T15:09:25.999Z</time></trkpt><trkpt lat="44.24114129649685" lon="9.568195808755735"><ele>322.0</ele><time>2026-04-09T15:09:26.999Z</time></trkpt><trkpt lat="44.2412849525965" lon="9.567958954501082"><ele>324.5</ele><time>2026-04-09T15:09:27.999Z</time></trkpt><trkpt lat="44.2414322329127" lon="9.567710993535206"><ele>327.0</ele><time>2026-04-09T15:09:28.999Z</time></trkpt><trkpt lat="44.24158349122147" lon="9.567444963811013"><ele>340.0</ele><time>2026-04-09T15:09:29.999Z</time></trkpt><trkpt lat="44.24174053792335" lon="9.567177208434696"><ele>353.0</ele><time>2026-04-09T15:09:30.999Z</time></trkpt><trkpt lat="44.24189298956504" lon="9.566921412713697"><ele>297.0</ele><time>2026-04-09T15:09:32.019Z</time></trkpt><trkpt lat="44.242950715268" lon="9.56110207251507"><ele>276.0</ele><time>2026-04-09T15:09:54.999Z</time></trkpt><trkpt lat="44.24261421527597" lon="9.560191080861133"><ele>276.0</ele><time>2026-04-09T15:09:55.999Z</time></trkpt><trkpt lat="44.24274916002017" lon="9.559973885288416"><ele>276.0</ele><time>2026-04-09T15:09:56.999Z</time></trkpt><trkpt lat="44.2427348930182" lon="9.559860305800276"><ele>276.0</ele><time>2026-04-09T15:09:57.999Z</time></trkpt><trkpt lat="44.24270616746753" lon="9.559626483935798"><ele>274.3333333333333</ele><time>2026-04-09T15:10:00Z</time></trkpt><trkpt lat="44.24268462132618" lon="9.55942815271382"><ele>272.66666666666663</ele><time>2026-04-09T15:10:01Z</time></trkpt><trkpt lat="44.2426989213156" lon="9.559223913762116"><ele>271.0</ele><time>2026-04-09T15:10:02Z</time></trkpt><trkpt lat="44.24269128023032" lon="9.558994517094844"><ele>271.0</ele><time>2026-04-09T15:10:03Z</time></trkpt><trkpt lat="44.242668774315625" lon="9.558736927125782"><ele>271.0</ele><time>2026-04-09T15:10:04Z</time></trkpt><trkpt lat="44.242638999320874" lon="9.558467859190856"><ele>271.0</ele><time>2026-04-09T15:10:05Z</time></trkpt><trkpt lat="44.242607800154275" lon="9.558205730776434"><ele>279.0</ele><time>2026-04-09T15:10:06Z</time></trkpt><trkpt lat="44.242578659023934" lon="9.557971893981946"><ele>287.0</ele><time>2026-04-09T15:10:07Z</time></trkpt><trkpt lat="44.24255149411893" lon="9.557771666757892"><ele>295.0</ele><time>2026-04-09T15:10:08Z</time></trkpt><trkpt lat="44.242525254424685" lon="9.55756731103987"><ele>303.66666666666663</ele><time>2026-04-09T15:10:09Z</time></trkpt><trkpt lat="44.24249919241247" lon="9.557342965683832"><ele>312.3333333333333</ele><time>2026-04-09T15:10:10Z</time></trkpt><trkpt lat="44.24247441816801" lon="9.557110613810623"><ele>321.0</ele><time>2026-04-09T15:10:11Z</time></trkpt><trkpt lat="44.24244933410604" lon="9.556872999289075"><ele>334.3333333333333</ele><time>2026-04-09T15:10:12Z</time></trkpt><trkpt lat="44.24242507003352" lon="9.556631417828104"><ele>347.66666666666663</ele><time>2026-04-09T15:10:13.019Z</time></trkpt><trkpt lat="44.24239942996837" lon="9.5564040445073"><ele>361.0</ele><time>2026-04-09T15:10:14.018Z</time></trkpt><trkpt lat="44.242375077230925" lon="9.556168323514042"><ele>382.0</ele><time>2026-04-09T15:10:15.018Z</time></trkpt><trkpt lat="44.24235134482296" lon="9.555927075760005"><ele>403.0</ele><time>2026-04-09T15:10:16.019Z</time></trkpt><trkpt lat="44.24255977035895" lon="9.548003129885887"><ele>372.6666666666667</ele><time>2026-04-09T15:10:44Z</time></trkpt><trkpt lat="44.242765579808626" lon="9.548094611801224"><ele>342.33333333333337</ele><time>2026-04-09T15:10:45Z</time></trkpt><trkpt lat="44.24284004297581" lon="9.547948186101241"><ele>312.0</ele><time>2026-04-09T15:10:46Z</time></trkpt><trkpt lat="44.242904455555625" lon="9.547750136983666"><ele>308.3333333333333</ele><time>2026-04-09T15:10:47Z</time></trkpt><trkpt lat="44.24297854386144" lon="9.54753262642338"><ele>304.66666666666663</ele><time>2026-04-09T15:10:48Z</time></trkpt><trkpt lat="44.24306221855529" lon="9.547304179412276"><ele>301.0</ele><time>2026-04-09T15:10:49Z</time></trkpt><trkpt lat="44.24314337205695" lon="9.547089035968042"><ele>305.0</ele><time>2026-04-09T15:10:50Z</time></trkpt><trkpt lat="44.24322009560705" lon="9.546895527326038"><ele>309.0</ele><time>2026-04-09T15:10:51Z</time></trkpt><trkpt lat="44.24329328701119" lon="9.546715315878583"><ele>313.0</ele><time>2026-04-09T15:10:52Z</time></trkpt><trkpt lat="44.24336327928941" lon="9.546553277019319"><ele>317.0</ele><time>2026-04-09T15:10:53Z</time></trkpt><trkpt lat="44.24342953651893" lon="9.546402321443994"><ele>317.0</ele><time>2026-04-09T15:10:54Z</time></trkpt><trkpt lat="44.24349474138633" lon="9.546253912244238"><ele>317.0</ele><time>2026-04-09T15:10:55Z</time></trkpt><trkpt lat="44.24356619782305" lon="9.546091376701694"><ele>317.0</ele><time>2026-04-09T15:10:56Z</time></trkpt><trkpt lat="44.24365349396691" lon="9.545899203002694"><ele>317.0</ele><time>2026-04-09T15:10:57Z</time></trkpt><trkpt lat="44.2437484806513" lon="9.545683999633074"><ele>313.6666666666667</ele><time>2026-04-09T15:10:58Z</time></trkpt><trkpt lat="44.24384104719143" lon="9.5454709212231"><ele>310.3333333333333</ele><time>2026-04-09T15:10:59Z</time></trkpt><trkpt lat="44.24394162623802" lon="9.545243857961118"><ele>307.0</ele><time>2026-04-09T15:11:00Z</time></trkpt><trkpt lat="44.2440499332077" lon="9.545000946776364"><ele>305.3333333333333</ele><time>2026-04-09T15:11:01Z</time></trkpt><trkpt lat="44.24416093551933" lon="9.54474301746005"><ele>303.6666666666667</ele><time>2026-04-09T15:11:02Z</time></trkpt><trkpt lat="44.24427828506891" lon="9.544471279694779"><ele>302.0</ele><time>2026-04-09T15:11:03Z</time></trkpt><trkpt lat="44.24439735059865" lon="9.544187206578505"><ele>291.5</ele><time>2026-04-09T15:11:04Z</time></trkpt><trkpt lat="44.24451489228555" lon="9.543888657187647"><ele>281.0</ele><time>2026-04-09T15:11:05Z</time></trkpt><trkpt lat="44.244629315908824" lon="9.543578738832952"><ele>282.0</ele><time>2026-04-09T15:11:06Z</time></trkpt><trkpt lat="44.24473646468138" lon="9.543259298974172"><ele>283.0</ele><time>2026-04-09T15:11:07Z</time></trkpt><trkpt lat="44.244840554923634" lon="9.542928495864166"><ele>277.0</ele><time>2026-04-09T15:11:08Z</time></trkpt><trkpt lat="44.24493389932719" lon="9.542587070456529"><ele>271.0</ele><time>2026-04-09T15:11:09Z</time></trkpt><trkpt lat="44.24502239491116" lon="9.542235289791755"><ele>271.0</ele><time>2026-04-09T15:11:10Z</time></trkpt><trkpt lat="44.24510251680018" lon="9.54187951841853"><ele>271.0</ele><time>2026-04-09T15:11:11Z</time></trkpt><trkpt lat="44.24517785104217" lon="9.541512675348889"><ele>279.5</ele><time>2026-04-09T15:11:12Z</time></trkpt><trkpt lat="44.24524251278229" lon="9.541164840880676"><ele>288.0</ele><time>2026-04-09T15:11:12.999Z</time></trkpt><trkpt lat="44.24530137935621" lon="9.54082987904901"><ele>288.0</ele><time>2026-04-09T15:11:13.999Z</time></trkpt><trkpt lat="44.24535791892344" lon="9.540500529428435"><ele>288.0</ele><time>2026-04-09T15:11:14.999Z</time></trkpt><trkpt lat="44.24541699920297" lon="9.540165500098848"><ele>288.5</ele><time>2026-04-09T15:11:15.999Z</time></trkpt><trkpt lat="44.245480388496965" lon="9.539825366258553"><ele>289.0</ele><time>2026-04-09T15:11:16.999Z</time></trkpt><trkpt lat="44.24554130922897" lon="9.539478645844033"><ele>285.5</ele><time>2026-04-09T15:11:17.999Z</time></trkpt><trkpt lat="44.2455993787174" lon="9.539126775672589"><ele>282.0</ele><time>2026-04-09T15:11:18.999Z</time></trkpt><trkpt lat="44.24565739965452" lon="9.538775589872134"><ele>299.5</ele><time>2026-04-09T15:11:19.999Z</time></trkpt><trkpt lat="44.24571733209263" lon="9.538413292784817"><ele>317.0</ele><time>2026-04-09T15:11:20.999Z</time></trkpt><trkpt lat="44.24577522608797" lon="9.538046119614691"><ele>327.0</ele><time>2026-04-09T15:11:21.999Z</time></trkpt><trkpt lat="44.245834602129335" lon="9.537679565992912"><ele>337.0</ele><time>2026-04-09T15:11:22.999Z</time></trkpt><trkpt lat="44.24589222489254" lon="9.537310267790192"><ele>352.5</ele><time>2026-04-09T15:11:23.999Z</time></trkpt><trkpt lat="44.24595091952444" lon="9.536942068331987"><ele>368.0</ele><time>2026-04-09T15:11:25.018Z</time></trkpt><trkpt lat="44.24600852006829" lon="9.5365772394489"><ele>368.0</ele><time>2026-04-09T15:11:26.018Z</time></trkpt><trkpt lat="44.24606555818812" lon="9.53622026820482"><ele>368.0</ele><time>2026-04-09T15:11:27.018Z</time></trkpt><trkpt lat="44.2461194981735" lon="9.53587220135369"><ele>385.0</ele><time>2026-04-09T15:11:28.013Z</time></trkpt><trkpt lat="44.24617090232512" lon="9.535537028864827"><ele>402.0</ele><time>2026-04-09T15:11:29.016Z</time></trkpt><trkpt lat="44.2468150013265" lon="9.53143285483647"><ele>573.0</ele><time>2026-04-09T15:11:33.08Z</time></trkpt><trkpt lat="44.2470248919331" lon="9.53008761699087"><ele>593.0</ele><time>2026-04-09T15:11:34.08Z</time></trkpt><trkpt lat="44.2472403285708" lon="9.528743461388897"><ele>527.0</ele><time>2026-04-09T15:11:35.08Z</time></trkpt><trkpt lat="44.24744814282286" lon="9.527396956067758"><ele>449.0</ele><time>2026-04-09T15:11:36.08Z</time></trkpt><trkpt lat="44.24764992826516" lon="9.526048687659774"><ele>418.0</ele><time>2026-04-09T15:11:37.08Z</time></trkpt><trkpt lat="44.2478839883336" lon="9.524710898036188"><ele>362.0</ele><time>2026-04-09T15:11:38.08Z</time></trkpt><trkpt lat="44.24820010321767" lon="9.52340651414516"><ele>357.0</ele><time>2026-04-09T15:11:39.08Z</time></trkpt><trkpt lat="44.24863069971775" lon="9.522167331444773"><ele>280.0</ele><time>2026-04-09T15:11:40.08Z</time></trkpt><trkpt lat="44.2491406818089" lon="9.520988034141078"><ele>268.0</ele><time>2026-04-09T15:11:41.08Z</time></trkpt><trkpt lat="44.24936151136109" lon="9.520361758777424"><ele>268.0</ele><time>2026-04-09T15:12:11.999Z</time></trkpt><trkpt lat="44.24951322411812" lon="9.520054112599057"><ele>268.0</ele><time>2026-04-09T15:12:12.999Z</time></trkpt><trkpt lat="44.2495184993327" lon="9.521466180623866"><ele>274.0</ele><time>2026-04-09T15:12:13.999Z</time></trkpt><trkpt lat="44.24968775157601" lon="9.521205178176892"><ele>280.0</ele><time>2026-04-09T15:12:14.999Z</time></trkpt><trkpt lat="44.24988423570244" lon="9.52092546473963"><ele>278.0</ele><time>2026-04-09T15:12:15.999Z</time></trkpt><trkpt lat="44.2500809683649" lon="9.520288854957856"><ele>278.0</ele><time>2026-04-09T15:12:16.999Z</time></trkpt><trkpt lat="44.25022041770156" lon="9.519969611459725"><ele>278.0</ele><time>2026-04-09T15:12:18Z</time></trkpt><trkpt lat="44.25045499224013" lon="9.518465058735156"><ele>270.0</ele><time>2026-04-09T15:12:19Z</time></trkpt><trkpt lat="44.2506053530665" lon="9.518189037450172"><ele>262.0</ele><time>2026-04-09T15:12:20Z</time></trkpt><trkpt lat="44.25075553598311" lon="9.51790981612319"><ele>255.5</ele><time>2026-04-09T15:12:21Z</time></trkpt><trkpt lat="44.25091591443028" lon="9.517620960744086"><ele>249.0</ele><time>2026-04-09T15:12:22Z</time></trkpt><trkpt lat="44.251073088764976" lon="9.51732429842053"><ele>242.0</ele><time>2026-04-09T15:12:23Z</time></trkpt><trkpt lat="44.251225209887956" lon="9.517027367308877"><ele>235.0</ele><time>2026-04-09T15:12:24Z</time></trkpt><trkpt lat="44.25138581967161" lon="9.516733452550422"><ele>236.0</ele><time>2026-04-09T15:12:25Z</time></trkpt><trkpt lat="44.25154407765808" lon="9.516436770013188"><ele>237.0</ele><time>2026-04-09T15:12:26Z</time></trkpt><trkpt lat="44.25170275226441" lon="9.516140029090248"><ele>237.0</ele><time>2026-04-09T15:12:27Z</time></trkpt><trkpt lat="44.251860031284785" lon="9.515838117576957"><ele>237.0</ele><time>2026-04-09T15:12:28Z</time></trkpt><trkpt lat="44.252011561869416" lon="9.515532885299306"><ele>234.0</ele><time>2026-04-09T15:12:29Z</time></trkpt><trkpt lat="44.252163651732396" lon="9.515228483834788"><ele>231.0</ele><time>2026-04-09T15:12:30Z</time></trkpt><trkpt lat="44.25232552607923" lon="9.51494129867363"><ele>238.0</ele><time>2026-04-09T15:12:31Z</time></trkpt><trkpt lat="44.252471838304125" lon="9.514618557409662"><ele>245.0</ele><time>2026-04-09T15:12:32Z</time></trkpt><trkpt lat="44.25261450087756" lon="9.514295333975825"><ele>245.0</ele><time>2026-04-09T15:12:33Z</time></trkpt><trkpt lat="44.25275108958432" lon="9.513964979734004"><ele>245.0</ele><time>2026-04-09T15:12:34Z</time></trkpt><trkpt lat="44.25288715267853" lon="9.51363349760849"><ele>246.0</ele><time>2026-04-09T15:12:35Z</time></trkpt><trkpt lat="44.2530211580036" lon="9.51330206255027"><ele>247.0</ele><time>2026-04-09T15:12:36Z</time></trkpt><trkpt lat="44.253147391270694" lon="9.512963543979051"><ele>257.5</ele><time>2026-04-09T15:12:37Z</time></trkpt><trkpt lat="44.25326907349256" lon="9.512621027406734"><ele>268.0</ele><time>2026-04-09T15:12:38Z</time></trkpt><trkpt lat="44.253394596003005" lon="9.512281781991081"><ele>276.5</ele><time>2026-04-09T15:12:39Z</time></trkpt><trkpt lat="44.25350680473214" lon="9.511951246910012"><ele>285.0</ele><time>2026-04-09T15:12:40.019Z</time></trkpt><trkpt lat="44.25374851395958" lon="9.5112049241983"><ele>289.0</ele><time>2026-04-09T15:12:42.016Z</time></trkpt><trkpt lat="44.253843012299214" lon="9.510851777399767"><ele>293.0</ele><time>2026-04-09T15:12:43.019Z</time></trkpt><trkpt lat="44.25430084117153" lon="9.508011695006404"><ele>259.5</ele><time>2026-04-09T15:12:51Z</time></trkpt><trkpt lat="44.254353088454906" lon="9.50765760090961"><ele>226.0</ele><time>2026-04-09T15:12:52Z</time></trkpt><trkpt lat="44.25440160280843" lon="9.507312684214597"><ele>228.0</ele><time>2026-04-09T15:12:53Z</time></trkpt><trkpt lat="44.25443764727885" lon="9.50699107987091"><ele>230.0</ele><time>2026-04-09T15:12:54Z</time></trkpt><trkpt lat="44.2544846960386" lon="9.506650709122484"><ele>230.0</ele><time>2026-04-09T15:12:55Z</time></trkpt><trkpt lat="44.25453492760994" lon="9.506300902994305"><ele>230.0</ele><time>2026-04-09T15:12:56Z</time></trkpt><trkpt lat="44.25457346868912" lon="9.505915130207821"><ele>225.5</ele><time>2026-04-09T15:12:57Z</time></trkpt><trkpt lat="44.25461565249901" lon="9.505554724202868"><ele>221.0</ele><time>2026-04-09T15:12:58Z</time></trkpt><trkpt lat="44.25467721955523" lon="9.505174754337"><ele>216.0</ele><time>2026-04-09T15:12:59Z</time></trkpt><trkpt lat="44.25469845616742" lon="9.50481411360859"><ele>211.0</ele><time>2026-04-09T15:13:00Z</time></trkpt><trkpt lat="44.25474791952778" lon="9.504449072748134"><ele>224.0</ele><time>2026-04-09T15:13:01Z</time></trkpt><trkpt lat="44.25480155081582" lon="9.504086804290504"><ele>237.0</ele><time>2026-04-09T15:13:02Z</time></trkpt><trkpt lat="44.254816630406566" lon="9.50375705719257"><ele>246.0</ele><time>2026-04-09T15:13:03Z</time></trkpt><trkpt lat="44.254832485343805" lon="9.50339257066409"><ele>255.0</ele><time>2026-04-09T15:13:04Z</time></trkpt><trkpt lat="44.254857396103056" lon="9.50304268594332"><ele>269.0</ele><time>2026-04-09T15:13:05Z</time></trkpt><trkpt lat="44.25488519454292" lon="9.502690177187446"><ele>283.0</ele><time>2026-04-09T15:13:06.019Z</time></trkpt><trkpt lat="44.254908429797844" lon="9.502341851517434"><ele>295.0</ele><time>2026-04-09T15:13:07.018Z</time></trkpt><trkpt lat="44.25492797854367" lon="9.501996941928745"><ele>307.0</ele><time>2026-04-09T15:13:08.019Z</time></trkpt><trkpt lat="44.2549452994725" lon="9.501651838720786"><ele>307.0</ele><time>2026-04-09T15:13:09.019Z</time></trkpt><trkpt lat="44.254956997053284" lon="9.501303267851068"><ele>307.0</ele><time>2026-04-09T15:13:10.017Z</time></trkpt><trkpt lat="44.25490815196582" lon="9.49749383144965"><ele>261.5</ele><time>2026-04-09T15:13:20Z</time></trkpt><trkpt lat="44.25489528413651" lon="9.497129406657226"><ele>216.0</ele><time>2026-04-09T15:13:21Z</time></trkpt><trkpt lat="44.25491353852904" lon="9.49675452896254"><ele>215.0</ele><time>2026-04-09T15:13:22Z</time></trkpt><trkpt lat="44.25490943752681" lon="9.496367496629492"><ele>214.0</ele><time>2026-04-09T15:13:23Z</time></trkpt><trkpt lat="44.25489108158176" lon="9.49597656299911"><ele>210.0</ele><time>2026-04-09T15:13:24Z</time></trkpt><trkpt lat="44.254879172237686" lon="9.495593628122787"><ele>206.0</ele><time>2026-04-09T15:13:25Z</time></trkpt><trkpt lat="44.25487007687103" lon="9.495201602418133"><ele>206.0</ele><time>2026-04-09T15:13:26Z</time></trkpt><trkpt lat="44.2548600614717" lon="9.494830653048881"><ele>206.0</ele><time>2026-04-09T15:13:27Z</time></trkpt><trkpt lat="44.2548538803883" lon="9.494469654360957"><ele>218.0</ele><time>2026-04-09T15:13:28Z</time></trkpt><trkpt lat="44.25483535771611" lon="9.494073499758894"><ele>230.0</ele><time>2026-04-09T15:13:29Z</time></trkpt><trkpt lat="44.254817380350865" lon="9.493666047019632"><ele>231.0</ele><time>2026-04-09T15:13:29.999Z</time></trkpt><trkpt lat="44.25479573398662" lon="9.493244580355269"><ele>232.0</ele><time>2026-04-09T15:13:31.019Z</time></trkpt><trkpt lat="44.25477461173311" lon="9.492834094371588"><ele>206.5</ele><time>2026-04-09T15:13:32.018Z</time></trkpt><trkpt lat="44.25475055940847" lon="9.492412130318664"><ele>181.0</ele><time>2026-04-09T15:13:33.019Z</time></trkpt><trkpt lat="44.25472518633097" lon="9.491995472573516"><ele>175.66666666666669</ele><time>2026-04-09T15:13:33.999Z</time></trkpt><trkpt lat="44.25477256063616" lon="9.491923863077332"><ele>170.33333333333334</ele><time>2026-04-09T15:13:34.999Z</time></trkpt><trkpt lat="44.254783256400216" lon="9.491583251352205"><ele>165.0</ele><time>2026-04-09T15:13:35.999Z</time></trkpt><trkpt lat="44.254809241197165" lon="9.49126544413819"><ele>183.5</ele><time>2026-04-09T15:13:36.999Z</time></trkpt><trkpt lat="44.25483392166868" lon="9.490961989426712"><ele>202.0</ele><time>2026-04-09T15:13:37.999Z</time></trkpt><trkpt lat="44.254864780357806" lon="9.490603290247899"><ele>196.5</ele><time>2026-04-09T15:13:38.999Z</time></trkpt><trkpt lat="44.25491845771725" lon="9.490272540823076"><ele>191.0</ele><time>2026-04-09T15:13:39.999Z</time></trkpt><trkpt lat="44.2549825266129" lon="9.489964315109317"><ele>191.0</ele><time>2026-04-09T15:13:40.999Z</time></trkpt><trkpt lat="44.25505420117059" lon="9.489665730782443"><ele>191.0</ele><time>2026-04-09T15:13:41.999Z</time></trkpt><trkpt lat="44.25513754671227" lon="9.489356392462792"><ele>188.5</ele><time>2026-04-09T15:13:42.999Z</time></trkpt><trkpt lat="44.255226198918805" lon="9.489037384157523"><ele>186.0</ele><time>2026-04-09T15:13:43.999Z</time></trkpt><trkpt lat="44.255322392809106" lon="9.488744012940181"><ele>186.0</ele><time>2026-04-09T15:13:44.999Z</time></trkpt><trkpt lat="44.255421870301085" lon="9.48847444909639"><ele>186.0</ele><time>2026-04-09T15:13:45.999Z</time></trkpt><trkpt lat="44.25552833314822" lon="9.488211769597713"><ele>186.0</ele><time>2026-04-09T15:13:46.999Z</time></trkpt><trkpt lat="44.25566327998999" lon="9.487920365606747"><ele>212.0</ele><time>2026-04-09T15:13:47.999Z</time></trkpt><trkpt lat="44.25580729113732" lon="9.487622064492959"><ele>238.0</ele><time>2026-04-09T15:13:48.999Z</time></trkpt><trkpt lat="44.25596298221895" lon="9.487314872387016"><ele>243.5</ele><time>2026-04-09T15:13:50.018Z</time></trkpt><trkpt lat="44.256115335301104" lon="9.487016190602004"><ele>249.0</ele><time>2026-04-09T15:13:51.019Z</time></trkpt><trkpt lat="44.256287276769136" lon="9.486749351776476"><ele>262.0</ele><time>2026-04-09T15:13:52.019Z</time></trkpt><trkpt lat="44.25647129320258" lon="9.486502265343688"><ele>275.0</ele><time>2026-04-09T15:13:53.019Z</time></trkpt><trkpt lat="44.259082364834796" lon="9.484735598156798"><ele>257.0</ele><time>2026-04-09T15:13:57.078Z</time></trkpt><trkpt lat="44.259971312398505" lon="9.48454256452016"><ele>212.0</ele><time>2026-04-09T15:13:58.078Z</time></trkpt><trkpt lat="44.260862667261925" lon="9.484370229530455"><ele>174.0</ele><time>2026-04-09T15:13:59.078Z</time></trkpt><trkpt lat="44.261775193777176" lon="9.484239779421578"><ele>174.0</ele><time>2026-04-09T15:14:13.999Z</time></trkpt><trkpt lat="44.26204435604594" lon="9.484186567009502"><ele>174.0</ele><time>2026-04-09T15:14:14.999Z</time></trkpt><trkpt lat="44.26227566843998" lon="9.484099999398474"><ele>170.0</ele><time>2026-04-09T15:14:15.999Z</time></trkpt><trkpt lat="44.26250644801768" lon="9.484006984773178"><ele>166.0</ele><time>2026-04-09T15:14:16.999Z</time></trkpt><trkpt lat="44.26275995638154" lon="9.483908233644001"><ele>166.0</ele><time>2026-04-09T15:14:17.999Z</time></trkpt><trkpt lat="44.26300253583994" lon="9.483801771724897"><ele>166.0</ele><time>2026-04-09T15:14:18.999Z</time></trkpt><trkpt lat="44.26322906054388" lon="9.483671729851764"><ele>168.0</ele><time>2026-04-09T15:14:19.999Z</time></trkpt><trkpt lat="44.26346928511646" lon="9.483517646442069"><ele>170.0</ele><time>2026-04-09T15:14:20.999Z</time></trkpt><trkpt lat="44.26369393831982" lon="9.483352848561776"><ele>170.0</ele><time>2026-04-09T15:14:21.999Z</time></trkpt><trkpt lat="44.26391649591832" lon="9.483170440730602"><ele>170.0</ele><time>2026-04-09T15:14:22.999Z</time></trkpt><trkpt lat="44.264133763480835" lon="9.482972890598257"><ele>159.0</ele><time>2026-04-09T15:14:24Z</time></trkpt><trkpt lat="44.264349782884864" lon="9.4827597226701"><ele>148.0</ele><time>2026-04-09T15:14:25Z</time></trkpt><trkpt lat="44.26456508603142" lon="9.482526654928213"><ele>148.0</ele><time>2026-04-09T15:14:26Z</time></trkpt><trkpt lat="44.264778668640766" lon="9.482296805752924"><ele>148.0</ele><time>2026-04-09T15:14:27Z</time></trkpt><trkpt lat="44.2650010336638" lon="9.482060089449153"><ele>138.5</ele><time>2026-04-09T15:14:28Z</time></trkpt><trkpt lat="44.2652300495413" lon="9.481814176962912"><ele>129.0</ele><time>2026-04-09T15:14:29Z</time></trkpt><trkpt lat="44.26545245555448" lon="9.481570039944787"><ele>127.0</ele><time>2026-04-09T15:14:30Z</time></trkpt><trkpt lat="44.26568238656534" lon="9.481328955666354"><ele>125.0</ele><time>2026-04-09T15:14:31Z</time></trkpt><trkpt lat="44.26590383868751" lon="9.481081088234008"><ele>136.5</ele><time>2026-04-09T15:14:32Z</time></trkpt><trkpt lat="44.26611369142637" lon="9.480842617270033"><ele>148.0</ele><time>2026-04-09T15:14:33Z</time></trkpt><trkpt lat="44.2663149912124" lon="9.480606594651965"><ele>147.5</ele><time>2026-04-09T15:14:34Z</time></trkpt><trkpt lat="44.26652149381955" lon="9.480348516131718"><ele>147.0</ele><time>2026-04-09T15:14:35Z</time></trkpt><trkpt lat="44.266732966528785" lon="9.480082809124093"><ele>147.0</ele><time>2026-04-09T15:14:36Z</time></trkpt><trkpt lat="44.26693064821224" lon="9.479809641838028"><ele>147.0</ele><time>2026-04-09T15:14:37Z</time></trkpt><trkpt lat="44.26713287486813" lon="9.47953643535688"><ele>140.0</ele><time>2026-04-09T15:14:38Z</time></trkpt><trkpt lat="44.26731617172008" lon="9.47925120697233"><ele>133.0</ele><time>2026-04-09T15:14:39Z</time></trkpt><trkpt lat="44.26750324463114" lon="9.478963451448967"><ele>143.0</ele><time>2026-04-09T15:14:40Z</time></trkpt><trkpt lat="44.26769456136234" lon="9.478674616051999"><ele>153.0</ele><time>2026-04-09T15:14:41Z</time></trkpt><trkpt lat="44.26787787808074" lon="9.478381324541317"><ele>153.0</ele><time>2026-04-09T15:14:42Z</time></trkpt><trkpt lat="44.2680510389164" lon="9.478078860143796"><ele>153.0</ele><time>2026-04-09T15:14:43Z</time></trkpt><trkpt lat="44.26822753016982" lon="9.47778179936695"><ele>147.5</ele><time>2026-04-09T15:14:44Z</time></trkpt><trkpt lat="44.268399298915895" lon="9.477477317130745"><ele>142.0</ele><time>2026-04-09T15:14:45Z</time></trkpt><trkpt lat="44.268543494962586" lon="9.477173327262092"><ele>159.5</ele><time>2026-04-09T15:14:46Z</time></trkpt><trkpt lat="44.26868347381454" lon="9.476871015875972"><ele>177.0</ele><time>2026-04-09T15:14:47Z</time></trkpt><trkpt lat="44.2688259585898" lon="9.476564490712015"><ele>185.5</ele><time>2026-04-09T15:14:48.018Z</time></trkpt><trkpt lat="44.268962746660726" lon="9.476256647539897"><ele>194.0</ele><time>2026-04-09T15:14:49.015Z</time></trkpt><trkpt lat="44.26910072114344" lon="9.475944762542277"><ele>194.0</ele><time>2026-04-09T15:14:50.019Z</time></trkpt><trkpt lat="44.26923874314445" lon="9.475643902908386"><ele>194.0</ele><time>2026-04-09T15:14:51.02Z</time></trkpt><trkpt lat="44.27069566179698" lon="9.47212355807689"><ele>102.0</ele><time>2026-04-09T15:14:55.078Z</time></trkpt><trkpt lat="44.270956353325644" lon="9.47106217035043"><ele>102.0</ele><time>2026-04-09T15:15:05Z</time></trkpt><trkpt lat="44.27102983467585" lon="9.470717436018242"><ele>102.0</ele><time>2026-04-09T15:15:06Z</time></trkpt><trkpt lat="44.27106060701759" lon="9.4703869233581"><ele>102.5</ele><time>2026-04-09T15:15:07Z</time></trkpt><trkpt lat="44.27110196276268" lon="9.470026530449175"><ele>103.0</ele><time>2026-04-09T15:15:08Z</time></trkpt><trkpt lat="44.27113936195247" lon="9.469666293887226"><ele>113.5</ele><time>2026-04-09T15:15:09Z</time></trkpt><trkpt lat="44.271166084300425" lon="9.46931486652072"><ele>124.0</ele><time>2026-04-09T15:15:10Z</time></trkpt><trkpt lat="44.27118217416944" lon="9.46895395224504"><ele>126.5</ele><time>2026-04-09T15:15:11Z</time></trkpt><trkpt lat="44.271191878480614" lon="9.468595906069623"><ele>129.0</ele><time>2026-04-09T15:15:12Z</time></trkpt><trkpt lat="44.27119733904804" lon="9.468235664131653"><ele>123.5</ele><time>2026-04-09T15:15:13Z</time></trkpt><trkpt lat="44.27118401096249" lon="9.467867921184938"><ele>118.0</ele><time>2026-04-09T15:15:14Z</time></trkpt><trkpt lat="44.27116226693142" lon="9.46750698396437"><ele>118.0</ele><time>2026-04-09T15:15:15Z</time></trkpt><trkpt lat="44.27113183403913" lon="9.467143148435635"><ele>118.0</ele><time>2026-04-09T15:15:16Z</time></trkpt><trkpt lat="44.271091397035775" lon="9.466780640419834"><ele>113.5</ele><time>2026-04-09T15:15:17Z</time></trkpt><trkpt lat="44.27104827838558" lon="9.466422504261129"><ele>109.0</ele><time>2026-04-09T15:15:18Z</time></trkpt><trkpt lat="44.270993335061725" lon="9.466064679028808"><ele>108.5</ele><time>2026-04-09T15:15:19Z</time></trkpt><trkpt lat="44.2709363191935" lon="9.465701342370178"><ele>108.0</ele><time>2026-04-09T15:15:20Z</time></trkpt><trkpt lat="44.27088083452725" lon="9.465344309941546"><ele>109.5</ele><time>2026-04-09T15:15:21Z</time></trkpt><trkpt lat="44.27082318527431" lon="9.464985080825937"><ele>111.0</ele><time>2026-04-09T15:15:22Z</time></trkpt><trkpt lat="44.27076166209936" lon="9.46462026866047"><ele>116.0</ele><time>2026-04-09T15:15:23Z</time></trkpt><trkpt lat="44.27070774359416" lon="9.464261809206073"><ele>121.0</ele><time>2026-04-09T15:15:24Z</time></trkpt><trkpt lat="44.27065375993379" lon="9.463906891936054"><ele>124.0</ele><time>2026-04-09T15:15:25Z</time></trkpt><trkpt lat="44.27059600581349" lon="9.463544760821618"><ele>127.0</ele><time>2026-04-09T15:15:26Z</time></trkpt><trkpt lat="44.27053937958384" lon="9.463184386326974"><ele>115.0</ele><time>2026-04-09T15:15:27Z</time></trkpt><trkpt lat="44.270482096897645" lon="9.462828187427636"><ele>103.0</ele><time>2026-04-09T15:15:28Z</time></trkpt><trkpt lat="44.27042245959337" lon="9.462475048751047"><ele>103.0</ele><time>2026-04-09T15:15:29Z</time></trkpt><trkpt lat="44.27036996426324" lon="9.462125301407996"><ele>103.0</ele><time>2026-04-09T15:15:30Z</time></trkpt><trkpt lat="44.270313764238196" lon="9.461769932993715"><ele>93.5</ele><time>2026-04-09T15:15:31Z</time></trkpt><trkpt lat="44.27026255058836" lon="9.461418716853357"><ele>84.0</ele><time>2026-04-09T15:15:32Z</time></trkpt><trkpt lat="44.27020786170731" lon="9.461062677384378"><ele>77.0</ele><time>2026-04-09T15:15:33Z</time></trkpt><trkpt lat="44.27015206617131" lon="9.460715822305087"><ele>70.0</ele><time>2026-04-09T15:15:34Z</time></trkpt><trkpt lat="44.270096508041114" lon="9.460372863856517"><ele>64.5</ele><time>2026-04-09T15:15:35Z</time></trkpt><trkpt lat="44.27004062316359" lon="9.460026049326528"><ele>59.0</ele><time>2026-04-09T15:15:36Z</time></trkpt><trkpt lat="44.269986813276205" lon="9.459672818941705"><ele>53.5</ele><time>2026-04-09T15:15:36.999Z</time></trkpt><trkpt lat="44.26992856405909" lon="9.459317223884781"><ele>48.0</ele><time>2026-04-09T15:15:37.999Z</time></trkpt><trkpt lat="44.269877076221476" lon="9.458962759975442"><ele>47.5</ele><time>2026-04-09T15:15:38.999Z</time></trkpt><trkpt lat="44.2698187795671" lon="9.4586064220721"><ele>47.0</ele><time>2026-04-09T15:15:39.999Z</time></trkpt><trkpt lat="44.26976192087643" lon="9.458238511576043"><ele>64.5</ele><time>2026-04-09T15:15:40.999Z</time></trkpt><trkpt lat="44.269703574400076" lon="9.457869135632373"><ele>82.0</ele><time>2026-04-09T15:15:41.999Z</time></trkpt><trkpt lat="44.26964482341665" lon="9.457494011399548"><ele>82.0</ele><time>2026-04-09T15:15:42.999Z</time></trkpt><trkpt lat="44.269586030123584" lon="9.457120777197744"><ele>82.0</ele><time>2026-04-09T15:15:43.999Z</time></trkpt><trkpt lat="44.26952446200477" lon="9.456741830013398"><ele>86.0</ele><time>2026-04-09T15:15:44.999Z</time></trkpt><trkpt lat="44.26946324056214" lon="9.456356427186385"><ele>90.0</ele><time>2026-04-09T15:15:45.999Z</time></trkpt><trkpt lat="44.269402020326005" lon="9.455970748709039"><ele>90.0</ele><time>2026-04-09T15:15:46.999Z</time></trkpt><trkpt lat="44.26934498958741" lon="9.455603825783664"><ele>90.0</ele><time>2026-04-09T15:15:47.999Z</time></trkpt><trkpt lat="44.269292713839846" lon="9.455254714865806"><ele>85.5</ele><time>2026-04-09T15:15:48.999Z</time></trkpt><trkpt lat="44.269235856705045" lon="9.45490276192533"><ele>81.0</ele><time>2026-04-09T15:15:49.999Z</time></trkpt><trkpt lat="44.26918231405384" lon="9.454544875128503"><ele>80.5</ele><time>2026-04-09T15:15:50.999Z</time></trkpt><trkpt lat="44.269124371198984" lon="9.454191173076364"><ele>80.0</ele><time>2026-04-09T15:15:51.999Z</time></trkpt><trkpt lat="44.26906669531529" lon="9.453825922207686"><ele>83.5</ele><time>2026-04-09T15:15:52.999Z</time></trkpt><trkpt lat="44.26900969002698" lon="9.453479877154624"><ele>87.0</ele><time>2026-04-09T15:15:53.999Z</time></trkpt><trkpt lat="44.2689518302494" lon="9.45312981315733"><ele>97.0</ele><time>2026-04-09T15:15:54.999Z</time></trkpt><trkpt lat="44.26889245001337" lon="9.452773900958347"><ele>107.0</ele><time>2026-04-09T15:15:56.019Z</time></trkpt><trkpt lat="44.268833594542805" lon="9.452422756380356"><ele>96.5</ele><time>2026-04-09T15:15:57.019Z</time></trkpt><trkpt lat="44.26877406245752" lon="9.452071210416884"><ele>86.0</ele><time>2026-04-09T15:15:58.019Z</time></trkpt><trkpt lat="44.26871518601937" lon="9.451722100994056"><ele>47.0</ele><time>2026-04-09T15:15:59.018Z</time></trkpt><trkpt lat="44.26851554312209" lon="9.450288461530068"><ele>47.0</ele><time>2026-04-09T15:16:02.999Z</time></trkpt><trkpt lat="44.26846316620074" lon="9.449954281462281"><ele>47.0</ele><time>2026-04-09T15:16:03.999Z</time></trkpt><trkpt lat="44.26842180152272" lon="9.449640044239892"><ele>43.33333333333333</ele><time>2026-04-09T15:16:04.999Z</time></trkpt><trkpt lat="44.26838089743388" lon="9.449354595317532"><ele>39.666666666666664</ele><time>2026-04-09T15:16:05.999Z</time></trkpt><trkpt lat="44.2683317551001" lon="9.449042182908729"><ele>36.0</ele><time>2026-04-09T15:16:06.999Z</time></trkpt><trkpt lat="44.268291023696364" lon="9.448724886421696"><ele>36.0</ele><time>2026-04-09T15:16:07.999Z</time></trkpt><trkpt lat="44.26825811037867" lon="9.448394409904942"><ele>36.0</ele><time>2026-04-09T15:16:08.999Z</time></trkpt><trkpt lat="44.268243805383634" lon="9.448102080218248"><ele>36.0</ele><time>2026-04-09T15:16:09.999Z</time></trkpt><trkpt lat="44.26822530527324" lon="9.447783948568073"><ele>39.666666666666664</ele><time>2026-04-09T15:16:10.999Z</time></trkpt><trkpt lat="44.26823155357871" lon="9.447487226008626"><ele>43.33333333333333</ele><time>2026-04-09T15:16:11.999Z</time></trkpt><trkpt lat="44.268247317990735" lon="9.447172467952022"><ele>47.0</ele><time>2026-04-09T15:16:12.999Z</time></trkpt><trkpt lat="44.26826560493184" lon="9.446851206018664"><ele>51.0</ele><time>2026-04-09T15:16:13.999Z</time></trkpt><trkpt lat="44.26829469579859" lon="9.44652912554498"><ele>55.0</ele><time>2026-04-09T15:16:14.999Z</time></trkpt><trkpt lat="44.26833647978568" lon="9.446204661699118"><ele>59.0</ele><time>2026-04-09T15:16:15.999Z</time></trkpt><trkpt lat="44.26838673036226" lon="9.445883527606206"><ele>63.0</ele><time>2026-04-09T15:16:16.999Z</time></trkpt><trkpt lat="44.26844444287399" lon="9.445569368925682"><ele>67.33333333333333</ele><time>2026-04-09T15:16:17.999Z</time></trkpt><trkpt lat="44.26850305452107" lon="9.445274994613145"><ele>71.66666666666666</ele><time>2026-04-09T15:16:18.999Z</time></trkpt><trkpt lat="44.2685567885993" lon="9.445013989340866"><ele>76.0</ele><time>2026-04-09T15:16:19.999Z</time></trkpt><trkpt lat="44.26860854004953" lon="9.444761232482957"><ele>77.0</ele><time>2026-04-09T15:16:20.999Z</time></trkpt><trkpt lat="44.268654432919455" lon="9.444518083895199"><ele>78.0</ele><time>2026-04-09T15:16:21.999Z</time></trkpt><trkpt lat="44.26869490695679" lon="9.444278286913454"><ele>79.0</ele><time>2026-04-09T15:16:22.999Z</time></trkpt><trkpt lat="44.268728570875474" lon="9.44404489747507"><ele>79.0</ele><time>2026-04-09T15:16:23.999Z</time></trkpt><trkpt lat="44.268764961546616" lon="9.443811154817391"><ele>79.0</ele><time>2026-04-09T15:16:24.999Z</time></trkpt><trkpt lat="44.26879660785499" lon="9.443570031844073"><ele>79.0</ele><time>2026-04-09T15:16:25.999Z</time></trkpt><trkpt lat="44.26882359769098" lon="9.44332866504256"><ele>79.66666666666666</ele><time>2026-04-09T15:16:26.999Z</time></trkpt><trkpt lat="44.26884358708721" lon="9.443103748768536"><ele>80.33333333333333</ele><time>2026-04-09T15:16:27.999Z</time></trkpt><trkpt lat="44.26885981220791" lon="9.442877809370911"><ele>81.0</ele><time>2026-04-09T15:16:28.999Z</time></trkpt><trkpt lat="44.26887294488378" lon="9.44264397058293"><ele>77.33333333333333</ele><time>2026-04-09T15:16:30Z</time></trkpt><trkpt lat="44.26887858228889" lon="9.442399523444921"><ele>73.66666666666666</ele><time>2026-04-09T15:16:31Z</time></trkpt><trkpt lat="44.26888247093143" lon="9.442158508540487"><ele>70.0</ele><time>2026-04-09T15:16:32Z</time></trkpt><trkpt lat="44.268884258111214" lon="9.441930509993204"><ele>60.0</ele><time>2026-04-09T15:16:33Z</time></trkpt><trkpt lat="44.26887921651829" lon="9.441706057944618"><ele>50.0</ele><time>2026-04-09T15:16:34Z</time></trkpt><trkpt lat="44.268871555972716" lon="9.441488061847442"><ele>40.0</ele><time>2026-04-09T15:16:35Z</time></trkpt><trkpt lat="44.26886130138855" lon="9.441264184349809"><ele>38.0</ele><time>2026-04-09T15:16:36Z</time></trkpt><trkpt lat="44.26885290258118" lon="9.441041616535442"><ele>36.0</ele><time>2026-04-09T15:16:37Z</time></trkpt><trkpt lat="44.26883560256101" lon="9.440815331547393"><ele>34.0</ele><time>2026-04-09T15:16:38Z</time></trkpt><trkpt lat="44.26882142464254" lon="9.440594705007632"><ele>41.66666666666667</ele><time>2026-04-09T15:16:39Z</time></trkpt><trkpt lat="44.268792532788815" lon="9.440374282021683"><ele>49.333333333333336</ele><time>2026-04-09T15:16:40Z</time></trkpt><trkpt lat="44.268765525749544" lon="9.440167681135291"><ele>57.0</ele><time>2026-04-09T15:16:41Z</time></trkpt><trkpt lat="44.26873976401136" lon="9.439958282171599"><ele>57.0</ele><time>2026-04-09T15:16:42Z</time></trkpt><trkpt lat="44.2687125194734" lon="9.43975631155546"><ele>57.0</ele><time>2026-04-09T15:16:43Z</time></trkpt><trkpt lat="44.268685593381946" lon="9.439563203718643"><ele>57.0</ele><time>2026-04-09T15:16:44Z</time></trkpt><trkpt lat="44.26866168963979" lon="9.439357703202324"><ele>57.0</ele><time>2026-04-09T15:16:45Z</time></trkpt><trkpt lat="44.26863266881222" lon="9.439153393125958"><ele>56.0</ele><time>2026-04-09T15:16:46Z</time></trkpt><trkpt lat="44.268596522464044" lon="9.438922061178673"><ele>55.0</ele><time>2026-04-09T15:16:47Z</time></trkpt><trkpt lat="44.268571388808596" lon="9.438697575912785"><ele>54.0</ele><time>2026-04-09T15:16:48Z</time></trkpt><trkpt lat="44.26854007624874" lon="9.438488692693"><ele>54.0</ele><time>2026-04-09T15:16:49Z</time></trkpt><trkpt lat="44.26850559633283" lon="9.438252514900878"><ele>54.0</ele><time>2026-04-09T15:16:50Z</time></trkpt><trkpt lat="44.26845869749677" lon="9.438030679605381"><ele>54.0</ele><time>2026-04-09T15:16:51Z</time></trkpt><trkpt lat="44.26842506990635" lon="9.4378086377299"><ele>52.25</ele><time>2026-04-09T15:16:52Z</time></trkpt><trkpt lat="44.26839774970508" lon="9.437601716235978"><ele>50.5</ele><time>2026-04-09T15:16:53Z</time></trkpt><trkpt lat="44.26838040691201" lon="9.437395790163865"><ele>48.75</ele><time>2026-04-09T15:16:54Z</time></trkpt><trkpt lat="44.26834582241744" lon="9.437208845163253"><ele>47.0</ele><time>2026-04-09T15:16:55Z</time></trkpt><trkpt lat="44.268320048205226" lon="9.437001401789036"><ele>44.666666666666664</ele><time>2026-04-09T15:16:56Z</time></trkpt><trkpt lat="44.26828591462273" lon="9.43678830197024"><ele>42.333333333333336</ele><time>2026-04-09T15:16:57Z</time></trkpt><trkpt lat="44.268250927698574" lon="9.436576953773404"><ele>40.0</ele><time>2026-04-09T15:16:58Z</time></trkpt><trkpt lat="44.26822184509757" lon="9.436336972372246"><ele>37.66666666666667</ele><time>2026-04-09T15:16:59Z</time></trkpt><trkpt lat="44.26818865100212" lon="9.436098926337134"><ele>35.333333333333336</ele><time>2026-04-09T15:17:00Z</time></trkpt><trkpt lat="44.26815051053599" lon="9.435852542376326"><ele>33.0</ele><time>2026-04-09T15:17:01Z</time></trkpt><trkpt lat="44.268112249268086" lon="9.435596280686548"><ele>38.33333333333333</ele><time>2026-04-09T15:17:02Z</time></trkpt><trkpt lat="44.26807599556932" lon="9.435326721807051"><ele>43.666666666666664</ele><time>2026-04-09T15:17:03Z</time></trkpt><trkpt lat="44.26803614762488" lon="9.435043525658424"><ele>49.0</ele><time>2026-04-09T15:17:04Z</time></trkpt><trkpt lat="44.2679966007428" lon="9.434749777913101"><ele>49.0</ele><time>2026-04-09T15:17:05Z</time></trkpt><trkpt lat="44.267958478315784" lon="9.434451646689064"><ele>49.0</ele><time>2026-04-09T15:17:06Z</time></trkpt><trkpt lat="44.26792014389834" lon="9.434171267125992"><ele>49.0</ele><time>2026-04-09T15:17:07Z</time></trkpt><trkpt lat="44.267885505790666" lon="9.433897052830822"><ele>48.0</ele><time>2026-04-09T15:17:08Z</time></trkpt><trkpt lat="44.26785626407686" lon="9.433629562942913"><ele>47.0</ele><time>2026-04-09T15:17:09Z</time></trkpt><trkpt lat="44.26783482162883" lon="9.433347236967878"><ele>46.0</ele><time>2026-04-09T15:17:10Z</time></trkpt><trkpt lat="44.26781531590239" lon="9.433048029969612"><ele>45.66666666666667</ele><time>2026-04-09T15:17:11Z</time></trkpt><trkpt lat="44.267809281510075" lon="9.432744780854234"><ele>45.333333333333336</ele><time>2026-04-09T15:17:12Z</time></trkpt><trkpt lat="44.267810416583295" lon="9.43242842246463"><ele>45.0</ele><time>2026-04-09T15:17:13Z</time></trkpt><trkpt lat="44.26781785036664" lon="9.432102205893209"><ele>45.0</ele><time>2026-04-09T15:17:14Z</time></trkpt><trkpt lat="44.26783192244496" lon="9.431788314949854"><ele>45.0</ele><time>2026-04-09T15:17:15Z</time></trkpt><trkpt lat="44.267855687886126" lon="9.431488539521164"><ele>45.0</ele><time>2026-04-09T15:17:16Z</time></trkpt><trkpt lat="44.26788882055304" lon="9.431200772047083"><ele>45.0</ele><time>2026-04-09T15:17:17Z</time></trkpt><trkpt lat="44.26793403452691" lon="9.43090418347172"><ele>45.0</ele><time>2026-04-09T15:17:18Z</time></trkpt><trkpt lat="44.26799024154717" lon="9.430601095863983"><ele>45.0</ele><time>2026-04-09T15:17:19Z</time></trkpt><trkpt lat="44.26805258884237" lon="9.430292380307163"><ele>31.5</ele><time>2026-04-09T15:17:20Z</time></trkpt><trkpt lat="44.26812935516007" lon="9.429983485158933"><ele>18.0</ele><time>2026-04-09T15:17:21Z</time></trkpt><trkpt lat="44.26821509515192" lon="9.42967238918102"><ele>18.0</ele><time>2026-04-09T15:17:22Z</time></trkpt><trkpt lat="44.26831216780696" lon="9.429364549740603"><ele>18.0</ele><time>2026-04-09T15:17:23Z</time></trkpt><trkpt lat="44.268423209250074" lon="9.429062093821504"><ele>16.0</ele><time>2026-04-09T15:17:24Z</time></trkpt><trkpt lat="44.26854429385442" lon="9.428759408654626"><ele>14.0</ele><time>2026-04-09T15:17:25Z</time></trkpt><trkpt lat="44.26867473870982" lon="9.4284657715313"><ele>14.0</ele><time>2026-04-09T15:17:26Z</time></trkpt><trkpt lat="44.26881067746778" lon="9.428193704500218"><ele>14.0</ele><time>2026-04-09T15:17:27Z</time></trkpt><trkpt lat="44.268957807886494" lon="9.42792802461506"><ele>13.5</ele><time>2026-04-09T15:17:28Z</time></trkpt><trkpt lat="44.26911839241381" lon="9.427665745462908"><ele>13.0</ele><time>2026-04-09T15:17:29Z</time></trkpt><trkpt lat="44.269287203156495" lon="9.427408411678076"><ele>13.0</ele><time>2026-04-09T15:17:30Z</time></trkpt><trkpt lat="44.269461884340195" lon="9.42716380277616"><ele>13.0</ele><time>2026-04-09T15:17:31Z</time></trkpt><trkpt lat="44.26963596840649" lon="9.426949359089116"><ele>13.5</ele><time>2026-04-09T15:17:32Z</time></trkpt><trkpt lat="44.26981721401587" lon="9.426743997934913"><ele>14.0</ele><time>2026-04-09T15:17:33Z</time></trkpt><trkpt lat="44.27000729686315" lon="9.426536463045684"><ele>14.0</ele><time>2026-04-09T15:17:34Z</time></trkpt><trkpt lat="44.27020629712025" lon="9.42632748738202"><ele>14.0</ele><time>2026-04-09T15:17:35Z</time></trkpt><trkpt lat="44.27040585425228" lon="9.426112572661442"><ele>16.0</ele><time>2026-04-09T15:17:36Z</time></trkpt><trkpt lat="44.27061076208485" lon="9.425897937443063"><ele>18.0</ele><time>2026-04-09T15:17:37Z</time></trkpt><trkpt lat="44.27081759649523" lon="9.425677016963283"><ele>17.0</ele><time>2026-04-09T15:17:38Z</time></trkpt><trkpt lat="44.27102569975351" lon="9.425452001814332"><ele>16.0</ele><time>2026-04-09T15:17:39Z</time></trkpt><trkpt lat="44.27122229033988" lon="9.425239412930258"><ele>16.0</ele><time>2026-04-09T15:17:40Z</time></trkpt><trkpt lat="44.27141504757864" lon="9.42503286823524"><ele>16.0</ele><time>2026-04-09T15:17:40.999Z</time></trkpt><trkpt lat="44.2716053088582" lon="9.424831069864425"><ele>16.5</ele><time>2026-04-09T15:17:41.999Z</time></trkpt><trkpt lat="44.27179339666431" lon="9.424631433226198"><ele>17.0</ele><time>2026-04-09T15:17:42.999Z</time></trkpt><trkpt lat="44.27197654879903" lon="9.424428833517885"><ele>17.0</ele><time>2026-04-09T15:17:43.999Z</time></trkpt><trkpt lat="44.27215829939484" lon="9.424221694060892"><ele>17.0</ele><time>2026-04-09T15:17:44.999Z</time></trkpt><trkpt lat="44.27234040174665" lon="9.424012652220998"><ele>20.5</ele><time>2026-04-09T15:17:45.999Z</time></trkpt><trkpt lat="44.27251940357966" lon="9.4238003838847"><ele>24.0</ele><time>2026-04-09T15:17:46.999Z</time></trkpt><trkpt lat="44.272702392017564" lon="9.42358128070208"><ele>24.0</ele><time>2026-04-09T15:17:47.999Z</time></trkpt><trkpt lat="44.27288831424219" lon="9.42335451903713"><ele>24.0</ele><time>2026-04-09T15:17:48.999Z</time></trkpt><trkpt lat="44.27307711545475" lon="9.42312563784345"><ele>25.0</ele><time>2026-04-09T15:17:49.999Z</time></trkpt><trkpt lat="44.273267622428854" lon="9.422894723014352"><ele>26.0</ele><time>2026-04-09T15:17:50.999Z</time></trkpt><trkpt lat="44.273459730629284" lon="9.422659718188855"><ele>26.0</ele><time>2026-04-09T15:17:51.999Z</time></trkpt><trkpt lat="44.273652413787175" lon="9.422413976831328"><ele>26.0</ele><time>2026-04-09T15:17:52.999Z</time></trkpt><trkpt lat="44.27385695849913" lon="9.422161404834885"><ele>21.5</ele><time>2026-04-09T15:17:53.999Z</time></trkpt><trkpt lat="44.274067491754685" lon="9.421896379916758"><ele>17.0</ele><time>2026-04-09T15:17:54.999Z</time></trkpt><trkpt lat="44.27428562246495" lon="9.421632890996387"><ele>17.0</ele><time>2026-04-09T15:17:55.999Z</time></trkpt><trkpt lat="44.27450293914184" lon="9.421374839342894"><ele>17.0</ele><time>2026-04-09T15:17:56.999Z</time></trkpt><trkpt lat="44.27469399157205" lon="9.42115038637422"><ele>17.0</ele><time>2026-04-09T15:17:57.999Z</time></trkpt><trkpt lat="44.27487384002744" lon="9.420943103767277"><ele>17.0</ele><time>2026-04-09T15:17:58.999Z</time></trkpt><trkpt lat="44.275052535121986" lon="9.42073299172054"><ele>17.0</ele><time>2026-04-09T15:17:59.999Z</time></trkpt><trkpt lat="44.275234358094956" lon="9.420519272024638"><ele>17.0</ele><time>2026-04-09T15:18:00.999Z</time></trkpt><trkpt lat="44.275421560411445" lon="9.420301723502632"><ele>17.0</ele><time>2026-04-09T15:18:01.999Z</time></trkpt><trkpt lat="44.27561640174741" lon="9.420077818511842"><ele>17.0</ele><time>2026-04-09T15:18:02.999Z</time></trkpt><trkpt lat="44.27581344497744" lon="9.419846563900531"><ele>16.5</ele><time>2026-04-09T15:18:03.999Z</time></trkpt><trkpt lat="44.27601192161205" lon="9.419614805525837"><ele>16.0</ele><time>2026-04-09T15:18:04.999Z</time></trkpt><trkpt lat="44.27621449414913" lon="9.419378431873213"><ele>16.0</ele><time>2026-04-09T15:18:05.999Z</time></trkpt><trkpt lat="44.27641783624839" lon="9.419137924802788"><ele>16.0</ele><time>2026-04-09T15:18:06.999Z</time></trkpt><trkpt lat="44.27662304228176" lon="9.418897760632936"><ele>14.5</ele><time>2026-04-09T15:18:07.999Z</time></trkpt><trkpt lat="44.27681196731385" lon="9.418672157865059"><ele>13.0</ele><time>2026-04-09T15:18:08.999Z</time></trkpt><trkpt lat="44.27700081308417" lon="9.418447588202714"><ele>13.0</ele><time>2026-04-09T15:18:09.999Z</time></trkpt><trkpt lat="44.277191864709664" lon="9.418222325120766"><ele>13.0</ele><time>2026-04-09T15:18:10.999Z</time></trkpt><trkpt lat="44.27738710454696" lon="9.417994440220413"><ele>15.0</ele><time>2026-04-09T15:18:11.999Z</time></trkpt><trkpt lat="44.27758290619978" lon="9.417766373809798"><ele>17.0</ele><time>2026-04-09T15:18:12.999Z</time></trkpt><trkpt lat="44.27777931106785" lon="9.41753616768037"><ele>17.0</ele><time>2026-04-09T15:18:13.999Z</time></trkpt><trkpt lat="44.277976581437386" lon="9.417297983967314"><ele>17.0</ele><time>2026-04-09T15:18:14.999Z</time></trkpt><trkpt lat="44.27817612233125" lon="9.417063582491986"><ele>24.0</ele><time>2026-04-09T15:18:15.999Z</time></trkpt><trkpt lat="44.278375622930206" lon="9.416827377244967"><ele>31.0</ele><time>2026-04-09T15:18:16.999Z</time></trkpt><trkpt lat="44.27856633753171" lon="9.416597228072101"><ele>31.0</ele><time>2026-04-09T15:18:17.999Z</time></trkpt><trkpt lat="44.27874516025973" lon="9.416381617955256"><ele>31.0</ele><time>2026-04-09T15:18:18.999Z</time></trkpt><trkpt lat="44.278906982572174" lon="9.416170577999583"><ele>32.333333333333336</ele><time>2026-04-09T15:18:19.999Z</time></trkpt><trkpt lat="44.27905835525336" lon="9.415949610807202"><ele>33.666666666666664</ele><time>2026-04-09T15:18:20.999Z</time></trkpt><trkpt lat="44.27919703365979" lon="9.415710639770651"><ele>35.0</ele><time>2026-04-09T15:18:21.999Z</time></trkpt><trkpt lat="44.27932929868884" lon="9.41545741794423"><ele>45.0</ele><time>2026-04-09T15:18:22.999Z</time></trkpt><trkpt lat="44.279455644204255" lon="9.415191487293757"><ele>55.0</ele><time>2026-04-09T15:18:23.999Z</time></trkpt><trkpt lat="44.279580497349144" lon="9.41490487528729"><ele>57.0</ele><time>2026-04-09T15:18:24.999Z</time></trkpt><trkpt lat="44.27971070604555" lon="9.414610531117344"><ele>59.0</ele><time>2026-04-09T15:18:25.999Z</time></trkpt><trkpt lat="44.279849410761734" lon="9.414291026805655"><ele>52.0</ele><time>2026-04-09T15:18:26.999Z</time></trkpt><trkpt lat="44.279993377675346" lon="9.413961847824911"><ele>45.0</ele><time>2026-04-09T15:18:27.999Z</time></trkpt><trkpt lat="44.280143053516596" lon="9.413620076051275"><ele>36.0</ele><time>2026-04-09T15:18:28.999Z</time></trkpt><trkpt lat="44.280298387311966" lon="9.413242179517871"><ele>27.0</ele><time>2026-04-09T15:18:29.999Z</time></trkpt><trkpt lat="44.28043856019615" lon="9.412908489965382"><ele>26.0</ele><time>2026-04-09T15:18:30.999Z</time></trkpt><trkpt lat="44.28057197739102" lon="9.412598904907641"><ele>25.0</ele><time>2026-04-09T15:18:31.999Z</time></trkpt><trkpt lat="44.28070766080543" lon="9.41228668678097"><ele>32.5</ele><time>2026-04-09T15:18:32.999Z</time></trkpt><trkpt lat="44.28083591215187" lon="9.411990751623385"><ele>40.0</ele><time>2026-04-09T15:18:33.999Z</time></trkpt><trkpt lat="44.28096423083619" lon="9.411710785562327"><ele>40.0</ele><time>2026-04-09T15:18:34.999Z</time></trkpt><trkpt lat="44.28109447824416" lon="9.41145028631669"><ele>40.0</ele><time>2026-04-09T15:18:36Z</time></trkpt><trkpt lat="44.28123936252215" lon="9.41119967113625"><ele>36.5</ele><time>2026-04-09T15:18:37Z</time></trkpt><trkpt lat="44.28140473634059" lon="9.410964118338947"><ele>33.0</ele><time>2026-04-09T15:18:38Z</time></trkpt><trkpt lat="44.28158173934092" lon="9.410735253807236"><ele>38.5</ele><time>2026-04-09T15:18:39Z</time></trkpt><trkpt lat="44.281771367100916" lon="9.410515302693906"><ele>44.0</ele><time>2026-04-09T15:18:40Z</time></trkpt><trkpt lat="44.28197444033004" lon="9.410300261637822"><ele>44.0</ele><time>2026-04-09T15:18:41Z</time></trkpt><trkpt lat="44.282181896386284" lon="9.410075266769876"><ele>44.0</ele><time>2026-04-09T15:18:42Z</time></trkpt><trkpt lat="44.28239219672619" lon="9.409841524838228"><ele>45.0</ele><time>2026-04-09T15:18:43Z</time></trkpt><trkpt lat="44.28260710322126" lon="9.409605575929236"><ele>46.0</ele><time>2026-04-09T15:18:44Z</time></trkpt><trkpt lat="44.282803595034046" lon="9.409386159440295"><ele>46.0</ele><time>2026-04-09T15:18:45Z</time></trkpt><trkpt lat="44.28298396977533" lon="9.409164049866456"><ele>46.0</ele><time>2026-04-09T15:18:46Z</time></trkpt><trkpt lat="44.28315470047929" lon="9.408926175883384"><ele>52.5</ele><time>2026-04-09T15:18:47Z</time></trkpt><trkpt lat="44.283315778412195" lon="9.408677452454327"><ele>59.0</ele><time>2026-04-09T15:18:48Z</time></trkpt><trkpt lat="44.28346430789056" lon="9.408416365382072"><ele>59.0</ele><time>2026-04-09T15:18:49Z</time></trkpt><trkpt lat="44.28359694633257" lon="9.408143264633395"><ele>59.0</ele><time>2026-04-09T15:18:50Z</time></trkpt><trkpt lat="44.28371478830951" lon="9.407857625913413"><ele>57.5</ele><time>2026-04-09T15:18:51Z</time></trkpt><trkpt lat="44.28382177731503" lon="9.407556494341984"><ele>56.0</ele><time>2026-04-09T15:18:52Z</time></trkpt><trkpt lat="44.28391531193822" lon="9.407245548367314"><ele>68.0</ele><time>2026-04-09T15:18:53Z</time></trkpt><trkpt lat="44.28399524637688" lon="9.406922460316803"><ele>80.0</ele><time>2026-04-09T15:18:54Z</time></trkpt><trkpt lat="44.284063946253255" lon="9.406586917293875"><ele>78.0</ele><time>2026-04-09T15:18:55Z</time></trkpt><trkpt lat="44.284120581775944" lon="9.406232743245315"><ele>76.0</ele><time>2026-04-09T15:18:56Z</time></trkpt><trkpt lat="44.28416432145247" lon="9.405849299180137"><ele>70.0</ele><time>2026-04-09T15:18:57Z</time></trkpt><trkpt lat="44.28420382189495" lon="9.405487502482858"><ele>64.0</ele><time>2026-04-09T15:18:58Z</time></trkpt><trkpt lat="44.284241639463005" lon="9.405172829329471"><ele>64.0</ele><time>2026-04-09T15:18:59Z</time></trkpt><trkpt lat="44.28427353134274" lon="9.404869716176007"><ele>64.0</ele><time>2026-04-09T15:19:00Z</time></trkpt><trkpt lat="44.28430594264673" lon="9.40455382013261"><ele>64.0</ele><time>2026-04-09T15:19:01Z</time></trkpt><trkpt lat="44.2843377371732" lon="9.404231407875695"><ele>64.0</ele><time>2026-04-09T15:19:02Z</time></trkpt><trkpt lat="44.28437026309626" lon="9.40391121842786"><ele>64.0</ele><time>2026-04-09T15:19:03Z</time></trkpt><trkpt lat="44.28440142236781" lon="9.403619380803248"><ele>64.0</ele><time>2026-04-09T15:19:04Z</time></trkpt><trkpt lat="44.28442915141608" lon="9.403349548305005"><ele>67.0</ele><time>2026-04-09T15:19:05Z</time></trkpt><trkpt lat="44.284456295918716" lon="9.403092836564523"><ele>70.0</ele><time>2026-04-09T15:19:06Z</time></trkpt><trkpt lat="44.28448483266371" lon="9.402829111775528"><ele>73.0</ele><time>2026-04-09T15:19:07Z</time></trkpt><trkpt lat="44.28451457511508" lon="9.402560801277977"><ele>73.0</ele><time>2026-04-09T15:19:08Z</time></trkpt><trkpt lat="44.28454325690467" lon="9.402310990443405"><ele>73.0</ele><time>2026-04-09T15:19:09Z</time></trkpt><trkpt lat="44.28457111223301" lon="9.402059548777695"><ele>73.0</ele><time>2026-04-09T15:19:10Z</time></trkpt><trkpt lat="44.28459922796789" lon="9.401797945317831"><ele>74.0</ele><time>2026-04-09T15:19:11Z</time></trkpt><trkpt lat="44.28462840897306" lon="9.401524193918924"><ele>75.0</ele><time>2026-04-09T15:19:12Z</time></trkpt><trkpt lat="44.284659565169875" lon="9.401242500534194"><ele>76.0</ele><time>2026-04-09T15:19:13Z</time></trkpt><trkpt lat="44.28469024188214" lon="9.400938131733596"><ele>76.0</ele><time>2026-04-09T15:19:14Z</time></trkpt><trkpt lat="44.28472120382068" lon="9.40064574209417"><ele>76.0</ele><time>2026-04-09T15:19:15Z</time></trkpt><trkpt lat="44.28474852035566" lon="9.400379240333807"><ele>76.0</ele><time>2026-04-09T15:19:16Z</time></trkpt><trkpt lat="44.284776553038405" lon="9.40012494762587"><ele>83.33333333333333</ele><time>2026-04-09T15:19:17Z</time></trkpt><trkpt lat="44.284805543204385" lon="9.399854713430281"><ele>90.66666666666666</ele><time>2026-04-09T15:19:18Z</time></trkpt><trkpt lat="44.28483421043653" lon="9.39956751126933"><ele>98.0</ele><time>2026-04-09T15:19:19Z</time></trkpt><trkpt lat="44.28486675042258" lon="9.399293299357867"><ele>99.0</ele><time>2026-04-09T15:19:20Z</time></trkpt><trkpt lat="44.284903233437646" lon="9.399042459043246"><ele>100.0</ele><time>2026-04-09T15:19:21Z</time></trkpt><trkpt lat="44.28494661235538" lon="9.398778671005218"><ele>101.0</ele><time>2026-04-09T15:19:22Z</time></trkpt><trkpt lat="44.28500258150126" lon="9.398499852330316"><ele>104.0</ele><time>2026-04-09T15:19:23Z</time></trkpt><trkpt lat="44.28506374207851" lon="9.398214095034461"><ele>107.0</ele><time>2026-04-09T15:19:24Z</time></trkpt><trkpt lat="44.28513157298231" lon="9.397952421530263"><ele>110.0</ele><time>2026-04-09T15:19:25Z</time></trkpt><trkpt lat="44.285204280030484" lon="9.397704165641926"><ele>116.66666666666666</ele><time>2026-04-09T15:19:26Z</time></trkpt><trkpt lat="44.28529152202422" lon="9.397437157315137"><ele>123.33333333333334</ele><time>2026-04-09T15:19:27.013Z</time></trkpt><trkpt lat="44.2853978139285" lon="9.397149915505004"><ele>130.0</ele><time>2026-04-09T15:19:28.018Z</time></trkpt><trkpt lat="44.285518504230666" lon="9.39684922694555"><ele>139.5</ele><time>2026-04-09T15:19:29.015Z</time></trkpt><trkpt lat="44.28563847047736" lon="9.39657578982975"><ele>149.0</ele><time>2026-04-09T15:19:30.019Z</time></trkpt><trkpt lat="44.28576172805935" lon="9.396316110672863"><ele>129.0</ele><time>2026-04-09T15:19:31.018Z</time></trkpt><trkpt lat="44.28588448160216" lon="9.396064919835261"><ele>109.0</ele><time>2026-04-09T15:19:32.018Z</time></trkpt><trkpt lat="44.28623526361238" lon="9.39529580064993"><ele>105.5</ele><time>2026-04-09T15:19:35Z</time></trkpt><trkpt lat="44.28637485003049" lon="9.395059020088482"><ele>102.0</ele><time>2026-04-09T15:19:36Z</time></trkpt><trkpt lat="44.28652977297118" lon="9.394786029867099"><ele>131.5</ele><time>2026-04-09T15:19:37Z</time></trkpt><trkpt lat="44.28667602109561" lon="9.394541122164746"><ele>161.0</ele><time>2026-04-09T15:19:38Z</time></trkpt><trkpt lat="44.286822844138584" lon="9.394291429203802"><ele>112.0</ele><time>2026-04-09T15:19:39.019Z</time></trkpt><trkpt lat="44.29168999664885" lon="9.38738336787502"><ele>108.0</ele><time>2026-04-09T15:20:03.999Z</time></trkpt><trkpt lat="44.291888849217266" lon="9.387099635682459"><ele>104.0</ele><time>2026-04-09T15:20:04.999Z</time></trkpt><trkpt lat="44.292071289238336" lon="9.386834499934272"><ele>104.0</ele><time>2026-04-09T15:20:05.999Z</time></trkpt><trkpt lat="44.29222714844244" lon="9.386573004506797"><ele>104.0</ele><time>2026-04-09T15:20:06.999Z</time></trkpt><trkpt lat="44.292413013404094" lon="9.3863039269003"><ele>98.5</ele><time>2026-04-09T15:20:07.999Z</time></trkpt><trkpt lat="44.29260842045818" lon="9.386042865802166"><ele>93.0</ele><time>2026-04-09T15:20:08.999Z</time></trkpt><trkpt lat="44.29279370762789" lon="9.385789731411945"><ele>93.0</ele><time>2026-04-09T15:20:09.999Z</time></trkpt><trkpt lat="44.29298057801641" lon="9.385557028792608"><ele>93.0</ele><time>2026-04-09T15:20:10.999Z</time></trkpt><trkpt lat="44.29317828123541" lon="9.385338283360726"><ele>96.5</ele><time>2026-04-09T15:20:11.999Z</time></trkpt><trkpt lat="44.293381792007885" lon="9.385109304422839"><ele>100.0</ele><time>2026-04-09T15:20:12.999Z</time></trkpt><trkpt lat="44.29360700346045" lon="9.38490522244381"><ele>100.0</ele><time>2026-04-09T15:20:13.999Z</time></trkpt><trkpt lat="44.29384688822105" lon="9.38471204042995"><ele>100.0</ele><time>2026-04-09T15:20:14.999Z</time></trkpt><trkpt lat="44.29409374077892" lon="9.38453660598886"><ele>100.0</ele><time>2026-04-09T15:20:15.999Z</time></trkpt><trkpt lat="44.29434993080604" lon="9.384381320055214"><ele>100.0</ele><time>2026-04-09T15:20:16.999Z</time></trkpt><trkpt lat="44.29459974132447" lon="9.38423643762899"><ele>97.0</ele><time>2026-04-09T15:20:17.999Z</time></trkpt><trkpt lat="44.29485581305775" lon="9.384120405512487"><ele>94.0</ele><time>2026-04-09T15:20:18.999Z</time></trkpt><trkpt lat="44.29511889862815" lon="9.38401637331933"><ele>94.0</ele><time>2026-04-09T15:20:19.999Z</time></trkpt><trkpt lat="44.29538485896244" lon="9.383936263927698"><ele>94.0</ele><time>2026-04-09T15:20:20.999Z</time></trkpt><trkpt lat="44.295657358083446" lon="9.383868873731847"><ele>81.0</ele><time>2026-04-09T15:20:21.999Z</time></trkpt><trkpt lat="44.29593287551741" lon="9.38382128938051"><ele>68.0</ele><time>2026-04-09T15:20:22.999Z</time></trkpt><trkpt lat="44.29620345373461" lon="9.383790769493354"><ele>67.5</ele><time>2026-04-09T15:20:23.999Z</time></trkpt><trkpt lat="44.29645921225172" lon="9.383778509223474"><ele>67.0</ele><time>2026-04-09T15:20:24.999Z</time></trkpt><trkpt lat="44.29670966256695" lon="9.383784931778912"><ele>67.0</ele><time>2026-04-09T15:20:25.999Z</time></trkpt><trkpt lat="44.29696229515104" lon="9.383805349316763"><ele>67.0</ele><time>2026-04-09T15:20:26.999Z</time></trkpt><trkpt lat="44.297222359076606" lon="9.383842106650281"><ele>85.0</ele><time>2026-04-09T15:20:27.999Z</time></trkpt><trkpt lat="44.29748936506154" lon="9.383888971700971"><ele>103.0</ele><time>2026-04-09T15:20:28.999Z</time></trkpt><trkpt lat="44.29776199351798" lon="9.383927431155339"><ele>103.0</ele><time>2026-04-09T15:20:29.999Z</time></trkpt><trkpt lat="44.29803927868557" lon="9.38396665000399"><ele>103.0</ele><time>2026-04-09T15:20:30.999Z</time></trkpt><trkpt lat="44.29832100954436" lon="9.38400808325759"><ele>106.5</ele><time>2026-04-09T15:20:31.999Z</time></trkpt><trkpt lat="44.29860202308247" lon="9.384047534464896"><ele>110.0</ele><time>2026-04-09T15:20:32.999Z</time></trkpt><trkpt lat="44.29888706033728" lon="9.384087663230856"><ele>107.5</ele><time>2026-04-09T15:20:33.999Z</time></trkpt><trkpt lat="44.29915513632402" lon="9.384123984144201"><ele>105.0</ele><time>2026-04-09T15:20:34.999Z</time></trkpt><trkpt lat="44.299411333402965" lon="9.384156879924017"><ele>105.0</ele><time>2026-04-09T15:20:35.999Z</time></trkpt><trkpt lat="44.299668625070716" lon="9.384171152136368"><ele>105.0</ele><time>2026-04-09T15:20:36.999Z</time></trkpt><trkpt lat="44.299921160284256" lon="9.384158676963876"><ele>104.5</ele><time>2026-04-09T15:20:37.999Z</time></trkpt><trkpt lat="44.30017145395445" lon="9.384121119561666"><ele>104.0</ele><time>2026-04-09T15:20:38.999Z</time></trkpt><trkpt lat="44.300421412915696" lon="9.384071272452688"><ele>105.5</ele><time>2026-04-09T15:20:39.999Z</time></trkpt><trkpt lat="44.300659398611906" lon="9.383988994953041"><ele>107.0</ele><time>2026-04-09T15:20:40.999Z</time></trkpt><trkpt lat="44.30088321873589" lon="9.383892136994401"><ele>97.0</ele><time>2026-04-09T15:20:42Z</time></trkpt><trkpt lat="44.3010986450352" lon="9.383775120533233"><ele>87.0</ele><time>2026-04-09T15:20:43Z</time></trkpt><trkpt lat="44.30131473072395" lon="9.383630965390717"><ele>96.5</ele><time>2026-04-09T15:20:44Z</time></trkpt><trkpt lat="44.30152786140183" lon="9.383471349759997"><ele>106.0</ele><time>2026-04-09T15:20:45Z</time></trkpt><trkpt lat="44.30173764039252" lon="9.383288475585832"><ele>106.0</ele><time>2026-04-09T15:20:46Z</time></trkpt><trkpt lat="44.30193920247198" lon="9.38307591138521"><ele>106.0</ele><time>2026-04-09T15:20:47Z</time></trkpt><trkpt lat="44.30213057954057" lon="9.382847485618532"><ele>105.5</ele><time>2026-04-09T15:20:48Z</time></trkpt><trkpt lat="44.30230822352996" lon="9.382603543694016"><ele>105.0</ele><time>2026-04-09T15:20:49Z</time></trkpt><trkpt lat="44.30246510206277" lon="9.382356105486128"><ele>107.5</ele><time>2026-04-09T15:20:50Z</time></trkpt><trkpt lat="44.302610141257006" lon="9.382088067782048"><ele>110.0</ele><time>2026-04-09T15:20:51Z</time></trkpt><trkpt lat="44.3027417947399" lon="9.381811818769867"><ele>110.0</ele><time>2026-04-09T15:20:52Z</time></trkpt><trkpt lat="44.30285152606754" lon="9.381547870704628"><ele>110.0</ele><time>2026-04-09T15:20:53Z</time></trkpt><trkpt lat="44.30295094877795" lon="9.381260350619392"><ele>110.0</ele><time>2026-04-09T15:20:54Z</time></trkpt><trkpt lat="44.303039723390036" lon="9.380962144828747"><ele>120.5</ele><time>2026-04-09T15:20:55Z</time></trkpt><trkpt lat="44.30312339182826" lon="9.380639710502228"><ele>131.0</ele><time>2026-04-09T15:20:56Z</time></trkpt><trkpt lat="44.303212766430924" lon="9.38028346795208"><ele>144.5</ele><time>2026-04-09T15:20:57.016Z</time></trkpt><trkpt lat="44.30330476303712" lon="9.379936653642758"><ele>158.0</ele><time>2026-04-09T15:20:58.021Z</time></trkpt><trkpt lat="44.303391177028885" lon="9.37962173035438"><ele>171.0</ele><time>2026-04-09T15:20:59.02Z</time></trkpt><trkpt lat="44.303474921301365" lon="9.3793189574034"><ele>184.0</ele><time>2026-04-09T15:21:00.017Z</time></trkpt><trkpt lat="44.30355755733804" lon="9.379018469663714"><ele>104.0</ele><time>2026-04-09T15:21:01.017Z</time></trkpt><trkpt lat="44.307045307982996" lon="9.366929177203557"><ele>104.0</ele><time>2026-04-09T15:21:34Z</time></trkpt><trkpt lat="44.30719669860945" lon="9.366613649107851"><ele>104.0</ele><time>2026-04-09T15:21:35Z</time></trkpt><trkpt lat="44.307391240776525" lon="9.3662876464332"><ele>93.5</ele><time>2026-04-09T15:21:36Z</time></trkpt><trkpt lat="44.307561574749364" lon="9.365976644611074"><ele>83.0</ele><time>2026-04-09T15:21:37Z</time></trkpt><trkpt lat="44.30773347992674" lon="9.365649996681372"><ele>88.0</ele><time>2026-04-09T15:21:38Z</time></trkpt><trkpt lat="44.30791217242681" lon="9.365318487069223"><ele>93.0</ele><time>2026-04-09T15:21:39Z</time></trkpt><trkpt lat="44.30809632965094" lon="9.36499185248724"><ele>81.5</ele><time>2026-04-09T15:21:40Z</time></trkpt><trkpt lat="44.308280196841345" lon="9.364661559978593"><ele>70.0</ele><time>2026-04-09T15:21:41Z</time></trkpt><trkpt lat="44.30847193761678" lon="9.364332100839755"><ele>70.0</ele><time>2026-04-09T15:21:42Z</time></trkpt><trkpt lat="44.30866600928004" lon="9.364024259142415"><ele>70.0</ele><time>2026-04-09T15:21:43Z</time></trkpt><trkpt lat="44.308861541379294" lon="9.363733189654718"><ele>65.5</ele><time>2026-04-09T15:21:44Z</time></trkpt><trkpt lat="44.30906450480259" lon="9.363440882757725"><ele>61.0</ele><time>2026-04-09T15:21:45Z</time></trkpt><trkpt lat="44.30926857834924" lon="9.363151902970133"><ele>56.5</ele><time>2026-04-09T15:21:46Z</time></trkpt><trkpt lat="44.30946884858895" lon="9.362866139980257"><ele>52.0</ele><time>2026-04-09T15:21:47Z</time></trkpt><trkpt lat="44.30965326176513" lon="9.362599711069945"><ele>53.0</ele><time>2026-04-09T15:21:48Z</time></trkpt><trkpt lat="44.30983441422518" lon="9.362340791333546"><ele>54.0</ele><time>2026-04-09T15:21:49Z</time></trkpt><trkpt lat="44.310011785360764" lon="9.362088751974404"><ele>54.0</ele><time>2026-04-09T15:21:50Z</time></trkpt><trkpt lat="44.31018089286579" lon="9.361845868616461"><ele>54.0</ele><time>2026-04-09T15:21:51Z</time></trkpt><trkpt lat="44.3103475886194" lon="9.361604757721288"><ele>54.0</ele><time>2026-04-09T15:21:52Z</time></trkpt><trkpt lat="44.31052006256837" lon="9.361360792253542"><ele>54.0</ele><time>2026-04-09T15:21:52.999Z</time></trkpt><trkpt lat="44.31068892204117" lon="9.36110748719131"><ele>56.0</ele><time>2026-04-09T15:21:53.999Z</time></trkpt><trkpt lat="44.31086184760578" lon="9.360866797157277"><ele>58.0</ele><time>2026-04-09T15:21:54.999Z</time></trkpt><trkpt lat="44.31103098961772" lon="9.360635272522023"><ele>63.5</ele><time>2026-04-09T15:21:55.999Z</time></trkpt><trkpt lat="44.311190006327955" lon="9.360405620063412"><ele>69.0</ele><time>2026-04-09T15:21:56.999Z</time></trkpt><trkpt lat="44.311343586298946" lon="9.360178038602708"><ele>56.0</ele><time>2026-04-09T15:21:57.999Z</time></trkpt><trkpt lat="44.31150231588463" lon="9.359956049668979"><ele>43.0</ele><time>2026-04-09T15:21:58.999Z</time></trkpt><trkpt lat="44.31166494034235" lon="9.359731180833037"><ele>42.5</ele><time>2026-04-09T15:21:59.999Z</time></trkpt><trkpt lat="44.311833071179265" lon="9.35948575192199"><ele>42.0</ele><time>2026-04-09T15:22:00.999Z</time></trkpt><trkpt lat="44.31200562170827" lon="9.359231191189044"><ele>42.0</ele><time>2026-04-09T15:22:01.999Z</time></trkpt><trkpt lat="44.3121864457147" lon="9.35896889491411"><ele>42.0</ele><time>2026-04-09T15:22:02.999Z</time></trkpt><trkpt lat="44.31237706853905" lon="9.358701122995212"><ele>39.5</ele><time>2026-04-09T15:22:03.999Z</time></trkpt><trkpt lat="44.31257310429967" lon="9.358427708225681"><ele>37.0</ele><time>2026-04-09T15:22:04.999Z</time></trkpt><trkpt lat="44.312769424256494" lon="9.358147904313846"><ele>36.0</ele><time>2026-04-09T15:22:05.999Z</time></trkpt><trkpt lat="44.312967022254306" lon="9.357859556616875"><ele>35.0</ele><time>2026-04-09T15:22:06.999Z</time></trkpt><trkpt lat="44.31316690340942" lon="9.357564425447665"><ele>46.0</ele><time>2026-04-09T15:22:07.999Z</time></trkpt><trkpt lat="44.313370832195716" lon="9.357267742015418"><ele>57.0</ele><time>2026-04-09T15:22:08.999Z</time></trkpt><trkpt lat="44.313577575650974" lon="9.356969350548487"><ele>57.0</ele><time>2026-04-09T15:22:09.999Z</time></trkpt><trkpt lat="44.31379017305373" lon="9.35666407742748"><ele>57.0</ele><time>2026-04-09T15:22:11.018Z</time></trkpt><trkpt lat="44.31399769696166" lon="9.356364590832401"><ele>57.0</ele><time>2026-04-09T15:22:12.019Z</time></trkpt><trkpt lat="44.31419088487311" lon="9.356075541485495"><ele>57.0</ele><time>2026-04-09T15:22:13.015Z</time></trkpt><trkpt lat="44.314379415181676" lon="9.355787820750697"><ele>56.0</ele><time>2026-04-09T15:22:14.016Z</time></trkpt><trkpt lat="44.31456898003948" lon="9.355496959169232"><ele>55.0</ele><time>2026-04-09T15:22:15.02Z</time></trkpt><trkpt lat="44.31479455287564" lon="9.355283940092429"><ele>46.5</ele><time>2026-04-09T15:22:15.999Z</time></trkpt><trkpt lat="44.3149730911243" lon="9.355015879408386"><ele>38.0</ele><time>2026-04-09T15:22:16.999Z</time></trkpt><trkpt lat="44.31516528049021" lon="9.354733193162412"><ele>37.5</ele><time>2026-04-09T15:22:17.999Z</time></trkpt><trkpt lat="44.31535125943856" lon="9.35447317740832"><ele>37.0</ele><time>2026-04-09T15:22:18.999Z</time></trkpt><trkpt lat="44.315540005999274" lon="9.354208246650938"><ele>34.0</ele><time>2026-04-09T15:22:19.999Z</time></trkpt><trkpt lat="44.31572981690066" lon="9.353936686228934"><ele>31.0</ele><time>2026-04-09T15:22:20.999Z</time></trkpt><trkpt lat="44.315913449325116" lon="9.353657611699285"><ele>31.0</ele><time>2026-04-09T15:22:21.999Z</time></trkpt><trkpt lat="44.31609331310965" lon="9.353362020615839"><ele>31.0</ele><time>2026-04-09T15:22:22.999Z</time></trkpt><trkpt lat="44.316260029510225" lon="9.353053937963313"><ele>33.5</ele><time>2026-04-09T15:22:23.999Z</time></trkpt><trkpt lat="44.316417629687564" lon="9.352740672495353"><ele>36.0</ele><time>2026-04-09T15:22:24.999Z</time></trkpt><trkpt lat="44.31656874862875" lon="9.352419882478078"><ele>34.0</ele><time>2026-04-09T15:22:25.999Z</time></trkpt><trkpt lat="44.316713814043894" lon="9.3521047492008"><ele>32.0</ele><time>2026-04-09T15:22:26.999Z</time></trkpt><trkpt lat="44.316853665391676" lon="9.351802496569286"><ele>32.0</ele><time>2026-04-09T15:22:27.999Z</time></trkpt><trkpt lat="44.31699092006219" lon="9.35149653412339"><ele>32.0</ele><time>2026-04-09T15:22:28.999Z</time></trkpt><trkpt lat="44.31713486216186" lon="9.351179026688662"><ele>36.5</ele><time>2026-04-09T15:22:29.999Z</time></trkpt><trkpt lat="44.31727903883806" lon="9.35085880654327"><ele>41.0</ele><time>2026-04-09T15:22:30.999Z</time></trkpt><trkpt lat="44.31742398611675" lon="9.35053425003231"><ele>42.5</ele><time>2026-04-09T15:22:31.999Z</time></trkpt><trkpt lat="44.31756871449217" lon="9.350206538328127"><ele>44.0</ele><time>2026-04-09T15:22:32.999Z</time></trkpt><trkpt lat="44.31770590619814" lon="9.349896173078996"><ele>44.0</ele><time>2026-04-09T15:22:33.999Z</time></trkpt><trkpt lat="44.317846081386406" lon="9.349577528203916"><ele>44.0</ele><time>2026-04-09T15:22:34.999Z</time></trkpt><trkpt lat="44.317985820927404" lon="9.349250399941173"><ele>39.5</ele><time>2026-04-09T15:22:35.999Z</time></trkpt><trkpt lat="44.31812580120017" lon="9.34892451006821"><ele>35.0</ele><time>2026-04-09T15:22:36.999Z</time></trkpt><trkpt lat="44.31825738109719" lon="9.348594483996518"><ele>35.0</ele><time>2026-04-09T15:22:37.999Z</time></trkpt><trkpt lat="44.31838722163054" lon="9.348259160606206"><ele>35.0</ele><time>2026-04-09T15:22:38.999Z</time></trkpt><trkpt lat="44.318511778843956" lon="9.347919656778075"><ele>31.0</ele><time>2026-04-09T15:22:39.999Z</time></trkpt><trkpt lat="44.31863468459823" lon="9.347577692698508"><ele>27.0</ele><time>2026-04-09T15:22:40.999Z</time></trkpt><trkpt lat="44.31875894346669" lon="9.3472453716387"><ele>18.0</ele><time>2026-04-09T15:22:41.999Z</time></trkpt><trkpt lat="44.31888813982658" lon="9.346910334577176"><ele>9.0</ele><time>2026-04-09T15:22:42.999Z</time></trkpt><trkpt lat="44.31901610403793" lon="9.346574833061439"><ele>8.0</ele><time>2026-04-09T15:22:43.999Z</time></trkpt><trkpt lat="44.3191429916719" lon="9.346238251505673"><ele>7.0</ele><time>2026-04-09T15:22:44.999Z</time></trkpt><trkpt lat="44.31926735146143" lon="9.345900739601122"><ele>7.0</ele><time>2026-04-09T15:22:45.999Z</time></trkpt><trkpt lat="44.319391485733156" lon="9.345564406154343"><ele>7.0</ele><time>2026-04-09T15:22:46.999Z</time></trkpt><trkpt lat="44.31951354049452" lon="9.345226411109222"><ele>7.0</ele><time>2026-04-09T15:22:48Z</time></trkpt><trkpt lat="44.3196361550281" lon="9.344889768097458"><ele>7.0</ele><time>2026-04-09T15:22:49Z</time></trkpt><trkpt lat="44.319758765183636" lon="9.34455307803961"><ele>7.5</ele><time>2026-04-09T15:22:50Z</time></trkpt><trkpt lat="44.319881152074736" lon="9.34421604778563"><ele>8.0</ele><time>2026-04-09T15:22:51Z</time></trkpt><trkpt lat="44.32000483674484" lon="9.343879072297906"><ele>9.0</ele><time>2026-04-09T15:22:52Z</time></trkpt><trkpt lat="44.320125390352395" lon="9.34354131141683"><ele>10.0</ele><time>2026-04-09T15:22:53Z</time></trkpt><trkpt lat="44.320239588489464" lon="9.343221687000131"><ele>9.0</ele><time>2026-04-09T15:22:54Z</time></trkpt><trkpt lat="44.32035507300118" lon="9.342901097465944"><ele>8.0</ele><time>2026-04-09T15:22:55Z</time></trkpt><trkpt lat="44.3204702575868" lon="9.342578690388521"><ele>9.0</ele><time>2026-04-09T15:22:56Z</time></trkpt><trkpt lat="44.320586225658126" lon="9.342258781775314"><ele>10.0</ele><time>2026-04-09T15:22:57Z</time></trkpt><trkpt lat="44.320703644902906" lon="9.34194141215078"><ele>10.0</ele><time>2026-04-09T15:22:58Z</time></trkpt><trkpt lat="44.320820460549946" lon="9.34162402162833"><ele>10.0</ele><time>2026-04-09T15:22:59Z</time></trkpt><trkpt lat="44.320936515551615" lon="9.341306282944837"><ele>15.0</ele><time>2026-04-09T15:23:00Z</time></trkpt><trkpt lat="44.32105372065999" lon="9.340983263908111"><ele>20.0</ele><time>2026-04-09T15:23:01Z</time></trkpt><trkpt lat="44.32117416919123" lon="9.340658387667727"><ele>23.5</ele><time>2026-04-09T15:23:02Z</time></trkpt><trkpt lat="44.321293266208116" lon="9.340330345775309"><ele>27.0</ele><time>2026-04-09T15:23:03Z</time></trkpt><trkpt lat="44.321411970080355" lon="9.340001948594201"><ele>35.0</ele><time>2026-04-09T15:23:04Z</time></trkpt><trkpt lat="44.321533891921305" lon="9.339673521049653"><ele>43.0</ele><time>2026-04-09T15:23:05Z</time></trkpt><trkpt lat="44.32165710147691" lon="9.339353230018535"><ele>43.0</ele><time>2026-04-09T15:23:06Z</time></trkpt><trkpt lat="44.32177537249909" lon="9.339054105384037"><ele>43.0</ele><time>2026-04-09T15:23:07Z</time></trkpt><trkpt lat="44.32189386040757" lon="9.33877068321477"><ele>45.0</ele><time>2026-04-09T15:23:08Z</time></trkpt><trkpt lat="44.32201033529754" lon="9.338482515435832"><ele>47.0</ele><time>2026-04-09T15:23:09Z</time></trkpt><trkpt lat="44.32212906660986" lon="9.338192740756293"><ele>60.0</ele><time>2026-04-09T15:23:10Z</time></trkpt><trkpt lat="44.32225141157228" lon="9.337890463859406"><ele>73.0</ele><time>2026-04-09T15:23:11Z</time></trkpt><trkpt lat="44.322383338960655" lon="9.337563932007008"><ele>73.0</ele><time>2026-04-09T15:23:12.019Z</time></trkpt><trkpt lat="44.32252079236423" lon="9.337228321700419"><ele>73.0</ele><time>2026-04-09T15:23:13.018Z</time></trkpt><trkpt lat="44.32266320446024" lon="9.336879255266041"><ele>65.0</ele><time>2026-04-09T15:23:14.019Z</time></trkpt><trkpt lat="44.322807778950754" lon="9.336524642251161"><ele>57.0</ele><time>2026-04-09T15:23:15.018Z</time></trkpt><trkpt lat="44.32297369003698" lon="9.336203634747617"><ele>55.0</ele><time>2026-04-09T15:23:16Z</time></trkpt><trkpt lat="44.32308145187129" lon="9.33587181278446"><ele>53.0</ele><time>2026-04-09T15:23:17Z</time></trkpt><trkpt lat="44.32320000374277" lon="9.335552853117521"><ele>50.0</ele><time>2026-04-09T15:23:18Z</time></trkpt><trkpt lat="44.32332339342562" lon="9.33526052007169"><ele>47.0</ele><time>2026-04-09T15:23:19Z</time></trkpt><trkpt lat="44.3234477340947" lon="9.334964249435643"><ele>48.0</ele><time>2026-04-09T15:23:20Z</time></trkpt><trkpt lat="44.32357496294992" lon="9.334664491892848"><ele>49.0</ele><time>2026-04-09T15:23:21Z</time></trkpt><trkpt lat="44.32370740727544" lon="9.334361557002033"><ele>49.0</ele><time>2026-04-09T15:23:22Z</time></trkpt><trkpt lat="44.323839315965934" lon="9.33405617150345"><ele>49.0</ele><time>2026-04-09T15:23:23Z</time></trkpt><trkpt lat="44.32396827247672" lon="9.33374587318765"><ele>63.0</ele><time>2026-04-09T15:23:24Z</time></trkpt><trkpt lat="44.324099733615974" lon="9.33343137036265"><ele>77.0</ele><time>2026-04-09T15:23:25Z</time></trkpt><trkpt lat="44.32423689962635" lon="9.33310932398841"><ele>85.5</ele><time>2026-04-09T15:23:26Z</time></trkpt><trkpt lat="44.32437200123892" lon="9.332788847043116"><ele>94.0</ele><time>2026-04-09T15:23:27Z</time></trkpt><trkpt lat="44.32450126941942" lon="9.332480360213422"><ele>99.0</ele><time>2026-04-09T15:23:28.015Z</time></trkpt><trkpt lat="44.324629065138346" lon="9.332161762840805"><ele>104.0</ele><time>2026-04-09T15:23:29.018Z</time></trkpt><trkpt lat="44.32475308563477" lon="9.3318245183461"><ele>114.0</ele><time>2026-04-09T15:23:30.018Z</time></trkpt><trkpt lat="44.32487445052034" lon="9.331485247767668"><ele>124.0</ele><time>2026-04-09T15:23:31.017Z</time></trkpt><trkpt lat="44.32552388407693" lon="9.32858834044014"><ele>82.0</ele><time>2026-04-09T15:23:39Z</time></trkpt><trkpt lat="44.32561562886274" lon="9.32822411586442"><ele>40.0</ele><time>2026-04-09T15:23:40Z</time></trkpt><trkpt lat="44.325689086268305" lon="9.327832246350404"><ele>39.0</ele><time>2026-04-09T15:23:41Z</time></trkpt><trkpt lat="44.325752277872915" lon="9.327478503520885"><ele>38.0</ele><time>2026-04-09T15:23:42Z</time></trkpt><trkpt lat="44.32581511420549" lon="9.327118511262405"><ele>38.0</ele><time>2026-04-09T15:23:43Z</time></trkpt><trkpt lat="44.32588114450771" lon="9.326751487013977"><ele>38.0</ele><time>2026-04-09T15:23:44Z</time></trkpt><trkpt lat="44.32594858057238" lon="9.326379268443125"><ele>41.0</ele><time>2026-04-09T15:23:45Z</time></trkpt><trkpt lat="44.32601387699535" lon="9.32599884247797"><ele>44.0</ele><time>2026-04-09T15:23:46Z</time></trkpt><trkpt lat="44.32607993274013" lon="9.325620699025714"><ele>45.5</ele><time>2026-04-09T15:23:47Z</time></trkpt><trkpt lat="44.32614677886566" lon="9.325246892890988"><ele>47.0</ele><time>2026-04-09T15:23:48Z</time></trkpt><trkpt lat="44.326214605528875" lon="9.324872694515538"><ele>42.0</ele><time>2026-04-09T15:23:49Z</time></trkpt><trkpt lat="44.32628085722125" lon="9.324520026930868"><ele>37.0</ele><time>2026-04-09T15:23:50Z</time></trkpt><trkpt lat="44.32634796944238" lon="9.324161837828086"><ele>39.0</ele><time>2026-04-09T15:23:51Z</time></trkpt><trkpt lat="44.326412404542126" lon="9.323797411089801"><ele>41.0</ele><time>2026-04-09T15:23:52Z</time></trkpt><trkpt lat="44.32647929299903" lon="9.323432477821108"><ele>34.5</ele><time>2026-04-09T15:23:53Z</time></trkpt><trkpt lat="44.32654659984551" lon="9.323063103411604"><ele>28.0</ele><time>2026-04-09T15:23:54Z</time></trkpt><trkpt lat="44.32661908709343" lon="9.322693238862481"><ele>28.0</ele><time>2026-04-09T15:23:55Z</time></trkpt><trkpt lat="44.32669555439644" lon="9.32234373412224"><ele>28.0</ele><time>2026-04-09T15:23:56Z</time></trkpt><trkpt lat="44.32678215797347" lon="9.322007268481611"><ele>22.0</ele><time>2026-04-09T15:23:57Z</time></trkpt><trkpt lat="44.32688018092201" lon="9.321669402927988"><ele>16.0</ele><time>2026-04-09T15:23:57.999Z</time></trkpt><trkpt lat="44.3269926063113" lon="9.321334490233308"><ele>13.0</ele><time>2026-04-09T15:23:58.999Z</time></trkpt><trkpt lat="44.327114352352694" lon="9.321005019146568"><ele>10.0</ele><time>2026-04-09T15:23:59.999Z</time></trkpt><trkpt lat="44.327249305874595" lon="9.320671911559524"><ele>13.0</ele><time>2026-04-09T15:24:00.999Z</time></trkpt><trkpt lat="44.32739786068941" lon="9.320346324956688"><ele>16.0</ele><time>2026-04-09T15:24:01.999Z</time></trkpt><trkpt lat="44.32755082632488" lon="9.32001034160914"><ele>18.0</ele><time>2026-04-09T15:24:02.999Z</time></trkpt><trkpt lat="44.32770405947151" lon="9.319673695320047"><ele>20.0</ele><time>2026-04-09T15:24:03.999Z</time></trkpt><trkpt lat="44.327858824304364" lon="9.319324014132619"><ele>20.0</ele><time>2026-04-09T15:24:04.999Z</time></trkpt><trkpt lat="44.32800265453185" lon="9.319004336225683"><ele>20.0</ele><time>2026-04-09T15:24:05.999Z</time></trkpt><trkpt lat="44.32813867288781" lon="9.318689308101817"><ele>29.5</ele><time>2026-04-09T15:24:06.999Z</time></trkpt><trkpt lat="44.32827655688726" lon="9.318370440000612"><ele>39.0</ele><time>2026-04-09T15:24:07.999Z</time></trkpt><trkpt lat="44.32840633419073" lon="9.318049875592939"><ele>48.0</ele><time>2026-04-09T15:24:08.999Z</time></trkpt><trkpt lat="44.32853094879142" lon="9.317725436773735"><ele>57.0</ele><time>2026-04-09T15:24:09.999Z</time></trkpt><trkpt lat="44.328646374831514" lon="9.317398833872634"><ele>69.5</ele><time>2026-04-09T15:24:10.999Z</time></trkpt><trkpt lat="44.328758852667335" lon="9.317063181852246"><ele>82.0</ele><time>2026-04-09T15:24:11.999Z</time></trkpt><trkpt lat="44.32886901099885" lon="9.316700060175606"><ele>80.0</ele><time>2026-04-09T15:24:12.999Z</time></trkpt><trkpt lat="44.32898670020861" lon="9.31631142996758"><ele>78.0</ele><time>2026-04-09T15:24:14.016Z</time></trkpt><trkpt lat="44.32910006994671" lon="9.315934196577176"><ele>78.0</ele><time>2026-04-09T15:24:15.018Z</time></trkpt><trkpt lat="44.32920435773237" lon="9.315585413846929"><ele>78.0</ele><time>2026-04-09T15:24:16.02Z</time></trkpt><trkpt lat="44.329307471212765" lon="9.315233459621624"><ele>76.0</ele><time>2026-04-09T15:24:17.018Z</time></trkpt><trkpt lat="44.329503821250356" lon="9.314523423099251"><ele>76.0</ele><time>2026-04-09T15:24:18.999Z</time></trkpt><trkpt lat="44.32960321904417" lon="9.314164435862345"><ele>76.0</ele><time>2026-04-09T15:24:19.999Z</time></trkpt><trkpt lat="44.32970882142067" lon="9.313803186701408"><ele>61.5</ele><time>2026-04-09T15:24:20.999Z</time></trkpt><trkpt lat="44.32982752978138" lon="9.313460209431819"><ele>47.0</ele><time>2026-04-09T15:24:21.999Z</time></trkpt><trkpt lat="44.32993640896203" lon="9.31311500282383"><ele>56.5</ele><time>2026-04-09T15:24:22.999Z</time></trkpt><trkpt lat="44.33003538226656" lon="9.312763096341904"><ele>66.0</ele><time>2026-04-09T15:24:23.999Z</time></trkpt><trkpt lat="44.33013022075262" lon="9.31239123207812"><ele>72.5</ele><time>2026-04-09T15:24:24.999Z</time></trkpt><trkpt lat="44.33022547244933" lon="9.312031131457212"><ele>79.0</ele><time>2026-04-09T15:24:25.999Z</time></trkpt><trkpt lat="44.33031607684289" lon="9.311663514730181"><ele>78.5</ele><time>2026-04-09T15:24:26.999Z</time></trkpt><trkpt lat="44.33040387545627" lon="9.31129038292333"><ele>78.0</ele><time>2026-04-09T15:24:27.999Z</time></trkpt><trkpt lat="44.33048965526854" lon="9.310911785173154"><ele>66.5</ele><time>2026-04-09T15:24:28.999Z</time></trkpt><trkpt lat="44.330570456687596" lon="9.310534350599843"><ele>55.0</ele><time>2026-04-09T15:24:29.999Z</time></trkpt><trkpt lat="44.33065019850294" lon="9.310157807085055"><ele>55.0</ele><time>2026-04-09T15:24:30.999Z</time></trkpt><trkpt lat="44.3307284496189" lon="9.309776660060844"><ele>55.0</ele><time>2026-04-09T15:24:31.999Z</time></trkpt><trkpt lat="44.330804868365924" lon="9.309396340171137"><ele>64.5</ele><time>2026-04-09T15:24:32.999Z</time></trkpt><trkpt lat="44.33087925933105" lon="9.309013688505493"><ele>74.0</ele><time>2026-04-09T15:24:33.999Z</time></trkpt><trkpt lat="44.330956975681154" lon="9.308630062798404"><ele>83.5</ele><time>2026-04-09T15:24:34.999Z</time></trkpt><trkpt lat="44.33103022614691" lon="9.308256567232785"><ele>93.0</ele><time>2026-04-09T15:24:35.999Z</time></trkpt><trkpt lat="44.33109053256011" lon="9.30791662875834"><ele>97.5</ele><time>2026-04-09T15:24:36.999Z</time></trkpt><trkpt lat="44.33113667712849" lon="9.307573272660411"><ele>102.0</ele><time>2026-04-09T15:24:37.999Z</time></trkpt><trkpt lat="44.331168264128614" lon="9.307223651977054"><ele>106.0</ele><time>2026-04-09T15:24:38.999Z</time></trkpt><trkpt lat="44.331179708396654" lon="9.306870681541465"><ele>110.0</ele><time>2026-04-09T15:24:39.999Z</time></trkpt><trkpt lat="44.331172010424055" lon="9.306514663914784"><ele>110.0</ele><time>2026-04-09T15:24:40.999Z</time></trkpt><trkpt lat="44.33114865313662" lon="9.306152783682851"><ele>110.0</ele><time>2026-04-09T15:24:41.999Z</time></trkpt><trkpt lat="44.33111229091748" lon="9.305789102698384"><ele>107.0</ele><time>2026-04-09T15:24:42.999Z</time></trkpt><trkpt lat="44.33106720773155" lon="9.305425267112113"><ele>104.0</ele><time>2026-04-09T15:24:43.999Z</time></trkpt><trkpt lat="44.33102564966267" lon="9.305059264737936"><ele>103.0</ele><time>2026-04-09T15:24:44.999Z</time></trkpt><trkpt lat="44.33099478123445" lon="9.304691777167978"><ele>102.0</ele><time>2026-04-09T15:24:45.999Z</time></trkpt><trkpt lat="44.33097766720559" lon="9.304319110978414"><ele>102.0</ele><time>2026-04-09T15:24:46.999Z</time></trkpt><trkpt lat="44.330975282412176" lon="9.303946794045471"><ele>102.0</ele><time>2026-04-09T15:24:47.999Z</time></trkpt><trkpt lat="44.33099018646113" lon="9.303576655842095"><ele>105.0</ele><time>2026-04-09T15:24:48.999Z</time></trkpt><trkpt lat="44.33101638548498" lon="9.30320692685708"><ele>108.0</ele><time>2026-04-09T15:24:49.999Z</time></trkpt><trkpt lat="44.331041453356654" lon="9.302832227641455"><ele>109.0</ele><time>2026-04-09T15:24:50.999Z</time></trkpt><trkpt lat="44.33106148235255" lon="9.302462735362694"><ele>110.0</ele><time>2026-04-09T15:24:51.999Z</time></trkpt><trkpt lat="44.33107357198442" lon="9.302116052576082"><ele>110.0</ele><time>2026-04-09T15:24:52.999Z</time></trkpt><trkpt lat="44.33107933143369" lon="9.30178788213395"><ele>110.0</ele><time>2026-04-09T15:24:54Z</time></trkpt><trkpt lat="44.33107030257935" lon="9.301460187536895"><ele>107.5</ele><time>2026-04-09T15:24:55Z</time></trkpt><trkpt lat="44.33104242586316" lon="9.301119990348207"><ele>105.0</ele><time>2026-04-09T15:24:56Z</time></trkpt><trkpt lat="44.33100451230729" lon="9.300769480573729"><ele>105.0</ele><time>2026-04-09T15:24:57Z</time></trkpt><trkpt lat="44.33096550081319" lon="9.300413671820051"><ele>105.0</ele><time>2026-04-09T15:24:58Z</time></trkpt><trkpt lat="44.330932607735164" lon="9.300052759303096"><ele>108.5</ele><time>2026-04-09T15:24:59Z</time></trkpt><trkpt lat="44.33091308989178" lon="9.29970623995818"><ele>112.0</ele><time>2026-04-09T15:25:00Z</time></trkpt><trkpt lat="44.3309069604064" lon="9.299373733072544"><ele>112.0</ele><time>2026-04-09T15:25:01Z</time></trkpt><trkpt lat="44.330916203839934" lon="9.299032851096841"><ele>112.0</ele><time>2026-04-09T15:25:02Z</time></trkpt><trkpt lat="44.33093679515116" lon="9.298685796373139"><ele>120.5</ele><time>2026-04-09T15:25:03Z</time></trkpt><trkpt lat="44.33096576279407" lon="9.2983380467409"><ele>129.0</ele><time>2026-04-09T15:25:04Z</time></trkpt><trkpt lat="44.331014305480686" lon="9.29798729188281"><ele>133.0</ele><time>2026-04-09T15:25:05Z</time></trkpt><trkpt lat="44.33107518450748" lon="9.297638491794702"><ele>137.0</ele><time>2026-04-09T15:25:06Z</time></trkpt><trkpt lat="44.331154719217366" lon="9.297290373758196"><ele>141.0</ele><time>2026-04-09T15:25:07Z</time></trkpt><trkpt lat="44.331242038067145" lon="9.29693641967201"><ele>145.0</ele><time>2026-04-09T15:25:08Z</time></trkpt><trkpt lat="44.33134961893459" lon="9.296585621530552"><ele>129.5</ele><time>2026-04-09T15:25:09Z</time></trkpt><trkpt lat="44.331458128173466" lon="9.296227636097777"><ele>114.0</ele><time>2026-04-09T15:25:10Z</time></trkpt><trkpt lat="44.331558373847336" lon="9.295892611344284"><ele>114.0</ele><time>2026-04-09T15:25:11Z</time></trkpt><trkpt lat="44.33165822853862" lon="9.295589063132976"><ele>114.0</ele><time>2026-04-09T15:25:12Z</time></trkpt><trkpt lat="44.33176454744408" lon="9.295282796603749"><ele>123.5</ele><time>2026-04-09T15:25:13Z</time></trkpt><trkpt lat="44.331878564754426" lon="9.294985876929388"><ele>133.0</ele><time>2026-04-09T15:25:14Z</time></trkpt><trkpt lat="44.33200361988179" lon="9.294691023219007"><ele>127.0</ele><time>2026-04-09T15:25:15Z</time></trkpt><trkpt lat="44.33214566190063" lon="9.294405468893764"><ele>121.0</ele><time>2026-04-09T15:25:16Z</time></trkpt><trkpt lat="44.3323038790997" lon="9.294127269925026"><ele>132.5</ele><time>2026-04-09T15:25:17Z</time></trkpt><trkpt lat="44.33247994513668" lon="9.293850949352935"><ele>144.0</ele><time>2026-04-09T15:25:18Z</time></trkpt><trkpt lat="44.33266985232149" lon="9.29358198617103"><ele>144.0</ele><time>2026-04-09T15:25:19Z</time></trkpt><trkpt lat="44.332880065551606" lon="9.293327869173853"><ele>144.0</ele><time>2026-04-09T15:25:20Z</time></trkpt><trkpt lat="44.33310786892191" lon="9.293083044991095"><ele>143.0</ele><time>2026-04-09T15:25:21Z</time></trkpt><trkpt lat="44.33334863366247" lon="9.29284680313616"><ele>142.0</ele><time>2026-04-09T15:25:22Z</time></trkpt><trkpt lat="44.33359897507883" lon="9.292615955370954"><ele>142.0</ele><time>2026-04-09T15:25:23Z</time></trkpt><trkpt lat="44.33385594854391" lon="9.292384779771758"><ele>142.0</ele><time>2026-04-09T15:25:24Z</time></trkpt><trkpt lat="44.33411644616631" lon="9.292148955156753"><ele>149.5</ele><time>2026-04-09T15:25:25Z</time></trkpt><trkpt lat="44.33437759977839" lon="9.29190603275367"><ele>157.0</ele><time>2026-04-09T15:25:26Z</time></trkpt><trkpt lat="44.33463300986042" lon="9.29166237069256"><ele>158.0</ele><time>2026-04-09T15:25:27Z</time></trkpt><trkpt lat="44.33486131729588" lon="9.291427522506797"><ele>159.0</ele><time>2026-04-09T15:25:28Z</time></trkpt><trkpt lat="44.33507719944577" lon="9.291189055059164"><ele>159.0</ele><time>2026-04-09T15:25:29Z</time></trkpt><trkpt lat="44.335282419145095" lon="9.290939728811324"><ele>159.0</ele><time>2026-04-09T15:25:30Z</time></trkpt><trkpt lat="44.33547960555252" lon="9.290674913660409"><ele>168.0</ele><time>2026-04-09T15:25:31Z</time></trkpt><trkpt lat="44.335672634759774" lon="9.290404532158714"><ele>177.0</ele><time>2026-04-09T15:25:32Z</time></trkpt><trkpt lat="44.33585944580033" lon="9.290119287530944"><ele>177.0</ele><time>2026-04-09T15:25:33Z</time></trkpt><trkpt lat="44.336040443681036" lon="9.289819973237044"><ele>177.0</ele><time>2026-04-09T15:25:34Z</time></trkpt><trkpt lat="44.33621469909927" lon="9.289499789257277"><ele>201.0</ele><time>2026-04-09T15:25:35.014Z</time></trkpt><trkpt lat="44.33638490000189" lon="9.289165728333426"><ele>225.0</ele><time>2026-04-09T15:25:36.016Z</time></trkpt><trkpt lat="44.33655932830766" lon="9.288816055056332"><ele>240.0</ele><time>2026-04-09T15:25:37.02Z</time></trkpt><trkpt lat="44.336734769939255" lon="9.288464908311642"><ele>255.0</ele><time>2026-04-09T15:25:38.02Z</time></trkpt><trkpt lat="44.3432876933779" lon="9.275333583363588"><ele>191.0</ele><time>2026-04-09T15:26:17.999Z</time></trkpt><trkpt lat="44.343415439888375" lon="9.27501015563594"><ele>127.0</ele><time>2026-04-09T15:26:18.999Z</time></trkpt><trkpt lat="44.3435521319851" lon="9.274681419980443"><ele>115.0</ele><time>2026-04-09T15:26:19.999Z</time></trkpt><trkpt lat="44.34367791841765" lon="9.274321374872942"><ele>103.0</ele><time>2026-04-09T15:26:20.999Z</time></trkpt><trkpt lat="44.34380497911333" lon="9.273958479518662"><ele>85.0</ele><time>2026-04-09T15:26:21.999Z</time></trkpt><trkpt lat="44.343938119837965" lon="9.273587412907101"><ele>67.0</ele><time>2026-04-09T15:26:22.999Z</time></trkpt><trkpt lat="44.344077946603896" lon="9.273215654646863"><ele>77.5</ele><time>2026-04-09T15:26:23.999Z</time></trkpt><trkpt lat="44.34421616214351" lon="9.27284003626396"><ele>88.0</ele><time>2026-04-09T15:26:24.999Z</time></trkpt><trkpt lat="44.34435266987751" lon="9.272466706591533"><ele>101.0</ele><time>2026-04-09T15:26:25.999Z</time></trkpt><trkpt lat="44.3444778498335" lon="9.272128224410762"><ele>114.0</ele><time>2026-04-09T15:26:26.999Z</time></trkpt><trkpt lat="44.344600016729075" lon="9.27181778935078"><ele>130.5</ele><time>2026-04-09T15:26:27.999Z</time></trkpt><trkpt lat="44.34471584470466" lon="9.271524219822815"><ele>147.0</ele><time>2026-04-09T15:26:28.999Z</time></trkpt><trkpt lat="44.3448182408742" lon="9.27122936608795"><ele>166.5</ele><time>2026-04-09T15:26:29.999Z</time></trkpt><trkpt lat="44.34491223885556" lon="9.270915851330699"><ele>186.0</ele><time>2026-04-09T15:26:30.999Z</time></trkpt><trkpt lat="44.34500205671775" lon="9.270573601336375"><ele>199.5</ele><time>2026-04-09T15:26:32.02Z</time></trkpt><trkpt lat="44.34508562240208" lon="9.270224284738836"><ele>213.0</ele><time>2026-04-09T15:26:33.017Z</time></trkpt><trkpt lat="44.34516871435415" lon="9.269864072696269"><ele>222.0</ele><time>2026-04-09T15:26:34.019Z</time></trkpt><trkpt lat="44.3452545564538" lon="9.26950251697448"><ele>231.0</ele><time>2026-04-09T15:26:35.019Z</time></trkpt><trkpt lat="44.3460931217899" lon="9.265464806968572"><ele>305.0</ele><time>2026-04-09T15:26:39.071Z</time></trkpt><trkpt lat="44.346377537507294" lon="9.264143458201417"><ele>351.0</ele><time>2026-04-09T15:26:40.071Z</time></trkpt><trkpt lat="44.34666152593227" lon="9.262822449399696"><ele>339.0</ele><time>2026-04-09T15:26:41.071Z</time></trkpt><trkpt lat="44.34694573181238" lon="9.261500499758368"><ele>352.0</ele><time>2026-04-09T15:26:42.071Z</time></trkpt><trkpt lat="44.347230835670494" lon="9.260179477409428"><ele>302.0</ele><time>2026-04-09T15:26:43.071Z</time></trkpt><trkpt lat="44.34751567924586" lon="9.25885825605732"><ele>275.0</ele><time>2026-04-09T15:26:44.071Z</time></trkpt><trkpt lat="44.34780020912403" lon="9.257536954714817"><ele>188.0</ele><time>2026-04-09T15:26:45.071Z</time></trkpt><trkpt lat="44.34808521635782" lon="9.256215781864933"><ele>154.0</ele><time>2026-04-09T15:26:46.071Z</time></trkpt><trkpt lat="44.348366950538264" lon="9.25489336381098"><ele>108.0</ele><time>2026-04-09T15:26:47.071Z</time></trkpt><trkpt lat="44.34860337064075" lon="9.253863170751606"><ele>108.0</ele><time>2026-04-09T15:27:18.999Z</time></trkpt><trkpt lat="44.348663193175234" lon="9.253554557645062"><ele>108.0</ele><time>2026-04-09T15:27:19.999Z</time></trkpt><trkpt lat="44.34870835206044" lon="9.253210116459705"><ele>103.0</ele><time>2026-04-09T15:27:20.999Z</time></trkpt><trkpt lat="44.3487506482349" lon="9.252869043846575"><ele>98.0</ele><time>2026-04-09T15:27:21.999Z</time></trkpt><trkpt lat="44.34878302924875" lon="9.252531878603403"><ele>96.0</ele><time>2026-04-09T15:27:22.999Z</time></trkpt><trkpt lat="44.34880849363755" lon="9.252191341069178"><ele>94.0</ele><time>2026-04-09T15:27:23.999Z</time></trkpt><trkpt lat="44.34884170191841" lon="9.251847291051298"><ele>94.0</ele><time>2026-04-09T15:27:24.999Z</time></trkpt><trkpt lat="44.34887089822248" lon="9.251501969332285"><ele>94.0</ele><time>2026-04-09T15:27:25.999Z</time></trkpt><trkpt lat="44.348895356512756" lon="9.251171672869912"><ele>107.0</ele><time>2026-04-09T15:27:26.999Z</time></trkpt><trkpt lat="44.34892334400061" lon="9.250854254549035"><ele>120.0</ele><time>2026-04-09T15:27:27.999Z</time></trkpt><trkpt lat="44.34895260199015" lon="9.250545690993107"><ele>120.0</ele><time>2026-04-09T15:27:28.999Z</time></trkpt><trkpt lat="44.348990867602375" lon="9.250230949802765"><ele>120.0</ele><time>2026-04-09T15:27:30Z</time></trkpt><trkpt lat="44.34904171844278" lon="9.249924651150055"><ele>116.33333333333334</ele><time>2026-04-09T15:27:31Z</time></trkpt><trkpt lat="44.349112000547485" lon="9.249641439497172"><ele>112.66666666666667</ele><time>2026-04-09T15:27:32Z</time></trkpt><trkpt lat="44.34920089764495" lon="9.2493601447811"><ele>109.0</ele><time>2026-04-09T15:27:33Z</time></trkpt><trkpt lat="44.3493077938859" lon="9.249087337835919"><ele>105.0</ele><time>2026-04-09T15:27:34Z</time></trkpt><trkpt lat="44.349430819057176" lon="9.248816967598488"><ele>101.0</ele><time>2026-04-09T15:27:35Z</time></trkpt><trkpt lat="44.349570299922526" lon="9.248557056059994"><ele>99.5</ele><time>2026-04-09T15:27:36Z</time></trkpt><trkpt lat="44.34972364712498" lon="9.248320790302252"><ele>98.0</ele><time>2026-04-09T15:27:37Z</time></trkpt><trkpt lat="44.34988190753979" lon="9.248095714777074"><ele>98.0</ele><time>2026-04-09T15:27:38Z</time></trkpt><trkpt lat="44.35005675343735" lon="9.247867976070667"><ele>98.0</ele><time>2026-04-09T15:27:39Z</time></trkpt><trkpt lat="44.35023327939546" lon="9.24763346811748"><ele>98.0</ele><time>2026-04-09T15:27:40Z</time></trkpt><trkpt lat="44.35041515020949" lon="9.24739092368736"><ele>98.0</ele><time>2026-04-09T15:27:41Z</time></trkpt><trkpt lat="44.35059900088367" lon="9.247139636134849"><ele>114.5</ele><time>2026-04-09T15:27:42Z</time></trkpt><trkpt lat="44.350786242625354" lon="9.246872573581436"><ele>131.0</ele><time>2026-04-09T15:27:43Z</time></trkpt><trkpt lat="44.35098507772384" lon="9.246599554492379"><ele>131.5</ele><time>2026-04-09T15:27:44Z</time></trkpt><trkpt lat="44.351191805354475" lon="9.246319372173213"><ele>132.0</ele><time>2026-04-09T15:27:45Z</time></trkpt><trkpt lat="44.35141140473661" lon="9.246023099107322"><ele>132.0</ele><time>2026-04-09T15:27:46.019Z</time></trkpt><trkpt lat="44.35163180465013" lon="9.245721885528132"><ele>132.0</ele><time>2026-04-09T15:27:47.018Z</time></trkpt><trkpt lat="44.35185709597237" lon="9.245413165081487"><ele>116.0</ele><time>2026-04-09T15:27:48.018Z</time></trkpt><trkpt lat="44.35208617380107" lon="9.245103473837784"><ele>100.0</ele><time>2026-04-09T15:27:49.02Z</time></trkpt><trkpt lat="44.35275890868562" lon="9.244236052044894"><ele>73.0</ele><time>2026-04-09T15:27:52Z</time></trkpt><trkpt lat="44.35298356732116" lon="9.243941588938041"><ele>46.0</ele><time>2026-04-09T15:27:53Z</time></trkpt><trkpt lat="44.353237287649584" lon="9.243630618890817"><ele>43.0</ele><time>2026-04-09T15:27:54Z</time></trkpt><trkpt lat="44.353463004751234" lon="9.243343882574619"><ele>40.0</ele><time>2026-04-09T15:27:55Z</time></trkpt><trkpt lat="44.35367902226377" lon="9.243055421075114"><ele>61.5</ele><time>2026-04-09T15:27:56Z</time></trkpt><trkpt lat="44.35390016165222" lon="9.24277321723669"><ele>83.0</ele><time>2026-04-09T15:27:57Z</time></trkpt><trkpt lat="44.35411850997096" lon="9.242475373106712"><ele>97.5</ele><time>2026-04-09T15:27:58Z</time></trkpt><trkpt lat="44.35433710110866" lon="9.242181595105768"><ele>112.0</ele><time>2026-04-09T15:27:59Z</time></trkpt><trkpt lat="44.35455759765678" lon="9.241892676536859"><ele>129.0</ele><time>2026-04-09T15:28:00Z</time></trkpt><trkpt lat="44.354782604190746" lon="9.24159517965251"><ele>146.0</ele><time>2026-04-09T15:28:01Z</time></trkpt><trkpt lat="44.35501460672537" lon="9.241288977016666"><ele>146.0</ele><time>2026-04-09T15:28:02.02Z</time></trkpt><trkpt lat="44.35524588312066" lon="9.240984706737834"><ele>146.0</ele><time>2026-04-09T15:28:03.027Z</time></trkpt><trkpt lat="44.35546961727466" lon="9.240696057255384"><ele>136.5</ele><time>2026-04-09T15:28:04.02Z</time></trkpt><trkpt lat="44.35568490783373" lon="9.24042107958502"><ele>127.0</ele><time>2026-04-09T15:28:05.017Z</time></trkpt><trkpt lat="44.35589845217757" lon="9.240149570852111"><ele>105.0</ele><time>2026-04-09T15:28:06.021Z</time></trkpt><trkpt lat="44.358026505667134" lon="9.237354569013718"><ele>51.0</ele><time>2026-04-09T15:28:10.071Z</time></trkpt><trkpt lat="44.358566477936094" lon="9.236421938994187"><ele>51.0</ele><time>2026-04-09T15:28:19Z</time></trkpt><trkpt lat="44.358724594290486" lon="9.236160014362506"><ele>51.0</ele><time>2026-04-09T15:28:20Z</time></trkpt><trkpt lat="44.35886112642738" lon="9.235914054992493"><ele>50.66666666666667</ele><time>2026-04-09T15:28:21Z</time></trkpt><trkpt lat="44.35896511090178" lon="9.235657151301167"><ele>50.333333333333336</ele><time>2026-04-09T15:28:22Z</time></trkpt><trkpt lat="44.35908139947212" lon="9.23538604024249"><ele>50.0</ele><time>2026-04-09T15:28:23Z</time></trkpt><trkpt lat="44.359180549997234" lon="9.235079663352384"><ele>46.0</ele><time>2026-04-09T15:28:24Z</time></trkpt><trkpt lat="44.35927584883076" lon="9.234761386390122"><ele>42.0</ele><time>2026-04-09T15:28:25Z</time></trkpt><trkpt lat="44.359364474934125" lon="9.23442584993483"><ele>42.0</ele><time>2026-04-09T15:28:26Z</time></trkpt><trkpt lat="44.359435433032566" lon="9.234078670351922"><ele>42.0</ele><time>2026-04-09T15:28:27Z</time></trkpt><trkpt lat="44.359489029119516" lon="9.23373291238993"><ele>58.5</ele><time>2026-04-09T15:28:28Z</time></trkpt><trkpt lat="44.35952622245132" lon="9.233396689834954"><ele>75.0</ele><time>2026-04-09T15:28:29Z</time></trkpt><trkpt lat="44.359555989824365" lon="9.233039990430997"><ele>96.5</ele><time>2026-04-09T15:28:30Z</time></trkpt><trkpt lat="44.3595760637165" lon="9.232663429751058"><ele>118.0</ele><time>2026-04-09T15:28:31Z</time></trkpt><trkpt lat="44.35957747745307" lon="9.232304776190148"><ele>132.5</ele><time>2026-04-09T15:28:32Z</time></trkpt><trkpt lat="44.35956287241688" lon="9.231942459255254"><ele>147.0</ele><time>2026-04-09T15:28:33.019Z</time></trkpt><trkpt lat="44.35953077576416" lon="9.231568194001898"><ele>143.5</ele><time>2026-04-09T15:28:34.019Z</time></trkpt><trkpt lat="44.35947952358703" lon="9.231180574471638"><ele>140.0</ele><time>2026-04-09T15:28:35.019Z</time></trkpt><trkpt lat="44.35942267735489" lon="9.23078617189497"><ele>59.0</ele><time>2026-04-09T15:28:36.019Z</time></trkpt><trkpt lat="44.358718279825084" lon="9.226708504141076"><ele>55.0</ele><time>2026-04-09T15:28:40.07Z</time></trkpt><trkpt lat="44.358483582062355" lon="9.225368068319593"><ele>84.0</ele><time>2026-04-09T15:28:41.07Z</time></trkpt><trkpt lat="44.35895217121053" lon="9.228043723860036"><ele>84.0</ele><time>2026-04-09T15:28:41.999Z</time></trkpt><trkpt lat="44.358878559915986" lon="9.227623182632012"><ele>84.0</ele><time>2026-04-09T15:28:42.999Z</time></trkpt><trkpt lat="44.35879222609582" lon="9.22721522844872"><ele>71.5</ele><time>2026-04-09T15:28:43.999Z</time></trkpt><trkpt lat="44.35870900623827" lon="9.226793890466173"><ele>59.0</ele><time>2026-04-09T15:28:45.018Z</time></trkpt><trkpt lat="44.35831925370205" lon="9.224541848533995"><ele>51.0</ele><time>2026-04-09T15:28:49.999Z</time></trkpt><trkpt lat="44.35824517301673" lon="9.224118630313503"><ele>43.0</ele><time>2026-04-09T15:28:50.999Z</time></trkpt><trkpt lat="44.358180740414866" lon="9.223738230904404"><ele>41.0</ele><time>2026-04-09T15:28:51.999Z</time></trkpt><trkpt lat="44.35811263750732" lon="9.223341175184997"><ele>39.0</ele><time>2026-04-09T15:28:52.999Z</time></trkpt><trkpt lat="44.35804583225602" lon="9.222927895942744"><ele>45.0</ele><time>2026-04-09T15:28:53.999Z</time></trkpt><trkpt lat="44.35797367083444" lon="9.22250551970165"><ele>51.0</ele><time>2026-04-09T15:28:54.999Z</time></trkpt><trkpt lat="44.35790917734069" lon="9.222094780882934"><ele>51.0</ele><time>2026-04-09T15:28:55.999Z</time></trkpt><trkpt lat="44.35784020036661" lon="9.221712317743664"><ele>51.0</ele><time>2026-04-09T15:28:56.999Z</time></trkpt><trkpt lat="44.357774576265484" lon="9.221341512351454"><ele>49.0</ele><time>2026-04-09T15:28:57.999Z</time></trkpt><trkpt lat="44.357712237055395" lon="9.220974358491956"><ele>47.0</ele><time>2026-04-09T15:28:58.999Z</time></trkpt><trkpt lat="44.35765204147398" lon="9.22060769958802"><ele>44.5</ele><time>2026-04-09T15:28:59.999Z</time></trkpt><trkpt lat="44.35760245269232" lon="9.220262124980488"><ele>42.0</ele><time>2026-04-09T15:29:00.999Z</time></trkpt><trkpt lat="44.35756123023671" lon="9.219900441840114"><ele>38.0</ele><time>2026-04-09T15:29:01.999Z</time></trkpt><trkpt lat="44.35753285975928" lon="9.219521378713942"><ele>34.0</ele><time>2026-04-09T15:29:02.999Z</time></trkpt><trkpt lat="44.35751242840712" lon="9.219117652457731"><ele>32.5</ele><time>2026-04-09T15:29:03.999Z</time></trkpt><trkpt lat="44.357511113553166" lon="9.218722604343823"><ele>31.0</ele><time>2026-04-09T15:29:04.999Z</time></trkpt><trkpt lat="44.35752821688052" lon="9.218322125600654"><ele>35.5</ele><time>2026-04-09T15:29:05.999Z</time></trkpt><trkpt lat="44.35756135969149" lon="9.217920841937328"><ele>40.0</ele><time>2026-04-09T15:29:06.999Z</time></trkpt><trkpt lat="44.35759490406561" lon="9.217516727430802"><ele>49.0</ele><time>2026-04-09T15:29:07.999Z</time></trkpt><trkpt lat="44.35763333289755" lon="9.217101138160563"><ele>58.0</ele><time>2026-04-09T15:29:08.999Z</time></trkpt><trkpt lat="44.357670915832905" lon="9.216679475803225"><ele>59.5</ele><time>2026-04-09T15:29:09.999Z</time></trkpt><trkpt lat="44.357708797972876" lon="9.216253785247796"><ele>61.0</ele><time>2026-04-09T15:29:10.999Z</time></trkpt><trkpt lat="44.35774714616802" lon="9.215818532077101"><ele>53.0</ele><time>2026-04-09T15:29:12.018Z</time></trkpt><trkpt lat="44.35778572573808" lon="9.215388522613283"><ele>45.0</ele><time>2026-04-09T15:29:13.02Z</time></trkpt><trkpt lat="44.357825157289135" lon="9.214962893757079"><ele>32.5</ele><time>2026-04-09T15:29:14.017Z</time></trkpt><trkpt lat="44.35786679789851" lon="9.214534070700417"><ele>20.0</ele><time>2026-04-09T15:29:15.019Z</time></trkpt><trkpt lat="44.357887585688715" lon="9.214095901706456"><ele>16.0</ele><time>2026-04-09T15:29:15.999Z</time></trkpt><trkpt lat="44.3579475394662" lon="9.213691690495553"><ele>12.0</ele><time>2026-04-09T15:29:16.999Z</time></trkpt><trkpt lat="44.357980480632506" lon="9.21331205808332"><ele>12.5</ele><time>2026-04-09T15:29:17.999Z</time></trkpt><trkpt lat="44.358025283239705" lon="9.212928734189353"><ele>13.0</ele><time>2026-04-09T15:29:18.999Z</time></trkpt><trkpt lat="44.35808071438658" lon="9.212538213831259"><ele>17.5</ele><time>2026-04-09T15:29:19.999Z</time></trkpt><trkpt lat="44.358144716698256" lon="9.212151924744703"><ele>22.0</ele><time>2026-04-09T15:29:20.999Z</time></trkpt><trkpt lat="44.358218968532576" lon="9.211761007167118"><ele>25.0</ele><time>2026-04-09T15:29:21.999Z</time></trkpt><trkpt lat="44.35830097850406" lon="9.211360204949536"><ele>28.0</ele><time>2026-04-09T15:29:22.999Z</time></trkpt><trkpt lat="44.35839684142113" lon="9.210952501936328"><ele>25.0</ele><time>2026-04-09T15:29:23.999Z</time></trkpt><trkpt lat="44.35849302609972" lon="9.210544656086562"><ele>22.0</ele><time>2026-04-09T15:29:24.999Z</time></trkpt><trkpt lat="44.35860324824101" lon="9.210144146598322"><ele>23.0</ele><time>2026-04-09T15:29:25.999Z</time></trkpt><trkpt lat="44.35872449938417" lon="9.209745689797241"><ele>24.0</ele><time>2026-04-09T15:29:26.999Z</time></trkpt><trkpt lat="44.35884746113643" lon="9.20934138807332"><ele>26.5</ele><time>2026-04-09T15:29:27.999Z</time></trkpt><trkpt lat="44.35897540214263" lon="9.208934797248851"><ele>29.0</ele><time>2026-04-09T15:29:28.999Z</time></trkpt><trkpt lat="44.35910064458197" lon="9.208527035233722"><ele>33.0</ele><time>2026-04-09T15:29:29.999Z</time></trkpt><trkpt lat="44.3592223811405" lon="9.208116038196692"><ele>37.0</ele><time>2026-04-09T15:29:30.999Z</time></trkpt><trkpt lat="44.359343087762994" lon="9.20770545854406"><ele>37.0</ele><time>2026-04-09T15:29:31.999Z</time></trkpt><trkpt lat="44.35946442563012" lon="9.207295917850908"><ele>37.0</ele><time>2026-04-09T15:29:32.999Z</time></trkpt><trkpt lat="44.359588736192244" lon="9.206887851024264"><ele>40.5</ele><time>2026-04-09T15:29:33.999Z</time></trkpt><trkpt lat="44.359711409449844" lon="9.20647767315941"><ele>44.0</ele><time>2026-04-09T15:29:34.999Z</time></trkpt><trkpt lat="44.35982921562012" lon="9.206076956102699"><ele>44.0</ele><time>2026-04-09T15:29:36Z</time></trkpt><trkpt lat="44.35993868700218" lon="9.20569697955752"><ele>44.0</ele><time>2026-04-09T15:29:37Z</time></trkpt><trkpt lat="44.36004100546924" lon="9.205332243775427"><ele>45.0</ele><time>2026-04-09T15:29:38Z</time></trkpt><trkpt lat="44.36012527853797" lon="9.204986127458529"><ele>46.0</ele><time>2026-04-09T15:29:39Z</time></trkpt><trkpt lat="44.36019864116456" lon="9.20463521856555"><ele>46.0</ele><time>2026-04-09T15:29:40Z</time></trkpt><trkpt lat="44.36025723738075" lon="9.204281604587594"><ele>46.0</ele><time>2026-04-09T15:29:41Z</time></trkpt><trkpt lat="44.36030459565052" lon="9.20393196199921"><ele>46.0</ele><time>2026-04-09T15:29:42Z</time></trkpt><trkpt lat="44.36034058885072" lon="9.20356288045461"><ele>46.0</ele><time>2026-04-09T15:29:43Z</time></trkpt><trkpt lat="44.36037209282912" lon="9.203180776155738"><ele>47.5</ele><time>2026-04-09T15:29:44Z</time></trkpt><trkpt lat="44.36039371792851" lon="9.202776345411166"><ele>49.0</ele><time>2026-04-09T15:29:45Z</time></trkpt><trkpt lat="44.360415043176666" lon="9.20235441956236"><ele>50.0</ele><time>2026-04-09T15:29:46Z</time></trkpt><trkpt lat="44.36044133873092" lon="9.201918377990848"><ele>51.0</ele><time>2026-04-09T15:29:47Z</time></trkpt><trkpt lat="44.36046742245032" lon="9.201495881816605"><ele>48.5</ele><time>2026-04-09T15:29:48Z</time></trkpt><trkpt lat="44.36048920302413" lon="9.20111199891255"><ele>46.0</ele><time>2026-04-09T15:29:49Z</time></trkpt><trkpt lat="44.36050747483261" lon="9.200745359810153"><ele>49.0</ele><time>2026-04-09T15:29:50Z</time></trkpt><trkpt lat="44.360524971987736" lon="9.200409195201264"><ele>52.0</ele><time>2026-04-09T15:29:51Z</time></trkpt><trkpt lat="44.36054249689873" lon="9.200082782078566"><ele>67.5</ele><time>2026-04-09T15:29:52Z</time></trkpt><trkpt lat="44.360565596786934" lon="9.199744567822295"><ele>83.0</ele><time>2026-04-09T15:29:53Z</time></trkpt><trkpt lat="44.36059178836421" lon="9.199414338015258"><ele>83.0</ele><time>2026-04-09T15:29:54Z</time></trkpt><trkpt lat="44.360624346559916" lon="9.199109849528242"><ele>83.0</ele><time>2026-04-09T15:29:55Z</time></trkpt><trkpt lat="44.36066863708757" lon="9.198811779917785"><ele>83.0</ele><time>2026-04-09T15:29:56Z</time></trkpt><trkpt lat="44.360724143462" lon="9.19850334299241"><ele>80.0</ele><time>2026-04-09T15:29:57Z</time></trkpt><trkpt lat="44.36079324534178" lon="9.198195587602882"><ele>77.0</ele><time>2026-04-09T15:29:58Z</time></trkpt><trkpt lat="44.3608725710427" lon="9.19787836096896"><ele>73.0</ele><time>2026-04-09T15:29:59Z</time></trkpt><trkpt lat="44.36095339992744" lon="9.197551876407756"><ele>69.0</ele><time>2026-04-09T15:30:00Z</time></trkpt><trkpt lat="44.36103821492138" lon="9.19721703772557"><ele>67.0</ele><time>2026-04-09T15:30:01Z</time></trkpt><trkpt lat="44.361121699372134" lon="9.196877332568205"><ele>65.0</ele><time>2026-04-09T15:30:02Z</time></trkpt><trkpt lat="44.36119315554363" lon="9.196562262931174"><ele>65.66666666666667</ele><time>2026-04-09T15:30:03Z</time></trkpt><trkpt lat="44.361252019697375" lon="9.196261653174409"><ele>66.33333333333333</ele><time>2026-04-09T15:30:04Z</time></trkpt><trkpt lat="44.361299239515766" lon="9.195955923206125"><ele>67.0</ele><time>2026-04-09T15:30:05Z</time></trkpt><trkpt lat="44.36133491542392" lon="9.195647112710967"><ele>72.33333333333333</ele><time>2026-04-09T15:30:06Z</time></trkpt><trkpt lat="44.36136312197761" lon="9.195360642767001"><ele>77.66666666666667</ele><time>2026-04-09T15:30:07Z</time></trkpt><trkpt lat="44.3613860324654" lon="9.195075904359003"><ele>83.0</ele><time>2026-04-09T15:30:08Z</time></trkpt><trkpt lat="44.36140658507823" lon="9.194782688293884"><ele>90.33333333333334</ele><time>2026-04-09T15:30:09Z</time></trkpt><trkpt lat="44.361420907265725" lon="9.194485376941454"><ele>97.66666666666667</ele><time>2026-04-09T15:30:10Z</time></trkpt><trkpt lat="44.36143810460952" lon="9.194181338865961"><ele>105.0</ele><time>2026-04-09T15:30:11Z</time></trkpt><trkpt lat="44.36145716511694" lon="9.193871607857536"><ele>105.0</ele><time>2026-04-09T15:30:12Z</time></trkpt><trkpt lat="44.36148777835651" lon="9.193540110809309"><ele>105.0</ele><time>2026-04-09T15:30:13.018Z</time></trkpt><trkpt lat="44.36150856249617" lon="9.193227573722352"><ele>96.66666666666667</ele><time>2026-04-09T15:30:14.019Z</time></trkpt><trkpt lat="44.361541148462614" lon="9.192918408520644"><ele>88.33333333333334</ele><time>2026-04-09T15:30:15Z</time></trkpt><trkpt lat="44.361677022685484" lon="9.192668131998209"><ele>80.0</ele><time>2026-04-09T15:30:16Z</time></trkpt><trkpt lat="44.36172944751374" lon="9.192397123804405"><ele>77.33333333333334</ele><time>2026-04-09T15:30:17Z</time></trkpt><trkpt lat="44.36178264567917" lon="9.192123891732312"><ele>74.66666666666667</ele><time>2026-04-09T15:30:18Z</time></trkpt><trkpt lat="44.36183100870903" lon="9.191849224733524"><ele>72.0</ele><time>2026-04-09T15:30:19Z</time></trkpt><trkpt lat="44.361877547868346" lon="9.19157498164862"><ele>73.66666666666667</ele><time>2026-04-09T15:30:20Z</time></trkpt><trkpt lat="44.36193302038622" lon="9.19130348565799"><ele>75.33333333333334</ele><time>2026-04-09T15:30:21Z</time></trkpt><trkpt lat="44.36198863551628" lon="9.191025271968615"><ele>77.0</ele><time>2026-04-09T15:30:22Z</time></trkpt><trkpt lat="44.36204413996941" lon="9.190740013023905"><ele>76.33333333333334</ele><time>2026-04-09T15:30:23Z</time></trkpt><trkpt lat="44.36209777714326" lon="9.190449766121544"><ele>75.66666666666667</ele><time>2026-04-09T15:30:24Z</time></trkpt><trkpt lat="44.36214820659518" lon="9.19016225861229"><ele>75.0</ele><time>2026-04-09T15:30:25Z</time></trkpt><trkpt lat="44.362192983849276" lon="9.189891880678536"><ele>87.66666666666666</ele><time>2026-04-09T15:30:26Z</time></trkpt><trkpt lat="44.36223622876476" lon="9.189643709951202"><ele>100.33333333333333</ele><time>2026-04-09T15:30:27Z</time></trkpt><trkpt lat="44.36227593555976" lon="9.189398758161877"><ele>113.0</ele><time>2026-04-09T15:30:28Z</time></trkpt><trkpt lat="44.36231774877276" lon="9.189148341346096"><ele>110.33333333333333</ele><time>2026-04-09T15:30:29Z</time></trkpt><trkpt lat="44.36235995498093" lon="9.188908673994177"><ele>107.66666666666666</ele><time>2026-04-09T15:30:30Z</time></trkpt><trkpt lat="44.36240155171771" lon="9.18868673328953"><ele>105.0</ele><time>2026-04-09T15:30:31Z</time></trkpt><trkpt lat="44.362442246365326" lon="9.188461299771244"><ele>105.0</ele><time>2026-04-09T15:30:32Z</time></trkpt><trkpt lat="44.3624809467387" lon="9.188243741750147"><ele>105.0</ele><time>2026-04-09T15:30:33Z</time></trkpt><trkpt lat="44.362514436644055" lon="9.188030084259994"><ele>105.0</ele><time>2026-04-09T15:30:34Z</time></trkpt><trkpt lat="44.36255359944553" lon="9.187806647925688"><ele>104.5</ele><time>2026-04-09T15:30:35Z</time></trkpt><trkpt lat="44.36259176727817" lon="9.187619557142591"><ele>104.0</ele><time>2026-04-09T15:30:36Z</time></trkpt><trkpt lat="44.36261952421706" lon="9.187448286958181"><ele>103.5</ele><time>2026-04-09T15:30:37Z</time></trkpt><trkpt lat="44.36264876036864" lon="9.187267797659795"><ele>103.0</ele><time>2026-04-09T15:30:38Z</time></trkpt><trkpt lat="44.36268193167093" lon="9.187085547603623"><ele>102.75</ele><time>2026-04-09T15:30:39Z</time></trkpt><trkpt lat="44.36271640564106" lon="9.18691041040604"><ele>102.5</ele><time>2026-04-09T15:30:40Z</time></trkpt><trkpt lat="44.36275601809847" lon="9.186739637292687"><ele>102.25</ele><time>2026-04-09T15:30:41Z</time></trkpt><trkpt lat="44.36279807559469" lon="9.186563055650133"><ele>102.0</ele><time>2026-04-09T15:30:42Z</time></trkpt><trkpt lat="44.36283881237135" lon="9.186384081990191"><ele>103.25</ele><time>2026-04-09T15:30:43Z</time></trkpt><trkpt lat="44.362887731170964" lon="9.186216416688007"><ele>104.5</ele><time>2026-04-09T15:30:44Z</time></trkpt><trkpt lat="44.36294117534373" lon="9.186047433734998"><ele>105.75</ele><time>2026-04-09T15:30:45Z</time></trkpt><trkpt lat="44.36300660008612" lon="9.185862206575583"><ele>107.0</ele><time>2026-04-09T15:30:46Z</time></trkpt><trkpt lat="44.36308319425118" lon="9.185666104929254"><ele>110.25</ele><time>2026-04-09T15:30:46.999Z</time></trkpt><trkpt lat="44.36315656736013" lon="9.185493446477173"><ele>113.5</ele><time>2026-04-09T15:30:47.999Z</time></trkpt><trkpt lat="44.36322943961045" lon="9.18533593101502"><ele>116.75</ele><time>2026-04-09T15:30:48.999Z</time></trkpt><trkpt lat="44.36330767267183" lon="9.185177762171248"><ele>120.0</ele><time>2026-04-09T15:30:49.999Z</time></trkpt><trkpt lat="44.36338834322023" lon="9.185020170890208"><ele>120.0</ele><time>2026-04-09T15:30:50.999Z</time></trkpt><trkpt lat="44.36345948939132" lon="9.184877137446795"><ele>120.0</ele><time>2026-04-09T15:30:51.999Z</time></trkpt><trkpt lat="44.363527861869656" lon="9.184744299273856"><ele>120.0</ele><time>2026-04-09T15:30:52.999Z</time></trkpt><trkpt lat="44.363598623188444" lon="9.18460557536888"><ele>120.0</ele><time>2026-04-09T15:30:53.999Z</time></trkpt><trkpt lat="44.36367239687913" lon="9.184466386404438"><ele>120.6</ele><time>2026-04-09T15:30:54.999Z</time></trkpt><trkpt lat="44.36374007404205" lon="9.184336039156202"><ele>121.2</ele><time>2026-04-09T15:30:55.999Z</time></trkpt><trkpt lat="44.36380271533394" lon="9.184218925458927"><ele>121.80000000000001</ele><time>2026-04-09T15:30:56.999Z</time></trkpt><trkpt lat="44.363860945399594" lon="9.184109240244764"><ele>122.4</ele><time>2026-04-09T15:30:57.999Z</time></trkpt><trkpt lat="44.36391424486163" lon="9.18400577920488"><ele>123.0</ele><time>2026-04-09T15:30:58.999Z</time></trkpt><trkpt lat="44.36396723750097" lon="9.183894427403354"><ele>125.5</ele><time>2026-04-09T15:30:59.999Z</time></trkpt><trkpt lat="44.36402203937541" lon="9.183773261071408"><ele>128.0</ele><time>2026-04-09T15:31:00.999Z</time></trkpt><trkpt lat="44.36407608693927" lon="9.183636344320073"><ele>130.5</ele><time>2026-04-09T15:31:01.999Z</time></trkpt><trkpt lat="44.36412735185473" lon="9.183492326524068"><ele>133.0</ele><time>2026-04-09T15:31:02.999Z</time></trkpt><trkpt lat="44.36418158398476" lon="9.183334554581688"><ele>141.33333333333334</ele><time>2026-04-09T15:31:03.999Z</time></trkpt><trkpt lat="44.36423747668544" lon="9.18315978344211"><ele>149.66666666666666</ele><time>2026-04-09T15:31:04.999Z</time></trkpt><trkpt lat="44.364298414996526" lon="9.182955407970216"><ele>158.0</ele><time>2026-04-09T15:31:05.999Z</time></trkpt><trkpt lat="44.364362798007846" lon="9.182717142142492"><ele>158.0</ele><time>2026-04-09T15:31:06.999Z</time></trkpt><trkpt lat="44.36441746264301" lon="9.18248749340621"><ele>158.0</ele><time>2026-04-09T15:31:07.999Z</time></trkpt><trkpt lat="44.36447711373027" lon="9.182221297007219"><ele>158.0</ele><time>2026-04-09T15:31:08.999Z</time></trkpt><trkpt lat="44.36453776353186" lon="9.181931435940289"><ele>172.33333333333331</ele><time>2026-04-09T15:31:10.017Z</time></trkpt><trkpt lat="44.3645957343723" lon="9.18165370613225"><ele>186.66666666666666</ele><time>2026-04-09T15:31:11.019Z</time></trkpt><trkpt lat="44.36465374529434" lon="9.181363387818292"><ele>201.0</ele><time>2026-04-09T15:31:12.02Z</time></trkpt><trkpt lat="44.36471398039214" lon="9.181062311708477"><ele>206.5</ele><time>2026-04-09T15:31:13.02Z</time></trkpt><trkpt lat="44.364773140480914" lon="9.180760080940962"><ele>212.0</ele><time>2026-04-09T15:31:14.019Z</time></trkpt><trkpt lat="44.36564601826236" lon="9.176739479845361"><ele>417.0</ele><time>2026-04-09T15:31:18.069Z</time></trkpt><trkpt lat="44.36591817508506" lon="9.175412161315263"><ele>458.0</ele><time>2026-04-09T15:31:19.069Z</time></trkpt><trkpt lat="44.36619217556564" lon="9.17408510605863"><ele>527.0</ele><time>2026-04-09T15:31:20.07Z</time></trkpt><trkpt lat="44.36646470868409" lon="9.172758764830158"><ele>530.0</ele><time>2026-04-09T15:31:21.07Z</time></trkpt><trkpt lat="44.3667390503801" lon="9.171432591488335"><ele>491.0</ele><time>2026-04-09T15:31:22.07Z</time></trkpt><trkpt lat="44.36701081654156" lon="9.170107251574972"><ele>410.0</ele><time>2026-04-09T15:31:23.069Z</time></trkpt><trkpt lat="44.36728706304687" lon="9.168782110384385"><ele>371.0</ele><time>2026-04-09T15:31:24.069Z</time></trkpt><trkpt lat="44.36756024725508" lon="9.167455704126796"><ele>316.0</ele><time>2026-04-09T15:31:25.069Z</time></trkpt><trkpt lat="44.36783457558569" lon="9.166129239364755"><ele>252.0</ele><time>2026-04-09T15:31:26.069Z</time></trkpt><trkpt lat="44.36810760197372" lon="9.16480326269532"><ele>221.0</ele><time>2026-04-09T15:31:27.069Z</time></trkpt><trkpt lat="44.36837994641896" lon="9.163476528195318"><ele>145.0</ele><time>2026-04-09T15:31:28.069Z</time></trkpt><trkpt lat="44.368652784076886" lon="9.162149969285682"><ele>131.0</ele><time>2026-04-09T15:31:29.069Z</time></trkpt><trkpt lat="44.36898120217432" lon="9.160486925401875"><ele>131.0</ele><time>2026-04-09T15:32:11.999Z</time></trkpt><trkpt lat="44.36904369849507" lon="9.160129814671867"><ele>131.0</ele><time>2026-04-09T15:32:12.999Z</time></trkpt><trkpt lat="44.36908080489732" lon="9.159746985079767"><ele>125.5</ele><time>2026-04-09T15:32:13.999Z</time></trkpt><trkpt lat="44.36912559842809" lon="9.15937441343718"><ele>120.0</ele><time>2026-04-09T15:32:14.999Z</time></trkpt><trkpt lat="44.369169649625974" lon="9.158991832555051"><ele>117.5</ele><time>2026-04-09T15:32:15.999Z</time></trkpt><trkpt lat="44.369224760080115" lon="9.15860591659826"><ele>115.0</ele><time>2026-04-09T15:32:17Z</time></trkpt><trkpt lat="44.36927851004757" lon="9.158215024559194"><ele>109.0</ele><time>2026-04-09T15:32:18Z</time></trkpt><trkpt lat="44.369332996407195" lon="9.157824186230322"><ele>103.0</ele><time>2026-04-09T15:32:19Z</time></trkpt><trkpt lat="44.369381691217264" lon="9.157454115131278"><ele>94.0</ele><time>2026-04-09T15:32:20Z</time></trkpt><trkpt lat="44.36942833011628" lon="9.15709898952364"><ele>85.0</ele><time>2026-04-09T15:32:21Z</time></trkpt><trkpt lat="44.36949205154079" lon="9.15673808226413"><ele>80.0</ele><time>2026-04-09T15:32:22Z</time></trkpt><trkpt lat="44.36956024295654" lon="9.15639625371864"><ele>75.0</ele><time>2026-04-09T15:32:23Z</time></trkpt><trkpt lat="44.3696384741495" lon="9.156103760605786"><ele>91.0</ele><time>2026-04-09T15:32:24Z</time></trkpt><trkpt lat="44.369743589412174" lon="9.155793257748085"><ele>107.0</ele><time>2026-04-09T15:32:25Z</time></trkpt><trkpt lat="44.36986705880663" lon="9.155486932344228"><ele>107.0</ele><time>2026-04-09T15:32:26Z</time></trkpt><trkpt lat="44.370013241981155" lon="9.155175945694172"><ele>107.0</ele><time>2026-04-09T15:32:27Z</time></trkpt><trkpt lat="44.37017871695101" lon="9.15490489463124"><ele>109.5</ele><time>2026-04-09T15:32:28Z</time></trkpt><trkpt lat="44.37034350254606" lon="9.154658978528273"><ele>112.0</ele><time>2026-04-09T15:32:29Z</time></trkpt><trkpt lat="44.37052939986176" lon="9.154418502318805"><ele>112.0</ele><time>2026-04-09T15:32:30Z</time></trkpt><trkpt lat="44.37072302083721" lon="9.154162777902272"><ele>112.0</ele><time>2026-04-09T15:32:31Z</time></trkpt><trkpt lat="44.37093880471376" lon="9.153944344113546"><ele>99.5</ele><time>2026-04-09T15:32:32Z</time></trkpt><trkpt lat="44.37116237062985" lon="9.153738958286374"><ele>87.0</ele><time>2026-04-09T15:32:33Z</time></trkpt><trkpt lat="44.371367120953494" lon="9.153506307776674"><ele>87.0</ele><time>2026-04-09T15:32:34Z</time></trkpt><trkpt lat="44.37161021673601" lon="9.153327719065562"><ele>87.0</ele><time>2026-04-09T15:32:35Z</time></trkpt><trkpt lat="44.37184310764318" lon="9.15316706805489"><ele>72.5</ele><time>2026-04-09T15:32:36Z</time></trkpt><trkpt lat="44.37209246273503" lon="9.15303902551194"><ele>58.0</ele><time>2026-04-09T15:32:37Z</time></trkpt><trkpt lat="44.37232002525497" lon="9.152860195343917"><ele>58.0</ele><time>2026-04-09T15:32:38Z</time></trkpt><trkpt lat="44.37254525388911" lon="9.15266444243996"><ele>58.0</ele><time>2026-04-09T15:32:39Z</time></trkpt><trkpt lat="44.37276900606812" lon="9.152453339447447"><ele>43.5</ele><time>2026-04-09T15:32:40Z</time></trkpt><trkpt lat="44.372991617068664" lon="9.152232928639743"><ele>29.0</ele><time>2026-04-09T15:32:41Z</time></trkpt><trkpt lat="44.37320029838452" lon="9.152001027605772"><ele>29.0</ele><time>2026-04-09T15:32:42Z</time></trkpt><trkpt lat="44.3734009592392" lon="9.151753795914525"><ele>29.0</ele><time>2026-04-09T15:32:43Z</time></trkpt><trkpt lat="44.37359169820493" lon="9.151491731696092"><ele>27.0</ele><time>2026-04-09T15:32:44Z</time></trkpt><trkpt lat="44.373774742432836" lon="9.151215926857697"><ele>25.0</ele><time>2026-04-09T15:32:45Z</time></trkpt><trkpt lat="44.37394772288997" lon="9.150929578379728"><ele>28.5</ele><time>2026-04-09T15:32:46Z</time></trkpt><trkpt lat="44.37411437678155" lon="9.15063086646215"><ele>32.0</ele><time>2026-04-09T15:32:47Z</time></trkpt><trkpt lat="44.374274598526206" lon="9.150328624550463"><ele>32.0</ele><time>2026-04-09T15:32:48Z</time></trkpt><trkpt lat="44.37443280224834" lon="9.150001696102041"><ele>32.0</ele><time>2026-04-09T15:32:49Z</time></trkpt><trkpt lat="44.37458617253045" lon="9.149680962964204"><ele>49.0</ele><time>2026-04-09T15:32:50Z</time></trkpt><trkpt lat="44.374714739335445" lon="9.149373387502806"><ele>66.0</ele><time>2026-04-09T15:32:51Z</time></trkpt><trkpt lat="44.374840114484186" lon="9.149055058519352"><ele>78.5</ele><time>2026-04-09T15:32:52Z</time></trkpt><trkpt lat="44.374973552877535" lon="9.1487353934797"><ele>91.0</ele><time>2026-04-09T15:32:53Z</time></trkpt><trkpt lat="44.37511685206278" lon="9.1484170725078"><ele>100.5</ele><time>2026-04-09T15:32:54Z</time></trkpt><trkpt lat="44.3752746438079" lon="9.14809237288253"><ele>110.0</ele><time>2026-04-09T15:32:55Z</time></trkpt><trkpt lat="44.375444037113986" lon="9.147753620623616"><ele>104.5</ele><time>2026-04-09T15:32:56Z</time></trkpt><trkpt lat="44.37562629569023" lon="9.147410085196837"><ele>99.0</ele><time>2026-04-09T15:32:57Z</time></trkpt><trkpt lat="44.37581765817227" lon="9.14706182020909"><ele>99.0</ele><time>2026-04-09T15:32:58Z</time></trkpt><trkpt lat="44.376017859309094" lon="9.146718753594094"><ele>99.0</ele><time>2026-04-09T15:32:59Z</time></trkpt><trkpt lat="44.37620502881387" lon="9.14640366767921"><ele>93.0</ele><time>2026-04-09T15:33:00Z</time></trkpt><trkpt lat="44.37637262442615" lon="9.1461084062408"><ele>87.0</ele><time>2026-04-09T15:33:01Z</time></trkpt><trkpt lat="44.37652365894007" lon="9.145825129406834"><ele>99.5</ele><time>2026-04-09T15:33:02Z</time></trkpt><trkpt lat="44.376665484652214" lon="9.145530151029185"><ele>112.0</ele><time>2026-04-09T15:33:03Z</time></trkpt><trkpt lat="44.37679601266756" lon="9.14521845326531"><ele>112.0</ele><time>2026-04-09T15:33:04Z</time></trkpt><trkpt lat="44.376912972242614" lon="9.144897028078464"><ele>112.0</ele><time>2026-04-09T15:33:05Z</time></trkpt><trkpt lat="44.37701374725551" lon="9.1445690187841"><ele>115.0</ele><time>2026-04-09T15:33:06Z</time></trkpt><trkpt lat="44.377087841858774" lon="9.144241386314295"><ele>118.0</ele><time>2026-04-09T15:33:07Z</time></trkpt><trkpt lat="44.37717125538497" lon="9.143900866326844"><ele>115.0</ele><time>2026-04-09T15:33:08Z</time></trkpt><trkpt lat="44.377240320804766" lon="9.143543650643611"><ele>112.0</ele><time>2026-04-09T15:33:09Z</time></trkpt><trkpt lat="44.37728999375942" lon="9.143187589640632"><ele>118.5</ele><time>2026-04-09T15:33:10Z</time></trkpt><trkpt lat="44.37732784317287" lon="9.142834159916905"><ele>125.0</ele><time>2026-04-09T15:33:11Z</time></trkpt><trkpt lat="44.3773581166773" lon="9.142463094750749"><ele>136.0</ele><time>2026-04-09T15:33:12Z</time></trkpt><trkpt lat="44.377384724022626" lon="9.14209121640685"><ele>147.0</ele><time>2026-04-09T15:33:13Z</time></trkpt><trkpt lat="44.37741319094122" lon="9.14171770819772"><ele>154.5</ele><time>2026-04-09T15:33:14Z</time></trkpt><trkpt lat="44.37744289218077" lon="9.141337678972086"><ele>162.0</ele><time>2026-04-09T15:33:15Z</time></trkpt><trkpt lat="44.37747445064394" lon="9.140953994545027"><ele>170.5</ele><time>2026-04-09T15:33:16Z</time></trkpt><trkpt lat="44.377506459388144" lon="9.140568542541414"><ele>179.0</ele><time>2026-04-09T15:33:17.018Z</time></trkpt><trkpt lat="44.37753888034107" lon="9.140189788071286"><ele>186.0</ele><time>2026-04-09T15:33:18.02Z</time></trkpt><trkpt lat="44.377569921822506" lon="9.139822235737201"><ele>193.0</ele><time>2026-04-09T15:33:19.017Z</time></trkpt><trkpt lat="44.377601263182065" lon="9.139464505413555"><ele>309.0</ele><time>2026-04-09T15:33:20.016Z</time></trkpt><trkpt lat="44.3779941892177" lon="9.134417262829501"><ele>164.0</ele><time>2026-04-09T15:33:34.961Z</time></trkpt><trkpt lat="44.379534479271975" lon="9.117600666367558"><ele>162.5</ele><time>2026-04-09T15:34:24.999Z</time></trkpt><trkpt lat="44.37956103187855" lon="9.117266808254959"><ele>161.0</ele><time>2026-04-09T15:34:25.999Z</time></trkpt><trkpt lat="44.37956056978266" lon="9.116935307182043"><ele>161.0</ele><time>2026-04-09T15:34:26.999Z</time></trkpt><trkpt lat="44.37958854468195" lon="9.116612553356273"><ele>161.0</ele><time>2026-04-09T15:34:27.999Z</time></trkpt><trkpt lat="44.37961072096504" lon="9.11627931543866"><ele>161.0</ele><time>2026-04-09T15:34:28.999Z</time></trkpt><trkpt lat="44.37963373483893" lon="9.115941950024462"><ele>161.0</ele><time>2026-04-09T15:34:29.999Z</time></trkpt><trkpt lat="44.379651300158294" lon="9.115596588486008"><ele>163.5</ele><time>2026-04-09T15:34:31Z</time></trkpt><trkpt lat="44.37967196214191" lon="9.115247738087483"><ele>166.0</ele><time>2026-04-09T15:34:32Z</time></trkpt><trkpt lat="44.37969294606523" lon="9.11489189958109"><ele>144.5</ele><time>2026-04-09T15:34:33Z</time></trkpt><trkpt lat="44.37971535941832" lon="9.114535048666598"><ele>123.0</ele><time>2026-04-09T15:34:34Z</time></trkpt><trkpt lat="44.379741451960015" lon="9.114192219043725"><ele>121.0</ele><time>2026-04-09T15:34:35Z</time></trkpt><trkpt lat="44.37976901112649" lon="9.113858304304568"><ele>119.0</ele><time>2026-04-09T15:34:36Z</time></trkpt><trkpt lat="44.379800812158315" lon="9.11351882009438"><ele>121.5</ele><time>2026-04-09T15:34:37Z</time></trkpt><trkpt lat="44.37982963440003" lon="9.113175390179249"><ele>124.0</ele><time>2026-04-09T15:34:38Z</time></trkpt><trkpt lat="44.37986039341655" lon="9.112822402245408"><ele>124.0</ele><time>2026-04-09T15:34:39Z</time></trkpt><trkpt lat="44.3798883764799" lon="9.112471855095837"><ele>124.0</ele><time>2026-04-09T15:34:40Z</time></trkpt><trkpt lat="44.379917850932415" lon="9.112123084031232"><ele>124.0</ele><time>2026-04-09T15:34:41Z</time></trkpt><trkpt lat="44.379945683171705" lon="9.11177608203702"><ele>124.0</ele><time>2026-04-09T15:34:42Z</time></trkpt><trkpt lat="44.37997323349852" lon="9.111431225787104"><ele>110.0</ele><time>2026-04-09T15:34:43Z</time></trkpt><trkpt lat="44.37999767308648" lon="9.111107532093202"><ele>96.0</ele><time>2026-04-09T15:34:44Z</time></trkpt><trkpt lat="44.380023535212516" lon="9.110783694990163"><ele>78.5</ele><time>2026-04-09T15:34:45Z</time></trkpt><trkpt lat="44.380050458561925" lon="9.110461516263708"><ele>61.0</ele><time>2026-04-09T15:34:46Z</time></trkpt><trkpt lat="44.38007985077743" lon="9.110137479326728"><ele>49.0</ele><time>2026-04-09T15:34:47Z</time></trkpt><trkpt lat="44.38010909065067" lon="9.109813059201477"><ele>37.0</ele><time>2026-04-09T15:34:48Z</time></trkpt><trkpt lat="44.380138986908705" lon="9.10949057102926"><ele>37.0</ele><time>2026-04-09T15:34:49Z</time></trkpt><trkpt lat="44.380166130515356" lon="9.109162871652316"><ele>37.0</ele><time>2026-04-09T15:34:50Z</time></trkpt><trkpt lat="44.38019431735465" lon="9.108835553405745"><ele>40.0</ele><time>2026-04-09T15:34:51Z</time></trkpt><trkpt lat="44.380223282544115" lon="9.108506544703067"><ele>43.0</ele><time>2026-04-09T15:34:52Z</time></trkpt><trkpt lat="44.380252306344836" lon="9.108178761604792"><ele>57.0</ele><time>2026-04-09T15:34:53Z</time></trkpt><trkpt lat="44.38028136166356" lon="9.107851059051322"><ele>71.0</ele><time>2026-04-09T15:34:54Z</time></trkpt><trkpt lat="44.38031306845724" lon="9.10753189012886"><ele>81.33333333333334</ele><time>2026-04-09T15:34:55Z</time></trkpt><trkpt lat="44.38035488616032" lon="9.107226142543537"><ele>91.66666666666667</ele><time>2026-04-09T15:34:56Z</time></trkpt><trkpt lat="44.380408139583764" lon="9.106927186118257"><ele>102.0</ele><time>2026-04-09T15:34:57Z</time></trkpt><trkpt lat="44.38047529673974" lon="9.106629390051872"><ele>109.66666666666666</ele><time>2026-04-09T15:34:58Z</time></trkpt><trkpt lat="44.380554543061166" lon="9.106335188243339"><ele>117.33333333333333</ele><time>2026-04-09T15:34:59Z</time></trkpt><trkpt lat="44.380646620041865" lon="9.10604824740043"><ele>125.0</ele><time>2026-04-09T15:35:00Z</time></trkpt><trkpt lat="44.38075393843346" lon="9.105769603039302"><ele>133.5</ele><time>2026-04-09T15:35:01Z</time></trkpt><trkpt lat="44.380874752550966" lon="9.105497650593154"><ele>142.0</ele><time>2026-04-09T15:35:02Z</time></trkpt><trkpt lat="44.381009472321" lon="9.10523308419887"><ele>142.0</ele><time>2026-04-09T15:35:03Z</time></trkpt><trkpt lat="44.3811587133858" lon="9.104981181319744"><ele>142.0</ele><time>2026-04-09T15:35:04Z</time></trkpt><trkpt lat="44.38131997414755" lon="9.104739749579009"><ele>138.5</ele><time>2026-04-09T15:35:05Z</time></trkpt><trkpt lat="44.381491801865735" lon="9.104510388802703"><ele>135.0</ele><time>2026-04-09T15:35:06Z</time></trkpt><trkpt lat="44.38167790086096" lon="9.104299118214325"><ele>135.0</ele><time>2026-04-09T15:35:07Z</time></trkpt><trkpt lat="44.38187687562718" lon="9.10410528280332"><ele>135.0</ele><time>2026-04-09T15:35:08Z</time></trkpt><trkpt lat="44.38208431519404" lon="9.103920760692727"><ele>141.5</ele><time>2026-04-09T15:35:09Z</time></trkpt><trkpt lat="44.38229797489247" lon="9.103749290013901"><ele>148.0</ele><time>2026-04-09T15:35:10Z</time></trkpt><trkpt lat="44.382514627298136" lon="9.103577103329135"><ele>148.0</ele><time>2026-04-09T15:35:11Z</time></trkpt><trkpt lat="44.38272979985117" lon="9.103409024765698"><ele>148.0</ele><time>2026-04-09T15:35:12Z</time></trkpt><trkpt lat="44.382932684252054" lon="9.10324596075641"><ele>152.0</ele><time>2026-04-09T15:35:13Z</time></trkpt><trkpt lat="44.383129406446045" lon="9.103071151681522"><ele>156.0</ele><time>2026-04-09T15:35:14Z</time></trkpt><trkpt lat="44.38331818587488" lon="9.102891034318686"><ele>156.0</ele><time>2026-04-09T15:35:15Z</time></trkpt><trkpt lat="44.38350242141181" lon="9.102695067728249"><ele>156.0</ele><time>2026-04-09T15:35:16Z</time></trkpt><trkpt lat="44.383680588315954" lon="9.102482683789757"><ele>147.5</ele><time>2026-04-09T15:35:17Z</time></trkpt><trkpt lat="44.38385417846637" lon="9.102255870368555"><ele>139.0</ele><time>2026-04-09T15:35:18Z</time></trkpt><trkpt lat="44.3840251325497" lon="9.10201626028288"><ele>139.0</ele><time>2026-04-09T15:35:19Z</time></trkpt><trkpt lat="44.38419084021021" lon="9.101771678690326"><ele>139.0</ele><time>2026-04-09T15:35:20Z</time></trkpt><trkpt lat="44.3843531086496" lon="9.101520500833981"><ele>155.5</ele><time>2026-04-09T15:35:21Z</time></trkpt><trkpt lat="44.38451506242204" lon="9.101266691462913"><ele>172.0</ele><time>2026-04-09T15:35:22Z</time></trkpt><trkpt lat="44.384678928794486" lon="9.101010763178866"><ele>169.0</ele><time>2026-04-09T15:35:23Z</time></trkpt><trkpt lat="44.3848428172045" lon="9.100756607203285"><ele>166.0</ele><time>2026-04-09T15:35:24Z</time></trkpt><trkpt lat="44.3850059718912" lon="9.100502779692633"><ele>166.0</ele><time>2026-04-09T15:35:25Z</time></trkpt><trkpt lat="44.38516973901788" lon="9.100246486550553"><ele>166.0</ele><time>2026-04-09T15:35:26Z</time></trkpt><trkpt lat="44.38533262381837" lon="9.099988176000501"><ele>177.5</ele><time>2026-04-09T15:35:27Z</time></trkpt><trkpt lat="44.38548677828604" lon="9.0997397383231"><ele>189.0</ele><time>2026-04-09T15:35:28Z</time></trkpt><trkpt lat="44.385633397732235" lon="9.099501757036224"><ele>177.5</ele><time>2026-04-09T15:35:29Z</time></trkpt><trkpt lat="44.385778299747436" lon="9.099251885900827"><ele>166.0</ele><time>2026-04-09T15:35:30Z</time></trkpt><trkpt lat="44.385917682578715" lon="9.098986518198787"><ele>166.0</ele><time>2026-04-09T15:35:31Z</time></trkpt><trkpt lat="44.38605010255857" lon="9.098706953610701"><ele>166.0</ele><time>2026-04-09T15:35:32Z</time></trkpt><trkpt lat="44.38617706274122" lon="9.098411879836673"><ele>185.0</ele><time>2026-04-09T15:35:33Z</time></trkpt><trkpt lat="44.38629740881465" lon="9.098100726108353"><ele>204.0</ele><time>2026-04-09T15:35:34Z</time></trkpt><trkpt lat="44.38640862031872" lon="9.097781033254849"><ele>208.5</ele><time>2026-04-09T15:35:35Z</time></trkpt><trkpt lat="44.386505004174744" lon="9.097468383457224"><ele>213.0</ele><time>2026-04-09T15:35:36.018Z</time></trkpt><trkpt lat="44.386588465345355" lon="9.097161663691292"><ele>227.0</ele><time>2026-04-09T15:35:37.019Z</time></trkpt><trkpt lat="44.38666825170227" lon="9.096838236861329"><ele>241.0</ele><time>2026-04-09T15:35:38.015Z</time></trkpt><trkpt lat="44.38674880137069" lon="9.096500154304108"><ele>252.0</ele><time>2026-04-09T15:35:39.017Z</time></trkpt><trkpt lat="44.38683274430666" lon="9.096154452417755"><ele>263.0</ele><time>2026-04-09T15:35:40.016Z</time></trkpt><trkpt lat="44.386919744124015" lon="9.095803944139316"><ele>140.0</ele><time>2026-04-09T15:35:41.019Z</time></trkpt><trkpt lat="44.38952357046715" lon="9.08204731532287"><ele>140.0</ele><time>2026-04-09T15:36:25.999Z</time></trkpt><trkpt lat="44.3895183161309" lon="9.081748843679067"><ele>140.0</ele><time>2026-04-09T15:36:26.999Z</time></trkpt><trkpt lat="44.389476280415174" lon="9.081447766216257"><ele>140.0</ele><time>2026-04-09T15:36:27.999Z</time></trkpt><trkpt lat="44.3894681336146" lon="9.0811822805176"><ele>142.0</ele><time>2026-04-09T15:36:28.999Z</time></trkpt><trkpt lat="44.389458483529204" lon="9.080919222196709"><ele>144.0</ele><time>2026-04-09T15:36:29.999Z</time></trkpt><trkpt lat="44.389447251004476" lon="9.080658944025005"><ele>146.0</ele><time>2026-04-09T15:36:30.999Z</time></trkpt><trkpt lat="44.38943904123851" lon="9.080390992104444"><ele>146.0</ele><time>2026-04-09T15:36:31.999Z</time></trkpt><trkpt lat="44.38942864327173" lon="9.080119338703804"><ele>146.0</ele><time>2026-04-09T15:36:32.999Z</time></trkpt><trkpt lat="44.38941451046292" lon="9.079839967476392"><ele>146.0</ele><time>2026-04-09T15:36:33.999Z</time></trkpt><trkpt lat="44.38940001687416" lon="9.0795477104199"><ele>148.66666666666666</ele><time>2026-04-09T15:36:34.999Z</time></trkpt><trkpt lat="44.38938533811816" lon="9.079247863390384"><ele>151.33333333333334</ele><time>2026-04-09T15:36:35.999Z</time></trkpt><trkpt lat="44.38936839340399" lon="9.078941463093626"><ele>154.0</ele><time>2026-04-09T15:36:37Z</time></trkpt><trkpt lat="44.38935277850939" lon="9.078628585716363"><ele>157.5</ele><time>2026-04-09T15:36:38Z</time></trkpt><trkpt lat="44.38933478739286" lon="9.078309657915769"><ele>161.0</ele><time>2026-04-09T15:36:39Z</time></trkpt><trkpt lat="44.38931658745708" lon="9.077987532430756"><ele>172.5</ele><time>2026-04-09T15:36:40Z</time></trkpt><trkpt lat="44.389303338882456" lon="9.07766025629514"><ele>184.0</ele><time>2026-04-09T15:36:41Z</time></trkpt><trkpt lat="44.389287659632295" lon="9.077322829877076"><ele>201.0</ele><time>2026-04-09T15:36:42Z</time></trkpt><trkpt lat="44.38927200021474" lon="9.076964888187964"><ele>218.0</ele><time>2026-04-09T15:36:43.016Z</time></trkpt><trkpt lat="44.38925446231642" lon="9.076593961015401"><ele>236.0</ele><time>2026-04-09T15:36:44.02Z</time></trkpt><trkpt lat="44.389239382428926" lon="9.076219396215947"><ele>254.0</ele><time>2026-04-09T15:36:45.02Z</time></trkpt><trkpt lat="44.38922255967552" lon="9.075869881513263"><ele>274.0</ele><time>2026-04-09T15:36:46.02Z</time></trkpt><trkpt lat="44.38920503885092" lon="9.075521359739222"><ele>294.0</ele><time>2026-04-09T15:36:47.02Z</time></trkpt><trkpt lat="44.38900931200147" lon="9.071324944058452"><ele>164.0</ele><time>2026-04-09T15:36:51.066Z</time></trkpt><trkpt lat="44.38896793410591" lon="9.070302089684708"><ele>164.0</ele><time>2026-04-09T15:37:03Z</time></trkpt><trkpt lat="44.38894781277523" lon="9.069951063421325"><ele>164.0</ele><time>2026-04-09T15:37:04Z</time></trkpt><trkpt lat="44.38891766384188" lon="9.069603151492371"><ele>168.66666666666666</ele><time>2026-04-09T15:37:05Z</time></trkpt><trkpt lat="44.38890403620401" lon="9.069288922319549"><ele>173.33333333333334</ele><time>2026-04-09T15:37:06Z</time></trkpt><trkpt lat="44.38889003289173" lon="9.068996968479833"><ele>178.0</ele><time>2026-04-09T15:37:07Z</time></trkpt><trkpt lat="44.38888267104043" lon="9.06871545515091"><ele>184.0</ele><time>2026-04-09T15:37:08Z</time></trkpt><trkpt lat="44.38887631878702" lon="9.06843134134161"><ele>190.0</ele><time>2026-04-09T15:37:09Z</time></trkpt><trkpt lat="44.388875192202526" lon="9.06813422525428"><ele>196.0</ele><time>2026-04-09T15:37:10Z</time></trkpt><trkpt lat="44.388879265261934" lon="9.067832204152916"><ele>196.33333333333331</ele><time>2026-04-09T15:37:11Z</time></trkpt><trkpt lat="44.388889886799554" lon="9.06752786052937"><ele>196.66666666666669</ele><time>2026-04-09T15:37:12Z</time></trkpt><trkpt lat="44.38891805780085" lon="9.067218306768046"><ele>197.0</ele><time>2026-04-09T15:37:13Z</time></trkpt><trkpt lat="44.38895404205596" lon="9.066935599814334"><ele>206.0</ele><time>2026-04-09T15:37:14Z</time></trkpt><trkpt lat="44.388991526565555" lon="9.066653587417742"><ele>215.0</ele><time>2026-04-09T15:37:15Z</time></trkpt><trkpt lat="44.389039987696094" lon="9.06635466183408"><ele>224.0</ele><time>2026-04-09T15:37:16Z</time></trkpt><trkpt lat="44.38908274752979" lon="9.066055082640913"><ele>242.66666666666669</ele><time>2026-04-09T15:37:17.02Z</time></trkpt><trkpt lat="44.38912510512639" lon="9.065764972024038"><ele>261.3333333333333</ele><time>2026-04-09T15:37:18.019Z</time></trkpt><trkpt lat="44.38916875659418" lon="9.065478920858173"><ele>280.0</ele><time>2026-04-09T15:37:19.02Z</time></trkpt><trkpt lat="44.38923081539038" lon="9.065215200530659"><ele>289.0</ele><time>2026-04-09T15:37:20.02Z</time></trkpt><trkpt lat="44.38928920035488" lon="9.064944461029441"><ele>298.0</ele><time>2026-04-09T15:37:21.02Z</time></trkpt><trkpt lat="44.389937415946044" lon="9.06227235874976"><ele>154.0</ele><time>2026-04-09T15:37:24.066Z</time></trkpt><trkpt lat="44.39279332880468" lon="9.0459824962467"><ele>151.5</ele><time>2026-04-09T15:38:19.452Z</time></trkpt><trkpt lat="44.39279143937596" lon="9.04551526866921"><ele>149.0</ele><time>2026-04-09T15:38:20.999Z</time></trkpt><trkpt lat="44.39274970216534" lon="9.045105247249683"><ele>134.5</ele><time>2026-04-09T15:38:21.999Z</time></trkpt><trkpt lat="44.392731831455976" lon="9.044690555618743"><ele>120.0</ele><time>2026-04-09T15:38:22.999Z</time></trkpt><trkpt lat="44.39271204635063" lon="9.044268996120934"><ele>103.5</ele><time>2026-04-09T15:38:23.999Z</time></trkpt><trkpt lat="44.39269104799343" lon="9.043827137644364"><ele>87.0</ele><time>2026-04-09T15:38:24.999Z</time></trkpt><trkpt lat="44.3926729840951" lon="9.043382021296472"><ele>76.5</ele><time>2026-04-09T15:38:25.999Z</time></trkpt><trkpt lat="44.392654880015016" lon="9.04293008090173"><ele>66.0</ele><time>2026-04-09T15:38:26.999Z</time></trkpt><trkpt lat="44.39263035355417" lon="9.042468589059235"><ele>62.5</ele><time>2026-04-09T15:38:27.999Z</time></trkpt><trkpt lat="44.39260645988271" lon="9.042007076582234"><ele>59.0</ele><time>2026-04-09T15:38:28.999Z</time></trkpt><trkpt lat="44.392584660354146" lon="9.041639509248531"><ele>65.0</ele><time>2026-04-09T15:38:29.999Z</time></trkpt><trkpt lat="44.39256769469244" lon="9.041301106881546"><ele>71.0</ele><time>2026-04-09T15:38:30.999Z</time></trkpt><trkpt lat="44.39254909772999" lon="9.040957051118736"><ele>95.5</ele><time>2026-04-09T15:38:31.999Z</time></trkpt><trkpt lat="44.39253283938971" lon="9.04062495240902"><ele>120.0</ele><time>2026-04-09T15:38:32.999Z</time></trkpt><trkpt lat="44.39251562290447" lon="9.04030320266993"><ele>120.0</ele><time>2026-04-09T15:38:33.999Z</time></trkpt><trkpt lat="44.392499780641025" lon="9.039985425286261"><ele>120.0</ele><time>2026-04-09T15:38:34.999Z</time></trkpt><trkpt lat="44.39248404961593" lon="9.039671106908234"><ele>131.0</ele><time>2026-04-09T15:38:35.999Z</time></trkpt><trkpt lat="44.392467360938184" lon="9.039358693863793"><ele>142.0</ele><time>2026-04-09T15:38:36.999Z</time></trkpt><trkpt lat="44.39245214343698" lon="9.039028783282259"><ele>149.5</ele><time>2026-04-09T15:38:37.999Z</time></trkpt><trkpt lat="44.39244229034565" lon="9.038699485408884"><ele>157.0</ele><time>2026-04-09T15:38:38.999Z</time></trkpt><trkpt lat="44.392443389941924" lon="9.038390963729837"><ele>168.0</ele><time>2026-04-09T15:38:39.999Z</time></trkpt><trkpt lat="44.392454316329214" lon="9.038111339202521"><ele>179.0</ele><time>2026-04-09T15:38:40.999Z</time></trkpt><trkpt lat="44.39249753572313" lon="9.03786158376868"><ele>190.0</ele><time>2026-04-09T15:38:41.999Z</time></trkpt><trkpt lat="44.39253798760775" lon="9.037669543864846"><ele>190.0</ele><time>2026-04-09T15:38:43Z</time></trkpt><trkpt lat="44.392540346554" lon="9.03748592613217"><ele>190.0</ele><time>2026-04-09T15:38:44.02Z</time></trkpt><trkpt lat="44.39254153517387" lon="9.03729678282576"><ele>190.0</ele><time>2026-04-09T15:38:45.021Z</time></trkpt><trkpt lat="44.392542553036925" lon="9.037115708645231"><ele>190.0</ele><time>2026-04-09T15:38:46.02Z</time></trkpt><trkpt lat="44.392541193627515" lon="9.036973200643711"><ele>192.5</ele><time>2026-04-09T15:38:47.02Z</time></trkpt><trkpt lat="44.39254954043797" lon="9.036830830850711"><ele>195.0</ele><time>2026-04-09T15:38:48.019Z</time></trkpt><trkpt lat="44.39241197430006" lon="9.034741027289103"><ele>182.5</ele><time>2026-04-09T15:38:51Z</time></trkpt><trkpt lat="44.39240490981225" lon="9.034420006708674"><ele>170.0</ele><time>2026-04-09T15:38:52Z</time></trkpt><trkpt lat="44.39240417867031" lon="9.03408919463799"><ele>170.0</ele><time>2026-04-09T15:38:53Z</time></trkpt><trkpt lat="44.3924135719678" lon="9.03375885365203"><ele>170.0</ele><time>2026-04-09T15:38:54Z</time></trkpt><trkpt lat="44.39242981115764" lon="9.03341932089785"><ele>185.0</ele><time>2026-04-09T15:38:55Z</time></trkpt><trkpt lat="44.392456132171766" lon="9.03307200080025"><ele>200.0</ele><time>2026-04-09T15:38:56Z</time></trkpt><trkpt lat="44.39248443659556" lon="9.032732725838088"><ele>213.5</ele><time>2026-04-09T15:38:57Z</time></trkpt><trkpt lat="44.39250473466267" lon="9.032391924085857"><ele>227.0</ele><time>2026-04-09T15:38:58Z</time></trkpt><trkpt lat="44.392527409162014" lon="9.032045049708287"><ele>387.0</ele><time>2026-04-09T15:38:59.02Z</time></trkpt><trkpt lat="44.39327964459685" lon="9.027980324130908"><ele>352.0</ele><time>2026-04-09T15:39:03.064Z</time></trkpt><trkpt lat="44.393522822409416" lon="9.026642004892544"><ele>329.0</ele><time>2026-04-09T15:39:04.064Z</time></trkpt><trkpt lat="44.39376443246702" lon="9.02530295415279"><ele>228.0</ele><time>2026-04-09T15:39:05.065Z</time></trkpt><trkpt lat="44.394005889028755" lon="9.023964240137515"><ele>192.0</ele><time>2026-04-09T15:39:06.064Z</time></trkpt><trkpt lat="44.39424759677284" lon="9.02262587535515"><ele>144.0</ele><time>2026-04-09T15:39:07.064Z</time></trkpt><trkpt lat="44.39449835572801" lon="9.021305842333494"><ele>144.0</ele><time>2026-04-09T15:39:30Z</time></trkpt><trkpt lat="44.39455872669769" lon="9.020969695678989"><ele>144.0</ele><time>2026-04-09T15:39:31Z</time></trkpt><trkpt lat="44.39463447546641" lon="9.02064805855433"><ele>153.5</ele><time>2026-04-09T15:39:32Z</time></trkpt><trkpt lat="44.39469172112105" lon="9.020314181183004"><ele>163.0</ele><time>2026-04-09T15:39:33Z</time></trkpt><trkpt lat="44.394751482123404" lon="9.019974087552216"><ele>172.5</ele><time>2026-04-09T15:39:34Z</time></trkpt><trkpt lat="44.39481462988" lon="9.019633008603375"><ele>182.0</ele><time>2026-04-09T15:39:35Z</time></trkpt><trkpt lat="44.394869204094256" lon="9.01931113195192"><ele>195.5</ele><time>2026-04-09T15:39:36Z</time></trkpt><trkpt lat="44.39495904639532" lon="9.018974545015583"><ele>209.0</ele><time>2026-04-09T15:39:37Z</time></trkpt><trkpt lat="44.395031355923436" lon="9.018631715944915"><ele>218.0</ele><time>2026-04-09T15:39:38Z</time></trkpt><trkpt lat="44.395105482792516" lon="9.018281404731862"><ele>227.0</ele><time>2026-04-09T15:39:39.019Z</time></trkpt><trkpt lat="44.39514851105311" lon="9.017931656671228"><ele>227.0</ele><time>2026-04-09T15:39:40.019Z</time></trkpt><trkpt lat="44.395191150133826" lon="9.017583952815688"><ele>227.0</ele><time>2026-04-09T15:39:41.021Z</time></trkpt><trkpt lat="44.3952253485018" lon="9.01724847290828"><ele>124.0</ele><time>2026-04-09T15:39:42.019Z</time></trkpt><trkpt lat="44.395269784186404" lon="9.014957807966521"><ele>124.0</ele><time>2026-04-09T15:39:49Z</time></trkpt><trkpt lat="44.39528866398209" lon="9.0146283878371"><ele>124.0</ele><time>2026-04-09T15:39:50Z</time></trkpt><trkpt lat="44.395324362808545" lon="9.014338242962245"><ele>124.0</ele><time>2026-04-09T15:39:51Z</time></trkpt><trkpt lat="44.395337589744905" lon="9.014046989440004"><ele>107.5</ele><time>2026-04-09T15:39:51.999Z</time></trkpt><trkpt lat="44.39535911756694" lon="9.013731251032503"><ele>91.0</ele><time>2026-04-09T15:39:52.999Z</time></trkpt><trkpt lat="44.39537571272612" lon="9.013403699968956"><ele>91.33333333333333</ele><time>2026-04-09T15:39:53.999Z</time></trkpt><trkpt lat="44.39539114135662" lon="9.013115284380559"><ele>91.66666666666667</ele><time>2026-04-09T15:39:54.999Z</time></trkpt><trkpt lat="44.395405755935336" lon="9.012821090717095"><ele>92.0</ele><time>2026-04-09T15:39:55.999Z</time></trkpt><trkpt lat="44.39542299874803" lon="9.012517662472522"><ele>97.33333333333334</ele><time>2026-04-09T15:39:56.999Z</time></trkpt><trkpt lat="44.395440061878276" lon="9.012208866313594"><ele>102.66666666666667</ele><time>2026-04-09T15:39:57.999Z</time></trkpt><trkpt lat="44.39545523166227" lon="9.011902209813963"><ele>108.0</ele><time>2026-04-09T15:39:58.999Z</time></trkpt><trkpt lat="44.395470554047755" lon="9.011619209778624"><ele>111.33333333333334</ele><time>2026-04-09T15:39:59.999Z</time></trkpt><trkpt lat="44.39548663296469" lon="9.011354544847519"><ele>114.66666666666667</ele><time>2026-04-09T15:40:00.999Z</time></trkpt><trkpt lat="44.39550621045368" lon="9.011100860091311"><ele>118.0</ele><time>2026-04-09T15:40:01.999Z</time></trkpt><trkpt lat="44.39554142554091" lon="9.010844180169947"><ele>127.33333333333334</ele><time>2026-04-09T15:40:02.999Z</time></trkpt><trkpt lat="44.39559109417769" lon="9.010585786533841"><ele>136.66666666666666</ele><time>2026-04-09T15:40:03.999Z</time></trkpt><trkpt lat="44.39564738193942" lon="9.010330138710344"><ele>146.0</ele><time>2026-04-09T15:40:04.999Z</time></trkpt><trkpt lat="44.39570552304249" lon="9.010096398382453"><ele>142.66666666666666</ele><time>2026-04-09T15:40:05.999Z</time></trkpt><trkpt lat="44.39577757390978" lon="9.009887428321127"><ele>139.33333333333334</ele><time>2026-04-09T15:40:06.999Z</time></trkpt><trkpt lat="44.395867267458605" lon="9.009700328519358"><ele>136.0</ele><time>2026-04-09T15:40:07.999Z</time></trkpt><trkpt lat="44.39597831533492" lon="9.00951025120655"><ele>136.0</ele><time>2026-04-09T15:40:08.999Z</time></trkpt><trkpt lat="44.396098151504994" lon="9.009307744162534"><ele>136.0</ele><time>2026-04-09T15:40:09.999Z</time></trkpt><trkpt lat="44.39621668566028" lon="9.009098987055335"><ele>136.0</ele><time>2026-04-09T15:40:10.999Z</time></trkpt><trkpt lat="44.396320782807685" lon="9.008893510952928"><ele>136.5</ele><time>2026-04-09T15:40:11.999Z</time></trkpt><trkpt lat="44.39641282399244" lon="9.00871276424581"><ele>137.0</ele><time>2026-04-09T15:40:12.999Z</time></trkpt><trkpt lat="44.39649794169917" lon="9.008557719221727"><ele>137.5</ele><time>2026-04-09T15:40:13.999Z</time></trkpt><trkpt lat="44.39656615876919" lon="9.008429510827279"><ele>138.0</ele><time>2026-04-09T15:40:14.999Z</time></trkpt><trkpt lat="44.39661002113188" lon="9.00831668213607"><ele>136.16666666666666</ele><time>2026-04-09T15:40:15.999Z</time></trkpt><trkpt lat="44.39662349892846" lon="9.008207914807105"><ele>134.33333333333334</ele><time>2026-04-09T15:40:16.999Z</time></trkpt><trkpt lat="44.39660837181333" lon="9.008091390644676"><ele>132.5</ele><time>2026-04-09T15:40:17.999Z</time></trkpt><trkpt lat="44.39656537230674" lon="9.007974464095462"><ele>130.66666666666669</ele><time>2026-04-09T15:40:18.999Z</time></trkpt><trkpt lat="44.39649716353877" lon="9.007884705511973"><ele>128.83333333333334</ele><time>2026-04-09T15:40:19.999Z</time></trkpt><trkpt lat="44.39641072648068" lon="9.007829929807647"><ele>127.0</ele><time>2026-04-09T15:40:20.999Z</time></trkpt><trkpt lat="44.39631607134084" lon="9.007812559301652"><ele>125.6</ele><time>2026-04-09T15:40:21.999Z</time></trkpt><trkpt lat="44.39623056369723" lon="9.007834952902924"><ele>124.19999999999999</ele><time>2026-04-09T15:40:22.999Z</time></trkpt><trkpt lat="44.39615497215565" lon="9.007897004717625"><ele>122.8</ele><time>2026-04-09T15:40:23.999Z</time></trkpt><trkpt lat="44.396093226982856" lon="9.00799527331243"><ele>121.4</ele><time>2026-04-09T15:40:24.999Z</time></trkpt><trkpt lat="44.39604767381531" lon="9.008119984916608"><ele>120.0</ele><time>2026-04-09T15:40:25.999Z</time></trkpt><trkpt lat="44.39601430138491" lon="9.008281785727776"><ele>121.66666666666667</ele><time>2026-04-09T15:40:26.999Z</time></trkpt><trkpt lat="44.395986488844166" lon="9.008426948961324"><ele>123.33333333333334</ele><time>2026-04-09T15:40:27.999Z</time></trkpt><trkpt lat="44.39595205793676" lon="9.008552564132438"><ele>125.0</ele><time>2026-04-09T15:40:28.999Z</time></trkpt><trkpt lat="44.395918177431895" lon="9.008665690647598"><ele>126.66666666666667</ele><time>2026-04-09T15:40:29.999Z</time></trkpt><trkpt lat="44.39588740726427" lon="9.008770776416894"><ele>128.33333333333334</ele><time>2026-04-09T15:40:30.999Z</time></trkpt><trkpt lat="44.395855303331004" lon="9.008867959645485"><ele>130.0</ele><time>2026-04-09T15:40:31.999Z</time></trkpt><trkpt lat="44.39582808878338" lon="9.008954060706797"><ele>130.0</ele><time>2026-04-09T15:40:32.999Z</time></trkpt><trkpt lat="44.395788943560994" lon="9.00908834509648"><ele>130.0</ele><time>2026-04-09T15:40:34.999Z</time></trkpt><trkpt lat="44.395711586572915" lon="9.009253296614432"><ele>130.0</ele><time>2026-04-09T15:40:36.999Z</time></trkpt><trkpt lat="44.39563961162724" lon="9.009351473995437"><ele>130.0</ele><time>2026-04-09T15:40:37.999Z</time></trkpt><trkpt lat="44.39556801677487" lon="9.009420729452184"><ele>130.0</ele><time>2026-04-09T15:40:38.999Z</time></trkpt><trkpt lat="44.39548461105742" lon="9.00945614954285"><ele>126.2</ele><time>2026-04-09T15:40:39.999Z</time></trkpt><trkpt lat="44.395385992068874" lon="9.009443114448565"><ele>122.4</ele><time>2026-04-09T15:40:40.999Z</time></trkpt><trkpt lat="44.39529443733264" lon="9.009408607686167"><ele>118.6</ele><time>2026-04-09T15:40:41.999Z</time></trkpt><trkpt lat="44.39521654402565" lon="9.009407680050685"><ele>114.8</ele><time>2026-04-09T15:40:42.999Z</time></trkpt><trkpt lat="44.39513879746722" lon="9.009460963155993"><ele>111.0</ele><time>2026-04-09T15:40:43.999Z</time></trkpt><trkpt lat="44.39506409267316" lon="9.009568046536046"><ele>111.0</ele><time>2026-04-09T15:40:44.999Z</time></trkpt><trkpt lat="44.39502412286236" lon="9.00969146827809"><ele>111.0</ele><time>2026-04-09T15:40:45.999Z</time></trkpt><trkpt lat="44.39501637424989" lon="9.00982610526417"><ele>111.0</ele><time>2026-04-09T15:40:46.999Z</time></trkpt><trkpt lat="44.395025489919874" lon="9.009975178912997"><ele>111.0</ele><time>2026-04-09T15:40:47.999Z</time></trkpt><trkpt lat="44.39504113493165" lon="9.010151600381837"><ele>111.0</ele><time>2026-04-09T15:40:49Z</time></trkpt><trkpt lat="44.39504861448551" lon="9.010346312138067"><ele>112.75</ele><time>2026-04-09T15:40:50Z</time></trkpt><trkpt lat="44.395053464993985" lon="9.010520914691206"><ele>114.5</ele><time>2026-04-09T15:40:51Z</time></trkpt><trkpt lat="44.39506859053298" lon="9.010710265609447"><ele>116.25</ele><time>2026-04-09T15:40:52Z</time></trkpt><trkpt lat="44.395100957413135" lon="9.010912941736223"><ele>118.0</ele><time>2026-04-09T15:40:53Z</time></trkpt><trkpt lat="44.39513804234352" lon="9.011095251006985"><ele>118.0</ele><time>2026-04-09T15:40:54Z</time></trkpt><trkpt lat="44.395183017625705" lon="9.011269214222294"><ele>118.0</ele><time>2026-04-09T15:40:55Z</time></trkpt><trkpt lat="44.395240424596246" lon="9.011434917144934"><ele>118.0</ele><time>2026-04-09T15:40:56Z</time></trkpt><trkpt lat="44.395320554218856" lon="9.011594626377157"><ele>118.0</ele><time>2026-04-09T15:40:57Z</time></trkpt><trkpt lat="44.39540934561045" lon="9.011747727406691"><ele>126.33333333333334</ele><time>2026-04-09T15:40:58Z</time></trkpt><trkpt lat="44.39552727293712" lon="9.011901275090255"><ele>134.66666666666666</ele><time>2026-04-09T15:40:59Z</time></trkpt><trkpt lat="44.39566560368577" lon="9.012110060526103"><ele>143.0</ele><time>2026-04-09T15:41:00Z</time></trkpt><trkpt lat="44.39581884830083" lon="9.012299260190467"><ele>143.0</ele><time>2026-04-09T15:41:01Z</time></trkpt><trkpt lat="44.39593876171395" lon="9.012468554421142"><ele>143.0</ele><time>2026-04-09T15:41:02Z</time></trkpt><trkpt lat="44.396048248738744" lon="9.012621862905208"><ele>143.0</ele><time>2026-04-09T15:41:03Z</time></trkpt><trkpt lat="44.39615272207625" lon="9.0127678076948"><ele>146.75</ele><time>2026-04-09T15:41:04Z</time></trkpt><trkpt lat="44.39625228146096" lon="9.012905548173457"><ele>150.5</ele><time>2026-04-09T15:41:05Z</time></trkpt><trkpt lat="44.39635297501188" lon="9.013033638823993"><ele>154.25</ele><time>2026-04-09T15:41:06Z</time></trkpt><trkpt lat="44.39645092789988" lon="9.013149344922185"><ele>158.0</ele><time>2026-04-09T15:41:07Z</time></trkpt><trkpt lat="44.396546013889576" lon="9.013253101402615"><ele>149.25</ele><time>2026-04-09T15:41:08Z</time></trkpt><trkpt lat="44.396635990644185" lon="9.01335638665941"><ele>140.5</ele><time>2026-04-09T15:41:09Z</time></trkpt><trkpt lat="44.39673811920187" lon="9.013466288459261"><ele>131.75</ele><time>2026-04-09T15:41:10Z</time></trkpt><trkpt lat="44.396831354633164" lon="9.013569581629774"><ele>123.0</ele><time>2026-04-09T15:41:11Z</time></trkpt><trkpt lat="44.39691148575116" lon="9.01367226941069"><ele>123.0</ele><time>2026-04-09T15:41:12Z</time></trkpt><trkpt lat="44.396975448526916" lon="9.013783191228507"><ele>123.0</ele><time>2026-04-09T15:41:13Z</time></trkpt><trkpt lat="44.397023042408044" lon="9.013886807317538"><ele>123.0</ele><time>2026-04-09T15:41:14Z</time></trkpt><trkpt lat="44.39705765655523" lon="9.013976726416356"><ele>123.0</ele><time>2026-04-09T15:41:15Z</time></trkpt><trkpt lat="44.39708822013878" lon="9.014060652641533"><ele>123.0</ele><time>2026-04-09T15:41:16Z</time></trkpt><trkpt lat="44.39717598163788" lon="9.014152452062152"><ele>123.0</ele><time>2026-04-09T15:41:18Z</time></trkpt><trkpt lat="44.39722174869845" lon="9.014226994232033"><ele>123.16666666666667</ele><time>2026-04-09T15:41:20Z</time></trkpt><trkpt lat="44.397292120738484" lon="9.014277916425733"><ele>123.33333333333334</ele><time>2026-04-09T15:41:25Z</time></trkpt><trkpt lat="44.397351817732094" lon="9.014333316688674"><ele>123.5</ele><time>2026-04-09T15:42:22.999Z</time></trkpt><trkpt lat="44.39740685518787" lon="9.014381888203156"><ele>123.66666666666667</ele><time>2026-04-09T15:42:48.999Z</time></trkpt><trkpt lat="44.3974960421937" lon="9.014454813686672"><ele>123.83333333333334</ele><time>2026-04-09T15:43:49Z</time></trkpt><trkpt lat="44.39754944217859" lon="9.014519725676587"><ele>124.0</ele><time>2026-04-09T15:43:51Z</time></trkpt><trkpt lat="44.397613044588404" lon="9.014557330694814"><ele>124.00000000000001</ele><time>2026-04-09T15:43:52Z</time></trkpt><trkpt lat="44.397681422090756" lon="9.014596473921658"><ele>124.0</ele><time>2026-04-09T15:43:53Z</time></trkpt><trkpt lat="44.397750435872446" lon="9.014642290050087"><ele>124.0</ele><time>2026-04-09T15:43:54Z</time></trkpt><trkpt lat="44.39782401106389" lon="9.014698290577426"><ele>124.0</ele><time>2026-04-09T15:43:55Z</time></trkpt><trkpt lat="44.397912572542424" lon="9.014764326371253"><ele>124.00000000000001</ele><time>2026-04-09T15:43:56Z</time></trkpt><trkpt lat="44.39798298783851" lon="9.014820949953828"><ele>124.0</ele><time>2026-04-09T15:43:57Z</time></trkpt><trkpt lat="44.39803938796129" lon="9.014892604301464"><ele>123.83333333333334</ele><time>2026-04-09T15:43:58Z</time></trkpt><trkpt lat="44.398073329614945" lon="9.014985892001196"><ele>123.66666666666667</ele><time>2026-04-09T15:43:59Z</time></trkpt><trkpt lat="44.39808003852149" lon="9.015093014156799"><ele>123.5</ele><time>2026-04-09T15:44:00Z</time></trkpt><trkpt lat="44.3980565619767" lon="9.015177311877157"><ele>123.33333333333334</ele><time>2026-04-09T15:44:01Z</time></trkpt><trkpt lat="44.3979587884324" lon="9.015282895636327"><ele>123.16666666666667</ele><time>2026-04-09T15:44:02.999Z</time></trkpt><trkpt lat="44.397886219592685" lon="9.01531004529313"><ele>123.0</ele><time>2026-04-09T15:44:03.999Z</time></trkpt><trkpt lat="44.3977983706162" lon="9.015304812429173"><ele>123.0</ele><time>2026-04-09T15:44:04.999Z</time></trkpt><trkpt lat="44.39770810933796" lon="9.015261051257513"><ele>123.00000000000001</ele><time>2026-04-09T15:44:05.999Z</time></trkpt><trkpt lat="44.39764041880871" lon="9.015195124200659"><ele>123.00000000000001</ele><time>2026-04-09T15:44:06.999Z</time></trkpt><trkpt lat="44.39758686840972" lon="9.015106177285533"><ele>123.0</ele><time>2026-04-09T15:44:07.999Z</time></trkpt><trkpt lat="44.397527417043115" lon="9.014997776853807"><ele>123.0</ele><time>2026-04-09T15:44:08.999Z</time></trkpt><trkpt lat="44.39746097312562" lon="9.01488276881373"><ele>123.25</ele><time>2026-04-09T15:44:09.999Z</time></trkpt><trkpt lat="44.39739380999604" lon="9.014774385355256"><ele>123.5</ele><time>2026-04-09T15:44:10.999Z</time></trkpt><trkpt lat="44.39732174518752" lon="9.014655860455123"><ele>123.75</ele><time>2026-04-09T15:44:11.999Z</time></trkpt><trkpt lat="44.397242254499815" lon="9.014523819470071"><ele>124.0</ele><time>2026-04-09T15:44:12.999Z</time></trkpt><trkpt lat="44.39715655783713" lon="9.014379975052647"><ele>123.75</ele><time>2026-04-09T15:44:13.999Z</time></trkpt><trkpt lat="44.397063657572964" lon="9.014224982102553"><ele>123.5</ele><time>2026-04-09T15:44:14.999Z</time></trkpt><trkpt lat="44.39697932867495" lon="9.014085377238272"><ele>123.25</ele><time>2026-04-09T15:44:15.999Z</time></trkpt><trkpt lat="44.39689910951764" lon="9.013949532075726"><ele>123.0</ele><time>2026-04-09T15:44:16.999Z</time></trkpt><trkpt lat="44.39681910698439" lon="9.01381644467893"><ele>123.0</ele><time>2026-04-09T15:44:17.999Z</time></trkpt><trkpt lat="44.39672140097263" lon="9.013680911928805"><ele>123.0</ele><time>2026-04-09T15:44:18.999Z</time></trkpt><trkpt lat="44.39660759728716" lon="9.013549656642951"><ele>123.0</ele><time>2026-04-09T15:44:19.999Z</time></trkpt><trkpt lat="44.3964839559683" lon="9.01342339794333"><ele>123.0</ele><time>2026-04-09T15:44:20.999Z</time></trkpt><trkpt lat="44.3963656088715" lon="9.01331065291144"><ele>123.0</ele><time>2026-04-09T15:44:21.999Z</time></trkpt><trkpt lat="44.39625143037547" lon="9.013205728035452"><ele>123.0</ele><time>2026-04-09T15:44:22.999Z</time></trkpt><trkpt lat="44.39613919600895" lon="9.013101250013339"><ele>123.0</ele><time>2026-04-09T15:44:23.999Z</time></trkpt><trkpt lat="44.39601653971098" lon="9.012987921685255"><ele>123.0</ele><time>2026-04-09T15:44:24.999Z</time></trkpt><trkpt lat="44.395897142506925" lon="9.012877297481975"><ele>123.0</ele><time>2026-04-09T15:44:25.999Z</time></trkpt><trkpt lat="44.395786644816326" lon="9.012771598352984"><ele>123.0</ele><time>2026-04-09T15:44:26.999Z</time></trkpt><trkpt lat="44.39567881817568" lon="9.012670055479077"><ele>123.0</ele><time>2026-04-09T15:44:27.999Z</time></trkpt><trkpt lat="44.395564784787744" lon="9.012562632392093"><ele>123.0</ele><time>2026-04-09T15:44:28.999Z</time></trkpt><trkpt lat="44.39544040066445" lon="9.012448215831345"><ele>119.25</ele><time>2026-04-09T15:44:29.999Z</time></trkpt><trkpt lat="44.39531447590152" lon="9.012335205091665"><ele>115.5</ele><time>2026-04-09T15:44:30.999Z</time></trkpt><trkpt lat="44.39519661508826" lon="9.012226895935347"><ele>111.75</ele><time>2026-04-09T15:44:31.999Z</time></trkpt><trkpt lat="44.39511759946857" lon="9.012146904330901"><ele>108.0</ele><time>2026-04-09T15:44:32.999Z</time></trkpt><trkpt lat="44.39505507383199" lon="9.012083541390522"><ele>108.0</ele><time>2026-04-09T15:44:33.999Z</time></trkpt><trkpt lat="44.39500337427142" lon="9.012029112756817"><ele>108.0</ele><time>2026-04-09T15:44:34.999Z</time></trkpt><trkpt lat="44.394913287005856" lon="9.01193275277942"><ele>108.0</ele><time>2026-04-09T15:44:36.999Z</time></trkpt><trkpt lat="44.39485147536567" lon="9.011863318858007"><ele>108.0</ele><time>2026-04-09T15:44:38.999Z</time></trkpt><trkpt lat="44.39479748393813" lon="9.011788762419496"><ele>108.0</ele><time>2026-04-09T15:44:41.999Z</time></trkpt><trkpt lat="44.394746597771665" lon="9.011727676778094"><ele>108.0</ele><time>2026-04-09T15:44:53.999Z</time></trkpt><trkpt lat="44.39468767447012" lon="9.011651302741134"><ele>103.80000000000001</ele><time>2026-04-09T15:44:55.999Z</time></trkpt><trkpt lat="44.3946104475865" lon="9.011555282228388"><ele>99.60000000000001</ele><time>2026-04-09T15:44:57.999Z</time></trkpt><trkpt lat="44.394549738665624" lon="9.011450970200208"><ele>95.4</ele><time>2026-04-09T15:44:59.999Z</time></trkpt><trkpt lat="44.39448994343628" lon="9.01134806417046"><ele>91.19999999999999</ele><time>2026-04-09T15:45:02Z</time></trkpt><trkpt lat="44.39442343912346" lon="9.01123359074508"><ele>87.0</ele><time>2026-04-09T15:45:04Z</time></trkpt><trkpt lat="44.39436217115124" lon="9.011119812696768"><ele>87.0</ele><time>2026-04-09T15:45:06Z</time></trkpt><trkpt lat="44.3943165895103" lon="9.011015003919344"><ele>87.0</ele><time>2026-04-09T15:45:08Z</time></trkpt><trkpt lat="44.39427131637911" lon="9.010912581647421"><ele>87.0</ele><time>2026-04-09T15:45:10Z</time></trkpt><trkpt lat="44.39421974631885" lon="9.01079158863195"><ele>87.0</ele><time>2026-04-09T15:45:12Z</time></trkpt><trkpt lat="44.39416223349394" lon="9.010666994004058"><ele>87.0</ele><time>2026-04-09T15:45:14Z</time></trkpt><trkpt lat="44.39410145547069" lon="9.010542632826361"><ele>88.8</ele><time>2026-04-09T15:45:16Z</time></trkpt><trkpt lat="44.39403686777087" lon="9.010407022090451"><ele>90.6</ele><time>2026-04-09T15:45:18Z</time></trkpt><trkpt lat="44.393998774980375" lon="9.010325216926697"><ele>92.39999999999999</ele><time>2026-04-09T15:45:19Z</time></trkpt><trkpt lat="44.39395499106481" lon="9.010231414057696"><ele>94.19999999999999</ele><time>2026-04-09T15:45:20Z</time></trkpt><trkpt lat="44.39390023873392" lon="9.010119663304827"><ele>96.0</ele><time>2026-04-09T15:45:21Z</time></trkpt><trkpt lat="44.39383229616441" lon="9.009978749582642"><ele>91.39999999999999</ele><time>2026-04-09T15:45:22Z</time></trkpt><trkpt lat="44.3937722033415" lon="9.009849669443659"><ele>86.8</ele><time>2026-04-09T15:45:23Z</time></trkpt><trkpt lat="44.393714539500294" lon="9.009727249639901"><ele>82.19999999999999</ele><time>2026-04-09T15:45:24Z</time></trkpt><trkpt lat="44.39365511714512" lon="9.009603946054394"><ele>77.6</ele><time>2026-04-09T15:45:25Z</time></trkpt><trkpt lat="44.39360718726709" lon="9.009498734134405"><ele>73.0</ele><time>2026-04-09T15:45:26Z</time></trkpt><trkpt lat="44.39355238465105" lon="9.009366562014439"><ele>73.0</ele><time>2026-04-09T15:45:28Z</time></trkpt><trkpt lat="44.39352623820768" lon="9.009283640572951"><ele>73.0</ele><time>2026-04-09T15:45:31Z</time></trkpt><trkpt lat="44.39350361924046" lon="9.009185857557219"><ele>73.0</ele><time>2026-04-09T15:45:37Z</time></trkpt><trkpt lat="44.39348804890314" lon="9.009062649876402"><ele>73.0</ele><time>2026-04-09T15:45:42Z</time></trkpt><trkpt lat="44.393486518416054" lon="9.008954578706925"><ele>73.0</ele><time>2026-04-09T15:45:45Z</time></trkpt><trkpt lat="44.39350000742748" lon="9.008858465361081"><ele>73.0</ele><time>2026-04-09T15:45:51Z</time></trkpt><trkpt lat="44.39351331917864" lon="9.008765691050938"><ele>73.0</ele><time>2026-04-09T15:45:54Z</time></trkpt><trkpt lat="44.39354117403885" lon="9.008659500695167"><ele>71.2</ele><time>2026-04-09T15:45:56Z</time></trkpt><trkpt lat="44.393587969185376" lon="9.00853973222725"><ele>69.4</ele><time>2026-04-09T15:45:58Z</time></trkpt><trkpt lat="44.39363664929392" lon="9.008427394312388"><ele>67.60000000000001</ele><time>2026-04-09T15:46:00Z</time></trkpt><trkpt lat="44.393689947768856" lon="9.008304534892632"><ele>65.8</ele><time>2026-04-09T15:46:02Z</time></trkpt><trkpt lat="44.393740749397914" lon="9.008176605863177"><ele>64.0</ele><time>2026-04-09T15:46:04Z</time></trkpt><trkpt lat="44.393776009358824" lon="9.008083399194945"><ele>63.83333333333333</ele><time>2026-04-09T15:46:06Z</time></trkpt><trkpt lat="44.393809359143674" lon="9.007988155233988"><ele>63.666666666666664</ele><time>2026-04-09T15:46:08Z</time></trkpt><trkpt lat="44.39383626888553" lon="9.00788381967064"><ele>63.5</ele><time>2026-04-09T15:46:09.999Z</time></trkpt><trkpt lat="44.39385339176231" lon="9.007760451647139"><ele>63.33333333333333</ele><time>2026-04-09T15:46:11.999Z</time></trkpt><trkpt lat="44.39385987623841" lon="9.007654282685438"><ele>63.166666666666664</ele><time>2026-04-09T15:46:13.999Z</time></trkpt><trkpt lat="44.393855905869536" lon="9.007553625882894"><ele>63.0</ele><time>2026-04-09T15:46:15.999Z</time></trkpt><trkpt lat="44.39385234638903" lon="9.007459688903152"><ele>63.666666666666664</ele><time>2026-04-09T15:46:17.999Z</time></trkpt><trkpt lat="44.393851710320426" lon="9.007341488618325"><ele>64.33333333333333</ele><time>2026-04-09T15:46:19.999Z</time></trkpt><trkpt lat="44.393851656329396" lon="9.007243596154021"><ele>65.0</ele><time>2026-04-09T15:46:21.999Z</time></trkpt><trkpt lat="44.393848089993945" lon="9.007107547346804"><ele>65.66666666666666</ele><time>2026-04-09T15:46:24.999Z</time></trkpt><trkpt lat="44.393840216643554" lon="9.007018836840185"><ele>66.33333333333333</ele><time>2026-04-09T15:46:25.999Z</time></trkpt><trkpt lat="44.393828231561095" lon="9.006924910508497"><ele>67.0</ele><time>2026-04-09T15:46:26.999Z</time></trkpt><trkpt lat="44.39381585395486" lon="9.006832169826188"><ele>67.0</ele><time>2026-04-09T15:46:27.999Z</time></trkpt><trkpt lat="44.39381465779527" lon="9.006730170643676"><ele>67.0</ele><time>2026-04-09T15:46:28.999Z</time></trkpt><trkpt lat="44.39384001085628" lon="9.00662253737374"><ele>67.0</ele><time>2026-04-09T15:46:29.999Z</time></trkpt><trkpt lat="44.39387759039474" lon="9.006516635124179"><ele>67.0</ele><time>2026-04-09T15:46:30.999Z</time></trkpt><trkpt lat="44.39392992321471" lon="9.006399798408044"><ele>67.0</ele><time>2026-04-09T15:46:31.999Z</time></trkpt><trkpt lat="44.393987886401455" lon="9.006293819759172"><ele>67.0</ele><time>2026-04-09T15:46:32.999Z</time></trkpt><trkpt lat="44.39404860240859" lon="9.006188297741003"><ele>65.6</ele><time>2026-04-09T15:46:33.999Z</time></trkpt><trkpt lat="44.39410847903681" lon="9.006086255599165"><ele>64.2</ele><time>2026-04-09T15:46:34.999Z</time></trkpt><trkpt lat="44.39416506779549" lon="9.005990393379307"><ele>62.8</ele><time>2026-04-09T15:46:35.999Z</time></trkpt><trkpt lat="44.3942184894313" lon="9.005895580692036"><ele>61.4</ele><time>2026-04-09T15:46:36.999Z</time></trkpt><trkpt lat="44.394269915567484" lon="9.005799010014867"><ele>60.0</ele><time>2026-04-09T15:46:37.999Z</time></trkpt><trkpt lat="44.39432535104646" lon="9.00569098711297"><ele>58.0</ele><time>2026-04-09T15:46:38.999Z</time></trkpt><trkpt lat="44.39438020134822" lon="9.005575808080861"><ele>56.0</ele><time>2026-04-09T15:46:39.999Z</time></trkpt><trkpt lat="44.39442671124287" lon="9.00546483260863"><ele>54.0</ele><time>2026-04-09T15:46:40.999Z</time></trkpt><trkpt lat="44.394468607267534" lon="9.005371121991793"><ele>52.0</ele><time>2026-04-09T15:46:41.999Z</time></trkpt><trkpt lat="44.394504624309654" lon="9.005292668046438"><ele>50.0</ele><time>2026-04-09T15:46:42.999Z</time></trkpt><trkpt lat="44.39455320448568" lon="9.005176472119858"><ele>48.0</ele><time>2026-04-09T15:46:44.999Z</time></trkpt><trkpt lat="44.39456486312554" lon="9.00508089066525"><ele>48.599999999999994</ele><time>2026-04-09T15:53:29Z</time></trkpt><trkpt lat="44.39457661390504" lon="9.004956765205645"><ele>49.199999999999996</ele><time>2026-04-09T15:53:41Z</time></trkpt><trkpt lat="44.39460077437526" lon="9.004786176340726"><ele>49.8</ele><time>2026-04-09T15:53:43Z</time></trkpt><trkpt lat="44.39462497999912" lon="9.004689949854553"><ele>50.4</ele><time>2026-04-09T15:53:44Z</time></trkpt><trkpt lat="44.39465540249245" lon="9.004567776134568"><ele>51.0</ele><time>2026-04-09T15:53:45Z</time></trkpt><trkpt lat="44.39468685176129" lon="9.004447395983622"><ele>51.0</ele><time>2026-04-09T15:53:46Z</time></trkpt><trkpt lat="44.39471998343487" lon="9.004320714243885"><ele>51.0</ele><time>2026-04-09T15:53:47Z</time></trkpt><trkpt lat="44.394746783905944" lon="9.004197240115293"><ele>51.0</ele><time>2026-04-09T15:53:48Z</time></trkpt><trkpt lat="44.39477057201217" lon="9.004059387924775"><ele>51.0</ele><time>2026-04-09T15:53:49Z</time></trkpt><trkpt lat="44.39479932191797" lon="9.003916106784962"><ele>51.0</ele><time>2026-04-09T15:53:50Z</time></trkpt><trkpt lat="44.394829946355834" lon="9.003765724191366"><ele>52.5</ele><time>2026-04-09T15:53:51Z</time></trkpt><trkpt lat="44.394852818579864" lon="9.003603826282406"><ele>54.0</ele><time>2026-04-09T15:53:52Z</time></trkpt><trkpt lat="44.39487454830562" lon="9.003431247940211"><ele>55.5</ele><time>2026-04-09T15:53:53Z</time></trkpt><trkpt lat="44.39488914656662" lon="9.003261145464167"><ele>57.0</ele><time>2026-04-09T15:53:54Z</time></trkpt><trkpt lat="44.39490438910618" lon="9.003097911131073"><ele>57.0</ele><time>2026-04-09T15:53:55Z</time></trkpt><trkpt lat="44.394917507404536" lon="9.002928220810626"><ele>57.0</ele><time>2026-04-09T15:53:56Z</time></trkpt><trkpt lat="44.39493090682187" lon="9.002751599902673"><ele>57.0</ele><time>2026-04-09T15:53:57Z</time></trkpt><trkpt lat="44.39494365818008" lon="9.002578497608603"><ele>57.0</ele><time>2026-04-09T15:53:58Z</time></trkpt><trkpt lat="44.39495086676392" lon="9.002413266048944"><ele>56.0</ele><time>2026-04-09T15:53:59Z</time></trkpt><trkpt lat="44.39494301653983" lon="9.002255344924514"><ele>55.0</ele><time>2026-04-09T15:54:00Z</time></trkpt><trkpt lat="44.39491994391142" lon="9.002112833325821"><ele>54.0</ele><time>2026-04-09T15:54:01Z</time></trkpt><trkpt lat="44.39488550572009" lon="9.001978990395166"><ele>53.0</ele><time>2026-04-09T15:54:02Z</time></trkpt><trkpt lat="44.394838161957516" lon="9.001837026265159"><ele>52.0</ele><time>2026-04-09T15:54:03Z</time></trkpt><trkpt lat="44.39478940946684" lon="9.001716832175076"><ele>52.166666666666664</ele><time>2026-04-09T15:54:04Z</time></trkpt><trkpt lat="44.394733928859225" lon="9.001612358508654"><ele>52.33333333333333</ele><time>2026-04-09T15:54:05Z</time></trkpt><trkpt lat="44.39468151575919" lon="9.001519120002545"><ele>52.5</ele><time>2026-04-09T15:54:06Z</time></trkpt><trkpt lat="44.39463524250577" lon="9.00143656320969"><ele>52.66666666666667</ele><time>2026-04-09T15:54:07Z</time></trkpt><trkpt lat="44.39457638323686" lon="9.001325768411288"><ele>52.833333333333336</ele><time>2026-04-09T15:54:09Z</time></trkpt><trkpt lat="44.39452221607128" lon="9.001226796293267"><ele>53.0</ele><time>2026-04-09T15:54:11Z</time></trkpt><trkpt lat="44.394484088706854" lon="9.001147519724473"><ele>52.0</ele><time>2026-04-09T15:54:12Z</time></trkpt><trkpt lat="44.39442651904619" lon="9.001027511316902"><ele>51.0</ele><time>2026-04-09T15:54:14Z</time></trkpt><trkpt lat="44.39438590783936" lon="9.000942207239602"><ele>50.0</ele><time>2026-04-09T15:54:17Z</time></trkpt><trkpt lat="44.39434504109564" lon="9.000841624052542"><ele>49.0</ele><time>2026-04-09T15:54:30.999Z</time></trkpt><trkpt lat="44.39428147650157" lon="9.000664863801125"><ele>48.0</ele><time>2026-04-09T15:54:32.999Z</time></trkpt><trkpt lat="44.39425126650615" lon="9.000540047453391"><ele>48.0</ele><time>2026-04-09T15:54:33.999Z</time></trkpt><trkpt lat="44.39422207442105" lon="9.00039427701882"><ele>48.0</ele><time>2026-04-09T15:54:34.999Z</time></trkpt><trkpt lat="44.39419703624029" lon="9.000240914290353"><ele>48.0</ele><time>2026-04-09T15:54:35.999Z</time></trkpt><trkpt lat="44.39417730884829" lon="9.000067369103427"><ele>48.0</ele><time>2026-04-09T15:54:36.999Z</time></trkpt><trkpt lat="44.39416238653869" lon="8.999870078977949"><ele>48.0</ele><time>2026-04-09T15:54:37.999Z</time></trkpt><trkpt lat="44.394159267493926" lon="8.999683455568116"><ele>48.0</ele><time>2026-04-09T15:54:38.999Z</time></trkpt><trkpt lat="44.39416814424274" lon="8.999507545113644"><ele>48.0</ele><time>2026-04-09T15:54:39.999Z</time></trkpt><trkpt lat="44.39417848296044" lon="8.999337584058956"><ele>48.0</ele><time>2026-04-09T15:54:40.999Z</time></trkpt><trkpt lat="44.394193328625576" lon="8.999167523567115"><ele>46.0</ele><time>2026-04-09T15:54:41.999Z</time></trkpt><trkpt lat="44.39421305389394" lon="8.998996869132935"><ele>44.0</ele><time>2026-04-09T15:54:42.999Z</time></trkpt><trkpt lat="44.39423545633387" lon="8.998818176003413"><ele>42.0</ele><time>2026-04-09T15:54:43.999Z</time></trkpt><trkpt lat="44.394260466700935" lon="8.998634695345972"><ele>40.0</ele><time>2026-04-09T15:54:44.999Z</time></trkpt><trkpt lat="44.39428924203369" lon="8.998444358006434"><ele>39.5</ele><time>2026-04-09T15:54:45.999Z</time></trkpt><trkpt lat="44.3943167945772" lon="8.99826958260379"><ele>39.0</ele><time>2026-04-09T15:54:46.999Z</time></trkpt><trkpt lat="44.394344193490454" lon="8.99809465942941"><ele>38.5</ele><time>2026-04-09T15:54:47.999Z</time></trkpt><trkpt lat="44.39437137438914" lon="8.99792135663135"><ele>38.0</ele><time>2026-04-09T15:54:48.999Z</time></trkpt><trkpt lat="44.39439878775639" lon="8.997744061589602"><ele>38.0</ele><time>2026-04-09T15:54:49.999Z</time></trkpt><trkpt lat="44.3944276414383" lon="8.997567247725504"><ele>38.0</ele><time>2026-04-09T15:54:50.999Z</time></trkpt><trkpt lat="44.39445373548034" lon="8.997404005865901"><ele>38.0</ele><time>2026-04-09T15:54:51.999Z</time></trkpt><trkpt lat="44.394479000947044" lon="8.997249160397558"><ele>38.0</ele><time>2026-04-09T15:54:52.999Z</time></trkpt><trkpt lat="44.39450180711072" lon="8.997098419340562"><ele>39.0</ele><time>2026-04-09T15:54:53.999Z</time></trkpt><trkpt lat="44.39452372153627" lon="8.99695250277198"><ele>40.0</ele><time>2026-04-09T15:54:54.999Z</time></trkpt><trkpt lat="44.394543983467564" lon="8.996818340739509"><ele>41.0</ele><time>2026-04-09T15:54:55.999Z</time></trkpt><trkpt lat="44.39455932717756" lon="8.99669829415912"><ele>42.0</ele><time>2026-04-09T15:54:56.999Z</time></trkpt><trkpt lat="44.39457364402125" lon="8.996592902943714"><ele>43.0</ele><time>2026-04-09T15:54:57.999Z</time></trkpt><trkpt lat="44.39458568114259" lon="8.996505437828258"><ele>44.0</ele><time>2026-04-09T15:54:58.999Z</time></trkpt><trkpt lat="44.394607341800466" lon="8.996348757613797"><ele>44.166666666666664</ele><time>2026-04-09T15:55:00.999Z</time></trkpt><trkpt lat="44.39461459275246" lon="8.996238540373101"><ele>44.33333333333333</ele><time>2026-04-09T15:55:02.999Z</time></trkpt><trkpt lat="44.394624296337746" lon="8.9961027099038"><ele>44.5</ele><time>2026-04-09T15:55:05.999Z</time></trkpt><trkpt lat="44.39464050294731" lon="8.996012826693798"><ele>44.666666666666664</ele><time>2026-04-09T15:55:06.999Z</time></trkpt><trkpt lat="44.394670237345714" lon="8.99590030372137"><ele>44.833333333333336</ele><time>2026-04-09T15:55:07.999Z</time></trkpt><trkpt lat="44.39469387755568" lon="8.995780152880254"><ele>45.0</ele><time>2026-04-09T15:55:08.999Z</time></trkpt><trkpt lat="44.39472057284774" lon="8.995632947973343"><ele>47.5</ele><time>2026-04-09T15:55:09.999Z</time></trkpt><trkpt lat="44.394743884250055" lon="8.99548404912564"><ele>50.0</ele><time>2026-04-09T15:55:10.999Z</time></trkpt><trkpt lat="44.394769048837915" lon="8.995319230108475"><ele>52.5</ele><time>2026-04-09T15:55:11.999Z</time></trkpt><trkpt lat="44.39479467866134" lon="8.995149636249975"><ele>55.0</ele><time>2026-04-09T15:55:12.999Z</time></trkpt><trkpt lat="44.394818242453304" lon="8.994978530589897"><ele>55.0</ele><time>2026-04-09T15:55:13.999Z</time></trkpt><trkpt lat="44.39484574670298" lon="8.994808542412208"><ele>55.0</ele><time>2026-04-09T15:55:14.999Z</time></trkpt><trkpt lat="44.39487385348803" lon="8.99465453769822"><ele>55.0</ele><time>2026-04-09T15:55:15.999Z</time></trkpt><trkpt lat="44.39491099988007" lon="8.994496280777089"><ele>55.0</ele><time>2026-04-09T15:55:16.999Z</time></trkpt><trkpt lat="44.394959683364796" lon="8.994344112332405"><ele>55.0</ele><time>2026-04-09T15:55:17.999Z</time></trkpt><trkpt lat="44.39502208977582" lon="8.994193710395884"><ele>55.0</ele><time>2026-04-09T15:55:18.999Z</time></trkpt><trkpt lat="44.3950977147498" lon="8.99404851782019"><ele>55.0</ele><time>2026-04-09T15:55:19.999Z</time></trkpt><trkpt lat="44.395180836112026" lon="8.993918225609251"><ele>55.0</ele><time>2026-04-09T15:55:20.999Z</time></trkpt><trkpt lat="44.395272421450514" lon="8.993803726027693"><ele>54.0</ele><time>2026-04-09T15:55:21.999Z</time></trkpt><trkpt lat="44.395378298329085" lon="8.993700096771109"><ele>53.0</ele><time>2026-04-09T15:55:22.999Z</time></trkpt><trkpt lat="44.39549544856454" lon="8.993609752292185"><ele>52.0</ele><time>2026-04-09T15:55:23.999Z</time></trkpt><trkpt lat="44.39562445229526" lon="8.993537002069033"><ele>51.0</ele><time>2026-04-09T15:55:24.999Z</time></trkpt><trkpt lat="44.39575976754924" lon="8.993489191872293"><ele>51.0</ele><time>2026-04-09T15:55:25.999Z</time></trkpt><trkpt lat="44.395898385170725" lon="8.993475267888115"><ele>51.0</ele><time>2026-04-09T15:55:26.999Z</time></trkpt><trkpt lat="44.39603596091493" lon="8.993481696169248"><ele>51.0</ele><time>2026-04-09T15:55:27.999Z</time></trkpt><trkpt lat="44.39616819520042" lon="8.99350175947857"><ele>51.0</ele><time>2026-04-09T15:55:28.999Z</time></trkpt><trkpt lat="44.39630478336449" lon="8.993524802636728"><ele>51.5</ele><time>2026-04-09T15:55:29.999Z</time></trkpt><trkpt lat="44.396442280132725" lon="8.993545754287185"><ele>52.0</ele><time>2026-04-09T15:55:31Z</time></trkpt><trkpt lat="44.39658081792397" lon="8.993567163532516"><ele>52.5</ele><time>2026-04-09T15:55:32Z</time></trkpt><trkpt lat="44.39672043884427" lon="8.993586531157268"><ele>53.0</ele><time>2026-04-09T15:55:33Z</time></trkpt><trkpt lat="44.39686301750669" lon="8.993602649333935"><ele>53.0</ele><time>2026-04-09T15:55:34Z</time></trkpt><trkpt lat="44.39700492194719" lon="8.993622501214006"><ele>53.0</ele><time>2026-04-09T15:55:35Z</time></trkpt><trkpt lat="44.3971472833124" lon="8.993637642183241"><ele>53.0</ele><time>2026-04-09T15:55:36Z</time></trkpt><trkpt lat="44.39729161429296" lon="8.993654653882801"><ele>53.0</ele><time>2026-04-09T15:55:37Z</time></trkpt><trkpt lat="44.397435475173516" lon="8.993671479202597"><ele>52.0</ele><time>2026-04-09T15:55:38Z</time></trkpt><trkpt lat="44.39757680103842" lon="8.993689153925114"><ele>51.0</ele><time>2026-04-09T15:55:39Z</time></trkpt><trkpt lat="44.39771238749389" lon="8.993699019616974"><ele>50.0</ele><time>2026-04-09T15:55:40Z</time></trkpt><trkpt lat="44.39784011524889" lon="8.993703032948286"><ele>49.0</ele><time>2026-04-09T15:55:41Z</time></trkpt><trkpt lat="44.39796303039865" lon="8.993692577725707"><ele>49.5</ele><time>2026-04-09T15:55:42Z</time></trkpt><trkpt lat="44.39808052333447" lon="8.993655616949004"><ele>50.0</ele><time>2026-04-09T15:55:43Z</time></trkpt><trkpt lat="44.398197771519754" lon="8.993599278037415"><ele>50.5</ele><time>2026-04-09T15:55:44Z</time></trkpt><trkpt lat="44.39830774644355" lon="8.993521641272975"><ele>51.0</ele><time>2026-04-09T15:55:45Z</time></trkpt><trkpt lat="44.398403939253605" lon="8.993431299847158"><ele>48.0</ele><time>2026-04-09T15:55:46Z</time></trkpt><trkpt lat="44.39849251352633" lon="8.99332340049822"><ele>45.0</ele><time>2026-04-09T15:55:47Z</time></trkpt><trkpt lat="44.39856986229478" lon="8.993195732877181"><ele>42.0</ele><time>2026-04-09T15:55:48Z</time></trkpt><trkpt lat="44.398634370367816" lon="8.993057288905428"><ele>39.0</ele><time>2026-04-09T15:55:49Z</time></trkpt><trkpt lat="44.39868337919697" lon="8.992917701142156"><ele>39.0</ele><time>2026-04-09T15:55:50Z</time></trkpt><trkpt lat="44.3987195971609" lon="8.992783134220733"><ele>39.0</ele><time>2026-04-09T15:55:51Z</time></trkpt><trkpt lat="44.39874595956446" lon="8.992651068520983"><ele>39.0</ele><time>2026-04-09T15:55:52Z</time></trkpt><trkpt lat="44.39876622098889" lon="8.992529105400148"><ele>39.0</ele><time>2026-04-09T15:55:53Z</time></trkpt><trkpt lat="44.39877187951983" lon="8.992423979437696"><ele>39.0</ele><time>2026-04-09T15:55:54Z</time></trkpt><trkpt lat="44.398776987219605" lon="8.992289129445334"><ele>38.4</ele><time>2026-04-09T15:55:56Z</time></trkpt><trkpt lat="44.39878574793317" lon="8.992165873511135"><ele>37.8</ele><time>2026-04-09T15:55:58Z</time></trkpt><trkpt lat="44.39880671755156" lon="8.992014747607021"><ele>37.2</ele><time>2026-04-09T15:56:00Z</time></trkpt><trkpt lat="44.39880300144622" lon="8.991906628454899"><ele>36.6</ele><time>2026-04-09T15:56:02Z</time></trkpt><trkpt lat="44.39881467148548" lon="8.99177249458811"><ele>36.0</ele><time>2026-04-09T15:56:09Z</time></trkpt><trkpt lat="44.39882219970807" lon="8.991655243487601"><ele>36.0</ele><time>2026-04-09T15:56:11Z</time></trkpt><trkpt lat="44.39882684462653" lon="8.991527055663509"><ele>36.0</ele><time>2026-04-09T15:56:13Z</time></trkpt><trkpt lat="44.3988285035592" lon="8.99143562739606"><ele>36.0</ele><time>2026-04-09T15:56:14Z</time></trkpt><trkpt lat="44.39883597476926" lon="8.991329925556393"><ele>36.0</ele><time>2026-04-09T15:56:15Z</time></trkpt><trkpt lat="44.39883830834805" lon="8.991218620683162"><ele>36.0</ele><time>2026-04-09T15:56:16Z</time></trkpt><trkpt lat="44.39884386572802" lon="8.991096634255255"><ele>36.0</ele><time>2026-04-09T15:56:17Z</time></trkpt><trkpt lat="44.398847524227605" lon="8.990980547061238"><ele>37.333333333333336</ele><time>2026-04-09T15:56:18Z</time></trkpt><trkpt lat="44.39885943385336" lon="8.99085593373161"><ele>38.666666666666664</ele><time>2026-04-09T15:56:19Z</time></trkpt><trkpt lat="44.39887368543124" lon="8.990721953956772"><ele>40.0</ele><time>2026-04-09T15:56:20Z</time></trkpt><trkpt lat="44.39889356811676" lon="8.990591158468732"><ele>41.33333333333333</ele><time>2026-04-09T15:56:21Z</time></trkpt><trkpt lat="44.3989151964757" lon="8.990485454891472"><ele>42.666666666666664</ele><time>2026-04-09T15:56:22Z</time></trkpt><trkpt lat="44.39894415341134" lon="8.990379242265083"><ele>44.0</ele><time>2026-04-09T15:56:23Z</time></trkpt><trkpt lat="44.39898295401675" lon="8.99026409452362"><ele>44.0</ele><time>2026-04-09T15:56:24Z</time></trkpt><trkpt lat="44.39902050328875" lon="8.990156591972308"><ele>44.0</ele><time>2026-04-09T15:56:25Z</time></trkpt><trkpt lat="44.39906416756227" lon="8.990058904646027"><ele>44.0</ele><time>2026-04-09T15:56:26Z</time></trkpt><trkpt lat="44.39911286850928" lon="8.989960304869891"><ele>44.0</ele><time>2026-04-09T15:56:27Z</time></trkpt><trkpt lat="44.39916115559024" lon="8.98987158190512"><ele>44.0</ele><time>2026-04-09T15:56:28Z</time></trkpt><trkpt lat="44.39920985939422" lon="8.989794252468398"><ele>44.0</ele><time>2026-04-09T15:56:29Z</time></trkpt><trkpt lat="44.39926482706901" lon="8.989714912849744"><ele>43.33333333333333</ele><time>2026-04-09T15:56:30Z</time></trkpt><trkpt lat="44.399320496589745" lon="8.98963145630203"><ele>42.666666666666664</ele><time>2026-04-09T15:56:31Z</time></trkpt><trkpt lat="44.39938010367408" lon="8.989543015678452"><ele>42.0</ele><time>2026-04-09T15:56:32Z</time></trkpt><trkpt lat="44.39943750207215" lon="8.989455279527554"><ele>41.333333333333336</ele><time>2026-04-09T15:56:33Z</time></trkpt><trkpt lat="44.39948895452817" lon="8.989375626871105"><ele>40.66666666666667</ele><time>2026-04-09T15:56:34Z</time></trkpt><trkpt lat="44.39953999770904" lon="8.989293393935037"><ele>40.0</ele><time>2026-04-09T15:56:35Z</time></trkpt><trkpt lat="44.399592647637675" lon="8.989212039254475"><ele>38.0</ele><time>2026-04-09T15:56:35.999Z</time></trkpt><trkpt lat="44.3996485987463" lon="8.989124215140242"><ele>36.0</ele><time>2026-04-09T15:56:36.999Z</time></trkpt><trkpt lat="44.39970659271813" lon="8.989029433503115"><ele>34.0</ele><time>2026-04-09T15:56:37.999Z</time></trkpt><trkpt lat="44.39977068356658" lon="8.988931759238291"><ele>32.0</ele><time>2026-04-09T15:56:38.999Z</time></trkpt><trkpt lat="44.3998388059307" lon="8.988824169967279"><ele>30.0</ele><time>2026-04-09T15:56:39.999Z</time></trkpt><trkpt lat="44.39990144410713" lon="8.988724136395515"><ele>31.0</ele><time>2026-04-09T15:56:40.999Z</time></trkpt><trkpt lat="44.399965427654216" lon="8.988630083220489"><ele>32.0</ele><time>2026-04-09T15:56:41.999Z</time></trkpt><trkpt lat="44.40003415587588" lon="8.988525616065958"><ele>33.0</ele><time>2026-04-09T15:56:42.999Z</time></trkpt><trkpt lat="44.400113342865154" lon="8.988431611783245"><ele>34.0</ele><time>2026-04-09T15:56:43.999Z</time></trkpt><trkpt lat="44.40019461354689" lon="8.988356563201462"><ele>35.0</ele><time>2026-04-09T15:56:44.999Z</time></trkpt><trkpt lat="44.40027332346841" lon="8.988304524966189"><ele>35.0</ele><time>2026-04-09T15:56:45.999Z</time></trkpt><trkpt lat="44.400346249294" lon="8.988264730990242"><ele>35.0</ele><time>2026-04-09T15:56:46.999Z</time></trkpt><trkpt lat="44.40041656534818" lon="8.988231766549543"><ele>35.0</ele><time>2026-04-09T15:56:47.999Z</time></trkpt><trkpt lat="44.400479893528576" lon="8.988199339429611"><ele>35.0</ele><time>2026-04-09T15:56:48.999Z</time></trkpt><trkpt lat="44.400541031564146" lon="8.988175030970412"><ele>35.0</ele><time>2026-04-09T15:56:49.999Z</time></trkpt><trkpt lat="44.400656368691884" lon="8.98811956067158"><ele>35.0</ele><time>2026-04-09T15:56:51.999Z</time></trkpt><trkpt lat="44.40075802144713" lon="8.988079531255467"><ele>36.33333333333333</ele><time>2026-04-09T15:56:53.999Z</time></trkpt><trkpt lat="44.40085598659479" lon="8.98804276072308"><ele>37.666666666666664</ele><time>2026-04-09T15:56:55.999Z</time></trkpt><trkpt lat="44.40093120258081" lon="8.988005949504053"><ele>39.0</ele><time>2026-04-09T15:56:57.999Z</time></trkpt><trkpt lat="44.40099807316928" lon="8.987978899420547"><ele>40.333333333333336</ele><time>2026-04-09T15:56:59.999Z</time></trkpt><trkpt lat="44.40105762747613" lon="8.987949190025267"><ele>41.66666666666667</ele><time>2026-04-09T15:57:01.999Z</time></trkpt><trkpt lat="44.401139552870326" lon="8.987906205732603"><ele>43.0</ele><time>2026-04-09T15:57:04.999Z</time></trkpt><trkpt lat="44.40119853884502" lon="8.987868487847486"><ele>43.00000000000001</ele><time>2026-04-09T15:57:06.999Z</time></trkpt><trkpt lat="44.401273813374544" lon="8.987811784838236"><ele>43.0</ele><time>2026-04-09T15:57:09.999Z</time></trkpt><trkpt lat="44.40132656593767" lon="8.98775745291714"><ele>43.0</ele><time>2026-04-09T15:57:13.999Z</time></trkpt><trkpt lat="44.4013797517473" lon="8.98770238646993"><ele>43.0</ele><time>2026-04-09T15:57:21.999Z</time></trkpt><trkpt lat="44.40143544892846" lon="8.98763912393348"><ele>43.0</ele><time>2026-04-09T15:57:25.999Z</time></trkpt><trkpt lat="44.40149027407523" lon="8.987563428708226"><ele>43.00000000000001</ele><time>2026-04-09T15:57:28.999Z</time></trkpt><trkpt lat="44.401540396751685" lon="8.987471063802152"><ele>43.0</ele><time>2026-04-09T15:57:37Z</time></trkpt><trkpt lat="44.40158049207499" lon="8.98739809202674"><ele>40.833333333333336</ele><time>2026-04-09T15:57:39Z</time></trkpt><trkpt lat="44.40161641084209" lon="8.987324652381144"><ele>38.66666666666667</ele><time>2026-04-09T15:57:41Z</time></trkpt><trkpt lat="44.401658642496514" lon="8.987223585992979"><ele>36.5</ele><time>2026-04-09T15:57:44Z</time></trkpt><trkpt lat="44.40170941522366" lon="8.98713469527911"><ele>34.333333333333336</ele><time>2026-04-09T15:57:53Z</time></trkpt><trkpt lat="44.40175255289183" lon="8.987022442239828"><ele>32.166666666666664</ele><time>2026-04-09T15:57:56Z</time></trkpt><trkpt lat="44.401793178333484" lon="8.986918146958573"><ele>30.0</ele><time>2026-04-09T15:57:58Z</time></trkpt><trkpt lat="44.40182511543629" lon="8.986838021304527"><ele>30.0</ele><time>2026-04-09T15:58:02Z</time></trkpt><trkpt lat="44.401865549927216" lon="8.986754261542098"><ele>30.0</ele><time>2026-04-09T15:58:06Z</time></trkpt><trkpt lat="44.40191517005058" lon="8.986643471717425"><ele>30.0</ele><time>2026-04-09T15:58:09Z</time></trkpt><trkpt lat="44.401946770326184" lon="8.986561188799728"><ele>30.0</ele><time>2026-04-09T15:58:11Z</time></trkpt><trkpt lat="44.40197938160739" lon="8.986468743394282"><ele>30.0</ele><time>2026-04-09T15:58:14Z</time></trkpt><trkpt lat="44.40200733967279" lon="8.986388569500429"><ele>30.0</ele><time>2026-04-09T15:58:16Z</time></trkpt><trkpt lat="44.402042074741274" lon="8.986289703036261"><ele>30.0</ele><time>2026-04-09T15:58:18Z</time></trkpt><trkpt lat="44.402076709872354" lon="8.98620507156522"><ele>30.166666666666668</ele><time>2026-04-09T15:58:21Z</time></trkpt><trkpt lat="44.40210971076835" lon="8.986100497744996"><ele>30.333333333333336</ele><time>2026-04-09T15:59:00.999Z</time></trkpt><trkpt lat="44.40214539442304" lon="8.98601209052344"><ele>30.5</ele><time>2026-04-09T15:59:02.999Z</time></trkpt><trkpt lat="44.402194293878836" lon="8.98589472147546"><ele>30.666666666666668</ele><time>2026-04-09T15:59:04.999Z</time></trkpt><trkpt lat="44.40225802785466" lon="8.985739885501246"><ele>30.833333333333336</ele><time>2026-04-09T15:59:06.999Z</time></trkpt><trkpt lat="44.40229292500195" lon="8.985655291226086"><ele>31.0</ele><time>2026-04-09T15:59:07.999Z</time></trkpt><trkpt lat="44.40235750394313" lon="8.985507727803887"><ele>31.0</ele><time>2026-04-09T15:59:09.999Z</time></trkpt><trkpt lat="44.402414565937356" lon="8.98538852645053"><ele>31.0</ele><time>2026-04-09T15:59:11.999Z</time></trkpt><trkpt lat="44.40245901913977" lon="8.98527520562722"><ele>31.0</ele><time>2026-04-09T15:59:13.999Z</time></trkpt><trkpt lat="44.40251068988788" lon="8.985159842752592"><ele>31.0</ele><time>2026-04-09T15:59:15.999Z</time></trkpt><trkpt lat="44.40257166531671" lon="8.985034201640756"><ele>31.0</ele><time>2026-04-09T15:59:17.999Z</time></trkpt><trkpt lat="44.40260516073744" lon="8.98494778879343"><ele>32.4</ele><time>2026-04-09T15:59:19.999Z</time></trkpt><trkpt lat="44.40264387897691" lon="8.984839393646153"><ele>33.8</ele><time>2026-04-09T15:59:22.999Z</time></trkpt><trkpt lat="44.40267458038015" lon="8.984719099630679"><ele>35.199999999999996</ele><time>2026-04-09T15:59:25.999Z</time></trkpt><trkpt lat="44.4027228975158" lon="8.98460465429268"><ele>36.6</ele><time>2026-04-09T15:59:27.999Z</time></trkpt><trkpt lat="44.40275792612828" lon="8.984501225755405"><ele>38.0</ele><time>2026-04-09T16:00:16Z</time></trkpt><trkpt lat="44.40280755651773" lon="8.984379001728744"><ele>38.0</ele><time>2026-04-09T16:00:19Z</time></trkpt><trkpt lat="44.402838463251804" lon="8.984297684759396"><ele>38.0</ele><time>2026-04-09T16:00:20Z</time></trkpt><trkpt lat="44.40288738428549" lon="8.984171796381307"><ele>38.0</ele><time>2026-04-09T16:00:22Z</time></trkpt><trkpt lat="44.40294158931656" lon="8.984054571932397"><ele>38.0</ele><time>2026-04-09T16:00:24Z</time></trkpt><trkpt lat="44.40298632056315" lon="8.983966929610126"><ele>38.0</ele><time>2026-04-09T16:00:26Z</time></trkpt><trkpt lat="44.40302459943828" lon="8.983876105873788"><ele>38.0</ele><time>2026-04-09T16:00:28Z</time></trkpt><trkpt lat="44.40308015997149" lon="8.983827751030649"><ele>38.666666666666664</ele><time>2026-04-09T16:00:30Z</time></trkpt><trkpt lat="44.40316451668367" lon="8.983888771913978"><ele>39.33333333333333</ele><time>2026-04-09T16:00:32Z</time></trkpt><trkpt lat="44.40326284790597" lon="8.984004735226208"><ele>40.0</ele><time>2026-04-09T16:00:34Z</time></trkpt><trkpt lat="44.403318473804326" lon="8.984061931456292"><ele>40.666666666666664</ele><time>2026-04-09T16:00:35Z</time></trkpt><trkpt lat="44.40337675640638" lon="8.984124258460485"><ele>41.333333333333336</ele><time>2026-04-09T16:00:36Z</time></trkpt><trkpt lat="44.40343503010683" lon="8.984187628182163"><ele>42.0</ele><time>2026-04-09T16:00:37Z</time></trkpt><trkpt lat="44.40349467539146" lon="8.98425144732206"><ele>42.0</ele><time>2026-04-09T16:00:38Z</time></trkpt><trkpt lat="44.40358947330779" lon="8.984358149101114"><ele>42.0</ele><time>2026-04-09T16:00:40Z</time></trkpt><trkpt lat="44.40362821738647" lon="8.984431022018805"><ele>42.0</ele><time>2026-04-09T16:00:41Z</time></trkpt><trkpt lat="44.40368288133235" lon="8.984488661284038"><ele>42.0</ele><time>2026-04-09T16:00:42Z</time></trkpt><trkpt lat="44.40374380254756" lon="8.984551254756935"><ele>42.0</ele><time>2026-04-09T16:00:43Z</time></trkpt><trkpt lat="44.40380806390007" lon="8.984626952010734"><ele>42.0</ele><time>2026-04-09T16:00:44Z</time></trkpt><trkpt lat="44.40386182887749" lon="8.984685409132123"><ele>41.333333333333336</ele><time>2026-04-09T16:00:45Z</time></trkpt><trkpt lat="44.403954387725264" lon="8.984793531193548"><ele>40.666666666666664</ele><time>2026-04-09T16:00:47Z</time></trkpt><trkpt lat="44.40401518161912" lon="8.984854176918462"><ele>40.0</ele><time>2026-04-09T16:00:48Z</time></trkpt><trkpt lat="44.40407815874468" lon="8.984918226704606"><ele>39.33333333333333</ele><time>2026-04-09T16:00:50Z</time></trkpt><trkpt lat="44.404161916281616" lon="8.985004966699972"><ele>38.666666666666664</ele><time>2026-04-09T16:00:52.999Z</time></trkpt><trkpt lat="44.404209348181524" lon="8.985079880073885"><ele>38.0</ele><time>2026-04-09T16:00:53.999Z</time></trkpt><trkpt lat="44.4042846336329" lon="8.985145183693971"><ele>38.0</ele><time>2026-04-09T16:00:55.999Z</time></trkpt><trkpt lat="44.40433935142176" lon="8.98520666411509"><ele>38.0</ele><time>2026-04-09T16:01:02.999Z</time></trkpt><trkpt lat="44.40443567814451" lon="8.985300518165841"><ele>38.0</ele><time>2026-04-09T16:01:04.999Z</time></trkpt><trkpt lat="44.40452057545152" lon="8.985350473851291"><ele>38.0</ele><time>2026-04-09T16:01:06.999Z</time></trkpt><trkpt lat="44.404588490985134" lon="8.985228005550399"><ele>38.0</ele><time>2026-04-09T16:01:19.999Z</time></trkpt><trkpt lat="44.404548010550236" lon="8.985056197086465"><ele>40.0</ele><time>2026-04-09T16:01:21.999Z</time></trkpt><trkpt lat="44.40450672857499" lon="8.984948823624416"><ele>42.0</ele><time>2026-04-09T16:01:22.999Z</time></trkpt><trkpt lat="44.40447266822709" lon="8.984854422245766"><ele>44.0</ele><time>2026-04-09T16:01:23.999Z</time></trkpt><trkpt lat="44.40443618899106" lon="8.984746421734593"><ele>46.0</ele><time>2026-04-09T16:01:24.999Z</time></trkpt><trkpt lat="44.404400133023735" lon="8.984623260901303"><ele>48.00000000000001</ele><time>2026-04-09T16:01:25.999Z</time></trkpt><trkpt lat="44.40437328359001" lon="8.984489210874308"><ele>50.0</ele><time>2026-04-09T16:01:26.999Z</time></trkpt><trkpt lat="44.40434241269445" lon="8.98435264184957"><ele>50.0</ele><time>2026-04-09T16:01:27.999Z</time></trkpt><trkpt lat="44.404321090395264" lon="8.984239186613872"><ele>50.0</ele><time>2026-04-09T16:01:28.999Z</time></trkpt><trkpt lat="44.40430839413487" lon="8.984113754075487"><ele>50.0</ele><time>2026-04-09T16:01:29.999Z</time></trkpt><trkpt lat="44.404330396120294" lon="8.983992899302295"><ele>50.0</ele><time>2026-04-09T16:01:30.999Z</time></trkpt><trkpt lat="44.40437658420549" lon="8.98386116749779"><ele>50.0</ele><time>2026-04-09T16:01:31.999Z</time></trkpt><trkpt lat="44.404451926362185" lon="8.983733585143359"><ele>51.5</ele><time>2026-04-09T16:01:32.999Z</time></trkpt><trkpt lat="44.40454857467462" lon="8.983612783141428"><ele>53.0</ele><time>2026-04-09T16:01:33.999Z</time></trkpt><trkpt lat="44.40466271731053" lon="8.983495351489124"><ele>54.5</ele><time>2026-04-09T16:01:34.999Z</time></trkpt><trkpt lat="44.40478379610086" lon="8.98341360904861"><ele>56.0</ele><time>2026-04-09T16:01:35.999Z</time></trkpt><trkpt lat="44.4048792814586" lon="8.983330476258475"><ele>59.75</ele><time>2026-04-09T16:01:36.999Z</time></trkpt><trkpt lat="44.40498860986724" lon="8.983250140747671"><ele>63.5</ele><time>2026-04-09T16:01:37.999Z</time></trkpt><trkpt lat="44.40505312842692" lon="8.983072623023642"><ele>67.25</ele><time>2026-04-09T16:01:38.999Z</time></trkpt><trkpt lat="44.405145005231645" lon="8.982913087314401"><ele>71.0</ele><time>2026-04-09T16:01:39.999Z</time></trkpt><trkpt lat="44.405236754947325" lon="8.982755454376699"><ele>71.0</ele><time>2026-04-09T16:01:40.999Z</time></trkpt><trkpt lat="44.40532102528537" lon="8.982617706707291"><ele>71.0</ele><time>2026-04-09T16:01:41.999Z</time></trkpt><trkpt lat="44.40539577973261" lon="8.982495513812466"><ele>71.0</ele><time>2026-04-09T16:01:42.999Z</time></trkpt><trkpt lat="44.40545601655931" lon="8.98237588520139"><ele>71.0</ele><time>2026-04-09T16:01:43.999Z</time></trkpt><trkpt lat="44.40553339930465" lon="8.982252017826513"><ele>72.2</ele><time>2026-04-09T16:01:44.999Z</time></trkpt><trkpt lat="44.405611508406515" lon="8.982124070129519"><ele>73.39999999999999</ele><time>2026-04-09T16:01:45.999Z</time></trkpt><trkpt lat="44.40567502730565" lon="8.98201816775641"><ele>74.6</ele><time>2026-04-09T16:01:46.999Z</time></trkpt><trkpt lat="44.40573516591001" lon="8.981939034793221"><ele>75.8</ele><time>2026-04-09T16:01:47.999Z</time></trkpt><trkpt lat="44.40578289612236" lon="8.98186577707487"><ele>77.0</ele><time>2026-04-09T16:01:49Z</time></trkpt><trkpt lat="44.40585546326781" lon="8.981747455649359"><ele>75.0</ele><time>2026-04-09T16:01:51Z</time></trkpt><trkpt lat="44.40590329387415" lon="8.981672170320135"><ele>73.0</ele><time>2026-04-09T16:01:53Z</time></trkpt><trkpt lat="44.40595606153347" lon="8.981550534817373"><ele>71.0</ele><time>2026-04-09T16:03:23.999Z</time></trkpt><trkpt lat="44.40600232607906" lon="8.981479743335779"><ele>69.0</ele><time>2026-04-09T16:03:24.999Z</time></trkpt><trkpt lat="44.40605233780551" lon="8.981405241942811"><ele>67.0</ele><time>2026-04-09T16:03:25.999Z</time></trkpt><trkpt lat="44.40611184501632" lon="8.981307420912211"><ele>65.0</ele><time>2026-04-09T16:03:26.999Z</time></trkpt><trkpt lat="44.406183014432465" lon="8.981203096734523"><ele>65.0</ele><time>2026-04-09T16:03:27.999Z</time></trkpt><trkpt lat="44.40625399633679" lon="8.981107824655572"><ele>65.0</ele><time>2026-04-09T16:03:28.999Z</time></trkpt><trkpt lat="44.40632392733786" lon="8.981030139534754"><ele>65.0</ele><time>2026-04-09T16:03:29.999Z</time></trkpt><trkpt lat="44.406397880733365" lon="8.98095621708006"><ele>65.0</ele><time>2026-04-09T16:03:30.999Z</time></trkpt><trkpt lat="44.40648303758943" lon="8.980894607638024"><ele>65.0</ele><time>2026-04-09T16:03:31.999Z</time></trkpt><trkpt lat="44.406566778943706" lon="8.98083086278171"><ele>66.0</ele><time>2026-04-09T16:03:32.999Z</time></trkpt><trkpt lat="44.40662825577243" lon="8.980767186213328"><ele>67.0</ele><time>2026-04-09T16:03:33.999Z</time></trkpt><trkpt lat="44.406686652442396" lon="8.980718624505343"><ele>68.0</ele><time>2026-04-09T16:03:34.999Z</time></trkpt><trkpt lat="44.40674255721097" lon="8.980647297183049"><ele>69.0</ele><time>2026-04-09T16:03:35.999Z</time></trkpt><trkpt lat="44.40681102304911" lon="8.980573241115536"><ele>70.0</ele><time>2026-04-09T16:03:36.999Z</time></trkpt><trkpt lat="44.40688107690594" lon="8.980498798227213"><ele>71.0</ele><time>2026-04-09T16:03:37.999Z</time></trkpt><trkpt lat="44.40694725511699" lon="8.980440918683806"><ele>71.0</ele><time>2026-04-09T16:03:38.999Z</time></trkpt><trkpt lat="44.407005787306616" lon="8.980404413654044"><ele>71.0</ele><time>2026-04-09T16:03:39.999Z</time></trkpt><trkpt lat="44.40708033339235" lon="8.980397049521732"><ele>71.0</ele><time>2026-04-09T16:03:40.999Z</time></trkpt><trkpt lat="44.40714411576416" lon="8.980401348620823"><ele>71.0</ele><time>2026-04-09T16:03:41.999Z</time></trkpt><trkpt lat="44.407264223223784" lon="8.980435896220056"><ele>71.0</ele><time>2026-04-09T16:03:43.999Z</time></trkpt><trkpt lat="44.407385313526056" lon="8.980439882438773"><ele>71.0</ele><time>2026-04-09T16:03:45.999Z</time></trkpt><trkpt lat="44.40749035734242" lon="8.980369442235304"><ele>71.2</ele><time>2026-04-09T16:03:47.999Z</time></trkpt><trkpt lat="44.40749656186877" lon="8.980219965787219"><ele>71.39999999999999</ele><time>2026-04-09T16:03:48.999Z</time></trkpt><trkpt lat="44.40750441485065" lon="8.980117424024392"><ele>71.6</ele><time>2026-04-09T16:03:49.999Z</time></trkpt><trkpt lat="44.40751018401575" lon="8.980005717941753"><ele>71.8</ele><time>2026-04-09T16:03:50.999Z</time></trkpt><trkpt lat="44.407515801206905" lon="8.979878548323095"><ele>72.0</ele><time>2026-04-09T16:03:51.999Z</time></trkpt><trkpt lat="44.40753720773422" lon="8.979733318312537"><ele>72.0</ele><time>2026-04-09T16:03:52.999Z</time></trkpt><trkpt lat="44.40756837380947" lon="8.979618173538165"><ele>72.0</ele><time>2026-04-09T16:03:53.999Z</time></trkpt><trkpt lat="44.40761493917222" lon="8.979509769021341"><ele>72.0</ele><time>2026-04-09T16:03:55Z</time></trkpt><trkpt lat="44.40764623020621" lon="8.979377781069967"><ele>72.0</ele><time>2026-04-09T16:03:56Z</time></trkpt><trkpt lat="44.4077219652883" lon="8.979266841546254"><ele>72.0</ele><time>2026-04-09T16:03:57Z</time></trkpt><trkpt lat="44.407789704639505" lon="8.979164369128302"><ele>73.5</ele><time>2026-04-09T16:03:58Z</time></trkpt><trkpt lat="44.407844669628" lon="8.979087917726018"><ele>75.0</ele><time>2026-04-09T16:03:59Z</time></trkpt><trkpt lat="44.40789470650473" lon="8.979027269380408"><ele>76.5</ele><time>2026-04-09T16:04:00Z</time></trkpt><trkpt lat="44.40795872108956" lon="8.978959850600164"><ele>78.0</ele><time>2026-04-09T16:04:01Z</time></trkpt><trkpt lat="44.408035963840064" lon="8.978892799842011"><ele>79.5</ele><time>2026-04-09T16:04:02Z</time></trkpt><trkpt lat="44.40812889127923" lon="8.97883853826244"><ele>81.0</ele><time>2026-04-09T16:04:03Z</time></trkpt><trkpt lat="44.408224019752716" lon="8.97879881262829"><ele>81.0</ele><time>2026-04-09T16:04:04Z</time></trkpt><trkpt lat="44.408307854476604" lon="8.97875579096751"><ele>81.0</ele><time>2026-04-09T16:04:05Z</time></trkpt><trkpt lat="44.40838566021619" lon="8.978692600206022"><ele>81.0</ele><time>2026-04-09T16:04:06Z</time></trkpt><trkpt lat="44.40844612279777" lon="8.978575496835292"><ele>81.0</ele><time>2026-04-09T16:04:07Z</time></trkpt><trkpt lat="44.40849125688791" lon="8.978443934443957"><ele>81.0</ele><time>2026-04-09T16:04:08Z</time></trkpt><trkpt lat="44.40850760918948" lon="8.978289625864399"><ele>79.2</ele><time>2026-04-09T16:04:09Z</time></trkpt><trkpt lat="44.40846501953976" lon="8.97813489157616"><ele>77.39999999999999</ele><time>2026-04-09T16:04:10Z</time></trkpt><trkpt lat="44.40845233339109" lon="8.978018526402067"><ele>75.6</ele><time>2026-04-09T16:04:11Z</time></trkpt><trkpt lat="44.40840166166383" lon="8.9779352863399"><ele>73.8</ele><time>2026-04-09T16:04:12Z</time></trkpt><trkpt lat="44.40837058817093" lon="8.97782823869057"><ele>72.0</ele><time>2026-04-09T16:04:13Z</time></trkpt><trkpt lat="44.40834775744148" lon="8.977695121034921"><ele>72.0</ele><time>2026-04-09T16:04:14Z</time></trkpt><trkpt lat="44.40832483018705" lon="8.977542083582003"><ele>72.0</ele><time>2026-04-09T16:04:15Z</time></trkpt><trkpt lat="44.40830393707656" lon="8.977412006314308"><ele>72.0</ele><time>2026-04-09T16:04:16Z</time></trkpt><trkpt lat="44.408305353272375" lon="8.977306236159375"><ele>72.0</ele><time>2026-04-09T16:04:17Z</time></trkpt><trkpt lat="44.408322577343185" lon="8.977209739923413"><ele>72.0</ele><time>2026-04-09T16:04:18Z</time></trkpt><trkpt lat="44.40835416835097" lon="8.977102944452172"><ele>72.0</ele><time>2026-04-09T16:04:19Z</time></trkpt><trkpt lat="44.4083910033562" lon="8.976981094817365"><ele>72.83333333333333</ele><time>2026-04-09T16:04:20Z</time></trkpt><trkpt lat="44.408430187960555" lon="8.976865433226887"><ele>73.66666666666667</ele><time>2026-04-09T16:04:21Z</time></trkpt><trkpt lat="44.40846027786825" lon="8.976761931778272"><ele>74.5</ele><time>2026-04-09T16:04:22Z</time></trkpt><trkpt lat="44.40848267909359" lon="8.976648355063556"><ele>75.33333333333334</ele><time>2026-04-09T16:04:23Z</time></trkpt><trkpt lat="44.40850597233529" lon="8.976539924519617"><ele>76.16666666666667</ele><time>2026-04-09T16:04:24Z</time></trkpt><trkpt lat="44.408503091969145" lon="8.976385325138054"><ele>77.0</ele><time>2026-04-09T16:04:25Z</time></trkpt><trkpt lat="44.40849495583365" lon="8.976236125526293"><ele>77.0</ele><time>2026-04-09T16:04:26Z</time></trkpt><trkpt lat="44.40847880543151" lon="8.976069811945411"><ele>77.0</ele><time>2026-04-09T16:04:27Z</time></trkpt><trkpt lat="44.40845238635504" lon="8.975883073621562"><ele>77.0</ele><time>2026-04-09T16:04:28Z</time></trkpt><trkpt lat="44.40837880968639" lon="8.975715728049815"><ele>77.0</ele><time>2026-04-09T16:04:29Z</time></trkpt><trkpt lat="44.40833139378691" lon="8.975563763023914"><ele>76.0</ele><time>2026-04-09T16:04:30Z</time></trkpt><trkpt lat="44.40827272016711" lon="8.975425188204014"><ele>75.0</ele><time>2026-04-09T16:04:31Z</time></trkpt><trkpt lat="44.40821154204702" lon="8.975299148308597"><ele>74.0</ele><time>2026-04-09T16:04:32Z</time></trkpt><trkpt lat="44.40817664668639" lon="8.975154451501053"><ele>73.0</ele><time>2026-04-09T16:04:33Z</time></trkpt><trkpt lat="44.40811223336375" lon="8.975044882760692"><ele>72.0</ele><time>2026-04-09T16:04:34Z</time></trkpt><trkpt lat="44.40804551636493" lon="8.97494886783216"><ele>71.16666666666667</ele><time>2026-04-09T16:04:35Z</time></trkpt><trkpt lat="44.407978439814855" lon="8.974864794370015"><ele>70.33333333333333</ele><time>2026-04-09T16:04:36Z</time></trkpt><trkpt lat="44.40791069294668" lon="8.974798694672833"><ele>69.5</ele><time>2026-04-09T16:04:37Z</time></trkpt><trkpt lat="44.40784358383085" lon="8.97475450734389"><ele>68.66666666666666</ele><time>2026-04-09T16:04:38Z</time></trkpt><trkpt lat="44.40777479195422" lon="8.97468095413377"><ele>67.83333333333333</ele><time>2026-04-09T16:04:40Z</time></trkpt><trkpt lat="44.40771075435154" lon="8.97462075380606"><ele>67.0</ele><time>2026-04-09T16:04:43Z</time></trkpt><trkpt lat="44.407630624365375" lon="8.974731371497509"><ele>67.0</ele><time>2026-04-09T16:04:44Z</time></trkpt><trkpt lat="44.40753502811888" lon="8.97474539150069"><ele>67.0</ele><time>2026-04-09T16:04:48Z</time></trkpt><trkpt lat="44.40740986465871" lon="8.974761524665862"><ele>67.0</ele><time>2026-04-09T16:04:50Z</time></trkpt><trkpt lat="44.40727815566413" lon="8.974780582264776"><ele>67.0</ele><time>2026-04-09T16:04:52Z</time></trkpt><trkpt lat="44.407203132094516" lon="8.9747915011995"><ele>67.0</ele><time>2026-04-09T16:04:53Z</time></trkpt><trkpt lat="44.407123908744836" lon="8.974797521879346"><ele>68.0</ele><time>2026-04-09T16:04:54Z</time></trkpt><trkpt lat="44.40703822617305" lon="8.974804795080633"><ele>69.0</ele><time>2026-04-09T16:04:55Z</time></trkpt><trkpt lat="44.406946604490244" lon="8.974810400793194"><ele>70.0</ele><time>2026-04-09T16:04:56Z</time></trkpt><trkpt lat="44.40685279438466" lon="8.97481240973627"><ele>71.0</ele><time>2026-04-09T16:04:57Z</time></trkpt><trkpt lat="44.40677142556248" lon="8.974815556493988"><ele>72.0</ele><time>2026-04-09T16:04:58Z</time></trkpt><trkpt lat="44.40666208336982" lon="8.974828231922645"><ele>72.0</ele><time>2026-04-09T16:05:00Z</time></trkpt><trkpt lat="44.40659076264828" lon="8.974841621656442"><ele>72.0</ele><time>2026-04-09T16:05:02.999Z</time></trkpt><trkpt lat="44.40648274269576" lon="8.97484237911248"><ele>72.0</ele><time>2026-04-09T16:05:05.999Z</time></trkpt><trkpt lat="44.406381281725125" lon="8.974836887808163"><ele>72.0</ele><time>2026-04-09T16:05:07.999Z</time></trkpt><trkpt lat="44.40625531713523" lon="8.974842427445246"><ele>72.0</ele><time>2026-04-09T16:05:09.999Z</time></trkpt><trkpt lat="44.40617812757192" lon="8.974846858252036"><ele>73.66666666666667</ele><time>2026-04-09T16:05:10.999Z</time></trkpt><trkpt lat="44.40608427845828" lon="8.974846923404675"><ele>75.33333333333333</ele><time>2026-04-09T16:05:11.999Z</time></trkpt><trkpt lat="44.40601513992232" lon="8.974847920171483"><ele>77.0</ele><time>2026-04-09T16:05:12.999Z</time></trkpt><trkpt lat="44.40592959929213" lon="8.974852739948668"><ele>78.66666666666666</ele><time>2026-04-09T16:05:14.999Z</time></trkpt><trkpt lat="44.405864933013646" lon="8.974820099251335"><ele>80.33333333333333</ele><time>2026-04-09T16:05:17.999Z</time></trkpt><trkpt lat="44.405799542737505" lon="8.974789422621928"><ele>82.0</ele><time>2026-04-09T16:05:21.999Z</time></trkpt><trkpt lat="44.40571514191956" lon="8.974842209861697"><ele>82.0</ele><time>2026-04-09T16:05:32.999Z</time></trkpt><trkpt lat="44.40567202139058" lon="8.97492381882107"><ele>82.0</ele><time>2026-04-09T16:05:33.999Z</time></trkpt><trkpt lat="44.40562739418312" lon="8.974999269873505"><ele>82.0</ele><time>2026-04-09T16:05:34.999Z</time></trkpt><trkpt lat="44.40558011864538" lon="8.975079648057763"><ele>82.0</ele><time>2026-04-09T16:05:35.999Z</time></trkpt><trkpt lat="44.405523032259325" lon="8.975174130433784"><ele>82.0</ele><time>2026-04-09T16:05:36.999Z</time></trkpt><trkpt lat="44.405465520418254" lon="8.97528934019322"><ele>82.0</ele><time>2026-04-09T16:05:37.999Z</time></trkpt><trkpt lat="44.405414742750864" lon="8.975380684233674"><ele>82.14285714285714</ele><time>2026-04-09T16:05:38.999Z</time></trkpt><trkpt lat="44.40537219030842" lon="8.975458702777086"><ele>82.28571428571428</ele><time>2026-04-09T16:05:39.999Z</time></trkpt><trkpt lat="44.40533496650767" lon="8.975533577929774"><ele>82.42857142857142</ele><time>2026-04-09T16:05:40.999Z</time></trkpt><trkpt lat="44.405297295518814" lon="8.975610431654106"><ele>82.57142857142857</ele><time>2026-04-09T16:05:41.999Z</time></trkpt><trkpt lat="44.405244292935485" lon="8.975729432180977"><ele>82.71428571428572</ele><time>2026-04-09T16:05:43.999Z</time></trkpt><trkpt lat="44.405199870764015" lon="8.97581768474537"><ele>82.85714285714285</ele><time>2026-04-09T16:05:46.999Z</time></trkpt><trkpt lat="44.40516734381081" lon="8.975896360596483"><ele>83.0</ele><time>2026-04-09T16:05:50.999Z</time></trkpt><trkpt lat="44.4050908080242" lon="8.976008864332675"><ele>83.0</ele><time>2026-04-09T16:05:52.999Z</time></trkpt><trkpt lat="44.40503271735542" lon="8.976094189321186"><ele>83.0</ele><time>2026-04-09T16:05:53.999Z</time></trkpt><trkpt lat="44.404954529372766" lon="8.976173045390173"><ele>83.0</ele><time>2026-04-09T16:05:54.999Z</time></trkpt><trkpt lat="44.40487098967774" lon="8.97624222089832"><ele>83.0</ele><time>2026-04-09T16:05:55.999Z</time></trkpt><trkpt lat="44.40476233755436" lon="8.976293271058431"><ele>83.0</ele><time>2026-04-09T16:05:56.999Z</time></trkpt><trkpt lat="44.404661087763415" lon="8.976378657650736"><ele>83.0</ele><time>2026-04-09T16:05:57.999Z</time></trkpt><trkpt lat="44.40456756924335" lon="8.976438655511108"><ele>83.0</ele><time>2026-04-09T16:05:58.999Z</time></trkpt><trkpt lat="44.404480490134354" lon="8.976496629444195"><ele>83.0</ele><time>2026-04-09T16:05:59.999Z</time></trkpt><trkpt lat="44.404398192748886" lon="8.976551946925413"><ele>83.0</ele><time>2026-04-09T16:06:01Z</time></trkpt><trkpt lat="44.40432738470318" lon="8.97662266109028"><ele>83.0</ele><time>2026-04-09T16:06:02Z</time></trkpt><trkpt lat="44.40425179918583" lon="8.976680159807085"><ele>80.80000000000001</ele><time>2026-04-09T16:06:03Z</time></trkpt><trkpt lat="44.404199227747796" lon="8.976794726374944"><ele>78.60000000000001</ele><time>2026-04-09T16:06:04Z</time></trkpt><trkpt lat="44.40413175234109" lon="8.97690487235894"><ele>76.4</ele><time>2026-04-09T16:06:05Z</time></trkpt><trkpt lat="44.404057642065986" lon="8.97699893211773"><ele>74.2</ele><time>2026-04-09T16:06:06Z</time></trkpt><trkpt lat="44.403969191878176" lon="8.977030777496537"><ele>72.0</ele><time>2026-04-09T16:06:07Z</time></trkpt><trkpt lat="44.40387151505396" lon="8.977068919961525"><ele>72.4</ele><time>2026-04-09T16:06:08Z</time></trkpt><trkpt lat="44.403764271511655" lon="8.977084026988136"><ele>72.80000000000001</ele><time>2026-04-09T16:06:09Z</time></trkpt><trkpt lat="44.40366258066296" lon="8.97710292647125"><ele>73.2</ele><time>2026-04-09T16:06:10Z</time></trkpt><trkpt lat="44.40357073532802" lon="8.977128501035159"><ele>73.60000000000001</ele><time>2026-04-09T16:06:11Z</time></trkpt><trkpt lat="44.40348477099228" lon="8.97717772619696"><ele>74.0</ele><time>2026-04-09T16:06:12Z</time></trkpt><trkpt lat="44.403408422170806" lon="8.977248275371945"><ele>74.0</ele><time>2026-04-09T16:06:13Z</time></trkpt><trkpt lat="44.4033385351521" lon="8.977346984056812"><ele>74.0</ele><time>2026-04-09T16:06:14Z</time></trkpt><trkpt lat="44.403285992436366" lon="8.977444198974647"><ele>74.0</ele><time>2026-04-09T16:06:15Z</time></trkpt><trkpt lat="44.40323625341021" lon="8.977544522465772"><ele>74.0</ele><time>2026-04-09T16:06:16Z</time></trkpt><trkpt lat="44.40318308452728" lon="8.977654107976782"><ele>74.0</ele><time>2026-04-09T16:06:17Z</time></trkpt><trkpt lat="44.40313095820873" lon="8.97776154349785"><ele>72.5</ele><time>2026-04-09T16:06:18Z</time></trkpt><trkpt lat="44.4030816578301" lon="8.977863150735162"><ele>71.0</ele><time>2026-04-09T16:06:19Z</time></trkpt><trkpt lat="44.40303362084105" lon="8.977959013064298"><ele>69.5</ele><time>2026-04-09T16:06:20Z</time></trkpt><trkpt lat="44.40299293914015" lon="8.978039387402998"><ele>68.0</ele><time>2026-04-09T16:06:21Z</time></trkpt><trkpt lat="44.402953204283776" lon="8.9781091696979"><ele>66.5</ele><time>2026-04-09T16:06:22Z</time></trkpt><trkpt lat="44.40286077577478" lon="8.97824059924931"><ele>65.0</ele><time>2026-04-09T16:06:24Z</time></trkpt><trkpt lat="44.4028061967189" lon="8.9782948518783"><ele>64.8</ele><time>2026-04-09T16:06:25Z</time></trkpt><trkpt lat="44.40268885884398" lon="8.978345242996582"><ele>64.6</ele><time>2026-04-09T16:06:27Z</time></trkpt><trkpt lat="44.40261950890037" lon="8.978349206042054"><ele>64.4</ele><time>2026-04-09T16:06:28Z</time></trkpt><trkpt lat="44.40254951167969" lon="8.978338437287302"><ele>64.2</ele><time>2026-04-09T16:06:29Z</time></trkpt><trkpt lat="44.40248227612618" lon="8.978323114864368"><ele>64.0</ele><time>2026-04-09T16:06:30Z</time></trkpt><trkpt lat="44.402357907576736" lon="8.97829289956853"><ele>63.99999999999999</ele><time>2026-04-09T16:06:32Z</time></trkpt><trkpt lat="44.402286078954674" lon="8.9782775608991"><ele>64.0</ele><time>2026-04-09T16:06:34Z</time></trkpt><trkpt lat="44.402219578462805" lon="8.978263360254306"><ele>64.0</ele><time>2026-04-09T16:06:36Z</time></trkpt><trkpt lat="44.40210889432007" lon="8.978239209239572"><ele>64.0</ele><time>2026-04-09T16:06:38Z</time></trkpt><trkpt lat="44.402000062176285" lon="8.978215072545106"><ele>63.99999999999999</ele><time>2026-04-09T16:06:40Z</time></trkpt><trkpt lat="44.40192947787681" lon="8.978201677910572"><ele>64.0</ele><time>2026-04-09T16:06:41Z</time></trkpt><trkpt lat="44.40184203924981" lon="8.978193475811628"><ele>62.33333333333333</ele><time>2026-04-09T16:06:42Z</time></trkpt><trkpt lat="44.40176142674831" lon="8.978214390340375"><ele>60.666666666666664</ele><time>2026-04-09T16:06:43Z</time></trkpt><trkpt lat="44.40169957235615" lon="8.978254373313042"><ele>59.0</ele><time>2026-04-09T16:06:44Z</time></trkpt><trkpt lat="44.401614092888956" lon="8.97830562763485"><ele>57.33333333333333</ele><time>2026-04-09T16:06:46Z</time></trkpt><trkpt lat="44.40158325961837" lon="8.978437760587612"><ele>55.666666666666664</ele><time>2026-04-09T16:06:48Z</time></trkpt><trkpt lat="44.401651107242344" lon="8.978528439903897"><ele>54.0</ele><time>2026-04-09T16:06:50Z</time></trkpt><trkpt lat="44.40171999227836" lon="8.978533254038775"><ele>52.666666666666664</ele><time>2026-04-09T16:06:51Z</time></trkpt><trkpt lat="44.40179123401926" lon="8.978499625543996"><ele>51.333333333333336</ele><time>2026-04-09T16:06:52Z</time></trkpt><trkpt lat="44.401865789800254" lon="8.97846860277548"><ele>50.0</ele><time>2026-04-09T16:06:53Z</time></trkpt><trkpt lat="44.4019350828928" lon="8.9784782577112"><ele>48.66666666666667</ele><time>2026-04-09T16:06:54Z</time></trkpt><trkpt lat="44.40199310398626" lon="8.978524261311644"><ele>47.333333333333336</ele><time>2026-04-09T16:06:55Z</time></trkpt><trkpt lat="44.40203307644405" lon="8.978595551896522"><ele>46.0</ele><time>2026-04-09T16:06:56Z</time></trkpt><trkpt lat="44.40204344897369" lon="8.978780057072026"><ele>46.0</ele><time>2026-04-09T16:06:58Z</time></trkpt><trkpt lat="44.40206175422752" lon="8.97890376244773"><ele>46.0</ele><time>2026-04-09T16:06:59Z</time></trkpt><trkpt lat="44.40208164058694" lon="8.979042861146548"><ele>46.0</ele><time>2026-04-09T16:07:00Z</time></trkpt><trkpt lat="44.40209911681537" lon="8.979177583722397"><ele>46.0</ele><time>2026-04-09T16:07:01Z</time></trkpt><trkpt lat="44.40211539807859" lon="8.979294196504352"><ele>46.0</ele><time>2026-04-09T16:07:02Z</time></trkpt><trkpt lat="44.402135874342825" lon="8.97941650870989"><ele>45.833333333333336</ele><time>2026-04-09T16:07:03Z</time></trkpt><trkpt lat="44.402158418311785" lon="8.979530619264931"><ele>45.66666666666667</ele><time>2026-04-09T16:07:03.999Z</time></trkpt><trkpt lat="44.40218537731382" lon="8.979634796761585"><ele>45.5</ele><time>2026-04-09T16:07:04.999Z</time></trkpt><trkpt lat="44.40221712247088" lon="8.979711672408325"><ele>45.333333333333336</ele><time>2026-04-09T16:07:05.999Z</time></trkpt><trkpt lat="44.4022322333104" lon="8.979828202462333"><ele>45.166666666666664</ele><time>2026-04-09T16:07:07.999Z</time></trkpt><trkpt lat="44.40223634929104" lon="8.979929965877867"><ele>45.0</ele><time>2026-04-09T16:07:10.999Z</time></trkpt><trkpt lat="44.402229624244" lon="8.979836762669882"><ele>54.0</ele><time>2026-04-09T16:11:01Z</time></trkpt><trkpt lat="44.402242872787674" lon="8.979737588313457"><ele>54.0</ele><time>2026-04-09T16:11:13Z</time></trkpt></trkseg></trk></gpx>